﻿<?xml version="1.0" encoding="UTF-8" standalone="no" ?>
<gpx xmlns="http://www.topografix.com/GPX/1/1" creator="CompeGPS" version="1.1" xmlns:xsi="http://www.w3.org/2001/XMLSchema-instance" xsi:schemaLocation="http://www.topografix.com/GPX/1/1 http://www.topografix.com/GPX/1/1/gpx.xsd">
  <metadata>
    <link href="http://www.compegps.com">
      <text>CompeGPS TEAM, SL</text>
    </link>
    <time>2019-01-13T21:43:33Z</time>
    <bounds maxlat="41.961970" maxlon="3.138295" minlat="41.722239" minlon="2.859212"/>
  </metadata>
  <trk>
    <name>ROAD01_128 CON WAYPOINTS</name>
    <trkseg>
      <trkpt lat="41.881406" lon="3.109434">
        <ele>95.0</ele>
        <time>2019-01-13T21:43:20Z</time>
      </trkpt>
      <trkpt lat="41.881345" lon="3.109484">
        <ele>96.0</ele>
        <time>2019-01-13T21:43:21Z</time>
      </trkpt>
      <trkpt lat="41.881224" lon="3.109584">
        <ele>96.0</ele>
        <time>2019-01-13T21:43:23Z</time>
      </trkpt>
      <trkpt lat="41.881080" lon="3.109590">
        <ele>95.0</ele>
        <time>2019-01-13T21:43:25Z</time>
      </trkpt>
      <trkpt lat="41.880959" lon="3.109621">
        <ele>95.0</ele>
        <time>2019-01-13T21:43:27Z</time>
      </trkpt>
      <trkpt lat="41.880824" lon="3.109609">
        <ele>95.0</ele>
        <time>2019-01-13T21:43:29Z</time>
      </trkpt>
      <trkpt lat="41.880694" lon="3.109584">
        <ele>95.0</ele>
        <time>2019-01-13T21:43:31Z</time>
      </trkpt>
      <trkpt lat="41.880582" lon="3.109540">
        <ele>94.0</ele>
        <time>2019-01-13T21:43:33Z</time>
      </trkpt>
      <trkpt lat="41.880475" lon="3.109478">
        <ele>94.0</ele>
        <time>2019-01-13T21:43:35Z</time>
      </trkpt>
      <trkpt lat="41.880349" lon="3.109503">
        <ele>94.0</ele>
        <time>2019-01-13T21:43:37Z</time>
      </trkpt>
      <trkpt lat="41.880252" lon="3.109571">
        <ele>93.0</ele>
        <time>2019-01-13T21:43:39Z</time>
      </trkpt>
      <trkpt lat="41.880135" lon="3.109609">
        <ele>92.0</ele>
        <time>2019-01-13T21:43:41Z</time>
      </trkpt>
      <trkpt lat="41.880005" lon="3.109628">
        <ele>92.0</ele>
        <time>2019-01-13T21:43:43Z</time>
      </trkpt>
      <trkpt lat="41.879870" lon="3.109615">
        <ele>91.0</ele>
        <time>2019-01-13T21:43:45Z</time>
      </trkpt>
      <trkpt lat="41.879744" lon="3.109640">
        <ele>90.0</ele>
        <time>2019-01-13T21:43:47Z</time>
      </trkpt>
      <trkpt lat="41.879693" lon="3.109765">
        <ele>90.0</ele>
        <time>2019-01-13T21:43:49Z</time>
      </trkpt>
      <trkpt lat="41.879651" lon="3.109903">
        <ele>89.0</ele>
        <time>2019-01-13T21:43:51Z</time>
      </trkpt>
      <trkpt lat="41.879581" lon="3.110003">
        <ele>88.0</ele>
        <time>2019-01-13T21:43:52Z</time>
      </trkpt>
      <trkpt lat="41.879516" lon="3.110115">
        <ele>87.0</ele>
        <time>2019-01-13T21:43:54Z</time>
      </trkpt>
      <trkpt lat="41.879484" lon="3.110265">
        <ele>85.0</ele>
        <time>2019-01-13T21:43:56Z</time>
      </trkpt>
      <trkpt lat="41.879423" lon="3.110390">
        <ele>84.0</ele>
        <time>2019-01-13T21:43:58Z</time>
      </trkpt>
      <trkpt lat="41.879400" lon="3.110559">
        <ele>82.0</ele>
        <time>2019-01-13T21:44:00Z</time>
      </trkpt>
      <trkpt lat="41.879414" lon="3.110734">
        <ele>80.0</ele>
        <time>2019-01-13T21:44:02Z</time>
      </trkpt>
      <trkpt lat="41.879460" lon="3.110878">
        <ele>79.0</ele>
        <time>2019-01-13T21:44:04Z</time>
      </trkpt>
      <trkpt lat="41.879535" lon="3.110978">
        <ele>77.0</ele>
        <time>2019-01-13T21:44:05Z</time>
      </trkpt>
      <trkpt lat="41.879581" lon="3.111109">
        <ele>76.0</ele>
        <time>2019-01-13T21:44:07Z</time>
      </trkpt>
      <trkpt lat="41.879605" lon="3.111284">
        <ele>75.0</ele>
        <time>2019-01-13T21:44:09Z</time>
      </trkpt>
      <trkpt lat="41.879595" lon="3.111466">
        <ele>74.0</ele>
        <time>2019-01-13T21:44:11Z</time>
      </trkpt>
      <trkpt lat="41.879587" lon="3.111643">
        <ele>72.0</ele>
        <time>2019-01-13T21:44:14Z</time>
      </trkpt>
      <trkpt lat="41.879573" lon="3.111927">
        <ele>71.0</ele>
        <time>2019-01-13T21:44:17Z</time>
      </trkpt>
      <trkpt lat="41.879580" lon="3.112221">
        <ele>69.0</ele>
        <time>2019-01-13T21:44:20Z</time>
      </trkpt>
      <trkpt lat="41.879536" lon="3.112467">
        <ele>68.0</ele>
        <time>2019-01-13T21:44:23Z</time>
      </trkpt>
      <trkpt lat="41.879346" lon="3.112515">
        <ele>68.0</ele>
        <time>2019-01-13T21:44:27Z</time>
      </trkpt>
      <trkpt lat="41.879186" lon="3.112427">
        <ele>68.0</ele>
        <time>2019-01-13T21:44:29Z</time>
      </trkpt>
      <trkpt lat="41.878974" lon="3.112408">
        <ele>68.0</ele>
        <time>2019-01-13T21:44:33Z</time>
      </trkpt>
      <trkpt lat="41.878770" lon="3.112437">
        <ele>68.0</ele>
        <time>2019-01-13T21:44:36Z</time>
      </trkpt>
      <trkpt lat="41.878638" lon="3.112565">
        <ele>69.0</ele>
        <time>2019-01-13T21:44:39Z</time>
      </trkpt>
      <trkpt lat="41.878551" lon="3.112751">
        <ele>69.0</ele>
        <time>2019-01-13T21:44:41Z</time>
      </trkpt>
      <trkpt lat="41.878478" lon="3.112957">
        <ele>69.0</ele>
        <time>2019-01-13T21:44:44Z</time>
      </trkpt>
      <trkpt lat="41.878376" lon="3.113123">
        <ele>69.0</ele>
        <time>2019-01-13T21:44:46Z</time>
      </trkpt>
      <trkpt lat="41.878244" lon="3.113260">
        <ele>69.0</ele>
        <time>2019-01-13T21:44:49Z</time>
      </trkpt>
      <trkpt lat="41.878106" lon="3.113378">
        <ele>69.0</ele>
        <time>2019-01-13T21:44:52Z</time>
      </trkpt>
      <trkpt lat="41.878011" lon="3.113554">
        <ele>69.0</ele>
        <time>2019-01-13T21:44:54Z</time>
      </trkpt>
      <trkpt lat="41.877931" lon="3.113760">
        <ele>69.0</ele>
        <time>2019-01-13T21:44:57Z</time>
      </trkpt>
      <trkpt lat="41.877872" lon="3.113986">
        <ele>69.0</ele>
        <time>2019-01-13T21:45:00Z</time>
      </trkpt>
      <trkpt lat="41.877850" lon="3.114260">
        <ele>69.0</ele>
        <time>2019-01-13T21:45:03Z</time>
      </trkpt>
      <trkpt lat="41.877821" lon="3.114525">
        <ele>69.0</ele>
        <time>2019-01-13T21:45:06Z</time>
      </trkpt>
      <trkpt lat="41.877712" lon="3.114691">
        <ele>69.0</ele>
        <time>2019-01-13T21:45:09Z</time>
      </trkpt>
      <trkpt lat="41.877609" lon="3.114868">
        <ele>69.0</ele>
        <time>2019-01-13T21:45:12Z</time>
      </trkpt>
      <trkpt lat="41.877500" lon="3.115034">
        <ele>69.0</ele>
        <time>2019-01-13T21:45:14Z</time>
      </trkpt>
      <trkpt lat="41.877434" lon="3.115260">
        <ele>69.0</ele>
        <time>2019-01-13T21:45:17Z</time>
      </trkpt>
      <trkpt lat="41.877347" lon="3.115446">
        <ele>69.0</ele>
        <time>2019-01-13T21:45:20Z</time>
      </trkpt>
      <trkpt lat="41.877179" lon="3.115534">
        <ele>67.0</ele>
        <time>2019-01-13T21:45:23Z</time>
      </trkpt>
      <trkpt lat="41.876982" lon="3.115583">
        <ele>65.0</ele>
        <time>2019-01-13T21:45:26Z</time>
      </trkpt>
      <trkpt lat="41.876777" lon="3.115622">
        <ele>63.0</ele>
        <time>2019-01-13T21:45:29Z</time>
      </trkpt>
      <trkpt lat="41.876741" lon="3.115877">
        <ele>62.0</ele>
        <time>2019-01-13T21:45:32Z</time>
      </trkpt>
      <trkpt lat="41.876880" lon="3.115995">
        <ele>64.0</ele>
        <time>2019-01-13T21:45:35Z</time>
      </trkpt>
      <trkpt lat="41.876923" lon="3.116240">
        <ele>65.0</ele>
        <time>2019-01-13T21:45:38Z</time>
      </trkpt>
      <trkpt lat="41.876960" lon="3.116495">
        <ele>65.0</ele>
        <time>2019-01-13T21:45:41Z</time>
      </trkpt>
      <trkpt lat="41.877018" lon="3.116720">
        <ele>65.0</ele>
        <time>2019-01-13T21:45:44Z</time>
      </trkpt>
      <trkpt lat="41.877019" lon="3.116992">
        <ele>64.0</ele>
        <time>2019-01-13T21:45:47Z</time>
      </trkpt>
      <trkpt lat="41.876996" lon="3.117162">
        <ele>62.0</ele>
        <time>2019-01-13T21:45:49Z</time>
      </trkpt>
      <trkpt lat="41.876982" lon="3.117344">
        <ele>62.0</ele>
        <time>2019-01-13T21:45:51Z</time>
      </trkpt>
      <trkpt lat="41.876982" lon="3.117540">
        <ele>61.0</ele>
        <time>2019-01-13T21:45:54Z</time>
      </trkpt>
      <trkpt lat="41.876963" lon="3.117710">
        <ele>61.0</ele>
        <time>2019-01-13T21:45:56Z</time>
      </trkpt>
      <trkpt lat="41.876958" lon="3.117905">
        <ele>61.0</ele>
        <time>2019-01-13T21:45:58Z</time>
      </trkpt>
      <trkpt lat="41.876944" lon="3.118101">
        <ele>62.0</ele>
        <time>2019-01-13T21:46:01Z</time>
      </trkpt>
      <trkpt lat="41.876944" lon="3.118302">
        <ele>62.0</ele>
        <time>2019-01-13T21:46:03Z</time>
      </trkpt>
      <trkpt lat="41.876954" lon="3.118497">
        <ele>62.0</ele>
        <time>2019-01-13T21:46:05Z</time>
      </trkpt>
      <trkpt lat="41.876968" lon="3.118686">
        <ele>61.0</ele>
        <time>2019-01-13T21:46:08Z</time>
      </trkpt>
      <trkpt lat="41.876982" lon="3.118875">
        <ele>61.0</ele>
        <time>2019-01-13T21:46:10Z</time>
      </trkpt>
      <trkpt lat="41.876986" lon="3.119077">
        <ele>61.0</ele>
        <time>2019-01-13T21:46:12Z</time>
      </trkpt>
      <trkpt lat="41.877005" lon="3.119247">
        <ele>61.0</ele>
        <time>2019-01-13T21:46:14Z</time>
      </trkpt>
      <trkpt lat="41.877038" lon="3.119398">
        <ele>60.0</ele>
        <time>2019-01-13T21:46:16Z</time>
      </trkpt>
      <trkpt lat="41.877085" lon="3.119537">
        <ele>60.0</ele>
        <time>2019-01-13T21:46:18Z</time>
      </trkpt>
      <trkpt lat="41.877136" lon="3.119669">
        <ele>59.0</ele>
        <time>2019-01-13T21:46:20Z</time>
      </trkpt>
      <trkpt lat="41.877174" lon="3.119814">
        <ele>59.0</ele>
        <time>2019-01-13T21:46:22Z</time>
      </trkpt>
      <trkpt lat="41.877226" lon="3.119953">
        <ele>58.0</ele>
        <time>2019-01-13T21:46:23Z</time>
      </trkpt>
      <trkpt lat="41.877287" lon="3.120079">
        <ele>58.0</ele>
        <time>2019-01-13T21:46:25Z</time>
      </trkpt>
      <trkpt lat="41.877282" lon="3.120274">
        <ele>57.0</ele>
        <time>2019-01-13T21:46:28Z</time>
      </trkpt>
      <trkpt lat="41.877277" lon="3.120469">
        <ele>56.0</ele>
        <time>2019-01-13T21:46:30Z</time>
      </trkpt>
      <trkpt lat="41.877301" lon="3.120640">
        <ele>55.0</ele>
        <time>2019-01-13T21:46:32Z</time>
      </trkpt>
      <trkpt lat="41.877316" lon="3.120798">
        <ele>54.0</ele>
        <time>2019-01-13T21:46:34Z</time>
      </trkpt>
      <trkpt lat="41.877858" lon="3.120897">
        <ele>54.0</ele>
        <time>2019-01-13T21:46:43Z</time>
      </trkpt>
      <trkpt lat="41.878491" lon="3.121128">
        <ele>54.0</ele>
        <time>2019-01-13T21:46:53Z</time>
      </trkpt>
      <trkpt lat="41.879056" lon="3.121218">
        <ele>55.0</ele>
        <time>2019-01-13T21:47:02Z</time>
      </trkpt>
      <trkpt lat="41.879630" lon="3.121514">
        <ele>55.0</ele>
        <time>2019-01-13T21:47:12Z</time>
      </trkpt>
      <trkpt lat="41.880061" lon="3.121861">
        <ele>55.0</ele>
        <time>2019-01-13T21:47:20Z</time>
      </trkpt>
      <trkpt lat="41.880339" lon="3.122106">
        <ele>55.0</ele>
        <time>2019-01-13T21:47:25Z</time>
      </trkpt>
      <trkpt lat="41.880684" lon="3.122299">
        <ele>55.0</ele>
        <time>2019-01-13T21:47:31Z</time>
      </trkpt>
      <trkpt lat="41.880971" lon="3.122453">
        <ele>56.0</ele>
        <time>2019-01-13T21:47:36Z</time>
      </trkpt>
      <trkpt lat="41.881153" lon="3.122453">
        <ele>55.0</ele>
        <time>2019-01-13T21:47:39Z</time>
      </trkpt>
      <trkpt lat="41.881287" lon="3.122865">
        <ele>55.0</ele>
        <time>2019-01-13T21:47:45Z</time>
      </trkpt>
      <trkpt lat="41.881536" lon="3.123058">
        <ele>55.0</ele>
        <time>2019-01-13T21:47:49Z</time>
      </trkpt>
      <trkpt lat="41.881900" lon="3.123482">
        <ele>55.0</ele>
        <time>2019-01-13T21:47:57Z</time>
      </trkpt>
      <trkpt lat="41.882360" lon="3.123932">
        <ele>54.0</ele>
        <time>2019-01-13T21:48:06Z</time>
      </trkpt>
      <trkpt lat="41.882561" lon="3.124215">
        <ele>52.0</ele>
        <time>2019-01-13T21:48:11Z</time>
      </trkpt>
      <trkpt lat="41.882274" lon="3.124396">
        <ele>54.0</ele>
        <time>2019-01-13T21:48:16Z</time>
      </trkpt>
      <trkpt lat="41.881833" lon="3.124704">
        <ele>52.0</ele>
        <time>2019-01-13T21:48:24Z</time>
      </trkpt>
      <trkpt lat="41.881402" lon="3.125077">
        <ele>50.0</ele>
        <time>2019-01-13T21:48:32Z</time>
      </trkpt>
      <trkpt lat="41.880962" lon="3.125386">
        <ele>49.0</ele>
        <time>2019-01-13T21:48:40Z</time>
      </trkpt>
      <trkpt lat="41.880646" lon="3.125656">
        <ele>49.0</ele>
        <time>2019-01-13T21:48:46Z</time>
      </trkpt>
      <trkpt lat="41.880157" lon="3.126081">
        <ele>47.0</ele>
        <time>2019-01-13T21:48:55Z</time>
      </trkpt>
      <trkpt lat="41.879640" lon="3.126557">
        <ele>43.0</ele>
        <time>2019-01-13T21:49:05Z</time>
      </trkpt>
      <trkpt lat="41.879161" lon="3.127084">
        <ele>41.0</ele>
        <time>2019-01-13T21:49:15Z</time>
      </trkpt>
      <trkpt lat="41.878720" lon="3.127805">
        <ele>40.0</ele>
        <time>2019-01-13T21:49:26Z</time>
      </trkpt>
      <trkpt lat="41.878309" lon="3.128383">
        <ele>38.0</ele>
        <time>2019-01-13T21:49:36Z</time>
      </trkpt>
      <trkpt lat="41.877830" lon="3.129014">
        <ele>36.0</ele>
        <time>2019-01-13T21:49:47Z</time>
      </trkpt>
      <trkpt lat="41.877427" lon="3.129554">
        <ele>34.0</ele>
        <time>2019-01-13T21:49:56Z</time>
      </trkpt>
      <trkpt lat="41.877083" lon="3.129991">
        <ele>33.0</ele>
        <time>2019-01-13T21:50:03Z</time>
      </trkpt>
      <trkpt lat="41.876321" lon="3.130771">
        <ele>31.0</ele>
        <time>2019-01-13T21:50:19Z</time>
      </trkpt>
      <trkpt lat="41.875588" lon="3.131393">
        <ele>29.0</ele>
        <time>2019-01-13T21:50:32Z</time>
      </trkpt>
      <trkpt lat="41.875050" lon="3.131795">
        <ele>27.0</ele>
        <time>2019-01-13T21:50:42Z</time>
      </trkpt>
      <trkpt lat="41.874662" lon="3.132878">
        <ele>29.0</ele>
        <time>2019-01-13T21:50:57Z</time>
      </trkpt>
      <trkpt lat="41.874288" lon="3.133802">
        <ele>28.0</ele>
        <time>2019-01-13T21:51:09Z</time>
      </trkpt>
      <trkpt lat="41.873974" lon="3.134785">
        <ele>23.0</ele>
        <time>2019-01-13T21:51:22Z</time>
      </trkpt>
      <trkpt lat="41.873676" lon="3.135467">
        <ele>18.0</ele>
        <time>2019-01-13T21:51:31Z</time>
      </trkpt>
      <trkpt lat="41.873646" lon="3.135748">
        <ele>17.0</ele>
        <time>2019-01-13T21:51:35Z</time>
      </trkpt>
      <trkpt lat="41.873481" lon="3.135788">
        <ele>17.0</ele>
        <time>2019-01-13T21:51:37Z</time>
      </trkpt>
      <trkpt lat="41.873392" lon="3.136029">
        <ele>17.0</ele>
        <time>2019-01-13T21:51:41Z</time>
      </trkpt>
      <trkpt lat="41.873063" lon="3.136431">
        <ele>16.0</ele>
        <time>2019-01-13T21:51:48Z</time>
      </trkpt>
      <trkpt lat="41.872719" lon="3.136953">
        <ele>16.0</ele>
        <time>2019-01-13T21:51:56Z</time>
      </trkpt>
      <trkpt lat="41.872375" lon="3.137454">
        <ele>15.0</ele>
        <time>2019-01-13T21:52:04Z</time>
      </trkpt>
      <trkpt lat="41.872091" lon="3.137796">
        <ele>15.0</ele>
        <time>2019-01-13T21:52:10Z</time>
      </trkpt>
      <trkpt lat="41.871961" lon="3.137810">
        <ele>16.0</ele>
        <time>2019-01-13T21:52:12Z</time>
      </trkpt>
      <trkpt lat="41.871887" lon="3.137922">
        <ele>16.0</ele>
        <time>2019-01-13T21:52:14Z</time>
      </trkpt>
      <trkpt lat="41.871915" lon="3.138064">
        <ele>16.0</ele>
        <time>2019-01-13T21:52:16Z</time>
      </trkpt>
      <trkpt lat="41.871848" lon="3.138196">
        <ele>16.0</ele>
        <time>2019-01-13T21:52:18Z</time>
      </trkpt>
      <trkpt lat="41.871786" lon="3.138295">
        <ele>16.0</ele>
        <time>2019-01-13T21:52:19Z</time>
      </trkpt>
      <trkpt lat="41.871570" lon="3.138264">
        <ele>16.0</ele>
        <time>2019-01-13T21:52:23Z</time>
      </trkpt>
      <trkpt lat="41.871246" lon="3.138201">
        <ele>16.0</ele>
        <time>2019-01-13T21:52:28Z</time>
      </trkpt>
      <trkpt lat="41.870772" lon="3.138085">
        <ele>16.0</ele>
        <time>2019-01-13T21:52:36Z</time>
      </trkpt>
      <trkpt lat="41.869761" lon="3.137858">
        <ele>15.0</ele>
        <time>2019-01-13T21:52:52Z</time>
      </trkpt>
      <trkpt lat="41.868202" lon="3.137509">
        <ele>14.0</ele>
        <time>2019-01-13T21:53:18Z</time>
      </trkpt>
      <trkpt lat="41.867181" lon="3.137185">
        <ele>14.0</ele>
        <time>2019-01-13T21:53:34Z</time>
      </trkpt>
      <trkpt lat="41.866346" lon="3.136612">
        <ele>13.0</ele>
        <time>2019-01-13T21:53:49Z</time>
      </trkpt>
      <trkpt lat="41.865622" lon="3.135765">
        <ele>13.0</ele>
        <time>2019-01-13T21:54:05Z</time>
      </trkpt>
      <trkpt lat="41.865291" lon="3.135332">
        <ele>12.0</ele>
        <time>2019-01-13T21:54:12Z</time>
      </trkpt>
      <trkpt lat="41.864823" lon="3.134300">
        <ele>13.0</ele>
        <time>2019-01-13T21:54:27Z</time>
      </trkpt>
      <trkpt lat="41.864579" lon="3.133508">
        <ele>13.0</ele>
        <time>2019-01-13T21:54:37Z</time>
      </trkpt>
      <trkpt lat="41.864420" lon="3.132816">
        <ele>13.0</ele>
        <time>2019-01-13T21:54:45Z</time>
      </trkpt>
      <trkpt lat="41.864186" lon="3.131935">
        <ele>12.0</ele>
        <time>2019-01-13T21:54:57Z</time>
      </trkpt>
      <trkpt lat="41.863905" lon="3.131293">
        <ele>12.0</ele>
        <time>2019-01-13T21:55:05Z</time>
      </trkpt>
      <trkpt lat="41.863549" lon="3.130614">
        <ele>11.0</ele>
        <time>2019-01-13T21:55:15Z</time>
      </trkpt>
      <trkpt lat="41.862996" lon="3.129859">
        <ele>10.0</ele>
        <time>2019-01-13T21:55:28Z</time>
      </trkpt>
      <trkpt lat="41.862368" lon="3.129205">
        <ele>9.0</ele>
        <time>2019-01-13T21:55:41Z</time>
      </trkpt>
      <trkpt lat="41.861844" lon="3.128501">
        <ele>7.0</ele>
        <time>2019-01-13T21:55:53Z</time>
      </trkpt>
      <trkpt lat="41.861235" lon="3.127544">
        <ele>7.0</ele>
        <time>2019-01-13T21:56:08Z</time>
      </trkpt>
      <trkpt lat="41.860579" lon="3.126211">
        <ele>6.0</ele>
        <time>2019-01-13T21:56:27Z</time>
      </trkpt>
      <trkpt lat="41.859792" lon="3.124852">
        <ele>5.0</ele>
        <time>2019-01-13T21:56:47Z</time>
      </trkpt>
      <trkpt lat="41.859454" lon="3.124211">
        <ele>5.0</ele>
        <time>2019-01-13T21:56:57Z</time>
      </trkpt>
      <trkpt lat="41.859089" lon="3.123632">
        <ele>5.0</ele>
        <time>2019-01-13T21:57:06Z</time>
      </trkpt>
      <trkpt lat="41.858714" lon="3.122764">
        <ele>4.0</ele>
        <time>2019-01-13T21:57:18Z</time>
      </trkpt>
      <trkpt lat="41.858555" lon="3.121946">
        <ele>4.0</ele>
        <time>2019-01-13T21:57:28Z</time>
      </trkpt>
      <trkpt lat="41.858639" lon="3.121418">
        <ele>4.0</ele>
        <time>2019-01-13T21:57:34Z</time>
      </trkpt>
      <trkpt lat="41.858784" lon="3.121072">
        <ele>5.0</ele>
        <time>2019-01-13T21:57:39Z</time>
      </trkpt>
      <trkpt lat="41.859027" lon="3.120905">
        <ele>6.0</ele>
        <time>2019-01-13T21:57:43Z</time>
      </trkpt>
      <trkpt lat="41.859211" lon="3.120825">
        <ele>7.0</ele>
        <time>2019-01-13T21:57:46Z</time>
      </trkpt>
      <trkpt lat="41.859467" lon="3.120729">
        <ele>8.0</ele>
        <time>2019-01-13T21:57:50Z</time>
      </trkpt>
      <trkpt lat="41.859568" lon="3.120442">
        <ele>9.0</ele>
        <time>2019-01-13T21:57:54Z</time>
      </trkpt>
      <trkpt lat="41.859419" lon="3.120259">
        <ele>10.0</ele>
        <time>2019-01-13T21:57:58Z</time>
      </trkpt>
      <trkpt lat="41.859263" lon="3.120206">
        <ele>9.0</ele>
        <time>2019-01-13T21:58:00Z</time>
      </trkpt>
      <trkpt lat="41.859101" lon="3.120296">
        <ele>9.0</ele>
        <time>2019-01-13T21:58:03Z</time>
      </trkpt>
      <trkpt lat="41.859042" lon="3.120474">
        <ele>8.0</ele>
        <time>2019-01-13T21:58:05Z</time>
      </trkpt>
      <trkpt lat="41.858465" lon="3.120425">
        <ele>8.0</ele>
        <time>2019-01-13T21:58:14Z</time>
      </trkpt>
      <trkpt lat="41.857955" lon="3.120415">
        <ele>9.0</ele>
        <time>2019-01-13T21:58:23Z</time>
      </trkpt>
      <trkpt lat="41.857356" lon="3.120355">
        <ele>8.0</ele>
        <time>2019-01-13T21:58:32Z</time>
      </trkpt>
      <trkpt lat="41.857223" lon="3.120365">
        <ele>8.0</ele>
        <time>2019-01-13T21:58:34Z</time>
      </trkpt>
      <trkpt lat="41.857090" lon="3.119958">
        <ele>8.0</ele>
        <time>2019-01-13T21:58:40Z</time>
      </trkpt>
      <trkpt lat="41.856824" lon="3.119710">
        <ele>8.0</ele>
        <time>2019-01-13T21:58:45Z</time>
      </trkpt>
      <trkpt lat="41.856587" lon="3.119789">
        <ele>8.0</ele>
        <time>2019-01-13T21:58:49Z</time>
      </trkpt>
      <trkpt lat="41.856469" lon="3.119968">
        <ele>7.0</ele>
        <time>2019-01-13T21:58:52Z</time>
      </trkpt>
      <trkpt lat="41.856373" lon="3.120127">
        <ele>7.0</ele>
        <time>2019-01-13T21:58:54Z</time>
      </trkpt>
      <trkpt lat="41.856180" lon="3.120236">
        <ele>7.0</ele>
        <time>2019-01-13T21:58:57Z</time>
      </trkpt>
      <trkpt lat="41.855885" lon="3.120246">
        <ele>6.0</ele>
        <time>2019-01-13T21:59:02Z</time>
      </trkpt>
      <trkpt lat="41.855508" lon="3.119869">
        <ele>7.0</ele>
        <time>2019-01-13T21:59:10Z</time>
      </trkpt>
      <trkpt lat="41.855079" lon="3.119293">
        <ele>6.0</ele>
        <time>2019-01-13T21:59:19Z</time>
      </trkpt>
      <trkpt lat="41.854724" lon="3.118856">
        <ele>6.0</ele>
        <time>2019-01-13T21:59:27Z</time>
      </trkpt>
      <trkpt lat="41.854724" lon="3.118618">
        <ele>6.0</ele>
        <time>2019-01-13T21:59:30Z</time>
      </trkpt>
      <trkpt lat="41.854569" lon="3.118598">
        <ele>6.0</ele>
        <time>2019-01-13T21:59:32Z</time>
      </trkpt>
      <trkpt lat="41.854073" lon="3.118042">
        <ele>6.0</ele>
        <time>2019-01-13T21:59:43Z</time>
      </trkpt>
      <trkpt lat="41.853556" lon="3.117437">
        <ele>6.0</ele>
        <time>2019-01-13T21:59:54Z</time>
      </trkpt>
      <trkpt lat="41.853230" lon="3.116990">
        <ele>6.0</ele>
        <time>2019-01-13T22:00:01Z</time>
      </trkpt>
      <trkpt lat="41.853112" lon="3.116762">
        <ele>6.0</ele>
        <time>2019-01-13T22:00:05Z</time>
      </trkpt>
      <trkpt lat="41.853075" lon="3.116464">
        <ele>6.0</ele>
        <time>2019-01-13T22:00:08Z</time>
      </trkpt>
      <trkpt lat="41.852905" lon="3.116255">
        <ele>6.0</ele>
        <time>2019-01-13T22:00:12Z</time>
      </trkpt>
      <trkpt lat="41.852867" lon="3.116219">
        <ele>6.0</ele>
        <time>2019-01-13T22:00:13Z</time>
      </trkpt>
      <trkpt lat="41.852854" lon="3.116195">
        <ele>5.0</ele>
        <time>2019-01-13T22:00:13Z</time>
      </trkpt>
      <trkpt lat="41.852845" lon="3.116002">
        <ele>5.0</ele>
        <time>2019-01-13T22:00:15Z</time>
      </trkpt>
      <trkpt lat="41.852715" lon="3.115895">
        <ele>5.0</ele>
        <time>2019-01-13T22:00:18Z</time>
      </trkpt>
      <trkpt lat="41.852619" lon="3.115905">
        <ele>5.0</ele>
        <time>2019-01-13T22:00:19Z</time>
      </trkpt>
      <trkpt lat="41.852571" lon="3.115925">
        <ele>5.0</ele>
        <time>2019-01-13T22:00:20Z</time>
      </trkpt>
      <trkpt lat="41.852522" lon="3.115945">
        <ele>5.0</ele>
        <time>2019-01-13T22:00:21Z</time>
      </trkpt>
      <trkpt lat="41.852469" lon="3.115961">
        <ele>5.0</ele>
        <time>2019-01-13T22:00:22Z</time>
      </trkpt>
      <trkpt lat="41.852413" lon="3.115965">
        <ele>5.0</ele>
        <time>2019-01-13T22:00:23Z</time>
      </trkpt>
      <trkpt lat="41.852304" lon="3.115929">
        <ele>4.0</ele>
        <time>2019-01-13T22:00:24Z</time>
      </trkpt>
      <trkpt lat="41.852211" lon="3.115846">
        <ele>4.0</ele>
        <time>2019-01-13T22:00:26Z</time>
      </trkpt>
      <trkpt lat="41.852128" lon="3.115744">
        <ele>4.0</ele>
        <time>2019-01-13T22:00:28Z</time>
      </trkpt>
      <trkpt lat="41.851857" lon="3.115418">
        <ele>5.0</ele>
        <time>2019-01-13T22:00:34Z</time>
      </trkpt>
      <trkpt lat="41.851758" lon="3.115302">
        <ele>5.0</ele>
        <time>2019-01-13T22:00:36Z</time>
      </trkpt>
      <trkpt lat="41.851557" lon="3.115074">
        <ele>5.0</ele>
        <time>2019-01-13T22:00:40Z</time>
      </trkpt>
      <trkpt lat="41.851458" lon="3.114953">
        <ele>5.0</ele>
        <time>2019-01-13T22:00:42Z</time>
      </trkpt>
      <trkpt lat="41.851355" lon="3.114822">
        <ele>5.0</ele>
        <time>2019-01-13T22:00:45Z</time>
      </trkpt>
      <trkpt lat="41.851301" lon="3.114752">
        <ele>5.0</ele>
        <time>2019-01-13T22:00:46Z</time>
      </trkpt>
      <trkpt lat="41.851198" lon="3.114626">
        <ele>5.0</ele>
        <time>2019-01-13T22:00:48Z</time>
      </trkpt>
      <trkpt lat="41.851149" lon="3.114563">
        <ele>5.0</ele>
        <time>2019-01-13T22:00:49Z</time>
      </trkpt>
      <trkpt lat="41.851099" lon="3.114502">
        <ele>5.0</ele>
        <time>2019-01-13T22:00:50Z</time>
      </trkpt>
      <trkpt lat="41.851046" lon="3.114440">
        <ele>5.0</ele>
        <time>2019-01-13T22:00:51Z</time>
      </trkpt>
      <trkpt lat="41.850993" lon="3.114377">
        <ele>6.0</ele>
        <time>2019-01-13T22:00:52Z</time>
      </trkpt>
      <trkpt lat="41.850939" lon="3.114310">
        <ele>6.0</ele>
        <time>2019-01-13T22:00:54Z</time>
      </trkpt>
      <trkpt lat="41.850708" lon="3.114058">
        <ele>6.0</ele>
        <time>2019-01-13T22:00:58Z</time>
      </trkpt>
      <trkpt lat="41.850534" lon="3.113892">
        <ele>6.0</ele>
        <time>2019-01-13T22:01:02Z</time>
      </trkpt>
      <trkpt lat="41.850011" lon="3.113508">
        <ele>7.0</ele>
        <time>2019-01-13T22:01:11Z</time>
      </trkpt>
      <trkpt lat="41.849810" lon="3.113368">
        <ele>8.0</ele>
        <time>2019-01-13T22:01:15Z</time>
      </trkpt>
      <trkpt lat="41.849676" lon="3.113289">
        <ele>9.0</ele>
        <time>2019-01-13T22:01:17Z</time>
      </trkpt>
      <trkpt lat="41.849475" lon="3.113161">
        <ele>9.0</ele>
        <time>2019-01-13T22:01:21Z</time>
      </trkpt>
      <trkpt lat="41.849413" lon="3.113113">
        <ele>9.0</ele>
        <time>2019-01-13T22:01:22Z</time>
      </trkpt>
      <trkpt lat="41.849312" lon="3.112972">
        <ele>10.0</ele>
        <time>2019-01-13T22:01:24Z</time>
      </trkpt>
      <trkpt lat="41.849247" lon="3.112696">
        <ele>10.0</ele>
        <time>2019-01-13T22:01:28Z</time>
      </trkpt>
      <trkpt lat="41.849262" lon="3.112379">
        <ele>10.0</ele>
        <time>2019-01-13T22:01:32Z</time>
      </trkpt>
      <trkpt lat="41.849280" lon="3.112175">
        <ele>11.0</ele>
        <time>2019-01-13T22:01:34Z</time>
      </trkpt>
      <trkpt lat="41.849347" lon="3.111405">
        <ele>11.0</ele>
        <time>2019-01-13T22:01:43Z</time>
      </trkpt>
      <trkpt lat="41.849363" lon="3.111195">
        <ele>10.0</ele>
        <time>2019-01-13T22:01:46Z</time>
      </trkpt>
      <trkpt lat="41.849369" lon="3.111087">
        <ele>10.0</ele>
        <time>2019-01-13T22:01:47Z</time>
      </trkpt>
      <trkpt lat="41.849375" lon="3.110976">
        <ele>10.0</ele>
        <time>2019-01-13T22:01:48Z</time>
      </trkpt>
      <trkpt lat="41.849383" lon="3.110864">
        <ele>9.0</ele>
        <time>2019-01-13T22:01:50Z</time>
      </trkpt>
      <trkpt lat="41.849391" lon="3.110756">
        <ele>9.0</ele>
        <time>2019-01-13T22:01:51Z</time>
      </trkpt>
      <trkpt lat="41.849399" lon="3.110650">
        <ele>9.0</ele>
        <time>2019-01-13T22:01:52Z</time>
      </trkpt>
      <trkpt lat="41.849460" lon="3.109904">
        <ele>8.0</ele>
        <time>2019-01-13T22:02:01Z</time>
      </trkpt>
      <trkpt lat="41.849497" lon="3.109370">
        <ele>7.0</ele>
        <time>2019-01-13T22:02:08Z</time>
      </trkpt>
      <trkpt lat="41.849532" lon="3.108736">
        <ele>7.0</ele>
        <time>2019-01-13T22:02:15Z</time>
      </trkpt>
      <trkpt lat="41.849523" lon="3.108526">
        <ele>7.0</ele>
        <time>2019-01-13T22:02:18Z</time>
      </trkpt>
      <trkpt lat="41.849472" lon="3.108221">
        <ele>7.0</ele>
        <time>2019-01-13T22:02:21Z</time>
      </trkpt>
      <trkpt lat="41.849418" lon="3.108017">
        <ele>6.0</ele>
        <time>2019-01-13T22:02:24Z</time>
      </trkpt>
      <trkpt lat="41.849197" lon="3.107318">
        <ele>5.0</ele>
        <time>2019-01-13T22:02:33Z</time>
      </trkpt>
      <trkpt lat="41.849165" lon="3.107219">
        <ele>5.0</ele>
        <time>2019-01-13T22:02:34Z</time>
      </trkpt>
      <trkpt lat="41.848975" lon="3.106618">
        <ele>3.0</ele>
        <time>2019-01-13T22:02:42Z</time>
      </trkpt>
      <trkpt lat="41.848909" lon="3.106423">
        <ele>3.0</ele>
        <time>2019-01-13T22:02:45Z</time>
      </trkpt>
      <trkpt lat="41.848679" lon="3.105750">
        <ele>3.0</ele>
        <time>2019-01-13T22:02:54Z</time>
      </trkpt>
      <trkpt lat="41.848650" lon="3.105653">
        <ele>3.0</ele>
        <time>2019-01-13T22:02:55Z</time>
      </trkpt>
      <trkpt lat="41.848434" lon="3.104972">
        <ele>4.0</ele>
        <time>2019-01-13T22:03:04Z</time>
      </trkpt>
      <trkpt lat="41.848403" lon="3.104874">
        <ele>4.0</ele>
        <time>2019-01-13T22:03:05Z</time>
      </trkpt>
      <trkpt lat="41.848209" lon="3.104288">
        <ele>4.0</ele>
        <time>2019-01-13T22:03:13Z</time>
      </trkpt>
      <trkpt lat="41.848180" lon="3.104190">
        <ele>4.0</ele>
        <time>2019-01-13T22:03:14Z</time>
      </trkpt>
      <trkpt lat="41.848050" lon="3.103792">
        <ele>5.0</ele>
        <time>2019-01-13T22:03:19Z</time>
      </trkpt>
      <trkpt lat="41.847860" lon="3.103195">
        <ele>5.0</ele>
        <time>2019-01-13T22:03:27Z</time>
      </trkpt>
      <trkpt lat="41.847633" lon="3.102508">
        <ele>5.0</ele>
        <time>2019-01-13T22:03:36Z</time>
      </trkpt>
      <trkpt lat="41.847420" lon="3.101827">
        <ele>6.0</ele>
        <time>2019-01-13T22:03:45Z</time>
      </trkpt>
      <trkpt lat="41.847358" lon="3.101630">
        <ele>6.0</ele>
        <time>2019-01-13T22:03:47Z</time>
      </trkpt>
      <trkpt lat="41.847142" lon="3.100950">
        <ele>6.0</ele>
        <time>2019-01-13T22:03:56Z</time>
      </trkpt>
      <trkpt lat="41.847045" lon="3.100658">
        <ele>6.0</ele>
        <time>2019-01-13T22:04:00Z</time>
      </trkpt>
      <trkpt lat="41.846858" lon="3.100074">
        <ele>6.0</ele>
        <time>2019-01-13T22:04:07Z</time>
      </trkpt>
      <trkpt lat="41.846709" lon="3.099595">
        <ele>7.0</ele>
        <time>2019-01-13T22:04:13Z</time>
      </trkpt>
      <trkpt lat="41.846592" lon="3.099205">
        <ele>7.0</ele>
        <time>2019-01-13T22:04:18Z</time>
      </trkpt>
      <trkpt lat="41.846590" lon="3.099103">
        <ele>7.0</ele>
        <time>2019-01-13T22:04:20Z</time>
      </trkpt>
      <trkpt lat="41.846624" lon="3.098905">
        <ele>7.0</ele>
        <time>2019-01-13T22:04:22Z</time>
      </trkpt>
      <trkpt lat="41.846568" lon="3.098743">
        <ele>7.0</ele>
        <time>2019-01-13T22:04:24Z</time>
      </trkpt>
      <trkpt lat="41.846382" lon="3.098567">
        <ele>7.0</ele>
        <time>2019-01-13T22:04:28Z</time>
      </trkpt>
      <trkpt lat="41.846286" lon="3.098297">
        <ele>7.0</ele>
        <time>2019-01-13T22:04:31Z</time>
      </trkpt>
      <trkpt lat="41.846100" lon="3.097748">
        <ele>6.0</ele>
        <time>2019-01-13T22:04:39Z</time>
      </trkpt>
      <trkpt lat="41.845864" lon="3.097026">
        <ele>6.0</ele>
        <time>2019-01-13T22:04:48Z</time>
      </trkpt>
      <trkpt lat="41.845640" lon="3.096302">
        <ele>7.0</ele>
        <time>2019-01-13T22:04:57Z</time>
      </trkpt>
      <trkpt lat="41.845448" lon="3.095640">
        <ele>7.0</ele>
        <time>2019-01-13T22:05:06Z</time>
      </trkpt>
      <trkpt lat="41.845449" lon="3.095540">
        <ele>7.0</ele>
        <time>2019-01-13T22:05:07Z</time>
      </trkpt>
      <trkpt lat="41.845539" lon="3.095265">
        <ele>8.0</ele>
        <time>2019-01-13T22:05:11Z</time>
      </trkpt>
      <trkpt lat="41.845636" lon="3.095120">
        <ele>8.0</ele>
        <time>2019-01-13T22:05:13Z</time>
      </trkpt>
      <trkpt lat="41.845792" lon="3.094910">
        <ele>8.0</ele>
        <time>2019-01-13T22:05:17Z</time>
      </trkpt>
      <trkpt lat="41.846149" lon="3.094452">
        <ele>7.0</ele>
        <time>2019-01-13T22:05:24Z</time>
      </trkpt>
      <trkpt lat="41.846247" lon="3.094318">
        <ele>7.0</ele>
        <time>2019-01-13T22:05:27Z</time>
      </trkpt>
      <trkpt lat="41.846575" lon="3.093847">
        <ele>7.0</ele>
        <time>2019-01-13T22:05:34Z</time>
      </trkpt>
      <trkpt lat="41.846896" lon="3.093398">
        <ele>7.0</ele>
        <time>2019-01-13T22:05:42Z</time>
      </trkpt>
      <trkpt lat="41.846945" lon="3.093334">
        <ele>7.0</ele>
        <time>2019-01-13T22:05:43Z</time>
      </trkpt>
      <trkpt lat="41.846991" lon="3.093269">
        <ele>7.0</ele>
        <time>2019-01-13T22:05:44Z</time>
      </trkpt>
      <trkpt lat="41.847038" lon="3.093206">
        <ele>7.0</ele>
        <time>2019-01-13T22:05:45Z</time>
      </trkpt>
      <trkpt lat="41.847085" lon="3.093143">
        <ele>7.0</ele>
        <time>2019-01-13T22:05:46Z</time>
      </trkpt>
      <trkpt lat="41.847271" lon="3.092895">
        <ele>8.0</ele>
        <time>2019-01-13T22:05:50Z</time>
      </trkpt>
      <trkpt lat="41.847488" lon="3.092581">
        <ele>8.0</ele>
        <time>2019-01-13T22:05:55Z</time>
      </trkpt>
      <trkpt lat="41.847908" lon="3.092007">
        <ele>9.0</ele>
        <time>2019-01-13T22:06:05Z</time>
      </trkpt>
      <trkpt lat="41.848245" lon="3.091559">
        <ele>10.0</ele>
        <time>2019-01-13T22:06:13Z</time>
      </trkpt>
      <trkpt lat="41.848622" lon="3.091029">
        <ele>10.0</ele>
        <time>2019-01-13T22:06:21Z</time>
      </trkpt>
      <trkpt lat="41.848813" lon="3.090765">
        <ele>11.0</ele>
        <time>2019-01-13T22:06:26Z</time>
      </trkpt>
      <trkpt lat="41.849103" lon="3.090359">
        <ele>12.0</ele>
        <time>2019-01-13T22:06:32Z</time>
      </trkpt>
      <trkpt lat="41.849153" lon="3.090291">
        <ele>13.0</ele>
        <time>2019-01-13T22:06:34Z</time>
      </trkpt>
      <trkpt lat="41.849203" lon="3.090223">
        <ele>13.0</ele>
        <time>2019-01-13T22:06:35Z</time>
      </trkpt>
      <trkpt lat="41.849253" lon="3.090153">
        <ele>13.0</ele>
        <time>2019-01-13T22:06:36Z</time>
      </trkpt>
      <trkpt lat="41.849301" lon="3.090084">
        <ele>14.0</ele>
        <time>2019-01-13T22:06:37Z</time>
      </trkpt>
      <trkpt lat="41.849350" lon="3.090016">
        <ele>14.0</ele>
        <time>2019-01-13T22:06:38Z</time>
      </trkpt>
      <trkpt lat="41.849649" lon="3.089601">
        <ele>15.0</ele>
        <time>2019-01-13T22:06:45Z</time>
      </trkpt>
      <trkpt lat="41.850055" lon="3.089052">
        <ele>15.0</ele>
        <time>2019-01-13T22:06:54Z</time>
      </trkpt>
      <trkpt lat="41.850105" lon="3.088984">
        <ele>15.0</ele>
        <time>2019-01-13T22:06:55Z</time>
      </trkpt>
      <trkpt lat="41.850506" lon="3.088426">
        <ele>14.0</ele>
        <time>2019-01-13T22:07:05Z</time>
      </trkpt>
      <trkpt lat="41.850611" lon="3.088288">
        <ele>14.0</ele>
        <time>2019-01-13T22:07:07Z</time>
      </trkpt>
      <trkpt lat="41.851008" lon="3.087732">
        <ele>13.0</ele>
        <time>2019-01-13T22:07:16Z</time>
      </trkpt>
      <trkpt lat="41.851406" lon="3.087183">
        <ele>13.0</ele>
        <time>2019-01-13T22:07:25Z</time>
      </trkpt>
      <trkpt lat="41.851455" lon="3.087116">
        <ele>13.0</ele>
        <time>2019-01-13T22:07:26Z</time>
      </trkpt>
      <trkpt lat="41.851696" lon="3.086777">
        <ele>14.0</ele>
        <time>2019-01-13T22:07:32Z</time>
      </trkpt>
      <trkpt lat="41.851743" lon="3.086710">
        <ele>14.0</ele>
        <time>2019-01-13T22:07:33Z</time>
      </trkpt>
      <trkpt lat="41.851796" lon="3.086639">
        <ele>15.0</ele>
        <time>2019-01-13T22:07:34Z</time>
      </trkpt>
      <trkpt lat="41.851847" lon="3.086574">
        <ele>15.0</ele>
        <time>2019-01-13T22:07:35Z</time>
      </trkpt>
      <trkpt lat="41.851896" lon="3.086510">
        <ele>15.0</ele>
        <time>2019-01-13T22:07:36Z</time>
      </trkpt>
      <trkpt lat="41.852281" lon="3.085982">
        <ele>16.0</ele>
        <time>2019-01-13T22:07:45Z</time>
      </trkpt>
      <trkpt lat="41.852429" lon="3.085784">
        <ele>16.0</ele>
        <time>2019-01-13T22:07:49Z</time>
      </trkpt>
      <trkpt lat="41.852763" lon="3.085315">
        <ele>15.0</ele>
        <time>2019-01-13T22:07:56Z</time>
      </trkpt>
      <trkpt lat="41.853150" lon="3.084783">
        <ele>14.0</ele>
        <time>2019-01-13T22:08:05Z</time>
      </trkpt>
      <trkpt lat="41.853245" lon="3.084653">
        <ele>14.0</ele>
        <time>2019-01-13T22:08:07Z</time>
      </trkpt>
      <trkpt lat="41.853618" lon="3.084136">
        <ele>13.0</ele>
        <time>2019-01-13T22:08:16Z</time>
      </trkpt>
      <trkpt lat="41.853664" lon="3.084071">
        <ele>13.0</ele>
        <time>2019-01-13T22:08:17Z</time>
      </trkpt>
      <trkpt lat="41.854047" lon="3.083544">
        <ele>12.0</ele>
        <time>2019-01-13T22:08:26Z</time>
      </trkpt>
      <trkpt lat="41.854092" lon="3.083474">
        <ele>12.0</ele>
        <time>2019-01-13T22:08:27Z</time>
      </trkpt>
      <trkpt lat="41.854282" lon="3.083210">
        <ele>11.0</ele>
        <time>2019-01-13T22:08:31Z</time>
      </trkpt>
      <trkpt lat="41.854472" lon="3.082954">
        <ele>11.0</ele>
        <time>2019-01-13T22:08:36Z</time>
      </trkpt>
      <trkpt lat="41.854669" lon="3.082699">
        <ele>11.0</ele>
        <time>2019-01-13T22:08:40Z</time>
      </trkpt>
      <trkpt lat="41.854953" lon="3.082337">
        <ele>11.0</ele>
        <time>2019-01-13T22:08:46Z</time>
      </trkpt>
      <trkpt lat="41.855336" lon="3.081952">
        <ele>12.0</ele>
        <time>2019-01-13T22:08:54Z</time>
      </trkpt>
      <trkpt lat="41.855861" lon="3.081590">
        <ele>12.0</ele>
        <time>2019-01-13T22:09:03Z</time>
      </trkpt>
      <trkpt lat="41.855934" lon="3.081537">
        <ele>13.0</ele>
        <time>2019-01-13T22:09:05Z</time>
      </trkpt>
      <trkpt lat="41.856209" lon="3.081322">
        <ele>13.0</ele>
        <time>2019-01-13T22:09:10Z</time>
      </trkpt>
      <trkpt lat="41.856407" lon="3.081172">
        <ele>13.0</ele>
        <time>2019-01-13T22:09:13Z</time>
      </trkpt>
      <trkpt lat="41.856573" lon="3.081027">
        <ele>13.0</ele>
        <time>2019-01-13T22:09:17Z</time>
      </trkpt>
      <trkpt lat="41.856637" lon="3.080984">
        <ele>13.0</ele>
        <time>2019-01-13T22:09:18Z</time>
      </trkpt>
      <trkpt lat="41.856814" lon="3.080866">
        <ele>13.0</ele>
        <time>2019-01-13T22:09:21Z</time>
      </trkpt>
      <trkpt lat="41.856871" lon="3.080829">
        <ele>13.0</ele>
        <time>2019-01-13T22:09:22Z</time>
      </trkpt>
      <trkpt lat="41.856928" lon="3.080788">
        <ele>13.0</ele>
        <time>2019-01-13T22:09:23Z</time>
      </trkpt>
      <trkpt lat="41.856985" lon="3.080748">
        <ele>13.0</ele>
        <time>2019-01-13T22:09:24Z</time>
      </trkpt>
      <trkpt lat="41.857042" lon="3.080708">
        <ele>13.0</ele>
        <time>2019-01-13T22:09:25Z</time>
      </trkpt>
      <trkpt lat="41.857100" lon="3.080672">
        <ele>13.0</ele>
        <time>2019-01-13T22:09:26Z</time>
      </trkpt>
      <trkpt lat="41.857270" lon="3.080552">
        <ele>13.0</ele>
        <time>2019-01-13T22:09:29Z</time>
      </trkpt>
      <trkpt lat="41.857499" lon="3.080380">
        <ele>14.0</ele>
        <time>2019-01-13T22:09:33Z</time>
      </trkpt>
      <trkpt lat="41.857891" lon="3.080105">
        <ele>15.0</ele>
        <time>2019-01-13T22:09:40Z</time>
      </trkpt>
      <trkpt lat="41.858061" lon="3.079984">
        <ele>15.0</ele>
        <time>2019-01-13T22:09:44Z</time>
      </trkpt>
      <trkpt lat="41.858179" lon="3.079898">
        <ele>15.0</ele>
        <time>2019-01-13T22:09:46Z</time>
      </trkpt>
      <trkpt lat="41.858236" lon="3.079858">
        <ele>16.0</ele>
        <time>2019-01-13T22:09:47Z</time>
      </trkpt>
      <trkpt lat="41.858290" lon="3.079818">
        <ele>16.0</ele>
        <time>2019-01-13T22:09:48Z</time>
      </trkpt>
      <trkpt lat="41.858344" lon="3.079778">
        <ele>16.0</ele>
        <time>2019-01-13T22:09:49Z</time>
      </trkpt>
      <trkpt lat="41.858398" lon="3.079744">
        <ele>16.0</ele>
        <time>2019-01-13T22:09:50Z</time>
      </trkpt>
      <trkpt lat="41.858504" lon="3.079695">
        <ele>16.0</ele>
        <time>2019-01-13T22:09:51Z</time>
      </trkpt>
      <trkpt lat="41.858558" lon="3.079694">
        <ele>16.0</ele>
        <time>2019-01-13T22:09:52Z</time>
      </trkpt>
      <trkpt lat="41.858718" lon="3.079716">
        <ele>16.0</ele>
        <time>2019-01-13T22:09:55Z</time>
      </trkpt>
      <trkpt lat="41.858796" lon="3.079610">
        <ele>16.0</ele>
        <time>2019-01-13T22:09:57Z</time>
      </trkpt>
      <trkpt lat="41.858847" lon="3.079472">
        <ele>17.0</ele>
        <time>2019-01-13T22:09:58Z</time>
      </trkpt>
      <trkpt lat="41.858928" lon="3.079359">
        <ele>17.0</ele>
        <time>2019-01-13T22:10:00Z</time>
      </trkpt>
      <trkpt lat="41.859032" lon="3.079289">
        <ele>18.0</ele>
        <time>2019-01-13T22:10:02Z</time>
      </trkpt>
      <trkpt lat="41.859133" lon="3.079229">
        <ele>18.0</ele>
        <time>2019-01-13T22:10:04Z</time>
      </trkpt>
      <trkpt lat="41.859325" lon="3.079079">
        <ele>19.0</ele>
        <time>2019-01-13T22:10:08Z</time>
      </trkpt>
      <trkpt lat="41.859374" lon="3.079042">
        <ele>19.0</ele>
        <time>2019-01-13T22:10:08Z</time>
      </trkpt>
      <trkpt lat="41.859423" lon="3.079011">
        <ele>19.0</ele>
        <time>2019-01-13T22:10:09Z</time>
      </trkpt>
      <trkpt lat="41.859471" lon="3.078978">
        <ele>20.0</ele>
        <time>2019-01-13T22:10:10Z</time>
      </trkpt>
      <trkpt lat="41.859517" lon="3.078945">
        <ele>20.0</ele>
        <time>2019-01-13T22:10:11Z</time>
      </trkpt>
      <trkpt lat="41.859610" lon="3.078879">
        <ele>21.0</ele>
        <time>2019-01-13T22:10:13Z</time>
      </trkpt>
      <trkpt lat="41.859661" lon="3.078846">
        <ele>21.0</ele>
        <time>2019-01-13T22:10:14Z</time>
      </trkpt>
      <trkpt lat="41.859708" lon="3.078816">
        <ele>21.0</ele>
        <time>2019-01-13T22:10:14Z</time>
      </trkpt>
      <trkpt lat="41.859756" lon="3.078784">
        <ele>22.0</ele>
        <time>2019-01-13T22:10:15Z</time>
      </trkpt>
      <trkpt lat="41.859802" lon="3.078750">
        <ele>22.0</ele>
        <time>2019-01-13T22:10:16Z</time>
      </trkpt>
      <trkpt lat="41.859846" lon="3.078715">
        <ele>22.0</ele>
        <time>2019-01-13T22:10:17Z</time>
      </trkpt>
      <trkpt lat="41.860016" lon="3.078582">
        <ele>23.0</ele>
        <time>2019-01-13T22:10:20Z</time>
      </trkpt>
      <trkpt lat="41.860097" lon="3.078523">
        <ele>24.0</ele>
        <time>2019-01-13T22:10:22Z</time>
      </trkpt>
      <trkpt lat="41.860173" lon="3.078469">
        <ele>24.0</ele>
        <time>2019-01-13T22:10:23Z</time>
      </trkpt>
      <trkpt lat="41.860211" lon="3.078434">
        <ele>24.0</ele>
        <time>2019-01-13T22:10:24Z</time>
      </trkpt>
      <trkpt lat="41.860250" lon="3.078398">
        <ele>25.0</ele>
        <time>2019-01-13T22:10:24Z</time>
      </trkpt>
      <trkpt lat="41.860288" lon="3.078364">
        <ele>25.0</ele>
        <time>2019-01-13T22:10:25Z</time>
      </trkpt>
      <trkpt lat="41.860318" lon="3.078327">
        <ele>25.0</ele>
        <time>2019-01-13T22:10:26Z</time>
      </trkpt>
      <trkpt lat="41.860373" lon="3.078242">
        <ele>26.0</ele>
        <time>2019-01-13T22:10:27Z</time>
      </trkpt>
      <trkpt lat="41.860429" lon="3.078082">
        <ele>26.0</ele>
        <time>2019-01-13T22:10:29Z</time>
      </trkpt>
      <trkpt lat="41.860442" lon="3.078028">
        <ele>27.0</ele>
        <time>2019-01-13T22:10:30Z</time>
      </trkpt>
      <trkpt lat="41.860454" lon="3.077967">
        <ele>27.0</ele>
        <time>2019-01-13T22:10:31Z</time>
      </trkpt>
      <trkpt lat="41.860471" lon="3.077904">
        <ele>27.0</ele>
        <time>2019-01-13T22:10:31Z</time>
      </trkpt>
      <trkpt lat="41.860480" lon="3.077840">
        <ele>27.0</ele>
        <time>2019-01-13T22:10:32Z</time>
      </trkpt>
      <trkpt lat="41.860489" lon="3.077777">
        <ele>28.0</ele>
        <time>2019-01-13T22:10:33Z</time>
      </trkpt>
      <trkpt lat="41.860509" lon="3.077652">
        <ele>28.0</ele>
        <time>2019-01-13T22:10:35Z</time>
      </trkpt>
      <trkpt lat="41.860520" lon="3.077594">
        <ele>28.0</ele>
        <time>2019-01-13T22:10:35Z</time>
      </trkpt>
      <trkpt lat="41.860560" lon="3.077365">
        <ele>29.0</ele>
        <time>2019-01-13T22:10:38Z</time>
      </trkpt>
      <trkpt lat="41.860569" lon="3.077303">
        <ele>30.0</ele>
        <time>2019-01-13T22:10:39Z</time>
      </trkpt>
      <trkpt lat="41.860576" lon="3.077243">
        <ele>30.0</ele>
        <time>2019-01-13T22:10:40Z</time>
      </trkpt>
      <trkpt lat="41.860583" lon="3.077182">
        <ele>30.0</ele>
        <time>2019-01-13T22:10:40Z</time>
      </trkpt>
      <trkpt lat="41.860643" lon="3.076754">
        <ele>31.0</ele>
        <time>2019-01-13T22:10:45Z</time>
      </trkpt>
      <trkpt lat="41.860653" lon="3.076696">
        <ele>31.0</ele>
        <time>2019-01-13T22:10:46Z</time>
      </trkpt>
      <trkpt lat="41.860664" lon="3.076636">
        <ele>31.0</ele>
        <time>2019-01-13T22:10:47Z</time>
      </trkpt>
      <trkpt lat="41.860672" lon="3.076571">
        <ele>31.0</ele>
        <time>2019-01-13T22:10:48Z</time>
      </trkpt>
      <trkpt lat="41.860681" lon="3.076507">
        <ele>31.0</ele>
        <time>2019-01-13T22:10:48Z</time>
      </trkpt>
      <trkpt lat="41.860722" lon="3.076233">
        <ele>31.0</ele>
        <time>2019-01-13T22:10:52Z</time>
      </trkpt>
      <trkpt lat="41.860752" lon="3.076013">
        <ele>30.0</ele>
        <time>2019-01-13T22:10:54Z</time>
      </trkpt>
      <trkpt lat="41.860787" lon="3.075785">
        <ele>30.0</ele>
        <time>2019-01-13T22:10:57Z</time>
      </trkpt>
      <trkpt lat="41.860800" lon="3.075703">
        <ele>29.0</ele>
        <time>2019-01-13T22:10:58Z</time>
      </trkpt>
      <trkpt lat="41.860821" lon="3.075529">
        <ele>29.0</ele>
        <time>2019-01-13T22:11:00Z</time>
      </trkpt>
      <trkpt lat="41.860836" lon="3.075433">
        <ele>28.0</ele>
        <time>2019-01-13T22:11:02Z</time>
      </trkpt>
      <trkpt lat="41.860860" lon="3.075235">
        <ele>28.0</ele>
        <time>2019-01-13T22:11:04Z</time>
      </trkpt>
      <trkpt lat="41.860905" lon="3.074926">
        <ele>27.0</ele>
        <time>2019-01-13T22:11:08Z</time>
      </trkpt>
      <trkpt lat="41.860920" lon="3.074813">
        <ele>26.0</ele>
        <time>2019-01-13T22:11:09Z</time>
      </trkpt>
      <trkpt lat="41.860937" lon="3.074706">
        <ele>26.0</ele>
        <time>2019-01-13T22:11:10Z</time>
      </trkpt>
      <trkpt lat="41.860955" lon="3.074599">
        <ele>26.0</ele>
        <time>2019-01-13T22:11:12Z</time>
      </trkpt>
      <trkpt lat="41.860973" lon="3.074496">
        <ele>26.0</ele>
        <time>2019-01-13T22:11:13Z</time>
      </trkpt>
      <trkpt lat="41.861006" lon="3.074287">
        <ele>25.0</ele>
        <time>2019-01-13T22:11:15Z</time>
      </trkpt>
      <trkpt lat="41.861078" lon="3.073778">
        <ele>26.0</ele>
        <time>2019-01-13T22:11:22Z</time>
      </trkpt>
      <trkpt lat="41.861126" lon="3.073589">
        <ele>27.0</ele>
        <time>2019-01-13T22:11:24Z</time>
      </trkpt>
      <trkpt lat="41.861214" lon="3.073313">
        <ele>27.0</ele>
        <time>2019-01-13T22:11:28Z</time>
      </trkpt>
      <trkpt lat="41.861385" lon="3.072885">
        <ele>28.0</ele>
        <time>2019-01-13T22:11:33Z</time>
      </trkpt>
      <trkpt lat="41.861434" lon="3.072814">
        <ele>28.0</ele>
        <time>2019-01-13T22:11:35Z</time>
      </trkpt>
      <trkpt lat="41.861691" lon="3.072621">
        <ele>27.0</ele>
        <time>2019-01-13T22:11:39Z</time>
      </trkpt>
      <trkpt lat="41.861902" lon="3.072611">
        <ele>27.0</ele>
        <time>2019-01-13T22:11:43Z</time>
      </trkpt>
      <trkpt lat="41.861972" lon="3.072623">
        <ele>27.0</ele>
        <time>2019-01-13T22:11:44Z</time>
      </trkpt>
      <trkpt lat="41.862249" lon="3.072663">
        <ele>27.0</ele>
        <time>2019-01-13T22:11:48Z</time>
      </trkpt>
      <trkpt lat="41.862638" lon="3.072755">
        <ele>27.0</ele>
        <time>2019-01-13T22:11:55Z</time>
      </trkpt>
      <trkpt lat="41.862994" lon="3.072881">
        <ele>27.0</ele>
        <time>2019-01-13T22:12:00Z</time>
      </trkpt>
      <trkpt lat="41.863395" lon="3.073021">
        <ele>28.0</ele>
        <time>2019-01-13T22:12:07Z</time>
      </trkpt>
      <trkpt lat="41.863721" lon="3.073025">
        <ele>28.0</ele>
        <time>2019-01-13T22:12:12Z</time>
      </trkpt>
      <trkpt lat="41.864289" lon="3.072993">
        <ele>25.0</ele>
        <time>2019-01-13T22:12:21Z</time>
      </trkpt>
      <trkpt lat="41.864362" lon="3.073000">
        <ele>25.0</ele>
        <time>2019-01-13T22:12:23Z</time>
      </trkpt>
      <trkpt lat="41.864432" lon="3.073010">
        <ele>25.0</ele>
        <time>2019-01-13T22:12:24Z</time>
      </trkpt>
      <trkpt lat="41.864500" lon="3.073029">
        <ele>25.0</ele>
        <time>2019-01-13T22:12:25Z</time>
      </trkpt>
      <trkpt lat="41.864567" lon="3.073056">
        <ele>25.0</ele>
        <time>2019-01-13T22:12:26Z</time>
      </trkpt>
      <trkpt lat="41.864632" lon="3.073089">
        <ele>24.0</ele>
        <time>2019-01-13T22:12:27Z</time>
      </trkpt>
      <trkpt lat="41.864696" lon="3.073124">
        <ele>25.0</ele>
        <time>2019-01-13T22:12:28Z</time>
      </trkpt>
      <trkpt lat="41.864996" lon="3.073246">
        <ele>26.0</ele>
        <time>2019-01-13T22:12:33Z</time>
      </trkpt>
      <trkpt lat="41.865053" lon="3.073251">
        <ele>26.0</ele>
        <time>2019-01-13T22:12:34Z</time>
      </trkpt>
      <trkpt lat="41.865172" lon="3.073249">
        <ele>26.0</ele>
        <time>2019-01-13T22:12:36Z</time>
      </trkpt>
      <trkpt lat="41.865345" lon="3.073221">
        <ele>26.0</ele>
        <time>2019-01-13T22:12:39Z</time>
      </trkpt>
      <trkpt lat="41.865800" lon="3.073139">
        <ele>27.0</ele>
        <time>2019-01-13T22:12:46Z</time>
      </trkpt>
      <trkpt lat="41.865856" lon="3.073129">
        <ele>27.0</ele>
        <time>2019-01-13T22:12:47Z</time>
      </trkpt>
      <trkpt lat="41.865913" lon="3.073115">
        <ele>27.0</ele>
        <time>2019-01-13T22:12:48Z</time>
      </trkpt>
      <trkpt lat="41.865971" lon="3.073103">
        <ele>27.0</ele>
        <time>2019-01-13T22:12:49Z</time>
      </trkpt>
      <trkpt lat="41.866028" lon="3.073094">
        <ele>27.0</ele>
        <time>2019-01-13T22:12:50Z</time>
      </trkpt>
      <trkpt lat="41.866261" lon="3.073047">
        <ele>27.0</ele>
        <time>2019-01-13T22:12:54Z</time>
      </trkpt>
      <trkpt lat="41.866322" lon="3.073035">
        <ele>27.0</ele>
        <time>2019-01-13T22:12:55Z</time>
      </trkpt>
      <trkpt lat="41.866849" lon="3.072934">
        <ele>27.0</ele>
        <time>2019-01-13T22:13:03Z</time>
      </trkpt>
      <trkpt lat="41.867373" lon="3.072832">
        <ele>27.0</ele>
        <time>2019-01-13T22:13:12Z</time>
      </trkpt>
      <trkpt lat="41.867734" lon="3.072887">
        <ele>27.0</ele>
        <time>2019-01-13T22:13:17Z</time>
      </trkpt>
      <trkpt lat="41.867964" lon="3.072936">
        <ele>27.0</ele>
        <time>2019-01-13T22:13:21Z</time>
      </trkpt>
      <trkpt lat="41.868024" lon="3.072950">
        <ele>27.0</ele>
        <time>2019-01-13T22:13:22Z</time>
      </trkpt>
      <trkpt lat="41.868080" lon="3.072953">
        <ele>27.0</ele>
        <time>2019-01-13T22:13:23Z</time>
      </trkpt>
      <trkpt lat="41.868136" lon="3.072947">
        <ele>27.0</ele>
        <time>2019-01-13T22:13:24Z</time>
      </trkpt>
      <trkpt lat="41.868192" lon="3.072933">
        <ele>27.0</ele>
        <time>2019-01-13T22:13:25Z</time>
      </trkpt>
      <trkpt lat="41.868246" lon="3.072914">
        <ele>27.0</ele>
        <time>2019-01-13T22:13:26Z</time>
      </trkpt>
      <trkpt lat="41.868300" lon="3.072888">
        <ele>27.0</ele>
        <time>2019-01-13T22:13:27Z</time>
      </trkpt>
      <trkpt lat="41.868350" lon="3.072851">
        <ele>27.0</ele>
        <time>2019-01-13T22:13:28Z</time>
      </trkpt>
      <trkpt lat="41.868402" lon="3.072807">
        <ele>27.0</ele>
        <time>2019-01-13T22:13:29Z</time>
      </trkpt>
      <trkpt lat="41.868773" lon="3.072521">
        <ele>28.0</ele>
        <time>2019-01-13T22:13:35Z</time>
      </trkpt>
      <trkpt lat="41.868954" lon="3.072442">
        <ele>29.0</ele>
        <time>2019-01-13T22:13:38Z</time>
      </trkpt>
      <trkpt lat="41.869193" lon="3.072342">
        <ele>29.0</ele>
        <time>2019-01-13T22:13:42Z</time>
      </trkpt>
      <trkpt lat="41.869488" lon="3.072231">
        <ele>30.0</ele>
        <time>2019-01-13T22:13:47Z</time>
      </trkpt>
      <trkpt lat="41.869605" lon="3.072182">
        <ele>30.0</ele>
        <time>2019-01-13T22:13:49Z</time>
      </trkpt>
      <trkpt lat="41.870132" lon="3.071978">
        <ele>32.0</ele>
        <time>2019-01-13T22:13:58Z</time>
      </trkpt>
      <trkpt lat="41.870188" lon="3.071958">
        <ele>32.0</ele>
        <time>2019-01-13T22:13:59Z</time>
      </trkpt>
      <trkpt lat="41.870401" lon="3.071865">
        <ele>33.0</ele>
        <time>2019-01-13T22:14:03Z</time>
      </trkpt>
      <trkpt lat="41.870453" lon="3.071843">
        <ele>33.0</ele>
        <time>2019-01-13T22:14:03Z</time>
      </trkpt>
      <trkpt lat="41.870506" lon="3.071818">
        <ele>33.0</ele>
        <time>2019-01-13T22:14:04Z</time>
      </trkpt>
      <trkpt lat="41.870553" lon="3.071791">
        <ele>33.0</ele>
        <time>2019-01-13T22:14:05Z</time>
      </trkpt>
      <trkpt lat="41.870596" lon="3.071755">
        <ele>34.0</ele>
        <time>2019-01-13T22:14:06Z</time>
      </trkpt>
      <trkpt lat="41.870739" lon="3.071564">
        <ele>34.0</ele>
        <time>2019-01-13T22:14:09Z</time>
      </trkpt>
      <trkpt lat="41.870765" lon="3.071509">
        <ele>34.0</ele>
        <time>2019-01-13T22:14:10Z</time>
      </trkpt>
      <trkpt lat="41.870839" lon="3.071339">
        <ele>35.0</ele>
        <time>2019-01-13T22:14:12Z</time>
      </trkpt>
      <trkpt lat="41.870865" lon="3.071280">
        <ele>35.0</ele>
        <time>2019-01-13T22:14:13Z</time>
      </trkpt>
      <trkpt lat="41.870885" lon="3.071216">
        <ele>35.0</ele>
        <time>2019-01-13T22:14:14Z</time>
      </trkpt>
      <trkpt lat="41.870901" lon="3.071151">
        <ele>35.0</ele>
        <time>2019-01-13T22:14:15Z</time>
      </trkpt>
      <trkpt lat="41.870916" lon="3.071084">
        <ele>35.0</ele>
        <time>2019-01-13T22:14:16Z</time>
      </trkpt>
      <trkpt lat="41.870941" lon="3.070946">
        <ele>35.0</ele>
        <time>2019-01-13T22:14:17Z</time>
      </trkpt>
      <trkpt lat="41.870972" lon="3.070592">
        <ele>36.0</ele>
        <time>2019-01-13T22:14:22Z</time>
      </trkpt>
      <trkpt lat="41.870991" lon="3.070177">
        <ele>36.0</ele>
        <time>2019-01-13T22:14:27Z</time>
      </trkpt>
      <trkpt lat="41.870992" lon="3.070108">
        <ele>36.0</ele>
        <time>2019-01-13T22:14:27Z</time>
      </trkpt>
      <trkpt lat="41.870995" lon="3.070039">
        <ele>36.0</ele>
        <time>2019-01-13T22:14:28Z</time>
      </trkpt>
      <trkpt lat="41.871000" lon="3.069965">
        <ele>37.0</ele>
        <time>2019-01-13T22:14:29Z</time>
      </trkpt>
      <trkpt lat="41.871004" lon="3.069898">
        <ele>37.0</ele>
        <time>2019-01-13T22:14:30Z</time>
      </trkpt>
      <trkpt lat="41.871030" lon="3.069560">
        <ele>37.0</ele>
        <time>2019-01-13T22:14:34Z</time>
      </trkpt>
      <trkpt lat="41.871041" lon="3.068993">
        <ele>38.0</ele>
        <time>2019-01-13T22:14:41Z</time>
      </trkpt>
      <trkpt lat="41.870930" lon="3.068499">
        <ele>37.0</ele>
        <time>2019-01-13T22:14:47Z</time>
      </trkpt>
      <trkpt lat="41.870856" lon="3.068208">
        <ele>37.0</ele>
        <time>2019-01-13T22:14:50Z</time>
      </trkpt>
      <trkpt lat="41.870773" lon="3.067911">
        <ele>37.0</ele>
        <time>2019-01-13T22:14:54Z</time>
      </trkpt>
      <trkpt lat="41.870575" lon="3.067227">
        <ele>38.0</ele>
        <time>2019-01-13T22:15:03Z</time>
      </trkpt>
      <trkpt lat="41.870555" lon="3.067150">
        <ele>38.0</ele>
        <time>2019-01-13T22:15:04Z</time>
      </trkpt>
      <trkpt lat="41.870383" lon="3.066518">
        <ele>39.0</ele>
        <time>2019-01-13T22:15:12Z</time>
      </trkpt>
      <trkpt lat="41.870342" lon="3.066356">
        <ele>39.0</ele>
        <time>2019-01-13T22:15:14Z</time>
      </trkpt>
      <trkpt lat="41.870262" lon="3.066046">
        <ele>39.0</ele>
        <time>2019-01-13T22:15:18Z</time>
      </trkpt>
      <trkpt lat="41.870213" lon="3.065812">
        <ele>39.0</ele>
        <time>2019-01-13T22:15:21Z</time>
      </trkpt>
      <trkpt lat="41.870204" lon="3.065731">
        <ele>39.0</ele>
        <time>2019-01-13T22:15:22Z</time>
      </trkpt>
      <trkpt lat="41.870202" lon="3.065565">
        <ele>39.0</ele>
        <time>2019-01-13T22:15:24Z</time>
      </trkpt>
      <trkpt lat="41.870249" lon="3.065317">
        <ele>39.0</ele>
        <time>2019-01-13T22:15:27Z</time>
      </trkpt>
      <trkpt lat="41.870280" lon="3.065243">
        <ele>39.0</ele>
        <time>2019-01-13T22:15:28Z</time>
      </trkpt>
      <trkpt lat="41.870319" lon="3.065179">
        <ele>39.0</ele>
        <time>2019-01-13T22:15:29Z</time>
      </trkpt>
      <trkpt lat="41.870362" lon="3.065119">
        <ele>39.0</ele>
        <time>2019-01-13T22:15:30Z</time>
      </trkpt>
      <trkpt lat="41.870407" lon="3.065066">
        <ele>39.0</ele>
        <time>2019-01-13T22:15:31Z</time>
      </trkpt>
      <trkpt lat="41.870454" lon="3.065016">
        <ele>39.0</ele>
        <time>2019-01-13T22:15:32Z</time>
      </trkpt>
      <trkpt lat="41.870744" lon="3.064733">
        <ele>40.0</ele>
        <time>2019-01-13T22:15:38Z</time>
      </trkpt>
      <trkpt lat="41.870992" lon="3.064492">
        <ele>41.0</ele>
        <time>2019-01-13T22:15:42Z</time>
      </trkpt>
      <trkpt lat="41.871177" lon="3.064308">
        <ele>41.0</ele>
        <time>2019-01-13T22:15:46Z</time>
      </trkpt>
      <trkpt lat="41.871427" lon="3.064073">
        <ele>42.0</ele>
        <time>2019-01-13T22:15:51Z</time>
      </trkpt>
      <trkpt lat="41.871571" lon="3.063938">
        <ele>42.0</ele>
        <time>2019-01-13T22:15:54Z</time>
      </trkpt>
      <trkpt lat="41.871941" lon="3.063656">
        <ele>43.0</ele>
        <time>2019-01-13T22:16:01Z</time>
      </trkpt>
      <trkpt lat="41.872281" lon="3.063488">
        <ele>43.0</ele>
        <time>2019-01-13T22:16:06Z</time>
      </trkpt>
      <trkpt lat="41.872651" lon="3.063393">
        <ele>44.0</ele>
        <time>2019-01-13T22:16:12Z</time>
      </trkpt>
      <trkpt lat="41.872701" lon="3.063398">
        <ele>45.0</ele>
        <time>2019-01-13T22:16:13Z</time>
      </trkpt>
      <trkpt lat="41.872750" lon="3.063412">
        <ele>45.0</ele>
        <time>2019-01-13T22:16:14Z</time>
      </trkpt>
      <trkpt lat="41.872795" lon="3.063434">
        <ele>45.0</ele>
        <time>2019-01-13T22:16:15Z</time>
      </trkpt>
      <trkpt lat="41.872838" lon="3.063458">
        <ele>45.0</ele>
        <time>2019-01-13T22:16:16Z</time>
      </trkpt>
      <trkpt lat="41.872880" lon="3.063480">
        <ele>45.0</ele>
        <time>2019-01-13T22:16:16Z</time>
      </trkpt>
      <trkpt lat="41.872968" lon="3.063516">
        <ele>45.0</ele>
        <time>2019-01-13T22:16:18Z</time>
      </trkpt>
      <trkpt lat="41.873006" lon="3.063540">
        <ele>46.0</ele>
        <time>2019-01-13T22:16:18Z</time>
      </trkpt>
      <trkpt lat="41.873045" lon="3.063565">
        <ele>46.0</ele>
        <time>2019-01-13T22:16:19Z</time>
      </trkpt>
      <trkpt lat="41.873083" lon="3.063588">
        <ele>46.0</ele>
        <time>2019-01-13T22:16:20Z</time>
      </trkpt>
      <trkpt lat="41.873125" lon="3.063605">
        <ele>46.0</ele>
        <time>2019-01-13T22:16:20Z</time>
      </trkpt>
      <trkpt lat="41.873157" lon="3.063621">
        <ele>46.0</ele>
        <time>2019-01-13T22:16:21Z</time>
      </trkpt>
      <trkpt lat="41.873234" lon="3.063646">
        <ele>46.0</ele>
        <time>2019-01-13T22:16:22Z</time>
      </trkpt>
      <trkpt lat="41.873276" lon="3.063652">
        <ele>47.0</ele>
        <time>2019-01-13T22:16:23Z</time>
      </trkpt>
      <trkpt lat="41.873399" lon="3.063660">
        <ele>48.0</ele>
        <time>2019-01-13T22:16:25Z</time>
      </trkpt>
      <trkpt lat="41.873443" lon="3.063656">
        <ele>48.0</ele>
        <time>2019-01-13T22:16:26Z</time>
      </trkpt>
      <trkpt lat="41.873484" lon="3.063648">
        <ele>48.0</ele>
        <time>2019-01-13T22:16:26Z</time>
      </trkpt>
      <trkpt lat="41.873528" lon="3.063640">
        <ele>48.0</ele>
        <time>2019-01-13T22:16:27Z</time>
      </trkpt>
      <trkpt lat="41.873571" lon="3.063638">
        <ele>49.0</ele>
        <time>2019-01-13T22:16:28Z</time>
      </trkpt>
      <trkpt lat="41.873616" lon="3.063624">
        <ele>49.0</ele>
        <time>2019-01-13T22:16:28Z</time>
      </trkpt>
      <trkpt lat="41.873742" lon="3.063561">
        <ele>50.0</ele>
        <time>2019-01-13T22:16:31Z</time>
      </trkpt>
      <trkpt lat="41.873815" lon="3.063493">
        <ele>50.0</ele>
        <time>2019-01-13T22:16:32Z</time>
      </trkpt>
      <trkpt lat="41.873848" lon="3.063450">
        <ele>50.0</ele>
        <time>2019-01-13T22:16:33Z</time>
      </trkpt>
      <trkpt lat="41.873882" lon="3.063404">
        <ele>50.0</ele>
        <time>2019-01-13T22:16:34Z</time>
      </trkpt>
      <trkpt lat="41.873918" lon="3.063355">
        <ele>51.0</ele>
        <time>2019-01-13T22:16:34Z</time>
      </trkpt>
      <trkpt lat="41.873952" lon="3.063310">
        <ele>51.0</ele>
        <time>2019-01-13T22:16:35Z</time>
      </trkpt>
      <trkpt lat="41.874177" lon="3.062978">
        <ele>52.0</ele>
        <time>2019-01-13T22:16:40Z</time>
      </trkpt>
      <trkpt lat="41.874243" lon="3.062878">
        <ele>52.0</ele>
        <time>2019-01-13T22:16:42Z</time>
      </trkpt>
      <trkpt lat="41.874514" lon="3.062474">
        <ele>53.0</ele>
        <time>2019-01-13T22:16:49Z</time>
      </trkpt>
      <trkpt lat="41.874614" lon="3.062323">
        <ele>53.0</ele>
        <time>2019-01-13T22:16:51Z</time>
      </trkpt>
      <trkpt lat="41.874647" lon="3.062273">
        <ele>53.0</ele>
        <time>2019-01-13T22:16:52Z</time>
      </trkpt>
      <trkpt lat="41.874678" lon="3.062223">
        <ele>53.0</ele>
        <time>2019-01-13T22:16:53Z</time>
      </trkpt>
      <trkpt lat="41.874710" lon="3.062171">
        <ele>54.0</ele>
        <time>2019-01-13T22:16:53Z</time>
      </trkpt>
      <trkpt lat="41.874742" lon="3.062116">
        <ele>53.0</ele>
        <time>2019-01-13T22:16:54Z</time>
      </trkpt>
      <trkpt lat="41.874774" lon="3.062060">
        <ele>53.0</ele>
        <time>2019-01-13T22:16:55Z</time>
      </trkpt>
      <trkpt lat="41.874810" lon="3.062009">
        <ele>53.0</ele>
        <time>2019-01-13T22:16:56Z</time>
      </trkpt>
      <trkpt lat="41.874977" lon="3.061757">
        <ele>54.0</ele>
        <time>2019-01-13T22:17:00Z</time>
      </trkpt>
      <trkpt lat="41.875147" lon="3.061576">
        <ele>54.0</ele>
        <time>2019-01-13T22:17:03Z</time>
      </trkpt>
      <trkpt lat="41.875197" lon="3.061546">
        <ele>54.0</ele>
        <time>2019-01-13T22:17:04Z</time>
      </trkpt>
      <trkpt lat="41.875410" lon="3.061505">
        <ele>54.0</ele>
        <time>2019-01-13T22:17:08Z</time>
      </trkpt>
      <trkpt lat="41.875593" lon="3.061593">
        <ele>55.0</ele>
        <time>2019-01-13T22:17:11Z</time>
      </trkpt>
      <trkpt lat="41.875703" lon="3.061714">
        <ele>56.0</ele>
        <time>2019-01-13T22:17:13Z</time>
      </trkpt>
      <trkpt lat="41.875738" lon="3.061761">
        <ele>56.0</ele>
        <time>2019-01-13T22:17:14Z</time>
      </trkpt>
      <trkpt lat="41.875768" lon="3.061807">
        <ele>56.0</ele>
        <time>2019-01-13T22:17:15Z</time>
      </trkpt>
      <trkpt lat="41.875798" lon="3.061860">
        <ele>56.0</ele>
        <time>2019-01-13T22:17:15Z</time>
      </trkpt>
      <trkpt lat="41.875824" lon="3.061914">
        <ele>57.0</ele>
        <time>2019-01-13T22:17:16Z</time>
      </trkpt>
      <trkpt lat="41.875865" lon="3.062040">
        <ele>57.0</ele>
        <time>2019-01-13T22:17:18Z</time>
      </trkpt>
      <trkpt lat="41.875880" lon="3.062102">
        <ele>57.0</ele>
        <time>2019-01-13T22:17:19Z</time>
      </trkpt>
      <trkpt lat="41.875979" lon="3.062624">
        <ele>59.0</ele>
        <time>2019-01-13T22:17:25Z</time>
      </trkpt>
      <trkpt lat="41.876033" lon="3.062945">
        <ele>60.0</ele>
        <time>2019-01-13T22:17:29Z</time>
      </trkpt>
      <trkpt lat="41.876045" lon="3.063007">
        <ele>60.0</ele>
        <time>2019-01-13T22:17:30Z</time>
      </trkpt>
      <trkpt lat="41.876053" lon="3.063069">
        <ele>61.0</ele>
        <time>2019-01-13T22:17:30Z</time>
      </trkpt>
      <trkpt lat="41.876060" lon="3.063130">
        <ele>61.0</ele>
        <time>2019-01-13T22:17:31Z</time>
      </trkpt>
      <trkpt lat="41.876071" lon="3.063187">
        <ele>61.0</ele>
        <time>2019-01-13T22:17:32Z</time>
      </trkpt>
      <trkpt lat="41.876096" lon="3.063312">
        <ele>62.0</ele>
        <time>2019-01-13T22:17:33Z</time>
      </trkpt>
      <trkpt lat="41.876112" lon="3.063366">
        <ele>62.0</ele>
        <time>2019-01-13T22:17:34Z</time>
      </trkpt>
      <trkpt lat="41.876222" lon="3.063544">
        <ele>61.0</ele>
        <time>2019-01-13T22:17:37Z</time>
      </trkpt>
      <trkpt lat="41.876366" lon="3.063692">
        <ele>61.0</ele>
        <time>2019-01-13T22:17:40Z</time>
      </trkpt>
      <trkpt lat="41.876399" lon="3.063733">
        <ele>61.0</ele>
        <time>2019-01-13T22:17:40Z</time>
      </trkpt>
      <trkpt lat="41.876438" lon="3.063769">
        <ele>60.0</ele>
        <time>2019-01-13T22:17:41Z</time>
      </trkpt>
      <trkpt lat="41.876481" lon="3.063801">
        <ele>60.0</ele>
        <time>2019-01-13T22:17:42Z</time>
      </trkpt>
      <trkpt lat="41.876523" lon="3.063832">
        <ele>60.0</ele>
        <time>2019-01-13T22:17:43Z</time>
      </trkpt>
      <trkpt lat="41.876562" lon="3.063871">
        <ele>60.0</ele>
        <time>2019-01-13T22:17:44Z</time>
      </trkpt>
      <trkpt lat="41.876776" lon="3.064032">
        <ele>58.0</ele>
        <time>2019-01-13T22:17:47Z</time>
      </trkpt>
      <trkpt lat="41.876823" lon="3.064068">
        <ele>58.0</ele>
        <time>2019-01-13T22:17:48Z</time>
      </trkpt>
      <trkpt lat="41.876863" lon="3.064100">
        <ele>58.0</ele>
        <time>2019-01-13T22:17:49Z</time>
      </trkpt>
      <trkpt lat="41.876904" lon="3.064132">
        <ele>58.0</ele>
        <time>2019-01-13T22:17:50Z</time>
      </trkpt>
      <trkpt lat="41.876948" lon="3.064166">
        <ele>58.0</ele>
        <time>2019-01-13T22:17:51Z</time>
      </trkpt>
      <trkpt lat="41.877160" lon="3.064322">
        <ele>57.0</ele>
        <time>2019-01-13T22:17:55Z</time>
      </trkpt>
      <trkpt lat="41.877332" lon="3.064437">
        <ele>57.0</ele>
        <time>2019-01-13T22:17:58Z</time>
      </trkpt>
      <trkpt lat="41.877548" lon="3.064579">
        <ele>60.0</ele>
        <time>2019-01-13T22:18:01Z</time>
      </trkpt>
      <trkpt lat="41.877755" lon="3.064702">
        <ele>63.0</ele>
        <time>2019-01-13T22:18:05Z</time>
      </trkpt>
      <trkpt lat="41.877795" lon="3.064732">
        <ele>63.0</ele>
        <time>2019-01-13T22:18:06Z</time>
      </trkpt>
      <trkpt lat="41.877833" lon="3.064763">
        <ele>63.0</ele>
        <time>2019-01-13T22:18:07Z</time>
      </trkpt>
      <trkpt lat="41.877871" lon="3.064790">
        <ele>64.0</ele>
        <time>2019-01-13T22:18:07Z</time>
      </trkpt>
      <trkpt lat="41.878025" lon="3.064889">
        <ele>65.0</ele>
        <time>2019-01-13T22:18:10Z</time>
      </trkpt>
      <trkpt lat="41.878062" lon="3.064924">
        <ele>65.0</ele>
        <time>2019-01-13T22:18:11Z</time>
      </trkpt>
      <trkpt lat="41.878124" lon="3.064998">
        <ele>66.0</ele>
        <time>2019-01-13T22:18:12Z</time>
      </trkpt>
      <trkpt lat="41.878153" lon="3.065037">
        <ele>66.0</ele>
        <time>2019-01-13T22:18:13Z</time>
      </trkpt>
      <trkpt lat="41.878174" lon="3.065080">
        <ele>66.0</ele>
        <time>2019-01-13T22:18:13Z</time>
      </trkpt>
      <trkpt lat="41.878190" lon="3.065123">
        <ele>66.0</ele>
        <time>2019-01-13T22:18:14Z</time>
      </trkpt>
      <trkpt lat="41.878210" lon="3.065166">
        <ele>66.0</ele>
        <time>2019-01-13T22:18:14Z</time>
      </trkpt>
      <trkpt lat="41.878233" lon="3.065211">
        <ele>67.0</ele>
        <time>2019-01-13T22:18:15Z</time>
      </trkpt>
      <trkpt lat="41.878289" lon="3.065352">
        <ele>67.0</ele>
        <time>2019-01-13T22:18:17Z</time>
      </trkpt>
      <trkpt lat="41.878306" lon="3.065398">
        <ele>68.0</ele>
        <time>2019-01-13T22:18:18Z</time>
      </trkpt>
      <trkpt lat="41.878341" lon="3.065473">
        <ele>68.0</ele>
        <time>2019-01-13T22:18:19Z</time>
      </trkpt>
      <trkpt lat="41.878358" lon="3.065516">
        <ele>68.0</ele>
        <time>2019-01-13T22:18:19Z</time>
      </trkpt>
      <trkpt lat="41.878438" lon="3.065657">
        <ele>69.0</ele>
        <time>2019-01-13T22:18:21Z</time>
      </trkpt>
      <trkpt lat="41.878458" lon="3.065694">
        <ele>69.0</ele>
        <time>2019-01-13T22:18:22Z</time>
      </trkpt>
      <trkpt lat="41.878473" lon="3.065741">
        <ele>70.0</ele>
        <time>2019-01-13T22:18:23Z</time>
      </trkpt>
      <trkpt lat="41.878489" lon="3.065789">
        <ele>70.0</ele>
        <time>2019-01-13T22:18:23Z</time>
      </trkpt>
      <trkpt lat="41.878563" lon="3.066025">
        <ele>71.0</ele>
        <time>2019-01-13T22:18:26Z</time>
      </trkpt>
      <trkpt lat="41.878581" lon="3.066076">
        <ele>71.0</ele>
        <time>2019-01-13T22:18:27Z</time>
      </trkpt>
      <trkpt lat="41.878601" lon="3.066117">
        <ele>72.0</ele>
        <time>2019-01-13T22:18:27Z</time>
      </trkpt>
      <trkpt lat="41.878614" lon="3.066153">
        <ele>72.0</ele>
        <time>2019-01-13T22:18:28Z</time>
      </trkpt>
      <trkpt lat="41.878631" lon="3.066192">
        <ele>72.0</ele>
        <time>2019-01-13T22:18:28Z</time>
      </trkpt>
      <trkpt lat="41.878643" lon="3.066235">
        <ele>72.0</ele>
        <time>2019-01-13T22:18:29Z</time>
      </trkpt>
      <trkpt lat="41.878714" lon="3.066437">
        <ele>74.0</ele>
        <time>2019-01-13T22:18:32Z</time>
      </trkpt>
      <trkpt lat="41.878733" lon="3.066475">
        <ele>74.0</ele>
        <time>2019-01-13T22:18:32Z</time>
      </trkpt>
      <trkpt lat="41.878747" lon="3.066517">
        <ele>74.0</ele>
        <time>2019-01-13T22:18:33Z</time>
      </trkpt>
      <trkpt lat="41.878763" lon="3.066560">
        <ele>74.0</ele>
        <time>2019-01-13T22:18:33Z</time>
      </trkpt>
      <trkpt lat="41.878787" lon="3.066597">
        <ele>74.0</ele>
        <time>2019-01-13T22:18:34Z</time>
      </trkpt>
      <trkpt lat="41.878873" lon="3.066758">
        <ele>75.0</ele>
        <time>2019-01-13T22:18:36Z</time>
      </trkpt>
      <trkpt lat="41.878896" lon="3.066793">
        <ele>76.0</ele>
        <time>2019-01-13T22:18:37Z</time>
      </trkpt>
      <trkpt lat="41.878923" lon="3.066825">
        <ele>76.0</ele>
        <time>2019-01-13T22:18:37Z</time>
      </trkpt>
      <trkpt lat="41.878952" lon="3.066855">
        <ele>76.0</ele>
        <time>2019-01-13T22:18:38Z</time>
      </trkpt>
      <trkpt lat="41.878987" lon="3.066883">
        <ele>76.0</ele>
        <time>2019-01-13T22:18:39Z</time>
      </trkpt>
      <trkpt lat="41.879078" lon="3.066949">
        <ele>77.0</ele>
        <time>2019-01-13T22:18:40Z</time>
      </trkpt>
      <trkpt lat="41.879106" lon="3.066976">
        <ele>77.0</ele>
        <time>2019-01-13T22:18:41Z</time>
      </trkpt>
      <trkpt lat="41.879134" lon="3.067000">
        <ele>78.0</ele>
        <time>2019-01-13T22:18:41Z</time>
      </trkpt>
      <trkpt lat="41.879162" lon="3.067023">
        <ele>78.0</ele>
        <time>2019-01-13T22:18:42Z</time>
      </trkpt>
      <trkpt lat="41.879194" lon="3.067046">
        <ele>78.0</ele>
        <time>2019-01-13T22:18:42Z</time>
      </trkpt>
      <trkpt lat="41.879228" lon="3.067067">
        <ele>78.0</ele>
        <time>2019-01-13T22:18:43Z</time>
      </trkpt>
      <trkpt lat="41.879369" lon="3.067191">
        <ele>79.0</ele>
        <time>2019-01-13T22:18:46Z</time>
      </trkpt>
      <trkpt lat="41.879424" lon="3.067236">
        <ele>80.0</ele>
        <time>2019-01-13T22:18:47Z</time>
      </trkpt>
      <trkpt lat="41.879454" lon="3.067250">
        <ele>80.0</ele>
        <time>2019-01-13T22:18:47Z</time>
      </trkpt>
      <trkpt lat="41.879486" lon="3.067273">
        <ele>80.0</ele>
        <time>2019-01-13T22:18:48Z</time>
      </trkpt>
      <trkpt lat="41.879517" lon="3.067299">
        <ele>80.0</ele>
        <time>2019-01-13T22:18:48Z</time>
      </trkpt>
      <trkpt lat="41.879541" lon="3.067324">
        <ele>81.0</ele>
        <time>2019-01-13T22:18:49Z</time>
      </trkpt>
      <trkpt lat="41.879660" lon="3.067381">
        <ele>81.0</ele>
        <time>2019-01-13T22:18:51Z</time>
      </trkpt>
      <trkpt lat="41.879693" lon="3.067395">
        <ele>82.0</ele>
        <time>2019-01-13T22:18:52Z</time>
      </trkpt>
      <trkpt lat="41.879722" lon="3.067404">
        <ele>82.0</ele>
        <time>2019-01-13T22:18:52Z</time>
      </trkpt>
      <trkpt lat="41.879751" lon="3.067407">
        <ele>82.0</ele>
        <time>2019-01-13T22:18:52Z</time>
      </trkpt>
      <trkpt lat="41.879781" lon="3.067401">
        <ele>82.0</ele>
        <time>2019-01-13T22:18:53Z</time>
      </trkpt>
      <trkpt lat="41.879811" lon="3.067394">
        <ele>82.0</ele>
        <time>2019-01-13T22:18:53Z</time>
      </trkpt>
      <trkpt lat="41.879928" lon="3.067351">
        <ele>83.0</ele>
        <time>2019-01-13T22:18:55Z</time>
      </trkpt>
      <trkpt lat="41.879958" lon="3.067335">
        <ele>84.0</ele>
        <time>2019-01-13T22:18:56Z</time>
      </trkpt>
      <trkpt lat="41.880016" lon="3.067307">
        <ele>84.0</ele>
        <time>2019-01-13T22:18:57Z</time>
      </trkpt>
      <trkpt lat="41.880042" lon="3.067295">
        <ele>84.0</ele>
        <time>2019-01-13T22:18:57Z</time>
      </trkpt>
      <trkpt lat="41.880070" lon="3.067280">
        <ele>84.0</ele>
        <time>2019-01-13T22:18:58Z</time>
      </trkpt>
      <trkpt lat="41.880093" lon="3.067267">
        <ele>85.0</ele>
        <time>2019-01-13T22:18:58Z</time>
      </trkpt>
      <trkpt lat="41.880122" lon="3.067252">
        <ele>85.0</ele>
        <time>2019-01-13T22:18:59Z</time>
      </trkpt>
      <trkpt lat="41.880144" lon="3.067234">
        <ele>85.0</ele>
        <time>2019-01-13T22:18:59Z</time>
      </trkpt>
      <trkpt lat="41.880248" lon="3.067093">
        <ele>86.0</ele>
        <time>2019-01-13T22:19:01Z</time>
      </trkpt>
      <trkpt lat="41.880269" lon="3.067062">
        <ele>86.0</ele>
        <time>2019-01-13T22:19:02Z</time>
      </trkpt>
      <trkpt lat="41.880283" lon="3.067031">
        <ele>86.0</ele>
        <time>2019-01-13T22:19:02Z</time>
      </trkpt>
      <trkpt lat="41.880298" lon="3.066996">
        <ele>87.0</ele>
        <time>2019-01-13T22:19:03Z</time>
      </trkpt>
      <trkpt lat="41.880319" lon="3.066923">
        <ele>87.0</ele>
        <time>2019-01-13T22:19:04Z</time>
      </trkpt>
      <trkpt lat="41.880396" lon="3.066785">
        <ele>88.0</ele>
        <time>2019-01-13T22:19:06Z</time>
      </trkpt>
      <trkpt lat="41.880421" lon="3.066753">
        <ele>88.0</ele>
        <time>2019-01-13T22:19:06Z</time>
      </trkpt>
      <trkpt lat="41.880449" lon="3.066732">
        <ele>88.0</ele>
        <time>2019-01-13T22:19:07Z</time>
      </trkpt>
      <trkpt lat="41.880470" lon="3.066711">
        <ele>89.0</ele>
        <time>2019-01-13T22:19:07Z</time>
      </trkpt>
      <trkpt lat="41.880496" lon="3.066701">
        <ele>89.0</ele>
        <time>2019-01-13T22:19:08Z</time>
      </trkpt>
      <trkpt lat="41.880525" lon="3.066702">
        <ele>89.0</ele>
        <time>2019-01-13T22:19:08Z</time>
      </trkpt>
      <trkpt lat="41.880633" lon="3.066729">
        <ele>90.0</ele>
        <time>2019-01-13T22:19:10Z</time>
      </trkpt>
      <trkpt lat="41.880704" lon="3.066750">
        <ele>90.0</ele>
        <time>2019-01-13T22:19:11Z</time>
      </trkpt>
      <trkpt lat="41.880739" lon="3.066762">
        <ele>91.0</ele>
        <time>2019-01-13T22:19:12Z</time>
      </trkpt>
      <trkpt lat="41.880774" lon="3.066773">
        <ele>91.0</ele>
        <time>2019-01-13T22:19:12Z</time>
      </trkpt>
      <trkpt lat="41.880810" lon="3.066787">
        <ele>91.0</ele>
        <time>2019-01-13T22:19:13Z</time>
      </trkpt>
      <trkpt lat="41.880846" lon="3.066801">
        <ele>92.0</ele>
        <time>2019-01-13T22:19:14Z</time>
      </trkpt>
      <trkpt lat="41.880874" lon="3.066818">
        <ele>92.0</ele>
        <time>2019-01-13T22:19:14Z</time>
      </trkpt>
      <trkpt lat="41.880906" lon="3.066829">
        <ele>92.0</ele>
        <time>2019-01-13T22:19:15Z</time>
      </trkpt>
      <trkpt lat="41.881050" lon="3.066842">
        <ele>93.0</ele>
        <time>2019-01-13T22:19:17Z</time>
      </trkpt>
      <trkpt lat="41.881090" lon="3.066842">
        <ele>93.0</ele>
        <time>2019-01-13T22:19:18Z</time>
      </trkpt>
      <trkpt lat="41.881126" lon="3.066841">
        <ele>94.0</ele>
        <time>2019-01-13T22:19:18Z</time>
      </trkpt>
      <trkpt lat="41.881164" lon="3.066838">
        <ele>94.0</ele>
        <time>2019-01-13T22:19:19Z</time>
      </trkpt>
      <trkpt lat="41.881203" lon="3.066831">
        <ele>94.0</ele>
        <time>2019-01-13T22:19:19Z</time>
      </trkpt>
      <trkpt lat="41.881378" lon="3.066800">
        <ele>95.0</ele>
        <time>2019-01-13T22:19:22Z</time>
      </trkpt>
      <trkpt lat="41.881410" lon="3.066793">
        <ele>95.0</ele>
        <time>2019-01-13T22:19:23Z</time>
      </trkpt>
      <trkpt lat="41.881444" lon="3.066786">
        <ele>95.0</ele>
        <time>2019-01-13T22:19:23Z</time>
      </trkpt>
      <trkpt lat="41.881480" lon="3.066778">
        <ele>96.0</ele>
        <time>2019-01-13T22:19:24Z</time>
      </trkpt>
      <trkpt lat="41.881514" lon="3.066771">
        <ele>96.0</ele>
        <time>2019-01-13T22:19:24Z</time>
      </trkpt>
      <trkpt lat="41.881548" lon="3.066766">
        <ele>96.0</ele>
        <time>2019-01-13T22:19:25Z</time>
      </trkpt>
      <trkpt lat="41.881580" lon="3.066763">
        <ele>96.0</ele>
        <time>2019-01-13T22:19:25Z</time>
      </trkpt>
      <trkpt lat="41.881712" lon="3.066724">
        <ele>97.0</ele>
        <time>2019-01-13T22:19:28Z</time>
      </trkpt>
      <trkpt lat="41.881744" lon="3.066714">
        <ele>97.0</ele>
        <time>2019-01-13T22:19:28Z</time>
      </trkpt>
      <trkpt lat="41.881779" lon="3.066701">
        <ele>98.0</ele>
        <time>2019-01-13T22:19:29Z</time>
      </trkpt>
      <trkpt lat="41.881812" lon="3.066686">
        <ele>98.0</ele>
        <time>2019-01-13T22:19:29Z</time>
      </trkpt>
      <trkpt lat="41.881973" lon="3.066564">
        <ele>99.0</ele>
        <time>2019-01-13T22:19:32Z</time>
      </trkpt>
      <trkpt lat="41.882000" lon="3.066530">
        <ele>99.0</ele>
        <time>2019-01-13T22:19:33Z</time>
      </trkpt>
      <trkpt lat="41.882023" lon="3.066496">
        <ele>100.0</ele>
        <time>2019-01-13T22:19:33Z</time>
      </trkpt>
      <trkpt lat="41.882048" lon="3.066462">
        <ele>100.0</ele>
        <time>2019-01-13T22:19:34Z</time>
      </trkpt>
      <trkpt lat="41.882068" lon="3.066424">
        <ele>100.0</ele>
        <time>2019-01-13T22:19:34Z</time>
      </trkpt>
      <trkpt lat="41.882089" lon="3.066388">
        <ele>100.0</ele>
        <time>2019-01-13T22:19:35Z</time>
      </trkpt>
      <trkpt lat="41.882107" lon="3.066352">
        <ele>101.0</ele>
        <time>2019-01-13T22:19:36Z</time>
      </trkpt>
      <trkpt lat="41.882235" lon="3.066134">
        <ele>102.0</ele>
        <time>2019-01-13T22:19:39Z</time>
      </trkpt>
      <trkpt lat="41.882258" lon="3.066096">
        <ele>103.0</ele>
        <time>2019-01-13T22:19:39Z</time>
      </trkpt>
      <trkpt lat="41.882279" lon="3.066057">
        <ele>103.0</ele>
        <time>2019-01-13T22:19:40Z</time>
      </trkpt>
      <trkpt lat="41.882302" lon="3.066019">
        <ele>103.0</ele>
        <time>2019-01-13T22:19:41Z</time>
      </trkpt>
      <trkpt lat="41.882321" lon="3.065979">
        <ele>103.0</ele>
        <time>2019-01-13T22:19:41Z</time>
      </trkpt>
      <trkpt lat="41.882406" lon="3.065829">
        <ele>104.0</ele>
        <time>2019-01-13T22:19:43Z</time>
      </trkpt>
      <trkpt lat="41.882431" lon="3.065796">
        <ele>105.0</ele>
        <time>2019-01-13T22:19:44Z</time>
      </trkpt>
      <trkpt lat="41.882456" lon="3.065762">
        <ele>105.0</ele>
        <time>2019-01-13T22:19:45Z</time>
      </trkpt>
      <trkpt lat="41.882485" lon="3.065737">
        <ele>105.0</ele>
        <time>2019-01-13T22:19:45Z</time>
      </trkpt>
      <trkpt lat="41.882510" lon="3.065711">
        <ele>105.0</ele>
        <time>2019-01-13T22:19:46Z</time>
      </trkpt>
      <trkpt lat="41.882571" lon="3.065675">
        <ele>106.0</ele>
        <time>2019-01-13T22:19:47Z</time>
      </trkpt>
      <trkpt lat="41.882656" lon="3.065674">
        <ele>106.0</ele>
        <time>2019-01-13T22:19:48Z</time>
      </trkpt>
      <trkpt lat="41.882685" lon="3.065679">
        <ele>107.0</ele>
        <time>2019-01-13T22:19:48Z</time>
      </trkpt>
      <trkpt lat="41.882714" lon="3.065683">
        <ele>107.0</ele>
        <time>2019-01-13T22:19:49Z</time>
      </trkpt>
      <trkpt lat="41.882746" lon="3.065692">
        <ele>107.0</ele>
        <time>2019-01-13T22:19:49Z</time>
      </trkpt>
      <trkpt lat="41.882781" lon="3.065694">
        <ele>107.0</ele>
        <time>2019-01-13T22:19:50Z</time>
      </trkpt>
      <trkpt lat="41.882923" lon="3.065702">
        <ele>108.0</ele>
        <time>2019-01-13T22:19:52Z</time>
      </trkpt>
      <trkpt lat="41.882988" lon="3.065685">
        <ele>109.0</ele>
        <time>2019-01-13T22:19:53Z</time>
      </trkpt>
      <trkpt lat="41.883020" lon="3.065680">
        <ele>109.0</ele>
        <time>2019-01-13T22:19:54Z</time>
      </trkpt>
      <trkpt lat="41.883054" lon="3.065675">
        <ele>109.0</ele>
        <time>2019-01-13T22:19:54Z</time>
      </trkpt>
      <trkpt lat="41.883087" lon="3.065678">
        <ele>109.0</ele>
        <time>2019-01-13T22:19:55Z</time>
      </trkpt>
      <trkpt lat="41.883119" lon="3.065679">
        <ele>110.0</ele>
        <time>2019-01-13T22:19:55Z</time>
      </trkpt>
      <trkpt lat="41.883280" lon="3.065641">
        <ele>111.0</ele>
        <time>2019-01-13T22:19:58Z</time>
      </trkpt>
      <trkpt lat="41.883316" lon="3.065641">
        <ele>111.0</ele>
        <time>2019-01-13T22:19:59Z</time>
      </trkpt>
      <trkpt lat="41.883349" lon="3.065635">
        <ele>111.0</ele>
        <time>2019-01-13T22:19:59Z</time>
      </trkpt>
      <trkpt lat="41.883380" lon="3.065629">
        <ele>111.0</ele>
        <time>2019-01-13T22:20:00Z</time>
      </trkpt>
      <trkpt lat="41.883411" lon="3.065621">
        <ele>111.0</ele>
        <time>2019-01-13T22:20:00Z</time>
      </trkpt>
      <trkpt lat="41.883442" lon="3.065613">
        <ele>112.0</ele>
        <time>2019-01-13T22:20:01Z</time>
      </trkpt>
      <trkpt lat="41.883538" lon="3.065593">
        <ele>112.0</ele>
        <time>2019-01-13T22:20:02Z</time>
      </trkpt>
      <trkpt lat="41.883602" lon="3.065585">
        <ele>113.0</ele>
        <time>2019-01-13T22:20:03Z</time>
      </trkpt>
      <trkpt lat="41.883631" lon="3.065572">
        <ele>113.0</ele>
        <time>2019-01-13T22:20:04Z</time>
      </trkpt>
      <trkpt lat="41.883658" lon="3.065546">
        <ele>113.0</ele>
        <time>2019-01-13T22:20:04Z</time>
      </trkpt>
      <trkpt lat="41.883686" lon="3.065530">
        <ele>113.0</ele>
        <time>2019-01-13T22:20:05Z</time>
      </trkpt>
      <trkpt lat="41.883716" lon="3.065524">
        <ele>113.0</ele>
        <time>2019-01-13T22:20:05Z</time>
      </trkpt>
      <trkpt lat="41.883822" lon="3.065460">
        <ele>114.0</ele>
        <time>2019-01-13T22:20:07Z</time>
      </trkpt>
      <trkpt lat="41.883948" lon="3.065321">
        <ele>115.0</ele>
        <time>2019-01-13T22:20:10Z</time>
      </trkpt>
      <trkpt lat="41.883969" lon="3.065288">
        <ele>115.0</ele>
        <time>2019-01-13T22:20:10Z</time>
      </trkpt>
      <trkpt lat="41.883988" lon="3.065254">
        <ele>115.0</ele>
        <time>2019-01-13T22:20:11Z</time>
      </trkpt>
      <trkpt lat="41.884004" lon="3.065221">
        <ele>115.0</ele>
        <time>2019-01-13T22:20:11Z</time>
      </trkpt>
      <trkpt lat="41.884021" lon="3.065188">
        <ele>115.0</ele>
        <time>2019-01-13T22:20:12Z</time>
      </trkpt>
      <trkpt lat="41.884080" lon="3.065046">
        <ele>115.0</ele>
        <time>2019-01-13T22:20:14Z</time>
      </trkpt>
      <trkpt lat="41.884125" lon="3.064974">
        <ele>115.0</ele>
        <time>2019-01-13T22:20:15Z</time>
      </trkpt>
      <trkpt lat="41.884141" lon="3.064938">
        <ele>115.0</ele>
        <time>2019-01-13T22:20:15Z</time>
      </trkpt>
      <trkpt lat="41.884153" lon="3.064900">
        <ele>115.0</ele>
        <time>2019-01-13T22:20:16Z</time>
      </trkpt>
      <trkpt lat="41.884167" lon="3.064863">
        <ele>115.0</ele>
        <time>2019-01-13T22:20:16Z</time>
      </trkpt>
      <trkpt lat="41.884186" lon="3.064828">
        <ele>115.0</ele>
        <time>2019-01-13T22:20:17Z</time>
      </trkpt>
      <trkpt lat="41.884292" lon="3.064691">
        <ele>115.0</ele>
        <time>2019-01-13T22:20:19Z</time>
      </trkpt>
      <trkpt lat="41.884376" lon="3.064593">
        <ele>114.0</ele>
        <time>2019-01-13T22:20:21Z</time>
      </trkpt>
      <trkpt lat="41.884406" lon="3.064575">
        <ele>114.0</ele>
        <time>2019-01-13T22:20:21Z</time>
      </trkpt>
      <trkpt lat="41.884435" lon="3.064553">
        <ele>114.0</ele>
        <time>2019-01-13T22:20:22Z</time>
      </trkpt>
      <trkpt lat="41.884467" lon="3.064535">
        <ele>114.0</ele>
        <time>2019-01-13T22:20:23Z</time>
      </trkpt>
      <trkpt lat="41.884497" lon="3.064522">
        <ele>114.0</ele>
        <time>2019-01-13T22:20:23Z</time>
      </trkpt>
      <trkpt lat="41.884613" lon="3.064461">
        <ele>115.0</ele>
        <time>2019-01-13T22:20:25Z</time>
      </trkpt>
      <trkpt lat="41.884765" lon="3.064431">
        <ele>116.0</ele>
        <time>2019-01-13T22:20:27Z</time>
      </trkpt>
      <trkpt lat="41.884802" lon="3.064443">
        <ele>116.0</ele>
        <time>2019-01-13T22:20:28Z</time>
      </trkpt>
      <trkpt lat="41.884841" lon="3.064453">
        <ele>117.0</ele>
        <time>2019-01-13T22:20:29Z</time>
      </trkpt>
      <trkpt lat="41.884873" lon="3.064468">
        <ele>117.0</ele>
        <time>2019-01-13T22:20:29Z</time>
      </trkpt>
      <trkpt lat="41.884900" lon="3.064491">
        <ele>117.0</ele>
        <time>2019-01-13T22:20:30Z</time>
      </trkpt>
      <trkpt lat="41.884947" lon="3.064542">
        <ele>118.0</ele>
        <time>2019-01-13T22:20:31Z</time>
      </trkpt>
      <trkpt lat="41.885063" lon="3.064627">
        <ele>120.0</ele>
        <time>2019-01-13T22:20:33Z</time>
      </trkpt>
      <trkpt lat="41.885131" lon="3.064649">
        <ele>121.0</ele>
        <time>2019-01-13T22:20:34Z</time>
      </trkpt>
      <trkpt lat="41.885164" lon="3.064654">
        <ele>121.0</ele>
        <time>2019-01-13T22:20:35Z</time>
      </trkpt>
      <trkpt lat="41.885195" lon="3.064654">
        <ele>122.0</ele>
        <time>2019-01-13T22:20:35Z</time>
      </trkpt>
      <trkpt lat="41.885227" lon="3.064654">
        <ele>122.0</ele>
        <time>2019-01-13T22:20:36Z</time>
      </trkpt>
      <trkpt lat="41.885262" lon="3.064645">
        <ele>122.0</ele>
        <time>2019-01-13T22:20:36Z</time>
      </trkpt>
      <trkpt lat="41.885357" lon="3.064584">
        <ele>123.0</ele>
        <time>2019-01-13T22:20:38Z</time>
      </trkpt>
      <trkpt lat="41.885433" lon="3.064424">
        <ele>123.0</ele>
        <time>2019-01-13T22:20:40Z</time>
      </trkpt>
      <trkpt lat="41.885437" lon="3.064378">
        <ele>123.0</ele>
        <time>2019-01-13T22:20:41Z</time>
      </trkpt>
      <trkpt lat="41.885441" lon="3.064281">
        <ele>122.0</ele>
        <time>2019-01-13T22:20:42Z</time>
      </trkpt>
      <trkpt lat="41.885442" lon="3.064232">
        <ele>122.0</ele>
        <time>2019-01-13T22:20:42Z</time>
      </trkpt>
      <trkpt lat="41.885441" lon="3.064182">
        <ele>122.0</ele>
        <time>2019-01-13T22:20:43Z</time>
      </trkpt>
      <trkpt lat="41.885442" lon="3.064128">
        <ele>122.0</ele>
        <time>2019-01-13T22:20:44Z</time>
      </trkpt>
      <trkpt lat="41.885445" lon="3.064078">
        <ele>122.0</ele>
        <time>2019-01-13T22:20:44Z</time>
      </trkpt>
      <trkpt lat="41.885450" lon="3.064032">
        <ele>121.0</ele>
        <time>2019-01-13T22:20:45Z</time>
      </trkpt>
      <trkpt lat="41.885524" lon="3.063860">
        <ele>121.0</ele>
        <time>2019-01-13T22:20:47Z</time>
      </trkpt>
      <trkpt lat="41.885716" lon="3.063623">
        <ele>121.0</ele>
        <time>2019-01-13T22:20:51Z</time>
      </trkpt>
      <trkpt lat="41.885745" lon="3.063594">
        <ele>121.0</ele>
        <time>2019-01-13T22:20:52Z</time>
      </trkpt>
      <trkpt lat="41.885775" lon="3.063565">
        <ele>121.0</ele>
        <time>2019-01-13T22:20:52Z</time>
      </trkpt>
      <trkpt lat="41.885804" lon="3.063537">
        <ele>121.0</ele>
        <time>2019-01-13T22:20:53Z</time>
      </trkpt>
      <trkpt lat="41.885832" lon="3.063507">
        <ele>121.0</ele>
        <time>2019-01-13T22:20:54Z</time>
      </trkpt>
      <trkpt lat="41.885859" lon="3.063478">
        <ele>121.0</ele>
        <time>2019-01-13T22:20:54Z</time>
      </trkpt>
      <trkpt lat="41.886024" lon="3.063292">
        <ele>121.0</ele>
        <time>2019-01-13T22:20:58Z</time>
      </trkpt>
      <trkpt lat="41.886088" lon="3.063241">
        <ele>122.0</ele>
        <time>2019-01-13T22:20:59Z</time>
      </trkpt>
      <trkpt lat="41.886125" lon="3.063222">
        <ele>122.0</ele>
        <time>2019-01-13T22:20:59Z</time>
      </trkpt>
      <trkpt lat="41.886162" lon="3.063209">
        <ele>122.0</ele>
        <time>2019-01-13T22:21:00Z</time>
      </trkpt>
      <trkpt lat="41.886199" lon="3.063197">
        <ele>123.0</ele>
        <time>2019-01-13T22:21:01Z</time>
      </trkpt>
      <trkpt lat="41.886238" lon="3.063192">
        <ele>123.0</ele>
        <time>2019-01-13T22:21:01Z</time>
      </trkpt>
      <trkpt lat="41.886416" lon="3.063254">
        <ele>126.0</ele>
        <time>2019-01-13T22:21:04Z</time>
      </trkpt>
      <trkpt lat="41.886474" lon="3.063313">
        <ele>126.0</ele>
        <time>2019-01-13T22:21:05Z</time>
      </trkpt>
      <trkpt lat="41.886501" lon="3.063345">
        <ele>127.0</ele>
        <time>2019-01-13T22:21:06Z</time>
      </trkpt>
      <trkpt lat="41.886527" lon="3.063381">
        <ele>127.0</ele>
        <time>2019-01-13T22:21:07Z</time>
      </trkpt>
      <trkpt lat="41.886551" lon="3.063415">
        <ele>128.0</ele>
        <time>2019-01-13T22:21:07Z</time>
      </trkpt>
      <trkpt lat="41.886574" lon="3.063450">
        <ele>129.0</ele>
        <time>2019-01-13T22:21:08Z</time>
      </trkpt>
      <trkpt lat="41.886807" lon="3.063793">
        <ele>135.0</ele>
        <time>2019-01-13T22:21:13Z</time>
      </trkpt>
      <trkpt lat="41.886859" lon="3.063863">
        <ele>136.0</ele>
        <time>2019-01-13T22:21:14Z</time>
      </trkpt>
      <trkpt lat="41.886883" lon="3.063901">
        <ele>136.0</ele>
        <time>2019-01-13T22:21:15Z</time>
      </trkpt>
      <trkpt lat="41.886909" lon="3.063940">
        <ele>137.0</ele>
        <time>2019-01-13T22:21:16Z</time>
      </trkpt>
      <trkpt lat="41.886932" lon="3.063980">
        <ele>137.0</ele>
        <time>2019-01-13T22:21:16Z</time>
      </trkpt>
      <trkpt lat="41.886961" lon="3.064019">
        <ele>138.0</ele>
        <time>2019-01-13T22:21:17Z</time>
      </trkpt>
      <trkpt lat="41.887112" lon="3.064144">
        <ele>141.0</ele>
        <time>2019-01-13T22:21:20Z</time>
      </trkpt>
      <trkpt lat="41.887144" lon="3.064144">
        <ele>141.0</ele>
        <time>2019-01-13T22:21:20Z</time>
      </trkpt>
      <trkpt lat="41.887177" lon="3.064136">
        <ele>142.0</ele>
        <time>2019-01-13T22:21:21Z</time>
      </trkpt>
      <trkpt lat="41.887211" lon="3.064121">
        <ele>142.0</ele>
        <time>2019-01-13T22:21:21Z</time>
      </trkpt>
      <trkpt lat="41.887240" lon="3.064098">
        <ele>142.0</ele>
        <time>2019-01-13T22:21:22Z</time>
      </trkpt>
      <trkpt lat="41.887269" lon="3.064073">
        <ele>143.0</ele>
        <time>2019-01-13T22:21:22Z</time>
      </trkpt>
      <trkpt lat="41.887378" lon="3.063907">
        <ele>144.0</ele>
        <time>2019-01-13T22:21:25Z</time>
      </trkpt>
      <trkpt lat="41.887400" lon="3.063874">
        <ele>144.0</ele>
        <time>2019-01-13T22:21:26Z</time>
      </trkpt>
      <trkpt lat="41.887418" lon="3.063837">
        <ele>144.0</ele>
        <time>2019-01-13T22:21:26Z</time>
      </trkpt>
      <trkpt lat="41.887439" lon="3.063804">
        <ele>145.0</ele>
        <time>2019-01-13T22:21:27Z</time>
      </trkpt>
      <trkpt lat="41.887461" lon="3.063771">
        <ele>145.0</ele>
        <time>2019-01-13T22:21:27Z</time>
      </trkpt>
      <trkpt lat="41.887484" lon="3.063735">
        <ele>145.0</ele>
        <time>2019-01-13T22:21:28Z</time>
      </trkpt>
      <trkpt lat="41.887529" lon="3.063663">
        <ele>145.0</ele>
        <time>2019-01-13T22:21:29Z</time>
      </trkpt>
      <trkpt lat="41.887613" lon="3.063513">
        <ele>146.0</ele>
        <time>2019-01-13T22:21:31Z</time>
      </trkpt>
      <trkpt lat="41.887629" lon="3.063470">
        <ele>146.0</ele>
        <time>2019-01-13T22:21:32Z</time>
      </trkpt>
      <trkpt lat="41.887644" lon="3.063425">
        <ele>145.0</ele>
        <time>2019-01-13T22:21:32Z</time>
      </trkpt>
      <trkpt lat="41.887655" lon="3.063380">
        <ele>145.0</ele>
        <time>2019-01-13T22:21:33Z</time>
      </trkpt>
      <trkpt lat="41.887659" lon="3.063331">
        <ele>145.0</ele>
        <time>2019-01-13T22:21:33Z</time>
      </trkpt>
      <trkpt lat="41.887611" lon="3.063159">
        <ele>145.0</ele>
        <time>2019-01-13T22:21:36Z</time>
      </trkpt>
      <trkpt lat="41.887545" lon="3.063045">
        <ele>144.0</ele>
        <time>2019-01-13T22:21:37Z</time>
      </trkpt>
      <trkpt lat="41.887524" lon="3.063003">
        <ele>144.0</ele>
        <time>2019-01-13T22:21:38Z</time>
      </trkpt>
      <trkpt lat="41.887510" lon="3.062956">
        <ele>144.0</ele>
        <time>2019-01-13T22:21:38Z</time>
      </trkpt>
      <trkpt lat="41.887501" lon="3.062910">
        <ele>144.0</ele>
        <time>2019-01-13T22:21:39Z</time>
      </trkpt>
      <trkpt lat="41.887500" lon="3.062864">
        <ele>144.0</ele>
        <time>2019-01-13T22:21:40Z</time>
      </trkpt>
      <trkpt lat="41.887527" lon="3.062725">
        <ele>143.0</ele>
        <time>2019-01-13T22:21:41Z</time>
      </trkpt>
      <trkpt lat="41.887560" lon="3.062586">
        <ele>142.0</ele>
        <time>2019-01-13T22:21:43Z</time>
      </trkpt>
      <trkpt lat="41.887562" lon="3.062538">
        <ele>142.0</ele>
        <time>2019-01-13T22:21:44Z</time>
      </trkpt>
      <trkpt lat="41.887560" lon="3.062491">
        <ele>142.0</ele>
        <time>2019-01-13T22:21:44Z</time>
      </trkpt>
      <trkpt lat="41.887551" lon="3.062445">
        <ele>142.0</ele>
        <time>2019-01-13T22:21:45Z</time>
      </trkpt>
      <trkpt lat="41.887494" lon="3.062272">
        <ele>140.0</ele>
        <time>2019-01-13T22:21:47Z</time>
      </trkpt>
      <trkpt lat="41.887483" lon="3.062026">
        <ele>140.0</ele>
        <time>2019-01-13T22:21:50Z</time>
      </trkpt>
      <trkpt lat="41.887501" lon="3.061980">
        <ele>140.0</ele>
        <time>2019-01-13T22:21:51Z</time>
      </trkpt>
      <trkpt lat="41.887521" lon="3.061936">
        <ele>140.0</ele>
        <time>2019-01-13T22:21:51Z</time>
      </trkpt>
      <trkpt lat="41.887543" lon="3.061900">
        <ele>140.0</ele>
        <time>2019-01-13T22:21:52Z</time>
      </trkpt>
      <trkpt lat="41.887568" lon="3.061866">
        <ele>140.0</ele>
        <time>2019-01-13T22:21:52Z</time>
      </trkpt>
      <trkpt lat="41.887597" lon="3.061841">
        <ele>140.0</ele>
        <time>2019-01-13T22:21:53Z</time>
      </trkpt>
      <trkpt lat="41.887763" lon="3.061743">
        <ele>141.0</ele>
        <time>2019-01-13T22:21:56Z</time>
      </trkpt>
      <trkpt lat="41.887797" lon="3.061739">
        <ele>142.0</ele>
        <time>2019-01-13T22:21:56Z</time>
      </trkpt>
      <trkpt lat="41.887834" lon="3.061736">
        <ele>142.0</ele>
        <time>2019-01-13T22:21:57Z</time>
      </trkpt>
      <trkpt lat="41.887870" lon="3.061741">
        <ele>143.0</ele>
        <time>2019-01-13T22:21:57Z</time>
      </trkpt>
      <trkpt lat="41.887907" lon="3.061743">
        <ele>143.0</ele>
        <time>2019-01-13T22:21:58Z</time>
      </trkpt>
      <trkpt lat="41.887945" lon="3.061750">
        <ele>143.0</ele>
        <time>2019-01-13T22:21:59Z</time>
      </trkpt>
      <trkpt lat="41.888025" lon="3.061764">
        <ele>145.0</ele>
        <time>2019-01-13T22:22:00Z</time>
      </trkpt>
      <trkpt lat="41.888146" lon="3.061795">
        <ele>147.0</ele>
        <time>2019-01-13T22:22:02Z</time>
      </trkpt>
      <trkpt lat="41.888222" lon="3.061810">
        <ele>148.0</ele>
        <time>2019-01-13T22:22:03Z</time>
      </trkpt>
      <trkpt lat="41.888260" lon="3.061823">
        <ele>149.0</ele>
        <time>2019-01-13T22:22:04Z</time>
      </trkpt>
      <trkpt lat="41.888302" lon="3.061836">
        <ele>149.0</ele>
        <time>2019-01-13T22:22:04Z</time>
      </trkpt>
      <trkpt lat="41.888343" lon="3.061844">
        <ele>150.0</ele>
        <time>2019-01-13T22:22:05Z</time>
      </trkpt>
      <trkpt lat="41.888388" lon="3.061847">
        <ele>151.0</ele>
        <time>2019-01-13T22:22:06Z</time>
      </trkpt>
      <trkpt lat="41.888477" lon="3.061836">
        <ele>152.0</ele>
        <time>2019-01-13T22:22:07Z</time>
      </trkpt>
      <trkpt lat="41.888619" lon="3.061804">
        <ele>154.0</ele>
        <time>2019-01-13T22:22:10Z</time>
      </trkpt>
      <trkpt lat="41.888763" lon="3.061762">
        <ele>156.0</ele>
        <time>2019-01-13T22:22:12Z</time>
      </trkpt>
      <trkpt lat="41.888812" lon="3.061744">
        <ele>157.0</ele>
        <time>2019-01-13T22:22:13Z</time>
      </trkpt>
      <trkpt lat="41.888860" lon="3.061723">
        <ele>157.0</ele>
        <time>2019-01-13T22:22:14Z</time>
      </trkpt>
      <trkpt lat="41.888904" lon="3.061686">
        <ele>158.0</ele>
        <time>2019-01-13T22:22:14Z</time>
      </trkpt>
      <trkpt lat="41.888937" lon="3.061631">
        <ele>158.0</ele>
        <time>2019-01-13T22:22:15Z</time>
      </trkpt>
      <trkpt lat="41.888958" lon="3.061563">
        <ele>157.0</ele>
        <time>2019-01-13T22:22:16Z</time>
      </trkpt>
      <trkpt lat="41.888923" lon="3.061343">
        <ele>155.0</ele>
        <time>2019-01-13T22:22:19Z</time>
      </trkpt>
      <trkpt lat="41.888861" lon="3.061228">
        <ele>153.0</ele>
        <time>2019-01-13T22:22:21Z</time>
      </trkpt>
      <trkpt lat="41.888795" lon="3.061104">
        <ele>152.0</ele>
        <time>2019-01-13T22:22:22Z</time>
      </trkpt>
      <trkpt lat="41.888781" lon="3.061035">
        <ele>151.0</ele>
        <time>2019-01-13T22:22:23Z</time>
      </trkpt>
      <trkpt lat="41.888828" lon="3.060838">
        <ele>151.0</ele>
        <time>2019-01-13T22:22:26Z</time>
      </trkpt>
      <trkpt lat="41.888913" lon="3.060756">
        <ele>151.0</ele>
        <time>2019-01-13T22:22:27Z</time>
      </trkpt>
      <trkpt lat="41.888964" lon="3.060726">
        <ele>152.0</ele>
        <time>2019-01-13T22:22:28Z</time>
      </trkpt>
      <trkpt lat="41.889015" lon="3.060694">
        <ele>152.0</ele>
        <time>2019-01-13T22:22:29Z</time>
      </trkpt>
      <trkpt lat="41.889067" lon="3.060666">
        <ele>152.0</ele>
        <time>2019-01-13T22:22:30Z</time>
      </trkpt>
      <trkpt lat="41.889118" lon="3.060638">
        <ele>153.0</ele>
        <time>2019-01-13T22:22:31Z</time>
      </trkpt>
      <trkpt lat="41.889308" lon="3.060521">
        <ele>155.0</ele>
        <time>2019-01-13T22:22:34Z</time>
      </trkpt>
      <trkpt lat="41.889353" lon="3.060490">
        <ele>155.0</ele>
        <time>2019-01-13T22:22:35Z</time>
      </trkpt>
      <trkpt lat="41.889399" lon="3.060467">
        <ele>156.0</ele>
        <time>2019-01-13T22:22:36Z</time>
      </trkpt>
      <trkpt lat="41.889447" lon="3.060441">
        <ele>156.0</ele>
        <time>2019-01-13T22:22:37Z</time>
      </trkpt>
      <trkpt lat="41.889495" lon="3.060433">
        <ele>156.0</ele>
        <time>2019-01-13T22:22:37Z</time>
      </trkpt>
      <trkpt lat="41.889546" lon="3.060426">
        <ele>157.0</ele>
        <time>2019-01-13T22:22:38Z</time>
      </trkpt>
      <trkpt lat="41.889646" lon="3.060418">
        <ele>158.0</ele>
        <time>2019-01-13T22:22:40Z</time>
      </trkpt>
      <trkpt lat="41.889694" lon="3.060399">
        <ele>158.0</ele>
        <time>2019-01-13T22:22:41Z</time>
      </trkpt>
      <trkpt lat="41.889738" lon="3.060358">
        <ele>158.0</ele>
        <time>2019-01-13T22:22:42Z</time>
      </trkpt>
      <trkpt lat="41.889776" lon="3.060311">
        <ele>158.0</ele>
        <time>2019-01-13T22:22:42Z</time>
      </trkpt>
      <trkpt lat="41.889810" lon="3.060256">
        <ele>158.0</ele>
        <time>2019-01-13T22:22:43Z</time>
      </trkpt>
      <trkpt lat="41.889844" lon="3.060204">
        <ele>157.0</ele>
        <time>2019-01-13T22:22:44Z</time>
      </trkpt>
      <trkpt lat="41.889935" lon="3.060038">
        <ele>156.0</ele>
        <time>2019-01-13T22:22:46Z</time>
      </trkpt>
      <trkpt lat="41.890002" lon="3.059931">
        <ele>156.0</ele>
        <time>2019-01-13T22:22:48Z</time>
      </trkpt>
      <trkpt lat="41.890090" lon="3.059859">
        <ele>155.0</ele>
        <time>2019-01-13T22:22:50Z</time>
      </trkpt>
      <trkpt lat="41.890141" lon="3.059845">
        <ele>155.0</ele>
        <time>2019-01-13T22:22:51Z</time>
      </trkpt>
      <trkpt lat="41.890192" lon="3.059849">
        <ele>156.0</ele>
        <time>2019-01-13T22:22:51Z</time>
      </trkpt>
      <trkpt lat="41.890244" lon="3.059867">
        <ele>156.0</ele>
        <time>2019-01-13T22:22:52Z</time>
      </trkpt>
      <trkpt lat="41.890291" lon="3.059893">
        <ele>157.0</ele>
        <time>2019-01-13T22:22:53Z</time>
      </trkpt>
      <trkpt lat="41.890455" lon="3.060046">
        <ele>162.0</ele>
        <time>2019-01-13T22:22:56Z</time>
      </trkpt>
      <trkpt lat="41.890492" lon="3.060090">
        <ele>163.0</ele>
        <time>2019-01-13T22:22:57Z</time>
      </trkpt>
      <trkpt lat="41.890526" lon="3.060134">
        <ele>165.0</ele>
        <time>2019-01-13T22:22:58Z</time>
      </trkpt>
      <trkpt lat="41.890559" lon="3.060183">
        <ele>166.0</ele>
        <time>2019-01-13T22:22:59Z</time>
      </trkpt>
      <trkpt lat="41.890587" lon="3.060237">
        <ele>168.0</ele>
        <time>2019-01-13T22:22:59Z</time>
      </trkpt>
      <trkpt lat="41.890635" lon="3.060361">
        <ele>171.0</ele>
        <time>2019-01-13T22:23:01Z</time>
      </trkpt>
      <trkpt lat="41.890737" lon="3.060501">
        <ele>175.0</ele>
        <time>2019-01-13T22:23:03Z</time>
      </trkpt>
      <trkpt lat="41.890785" lon="3.060510">
        <ele>176.0</ele>
        <time>2019-01-13T22:23:04Z</time>
      </trkpt>
      <trkpt lat="41.890836" lon="3.060497">
        <ele>176.0</ele>
        <time>2019-01-13T22:23:05Z</time>
      </trkpt>
      <trkpt lat="41.890887" lon="3.060467">
        <ele>177.0</ele>
        <time>2019-01-13T22:23:06Z</time>
      </trkpt>
      <trkpt lat="41.890927" lon="3.060418">
        <ele>177.0</ele>
        <time>2019-01-13T22:23:07Z</time>
      </trkpt>
      <trkpt lat="41.890980" lon="3.060231">
        <ele>174.0</ele>
        <time>2019-01-13T22:23:09Z</time>
      </trkpt>
      <trkpt lat="41.890979" lon="3.060168">
        <ele>173.0</ele>
        <time>2019-01-13T22:23:10Z</time>
      </trkpt>
      <trkpt lat="41.890966" lon="3.060096">
        <ele>171.0</ele>
        <time>2019-01-13T22:23:11Z</time>
      </trkpt>
      <trkpt lat="41.890959" lon="3.060026">
        <ele>170.0</ele>
        <time>2019-01-13T22:23:12Z</time>
      </trkpt>
      <trkpt lat="41.890944" lon="3.059955">
        <ele>168.0</ele>
        <time>2019-01-13T22:23:13Z</time>
      </trkpt>
      <trkpt lat="41.890931" lon="3.059815">
        <ele>166.0</ele>
        <time>2019-01-13T22:23:14Z</time>
      </trkpt>
      <trkpt lat="41.890955" lon="3.059673">
        <ele>164.0</ele>
        <time>2019-01-13T22:23:16Z</time>
      </trkpt>
      <trkpt lat="41.891057" lon="3.059521">
        <ele>162.0</ele>
        <time>2019-01-13T22:23:18Z</time>
      </trkpt>
      <trkpt lat="41.891241" lon="3.059427">
        <ele>161.0</ele>
        <time>2019-01-13T22:23:22Z</time>
      </trkpt>
      <trkpt lat="41.891289" lon="3.059413">
        <ele>161.0</ele>
        <time>2019-01-13T22:23:22Z</time>
      </trkpt>
      <trkpt lat="41.891335" lon="3.059397">
        <ele>161.0</ele>
        <time>2019-01-13T22:23:23Z</time>
      </trkpt>
      <trkpt lat="41.891388" lon="3.059383">
        <ele>161.0</ele>
        <time>2019-01-13T22:23:24Z</time>
      </trkpt>
      <trkpt lat="41.891442" lon="3.059376">
        <ele>162.0</ele>
        <time>2019-01-13T22:23:25Z</time>
      </trkpt>
      <trkpt lat="41.891548" lon="3.059390">
        <ele>164.0</ele>
        <time>2019-01-13T22:23:27Z</time>
      </trkpt>
      <trkpt lat="41.891647" lon="3.059445">
        <ele>166.0</ele>
        <time>2019-01-13T22:23:28Z</time>
      </trkpt>
      <trkpt lat="41.891692" lon="3.059487">
        <ele>167.0</ele>
        <time>2019-01-13T22:23:29Z</time>
      </trkpt>
      <trkpt lat="41.891735" lon="3.059533">
        <ele>169.0</ele>
        <time>2019-01-13T22:23:30Z</time>
      </trkpt>
      <trkpt lat="41.891772" lon="3.059582">
        <ele>170.0</ele>
        <time>2019-01-13T22:23:31Z</time>
      </trkpt>
      <trkpt lat="41.891805" lon="3.059631">
        <ele>171.0</ele>
        <time>2019-01-13T22:23:32Z</time>
      </trkpt>
      <trkpt lat="41.891846" lon="3.059686">
        <ele>172.0</ele>
        <time>2019-01-13T22:23:33Z</time>
      </trkpt>
      <trkpt lat="41.891883" lon="3.059736">
        <ele>173.0</ele>
        <time>2019-01-13T22:23:33Z</time>
      </trkpt>
      <trkpt lat="41.891924" lon="3.059789">
        <ele>173.0</ele>
        <time>2019-01-13T22:23:34Z</time>
      </trkpt>
      <trkpt lat="41.891964" lon="3.059841">
        <ele>175.0</ele>
        <time>2019-01-13T22:23:35Z</time>
      </trkpt>
      <trkpt lat="41.892003" lon="3.059893">
        <ele>177.0</ele>
        <time>2019-01-13T22:23:36Z</time>
      </trkpt>
      <trkpt lat="41.892042" lon="3.059940">
        <ele>178.0</ele>
        <time>2019-01-13T22:23:37Z</time>
      </trkpt>
      <trkpt lat="41.892084" lon="3.059993">
        <ele>180.0</ele>
        <time>2019-01-13T22:23:38Z</time>
      </trkpt>
      <trkpt lat="41.892222" lon="3.060122">
        <ele>183.0</ele>
        <time>2019-01-13T22:23:41Z</time>
      </trkpt>
      <trkpt lat="41.892390" lon="3.060121">
        <ele>184.0</ele>
        <time>2019-01-13T22:23:43Z</time>
      </trkpt>
      <trkpt lat="41.892443" lon="3.060095">
        <ele>185.0</ele>
        <time>2019-01-13T22:23:44Z</time>
      </trkpt>
      <trkpt lat="41.892485" lon="3.060046">
        <ele>185.0</ele>
        <time>2019-01-13T22:23:45Z</time>
      </trkpt>
      <trkpt lat="41.892505" lon="3.059979">
        <ele>184.0</ele>
        <time>2019-01-13T22:23:46Z</time>
      </trkpt>
      <trkpt lat="41.892511" lon="3.059903">
        <ele>183.0</ele>
        <time>2019-01-13T22:23:47Z</time>
      </trkpt>
      <trkpt lat="41.892503" lon="3.059830">
        <ele>182.0</ele>
        <time>2019-01-13T22:23:48Z</time>
      </trkpt>
      <trkpt lat="41.892485" lon="3.059763">
        <ele>181.0</ele>
        <time>2019-01-13T22:23:48Z</time>
      </trkpt>
      <trkpt lat="41.892446" lon="3.059623">
        <ele>178.0</ele>
        <time>2019-01-13T22:23:50Z</time>
      </trkpt>
      <trkpt lat="41.892424" lon="3.059469">
        <ele>176.0</ele>
        <time>2019-01-13T22:23:52Z</time>
      </trkpt>
      <trkpt lat="41.892432" lon="3.059392">
        <ele>175.0</ele>
        <time>2019-01-13T22:23:53Z</time>
      </trkpt>
      <trkpt lat="41.892450" lon="3.059319">
        <ele>174.0</ele>
        <time>2019-01-13T22:23:54Z</time>
      </trkpt>
      <trkpt lat="41.892474" lon="3.059251">
        <ele>173.0</ele>
        <time>2019-01-13T22:23:55Z</time>
      </trkpt>
      <trkpt lat="41.892507" lon="3.059189">
        <ele>173.0</ele>
        <time>2019-01-13T22:23:56Z</time>
      </trkpt>
      <trkpt lat="41.892546" lon="3.059134">
        <ele>173.0</ele>
        <time>2019-01-13T22:23:57Z</time>
      </trkpt>
      <trkpt lat="41.892591" lon="3.059091">
        <ele>173.0</ele>
        <time>2019-01-13T22:23:58Z</time>
      </trkpt>
      <trkpt lat="41.892751" lon="3.059026">
        <ele>175.0</ele>
        <time>2019-01-13T22:24:00Z</time>
      </trkpt>
      <trkpt lat="41.892859" lon="3.059013">
        <ele>176.0</ele>
        <time>2019-01-13T22:24:02Z</time>
      </trkpt>
      <trkpt lat="41.892910" lon="3.059005">
        <ele>177.0</ele>
        <time>2019-01-13T22:24:03Z</time>
      </trkpt>
      <trkpt lat="41.892959" lon="3.058996">
        <ele>177.0</ele>
        <time>2019-01-13T22:24:04Z</time>
      </trkpt>
      <trkpt lat="41.893010" lon="3.058985">
        <ele>177.0</ele>
        <time>2019-01-13T22:24:04Z</time>
      </trkpt>
      <trkpt lat="41.893056" lon="3.058970">
        <ele>178.0</ele>
        <time>2019-01-13T22:24:05Z</time>
      </trkpt>
      <trkpt lat="41.893098" lon="3.058951">
        <ele>178.0</ele>
        <time>2019-01-13T22:24:06Z</time>
      </trkpt>
      <trkpt lat="41.893138" lon="3.058923">
        <ele>177.0</ele>
        <time>2019-01-13T22:24:07Z</time>
      </trkpt>
      <trkpt lat="41.893178" lon="3.058897">
        <ele>177.0</ele>
        <time>2019-01-13T22:24:07Z</time>
      </trkpt>
      <trkpt lat="41.893216" lon="3.058870">
        <ele>177.0</ele>
        <time>2019-01-13T22:24:08Z</time>
      </trkpt>
      <trkpt lat="41.893258" lon="3.058842">
        <ele>177.0</ele>
        <time>2019-01-13T22:24:09Z</time>
      </trkpt>
      <trkpt lat="41.893464" lon="3.058733">
        <ele>177.0</ele>
        <time>2019-01-13T22:24:12Z</time>
      </trkpt>
      <trkpt lat="41.893553" lon="3.058739">
        <ele>178.0</ele>
        <time>2019-01-13T22:24:14Z</time>
      </trkpt>
      <trkpt lat="41.893702" lon="3.058848">
        <ele>182.0</ele>
        <time>2019-01-13T22:24:16Z</time>
      </trkpt>
      <trkpt lat="41.893729" lon="3.058887">
        <ele>183.0</ele>
        <time>2019-01-13T22:24:17Z</time>
      </trkpt>
      <trkpt lat="41.893758" lon="3.058929">
        <ele>184.0</ele>
        <time>2019-01-13T22:24:18Z</time>
      </trkpt>
      <trkpt lat="41.893787" lon="3.058966">
        <ele>184.0</ele>
        <time>2019-01-13T22:24:18Z</time>
      </trkpt>
      <trkpt lat="41.893818" lon="3.059005">
        <ele>185.0</ele>
        <time>2019-01-13T22:24:19Z</time>
      </trkpt>
      <trkpt lat="41.893845" lon="3.059049">
        <ele>186.0</ele>
        <time>2019-01-13T22:24:20Z</time>
      </trkpt>
      <trkpt lat="41.893905" lon="3.059131">
        <ele>188.0</ele>
        <time>2019-01-13T22:24:21Z</time>
      </trkpt>
      <trkpt lat="41.894061" lon="3.059307">
        <ele>194.0</ele>
        <time>2019-01-13T22:24:24Z</time>
      </trkpt>
      <trkpt lat="41.894100" lon="3.059328">
        <ele>195.0</ele>
        <time>2019-01-13T22:24:25Z</time>
      </trkpt>
      <trkpt lat="41.894140" lon="3.059339">
        <ele>196.0</ele>
        <time>2019-01-13T22:24:26Z</time>
      </trkpt>
      <trkpt lat="41.894183" lon="3.059338">
        <ele>198.0</ele>
        <time>2019-01-13T22:24:26Z</time>
      </trkpt>
      <trkpt lat="41.894223" lon="3.059330">
        <ele>199.0</ele>
        <time>2019-01-13T22:24:27Z</time>
      </trkpt>
      <trkpt lat="41.894259" lon="3.059313">
        <ele>200.0</ele>
        <time>2019-01-13T22:24:28Z</time>
      </trkpt>
      <trkpt lat="41.894298" lon="3.059287">
        <ele>200.0</ele>
        <time>2019-01-13T22:24:28Z</time>
      </trkpt>
      <trkpt lat="41.894379" lon="3.059101">
        <ele>201.0</ele>
        <time>2019-01-13T22:24:31Z</time>
      </trkpt>
      <trkpt lat="41.894386" lon="3.058829">
        <ele>199.0</ele>
        <time>2019-01-13T22:24:34Z</time>
      </trkpt>
      <trkpt lat="41.894379" lon="3.058723">
        <ele>198.0</ele>
        <time>2019-01-13T22:24:35Z</time>
      </trkpt>
      <trkpt lat="41.894381" lon="3.058670">
        <ele>197.0</ele>
        <time>2019-01-13T22:24:36Z</time>
      </trkpt>
      <trkpt lat="41.894377" lon="3.058616">
        <ele>196.0</ele>
        <time>2019-01-13T22:24:37Z</time>
      </trkpt>
      <trkpt lat="41.894375" lon="3.058563">
        <ele>195.0</ele>
        <time>2019-01-13T22:24:37Z</time>
      </trkpt>
      <trkpt lat="41.894374" lon="3.058455">
        <ele>193.0</ele>
        <time>2019-01-13T22:24:39Z</time>
      </trkpt>
      <trkpt lat="41.894379" lon="3.058093">
        <ele>188.0</ele>
        <time>2019-01-13T22:24:43Z</time>
      </trkpt>
      <trkpt lat="41.894391" lon="3.058046">
        <ele>188.0</ele>
        <time>2019-01-13T22:24:44Z</time>
      </trkpt>
      <trkpt lat="41.894449" lon="3.057921">
        <ele>187.0</ele>
        <time>2019-01-13T22:24:45Z</time>
      </trkpt>
      <trkpt lat="41.894476" lon="3.057892">
        <ele>187.0</ele>
        <time>2019-01-13T22:24:46Z</time>
      </trkpt>
      <trkpt lat="41.894508" lon="3.057868">
        <ele>187.0</ele>
        <time>2019-01-13T22:24:46Z</time>
      </trkpt>
      <trkpt lat="41.894538" lon="3.057840">
        <ele>187.0</ele>
        <time>2019-01-13T22:24:47Z</time>
      </trkpt>
      <trkpt lat="41.894567" lon="3.057819">
        <ele>187.0</ele>
        <time>2019-01-13T22:24:48Z</time>
      </trkpt>
      <trkpt lat="41.894673" lon="3.057745">
        <ele>188.0</ele>
        <time>2019-01-13T22:24:49Z</time>
      </trkpt>
      <trkpt lat="41.894745" lon="3.057695">
        <ele>188.0</ele>
        <time>2019-01-13T22:24:51Z</time>
      </trkpt>
      <trkpt lat="41.894778" lon="3.057670">
        <ele>189.0</ele>
        <time>2019-01-13T22:24:51Z</time>
      </trkpt>
      <trkpt lat="41.894816" lon="3.057646">
        <ele>189.0</ele>
        <time>2019-01-13T22:24:52Z</time>
      </trkpt>
      <trkpt lat="41.894852" lon="3.057622">
        <ele>190.0</ele>
        <time>2019-01-13T22:24:53Z</time>
      </trkpt>
      <trkpt lat="41.894886" lon="3.057599">
        <ele>190.0</ele>
        <time>2019-01-13T22:24:53Z</time>
      </trkpt>
      <trkpt lat="41.894963" lon="3.057551">
        <ele>191.0</ele>
        <time>2019-01-13T22:24:55Z</time>
      </trkpt>
      <trkpt lat="41.895160" lon="3.057456">
        <ele>195.0</ele>
        <time>2019-01-13T22:24:58Z</time>
      </trkpt>
      <trkpt lat="41.895198" lon="3.057451">
        <ele>196.0</ele>
        <time>2019-01-13T22:24:59Z</time>
      </trkpt>
      <trkpt lat="41.895232" lon="3.057456">
        <ele>196.0</ele>
        <time>2019-01-13T22:24:59Z</time>
      </trkpt>
      <trkpt lat="41.895270" lon="3.057470">
        <ele>197.0</ele>
        <time>2019-01-13T22:25:00Z</time>
      </trkpt>
      <trkpt lat="41.895305" lon="3.057490">
        <ele>198.0</ele>
        <time>2019-01-13T22:25:00Z</time>
      </trkpt>
      <trkpt lat="41.895344" lon="3.057499">
        <ele>198.0</ele>
        <time>2019-01-13T22:25:01Z</time>
      </trkpt>
      <trkpt lat="41.895499" lon="3.057499">
        <ele>200.0</ele>
        <time>2019-01-13T22:25:04Z</time>
      </trkpt>
      <trkpt lat="41.895533" lon="3.057469">
        <ele>200.0</ele>
        <time>2019-01-13T22:25:04Z</time>
      </trkpt>
      <trkpt lat="41.895559" lon="3.057431">
        <ele>200.0</ele>
        <time>2019-01-13T22:25:05Z</time>
      </trkpt>
      <trkpt lat="41.895582" lon="3.057389">
        <ele>200.0</ele>
        <time>2019-01-13T22:25:05Z</time>
      </trkpt>
      <trkpt lat="41.895601" lon="3.057344">
        <ele>199.0</ele>
        <time>2019-01-13T22:25:06Z</time>
      </trkpt>
      <trkpt lat="41.895633" lon="3.057248">
        <ele>199.0</ele>
        <time>2019-01-13T22:25:07Z</time>
      </trkpt>
      <trkpt lat="41.895675" lon="3.057157">
        <ele>198.0</ele>
        <time>2019-01-13T22:25:09Z</time>
      </trkpt>
      <trkpt lat="41.895800" lon="3.057047">
        <ele>196.0</ele>
        <time>2019-01-13T22:25:11Z</time>
      </trkpt>
      <trkpt lat="41.895831" lon="3.057020">
        <ele>196.0</ele>
        <time>2019-01-13T22:25:12Z</time>
      </trkpt>
      <trkpt lat="41.895867" lon="3.056993">
        <ele>196.0</ele>
        <time>2019-01-13T22:25:12Z</time>
      </trkpt>
      <trkpt lat="41.895905" lon="3.056977">
        <ele>196.0</ele>
        <time>2019-01-13T22:25:13Z</time>
      </trkpt>
      <trkpt lat="41.895943" lon="3.056956">
        <ele>196.0</ele>
        <time>2019-01-13T22:25:13Z</time>
      </trkpt>
      <trkpt lat="41.896013" lon="3.056917">
        <ele>196.0</ele>
        <time>2019-01-13T22:25:15Z</time>
      </trkpt>
      <trkpt lat="41.896184" lon="3.056815">
        <ele>197.0</ele>
        <time>2019-01-13T22:25:18Z</time>
      </trkpt>
      <trkpt lat="41.896218" lon="3.056795">
        <ele>197.0</ele>
        <time>2019-01-13T22:25:18Z</time>
      </trkpt>
      <trkpt lat="41.896251" lon="3.056773">
        <ele>198.0</ele>
        <time>2019-01-13T22:25:19Z</time>
      </trkpt>
      <trkpt lat="41.896283" lon="3.056751">
        <ele>198.0</ele>
        <time>2019-01-13T22:25:19Z</time>
      </trkpt>
      <trkpt lat="41.896319" lon="3.056733">
        <ele>198.0</ele>
        <time>2019-01-13T22:25:20Z</time>
      </trkpt>
      <trkpt lat="41.896452" lon="3.056650">
        <ele>199.0</ele>
        <time>2019-01-13T22:25:22Z</time>
      </trkpt>
      <trkpt lat="41.896486" lon="3.056632">
        <ele>199.0</ele>
        <time>2019-01-13T22:25:23Z</time>
      </trkpt>
      <trkpt lat="41.896518" lon="3.056614">
        <ele>199.0</ele>
        <time>2019-01-13T22:25:24Z</time>
      </trkpt>
      <trkpt lat="41.896551" lon="3.056598">
        <ele>199.0</ele>
        <time>2019-01-13T22:25:24Z</time>
      </trkpt>
      <trkpt lat="41.896584" lon="3.056579">
        <ele>199.0</ele>
        <time>2019-01-13T22:25:25Z</time>
      </trkpt>
      <trkpt lat="41.896691" lon="3.056520">
        <ele>199.0</ele>
        <time>2019-01-13T22:25:27Z</time>
      </trkpt>
      <trkpt lat="41.896947" lon="3.056413">
        <ele>201.0</ele>
        <time>2019-01-13T22:25:31Z</time>
      </trkpt>
      <trkpt lat="41.896983" lon="3.056421">
        <ele>201.0</ele>
        <time>2019-01-13T22:25:31Z</time>
      </trkpt>
      <trkpt lat="41.897017" lon="3.056437">
        <ele>201.0</ele>
        <time>2019-01-13T22:25:32Z</time>
      </trkpt>
      <trkpt lat="41.897049" lon="3.056467">
        <ele>202.0</ele>
        <time>2019-01-13T22:25:33Z</time>
      </trkpt>
      <trkpt lat="41.897070" lon="3.056504">
        <ele>202.0</ele>
        <time>2019-01-13T22:25:33Z</time>
      </trkpt>
      <trkpt lat="41.897086" lon="3.056544">
        <ele>203.0</ele>
        <time>2019-01-13T22:25:34Z</time>
      </trkpt>
      <trkpt lat="41.897102" lon="3.056696">
        <ele>205.0</ele>
        <time>2019-01-13T22:25:36Z</time>
      </trkpt>
      <trkpt lat="41.897095" lon="3.056746">
        <ele>206.0</ele>
        <time>2019-01-13T22:25:36Z</time>
      </trkpt>
      <trkpt lat="41.897072" lon="3.056956">
        <ele>208.0</ele>
        <time>2019-01-13T22:25:39Z</time>
      </trkpt>
      <trkpt lat="41.897065" lon="3.057012">
        <ele>208.0</ele>
        <time>2019-01-13T22:25:39Z</time>
      </trkpt>
      <trkpt lat="41.897059" lon="3.057069">
        <ele>209.0</ele>
        <time>2019-01-13T22:25:40Z</time>
      </trkpt>
      <trkpt lat="41.897056" lon="3.057121">
        <ele>209.0</ele>
        <time>2019-01-13T22:25:41Z</time>
      </trkpt>
      <trkpt lat="41.897051" lon="3.057177">
        <ele>210.0</ele>
        <time>2019-01-13T22:25:41Z</time>
      </trkpt>
      <trkpt lat="41.897061" lon="3.057580">
        <ele>214.0</ele>
        <time>2019-01-13T22:25:46Z</time>
      </trkpt>
      <trkpt lat="41.897068" lon="3.057636">
        <ele>214.0</ele>
        <time>2019-01-13T22:25:47Z</time>
      </trkpt>
      <trkpt lat="41.897075" lon="3.057696">
        <ele>215.0</ele>
        <time>2019-01-13T22:25:48Z</time>
      </trkpt>
      <trkpt lat="41.897082" lon="3.057757">
        <ele>216.0</ele>
        <time>2019-01-13T22:25:48Z</time>
      </trkpt>
      <trkpt lat="41.897089" lon="3.057816">
        <ele>216.0</ele>
        <time>2019-01-13T22:25:49Z</time>
      </trkpt>
      <trkpt lat="41.897097" lon="3.057876">
        <ele>217.0</ele>
        <time>2019-01-13T22:25:50Z</time>
      </trkpt>
      <trkpt lat="41.897109" lon="3.057939">
        <ele>217.0</ele>
        <time>2019-01-13T22:25:50Z</time>
      </trkpt>
      <trkpt lat="41.897151" lon="3.058115">
        <ele>218.0</ele>
        <time>2019-01-13T22:25:53Z</time>
      </trkpt>
      <trkpt lat="41.897172" lon="3.058172">
        <ele>218.0</ele>
        <time>2019-01-13T22:25:53Z</time>
      </trkpt>
      <trkpt lat="41.897250" lon="3.058416">
        <ele>219.0</ele>
        <time>2019-01-13T22:25:57Z</time>
      </trkpt>
      <trkpt lat="41.897272" lon="3.058474">
        <ele>219.0</ele>
        <time>2019-01-13T22:25:57Z</time>
      </trkpt>
      <trkpt lat="41.897297" lon="3.058533">
        <ele>219.0</ele>
        <time>2019-01-13T22:25:58Z</time>
      </trkpt>
      <trkpt lat="41.897328" lon="3.058588">
        <ele>220.0</ele>
        <time>2019-01-13T22:25:59Z</time>
      </trkpt>
      <trkpt lat="41.897369" lon="3.058628">
        <ele>220.0</ele>
        <time>2019-01-13T22:26:00Z</time>
      </trkpt>
      <trkpt lat="41.897457" lon="3.058661">
        <ele>220.0</ele>
        <time>2019-01-13T22:26:01Z</time>
      </trkpt>
      <trkpt lat="41.897582" lon="3.058590">
        <ele>221.0</ele>
        <time>2019-01-13T22:26:03Z</time>
        <cmt>COLL DE LA GANGA</cmt>
        <sym>C:\Users\Runseru\Desktop\gps\CompeGPS\CompeGPS Land 711\App\CompeGPS\symbols\DEFAULT.ZIP\WAYPOINT.bmp</sym>
      </trkpt>
      <trkpt lat="41.897652" lon="3.058351">
        <ele>222.0</ele>
        <time>2019-01-13T22:26:07Z</time>
      </trkpt>
      <trkpt lat="41.897655" lon="3.058279">
        <ele>222.0</ele>
        <time>2019-01-13T22:26:07Z</time>
      </trkpt>
      <trkpt lat="41.897671" lon="3.058070">
        <ele>222.0</ele>
        <time>2019-01-13T22:26:10Z</time>
      </trkpt>
      <trkpt lat="41.897674" lon="3.057934">
        <ele>222.0</ele>
        <time>2019-01-13T22:26:11Z</time>
      </trkpt>
      <trkpt lat="41.897694" lon="3.057678">
        <ele>222.0</ele>
        <time>2019-01-13T22:26:15Z</time>
      </trkpt>
      <trkpt lat="41.897701" lon="3.057550">
        <ele>222.0</ele>
        <time>2019-01-13T22:26:16Z</time>
      </trkpt>
      <trkpt lat="41.897711" lon="3.057414">
        <ele>221.0</ele>
        <time>2019-01-13T22:26:18Z</time>
      </trkpt>
      <trkpt lat="41.897724" lon="3.057277">
        <ele>221.0</ele>
        <time>2019-01-13T22:26:19Z</time>
      </trkpt>
      <trkpt lat="41.897734" lon="3.057138">
        <ele>220.0</ele>
        <time>2019-01-13T22:26:21Z</time>
      </trkpt>
      <trkpt lat="41.897749" lon="3.056863">
        <ele>220.0</ele>
        <time>2019-01-13T22:26:24Z</time>
      </trkpt>
      <trkpt lat="41.897758" lon="3.056646">
        <ele>219.0</ele>
        <time>2019-01-13T22:26:27Z</time>
      </trkpt>
      <trkpt lat="41.897807" lon="3.056290">
        <ele>218.0</ele>
        <time>2019-01-13T22:26:31Z</time>
      </trkpt>
      <trkpt lat="41.897855" lon="3.056155">
        <ele>218.0</ele>
        <time>2019-01-13T22:26:33Z</time>
      </trkpt>
      <trkpt lat="41.897932" lon="3.055885">
        <ele>218.0</ele>
        <time>2019-01-13T22:26:36Z</time>
      </trkpt>
      <trkpt lat="41.897928" lon="3.055811">
        <ele>218.0</ele>
        <time>2019-01-13T22:26:37Z</time>
      </trkpt>
      <trkpt lat="41.897846" lon="3.055608">
        <ele>218.0</ele>
        <time>2019-01-13T22:26:40Z</time>
      </trkpt>
      <trkpt lat="41.897767" lon="3.055255">
        <ele>218.0</ele>
        <time>2019-01-13T22:26:44Z</time>
      </trkpt>
      <trkpt lat="41.897781" lon="3.055109">
        <ele>219.0</ele>
        <time>2019-01-13T22:26:46Z</time>
      </trkpt>
      <trkpt lat="41.897826" lon="3.054904">
        <ele>223.0</ele>
        <time>2019-01-13T22:26:49Z</time>
      </trkpt>
      <trkpt lat="41.897851" lon="3.054837">
        <ele>224.0</ele>
        <time>2019-01-13T22:26:50Z</time>
      </trkpt>
      <trkpt lat="41.897941" lon="3.054670">
        <ele>226.0</ele>
        <time>2019-01-13T22:26:52Z</time>
      </trkpt>
      <trkpt lat="41.898056" lon="3.054565">
        <ele>226.0</ele>
        <time>2019-01-13T22:26:54Z</time>
      </trkpt>
      <trkpt lat="41.898092" lon="3.054531">
        <ele>226.0</ele>
        <time>2019-01-13T22:26:55Z</time>
      </trkpt>
      <trkpt lat="41.898131" lon="3.054501">
        <ele>226.0</ele>
        <time>2019-01-13T22:26:56Z</time>
      </trkpt>
      <trkpt lat="41.898166" lon="3.054468">
        <ele>225.0</ele>
        <time>2019-01-13T22:26:56Z</time>
      </trkpt>
      <trkpt lat="41.898205" lon="3.054437">
        <ele>225.0</ele>
        <time>2019-01-13T22:26:57Z</time>
      </trkpt>
      <trkpt lat="41.898244" lon="3.054410">
        <ele>225.0</ele>
        <time>2019-01-13T22:26:58Z</time>
      </trkpt>
      <trkpt lat="41.898363" lon="3.054323">
        <ele>224.0</ele>
        <time>2019-01-13T22:27:00Z</time>
      </trkpt>
      <trkpt lat="41.898443" lon="3.054255">
        <ele>224.0</ele>
        <time>2019-01-13T22:27:02Z</time>
      </trkpt>
      <trkpt lat="41.898538" lon="3.054179">
        <ele>223.0</ele>
        <time>2019-01-13T22:27:03Z</time>
      </trkpt>
      <trkpt lat="41.898642" lon="3.054093">
        <ele>222.0</ele>
        <time>2019-01-13T22:27:05Z</time>
      </trkpt>
      <trkpt lat="41.898704" lon="3.054048">
        <ele>222.0</ele>
        <time>2019-01-13T22:27:06Z</time>
      </trkpt>
      <trkpt lat="41.898763" lon="3.053996">
        <ele>221.0</ele>
        <time>2019-01-13T22:27:08Z</time>
      </trkpt>
      <trkpt lat="41.898820" lon="3.053936">
        <ele>220.0</ele>
        <time>2019-01-13T22:27:09Z</time>
      </trkpt>
      <trkpt lat="41.898867" lon="3.053852">
        <ele>219.0</ele>
        <time>2019-01-13T22:27:10Z</time>
      </trkpt>
      <trkpt lat="41.898912" lon="3.053763">
        <ele>219.0</ele>
        <time>2019-01-13T22:27:11Z</time>
      </trkpt>
      <trkpt lat="41.898946" lon="3.053667">
        <ele>218.0</ele>
        <time>2019-01-13T22:27:13Z</time>
      </trkpt>
      <trkpt lat="41.898982" lon="3.053563">
        <ele>217.0</ele>
        <time>2019-01-13T22:27:14Z</time>
      </trkpt>
      <trkpt lat="41.899018" lon="3.053463">
        <ele>216.0</ele>
        <time>2019-01-13T22:27:15Z</time>
      </trkpt>
      <trkpt lat="41.899061" lon="3.053377">
        <ele>216.0</ele>
        <time>2019-01-13T22:27:16Z</time>
      </trkpt>
      <trkpt lat="41.899108" lon="3.053299">
        <ele>216.0</ele>
        <time>2019-01-13T22:27:18Z</time>
      </trkpt>
      <trkpt lat="41.899149" lon="3.053219">
        <ele>215.0</ele>
        <time>2019-01-13T22:27:19Z</time>
      </trkpt>
      <trkpt lat="41.899186" lon="3.053136">
        <ele>215.0</ele>
        <time>2019-01-13T22:27:20Z</time>
      </trkpt>
      <trkpt lat="41.899201" lon="3.053044">
        <ele>214.0</ele>
        <time>2019-01-13T22:27:21Z</time>
      </trkpt>
      <trkpt lat="41.899186" lon="3.052862">
        <ele>213.0</ele>
        <time>2019-01-13T22:27:23Z</time>
      </trkpt>
      <trkpt lat="41.899185" lon="3.052771">
        <ele>213.0</ele>
        <time>2019-01-13T22:27:24Z</time>
      </trkpt>
      <trkpt lat="41.899202" lon="3.052684">
        <ele>212.0</ele>
        <time>2019-01-13T22:27:25Z</time>
      </trkpt>
      <trkpt lat="41.899248" lon="3.052604">
        <ele>212.0</ele>
        <time>2019-01-13T22:27:27Z</time>
      </trkpt>
      <trkpt lat="41.899308" lon="3.052542">
        <ele>212.0</ele>
        <time>2019-01-13T22:27:28Z</time>
      </trkpt>
      <trkpt lat="41.899357" lon="3.052467">
        <ele>211.0</ele>
        <time>2019-01-13T22:27:29Z</time>
      </trkpt>
      <trkpt lat="41.899409" lon="3.052388">
        <ele>211.0</ele>
        <time>2019-01-13T22:27:30Z</time>
      </trkpt>
      <trkpt lat="41.899454" lon="3.052302">
        <ele>210.0</ele>
        <time>2019-01-13T22:27:32Z</time>
      </trkpt>
      <trkpt lat="41.899500" lon="3.052221">
        <ele>210.0</ele>
        <time>2019-01-13T22:27:33Z</time>
      </trkpt>
      <trkpt lat="41.899565" lon="3.052155">
        <ele>209.0</ele>
        <time>2019-01-13T22:27:34Z</time>
      </trkpt>
      <trkpt lat="41.899633" lon="3.052118">
        <ele>209.0</ele>
        <time>2019-01-13T22:27:35Z</time>
      </trkpt>
      <trkpt lat="41.899713" lon="3.052111">
        <ele>208.0</ele>
        <time>2019-01-13T22:27:36Z</time>
      </trkpt>
      <trkpt lat="41.899803" lon="3.052102">
        <ele>208.0</ele>
        <time>2019-01-13T22:27:38Z</time>
      </trkpt>
      <trkpt lat="41.899884" lon="3.052068">
        <ele>207.0</ele>
        <time>2019-01-13T22:27:39Z</time>
      </trkpt>
      <trkpt lat="41.899967" lon="3.052030">
        <ele>207.0</ele>
        <time>2019-01-13T22:27:41Z</time>
      </trkpt>
      <trkpt lat="41.900043" lon="3.051981">
        <ele>206.0</ele>
        <time>2019-01-13T22:27:42Z</time>
      </trkpt>
      <trkpt lat="41.900113" lon="3.051911">
        <ele>206.0</ele>
        <time>2019-01-13T22:27:43Z</time>
      </trkpt>
      <trkpt lat="41.900180" lon="3.051838">
        <ele>205.0</ele>
        <time>2019-01-13T22:27:45Z</time>
      </trkpt>
      <trkpt lat="41.900237" lon="3.051750">
        <ele>205.0</ele>
        <time>2019-01-13T22:27:46Z</time>
      </trkpt>
      <trkpt lat="41.900285" lon="3.051655">
        <ele>204.0</ele>
        <time>2019-01-13T22:27:48Z</time>
      </trkpt>
      <trkpt lat="41.900332" lon="3.051553">
        <ele>204.0</ele>
        <time>2019-01-13T22:27:49Z</time>
      </trkpt>
      <trkpt lat="41.900364" lon="3.051449">
        <ele>203.0</ele>
        <time>2019-01-13T22:27:50Z</time>
      </trkpt>
      <trkpt lat="41.900374" lon="3.051248">
        <ele>202.0</ele>
        <time>2019-01-13T22:27:53Z</time>
      </trkpt>
      <trkpt lat="41.900264" lon="3.050977">
        <ele>200.0</ele>
        <time>2019-01-13T22:27:56Z</time>
      </trkpt>
      <trkpt lat="41.900233" lon="3.050878">
        <ele>199.0</ele>
        <time>2019-01-13T22:27:58Z</time>
      </trkpt>
      <trkpt lat="41.900219" lon="3.050771">
        <ele>199.0</ele>
        <time>2019-01-13T22:27:59Z</time>
      </trkpt>
      <trkpt lat="41.900233" lon="3.050673">
        <ele>198.0</ele>
        <time>2019-01-13T22:28:00Z</time>
      </trkpt>
      <trkpt lat="41.900275" lon="3.050584">
        <ele>197.0</ele>
        <time>2019-01-13T22:28:01Z</time>
      </trkpt>
      <trkpt lat="41.900338" lon="3.050529">
        <ele>197.0</ele>
        <time>2019-01-13T22:28:03Z</time>
      </trkpt>
      <trkpt lat="41.900485" lon="3.050500">
        <ele>196.0</ele>
        <time>2019-01-13T22:28:05Z</time>
      </trkpt>
      <trkpt lat="41.900663" lon="3.050485">
        <ele>196.0</ele>
        <time>2019-01-13T22:28:08Z</time>
      </trkpt>
      <trkpt lat="41.900751" lon="3.050444">
        <ele>196.0</ele>
        <time>2019-01-13T22:28:09Z</time>
      </trkpt>
      <trkpt lat="41.900829" lon="3.050374">
        <ele>196.0</ele>
        <time>2019-01-13T22:28:11Z</time>
      </trkpt>
      <trkpt lat="41.900903" lon="3.050310">
        <ele>195.0</ele>
        <time>2019-01-13T22:28:12Z</time>
      </trkpt>
      <trkpt lat="41.900967" lon="3.050256">
        <ele>195.0</ele>
        <time>2019-01-13T22:28:13Z</time>
      </trkpt>
      <trkpt lat="41.901013" lon="3.050181">
        <ele>195.0</ele>
        <time>2019-01-13T22:28:15Z</time>
      </trkpt>
      <trkpt lat="41.901020" lon="3.050039">
        <ele>195.0</ele>
        <time>2019-01-13T22:28:16Z</time>
      </trkpt>
      <trkpt lat="41.901038" lon="3.049907">
        <ele>195.0</ele>
        <time>2019-01-13T22:28:18Z</time>
      </trkpt>
      <trkpt lat="41.901059" lon="3.049765">
        <ele>194.0</ele>
        <time>2019-01-13T22:28:20Z</time>
      </trkpt>
      <trkpt lat="41.901078" lon="3.049626">
        <ele>194.0</ele>
        <time>2019-01-13T22:28:21Z</time>
      </trkpt>
      <trkpt lat="41.901103" lon="3.049487">
        <ele>193.0</ele>
        <time>2019-01-13T22:28:23Z</time>
      </trkpt>
      <trkpt lat="41.901125" lon="3.049338">
        <ele>193.0</ele>
        <time>2019-01-13T22:28:25Z</time>
      </trkpt>
      <trkpt lat="41.901144" lon="3.049187">
        <ele>192.0</ele>
        <time>2019-01-13T22:28:27Z</time>
      </trkpt>
      <trkpt lat="41.901163" lon="3.049034">
        <ele>191.0</ele>
        <time>2019-01-13T22:28:29Z</time>
      </trkpt>
      <trkpt lat="41.901189" lon="3.048873">
        <ele>191.0</ele>
        <time>2019-01-13T22:28:31Z</time>
      </trkpt>
      <trkpt lat="41.901213" lon="3.048716">
        <ele>190.0</ele>
        <time>2019-01-13T22:28:32Z</time>
      </trkpt>
      <trkpt lat="41.901238" lon="3.048553">
        <ele>189.0</ele>
        <time>2019-01-13T22:28:34Z</time>
      </trkpt>
      <trkpt lat="41.901275" lon="3.048401">
        <ele>188.0</ele>
        <time>2019-01-13T22:28:36Z</time>
      </trkpt>
      <trkpt lat="41.901309" lon="3.048249">
        <ele>187.0</ele>
        <time>2019-01-13T22:28:38Z</time>
      </trkpt>
      <trkpt lat="41.901351" lon="3.048106">
        <ele>186.0</ele>
        <time>2019-01-13T22:28:40Z</time>
      </trkpt>
      <trkpt lat="41.901395" lon="3.047962">
        <ele>185.0</ele>
        <time>2019-01-13T22:28:42Z</time>
      </trkpt>
      <trkpt lat="41.901429" lon="3.047816">
        <ele>184.0</ele>
        <time>2019-01-13T22:28:44Z</time>
      </trkpt>
      <trkpt lat="41.901443" lon="3.047682">
        <ele>184.0</ele>
        <time>2019-01-13T22:28:45Z</time>
      </trkpt>
      <trkpt lat="41.901391" lon="3.047444">
        <ele>182.0</ele>
        <time>2019-01-13T22:28:48Z</time>
      </trkpt>
      <trkpt lat="41.901340" lon="3.047340">
        <ele>181.0</ele>
        <time>2019-01-13T22:28:50Z</time>
      </trkpt>
      <trkpt lat="41.901280" lon="3.047236">
        <ele>180.0</ele>
        <time>2019-01-13T22:28:51Z</time>
      </trkpt>
      <trkpt lat="41.901213" lon="3.047139">
        <ele>180.0</ele>
        <time>2019-01-13T22:28:53Z</time>
      </trkpt>
      <trkpt lat="41.901137" lon="3.047065">
        <ele>179.0</ele>
        <time>2019-01-13T22:28:54Z</time>
      </trkpt>
      <trkpt lat="41.901057" lon="3.047003">
        <ele>179.0</ele>
        <time>2019-01-13T22:28:56Z</time>
      </trkpt>
      <trkpt lat="41.900981" lon="3.046924">
        <ele>178.0</ele>
        <time>2019-01-13T22:28:57Z</time>
      </trkpt>
      <trkpt lat="41.900935" lon="3.046807">
        <ele>178.0</ele>
        <time>2019-01-13T22:28:59Z</time>
      </trkpt>
      <trkpt lat="41.900939" lon="3.046685">
        <ele>177.0</ele>
        <time>2019-01-13T22:29:00Z</time>
      </trkpt>
      <trkpt lat="41.901001" lon="3.046586">
        <ele>177.0</ele>
        <time>2019-01-13T22:29:02Z</time>
      </trkpt>
      <trkpt lat="41.901083" lon="3.046538">
        <ele>176.0</ele>
        <time>2019-01-13T22:29:03Z</time>
      </trkpt>
      <trkpt lat="41.901178" lon="3.046520">
        <ele>176.0</ele>
        <time>2019-01-13T22:29:05Z</time>
      </trkpt>
      <trkpt lat="41.901268" lon="3.046474">
        <ele>176.0</ele>
        <time>2019-01-13T22:29:06Z</time>
      </trkpt>
      <trkpt lat="41.901341" lon="3.046374">
        <ele>176.0</ele>
        <time>2019-01-13T22:29:08Z</time>
      </trkpt>
      <trkpt lat="41.901390" lon="3.046241">
        <ele>175.0</ele>
        <time>2019-01-13T22:29:10Z</time>
      </trkpt>
      <trkpt lat="41.901440" lon="3.046116">
        <ele>175.0</ele>
        <time>2019-01-13T22:29:12Z</time>
      </trkpt>
      <trkpt lat="41.901535" lon="3.046031">
        <ele>175.0</ele>
        <time>2019-01-13T22:29:13Z</time>
      </trkpt>
      <trkpt lat="41.901640" lon="3.045988">
        <ele>175.0</ele>
        <time>2019-01-13T22:29:15Z</time>
      </trkpt>
      <trkpt lat="41.901752" lon="3.045973">
        <ele>174.0</ele>
        <time>2019-01-13T22:29:17Z</time>
      </trkpt>
      <trkpt lat="41.901866" lon="3.045963">
        <ele>174.0</ele>
        <time>2019-01-13T22:29:19Z</time>
      </trkpt>
      <trkpt lat="41.901980" lon="3.045955">
        <ele>173.0</ele>
        <time>2019-01-13T22:29:21Z</time>
      </trkpt>
      <trkpt lat="41.902087" lon="3.045935">
        <ele>172.0</ele>
        <time>2019-01-13T22:29:22Z</time>
      </trkpt>
      <trkpt lat="41.902188" lon="3.045864">
        <ele>172.0</ele>
        <time>2019-01-13T22:29:24Z</time>
      </trkpt>
      <trkpt lat="41.902256" lon="3.045741">
        <ele>171.0</ele>
        <time>2019-01-13T22:29:26Z</time>
      </trkpt>
      <trkpt lat="41.902292" lon="3.045590">
        <ele>170.0</ele>
        <time>2019-01-13T22:29:28Z</time>
      </trkpt>
      <trkpt lat="41.902318" lon="3.045435">
        <ele>169.0</ele>
        <time>2019-01-13T22:29:30Z</time>
      </trkpt>
      <trkpt lat="41.902341" lon="3.045280">
        <ele>167.0</ele>
        <time>2019-01-13T22:29:32Z</time>
      </trkpt>
      <trkpt lat="41.902366" lon="3.045122">
        <ele>166.0</ele>
        <time>2019-01-13T22:29:34Z</time>
      </trkpt>
      <trkpt lat="41.902392" lon="3.044966">
        <ele>165.0</ele>
        <time>2019-01-13T22:29:36Z</time>
      </trkpt>
      <trkpt lat="41.902401" lon="3.044803">
        <ele>164.0</ele>
        <time>2019-01-13T22:29:37Z</time>
      </trkpt>
      <trkpt lat="41.902384" lon="3.044647">
        <ele>164.0</ele>
        <time>2019-01-13T22:29:39Z</time>
      </trkpt>
      <trkpt lat="41.902349" lon="3.044501">
        <ele>163.0</ele>
        <time>2019-01-13T22:29:41Z</time>
      </trkpt>
      <trkpt lat="41.902317" lon="3.044355">
        <ele>162.0</ele>
        <time>2019-01-13T22:29:43Z</time>
      </trkpt>
      <trkpt lat="41.902321" lon="3.044207">
        <ele>161.0</ele>
        <time>2019-01-13T22:29:45Z</time>
      </trkpt>
      <trkpt lat="41.902367" lon="3.044087">
        <ele>160.0</ele>
        <time>2019-01-13T22:29:46Z</time>
      </trkpt>
      <trkpt lat="41.902424" lon="3.043979">
        <ele>158.0</ele>
        <time>2019-01-13T22:29:48Z</time>
      </trkpt>
      <trkpt lat="41.902510" lon="3.043966">
        <ele>157.0</ele>
        <time>2019-01-13T22:29:49Z</time>
      </trkpt>
      <trkpt lat="41.902606" lon="3.043997">
        <ele>156.0</ele>
        <time>2019-01-13T22:29:51Z</time>
      </trkpt>
      <trkpt lat="41.902710" lon="3.044035">
        <ele>155.0</ele>
        <time>2019-01-13T22:29:53Z</time>
      </trkpt>
      <trkpt lat="41.902816" lon="3.044031">
        <ele>154.0</ele>
        <time>2019-01-13T22:29:54Z</time>
      </trkpt>
      <trkpt lat="41.902910" lon="3.043987">
        <ele>153.0</ele>
        <time>2019-01-13T22:29:56Z</time>
      </trkpt>
      <trkpt lat="41.902988" lon="3.043894">
        <ele>152.0</ele>
        <time>2019-01-13T22:29:58Z</time>
      </trkpt>
      <trkpt lat="41.903044" lon="3.043787">
        <ele>152.0</ele>
        <time>2019-01-13T22:29:59Z</time>
      </trkpt>
      <trkpt lat="41.903104" lon="3.043679">
        <ele>151.0</ele>
        <time>2019-01-13T22:30:01Z</time>
      </trkpt>
      <trkpt lat="41.903163" lon="3.043568">
        <ele>151.0</ele>
        <time>2019-01-13T22:30:02Z</time>
      </trkpt>
      <trkpt lat="41.903227" lon="3.043452">
        <ele>150.0</ele>
        <time>2019-01-13T22:30:04Z</time>
      </trkpt>
      <trkpt lat="41.903280" lon="3.043349">
        <ele>149.0</ele>
        <time>2019-01-13T22:30:06Z</time>
      </trkpt>
      <trkpt lat="41.903320" lon="3.043250">
        <ele>149.0</ele>
        <time>2019-01-13T22:30:07Z</time>
      </trkpt>
      <trkpt lat="41.903372" lon="3.043055">
        <ele>148.0</ele>
        <time>2019-01-13T22:30:09Z</time>
      </trkpt>
      <trkpt lat="41.903412" lon="3.042967">
        <ele>147.0</ele>
        <time>2019-01-13T22:30:11Z</time>
      </trkpt>
      <trkpt lat="41.903446" lon="3.042884">
        <ele>147.0</ele>
        <time>2019-01-13T22:30:12Z</time>
      </trkpt>
      <trkpt lat="41.903497" lon="3.042801">
        <ele>146.0</ele>
        <time>2019-01-13T22:30:13Z</time>
      </trkpt>
      <trkpt lat="41.903547" lon="3.042730">
        <ele>146.0</ele>
        <time>2019-01-13T22:30:14Z</time>
      </trkpt>
      <trkpt lat="41.903626" lon="3.042586">
        <ele>145.0</ele>
        <time>2019-01-13T22:30:16Z</time>
      </trkpt>
      <trkpt lat="41.903629" lon="3.042493">
        <ele>144.0</ele>
        <time>2019-01-13T22:30:17Z</time>
      </trkpt>
      <trkpt lat="41.903599" lon="3.042401">
        <ele>144.0</ele>
        <time>2019-01-13T22:30:19Z</time>
      </trkpt>
      <trkpt lat="41.903544" lon="3.042329">
        <ele>143.0</ele>
        <time>2019-01-13T22:30:20Z</time>
      </trkpt>
      <trkpt lat="41.903486" lon="3.042261">
        <ele>143.0</ele>
        <time>2019-01-13T22:30:21Z</time>
      </trkpt>
      <trkpt lat="41.903424" lon="3.042195">
        <ele>142.0</ele>
        <time>2019-01-13T22:30:22Z</time>
      </trkpt>
      <trkpt lat="41.903375" lon="3.042110">
        <ele>142.0</ele>
        <time>2019-01-13T22:30:24Z</time>
      </trkpt>
      <trkpt lat="41.903353" lon="3.042005">
        <ele>141.0</ele>
        <time>2019-01-13T22:30:25Z</time>
      </trkpt>
      <trkpt lat="41.903379" lon="3.041909">
        <ele>141.0</ele>
        <time>2019-01-13T22:30:26Z</time>
      </trkpt>
      <trkpt lat="41.903437" lon="3.041847">
        <ele>140.0</ele>
        <time>2019-01-13T22:30:27Z</time>
      </trkpt>
      <trkpt lat="41.903508" lon="3.041829">
        <ele>139.0</ele>
        <time>2019-01-13T22:30:29Z</time>
      </trkpt>
      <trkpt lat="41.903581" lon="3.041838">
        <ele>139.0</ele>
        <time>2019-01-13T22:30:30Z</time>
      </trkpt>
      <trkpt lat="41.903652" lon="3.041853">
        <ele>138.0</ele>
        <time>2019-01-13T22:30:31Z</time>
      </trkpt>
      <trkpt lat="41.903721" lon="3.041897">
        <ele>138.0</ele>
        <time>2019-01-13T22:30:32Z</time>
      </trkpt>
      <trkpt lat="41.903786" lon="3.041946">
        <ele>137.0</ele>
        <time>2019-01-13T22:30:33Z</time>
      </trkpt>
      <trkpt lat="41.903851" lon="3.041993">
        <ele>137.0</ele>
        <time>2019-01-13T22:30:34Z</time>
      </trkpt>
      <trkpt lat="41.903983" lon="3.042054">
        <ele>136.0</ele>
        <time>2019-01-13T22:30:37Z</time>
      </trkpt>
      <trkpt lat="41.904050" lon="3.042055">
        <ele>136.0</ele>
        <time>2019-01-13T22:30:38Z</time>
      </trkpt>
      <trkpt lat="41.904121" lon="3.042015">
        <ele>136.0</ele>
        <time>2019-01-13T22:30:39Z</time>
      </trkpt>
      <trkpt lat="41.904182" lon="3.041964">
        <ele>136.0</ele>
        <time>2019-01-13T22:30:40Z</time>
      </trkpt>
      <trkpt lat="41.904233" lon="3.041894">
        <ele>135.0</ele>
        <time>2019-01-13T22:30:41Z</time>
      </trkpt>
      <trkpt lat="41.904324" lon="3.041735">
        <ele>135.0</ele>
        <time>2019-01-13T22:30:44Z</time>
      </trkpt>
      <trkpt lat="41.904369" lon="3.041651">
        <ele>135.0</ele>
        <time>2019-01-13T22:30:45Z</time>
      </trkpt>
      <trkpt lat="41.904414" lon="3.041563">
        <ele>134.0</ele>
        <time>2019-01-13T22:30:46Z</time>
      </trkpt>
      <trkpt lat="41.904454" lon="3.041471">
        <ele>134.0</ele>
        <time>2019-01-13T22:30:47Z</time>
      </trkpt>
      <trkpt lat="41.904485" lon="3.041376">
        <ele>134.0</ele>
        <time>2019-01-13T22:30:49Z</time>
      </trkpt>
      <trkpt lat="41.904509" lon="3.041280">
        <ele>133.0</ele>
        <time>2019-01-13T22:30:50Z</time>
      </trkpt>
      <trkpt lat="41.904526" lon="3.041175">
        <ele>133.0</ele>
        <time>2019-01-13T22:30:51Z</time>
      </trkpt>
      <trkpt lat="41.904548" lon="3.041080">
        <ele>132.0</ele>
        <time>2019-01-13T22:30:52Z</time>
      </trkpt>
      <trkpt lat="41.904621" lon="3.040896">
        <ele>132.0</ele>
        <time>2019-01-13T22:30:55Z</time>
      </trkpt>
      <trkpt lat="41.904669" lon="3.040820">
        <ele>131.0</ele>
        <time>2019-01-13T22:30:56Z</time>
      </trkpt>
      <trkpt lat="41.904869" lon="3.040522">
        <ele>129.0</ele>
        <time>2019-01-13T22:31:01Z</time>
      </trkpt>
      <trkpt lat="41.904912" lon="3.040439">
        <ele>129.0</ele>
        <time>2019-01-13T22:31:02Z</time>
      </trkpt>
      <trkpt lat="41.904959" lon="3.040360">
        <ele>129.0</ele>
        <time>2019-01-13T22:31:03Z</time>
      </trkpt>
      <trkpt lat="41.905004" lon="3.040280">
        <ele>128.0</ele>
        <time>2019-01-13T22:31:04Z</time>
      </trkpt>
      <trkpt lat="41.905059" lon="3.040205">
        <ele>128.0</ele>
        <time>2019-01-13T22:31:06Z</time>
      </trkpt>
      <trkpt lat="41.905195" lon="3.039973">
        <ele>127.0</ele>
        <time>2019-01-13T22:31:09Z</time>
      </trkpt>
      <trkpt lat="41.905448" lon="3.039612">
        <ele>126.0</ele>
        <time>2019-01-13T22:31:15Z</time>
      </trkpt>
      <trkpt lat="41.905501" lon="3.039544">
        <ele>125.0</ele>
        <time>2019-01-13T22:31:16Z</time>
      </trkpt>
      <trkpt lat="41.905554" lon="3.039475">
        <ele>125.0</ele>
        <time>2019-01-13T22:31:17Z</time>
      </trkpt>
      <trkpt lat="41.905610" lon="3.039405">
        <ele>125.0</ele>
        <time>2019-01-13T22:31:19Z</time>
      </trkpt>
      <trkpt lat="41.905667" lon="3.039329">
        <ele>125.0</ele>
        <time>2019-01-13T22:31:20Z</time>
      </trkpt>
      <trkpt lat="41.905726" lon="3.039252">
        <ele>124.0</ele>
        <time>2019-01-13T22:31:21Z</time>
      </trkpt>
      <trkpt lat="41.905788" lon="3.039181">
        <ele>124.0</ele>
        <time>2019-01-13T22:31:23Z</time>
      </trkpt>
      <trkpt lat="41.905851" lon="3.039106">
        <ele>124.0</ele>
        <time>2019-01-13T22:31:24Z</time>
      </trkpt>
      <trkpt lat="41.905919" lon="3.039027">
        <ele>124.0</ele>
        <time>2019-01-13T22:31:25Z</time>
      </trkpt>
      <trkpt lat="41.905980" lon="3.038944">
        <ele>124.0</ele>
        <time>2019-01-13T22:31:27Z</time>
      </trkpt>
      <trkpt lat="41.906034" lon="3.038854">
        <ele>124.0</ele>
        <time>2019-01-13T22:31:28Z</time>
      </trkpt>
      <trkpt lat="41.906080" lon="3.038756">
        <ele>123.0</ele>
        <time>2019-01-13T22:31:30Z</time>
      </trkpt>
      <trkpt lat="41.906119" lon="3.038649">
        <ele>123.0</ele>
        <time>2019-01-13T22:31:31Z</time>
      </trkpt>
      <trkpt lat="41.906165" lon="3.038553">
        <ele>123.0</ele>
        <time>2019-01-13T22:31:32Z</time>
      </trkpt>
      <trkpt lat="41.906215" lon="3.038458">
        <ele>122.0</ele>
        <time>2019-01-13T22:31:34Z</time>
      </trkpt>
      <trkpt lat="41.906258" lon="3.038361">
        <ele>122.0</ele>
        <time>2019-01-13T22:31:35Z</time>
      </trkpt>
      <trkpt lat="41.906302" lon="3.038264">
        <ele>121.0</ele>
        <time>2019-01-13T22:31:36Z</time>
      </trkpt>
      <trkpt lat="41.906343" lon="3.038160">
        <ele>121.0</ele>
        <time>2019-01-13T22:31:38Z</time>
      </trkpt>
      <trkpt lat="41.906387" lon="3.038064">
        <ele>120.0</ele>
        <time>2019-01-13T22:31:39Z</time>
      </trkpt>
      <trkpt lat="41.906479" lon="3.037879">
        <ele>119.0</ele>
        <time>2019-01-13T22:31:42Z</time>
      </trkpt>
      <trkpt lat="41.906525" lon="3.037776">
        <ele>118.0</ele>
        <time>2019-01-13T22:31:43Z</time>
      </trkpt>
      <trkpt lat="41.906569" lon="3.037674">
        <ele>117.0</ele>
        <time>2019-01-13T22:31:45Z</time>
      </trkpt>
      <trkpt lat="41.906616" lon="3.037567">
        <ele>117.0</ele>
        <time>2019-01-13T22:31:46Z</time>
      </trkpt>
      <trkpt lat="41.906661" lon="3.037458">
        <ele>116.0</ele>
        <time>2019-01-13T22:31:48Z</time>
      </trkpt>
      <trkpt lat="41.906695" lon="3.037366">
        <ele>116.0</ele>
        <time>2019-01-13T22:31:49Z</time>
      </trkpt>
      <trkpt lat="41.906740" lon="3.037265">
        <ele>115.0</ele>
        <time>2019-01-13T22:31:50Z</time>
      </trkpt>
      <trkpt lat="41.906785" lon="3.037166">
        <ele>115.0</ele>
        <time>2019-01-13T22:31:52Z</time>
      </trkpt>
      <trkpt lat="41.906825" lon="3.037069">
        <ele>114.0</ele>
        <time>2019-01-13T22:31:53Z</time>
      </trkpt>
      <trkpt lat="41.906871" lon="3.036976">
        <ele>114.0</ele>
        <time>2019-01-13T22:31:54Z</time>
      </trkpt>
      <trkpt lat="41.906905" lon="3.036876">
        <ele>114.0</ele>
        <time>2019-01-13T22:31:56Z</time>
      </trkpt>
      <trkpt lat="41.907001" lon="3.036698">
        <ele>113.0</ele>
        <time>2019-01-13T22:31:58Z</time>
      </trkpt>
      <trkpt lat="41.907217" lon="3.036549">
        <ele>111.0</ele>
        <time>2019-01-13T22:32:02Z</time>
      </trkpt>
      <trkpt lat="41.907364" lon="3.036489">
        <ele>111.0</ele>
        <time>2019-01-13T22:32:05Z</time>
      </trkpt>
      <trkpt lat="41.907591" lon="3.036390">
        <ele>110.0</ele>
        <time>2019-01-13T22:32:08Z</time>
      </trkpt>
      <trkpt lat="41.907665" lon="3.036360">
        <ele>110.0</ele>
        <time>2019-01-13T22:32:10Z</time>
      </trkpt>
      <trkpt lat="41.907736" lon="3.036328">
        <ele>110.0</ele>
        <time>2019-01-13T22:32:11Z</time>
      </trkpt>
      <trkpt lat="41.907802" lon="3.036297">
        <ele>110.0</ele>
        <time>2019-01-13T22:32:12Z</time>
      </trkpt>
      <trkpt lat="41.907870" lon="3.036263">
        <ele>109.0</ele>
        <time>2019-01-13T22:32:13Z</time>
      </trkpt>
      <trkpt lat="41.907937" lon="3.036226">
        <ele>109.0</ele>
        <time>2019-01-13T22:32:14Z</time>
      </trkpt>
      <trkpt lat="41.908064" lon="3.036149">
        <ele>109.0</ele>
        <time>2019-01-13T22:32:16Z</time>
      </trkpt>
      <trkpt lat="41.908177" lon="3.036045">
        <ele>109.0</ele>
        <time>2019-01-13T22:32:19Z</time>
      </trkpt>
      <trkpt lat="41.908274" lon="3.035924">
        <ele>108.0</ele>
        <time>2019-01-13T22:32:21Z</time>
      </trkpt>
      <trkpt lat="41.908403" lon="3.035600">
        <ele>107.0</ele>
        <time>2019-01-13T22:32:25Z</time>
      </trkpt>
      <trkpt lat="41.908449" lon="3.035424">
        <ele>107.0</ele>
        <time>2019-01-13T22:32:27Z</time>
      </trkpt>
      <trkpt lat="41.908475" lon="3.035341">
        <ele>107.0</ele>
        <time>2019-01-13T22:32:28Z</time>
      </trkpt>
      <trkpt lat="41.908494" lon="3.035248">
        <ele>106.0</ele>
        <time>2019-01-13T22:32:30Z</time>
      </trkpt>
      <trkpt lat="41.908513" lon="3.035156">
        <ele>106.0</ele>
        <time>2019-01-13T22:32:31Z</time>
      </trkpt>
      <trkpt lat="41.908534" lon="3.035059">
        <ele>106.0</ele>
        <time>2019-01-13T22:32:32Z</time>
      </trkpt>
      <trkpt lat="41.908661" lon="3.034414">
        <ele>104.0</ele>
        <time>2019-01-13T22:32:40Z</time>
      </trkpt>
      <trkpt lat="41.908678" lon="3.034326">
        <ele>104.0</ele>
        <time>2019-01-13T22:32:41Z</time>
      </trkpt>
      <trkpt lat="41.908783" lon="3.033895">
        <ele>102.0</ele>
        <time>2019-01-13T22:32:46Z</time>
      </trkpt>
      <trkpt lat="41.908799" lon="3.033799">
        <ele>102.0</ele>
        <time>2019-01-13T22:32:48Z</time>
      </trkpt>
      <trkpt lat="41.908815" lon="3.033710">
        <ele>102.0</ele>
        <time>2019-01-13T22:32:49Z</time>
      </trkpt>
      <trkpt lat="41.908839" lon="3.033616">
        <ele>102.0</ele>
        <time>2019-01-13T22:32:50Z</time>
      </trkpt>
      <trkpt lat="41.908857" lon="3.033525">
        <ele>102.0</ele>
        <time>2019-01-13T22:32:51Z</time>
      </trkpt>
      <trkpt lat="41.908941" lon="3.033160">
        <ele>101.0</ele>
        <time>2019-01-13T22:32:55Z</time>
      </trkpt>
      <trkpt lat="41.909046" lon="3.032628">
        <ele>100.0</ele>
        <time>2019-01-13T22:33:02Z</time>
      </trkpt>
      <trkpt lat="41.909190" lon="3.032104">
        <ele>99.0</ele>
        <time>2019-01-13T22:33:09Z</time>
      </trkpt>
      <trkpt lat="41.909263" lon="3.031949">
        <ele>99.0</ele>
        <time>2019-01-13T22:33:11Z</time>
      </trkpt>
      <trkpt lat="41.909367" lon="3.031813">
        <ele>98.0</ele>
        <time>2019-01-13T22:33:13Z</time>
      </trkpt>
      <trkpt lat="41.909422" lon="3.031752">
        <ele>98.0</ele>
        <time>2019-01-13T22:33:14Z</time>
      </trkpt>
      <trkpt lat="41.909477" lon="3.031694">
        <ele>98.0</ele>
        <time>2019-01-13T22:33:15Z</time>
      </trkpt>
      <trkpt lat="41.909532" lon="3.031632">
        <ele>98.0</ele>
        <time>2019-01-13T22:33:17Z</time>
      </trkpt>
      <trkpt lat="41.909587" lon="3.031570">
        <ele>98.0</ele>
        <time>2019-01-13T22:33:18Z</time>
      </trkpt>
      <trkpt lat="41.909692" lon="3.031445">
        <ele>98.0</ele>
        <time>2019-01-13T22:33:20Z</time>
      </trkpt>
      <trkpt lat="41.909844" lon="3.031265">
        <ele>98.0</ele>
        <time>2019-01-13T22:33:23Z</time>
      </trkpt>
      <trkpt lat="41.910058" lon="3.031012">
        <ele>98.0</ele>
        <time>2019-01-13T22:33:28Z</time>
      </trkpt>
      <trkpt lat="41.910512" lon="3.030480">
        <ele>97.0</ele>
        <time>2019-01-13T22:33:37Z</time>
      </trkpt>
      <trkpt lat="41.910570" lon="3.030415">
        <ele>97.0</ele>
        <time>2019-01-13T22:33:39Z</time>
      </trkpt>
      <trkpt lat="41.910629" lon="3.030349">
        <ele>97.0</ele>
        <time>2019-01-13T22:33:40Z</time>
      </trkpt>
      <trkpt lat="41.910691" lon="3.030286">
        <ele>97.0</ele>
        <time>2019-01-13T22:33:41Z</time>
      </trkpt>
      <trkpt lat="41.910757" lon="3.030234">
        <ele>97.0</ele>
        <time>2019-01-13T22:33:42Z</time>
      </trkpt>
      <trkpt lat="41.910911" lon="3.030203">
        <ele>97.0</ele>
        <time>2019-01-13T22:33:45Z</time>
      </trkpt>
      <trkpt lat="41.911137" lon="3.030304">
        <ele>96.0</ele>
        <time>2019-01-13T22:33:49Z</time>
      </trkpt>
      <trkpt lat="41.911211" lon="3.030333">
        <ele>96.0</ele>
        <time>2019-01-13T22:33:50Z</time>
      </trkpt>
      <trkpt lat="41.911355" lon="3.030394">
        <ele>96.0</ele>
        <time>2019-01-13T22:33:52Z</time>
      </trkpt>
      <trkpt lat="41.911427" lon="3.030424">
        <ele>96.0</ele>
        <time>2019-01-13T22:33:54Z</time>
      </trkpt>
      <trkpt lat="41.911499" lon="3.030454">
        <ele>96.0</ele>
        <time>2019-01-13T22:33:55Z</time>
      </trkpt>
      <trkpt lat="41.911567" lon="3.030484">
        <ele>96.0</ele>
        <time>2019-01-13T22:33:56Z</time>
      </trkpt>
      <trkpt lat="41.911637" lon="3.030518">
        <ele>96.0</ele>
        <time>2019-01-13T22:33:57Z</time>
      </trkpt>
      <trkpt lat="41.912072" lon="3.030689">
        <ele>95.0</ele>
        <time>2019-01-13T22:34:04Z</time>
      </trkpt>
      <trkpt lat="41.912302" lon="3.030613">
        <ele>94.0</ele>
        <time>2019-01-13T22:34:08Z</time>
      </trkpt>
      <trkpt lat="41.912372" lon="3.030564">
        <ele>94.0</ele>
        <time>2019-01-13T22:34:09Z</time>
      </trkpt>
      <trkpt lat="41.912440" lon="3.030506">
        <ele>94.0</ele>
        <time>2019-01-13T22:34:11Z</time>
      </trkpt>
      <trkpt lat="41.912509" lon="3.030456">
        <ele>93.0</ele>
        <time>2019-01-13T22:34:12Z</time>
      </trkpt>
      <trkpt lat="41.912578" lon="3.030405">
        <ele>93.0</ele>
        <time>2019-01-13T22:34:13Z</time>
      </trkpt>
      <trkpt lat="41.912991" lon="3.030082">
        <ele>93.0</ele>
        <time>2019-01-13T22:34:21Z</time>
      </trkpt>
      <trkpt lat="41.913057" lon="3.030029">
        <ele>93.0</ele>
        <time>2019-01-13T22:34:22Z</time>
      </trkpt>
      <trkpt lat="41.913125" lon="3.029981">
        <ele>93.0</ele>
        <time>2019-01-13T22:34:23Z</time>
      </trkpt>
      <trkpt lat="41.913194" lon="3.029928">
        <ele>92.0</ele>
        <time>2019-01-13T22:34:25Z</time>
      </trkpt>
      <trkpt lat="41.913261" lon="3.029877">
        <ele>92.0</ele>
        <time>2019-01-13T22:34:26Z</time>
      </trkpt>
      <trkpt lat="41.913395" lon="3.029775">
        <ele>92.0</ele>
        <time>2019-01-13T22:34:28Z</time>
      </trkpt>
      <trkpt lat="41.913462" lon="3.029721">
        <ele>92.0</ele>
        <time>2019-01-13T22:34:30Z</time>
      </trkpt>
      <trkpt lat="41.913780" lon="3.029463">
        <ele>92.0</ele>
        <time>2019-01-13T22:34:35Z</time>
      </trkpt>
      <trkpt lat="41.913838" lon="3.029397">
        <ele>92.0</ele>
        <time>2019-01-13T22:34:37Z</time>
      </trkpt>
      <trkpt lat="41.913933" lon="3.029261">
        <ele>92.0</ele>
        <time>2019-01-13T22:34:39Z</time>
      </trkpt>
      <trkpt lat="41.913977" lon="3.029187">
        <ele>92.0</ele>
        <time>2019-01-13T22:34:40Z</time>
      </trkpt>
      <trkpt lat="41.914012" lon="3.029105">
        <ele>92.0</ele>
        <time>2019-01-13T22:34:41Z</time>
      </trkpt>
      <trkpt lat="41.914117" lon="3.028855">
        <ele>91.0</ele>
        <time>2019-01-13T22:34:45Z</time>
      </trkpt>
      <trkpt lat="41.914151" lon="3.028764">
        <ele>91.0</ele>
        <time>2019-01-13T22:34:46Z</time>
      </trkpt>
      <trkpt lat="41.914216" lon="3.028602">
        <ele>91.0</ele>
        <time>2019-01-13T22:34:48Z</time>
      </trkpt>
      <trkpt lat="41.914280" lon="3.028429">
        <ele>91.0</ele>
        <time>2019-01-13T22:34:50Z</time>
      </trkpt>
      <trkpt lat="41.914383" lon="3.028163">
        <ele>90.0</ele>
        <time>2019-01-13T22:34:54Z</time>
      </trkpt>
      <trkpt lat="41.914531" lon="3.027804">
        <ele>90.0</ele>
        <time>2019-01-13T22:34:59Z</time>
      </trkpt>
      <trkpt lat="41.914603" lon="3.027616">
        <ele>89.0</ele>
        <time>2019-01-13T22:35:01Z</time>
      </trkpt>
      <trkpt lat="41.914675" lon="3.027431">
        <ele>89.0</ele>
        <time>2019-01-13T22:35:04Z</time>
      </trkpt>
      <trkpt lat="41.914712" lon="3.027332">
        <ele>89.0</ele>
        <time>2019-01-13T22:35:05Z</time>
      </trkpt>
      <trkpt lat="41.914758" lon="3.027241">
        <ele>88.0</ele>
        <time>2019-01-13T22:35:06Z</time>
      </trkpt>
      <trkpt lat="41.914821" lon="3.027165">
        <ele>88.0</ele>
        <time>2019-01-13T22:35:08Z</time>
      </trkpt>
      <trkpt lat="41.914886" lon="3.027098">
        <ele>88.0</ele>
        <time>2019-01-13T22:35:09Z</time>
      </trkpt>
      <trkpt lat="41.915237" lon="3.026771">
        <ele>87.0</ele>
        <time>2019-01-13T22:35:16Z</time>
      </trkpt>
      <trkpt lat="41.915307" lon="3.026696">
        <ele>86.0</ele>
        <time>2019-01-13T22:35:17Z</time>
      </trkpt>
      <trkpt lat="41.915377" lon="3.026634">
        <ele>86.0</ele>
        <time>2019-01-13T22:35:19Z</time>
      </trkpt>
      <trkpt lat="41.915452" lon="3.026571">
        <ele>86.0</ele>
        <time>2019-01-13T22:35:20Z</time>
      </trkpt>
      <trkpt lat="41.915673" lon="3.026375">
        <ele>86.0</ele>
        <time>2019-01-13T22:35:24Z</time>
      </trkpt>
      <trkpt lat="41.915743" lon="3.026305">
        <ele>85.0</ele>
        <time>2019-01-13T22:35:26Z</time>
      </trkpt>
      <trkpt lat="41.915811" lon="3.026233">
        <ele>85.0</ele>
        <time>2019-01-13T22:35:27Z</time>
      </trkpt>
      <trkpt lat="41.915870" lon="3.026147">
        <ele>85.0</ele>
        <time>2019-01-13T22:35:28Z</time>
      </trkpt>
      <trkpt lat="41.915923" lon="3.026056">
        <ele>85.0</ele>
        <time>2019-01-13T22:35:30Z</time>
      </trkpt>
      <trkpt lat="41.915969" lon="3.025956">
        <ele>85.0</ele>
        <time>2019-01-13T22:35:31Z</time>
      </trkpt>
      <trkpt lat="41.916008" lon="3.025853">
        <ele>84.0</ele>
        <time>2019-01-13T22:35:33Z</time>
      </trkpt>
      <trkpt lat="41.916076" lon="3.025650">
        <ele>84.0</ele>
        <time>2019-01-13T22:35:35Z</time>
      </trkpt>
      <trkpt lat="41.916152" lon="3.025455">
        <ele>84.0</ele>
        <time>2019-01-13T22:35:38Z</time>
      </trkpt>
      <trkpt lat="41.916226" lon="3.025263">
        <ele>84.0</ele>
        <time>2019-01-13T22:35:40Z</time>
      </trkpt>
      <trkpt lat="41.916276" lon="3.025178">
        <ele>84.0</ele>
        <time>2019-01-13T22:35:42Z</time>
      </trkpt>
      <trkpt lat="41.916321" lon="3.025090">
        <ele>84.0</ele>
        <time>2019-01-13T22:35:43Z</time>
      </trkpt>
      <trkpt lat="41.916381" lon="3.025011">
        <ele>84.0</ele>
        <time>2019-01-13T22:35:44Z</time>
      </trkpt>
      <trkpt lat="41.916442" lon="3.024942">
        <ele>84.0</ele>
        <time>2019-01-13T22:35:46Z</time>
      </trkpt>
      <trkpt lat="41.916583" lon="3.024846">
        <ele>83.0</ele>
        <time>2019-01-13T22:35:48Z</time>
      </trkpt>
      <trkpt lat="41.916657" lon="3.024814">
        <ele>83.0</ele>
        <time>2019-01-13T22:35:49Z</time>
      </trkpt>
      <trkpt lat="41.916735" lon="3.024804">
        <ele>83.0</ele>
        <time>2019-01-13T22:35:51Z</time>
      </trkpt>
      <trkpt lat="41.916978" lon="3.024804">
        <ele>82.0</ele>
        <time>2019-01-13T22:35:55Z</time>
      </trkpt>
      <trkpt lat="41.917299" lon="3.024804">
        <ele>82.0</ele>
        <time>2019-01-13T22:36:00Z</time>
      </trkpt>
      <trkpt lat="41.917379" lon="3.024805">
        <ele>82.0</ele>
        <time>2019-01-13T22:36:01Z</time>
      </trkpt>
      <trkpt lat="41.917459" lon="3.024807">
        <ele>81.0</ele>
        <time>2019-01-13T22:36:02Z</time>
      </trkpt>
      <trkpt lat="41.917541" lon="3.024810">
        <ele>81.0</ele>
        <time>2019-01-13T22:36:04Z</time>
      </trkpt>
      <trkpt lat="41.917620" lon="3.024811">
        <ele>81.0</ele>
        <time>2019-01-13T22:36:05Z</time>
      </trkpt>
      <trkpt lat="41.918184" lon="3.024813">
        <ele>80.0</ele>
        <time>2019-01-13T22:36:14Z</time>
      </trkpt>
      <trkpt lat="41.918342" lon="3.024813">
        <ele>80.0</ele>
        <time>2019-01-13T22:36:16Z</time>
      </trkpt>
      <trkpt lat="41.918803" lon="3.024797">
        <ele>80.0</ele>
        <time>2019-01-13T22:36:24Z</time>
      </trkpt>
      <trkpt lat="41.918877" lon="3.024779">
        <ele>80.0</ele>
        <time>2019-01-13T22:36:25Z</time>
      </trkpt>
      <trkpt lat="41.918951" lon="3.024753">
        <ele>80.0</ele>
        <time>2019-01-13T22:36:26Z</time>
      </trkpt>
      <trkpt lat="41.919023" lon="3.024724">
        <ele>79.0</ele>
        <time>2019-01-13T22:36:27Z</time>
      </trkpt>
      <trkpt lat="41.919094" lon="3.024681">
        <ele>79.0</ele>
        <time>2019-01-13T22:36:29Z</time>
      </trkpt>
      <trkpt lat="41.919275" lon="3.024505">
        <ele>79.0</ele>
        <time>2019-01-13T22:36:32Z</time>
      </trkpt>
      <trkpt lat="41.919734" lon="3.023986">
        <ele>79.0</ele>
        <time>2019-01-13T22:36:42Z</time>
      </trkpt>
      <trkpt lat="41.920193" lon="3.023451">
        <ele>78.0</ele>
        <time>2019-01-13T22:36:52Z</time>
      </trkpt>
      <trkpt lat="41.920365" lon="3.023254">
        <ele>78.0</ele>
        <time>2019-01-13T22:36:55Z</time>
      </trkpt>
      <trkpt lat="41.920423" lon="3.023188">
        <ele>78.0</ele>
        <time>2019-01-13T22:36:56Z</time>
      </trkpt>
      <trkpt lat="41.920480" lon="3.023123">
        <ele>78.0</ele>
        <time>2019-01-13T22:36:58Z</time>
      </trkpt>
      <trkpt lat="41.920540" lon="3.023048">
        <ele>78.0</ele>
        <time>2019-01-13T22:36:59Z</time>
      </trkpt>
      <trkpt lat="41.920597" lon="3.022979">
        <ele>78.0</ele>
        <time>2019-01-13T22:37:00Z</time>
      </trkpt>
      <trkpt lat="41.920655" lon="3.022910">
        <ele>77.0</ele>
        <time>2019-01-13T22:37:01Z</time>
      </trkpt>
      <trkpt lat="41.921048" lon="3.022458">
        <ele>77.0</ele>
        <time>2019-01-13T22:37:10Z</time>
      </trkpt>
      <trkpt lat="41.921118" lon="3.022377">
        <ele>77.0</ele>
        <time>2019-01-13T22:37:11Z</time>
      </trkpt>
      <trkpt lat="41.921264" lon="3.022211">
        <ele>77.0</ele>
        <time>2019-01-13T22:37:14Z</time>
      </trkpt>
      <trkpt lat="41.921482" lon="3.021956">
        <ele>77.0</ele>
        <time>2019-01-13T22:37:19Z</time>
      </trkpt>
      <trkpt lat="41.921625" lon="3.021790">
        <ele>77.0</ele>
        <time>2019-01-13T22:37:22Z</time>
      </trkpt>
      <trkpt lat="41.922036" lon="3.021286">
        <ele>77.0</ele>
        <time>2019-01-13T22:37:31Z</time>
      </trkpt>
      <trkpt lat="41.922294" lon="3.020987">
        <ele>77.0</ele>
        <time>2019-01-13T22:37:36Z</time>
      </trkpt>
      <trkpt lat="41.922439" lon="3.020896">
        <ele>76.0</ele>
        <time>2019-01-13T22:37:39Z</time>
      </trkpt>
      <trkpt lat="41.922602" lon="3.020862">
        <ele>76.0</ele>
        <time>2019-01-13T22:37:41Z</time>
      </trkpt>
      <trkpt lat="41.922685" lon="3.020869">
        <ele>76.0</ele>
        <time>2019-01-13T22:37:43Z</time>
      </trkpt>
      <trkpt lat="41.922849" lon="3.020900">
        <ele>76.0</ele>
        <time>2019-01-13T22:37:45Z</time>
      </trkpt>
      <trkpt lat="41.923114" lon="3.020966">
        <ele>76.0</ele>
        <time>2019-01-13T22:37:50Z</time>
      </trkpt>
      <trkpt lat="41.923291" lon="3.021017">
        <ele>75.0</ele>
        <time>2019-01-13T22:37:53Z</time>
      </trkpt>
      <trkpt lat="41.923466" lon="3.021071">
        <ele>75.0</ele>
        <time>2019-01-13T22:37:56Z</time>
      </trkpt>
      <trkpt lat="41.923557" lon="3.021093">
        <ele>75.0</ele>
        <time>2019-01-13T22:37:57Z</time>
      </trkpt>
      <trkpt lat="41.923642" lon="3.021110">
        <ele>75.0</ele>
        <time>2019-01-13T22:37:58Z</time>
      </trkpt>
      <trkpt lat="41.923720" lon="3.021126">
        <ele>75.0</ele>
        <time>2019-01-13T22:38:00Z</time>
      </trkpt>
      <trkpt lat="41.923793" lon="3.021139">
        <ele>75.0</ele>
        <time>2019-01-13T22:38:01Z</time>
      </trkpt>
      <trkpt lat="41.923867" lon="3.021155">
        <ele>75.0</ele>
        <time>2019-01-13T22:38:02Z</time>
      </trkpt>
      <trkpt lat="41.923983" lon="3.021258">
        <ele>73.0</ele>
        <time>2019-01-13T22:38:04Z</time>
      </trkpt>
      <trkpt lat="41.924004" lon="3.021440">
        <ele>71.0</ele>
        <time>2019-01-13T22:38:06Z</time>
      </trkpt>
      <trkpt lat="41.923927" lon="3.021721">
        <ele>70.0</ele>
        <time>2019-01-13T22:38:10Z</time>
      </trkpt>
      <trkpt lat="41.923945" lon="3.022020">
        <ele>70.0</ele>
        <time>2019-01-13T22:38:14Z</time>
      </trkpt>
      <trkpt lat="41.924056" lon="3.022184">
        <ele>70.0</ele>
        <time>2019-01-13T22:38:16Z</time>
      </trkpt>
      <trkpt lat="41.924210" lon="3.022318">
        <ele>70.0</ele>
        <time>2019-01-13T22:38:19Z</time>
      </trkpt>
      <trkpt lat="41.924292" lon="3.022387">
        <ele>69.0</ele>
        <time>2019-01-13T22:38:21Z</time>
      </trkpt>
      <trkpt lat="41.924372" lon="3.022452">
        <ele>69.0</ele>
        <time>2019-01-13T22:38:22Z</time>
      </trkpt>
      <trkpt lat="41.924452" lon="3.022517">
        <ele>69.0</ele>
        <time>2019-01-13T22:38:24Z</time>
      </trkpt>
      <trkpt lat="41.924534" lon="3.022586">
        <ele>69.0</ele>
        <time>2019-01-13T22:38:25Z</time>
      </trkpt>
      <trkpt lat="41.924615" lon="3.022655">
        <ele>68.0</ele>
        <time>2019-01-13T22:38:27Z</time>
      </trkpt>
      <trkpt lat="41.925109" lon="3.023073">
        <ele>70.0</ele>
        <time>2019-01-13T22:38:36Z</time>
      </trkpt>
      <trkpt lat="41.925191" lon="3.023145">
        <ele>70.0</ele>
        <time>2019-01-13T22:38:38Z</time>
      </trkpt>
      <trkpt lat="41.925272" lon="3.023216">
        <ele>70.0</ele>
        <time>2019-01-13T22:38:39Z</time>
      </trkpt>
      <trkpt lat="41.925354" lon="3.023284">
        <ele>70.0</ele>
        <time>2019-01-13T22:38:41Z</time>
      </trkpt>
      <trkpt lat="41.925434" lon="3.023348">
        <ele>70.0</ele>
        <time>2019-01-13T22:38:42Z</time>
      </trkpt>
      <trkpt lat="41.925517" lon="3.023415">
        <ele>70.0</ele>
        <time>2019-01-13T22:38:44Z</time>
      </trkpt>
      <trkpt lat="41.925676" lon="3.023549">
        <ele>69.0</ele>
        <time>2019-01-13T22:38:47Z</time>
      </trkpt>
      <trkpt lat="41.925757" lon="3.023618">
        <ele>69.0</ele>
        <time>2019-01-13T22:38:48Z</time>
      </trkpt>
      <trkpt lat="41.926000" lon="3.023817">
        <ele>69.0</ele>
        <time>2019-01-13T22:38:53Z</time>
      </trkpt>
      <trkpt lat="41.926326" lon="3.024092">
        <ele>68.0</ele>
        <time>2019-01-13T22:38:59Z</time>
      </trkpt>
      <trkpt lat="41.926485" lon="3.024224">
        <ele>68.0</ele>
        <time>2019-01-13T22:39:02Z</time>
      </trkpt>
      <trkpt lat="41.926563" lon="3.024288">
        <ele>68.0</ele>
        <time>2019-01-13T22:39:04Z</time>
      </trkpt>
      <trkpt lat="41.926641" lon="3.024352">
        <ele>67.0</ele>
        <time>2019-01-13T22:39:05Z</time>
      </trkpt>
      <trkpt lat="41.926725" lon="3.024421">
        <ele>67.0</ele>
        <time>2019-01-13T22:39:07Z</time>
      </trkpt>
      <trkpt lat="41.926803" lon="3.024487">
        <ele>67.0</ele>
        <time>2019-01-13T22:39:08Z</time>
      </trkpt>
      <trkpt lat="41.927047" lon="3.024691">
        <ele>67.0</ele>
        <time>2019-01-13T22:39:13Z</time>
      </trkpt>
      <trkpt lat="41.927543" lon="3.025103">
        <ele>66.0</ele>
        <time>2019-01-13T22:39:22Z</time>
      </trkpt>
      <trkpt lat="41.927713" lon="3.025235">
        <ele>66.0</ele>
        <time>2019-01-13T22:39:25Z</time>
      </trkpt>
      <trkpt lat="41.928137" lon="3.025580">
        <ele>65.0</ele>
        <time>2019-01-13T22:39:33Z</time>
      </trkpt>
      <trkpt lat="41.928218" lon="3.025649">
        <ele>65.0</ele>
        <time>2019-01-13T22:39:35Z</time>
      </trkpt>
      <trkpt lat="41.928300" lon="3.025719">
        <ele>65.0</ele>
        <time>2019-01-13T22:39:36Z</time>
      </trkpt>
      <trkpt lat="41.928381" lon="3.025789">
        <ele>65.0</ele>
        <time>2019-01-13T22:39:38Z</time>
      </trkpt>
      <trkpt lat="41.928463" lon="3.025858">
        <ele>64.0</ele>
        <time>2019-01-13T22:39:39Z</time>
      </trkpt>
      <trkpt lat="41.928545" lon="3.025925">
        <ele>64.0</ele>
        <time>2019-01-13T22:39:41Z</time>
      </trkpt>
      <trkpt lat="41.928713" lon="3.026064">
        <ele>64.0</ele>
        <time>2019-01-13T22:39:44Z</time>
      </trkpt>
      <trkpt lat="41.929188" lon="3.026455">
        <ele>63.0</ele>
        <time>2019-01-13T22:39:53Z</time>
      </trkpt>
      <trkpt lat="41.929429" lon="3.026661">
        <ele>63.0</ele>
        <time>2019-01-13T22:39:57Z</time>
      </trkpt>
      <trkpt lat="41.929744" lon="3.026923">
        <ele>63.0</ele>
        <time>2019-01-13T22:40:03Z</time>
      </trkpt>
      <trkpt lat="41.929829" lon="3.026992">
        <ele>63.0</ele>
        <time>2019-01-13T22:40:05Z</time>
      </trkpt>
      <trkpt lat="41.929910" lon="3.027059">
        <ele>63.0</ele>
        <time>2019-01-13T22:40:06Z</time>
      </trkpt>
      <trkpt lat="41.929991" lon="3.027126">
        <ele>63.0</ele>
        <time>2019-01-13T22:40:08Z</time>
      </trkpt>
      <trkpt lat="41.930069" lon="3.027191">
        <ele>63.0</ele>
        <time>2019-01-13T22:40:09Z</time>
      </trkpt>
      <trkpt lat="41.930532" lon="3.027574">
        <ele>61.0</ele>
        <time>2019-01-13T22:40:18Z</time>
      </trkpt>
      <trkpt lat="41.930612" lon="3.027642">
        <ele>61.0</ele>
        <time>2019-01-13T22:40:20Z</time>
      </trkpt>
      <trkpt lat="41.930848" lon="3.027841">
        <ele>61.0</ele>
        <time>2019-01-13T22:40:24Z</time>
      </trkpt>
      <trkpt lat="41.930926" lon="3.027906">
        <ele>60.0</ele>
        <time>2019-01-13T22:40:26Z</time>
      </trkpt>
      <trkpt lat="41.931007" lon="3.027972">
        <ele>60.0</ele>
        <time>2019-01-13T22:40:27Z</time>
      </trkpt>
      <trkpt lat="41.931092" lon="3.028041">
        <ele>60.0</ele>
        <time>2019-01-13T22:40:29Z</time>
      </trkpt>
      <trkpt lat="41.931335" lon="3.028242">
        <ele>60.0</ele>
        <time>2019-01-13T22:40:33Z</time>
      </trkpt>
      <trkpt lat="41.931818" lon="3.028635">
        <ele>59.0</ele>
        <time>2019-01-13T22:40:42Z</time>
      </trkpt>
      <trkpt lat="41.932254" lon="3.028914">
        <ele>58.0</ele>
        <time>2019-01-13T22:40:50Z</time>
      </trkpt>
      <trkpt lat="41.932434" lon="3.029002">
        <ele>58.0</ele>
        <time>2019-01-13T22:40:53Z</time>
      </trkpt>
      <trkpt lat="41.932524" lon="3.029045">
        <ele>58.0</ele>
        <time>2019-01-13T22:40:55Z</time>
      </trkpt>
      <trkpt lat="41.932613" lon="3.029087">
        <ele>58.0</ele>
        <time>2019-01-13T22:40:56Z</time>
      </trkpt>
      <trkpt lat="41.932702" lon="3.029130">
        <ele>58.0</ele>
        <time>2019-01-13T22:40:58Z</time>
      </trkpt>
      <trkpt lat="41.932791" lon="3.029170">
        <ele>57.0</ele>
        <time>2019-01-13T22:40:59Z</time>
      </trkpt>
      <trkpt lat="41.932968" lon="3.029258">
        <ele>57.0</ele>
        <time>2019-01-13T22:41:02Z</time>
      </trkpt>
      <trkpt lat="41.933557" lon="3.029546">
        <ele>56.0</ele>
        <time>2019-01-13T22:41:12Z</time>
      </trkpt>
      <trkpt lat="41.933894" lon="3.029712">
        <ele>56.0</ele>
        <time>2019-01-13T22:41:18Z</time>
      </trkpt>
      <trkpt lat="41.934329" lon="3.029929">
        <ele>55.0</ele>
        <time>2019-01-13T22:41:25Z</time>
      </trkpt>
      <trkpt lat="41.934418" lon="3.029972">
        <ele>55.0</ele>
        <time>2019-01-13T22:41:27Z</time>
      </trkpt>
      <trkpt lat="41.934506" lon="3.030013">
        <ele>55.0</ele>
        <time>2019-01-13T22:41:28Z</time>
      </trkpt>
      <trkpt lat="41.934596" lon="3.030058">
        <ele>55.0</ele>
        <time>2019-01-13T22:41:30Z</time>
      </trkpt>
      <trkpt lat="41.934681" lon="3.030101">
        <ele>55.0</ele>
        <time>2019-01-13T22:41:31Z</time>
      </trkpt>
      <trkpt lat="41.935025" lon="3.030269">
        <ele>54.0</ele>
        <time>2019-01-13T22:41:37Z</time>
      </trkpt>
      <trkpt lat="41.935190" lon="3.030347">
        <ele>54.0</ele>
        <time>2019-01-13T22:41:40Z</time>
      </trkpt>
      <trkpt lat="41.935359" lon="3.030385">
        <ele>54.0</ele>
        <time>2019-01-13T22:41:43Z</time>
      </trkpt>
      <trkpt lat="41.935539" lon="3.030372">
        <ele>53.0</ele>
        <time>2019-01-13T22:41:46Z</time>
      </trkpt>
      <trkpt lat="41.935889" lon="3.030236">
        <ele>53.0</ele>
        <time>2019-01-13T22:41:52Z</time>
      </trkpt>
      <trkpt lat="41.936337" lon="3.030018">
        <ele>52.0</ele>
        <time>2019-01-13T22:41:59Z</time>
      </trkpt>
      <trkpt lat="41.936425" lon="3.029975">
        <ele>52.0</ele>
        <time>2019-01-13T22:42:01Z</time>
      </trkpt>
      <trkpt lat="41.936514" lon="3.029932">
        <ele>52.0</ele>
        <time>2019-01-13T22:42:02Z</time>
      </trkpt>
      <trkpt lat="41.936600" lon="3.029890">
        <ele>52.0</ele>
        <time>2019-01-13T22:42:04Z</time>
      </trkpt>
      <trkpt lat="41.936685" lon="3.029847">
        <ele>52.0</ele>
        <time>2019-01-13T22:42:05Z</time>
      </trkpt>
      <trkpt lat="41.936943" lon="3.029722">
        <ele>52.0</ele>
        <time>2019-01-13T22:42:09Z</time>
      </trkpt>
      <trkpt lat="41.937180" lon="3.029605">
        <ele>52.0</ele>
        <time>2019-01-13T22:42:14Z</time>
      </trkpt>
      <trkpt lat="41.937417" lon="3.029486">
        <ele>51.0</ele>
        <time>2019-01-13T22:42:18Z</time>
      </trkpt>
      <trkpt lat="41.937499" lon="3.029451">
        <ele>51.0</ele>
        <time>2019-01-13T22:42:19Z</time>
      </trkpt>
      <trkpt lat="41.937579" lon="3.029418">
        <ele>51.0</ele>
        <time>2019-01-13T22:42:20Z</time>
      </trkpt>
      <trkpt lat="41.937659" lon="3.029388">
        <ele>51.0</ele>
        <time>2019-01-13T22:42:22Z</time>
      </trkpt>
      <trkpt lat="41.937741" lon="3.029369">
        <ele>51.0</ele>
        <time>2019-01-13T22:42:23Z</time>
      </trkpt>
      <trkpt lat="41.938084" lon="3.029392">
        <ele>51.0</ele>
        <time>2019-01-13T22:42:28Z</time>
      </trkpt>
      <trkpt lat="41.938245" lon="3.029458">
        <ele>51.0</ele>
        <time>2019-01-13T22:42:31Z</time>
      </trkpt>
      <trkpt lat="41.938555" lon="3.029611">
        <ele>50.0</ele>
        <time>2019-01-13T22:42:36Z</time>
      </trkpt>
      <trkpt lat="41.939027" lon="3.029775">
        <ele>50.0</ele>
        <time>2019-01-13T22:42:44Z</time>
      </trkpt>
      <trkpt lat="41.939407" lon="3.029767">
        <ele>50.0</ele>
        <time>2019-01-13T22:42:50Z</time>
      </trkpt>
      <trkpt lat="41.939696" lon="3.029626">
        <ele>49.0</ele>
        <time>2019-01-13T22:42:55Z</time>
      </trkpt>
      <trkpt lat="41.939771" lon="3.029571">
        <ele>49.0</ele>
        <time>2019-01-13T22:42:57Z</time>
      </trkpt>
      <trkpt lat="41.939918" lon="3.029453">
        <ele>49.0</ele>
        <time>2019-01-13T22:42:59Z</time>
      </trkpt>
      <trkpt lat="41.940050" lon="3.029324">
        <ele>49.0</ele>
        <time>2019-01-13T22:43:02Z</time>
      </trkpt>
      <trkpt lat="41.940478" lon="3.028864">
        <ele>48.0</ele>
        <time>2019-01-13T22:43:11Z</time>
      </trkpt>
      <trkpt lat="41.940854" lon="3.028478">
        <ele>48.0</ele>
        <time>2019-01-13T22:43:18Z</time>
      </trkpt>
      <trkpt lat="41.940916" lon="3.028415">
        <ele>48.0</ele>
        <time>2019-01-13T22:43:20Z</time>
      </trkpt>
      <trkpt lat="41.941343" lon="3.027956">
        <ele>48.0</ele>
        <time>2019-01-13T22:43:28Z</time>
      </trkpt>
      <trkpt lat="41.941404" lon="3.027891">
        <ele>48.0</ele>
        <time>2019-01-13T22:43:30Z</time>
      </trkpt>
      <trkpt lat="41.941471" lon="3.027832">
        <ele>48.0</ele>
        <time>2019-01-13T22:43:31Z</time>
      </trkpt>
      <trkpt lat="41.941699" lon="3.027690">
        <ele>48.0</ele>
        <time>2019-01-13T22:43:35Z</time>
      </trkpt>
      <trkpt lat="41.941931" lon="3.027584">
        <ele>48.0</ele>
        <time>2019-01-13T22:43:39Z</time>
      </trkpt>
      <trkpt lat="41.942096" lon="3.027550">
        <ele>48.0</ele>
        <time>2019-01-13T22:43:41Z</time>
      </trkpt>
      <trkpt lat="41.942510" lon="3.027577">
        <ele>47.0</ele>
        <time>2019-01-13T22:43:48Z</time>
      </trkpt>
      <trkpt lat="41.942971" lon="3.027770">
        <ele>47.0</ele>
        <time>2019-01-13T22:43:56Z</time>
      </trkpt>
      <trkpt lat="41.943500" lon="3.028032">
        <ele>47.0</ele>
        <time>2019-01-13T22:44:05Z</time>
      </trkpt>
      <trkpt lat="41.943570" lon="3.028066">
        <ele>47.0</ele>
        <time>2019-01-13T22:44:06Z</time>
      </trkpt>
      <trkpt lat="41.944082" lon="3.028323">
        <ele>46.0</ele>
        <time>2019-01-13T22:44:15Z</time>
      </trkpt>
      <trkpt lat="41.944159" lon="3.028360">
        <ele>46.0</ele>
        <time>2019-01-13T22:44:16Z</time>
      </trkpt>
      <trkpt lat="41.944684" lon="3.028627">
        <ele>45.0</ele>
        <time>2019-01-13T22:44:25Z</time>
      </trkpt>
      <trkpt lat="41.944758" lon="3.028668">
        <ele>45.0</ele>
        <time>2019-01-13T22:44:26Z</time>
      </trkpt>
      <trkpt lat="41.945286" lon="3.028947">
        <ele>45.0</ele>
        <time>2019-01-13T22:44:35Z</time>
      </trkpt>
      <trkpt lat="41.945808" lon="3.029212">
        <ele>45.0</ele>
        <time>2019-01-13T22:44:44Z</time>
      </trkpt>
      <trkpt lat="41.945885" lon="3.029249">
        <ele>45.0</ele>
        <time>2019-01-13T22:44:46Z</time>
      </trkpt>
      <trkpt lat="41.946429" lon="3.029526">
        <ele>45.0</ele>
        <time>2019-01-13T22:44:55Z</time>
      </trkpt>
      <trkpt lat="41.946743" lon="3.029686">
        <ele>44.0</ele>
        <time>2019-01-13T22:45:00Z</time>
      </trkpt>
      <trkpt lat="41.947055" lon="3.029841">
        <ele>44.0</ele>
        <time>2019-01-13T22:45:06Z</time>
      </trkpt>
      <trkpt lat="41.947207" lon="3.029917">
        <ele>44.0</ele>
        <time>2019-01-13T22:45:08Z</time>
      </trkpt>
      <trkpt lat="41.947646" lon="3.030138">
        <ele>45.0</ele>
        <time>2019-01-13T22:45:16Z</time>
      </trkpt>
      <trkpt lat="41.948066" lon="3.030358">
        <ele>46.0</ele>
        <time>2019-01-13T22:45:23Z</time>
      </trkpt>
      <trkpt lat="41.948211" lon="3.030431">
        <ele>45.0</ele>
        <time>2019-01-13T22:45:26Z</time>
      </trkpt>
      <trkpt lat="41.948344" lon="3.030503">
        <ele>45.0</ele>
        <time>2019-01-13T22:45:28Z</time>
      </trkpt>
      <trkpt lat="41.948483" lon="3.030580">
        <ele>45.0</ele>
        <time>2019-01-13T22:45:30Z</time>
      </trkpt>
      <trkpt lat="41.948629" lon="3.030651">
        <ele>44.0</ele>
        <time>2019-01-13T22:45:33Z</time>
      </trkpt>
      <trkpt lat="41.949019" lon="3.030855">
        <ele>43.0</ele>
        <time>2019-01-13T22:45:39Z</time>
      </trkpt>
      <trkpt lat="41.949358" lon="3.031025">
        <ele>42.0</ele>
        <time>2019-01-13T22:45:45Z</time>
      </trkpt>
      <trkpt lat="41.949445" lon="3.031066">
        <ele>42.0</ele>
        <time>2019-01-13T22:45:47Z</time>
      </trkpt>
      <trkpt lat="41.949531" lon="3.031106">
        <ele>41.0</ele>
        <time>2019-01-13T22:45:48Z</time>
      </trkpt>
      <trkpt lat="41.949619" lon="3.031150">
        <ele>41.0</ele>
        <time>2019-01-13T22:45:50Z</time>
      </trkpt>
      <trkpt lat="41.949712" lon="3.031200">
        <ele>41.0</ele>
        <time>2019-01-13T22:45:51Z</time>
      </trkpt>
      <trkpt lat="41.950152" lon="3.031425">
        <ele>40.0</ele>
        <time>2019-01-13T22:45:59Z</time>
      </trkpt>
      <trkpt lat="41.950239" lon="3.031468">
        <ele>40.0</ele>
        <time>2019-01-13T22:46:00Z</time>
      </trkpt>
      <trkpt lat="41.950332" lon="3.031514">
        <ele>39.0</ele>
        <time>2019-01-13T22:46:02Z</time>
      </trkpt>
      <trkpt lat="41.950419" lon="3.031558">
        <ele>39.0</ele>
        <time>2019-01-13T22:46:03Z</time>
      </trkpt>
      <trkpt lat="41.950675" lon="3.031687">
        <ele>39.0</ele>
        <time>2019-01-13T22:46:08Z</time>
      </trkpt>
      <trkpt lat="41.950990" lon="3.031853">
        <ele>40.0</ele>
        <time>2019-01-13T22:46:13Z</time>
      </trkpt>
      <trkpt lat="41.951515" lon="3.032129">
        <ele>40.0</ele>
        <time>2019-01-13T22:46:22Z</time>
      </trkpt>
      <trkpt lat="41.951583" lon="3.032184">
        <ele>41.0</ele>
        <time>2019-01-13T22:46:23Z</time>
      </trkpt>
      <trkpt lat="41.951815" lon="3.032461">
        <ele>42.0</ele>
        <time>2019-01-13T22:46:28Z</time>
      </trkpt>
      <trkpt lat="41.951970" lon="3.032702">
        <ele>43.0</ele>
        <time>2019-01-13T22:46:32Z</time>
      </trkpt>
      <trkpt lat="41.952069" lon="3.032876">
        <ele>43.0</ele>
        <time>2019-01-13T22:46:35Z</time>
      </trkpt>
      <trkpt lat="41.952208" lon="3.033135">
        <ele>44.0</ele>
        <time>2019-01-13T22:46:39Z</time>
      </trkpt>
      <trkpt lat="41.952430" lon="3.033561">
        <ele>44.0</ele>
        <time>2019-01-13T22:46:45Z</time>
      </trkpt>
      <trkpt lat="41.952610" lon="3.033893">
        <ele>43.0</ele>
        <time>2019-01-13T22:46:50Z</time>
      </trkpt>
      <trkpt lat="41.952740" lon="3.034144">
        <ele>44.0</ele>
        <time>2019-01-13T22:46:53Z</time>
      </trkpt>
      <trkpt lat="41.953060" lon="3.034740">
        <ele>44.0</ele>
        <time>2019-01-13T22:47:02Z</time>
      </trkpt>
      <trkpt lat="41.953102" lon="3.034820">
        <ele>44.0</ele>
        <time>2019-01-13T22:47:03Z</time>
      </trkpt>
      <trkpt lat="41.953368" lon="3.035282">
        <ele>43.0</ele>
        <time>2019-01-13T22:47:10Z</time>
      </trkpt>
      <trkpt lat="41.953690" lon="3.035826">
        <ele>42.0</ele>
        <time>2019-01-13T22:47:18Z</time>
      </trkpt>
      <trkpt lat="41.953911" lon="3.036223">
        <ele>43.0</ele>
        <time>2019-01-13T22:47:24Z</time>
      </trkpt>
      <trkpt lat="41.953956" lon="3.036304">
        <ele>43.0</ele>
        <time>2019-01-13T22:47:26Z</time>
      </trkpt>
      <trkpt lat="41.954055" lon="3.036452">
        <ele>43.0</ele>
        <time>2019-01-13T22:47:28Z</time>
      </trkpt>
      <trkpt lat="41.954177" lon="3.036550">
        <ele>43.0</ele>
        <time>2019-01-13T22:47:30Z</time>
      </trkpt>
      <trkpt lat="41.954321" lon="3.036630">
        <ele>43.0</ele>
        <time>2019-01-13T22:47:33Z</time>
      </trkpt>
      <trkpt lat="41.954475" lon="3.036712">
        <ele>43.0</ele>
        <time>2019-01-13T22:47:35Z</time>
      </trkpt>
      <trkpt lat="41.954549" lon="3.036751">
        <ele>43.0</ele>
        <time>2019-01-13T22:47:37Z</time>
      </trkpt>
      <trkpt lat="41.954840" lon="3.036896">
        <ele>43.0</ele>
        <time>2019-01-13T22:47:42Z</time>
      </trkpt>
      <trkpt lat="41.954986" lon="3.036967">
        <ele>43.0</ele>
        <time>2019-01-13T22:47:44Z</time>
      </trkpt>
      <trkpt lat="41.955202" lon="3.037070">
        <ele>42.0</ele>
        <time>2019-01-13T22:47:48Z</time>
      </trkpt>
      <trkpt lat="41.955409" lon="3.037178">
        <ele>42.0</ele>
        <time>2019-01-13T22:47:51Z</time>
      </trkpt>
      <trkpt lat="41.955477" lon="3.037206">
        <ele>42.0</ele>
        <time>2019-01-13T22:47:52Z</time>
      </trkpt>
      <trkpt lat="41.955676" lon="3.037194">
        <ele>42.0</ele>
        <time>2019-01-13T22:47:56Z</time>
      </trkpt>
      <trkpt lat="41.955737" lon="3.037171">
        <ele>41.0</ele>
        <time>2019-01-13T22:47:57Z</time>
      </trkpt>
      <trkpt lat="41.956052" lon="3.037069">
        <ele>41.0</ele>
        <time>2019-01-13T22:48:02Z</time>
      </trkpt>
      <trkpt lat="41.956229" lon="3.037012">
        <ele>41.0</ele>
        <time>2019-01-13T22:48:05Z</time>
      </trkpt>
      <trkpt lat="41.956272" lon="3.036959">
        <ele>41.0</ele>
        <time>2019-01-13T22:48:06Z</time>
      </trkpt>
      <trkpt lat="41.956306" lon="3.036716">
        <ele>41.0</ele>
        <time>2019-01-13T22:48:09Z</time>
      </trkpt>
      <trkpt lat="41.956297" lon="3.036627">
        <ele>41.0</ele>
        <time>2019-01-13T22:48:10Z</time>
      </trkpt>
      <trkpt lat="41.956287" lon="3.036533">
        <ele>40.0</ele>
        <time>2019-01-13T22:48:11Z</time>
      </trkpt>
      <trkpt lat="41.956281" lon="3.036436">
        <ele>40.0</ele>
        <time>2019-01-13T22:48:12Z</time>
      </trkpt>
      <trkpt lat="41.956272" lon="3.036336">
        <ele>40.0</ele>
        <time>2019-01-13T22:48:13Z</time>
      </trkpt>
      <trkpt lat="41.956256" lon="3.036238">
        <ele>40.0</ele>
        <time>2019-01-13T22:48:14Z</time>
      </trkpt>
      <trkpt lat="41.956191" lon="3.035931">
        <ele>39.0</ele>
        <time>2019-01-13T22:48:18Z</time>
      </trkpt>
      <trkpt lat="41.956143" lon="3.035717">
        <ele>38.0</ele>
        <time>2019-01-13T22:48:21Z</time>
      </trkpt>
      <trkpt lat="41.956119" lon="3.035610">
        <ele>38.0</ele>
        <time>2019-01-13T22:48:22Z</time>
      </trkpt>
      <trkpt lat="41.956070" lon="3.035400">
        <ele>38.0</ele>
        <time>2019-01-13T22:48:25Z</time>
      </trkpt>
      <trkpt lat="41.956032" lon="3.035179">
        <ele>38.0</ele>
        <time>2019-01-13T22:48:28Z</time>
      </trkpt>
      <trkpt lat="41.956028" lon="3.035065">
        <ele>37.0</ele>
        <time>2019-01-13T22:48:29Z</time>
      </trkpt>
      <trkpt lat="41.956090" lon="3.034607">
        <ele>37.0</ele>
        <time>2019-01-13T22:48:34Z</time>
      </trkpt>
      <trkpt lat="41.956220" lon="3.034278">
        <ele>38.0</ele>
        <time>2019-01-13T22:48:39Z</time>
      </trkpt>
      <trkpt lat="41.956314" lon="3.034066">
        <ele>37.0</ele>
        <time>2019-01-13T22:48:42Z</time>
      </trkpt>
      <trkpt lat="41.956549" lon="3.033510">
        <ele>37.0</ele>
        <time>2019-01-13T22:48:49Z</time>
      </trkpt>
      <trkpt lat="41.956596" lon="3.033398">
        <ele>37.0</ele>
        <time>2019-01-13T22:48:51Z</time>
      </trkpt>
      <trkpt lat="41.956644" lon="3.033284">
        <ele>36.0</ele>
        <time>2019-01-13T22:48:52Z</time>
      </trkpt>
      <trkpt lat="41.956692" lon="3.033172">
        <ele>36.0</ele>
        <time>2019-01-13T22:48:54Z</time>
      </trkpt>
      <trkpt lat="41.956740" lon="3.033060">
        <ele>35.0</ele>
        <time>2019-01-13T22:48:56Z</time>
      </trkpt>
      <trkpt lat="41.957006" lon="3.032491">
        <ele>34.0</ele>
        <time>2019-01-13T22:49:04Z</time>
      </trkpt>
      <trkpt lat="41.957069" lon="3.032385">
        <ele>34.0</ele>
        <time>2019-01-13T22:49:05Z</time>
      </trkpt>
      <trkpt lat="41.957136" lon="3.032286">
        <ele>34.0</ele>
        <time>2019-01-13T22:49:07Z</time>
      </trkpt>
      <trkpt lat="41.957205" lon="3.032192">
        <ele>34.0</ele>
        <time>2019-01-13T22:49:08Z</time>
      </trkpt>
      <trkpt lat="41.957278" lon="3.032105">
        <ele>34.0</ele>
        <time>2019-01-13T22:49:10Z</time>
      </trkpt>
      <trkpt lat="41.957354" lon="3.032024">
        <ele>34.0</ele>
        <time>2019-01-13T22:49:11Z</time>
      </trkpt>
      <trkpt lat="41.957603" lon="3.031824">
        <ele>34.0</ele>
        <time>2019-01-13T22:49:16Z</time>
      </trkpt>
      <trkpt lat="41.957937" lon="3.031650">
        <ele>33.0</ele>
        <time>2019-01-13T22:49:22Z</time>
      </trkpt>
      <trkpt lat="41.958021" lon="3.031620">
        <ele>33.0</ele>
        <time>2019-01-13T22:49:23Z</time>
      </trkpt>
      <trkpt lat="41.958191" lon="3.031583">
        <ele>34.0</ele>
        <time>2019-01-13T22:49:26Z</time>
      </trkpt>
      <trkpt lat="41.958359" lon="3.031570">
        <ele>34.0</ele>
        <time>2019-01-13T22:49:29Z</time>
      </trkpt>
      <trkpt lat="41.958445" lon="3.031571">
        <ele>34.0</ele>
        <time>2019-01-13T22:49:30Z</time>
      </trkpt>
      <trkpt lat="41.958882" lon="3.031642">
        <ele>33.0</ele>
        <time>2019-01-13T22:49:37Z</time>
      </trkpt>
      <trkpt lat="41.959474" lon="3.031754">
        <ele>33.0</ele>
        <time>2019-01-13T22:49:47Z</time>
      </trkpt>
      <trkpt lat="41.959561" lon="3.031772">
        <ele>33.0</ele>
        <time>2019-01-13T22:49:48Z</time>
      </trkpt>
      <trkpt lat="41.960080" lon="3.031870">
        <ele>34.0</ele>
        <time>2019-01-13T22:49:56Z</time>
      </trkpt>
      <trkpt lat="41.960634" lon="3.031972">
        <ele>33.0</ele>
        <time>2019-01-13T22:50:05Z</time>
      </trkpt>
      <trkpt lat="41.960941" lon="3.032033">
        <ele>33.0</ele>
        <time>2019-01-13T22:50:10Z</time>
      </trkpt>
      <trkpt lat="41.961017" lon="3.032053">
        <ele>33.0</ele>
        <time>2019-01-13T22:50:12Z</time>
      </trkpt>
      <trkpt lat="41.961093" lon="3.032071">
        <ele>33.0</ele>
        <time>2019-01-13T22:50:13Z</time>
      </trkpt>
      <trkpt lat="41.961169" lon="3.032088">
        <ele>33.0</ele>
        <time>2019-01-13T22:50:14Z</time>
      </trkpt>
      <trkpt lat="41.961250" lon="3.032101">
        <ele>33.0</ele>
        <time>2019-01-13T22:50:15Z</time>
      </trkpt>
      <trkpt lat="41.961656" lon="3.032207">
        <ele>33.0</ele>
        <time>2019-01-13T22:50:22Z</time>
      </trkpt>
      <trkpt lat="41.961816" lon="3.032350">
        <ele>33.0</ele>
        <time>2019-01-13T22:50:25Z</time>
      </trkpt>
      <trkpt lat="41.961927" lon="3.032320">
        <ele>33.0</ele>
        <time>2019-01-13T22:50:27Z</time>
      </trkpt>
      <trkpt lat="41.961970" lon="3.032185">
        <ele>33.0</ele>
        <time>2019-01-13T22:50:29Z</time>
      </trkpt>
      <trkpt lat="41.961904" lon="3.031946">
        <ele>33.0</ele>
        <time>2019-01-13T22:50:32Z</time>
      </trkpt>
      <trkpt lat="41.961863" lon="3.031865">
        <ele>33.0</ele>
        <time>2019-01-13T22:50:33Z</time>
      </trkpt>
      <trkpt lat="41.961778" lon="3.031697">
        <ele>33.0</ele>
        <time>2019-01-13T22:50:35Z</time>
      </trkpt>
      <trkpt lat="41.961675" lon="3.031533">
        <ele>33.0</ele>
        <time>2019-01-13T22:50:38Z</time>
      </trkpt>
      <trkpt lat="41.961574" lon="3.031348">
        <ele>34.0</ele>
        <time>2019-01-13T22:50:41Z</time>
      </trkpt>
      <trkpt lat="41.961494" lon="3.031147">
        <ele>34.0</ele>
        <time>2019-01-13T22:50:43Z</time>
      </trkpt>
      <trkpt lat="41.961459" lon="3.031045">
        <ele>34.0</ele>
        <time>2019-01-13T22:50:45Z</time>
      </trkpt>
      <trkpt lat="41.961314" lon="3.030649">
        <ele>34.0</ele>
        <time>2019-01-13T22:50:50Z</time>
      </trkpt>
      <trkpt lat="41.961211" lon="3.030346">
        <ele>34.0</ele>
        <time>2019-01-13T22:50:54Z</time>
      </trkpt>
      <trkpt lat="41.961001" lon="3.029738">
        <ele>35.0</ele>
        <time>2019-01-13T22:51:02Z</time>
      </trkpt>
      <trkpt lat="41.960780" lon="3.029123">
        <ele>36.0</ele>
        <time>2019-01-13T22:51:10Z</time>
      </trkpt>
      <trkpt lat="41.960581" lon="3.028578">
        <ele>36.0</ele>
        <time>2019-01-13T22:51:17Z</time>
      </trkpt>
      <trkpt lat="41.960547" lon="3.028479">
        <ele>36.0</ele>
        <time>2019-01-13T22:51:18Z</time>
      </trkpt>
      <trkpt lat="41.960515" lon="3.028388">
        <ele>36.0</ele>
        <time>2019-01-13T22:51:20Z</time>
      </trkpt>
      <trkpt lat="41.960483" lon="3.028294">
        <ele>36.0</ele>
        <time>2019-01-13T22:51:21Z</time>
      </trkpt>
      <trkpt lat="41.960448" lon="3.028201">
        <ele>36.0</ele>
        <time>2019-01-13T22:51:22Z</time>
      </trkpt>
      <trkpt lat="41.960413" lon="3.028113">
        <ele>37.0</ele>
        <time>2019-01-13T22:51:23Z</time>
      </trkpt>
      <trkpt lat="41.960319" lon="3.027845">
        <ele>37.0</ele>
        <time>2019-01-13T22:51:27Z</time>
      </trkpt>
      <trkpt lat="41.960202" lon="3.027506">
        <ele>38.0</ele>
        <time>2019-01-13T22:51:31Z</time>
      </trkpt>
      <trkpt lat="41.960173" lon="3.027426">
        <ele>38.0</ele>
        <time>2019-01-13T22:51:32Z</time>
      </trkpt>
      <trkpt lat="41.960145" lon="3.027344">
        <ele>38.0</ele>
        <time>2019-01-13T22:51:33Z</time>
      </trkpt>
      <trkpt lat="41.960120" lon="3.027267">
        <ele>38.0</ele>
        <time>2019-01-13T22:51:34Z</time>
      </trkpt>
      <trkpt lat="41.960091" lon="3.027187">
        <ele>38.0</ele>
        <time>2019-01-13T22:51:36Z</time>
      </trkpt>
      <trkpt lat="41.960035" lon="3.027024">
        <ele>38.0</ele>
        <time>2019-01-13T22:51:38Z</time>
      </trkpt>
      <trkpt lat="41.959794" lon="3.026338">
        <ele>40.0</ele>
        <time>2019-01-13T22:51:47Z</time>
      </trkpt>
      <trkpt lat="41.959734" lon="3.026170">
        <ele>40.0</ele>
        <time>2019-01-13T22:51:49Z</time>
      </trkpt>
      <trkpt lat="41.959705" lon="3.026090">
        <ele>41.0</ele>
        <time>2019-01-13T22:51:50Z</time>
      </trkpt>
      <trkpt lat="41.959676" lon="3.026008">
        <ele>41.0</ele>
        <time>2019-01-13T22:51:51Z</time>
      </trkpt>
      <trkpt lat="41.959646" lon="3.025928">
        <ele>41.0</ele>
        <time>2019-01-13T22:51:52Z</time>
      </trkpt>
      <trkpt lat="41.959618" lon="3.025852">
        <ele>41.0</ele>
        <time>2019-01-13T22:51:53Z</time>
      </trkpt>
      <trkpt lat="41.959591" lon="3.025779">
        <ele>41.0</ele>
        <time>2019-01-13T22:51:54Z</time>
      </trkpt>
      <trkpt lat="41.959340" lon="3.025070">
        <ele>42.0</ele>
        <time>2019-01-13T22:52:03Z</time>
      </trkpt>
      <trkpt lat="41.959281" lon="3.024905">
        <ele>42.0</ele>
        <time>2019-01-13T22:52:06Z</time>
      </trkpt>
      <trkpt lat="41.959250" lon="3.024822">
        <ele>42.0</ele>
        <time>2019-01-13T22:52:07Z</time>
      </trkpt>
      <trkpt lat="41.959223" lon="3.024737">
        <ele>43.0</ele>
        <time>2019-01-13T22:52:08Z</time>
      </trkpt>
      <trkpt lat="41.959189" lon="3.024645">
        <ele>43.0</ele>
        <time>2019-01-13T22:52:09Z</time>
      </trkpt>
      <trkpt lat="41.959153" lon="3.024557">
        <ele>43.0</ele>
        <time>2019-01-13T22:52:10Z</time>
      </trkpt>
      <trkpt lat="41.959121" lon="3.024463">
        <ele>43.0</ele>
        <time>2019-01-13T22:52:11Z</time>
      </trkpt>
      <trkpt lat="41.958924" lon="3.023955">
        <ele>43.0</ele>
        <time>2019-01-13T22:52:18Z</time>
      </trkpt>
      <trkpt lat="41.958773" lon="3.023548">
        <ele>44.0</ele>
        <time>2019-01-13T22:52:24Z</time>
      </trkpt>
      <trkpt lat="41.958743" lon="3.023468">
        <ele>44.0</ele>
        <time>2019-01-13T22:52:25Z</time>
      </trkpt>
      <trkpt lat="41.958713" lon="3.023382">
        <ele>44.0</ele>
        <time>2019-01-13T22:52:26Z</time>
      </trkpt>
      <trkpt lat="41.958686" lon="3.023301">
        <ele>44.0</ele>
        <time>2019-01-13T22:52:27Z</time>
      </trkpt>
      <trkpt lat="41.958656" lon="3.023222">
        <ele>44.0</ele>
        <time>2019-01-13T22:52:28Z</time>
      </trkpt>
      <trkpt lat="41.958572" lon="3.022984">
        <ele>45.0</ele>
        <time>2019-01-13T22:52:31Z</time>
      </trkpt>
      <trkpt lat="41.958489" lon="3.022742">
        <ele>45.0</ele>
        <time>2019-01-13T22:52:34Z</time>
      </trkpt>
      <trkpt lat="41.958434" lon="3.022583">
        <ele>45.0</ele>
        <time>2019-01-13T22:52:36Z</time>
      </trkpt>
      <trkpt lat="41.958267" lon="3.022122">
        <ele>46.0</ele>
        <time>2019-01-13T22:52:43Z</time>
      </trkpt>
      <trkpt lat="41.958239" lon="3.022044">
        <ele>46.0</ele>
        <time>2019-01-13T22:52:44Z</time>
      </trkpt>
      <trkpt lat="41.958212" lon="3.021965">
        <ele>46.0</ele>
        <time>2019-01-13T22:52:45Z</time>
      </trkpt>
      <trkpt lat="41.958184" lon="3.021887">
        <ele>46.0</ele>
        <time>2019-01-13T22:52:46Z</time>
      </trkpt>
      <trkpt lat="41.958155" lon="3.021807">
        <ele>46.0</ele>
        <time>2019-01-13T22:52:47Z</time>
      </trkpt>
      <trkpt lat="41.957983" lon="3.021326">
        <ele>46.0</ele>
        <time>2019-01-13T22:52:53Z</time>
      </trkpt>
      <trkpt lat="41.957739" lon="3.020642">
        <ele>46.0</ele>
        <time>2019-01-13T22:53:02Z</time>
      </trkpt>
      <trkpt lat="41.957713" lon="3.020562">
        <ele>46.0</ele>
        <time>2019-01-13T22:53:03Z</time>
      </trkpt>
      <trkpt lat="41.957687" lon="3.020485">
        <ele>46.0</ele>
        <time>2019-01-13T22:53:04Z</time>
      </trkpt>
      <trkpt lat="41.957662" lon="3.020408">
        <ele>46.0</ele>
        <time>2019-01-13T22:53:05Z</time>
      </trkpt>
      <trkpt lat="41.957637" lon="3.020329">
        <ele>46.0</ele>
        <time>2019-01-13T22:53:06Z</time>
      </trkpt>
      <trkpt lat="41.957494" lon="3.019927">
        <ele>47.0</ele>
        <time>2019-01-13T22:53:11Z</time>
      </trkpt>
      <trkpt lat="41.957270" lon="3.019310">
        <ele>49.0</ele>
        <time>2019-01-13T22:53:20Z</time>
      </trkpt>
      <trkpt lat="41.957242" lon="3.019232">
        <ele>49.0</ele>
        <time>2019-01-13T22:53:21Z</time>
      </trkpt>
      <trkpt lat="41.957215" lon="3.019158">
        <ele>49.0</ele>
        <time>2019-01-13T22:53:22Z</time>
      </trkpt>
      <trkpt lat="41.957187" lon="3.019085">
        <ele>50.0</ele>
        <time>2019-01-13T22:53:23Z</time>
      </trkpt>
      <trkpt lat="41.957160" lon="3.019011">
        <ele>50.0</ele>
        <time>2019-01-13T22:53:24Z</time>
      </trkpt>
      <trkpt lat="41.957061" lon="3.018696">
        <ele>51.0</ele>
        <time>2019-01-13T22:53:28Z</time>
      </trkpt>
      <trkpt lat="41.956915" lon="3.018313">
        <ele>52.0</ele>
        <time>2019-01-13T22:53:33Z</time>
      </trkpt>
      <trkpt lat="41.956665" lon="3.017597">
        <ele>53.0</ele>
        <time>2019-01-13T22:53:42Z</time>
      </trkpt>
      <trkpt lat="41.956634" lon="3.017515">
        <ele>53.0</ele>
        <time>2019-01-13T22:53:43Z</time>
      </trkpt>
      <trkpt lat="41.956608" lon="3.017437">
        <ele>53.0</ele>
        <time>2019-01-13T22:53:44Z</time>
      </trkpt>
      <trkpt lat="41.956581" lon="3.017360">
        <ele>54.0</ele>
        <time>2019-01-13T22:53:45Z</time>
      </trkpt>
      <trkpt lat="41.956551" lon="3.017285">
        <ele>54.0</ele>
        <time>2019-01-13T22:53:46Z</time>
      </trkpt>
      <trkpt lat="41.956463" lon="3.017067">
        <ele>54.0</ele>
        <time>2019-01-13T22:53:49Z</time>
      </trkpt>
      <trkpt lat="41.956436" lon="3.016992">
        <ele>54.0</ele>
        <time>2019-01-13T22:53:50Z</time>
      </trkpt>
      <trkpt lat="41.956264" lon="3.016512">
        <ele>55.0</ele>
        <time>2019-01-13T22:53:57Z</time>
      </trkpt>
      <trkpt lat="41.956235" lon="3.016434">
        <ele>55.0</ele>
        <time>2019-01-13T22:53:58Z</time>
      </trkpt>
      <trkpt lat="41.956206" lon="3.016350">
        <ele>55.0</ele>
        <time>2019-01-13T22:53:59Z</time>
      </trkpt>
      <trkpt lat="41.956178" lon="3.016270">
        <ele>56.0</ele>
        <time>2019-01-13T22:54:00Z</time>
      </trkpt>
      <trkpt lat="41.956151" lon="3.016188">
        <ele>56.0</ele>
        <time>2019-01-13T22:54:01Z</time>
      </trkpt>
      <trkpt lat="41.955984" lon="3.015724">
        <ele>57.0</ele>
        <time>2019-01-13T22:54:07Z</time>
      </trkpt>
      <trkpt lat="41.955904" lon="3.015502">
        <ele>57.0</ele>
        <time>2019-01-13T22:54:10Z</time>
      </trkpt>
      <trkpt lat="41.955876" lon="3.015429">
        <ele>57.0</ele>
        <time>2019-01-13T22:54:11Z</time>
      </trkpt>
      <trkpt lat="41.955850" lon="3.015352">
        <ele>57.0</ele>
        <time>2019-01-13T22:54:12Z</time>
      </trkpt>
      <trkpt lat="41.955826" lon="3.015272">
        <ele>58.0</ele>
        <time>2019-01-13T22:54:13Z</time>
      </trkpt>
      <trkpt lat="41.955800" lon="3.015190">
        <ele>58.0</ele>
        <time>2019-01-13T22:54:14Z</time>
      </trkpt>
      <trkpt lat="41.955722" lon="3.014966">
        <ele>59.0</ele>
        <time>2019-01-13T22:54:17Z</time>
      </trkpt>
      <trkpt lat="41.955471" lon="3.014272">
        <ele>61.0</ele>
        <time>2019-01-13T22:54:26Z</time>
      </trkpt>
      <trkpt lat="41.955385" lon="3.014040">
        <ele>61.0</ele>
        <time>2019-01-13T22:54:29Z</time>
      </trkpt>
      <trkpt lat="41.955356" lon="3.013964">
        <ele>61.0</ele>
        <time>2019-01-13T22:54:30Z</time>
      </trkpt>
      <trkpt lat="41.955331" lon="3.013889">
        <ele>62.0</ele>
        <time>2019-01-13T22:54:31Z</time>
      </trkpt>
      <trkpt lat="41.955305" lon="3.013813">
        <ele>62.0</ele>
        <time>2019-01-13T22:54:32Z</time>
      </trkpt>
      <trkpt lat="41.955278" lon="3.013738">
        <ele>62.0</ele>
        <time>2019-01-13T22:54:33Z</time>
      </trkpt>
      <trkpt lat="41.955227" lon="3.013588">
        <ele>62.0</ele>
        <time>2019-01-13T22:54:35Z</time>
      </trkpt>
      <trkpt lat="41.955070" lon="3.013127">
        <ele>63.0</ele>
        <time>2019-01-13T22:54:41Z</time>
      </trkpt>
      <trkpt lat="41.955043" lon="3.013051">
        <ele>63.0</ele>
        <time>2019-01-13T22:54:42Z</time>
      </trkpt>
      <trkpt lat="41.955015" lon="3.012974">
        <ele>63.0</ele>
        <time>2019-01-13T22:54:43Z</time>
      </trkpt>
      <trkpt lat="41.954986" lon="3.012893">
        <ele>63.0</ele>
        <time>2019-01-13T22:54:44Z</time>
      </trkpt>
      <trkpt lat="41.954956" lon="3.012815">
        <ele>63.0</ele>
        <time>2019-01-13T22:54:45Z</time>
      </trkpt>
      <trkpt lat="41.954756" lon="3.012248">
        <ele>62.0</ele>
        <time>2019-01-13T22:54:53Z</time>
      </trkpt>
      <trkpt lat="41.954577" lon="3.011763">
        <ele>62.0</ele>
        <time>2019-01-13T22:54:59Z</time>
      </trkpt>
      <trkpt lat="41.954527" lon="3.011599">
        <ele>62.0</ele>
        <time>2019-01-13T22:55:01Z</time>
      </trkpt>
      <trkpt lat="41.954515" lon="3.011424">
        <ele>63.0</ele>
        <time>2019-01-13T22:55:03Z</time>
      </trkpt>
      <trkpt lat="41.954586" lon="3.011173">
        <ele>63.0</ele>
        <time>2019-01-13T22:55:07Z</time>
      </trkpt>
      <trkpt lat="41.954714" lon="3.010963">
        <ele>63.0</ele>
        <time>2019-01-13T22:55:10Z</time>
      </trkpt>
      <trkpt lat="41.954760" lon="3.010900">
        <ele>64.0</ele>
        <time>2019-01-13T22:55:11Z</time>
      </trkpt>
      <trkpt lat="41.954803" lon="3.010839">
        <ele>64.0</ele>
        <time>2019-01-13T22:55:12Z</time>
      </trkpt>
      <trkpt lat="41.954846" lon="3.010778">
        <ele>64.0</ele>
        <time>2019-01-13T22:55:13Z</time>
      </trkpt>
      <trkpt lat="41.954886" lon="3.010717">
        <ele>64.0</ele>
        <time>2019-01-13T22:55:14Z</time>
      </trkpt>
      <trkpt lat="41.954926" lon="3.010656">
        <ele>64.0</ele>
        <time>2019-01-13T22:55:15Z</time>
      </trkpt>
      <trkpt lat="41.955087" lon="3.010418">
        <ele>63.0</ele>
        <time>2019-01-13T22:55:19Z</time>
      </trkpt>
      <trkpt lat="41.955352" lon="3.010041">
        <ele>64.0</ele>
        <time>2019-01-13T22:55:25Z</time>
      </trkpt>
      <trkpt lat="41.955456" lon="3.009932">
        <ele>64.0</ele>
        <time>2019-01-13T22:55:27Z</time>
      </trkpt>
      <trkpt lat="41.955514" lon="3.009892">
        <ele>65.0</ele>
        <time>2019-01-13T22:55:28Z</time>
      </trkpt>
      <trkpt lat="41.955570" lon="3.009858">
        <ele>65.0</ele>
        <time>2019-01-13T22:55:29Z</time>
      </trkpt>
      <trkpt lat="41.955630" lon="3.009829">
        <ele>66.0</ele>
        <time>2019-01-13T22:55:30Z</time>
      </trkpt>
      <trkpt lat="41.955687" lon="3.009802">
        <ele>66.0</ele>
        <time>2019-01-13T22:55:31Z</time>
      </trkpt>
      <trkpt lat="41.955745" lon="3.009780">
        <ele>66.0</ele>
        <time>2019-01-13T22:55:32Z</time>
      </trkpt>
      <trkpt lat="41.955971" lon="3.009698">
        <ele>67.0</ele>
        <time>2019-01-13T22:55:36Z</time>
      </trkpt>
      <trkpt lat="41.956304" lon="3.009580">
        <ele>69.0</ele>
        <time>2019-01-13T22:55:41Z</time>
      </trkpt>
      <trkpt lat="41.956358" lon="3.009559">
        <ele>69.0</ele>
        <time>2019-01-13T22:55:42Z</time>
      </trkpt>
      <trkpt lat="41.956414" lon="3.009537">
        <ele>69.0</ele>
        <time>2019-01-13T22:55:43Z</time>
      </trkpt>
      <trkpt lat="41.956469" lon="3.009515">
        <ele>69.0</ele>
        <time>2019-01-13T22:55:44Z</time>
      </trkpt>
      <trkpt lat="41.956529" lon="3.009495">
        <ele>69.0</ele>
        <time>2019-01-13T22:55:45Z</time>
      </trkpt>
      <trkpt lat="41.956767" lon="3.009410">
        <ele>71.0</ele>
        <time>2019-01-13T22:55:49Z</time>
      </trkpt>
      <trkpt lat="41.956921" lon="3.009338">
        <ele>72.0</ele>
        <time>2019-01-13T22:55:52Z</time>
      </trkpt>
      <trkpt lat="41.957120" lon="3.009269">
        <ele>73.0</ele>
        <time>2019-01-13T22:55:55Z</time>
      </trkpt>
      <trkpt lat="41.957169" lon="3.009251">
        <ele>73.0</ele>
        <time>2019-01-13T22:55:56Z</time>
      </trkpt>
      <trkpt lat="41.957220" lon="3.009232">
        <ele>74.0</ele>
        <time>2019-01-13T22:55:57Z</time>
      </trkpt>
      <trkpt lat="41.957270" lon="3.009213">
        <ele>74.0</ele>
        <time>2019-01-13T22:55:57Z</time>
      </trkpt>
      <trkpt lat="41.957577" lon="3.009107">
        <ele>76.0</ele>
        <time>2019-01-13T22:56:02Z</time>
      </trkpt>
      <trkpt lat="41.957629" lon="3.009101">
        <ele>76.0</ele>
        <time>2019-01-13T22:56:03Z</time>
      </trkpt>
      <trkpt lat="41.957686" lon="3.009098">
        <ele>76.0</ele>
        <time>2019-01-13T22:56:04Z</time>
      </trkpt>
      <trkpt lat="41.957739" lon="3.009101">
        <ele>76.0</ele>
        <time>2019-01-13T22:56:05Z</time>
      </trkpt>
      <trkpt lat="41.957789" lon="3.009105">
        <ele>76.0</ele>
        <time>2019-01-13T22:56:06Z</time>
      </trkpt>
      <trkpt lat="41.957838" lon="3.009109">
        <ele>76.0</ele>
        <time>2019-01-13T22:56:07Z</time>
      </trkpt>
      <trkpt lat="41.957888" lon="3.009114">
        <ele>77.0</ele>
        <time>2019-01-13T22:56:07Z</time>
      </trkpt>
      <trkpt lat="41.958095" lon="3.009141">
        <ele>77.0</ele>
        <time>2019-01-13T22:56:11Z</time>
      </trkpt>
      <trkpt lat="41.958198" lon="3.009165">
        <ele>78.0</ele>
        <time>2019-01-13T22:56:12Z</time>
      </trkpt>
      <trkpt lat="41.958250" lon="3.009174">
        <ele>78.0</ele>
        <time>2019-01-13T22:56:13Z</time>
      </trkpt>
      <trkpt lat="41.958301" lon="3.009183">
        <ele>78.0</ele>
        <time>2019-01-13T22:56:14Z</time>
      </trkpt>
      <trkpt lat="41.958351" lon="3.009187">
        <ele>78.0</ele>
        <time>2019-01-13T22:56:15Z</time>
      </trkpt>
      <trkpt lat="41.958399" lon="3.009187">
        <ele>78.0</ele>
        <time>2019-01-13T22:56:16Z</time>
      </trkpt>
      <trkpt lat="41.958446" lon="3.009184">
        <ele>78.0</ele>
        <time>2019-01-13T22:56:16Z</time>
      </trkpt>
      <trkpt lat="41.958494" lon="3.009175">
        <ele>79.0</ele>
        <time>2019-01-13T22:56:17Z</time>
      </trkpt>
      <trkpt lat="41.958540" lon="3.009163">
        <ele>79.0</ele>
        <time>2019-01-13T22:56:18Z</time>
      </trkpt>
      <trkpt lat="41.958581" lon="3.009147">
        <ele>79.0</ele>
        <time>2019-01-13T22:56:19Z</time>
      </trkpt>
      <trkpt lat="41.958624" lon="3.009131">
        <ele>79.0</ele>
        <time>2019-01-13T22:56:19Z</time>
      </trkpt>
      <trkpt lat="41.958664" lon="3.009115">
        <ele>79.0</ele>
        <time>2019-01-13T22:56:20Z</time>
      </trkpt>
      <trkpt lat="41.958704" lon="3.009095">
        <ele>79.0</ele>
        <time>2019-01-13T22:56:21Z</time>
      </trkpt>
      <trkpt lat="41.958744" lon="3.009074">
        <ele>79.0</ele>
        <time>2019-01-13T22:56:21Z</time>
      </trkpt>
      <trkpt lat="41.958788" lon="3.009045">
        <ele>80.0</ele>
        <time>2019-01-13T22:56:22Z</time>
      </trkpt>
      <trkpt lat="41.958955" lon="3.008917">
        <ele>81.0</ele>
        <time>2019-01-13T22:56:25Z</time>
      </trkpt>
      <trkpt lat="41.958995" lon="3.008889">
        <ele>81.0</ele>
        <time>2019-01-13T22:56:26Z</time>
      </trkpt>
      <trkpt lat="41.959116" lon="3.008812">
        <ele>82.0</ele>
        <time>2019-01-13T22:56:28Z</time>
      </trkpt>
      <trkpt lat="41.959156" lon="3.008789">
        <ele>82.0</ele>
        <time>2019-01-13T22:56:29Z</time>
      </trkpt>
      <trkpt lat="41.959194" lon="3.008759">
        <ele>82.0</ele>
        <time>2019-01-13T22:56:29Z</time>
      </trkpt>
      <trkpt lat="41.959228" lon="3.008725">
        <ele>82.0</ele>
        <time>2019-01-13T22:56:30Z</time>
      </trkpt>
      <trkpt lat="41.959258" lon="3.008682">
        <ele>82.0</ele>
        <time>2019-01-13T22:56:31Z</time>
      </trkpt>
      <trkpt lat="41.959319" lon="3.008465">
        <ele>83.0</ele>
        <time>2019-01-13T22:56:34Z</time>
      </trkpt>
      <trkpt lat="41.959318" lon="3.008406">
        <ele>83.0</ele>
        <time>2019-01-13T22:56:34Z</time>
      </trkpt>
      <trkpt lat="41.959311" lon="3.008345">
        <ele>84.0</ele>
        <time>2019-01-13T22:56:35Z</time>
      </trkpt>
      <trkpt lat="41.959297" lon="3.008287">
        <ele>84.0</ele>
        <time>2019-01-13T22:56:36Z</time>
      </trkpt>
      <trkpt lat="41.959275" lon="3.008228">
        <ele>84.0</ele>
        <time>2019-01-13T22:56:37Z</time>
      </trkpt>
      <trkpt lat="41.959195" lon="3.008052">
        <ele>85.0</ele>
        <time>2019-01-13T22:56:39Z</time>
      </trkpt>
      <trkpt lat="41.959108" lon="3.007902">
        <ele>85.0</ele>
        <time>2019-01-13T22:56:41Z</time>
      </trkpt>
      <trkpt lat="41.959082" lon="3.007851">
        <ele>85.0</ele>
        <time>2019-01-13T22:56:42Z</time>
      </trkpt>
      <trkpt lat="41.959054" lon="3.007798">
        <ele>85.0</ele>
        <time>2019-01-13T22:56:43Z</time>
      </trkpt>
      <trkpt lat="41.959023" lon="3.007744">
        <ele>85.0</ele>
        <time>2019-01-13T22:56:44Z</time>
      </trkpt>
      <trkpt lat="41.958991" lon="3.007687">
        <ele>85.0</ele>
        <time>2019-01-13T22:56:44Z</time>
      </trkpt>
      <trkpt lat="41.958933" lon="3.007564">
        <ele>85.0</ele>
        <time>2019-01-13T22:56:46Z</time>
      </trkpt>
      <trkpt lat="41.958849" lon="3.007294">
        <ele>85.0</ele>
        <time>2019-01-13T22:56:50Z</time>
      </trkpt>
      <trkpt lat="41.958831" lon="3.007218">
        <ele>85.0</ele>
        <time>2019-01-13T22:56:51Z</time>
      </trkpt>
      <trkpt lat="41.958820" lon="3.007145">
        <ele>85.0</ele>
        <time>2019-01-13T22:56:52Z</time>
      </trkpt>
      <trkpt lat="41.958819" lon="3.007079">
        <ele>85.0</ele>
        <time>2019-01-13T22:56:52Z</time>
      </trkpt>
      <trkpt lat="41.958826" lon="3.007014">
        <ele>85.0</ele>
        <time>2019-01-13T22:56:53Z</time>
      </trkpt>
      <trkpt lat="41.958856" lon="3.006889">
        <ele>85.0</ele>
        <time>2019-01-13T22:56:55Z</time>
      </trkpt>
      <trkpt lat="41.958876" lon="3.006827">
        <ele>85.0</ele>
        <time>2019-01-13T22:56:55Z</time>
      </trkpt>
      <trkpt lat="41.958897" lon="3.006762">
        <ele>85.0</ele>
        <time>2019-01-13T22:56:56Z</time>
      </trkpt>
      <trkpt lat="41.958917" lon="3.006694">
        <ele>85.0</ele>
        <time>2019-01-13T22:56:57Z</time>
      </trkpt>
      <trkpt lat="41.958937" lon="3.006629">
        <ele>85.0</ele>
        <time>2019-01-13T22:56:58Z</time>
      </trkpt>
      <trkpt lat="41.958996" lon="3.006428">
        <ele>86.0</ele>
        <time>2019-01-13T22:57:01Z</time>
      </trkpt>
      <trkpt lat="41.959061" lon="3.006227">
        <ele>86.0</ele>
        <time>2019-01-13T22:57:03Z</time>
      </trkpt>
      <trkpt lat="41.959108" lon="3.006086">
        <ele>86.0</ele>
        <time>2019-01-13T22:57:05Z</time>
      </trkpt>
      <trkpt lat="41.959151" lon="3.005942">
        <ele>86.0</ele>
        <time>2019-01-13T22:57:07Z</time>
      </trkpt>
      <trkpt lat="41.959175" lon="3.005867">
        <ele>86.0</ele>
        <time>2019-01-13T22:57:08Z</time>
      </trkpt>
      <trkpt lat="41.959295" lon="3.005482">
        <ele>86.0</ele>
        <time>2019-01-13T22:57:13Z</time>
      </trkpt>
      <trkpt lat="41.959370" lon="3.005245">
        <ele>86.0</ele>
        <time>2019-01-13T22:57:16Z</time>
      </trkpt>
      <trkpt lat="41.959395" lon="3.005165">
        <ele>86.0</ele>
        <time>2019-01-13T22:57:17Z</time>
      </trkpt>
      <trkpt lat="41.959634" lon="3.004427">
        <ele>87.0</ele>
        <time>2019-01-13T22:57:26Z</time>
      </trkpt>
      <trkpt lat="41.959660" lon="3.004343">
        <ele>88.0</ele>
        <time>2019-01-13T22:57:28Z</time>
      </trkpt>
      <trkpt lat="41.959768" lon="3.003915">
        <ele>89.0</ele>
        <time>2019-01-13T22:57:33Z</time>
      </trkpt>
      <trkpt lat="41.959761" lon="3.003736">
        <ele>89.0</ele>
        <time>2019-01-13T22:57:35Z</time>
      </trkpt>
      <trkpt lat="41.959707" lon="3.003577">
        <ele>89.0</ele>
        <time>2019-01-13T22:57:37Z</time>
      </trkpt>
      <trkpt lat="41.959670" lon="3.003501">
        <ele>89.0</ele>
        <time>2019-01-13T22:57:38Z</time>
      </trkpt>
      <trkpt lat="41.959634" lon="3.003430">
        <ele>90.0</ele>
        <time>2019-01-13T22:57:39Z</time>
      </trkpt>
      <trkpt lat="41.959599" lon="3.003358">
        <ele>90.0</ele>
        <time>2019-01-13T22:57:40Z</time>
      </trkpt>
      <trkpt lat="41.959564" lon="3.003290">
        <ele>90.0</ele>
        <time>2019-01-13T22:57:41Z</time>
      </trkpt>
      <trkpt lat="41.959500" lon="3.003151">
        <ele>90.0</ele>
        <time>2019-01-13T22:57:43Z</time>
      </trkpt>
      <trkpt lat="41.959469" lon="3.003079">
        <ele>91.0</ele>
        <time>2019-01-13T22:57:44Z</time>
      </trkpt>
      <trkpt lat="41.959436" lon="3.003020">
        <ele>91.0</ele>
        <time>2019-01-13T22:57:45Z</time>
      </trkpt>
      <trkpt lat="41.959398" lon="3.002961">
        <ele>91.0</ele>
        <time>2019-01-13T22:57:46Z</time>
      </trkpt>
      <trkpt lat="41.959368" lon="3.002899">
        <ele>91.0</ele>
        <time>2019-01-13T22:57:47Z</time>
      </trkpt>
      <trkpt lat="41.959337" lon="3.002830">
        <ele>91.0</ele>
        <time>2019-01-13T22:57:48Z</time>
      </trkpt>
      <trkpt lat="41.959307" lon="3.002760">
        <ele>92.0</ele>
        <time>2019-01-13T22:57:49Z</time>
      </trkpt>
      <trkpt lat="41.959274" lon="3.002696">
        <ele>92.0</ele>
        <time>2019-01-13T22:57:50Z</time>
      </trkpt>
      <trkpt lat="41.959165" lon="3.002493">
        <ele>93.0</ele>
        <time>2019-01-13T22:57:53Z</time>
      </trkpt>
      <trkpt lat="41.959067" lon="3.002298">
        <ele>94.0</ele>
        <time>2019-01-13T22:57:56Z</time>
      </trkpt>
      <trkpt lat="41.959031" lon="3.002234">
        <ele>94.0</ele>
        <time>2019-01-13T22:57:56Z</time>
      </trkpt>
      <trkpt lat="41.958996" lon="3.002165">
        <ele>94.0</ele>
        <time>2019-01-13T22:57:57Z</time>
      </trkpt>
      <trkpt lat="41.958962" lon="3.002100">
        <ele>95.0</ele>
        <time>2019-01-13T22:57:58Z</time>
      </trkpt>
      <trkpt lat="41.958929" lon="3.002036">
        <ele>95.0</ele>
        <time>2019-01-13T22:57:59Z</time>
      </trkpt>
      <trkpt lat="41.958695" lon="3.001560">
        <ele>95.0</ele>
        <time>2019-01-13T22:58:06Z</time>
      </trkpt>
      <trkpt lat="41.958525" lon="3.001178">
        <ele>95.0</ele>
        <time>2019-01-13T22:58:11Z</time>
      </trkpt>
      <trkpt lat="41.958498" lon="3.001084">
        <ele>94.0</ele>
        <time>2019-01-13T22:58:13Z</time>
      </trkpt>
      <trkpt lat="41.958432" lon="3.000701">
        <ele>94.0</ele>
        <time>2019-01-13T22:58:17Z</time>
      </trkpt>
      <trkpt lat="41.958419" lon="3.000599">
        <ele>94.0</ele>
        <time>2019-01-13T22:58:19Z</time>
      </trkpt>
      <trkpt lat="41.958358" lon="3.000174">
        <ele>94.0</ele>
        <time>2019-01-13T22:58:24Z</time>
      </trkpt>
      <trkpt lat="41.958326" lon="2.999961">
        <ele>94.0</ele>
        <time>2019-01-13T22:58:26Z</time>
      </trkpt>
      <trkpt lat="41.958239" lon="2.999417">
        <ele>93.0</ele>
        <time>2019-01-13T22:58:33Z</time>
      </trkpt>
      <trkpt lat="41.958187" lon="2.999094">
        <ele>93.0</ele>
        <time>2019-01-13T22:58:37Z</time>
      </trkpt>
      <trkpt lat="41.958170" lon="2.998989">
        <ele>93.0</ele>
        <time>2019-01-13T22:58:38Z</time>
      </trkpt>
      <trkpt lat="41.958154" lon="2.998885">
        <ele>93.0</ele>
        <time>2019-01-13T22:58:39Z</time>
      </trkpt>
      <trkpt lat="41.958140" lon="2.998780">
        <ele>93.0</ele>
        <time>2019-01-13T22:58:41Z</time>
      </trkpt>
      <trkpt lat="41.958128" lon="2.998671">
        <ele>93.0</ele>
        <time>2019-01-13T22:58:42Z</time>
      </trkpt>
      <trkpt lat="41.958081" lon="2.998370">
        <ele>93.0</ele>
        <time>2019-01-13T22:58:46Z</time>
      </trkpt>
      <trkpt lat="41.958066" lon="2.998274">
        <ele>93.0</ele>
        <time>2019-01-13T22:58:47Z</time>
      </trkpt>
      <trkpt lat="41.958023" lon="2.998090">
        <ele>94.0</ele>
        <time>2019-01-13T22:58:49Z</time>
      </trkpt>
      <trkpt lat="41.957945" lon="2.997950">
        <ele>94.0</ele>
        <time>2019-01-13T22:58:51Z</time>
      </trkpt>
      <trkpt lat="41.957799" lon="2.997820">
        <ele>95.0</ele>
        <time>2019-01-13T22:58:54Z</time>
      </trkpt>
      <trkpt lat="41.957742" lon="2.997803">
        <ele>95.0</ele>
        <time>2019-01-13T22:58:55Z</time>
      </trkpt>
      <trkpt lat="41.957685" lon="2.997795">
        <ele>96.0</ele>
        <time>2019-01-13T22:58:56Z</time>
      </trkpt>
      <trkpt lat="41.957628" lon="2.997792">
        <ele>96.0</ele>
        <time>2019-01-13T22:58:57Z</time>
      </trkpt>
      <trkpt lat="41.957569" lon="2.997791">
        <ele>96.0</ele>
        <time>2019-01-13T22:58:58Z</time>
      </trkpt>
      <trkpt lat="41.957456" lon="2.997802">
        <ele>97.0</ele>
        <time>2019-01-13T22:59:00Z</time>
      </trkpt>
      <trkpt lat="41.957401" lon="2.997811">
        <ele>97.0</ele>
        <time>2019-01-13T22:59:00Z</time>
      </trkpt>
      <trkpt lat="41.957345" lon="2.997818">
        <ele>98.0</ele>
        <time>2019-01-13T22:59:01Z</time>
      </trkpt>
      <trkpt lat="41.957291" lon="2.997831">
        <ele>98.0</ele>
        <time>2019-01-13T22:59:02Z</time>
      </trkpt>
      <trkpt lat="41.957236" lon="2.997849">
        <ele>98.0</ele>
        <time>2019-01-13T22:59:03Z</time>
      </trkpt>
      <trkpt lat="41.957181" lon="2.997876">
        <ele>99.0</ele>
        <time>2019-01-13T22:59:04Z</time>
      </trkpt>
      <trkpt lat="41.957126" lon="2.997908">
        <ele>99.0</ele>
        <time>2019-01-13T22:59:05Z</time>
      </trkpt>
      <trkpt lat="41.957076" lon="2.997946">
        <ele>99.0</ele>
        <time>2019-01-13T22:59:06Z</time>
      </trkpt>
      <trkpt lat="41.957029" lon="2.997991">
        <ele>100.0</ele>
        <time>2019-01-13T22:59:07Z</time>
      </trkpt>
      <trkpt lat="41.956981" lon="2.998035">
        <ele>100.0</ele>
        <time>2019-01-13T22:59:08Z</time>
      </trkpt>
      <trkpt lat="41.956931" lon="2.998072">
        <ele>100.0</ele>
        <time>2019-01-13T22:59:09Z</time>
      </trkpt>
      <trkpt lat="41.956880" lon="2.998107">
        <ele>100.0</ele>
        <time>2019-01-13T22:59:10Z</time>
      </trkpt>
      <trkpt lat="41.956828" lon="2.998126">
        <ele>101.0</ele>
        <time>2019-01-13T22:59:10Z</time>
      </trkpt>
      <trkpt lat="41.956714" lon="2.998152">
        <ele>101.0</ele>
        <time>2019-01-13T22:59:12Z</time>
      </trkpt>
      <trkpt lat="41.956658" lon="2.998159">
        <ele>102.0</ele>
        <time>2019-01-13T22:59:13Z</time>
      </trkpt>
      <trkpt lat="41.956600" lon="2.998164">
        <ele>102.0</ele>
        <time>2019-01-13T22:59:14Z</time>
      </trkpt>
      <trkpt lat="41.956545" lon="2.998169">
        <ele>102.0</ele>
        <time>2019-01-13T22:59:15Z</time>
      </trkpt>
      <trkpt lat="41.956489" lon="2.998175">
        <ele>102.0</ele>
        <time>2019-01-13T22:59:16Z</time>
      </trkpt>
      <trkpt lat="41.956324" lon="2.998180">
        <ele>103.0</ele>
        <time>2019-01-13T22:59:19Z</time>
      </trkpt>
      <trkpt lat="41.956270" lon="2.998184">
        <ele>104.0</ele>
        <time>2019-01-13T22:59:19Z</time>
      </trkpt>
      <trkpt lat="41.956220" lon="2.998185">
        <ele>104.0</ele>
        <time>2019-01-13T22:59:20Z</time>
      </trkpt>
      <trkpt lat="41.956173" lon="2.998180">
        <ele>104.0</ele>
        <time>2019-01-13T22:59:21Z</time>
      </trkpt>
      <trkpt lat="41.956126" lon="2.998168">
        <ele>104.0</ele>
        <time>2019-01-13T22:59:22Z</time>
      </trkpt>
      <trkpt lat="41.956083" lon="2.998155">
        <ele>105.0</ele>
        <time>2019-01-13T22:59:22Z</time>
      </trkpt>
      <trkpt lat="41.956040" lon="2.998138">
        <ele>105.0</ele>
        <time>2019-01-13T22:59:23Z</time>
      </trkpt>
      <trkpt lat="41.955993" lon="2.998114">
        <ele>105.0</ele>
        <time>2019-01-13T22:59:24Z</time>
      </trkpt>
      <trkpt lat="41.955953" lon="2.998098">
        <ele>105.0</ele>
        <time>2019-01-13T22:59:25Z</time>
      </trkpt>
      <trkpt lat="41.955915" lon="2.998076">
        <ele>105.0</ele>
        <time>2019-01-13T22:59:25Z</time>
      </trkpt>
      <trkpt lat="41.955872" lon="2.998050">
        <ele>106.0</ele>
        <time>2019-01-13T22:59:26Z</time>
      </trkpt>
      <trkpt lat="41.955648" lon="2.997912">
        <ele>107.0</ele>
        <time>2019-01-13T22:59:30Z</time>
      </trkpt>
      <trkpt lat="41.955604" lon="2.997887">
        <ele>107.0</ele>
        <time>2019-01-13T22:59:31Z</time>
      </trkpt>
      <trkpt lat="41.955560" lon="2.997865">
        <ele>108.0</ele>
        <time>2019-01-13T22:59:32Z</time>
      </trkpt>
      <trkpt lat="41.955518" lon="2.997843">
        <ele>108.0</ele>
        <time>2019-01-13T22:59:32Z</time>
      </trkpt>
      <trkpt lat="41.955477" lon="2.997820">
        <ele>108.0</ele>
        <time>2019-01-13T22:59:33Z</time>
      </trkpt>
      <trkpt lat="41.955351" lon="2.997734">
        <ele>109.0</ele>
        <time>2019-01-13T22:59:35Z</time>
      </trkpt>
      <trkpt lat="41.955311" lon="2.997696">
        <ele>109.0</ele>
        <time>2019-01-13T22:59:36Z</time>
      </trkpt>
      <trkpt lat="41.955230" lon="2.997619">
        <ele>110.0</ele>
        <time>2019-01-13T22:59:38Z</time>
      </trkpt>
      <trkpt lat="41.955193" lon="2.997581">
        <ele>110.0</ele>
        <time>2019-01-13T22:59:38Z</time>
      </trkpt>
      <trkpt lat="41.955162" lon="2.997537">
        <ele>110.0</ele>
        <time>2019-01-13T22:59:39Z</time>
      </trkpt>
      <trkpt lat="41.955134" lon="2.997495">
        <ele>110.0</ele>
        <time>2019-01-13T22:59:40Z</time>
      </trkpt>
      <trkpt lat="41.955106" lon="2.997450">
        <ele>111.0</ele>
        <time>2019-01-13T22:59:40Z</time>
      </trkpt>
      <trkpt lat="41.955060" lon="2.997353">
        <ele>111.0</ele>
        <time>2019-01-13T22:59:42Z</time>
      </trkpt>
      <trkpt lat="41.955035" lon="2.997292">
        <ele>111.0</ele>
        <time>2019-01-13T22:59:43Z</time>
      </trkpt>
      <trkpt lat="41.955000" lon="2.997171">
        <ele>111.0</ele>
        <time>2019-01-13T22:59:44Z</time>
      </trkpt>
      <trkpt lat="41.954983" lon="2.997106">
        <ele>112.0</ele>
        <time>2019-01-13T22:59:45Z</time>
      </trkpt>
      <trkpt lat="41.954966" lon="2.997035">
        <ele>112.0</ele>
        <time>2019-01-13T22:59:46Z</time>
      </trkpt>
      <trkpt lat="41.954950" lon="2.996965">
        <ele>112.0</ele>
        <time>2019-01-13T22:59:47Z</time>
      </trkpt>
      <trkpt lat="41.954902" lon="2.996742">
        <ele>111.0</ele>
        <time>2019-01-13T22:59:50Z</time>
      </trkpt>
      <trkpt lat="41.954864" lon="2.996508">
        <ele>111.0</ele>
        <time>2019-01-13T22:59:52Z</time>
      </trkpt>
      <trkpt lat="41.954870" lon="2.996432">
        <ele>111.0</ele>
        <time>2019-01-13T22:59:53Z</time>
      </trkpt>
      <trkpt lat="41.954950" lon="2.996231">
        <ele>111.0</ele>
        <time>2019-01-13T22:59:56Z</time>
      </trkpt>
      <trkpt lat="41.955102" lon="2.996108">
        <ele>111.0</ele>
        <time>2019-01-13T22:59:59Z</time>
      </trkpt>
      <trkpt lat="41.955222" lon="2.996071">
        <ele>111.0</ele>
        <time>2019-01-13T23:00:01Z</time>
      </trkpt>
      <trkpt lat="41.955400" lon="2.996016">
        <ele>111.0</ele>
        <time>2019-01-13T23:00:04Z</time>
      </trkpt>
      <trkpt lat="41.955646" lon="2.995943">
        <ele>111.0</ele>
        <time>2019-01-13T23:00:08Z</time>
      </trkpt>
      <trkpt lat="41.955767" lon="2.995912">
        <ele>111.0</ele>
        <time>2019-01-13T23:00:10Z</time>
      </trkpt>
      <trkpt lat="41.955830" lon="2.995892">
        <ele>111.0</ele>
        <time>2019-01-13T23:00:11Z</time>
      </trkpt>
      <trkpt lat="41.956276" lon="2.995739">
        <ele>111.0</ele>
        <time>2019-01-13T23:00:18Z</time>
      </trkpt>
      <trkpt lat="41.956813" lon="2.995580">
        <ele>111.0</ele>
        <time>2019-01-13T23:00:27Z</time>
      </trkpt>
      <trkpt lat="41.957083" lon="2.995501">
        <ele>111.0</ele>
        <time>2019-01-13T23:00:31Z</time>
      </trkpt>
      <trkpt lat="41.957290" lon="2.995438">
        <ele>111.0</ele>
        <time>2019-01-13T23:00:35Z</time>
      </trkpt>
      <trkpt lat="41.957358" lon="2.995420">
        <ele>111.0</ele>
        <time>2019-01-13T23:00:36Z</time>
      </trkpt>
      <trkpt lat="41.957492" lon="2.995369">
        <ele>111.0</ele>
        <time>2019-01-13T23:00:38Z</time>
      </trkpt>
      <trkpt lat="41.957598" lon="2.995247">
        <ele>111.0</ele>
        <time>2019-01-13T23:00:40Z</time>
      </trkpt>
      <trkpt lat="41.957642" lon="2.994978">
        <ele>111.0</ele>
        <time>2019-01-13T23:00:44Z</time>
      </trkpt>
      <trkpt lat="41.957638" lon="2.994884">
        <ele>111.0</ele>
        <time>2019-01-13T23:00:45Z</time>
      </trkpt>
      <trkpt lat="41.957638" lon="2.994406">
        <ele>111.0</ele>
        <time>2019-01-13T23:00:50Z</time>
      </trkpt>
      <trkpt lat="41.957631" lon="2.994225">
        <ele>111.0</ele>
        <time>2019-01-13T23:00:53Z</time>
      </trkpt>
      <trkpt lat="41.957613" lon="2.994136">
        <ele>111.0</ele>
        <time>2019-01-13T23:00:54Z</time>
      </trkpt>
      <trkpt lat="41.957549" lon="2.993972">
        <ele>111.0</ele>
        <time>2019-01-13T23:00:56Z</time>
      </trkpt>
      <trkpt lat="41.957344" lon="2.993724">
        <ele>112.0</ele>
        <time>2019-01-13T23:01:00Z</time>
      </trkpt>
      <trkpt lat="41.957291" lon="2.993677">
        <ele>112.0</ele>
        <time>2019-01-13T23:01:01Z</time>
      </trkpt>
      <trkpt lat="41.956899" lon="2.993343">
        <ele>112.0</ele>
        <time>2019-01-13T23:01:09Z</time>
      </trkpt>
      <trkpt lat="41.956805" lon="2.993235">
        <ele>112.0</ele>
        <time>2019-01-13T23:01:11Z</time>
      </trkpt>
      <trkpt lat="41.956739" lon="2.993100">
        <ele>112.0</ele>
        <time>2019-01-13T23:01:13Z</time>
      </trkpt>
      <trkpt lat="41.956669" lon="2.992903">
        <ele>112.0</ele>
        <time>2019-01-13T23:01:15Z</time>
      </trkpt>
      <trkpt lat="41.956642" lon="2.992802">
        <ele>111.0</ele>
        <time>2019-01-13T23:01:17Z</time>
      </trkpt>
      <trkpt lat="41.956626" lon="2.992793">
        <ele>111.0</ele>
        <time>2019-01-13T23:01:17Z</time>
      </trkpt>
      <trkpt lat="41.956571" lon="2.992668">
        <ele>112.0</ele>
        <time>2019-01-13T23:01:19Z</time>
      </trkpt>
      <trkpt lat="41.956539" lon="2.992574">
        <ele>112.0</ele>
        <time>2019-01-13T23:01:20Z</time>
      </trkpt>
      <trkpt lat="41.956514" lon="2.992516">
        <ele>112.0</ele>
        <time>2019-01-13T23:01:21Z</time>
      </trkpt>
      <trkpt lat="41.956498" lon="2.992462">
        <ele>112.0</ele>
        <time>2019-01-13T23:01:21Z</time>
      </trkpt>
      <trkpt lat="41.956488" lon="2.992448">
        <ele>112.0</ele>
        <time>2019-01-13T23:01:21Z</time>
      </trkpt>
      <trkpt lat="41.956447" lon="2.992356">
        <ele>112.0</ele>
        <time>2019-01-13T23:01:23Z</time>
      </trkpt>
      <trkpt lat="41.956421" lon="2.992320">
        <ele>112.0</ele>
        <time>2019-01-13T23:01:23Z</time>
      </trkpt>
      <trkpt lat="41.956381" lon="2.992270">
        <ele>112.0</ele>
        <time>2019-01-13T23:01:24Z</time>
      </trkpt>
      <trkpt lat="41.956351" lon="2.992245">
        <ele>112.0</ele>
        <time>2019-01-13T23:01:25Z</time>
      </trkpt>
      <trkpt lat="41.956220" lon="2.992172">
        <ele>112.0</ele>
        <time>2019-01-13T23:01:27Z</time>
      </trkpt>
      <trkpt lat="41.956122" lon="2.992163">
        <ele>113.0</ele>
        <time>2019-01-13T23:01:29Z</time>
      </trkpt>
      <trkpt lat="41.955999" lon="2.992184">
        <ele>113.0</ele>
        <time>2019-01-13T23:01:31Z</time>
      </trkpt>
      <trkpt lat="41.955855" lon="2.992193">
        <ele>113.0</ele>
        <time>2019-01-13T23:01:33Z</time>
      </trkpt>
      <trkpt lat="41.955649" lon="2.992207">
        <ele>113.0</ele>
        <time>2019-01-13T23:01:36Z</time>
      </trkpt>
      <trkpt lat="41.955466" lon="2.992226">
        <ele>112.0</ele>
        <time>2019-01-13T23:01:39Z</time>
      </trkpt>
      <trkpt lat="41.955300" lon="2.992238">
        <ele>112.0</ele>
        <time>2019-01-13T23:01:42Z</time>
      </trkpt>
      <trkpt lat="41.955152" lon="2.992238">
        <ele>111.0</ele>
        <time>2019-01-13T23:01:44Z</time>
      </trkpt>
      <trkpt lat="41.954857" lon="2.992191">
        <ele>110.0</ele>
        <time>2019-01-13T23:01:49Z</time>
      </trkpt>
      <trkpt lat="41.954741" lon="2.991997">
        <ele>111.0</ele>
        <time>2019-01-13T23:01:52Z</time>
      </trkpt>
      <trkpt lat="41.954680" lon="2.991682">
        <ele>111.0</ele>
        <time>2019-01-13T23:01:56Z</time>
      </trkpt>
      <trkpt lat="41.954673" lon="2.991548">
        <ele>111.0</ele>
        <time>2019-01-13T23:01:57Z</time>
      </trkpt>
      <trkpt lat="41.954668" lon="2.991338">
        <ele>111.0</ele>
        <time>2019-01-13T23:02:00Z</time>
      </trkpt>
      <trkpt lat="41.954665" lon="2.991267">
        <ele>111.0</ele>
        <time>2019-01-13T23:02:01Z</time>
      </trkpt>
      <trkpt lat="41.954633" lon="2.990754">
        <ele>110.0</ele>
        <time>2019-01-13T23:02:07Z</time>
      </trkpt>
      <trkpt lat="41.954611" lon="2.990362">
        <ele>110.0</ele>
        <time>2019-01-13T23:02:12Z</time>
      </trkpt>
      <trkpt lat="41.954597" lon="2.990126">
        <ele>111.0</ele>
        <time>2019-01-13T23:02:14Z</time>
      </trkpt>
      <trkpt lat="41.954564" lon="2.989497">
        <ele>113.0</ele>
        <time>2019-01-13T23:02:22Z</time>
      </trkpt>
      <trkpt lat="41.954530" lon="2.988940">
        <ele>115.0</ele>
        <time>2019-01-13T23:02:29Z</time>
      </trkpt>
      <trkpt lat="41.954550" lon="2.988783">
        <ele>116.0</ele>
        <time>2019-01-13T23:02:30Z</time>
      </trkpt>
      <trkpt lat="41.954606" lon="2.988653">
        <ele>116.0</ele>
        <time>2019-01-13T23:02:32Z</time>
      </trkpt>
      <trkpt lat="41.954785" lon="2.988487">
        <ele>117.0</ele>
        <time>2019-01-13T23:02:36Z</time>
      </trkpt>
      <trkpt lat="41.954955" lon="2.988455">
        <ele>117.0</ele>
        <time>2019-01-13T23:02:38Z</time>
      </trkpt>
      <trkpt lat="41.955011" lon="2.988447">
        <ele>117.0</ele>
        <time>2019-01-13T23:02:39Z</time>
      </trkpt>
      <trkpt lat="41.955452" lon="2.988383">
        <ele>118.0</ele>
        <time>2019-01-13T23:02:46Z</time>
      </trkpt>
      <trkpt lat="41.955726" lon="2.988304">
        <ele>118.0</ele>
        <time>2019-01-13T23:02:51Z</time>
      </trkpt>
      <trkpt lat="41.955773" lon="2.988266">
        <ele>118.0</ele>
        <time>2019-01-13T23:02:52Z</time>
      </trkpt>
      <trkpt lat="41.955912" lon="2.988126">
        <ele>118.0</ele>
        <time>2019-01-13T23:02:55Z</time>
      </trkpt>
      <trkpt lat="41.956041" lon="2.987966">
        <ele>118.0</ele>
        <time>2019-01-13T23:02:57Z</time>
      </trkpt>
      <trkpt lat="41.956075" lon="2.987903">
        <ele>118.0</ele>
        <time>2019-01-13T23:02:58Z</time>
      </trkpt>
      <trkpt lat="41.956117" lon="2.987693">
        <ele>118.0</ele>
        <time>2019-01-13T23:03:01Z</time>
      </trkpt>
      <trkpt lat="41.956093" lon="2.987615">
        <ele>117.0</ele>
        <time>2019-01-13T23:03:02Z</time>
      </trkpt>
      <trkpt lat="41.956061" lon="2.987535">
        <ele>117.0</ele>
        <time>2019-01-13T23:03:03Z</time>
      </trkpt>
      <trkpt lat="41.956027" lon="2.987464">
        <ele>117.0</ele>
        <time>2019-01-13T23:03:04Z</time>
      </trkpt>
      <trkpt lat="41.955995" lon="2.987397">
        <ele>117.0</ele>
        <time>2019-01-13T23:03:05Z</time>
      </trkpt>
      <trkpt lat="41.955962" lon="2.987329">
        <ele>117.0</ele>
        <time>2019-01-13T23:03:06Z</time>
      </trkpt>
      <trkpt lat="41.955851" lon="2.987060">
        <ele>117.0</ele>
        <time>2019-01-13T23:03:10Z</time>
      </trkpt>
      <trkpt lat="41.955735" lon="2.986785">
        <ele>117.0</ele>
        <time>2019-01-13T23:03:13Z</time>
      </trkpt>
      <trkpt lat="41.955718" lon="2.986708">
        <ele>117.0</ele>
        <time>2019-01-13T23:03:14Z</time>
      </trkpt>
      <trkpt lat="41.955734" lon="2.986475">
        <ele>116.0</ele>
        <time>2019-01-13T23:03:17Z</time>
      </trkpt>
      <trkpt lat="41.955856" lon="2.986255">
        <ele>116.0</ele>
        <time>2019-01-13T23:03:20Z</time>
      </trkpt>
      <trkpt lat="41.955982" lon="2.986079">
        <ele>116.0</ele>
        <time>2019-01-13T23:03:23Z</time>
      </trkpt>
      <trkpt lat="41.956019" lon="2.986015">
        <ele>116.0</ele>
        <time>2019-01-13T23:03:24Z</time>
      </trkpt>
      <trkpt lat="41.956053" lon="2.985947">
        <ele>115.0</ele>
        <time>2019-01-13T23:03:25Z</time>
      </trkpt>
      <trkpt lat="41.956153" lon="2.985681">
        <ele>115.0</ele>
        <time>2019-01-13T23:03:29Z</time>
      </trkpt>
      <trkpt lat="41.956198" lon="2.985544">
        <ele>115.0</ele>
        <time>2019-01-13T23:03:31Z</time>
      </trkpt>
      <trkpt lat="41.956213" lon="2.985470">
        <ele>115.0</ele>
        <time>2019-01-13T23:03:31Z</time>
      </trkpt>
      <trkpt lat="41.956222" lon="2.985393">
        <ele>115.0</ele>
        <time>2019-01-13T23:03:32Z</time>
      </trkpt>
      <trkpt lat="41.956225" lon="2.985315">
        <ele>115.0</ele>
        <time>2019-01-13T23:03:33Z</time>
      </trkpt>
      <trkpt lat="41.956220" lon="2.985233">
        <ele>115.0</ele>
        <time>2019-01-13T23:03:34Z</time>
      </trkpt>
      <trkpt lat="41.956205" lon="2.985152">
        <ele>115.0</ele>
        <time>2019-01-13T23:03:35Z</time>
      </trkpt>
      <trkpt lat="41.956192" lon="2.985073">
        <ele>115.0</ele>
        <time>2019-01-13T23:03:36Z</time>
      </trkpt>
      <trkpt lat="41.956122" lon="2.984618">
        <ele>115.0</ele>
        <time>2019-01-13T23:03:42Z</time>
      </trkpt>
      <trkpt lat="41.956031" lon="2.984011">
        <ele>116.0</ele>
        <time>2019-01-13T23:03:49Z</time>
      </trkpt>
      <trkpt lat="41.956020" lon="2.983935">
        <ele>116.0</ele>
        <time>2019-01-13T23:03:50Z</time>
      </trkpt>
      <trkpt lat="41.956009" lon="2.983860">
        <ele>116.0</ele>
        <time>2019-01-13T23:03:51Z</time>
      </trkpt>
      <trkpt lat="41.955996" lon="2.983786">
        <ele>116.0</ele>
        <time>2019-01-13T23:03:52Z</time>
      </trkpt>
      <trkpt lat="41.955981" lon="2.983707">
        <ele>116.0</ele>
        <time>2019-01-13T23:03:53Z</time>
      </trkpt>
      <trkpt lat="41.955909" lon="2.983255">
        <ele>117.0</ele>
        <time>2019-01-13T23:03:58Z</time>
      </trkpt>
      <trkpt lat="41.955794" lon="2.982581">
        <ele>118.0</ele>
        <time>2019-01-13T23:04:07Z</time>
      </trkpt>
      <trkpt lat="41.955718" lon="2.982140">
        <ele>119.0</ele>
        <time>2019-01-13T23:04:12Z</time>
      </trkpt>
      <trkpt lat="41.955703" lon="2.982059">
        <ele>119.0</ele>
        <time>2019-01-13T23:04:13Z</time>
      </trkpt>
      <trkpt lat="41.955692" lon="2.981984">
        <ele>119.0</ele>
        <time>2019-01-13T23:04:14Z</time>
      </trkpt>
      <trkpt lat="41.955679" lon="2.981907">
        <ele>119.0</ele>
        <time>2019-01-13T23:04:15Z</time>
      </trkpt>
      <trkpt lat="41.955668" lon="2.981830">
        <ele>120.0</ele>
        <time>2019-01-13T23:04:16Z</time>
      </trkpt>
      <trkpt lat="41.955570" lon="2.981221">
        <ele>121.0</ele>
        <time>2019-01-13T23:04:23Z</time>
      </trkpt>
      <trkpt lat="41.955491" lon="2.980692">
        <ele>121.0</ele>
        <time>2019-01-13T23:04:30Z</time>
      </trkpt>
      <trkpt lat="41.955481" lon="2.980619">
        <ele>122.0</ele>
        <time>2019-01-13T23:04:30Z</time>
      </trkpt>
      <trkpt lat="41.955468" lon="2.980546">
        <ele>122.0</ele>
        <time>2019-01-13T23:04:31Z</time>
      </trkpt>
      <trkpt lat="41.955456" lon="2.980471">
        <ele>122.0</ele>
        <time>2019-01-13T23:04:32Z</time>
      </trkpt>
      <trkpt lat="41.955443" lon="2.980397">
        <ele>122.0</ele>
        <time>2019-01-13T23:04:33Z</time>
      </trkpt>
      <trkpt lat="41.955432" lon="2.980326">
        <ele>122.0</ele>
        <time>2019-01-13T23:04:34Z</time>
      </trkpt>
      <trkpt lat="41.955393" lon="2.980096">
        <ele>122.0</ele>
        <time>2019-01-13T23:04:37Z</time>
      </trkpt>
      <trkpt lat="41.955333" lon="2.979777">
        <ele>122.0</ele>
        <time>2019-01-13T23:04:41Z</time>
      </trkpt>
      <trkpt lat="41.955290" lon="2.979527">
        <ele>121.0</ele>
        <time>2019-01-13T23:04:44Z</time>
      </trkpt>
      <trkpt lat="41.955237" lon="2.979195">
        <ele>121.0</ele>
        <time>2019-01-13T23:04:48Z</time>
      </trkpt>
      <trkpt lat="41.955208" lon="2.979030">
        <ele>121.0</ele>
        <time>2019-01-13T23:04:50Z</time>
      </trkpt>
      <trkpt lat="41.955153" lon="2.978683">
        <ele>121.0</ele>
        <time>2019-01-13T23:04:54Z</time>
      </trkpt>
      <trkpt lat="41.955084" lon="2.978237">
        <ele>121.0</ele>
        <time>2019-01-13T23:05:00Z</time>
      </trkpt>
      <trkpt lat="41.955052" lon="2.978059">
        <ele>120.0</ele>
        <time>2019-01-13T23:05:02Z</time>
      </trkpt>
      <trkpt lat="41.955028" lon="2.977973">
        <ele>120.0</ele>
        <time>2019-01-13T23:05:03Z</time>
      </trkpt>
      <trkpt lat="41.954889" lon="2.977753">
        <ele>120.0</ele>
        <time>2019-01-13T23:05:06Z</time>
      </trkpt>
      <trkpt lat="41.954690" lon="2.977662">
        <ele>119.0</ele>
        <time>2019-01-13T23:05:10Z</time>
      </trkpt>
      <trkpt lat="41.954540" lon="2.977652">
        <ele>119.0</ele>
        <time>2019-01-13T23:05:12Z</time>
      </trkpt>
      <trkpt lat="41.954464" lon="2.977649">
        <ele>119.0</ele>
        <time>2019-01-13T23:05:13Z</time>
      </trkpt>
      <trkpt lat="41.954383" lon="2.977649">
        <ele>119.0</ele>
        <time>2019-01-13T23:05:15Z</time>
      </trkpt>
      <trkpt lat="41.954304" lon="2.977649">
        <ele>118.0</ele>
        <time>2019-01-13T23:05:16Z</time>
      </trkpt>
      <trkpt lat="41.954224" lon="2.977649">
        <ele>118.0</ele>
        <time>2019-01-13T23:05:17Z</time>
      </trkpt>
      <trkpt lat="41.954144" lon="2.977645">
        <ele>118.0</ele>
        <time>2019-01-13T23:05:18Z</time>
      </trkpt>
      <trkpt lat="41.954063" lon="2.977641">
        <ele>118.0</ele>
        <time>2019-01-13T23:05:20Z</time>
      </trkpt>
      <trkpt lat="41.953979" lon="2.977638">
        <ele>118.0</ele>
        <time>2019-01-13T23:05:21Z</time>
      </trkpt>
      <trkpt lat="41.953890" lon="2.977630">
        <ele>118.0</ele>
        <time>2019-01-13T23:05:22Z</time>
      </trkpt>
      <trkpt lat="41.953805" lon="2.977617">
        <ele>117.0</ele>
        <time>2019-01-13T23:05:24Z</time>
      </trkpt>
      <trkpt lat="41.953722" lon="2.977585">
        <ele>117.0</ele>
        <time>2019-01-13T23:05:25Z</time>
      </trkpt>
      <trkpt lat="41.953650" lon="2.977529">
        <ele>116.0</ele>
        <time>2019-01-13T23:05:27Z</time>
      </trkpt>
      <trkpt lat="41.953581" lon="2.977454">
        <ele>116.0</ele>
        <time>2019-01-13T23:05:28Z</time>
      </trkpt>
      <trkpt lat="41.953520" lon="2.977370">
        <ele>115.0</ele>
        <time>2019-01-13T23:05:29Z</time>
      </trkpt>
      <trkpt lat="41.953457" lon="2.977285">
        <ele>115.0</ele>
        <time>2019-01-13T23:05:31Z</time>
      </trkpt>
      <trkpt lat="41.953388" lon="2.977197">
        <ele>114.0</ele>
        <time>2019-01-13T23:05:32Z</time>
      </trkpt>
      <trkpt lat="41.953322" lon="2.977112">
        <ele>114.0</ele>
        <time>2019-01-13T23:05:34Z</time>
      </trkpt>
      <trkpt lat="41.953251" lon="2.977027">
        <ele>113.0</ele>
        <time>2019-01-13T23:05:35Z</time>
      </trkpt>
      <trkpt lat="41.953184" lon="2.976938">
        <ele>113.0</ele>
        <time>2019-01-13T23:05:37Z</time>
      </trkpt>
      <trkpt lat="41.953118" lon="2.976852">
        <ele>112.0</ele>
        <time>2019-01-13T23:05:38Z</time>
      </trkpt>
      <trkpt lat="41.953046" lon="2.976762">
        <ele>111.0</ele>
        <time>2019-01-13T23:05:40Z</time>
      </trkpt>
      <trkpt lat="41.952974" lon="2.976672">
        <ele>110.0</ele>
        <time>2019-01-13T23:05:41Z</time>
      </trkpt>
      <trkpt lat="41.952890" lon="2.976588">
        <ele>110.0</ele>
        <time>2019-01-13T23:05:43Z</time>
      </trkpt>
      <trkpt lat="41.952707" lon="2.976474">
        <ele>109.0</ele>
        <time>2019-01-13T23:05:46Z</time>
      </trkpt>
      <trkpt lat="41.952607" lon="2.976440">
        <ele>108.0</ele>
        <time>2019-01-13T23:05:48Z</time>
      </trkpt>
      <trkpt lat="41.952506" lon="2.976409">
        <ele>108.0</ele>
        <time>2019-01-13T23:05:50Z</time>
      </trkpt>
      <trkpt lat="41.952404" lon="2.976385">
        <ele>107.0</ele>
        <time>2019-01-13T23:05:51Z</time>
      </trkpt>
      <trkpt lat="41.952300" lon="2.976367">
        <ele>107.0</ele>
        <time>2019-01-13T23:05:53Z</time>
      </trkpt>
      <trkpt lat="41.952199" lon="2.976347">
        <ele>106.0</ele>
        <time>2019-01-13T23:05:55Z</time>
      </trkpt>
      <trkpt lat="41.952088" lon="2.976326">
        <ele>106.0</ele>
        <time>2019-01-13T23:05:56Z</time>
      </trkpt>
      <trkpt lat="41.951982" lon="2.976301">
        <ele>105.0</ele>
        <time>2019-01-13T23:05:58Z</time>
      </trkpt>
      <trkpt lat="41.951876" lon="2.976279">
        <ele>104.0</ele>
        <time>2019-01-13T23:06:00Z</time>
      </trkpt>
      <trkpt lat="41.951769" lon="2.976259">
        <ele>103.0</ele>
        <time>2019-01-13T23:06:02Z</time>
      </trkpt>
      <trkpt lat="41.951662" lon="2.976239">
        <ele>103.0</ele>
        <time>2019-01-13T23:06:03Z</time>
      </trkpt>
      <trkpt lat="41.951553" lon="2.976215">
        <ele>102.0</ele>
        <time>2019-01-13T23:06:05Z</time>
      </trkpt>
      <trkpt lat="41.951445" lon="2.976193">
        <ele>101.0</ele>
        <time>2019-01-13T23:06:07Z</time>
      </trkpt>
      <trkpt lat="41.951337" lon="2.976172">
        <ele>101.0</ele>
        <time>2019-01-13T23:06:09Z</time>
      </trkpt>
      <trkpt lat="41.951223" lon="2.976148">
        <ele>100.0</ele>
        <time>2019-01-13T23:06:10Z</time>
      </trkpt>
      <trkpt lat="41.951115" lon="2.976128">
        <ele>100.0</ele>
        <time>2019-01-13T23:06:12Z</time>
      </trkpt>
      <trkpt lat="41.951006" lon="2.976104">
        <ele>99.0</ele>
        <time>2019-01-13T23:06:14Z</time>
      </trkpt>
      <trkpt lat="41.950897" lon="2.976077">
        <ele>99.0</ele>
        <time>2019-01-13T23:06:16Z</time>
      </trkpt>
      <trkpt lat="41.950787" lon="2.976049">
        <ele>99.0</ele>
        <time>2019-01-13T23:06:17Z</time>
      </trkpt>
      <trkpt lat="41.950563" lon="2.975976">
        <ele>98.0</ele>
        <time>2019-01-13T23:06:21Z</time>
      </trkpt>
      <trkpt lat="41.950446" lon="2.975927">
        <ele>97.0</ele>
        <time>2019-01-13T23:06:23Z</time>
      </trkpt>
      <trkpt lat="41.950340" lon="2.975878">
        <ele>97.0</ele>
        <time>2019-01-13T23:06:25Z</time>
      </trkpt>
      <trkpt lat="41.950231" lon="2.975834">
        <ele>96.0</ele>
        <time>2019-01-13T23:06:27Z</time>
      </trkpt>
      <trkpt lat="41.950123" lon="2.975788">
        <ele>96.0</ele>
        <time>2019-01-13T23:06:29Z</time>
      </trkpt>
      <trkpt lat="41.950005" lon="2.975756">
        <ele>95.0</ele>
        <time>2019-01-13T23:06:30Z</time>
      </trkpt>
      <trkpt lat="41.949896" lon="2.975709">
        <ele>95.0</ele>
        <time>2019-01-13T23:06:32Z</time>
      </trkpt>
      <trkpt lat="41.949784" lon="2.975667">
        <ele>94.0</ele>
        <time>2019-01-13T23:06:34Z</time>
      </trkpt>
      <trkpt lat="41.949670" lon="2.975615">
        <ele>93.0</ele>
        <time>2019-01-13T23:06:36Z</time>
      </trkpt>
      <trkpt lat="41.949561" lon="2.975570">
        <ele>93.0</ele>
        <time>2019-01-13T23:06:38Z</time>
      </trkpt>
      <trkpt lat="41.949450" lon="2.975524">
        <ele>92.0</ele>
        <time>2019-01-13T23:06:40Z</time>
      </trkpt>
      <trkpt lat="41.949341" lon="2.975479">
        <ele>91.0</ele>
        <time>2019-01-13T23:06:42Z</time>
      </trkpt>
      <trkpt lat="41.949231" lon="2.975435">
        <ele>91.0</ele>
        <time>2019-01-13T23:06:43Z</time>
      </trkpt>
      <trkpt lat="41.949120" lon="2.975392">
        <ele>90.0</ele>
        <time>2019-01-13T23:06:45Z</time>
      </trkpt>
      <trkpt lat="41.949012" lon="2.975350">
        <ele>90.0</ele>
        <time>2019-01-13T23:06:47Z</time>
      </trkpt>
      <trkpt lat="41.948905" lon="2.975305">
        <ele>90.0</ele>
        <time>2019-01-13T23:06:49Z</time>
      </trkpt>
      <trkpt lat="41.948793" lon="2.975258">
        <ele>90.0</ele>
        <time>2019-01-13T23:06:51Z</time>
      </trkpt>
      <trkpt lat="41.948687" lon="2.975214">
        <ele>90.0</ele>
        <time>2019-01-13T23:06:53Z</time>
      </trkpt>
      <trkpt lat="41.948578" lon="2.975175">
        <ele>90.0</ele>
        <time>2019-01-13T23:06:54Z</time>
      </trkpt>
      <trkpt lat="41.948469" lon="2.975134">
        <ele>91.0</ele>
        <time>2019-01-13T23:06:56Z</time>
      </trkpt>
      <trkpt lat="41.948369" lon="2.975090">
        <ele>91.0</ele>
        <time>2019-01-13T23:06:58Z</time>
      </trkpt>
      <trkpt lat="41.948280" lon="2.975013">
        <ele>91.0</ele>
        <time>2019-01-13T23:07:00Z</time>
      </trkpt>
      <trkpt lat="41.948228" lon="2.974889">
        <ele>91.0</ele>
        <time>2019-01-13T23:07:01Z</time>
      </trkpt>
      <trkpt lat="41.948209" lon="2.974734">
        <ele>91.0</ele>
        <time>2019-01-13T23:07:03Z</time>
      </trkpt>
      <trkpt lat="41.948218" lon="2.974592">
        <ele>91.0</ele>
        <time>2019-01-13T23:07:05Z</time>
      </trkpt>
      <trkpt lat="41.948229" lon="2.974451">
        <ele>91.0</ele>
        <time>2019-01-13T23:07:06Z</time>
      </trkpt>
      <trkpt lat="41.948242" lon="2.974309">
        <ele>91.0</ele>
        <time>2019-01-13T23:07:08Z</time>
      </trkpt>
      <trkpt lat="41.948254" lon="2.974167">
        <ele>91.0</ele>
        <time>2019-01-13T23:07:10Z</time>
      </trkpt>
      <trkpt lat="41.948264" lon="2.974028">
        <ele>91.0</ele>
        <time>2019-01-13T23:07:12Z</time>
      </trkpt>
      <trkpt lat="41.948284" lon="2.973757">
        <ele>91.0</ele>
        <time>2019-01-13T23:07:15Z</time>
      </trkpt>
      <trkpt lat="41.948293" lon="2.973101">
        <ele>91.0</ele>
        <time>2019-01-13T23:07:23Z</time>
      </trkpt>
      <trkpt lat="41.948273" lon="2.972974">
        <ele>91.0</ele>
        <time>2019-01-13T23:07:24Z</time>
      </trkpt>
      <trkpt lat="41.948216" lon="2.972742">
        <ele>91.0</ele>
        <time>2019-01-13T23:07:27Z</time>
      </trkpt>
      <trkpt lat="41.948081" lon="2.972299">
        <ele>91.0</ele>
        <time>2019-01-13T23:07:33Z</time>
      </trkpt>
      <trkpt lat="41.947977" lon="2.971969">
        <ele>91.0</ele>
        <time>2019-01-13T23:07:37Z</time>
      </trkpt>
      <trkpt lat="41.947816" lon="2.971414">
        <ele>91.0</ele>
        <time>2019-01-13T23:07:44Z</time>
      </trkpt>
      <trkpt lat="41.947657" lon="2.970879">
        <ele>90.0</ele>
        <time>2019-01-13T23:07:51Z</time>
      </trkpt>
      <trkpt lat="41.947456" lon="2.970175">
        <ele>90.0</ele>
        <time>2019-01-13T23:08:00Z</time>
      </trkpt>
      <trkpt lat="41.947430" lon="2.970085">
        <ele>90.0</ele>
        <time>2019-01-13T23:08:01Z</time>
      </trkpt>
      <trkpt lat="41.947351" lon="2.969813">
        <ele>90.0</ele>
        <time>2019-01-13T23:08:05Z</time>
      </trkpt>
      <trkpt lat="41.947282" lon="2.969630">
        <ele>90.0</ele>
        <time>2019-01-13T23:08:07Z</time>
      </trkpt>
      <trkpt lat="41.947126" lon="2.969248">
        <ele>90.0</ele>
        <time>2019-01-13T23:08:12Z</time>
      </trkpt>
      <trkpt lat="41.946867" lon="2.968997">
        <ele>91.0</ele>
        <time>2019-01-13T23:08:17Z</time>
      </trkpt>
      <trkpt lat="41.946338" lon="2.968634">
        <ele>91.0</ele>
        <time>2019-01-13T23:08:27Z</time>
      </trkpt>
      <trkpt lat="41.946272" lon="2.968594">
        <ele>91.0</ele>
        <time>2019-01-13T23:08:28Z</time>
      </trkpt>
      <trkpt lat="41.946206" lon="2.968550">
        <ele>91.0</ele>
        <time>2019-01-13T23:08:29Z</time>
      </trkpt>
      <trkpt lat="41.946141" lon="2.968505">
        <ele>91.0</ele>
        <time>2019-01-13T23:08:30Z</time>
      </trkpt>
      <trkpt lat="41.946076" lon="2.968462">
        <ele>91.0</ele>
        <time>2019-01-13T23:08:32Z</time>
      </trkpt>
      <trkpt lat="41.946012" lon="2.968417">
        <ele>91.0</ele>
        <time>2019-01-13T23:08:33Z</time>
      </trkpt>
      <trkpt lat="41.945949" lon="2.968376">
        <ele>92.0</ele>
        <time>2019-01-13T23:08:34Z</time>
      </trkpt>
      <trkpt lat="41.945696" lon="2.968214">
        <ele>92.0</ele>
        <time>2019-01-13T23:08:38Z</time>
      </trkpt>
      <trkpt lat="41.945189" lon="2.967875">
        <ele>92.0</ele>
        <time>2019-01-13T23:08:47Z</time>
      </trkpt>
      <trkpt lat="41.944998" lon="2.967750">
        <ele>92.0</ele>
        <time>2019-01-13T23:08:51Z</time>
      </trkpt>
      <trkpt lat="41.944498" lon="2.967417">
        <ele>93.0</ele>
        <time>2019-01-13T23:09:00Z</time>
      </trkpt>
      <trkpt lat="41.944213" lon="2.967237">
        <ele>94.0</ele>
        <time>2019-01-13T23:09:05Z</time>
      </trkpt>
      <trkpt lat="41.944161" lon="2.967199">
        <ele>94.0</ele>
        <time>2019-01-13T23:09:06Z</time>
      </trkpt>
      <trkpt lat="41.944108" lon="2.967161">
        <ele>94.0</ele>
        <time>2019-01-13T23:09:07Z</time>
      </trkpt>
      <trkpt lat="41.944056" lon="2.967124">
        <ele>94.0</ele>
        <time>2019-01-13T23:09:08Z</time>
      </trkpt>
      <trkpt lat="41.944001" lon="2.967087">
        <ele>95.0</ele>
        <time>2019-01-13T23:09:09Z</time>
      </trkpt>
      <trkpt lat="41.943630" lon="2.966842">
        <ele>95.0</ele>
        <time>2019-01-13T23:09:15Z</time>
      </trkpt>
      <trkpt lat="41.943377" lon="2.966679">
        <ele>96.0</ele>
        <time>2019-01-13T23:09:20Z</time>
      </trkpt>
      <trkpt lat="41.943327" lon="2.966653">
        <ele>96.0</ele>
        <time>2019-01-13T23:09:21Z</time>
      </trkpt>
      <trkpt lat="41.943273" lon="2.966631">
        <ele>96.0</ele>
        <time>2019-01-13T23:09:21Z</time>
      </trkpt>
      <trkpt lat="41.943215" lon="2.966617">
        <ele>97.0</ele>
        <time>2019-01-13T23:09:22Z</time>
      </trkpt>
      <trkpt lat="41.943052" lon="2.966595">
        <ele>97.0</ele>
        <time>2019-01-13T23:09:25Z</time>
      </trkpt>
      <trkpt lat="41.942998" lon="2.966600">
        <ele>97.0</ele>
        <time>2019-01-13T23:09:26Z</time>
      </trkpt>
      <trkpt lat="41.942736" lon="2.966657">
        <ele>98.0</ele>
        <time>2019-01-13T23:09:30Z</time>
      </trkpt>
      <trkpt lat="41.942682" lon="2.966672">
        <ele>98.0</ele>
        <time>2019-01-13T23:09:31Z</time>
      </trkpt>
      <trkpt lat="41.942630" lon="2.966690">
        <ele>98.0</ele>
        <time>2019-01-13T23:09:32Z</time>
      </trkpt>
      <trkpt lat="41.942578" lon="2.966712">
        <ele>98.0</ele>
        <time>2019-01-13T23:09:33Z</time>
      </trkpt>
      <trkpt lat="41.942525" lon="2.966731">
        <ele>98.0</ele>
        <time>2019-01-13T23:09:34Z</time>
      </trkpt>
      <trkpt lat="41.942317" lon="2.966800">
        <ele>99.0</ele>
        <time>2019-01-13T23:09:37Z</time>
      </trkpt>
      <trkpt lat="41.941963" lon="2.966947">
        <ele>100.0</ele>
        <time>2019-01-13T23:09:43Z</time>
      </trkpt>
      <trkpt lat="41.941875" lon="2.967012">
        <ele>100.0</ele>
        <time>2019-01-13T23:09:45Z</time>
      </trkpt>
      <trkpt lat="41.941832" lon="2.967047">
        <ele>100.0</ele>
        <time>2019-01-13T23:09:45Z</time>
      </trkpt>
      <trkpt lat="41.941786" lon="2.967077">
        <ele>100.0</ele>
        <time>2019-01-13T23:09:46Z</time>
      </trkpt>
      <trkpt lat="41.941740" lon="2.967110">
        <ele>100.0</ele>
        <time>2019-01-13T23:09:47Z</time>
      </trkpt>
      <trkpt lat="41.941689" lon="2.967137">
        <ele>101.0</ele>
        <time>2019-01-13T23:09:48Z</time>
      </trkpt>
      <trkpt lat="41.941638" lon="2.967167">
        <ele>101.0</ele>
        <time>2019-01-13T23:09:49Z</time>
      </trkpt>
      <trkpt lat="41.941586" lon="2.967186">
        <ele>101.0</ele>
        <time>2019-01-13T23:09:50Z</time>
      </trkpt>
      <trkpt lat="41.941381" lon="2.967237">
        <ele>101.0</ele>
        <time>2019-01-13T23:09:53Z</time>
      </trkpt>
      <trkpt lat="41.940960" lon="2.967298">
        <ele>102.0</ele>
        <time>2019-01-13T23:10:00Z</time>
      </trkpt>
      <trkpt lat="41.940752" lon="2.967281">
        <ele>103.0</ele>
        <time>2019-01-13T23:10:03Z</time>
      </trkpt>
      <trkpt lat="41.940697" lon="2.967277">
        <ele>103.0</ele>
        <time>2019-01-13T23:10:04Z</time>
      </trkpt>
      <trkpt lat="41.940639" lon="2.967267">
        <ele>103.0</ele>
        <time>2019-01-13T23:10:05Z</time>
      </trkpt>
      <trkpt lat="41.940581" lon="2.967256">
        <ele>103.0</ele>
        <time>2019-01-13T23:10:06Z</time>
      </trkpt>
      <trkpt lat="41.940518" lon="2.967247">
        <ele>103.0</ele>
        <time>2019-01-13T23:10:07Z</time>
      </trkpt>
      <trkpt lat="41.940289" lon="2.967216">
        <ele>104.0</ele>
        <time>2019-01-13T23:10:11Z</time>
      </trkpt>
      <trkpt lat="41.940116" lon="2.967185">
        <ele>104.0</ele>
        <time>2019-01-13T23:10:13Z</time>
      </trkpt>
      <trkpt lat="41.939882" lon="2.967123">
        <ele>105.0</ele>
        <time>2019-01-13T23:10:17Z</time>
      </trkpt>
      <trkpt lat="41.939831" lon="2.967084">
        <ele>105.0</ele>
        <time>2019-01-13T23:10:18Z</time>
      </trkpt>
      <trkpt lat="41.939791" lon="2.967025">
        <ele>105.0</ele>
        <time>2019-01-13T23:10:19Z</time>
      </trkpt>
      <trkpt lat="41.939763" lon="2.966955">
        <ele>105.0</ele>
        <time>2019-01-13T23:10:20Z</time>
      </trkpt>
      <trkpt lat="41.939751" lon="2.966875">
        <ele>106.0</ele>
        <time>2019-01-13T23:10:21Z</time>
      </trkpt>
      <trkpt lat="41.939751" lon="2.966796">
        <ele>106.0</ele>
        <time>2019-01-13T23:10:22Z</time>
      </trkpt>
      <trkpt lat="41.939776" lon="2.966572">
        <ele>106.0</ele>
        <time>2019-01-13T23:10:25Z</time>
      </trkpt>
      <trkpt lat="41.939790" lon="2.966414">
        <ele>106.0</ele>
        <time>2019-01-13T23:10:27Z</time>
      </trkpt>
      <trkpt lat="41.939850" lon="2.966027">
        <ele>107.0</ele>
        <time>2019-01-13T23:10:31Z</time>
      </trkpt>
      <trkpt lat="41.939891" lon="2.965883">
        <ele>107.0</ele>
        <time>2019-01-13T23:10:33Z</time>
      </trkpt>
      <trkpt lat="41.939913" lon="2.965811">
        <ele>107.0</ele>
        <time>2019-01-13T23:10:34Z</time>
      </trkpt>
      <trkpt lat="41.939931" lon="2.965735">
        <ele>108.0</ele>
        <time>2019-01-13T23:10:35Z</time>
      </trkpt>
      <trkpt lat="41.939938" lon="2.965658">
        <ele>108.0</ele>
        <time>2019-01-13T23:10:36Z</time>
      </trkpt>
      <trkpt lat="41.939941" lon="2.965581">
        <ele>108.0</ele>
        <time>2019-01-13T23:10:37Z</time>
      </trkpt>
      <trkpt lat="41.939938" lon="2.965500">
        <ele>108.0</ele>
        <time>2019-01-13T23:10:38Z</time>
      </trkpt>
      <trkpt lat="41.939897" lon="2.964956">
        <ele>109.0</ele>
        <time>2019-01-13T23:10:44Z</time>
      </trkpt>
      <trkpt lat="41.939765" lon="2.964697">
        <ele>109.0</ele>
        <time>2019-01-13T23:10:48Z</time>
      </trkpt>
      <trkpt lat="41.939679" lon="2.964585">
        <ele>109.0</ele>
        <time>2019-01-13T23:10:50Z</time>
      </trkpt>
      <trkpt lat="41.939522" lon="2.964360">
        <ele>110.0</ele>
        <time>2019-01-13T23:10:54Z</time>
      </trkpt>
      <trkpt lat="41.939366" lon="2.964133">
        <ele>111.0</ele>
        <time>2019-01-13T23:10:57Z</time>
      </trkpt>
      <trkpt lat="41.939326" lon="2.964073">
        <ele>111.0</ele>
        <time>2019-01-13T23:10:58Z</time>
      </trkpt>
      <trkpt lat="41.939289" lon="2.964025">
        <ele>111.0</ele>
        <time>2019-01-13T23:10:59Z</time>
      </trkpt>
      <trkpt lat="41.939253" lon="2.963966">
        <ele>111.0</ele>
        <time>2019-01-13T23:11:00Z</time>
      </trkpt>
      <trkpt lat="41.939216" lon="2.963906">
        <ele>111.0</ele>
        <time>2019-01-13T23:11:01Z</time>
      </trkpt>
      <trkpt lat="41.939159" lon="2.963770">
        <ele>111.0</ele>
        <time>2019-01-13T23:11:03Z</time>
      </trkpt>
      <trkpt lat="41.939132" lon="2.963619">
        <ele>111.0</ele>
        <time>2019-01-13T23:11:05Z</time>
      </trkpt>
      <trkpt lat="41.939125" lon="2.963461">
        <ele>112.0</ele>
        <time>2019-01-13T23:11:06Z</time>
      </trkpt>
      <trkpt lat="41.939128" lon="2.963148">
        <ele>112.0</ele>
        <time>2019-01-13T23:11:10Z</time>
      </trkpt>
      <trkpt lat="41.939144" lon="2.963072">
        <ele>112.0</ele>
        <time>2019-01-13T23:11:11Z</time>
      </trkpt>
      <trkpt lat="41.939242" lon="2.962875">
        <ele>112.0</ele>
        <time>2019-01-13T23:11:14Z</time>
      </trkpt>
      <trkpt lat="41.939282" lon="2.962816">
        <ele>112.0</ele>
        <time>2019-01-13T23:11:15Z</time>
      </trkpt>
      <trkpt lat="41.939320" lon="2.962752">
        <ele>112.0</ele>
        <time>2019-01-13T23:11:16Z</time>
      </trkpt>
      <trkpt lat="41.939351" lon="2.962686">
        <ele>112.0</ele>
        <time>2019-01-13T23:11:17Z</time>
      </trkpt>
      <trkpt lat="41.939376" lon="2.962617">
        <ele>112.0</ele>
        <time>2019-01-13T23:11:18Z</time>
      </trkpt>
      <trkpt lat="41.939393" lon="2.962543">
        <ele>112.0</ele>
        <time>2019-01-13T23:11:19Z</time>
      </trkpt>
      <trkpt lat="41.939413" lon="2.962232">
        <ele>112.0</ele>
        <time>2019-01-13T23:11:22Z</time>
      </trkpt>
      <trkpt lat="41.939425" lon="2.962155">
        <ele>112.0</ele>
        <time>2019-01-13T23:11:23Z</time>
      </trkpt>
      <trkpt lat="41.939495" lon="2.961949">
        <ele>112.0</ele>
        <time>2019-01-13T23:11:26Z</time>
      </trkpt>
      <trkpt lat="41.939497" lon="2.961872">
        <ele>112.0</ele>
        <time>2019-01-13T23:11:27Z</time>
      </trkpt>
      <trkpt lat="41.939455" lon="2.961720">
        <ele>112.0</ele>
        <time>2019-01-13T23:11:29Z</time>
      </trkpt>
      <trkpt lat="41.939389" lon="2.961578">
        <ele>112.0</ele>
        <time>2019-01-13T23:11:31Z</time>
      </trkpt>
      <trkpt lat="41.939291" lon="2.961375">
        <ele>112.0</ele>
        <time>2019-01-13T23:11:34Z</time>
      </trkpt>
      <trkpt lat="41.939153" lon="2.961092">
        <ele>112.0</ele>
        <time>2019-01-13T23:11:38Z</time>
      </trkpt>
      <trkpt lat="41.939118" lon="2.961022">
        <ele>111.0</ele>
        <time>2019-01-13T23:11:39Z</time>
      </trkpt>
      <trkpt lat="41.939085" lon="2.960952">
        <ele>111.0</ele>
        <time>2019-01-13T23:11:40Z</time>
      </trkpt>
      <trkpt lat="41.939050" lon="2.960877">
        <ele>111.0</ele>
        <time>2019-01-13T23:11:41Z</time>
      </trkpt>
      <trkpt lat="41.939015" lon="2.960805">
        <ele>111.0</ele>
        <time>2019-01-13T23:11:42Z</time>
      </trkpt>
      <trkpt lat="41.938980" lon="2.960732">
        <ele>111.0</ele>
        <time>2019-01-13T23:11:43Z</time>
      </trkpt>
      <trkpt lat="41.938724" lon="2.960189">
        <ele>111.0</ele>
        <time>2019-01-13T23:11:51Z</time>
      </trkpt>
      <trkpt lat="41.938468" lon="2.959714">
        <ele>111.0</ele>
        <time>2019-01-13T23:11:57Z</time>
      </trkpt>
      <trkpt lat="41.938413" lon="2.959645">
        <ele>111.0</ele>
        <time>2019-01-13T23:11:59Z</time>
      </trkpt>
      <trkpt lat="41.938159" lon="2.959284">
        <ele>111.0</ele>
        <time>2019-01-13T23:12:05Z</time>
      </trkpt>
      <trkpt lat="41.938122" lon="2.959199">
        <ele>111.0</ele>
        <time>2019-01-13T23:12:06Z</time>
      </trkpt>
      <trkpt lat="41.938042" lon="2.958826">
        <ele>111.0</ele>
        <time>2019-01-13T23:12:10Z</time>
      </trkpt>
      <trkpt lat="41.938140" lon="2.958548">
        <ele>111.0</ele>
        <time>2019-01-13T23:12:14Z</time>
      </trkpt>
      <trkpt lat="41.938174" lon="2.958458">
        <ele>111.0</ele>
        <time>2019-01-13T23:12:15Z</time>
      </trkpt>
      <trkpt lat="41.938342" lon="2.958011">
        <ele>111.0</ele>
        <time>2019-01-13T23:12:21Z</time>
      </trkpt>
      <trkpt lat="41.938381" lon="2.957936">
        <ele>111.0</ele>
        <time>2019-01-13T23:12:22Z</time>
      </trkpt>
      <trkpt lat="41.938435" lon="2.957873">
        <ele>111.0</ele>
        <time>2019-01-13T23:12:23Z</time>
      </trkpt>
      <trkpt lat="41.938568" lon="2.957812">
        <ele>111.0</ele>
        <time>2019-01-13T23:12:26Z</time>
      </trkpt>
      <trkpt lat="41.938707" lon="2.957772">
        <ele>111.0</ele>
        <time>2019-01-13T23:12:28Z</time>
      </trkpt>
      <trkpt lat="41.938987" lon="2.957689">
        <ele>111.0</ele>
        <time>2019-01-13T23:12:33Z</time>
      </trkpt>
      <trkpt lat="41.939258" lon="2.957546">
        <ele>111.0</ele>
        <time>2019-01-13T23:12:37Z</time>
      </trkpt>
      <trkpt lat="41.939294" lon="2.957470">
        <ele>111.0</ele>
        <time>2019-01-13T23:12:38Z</time>
      </trkpt>
      <trkpt lat="41.939309" lon="2.957202">
        <ele>111.0</ele>
        <time>2019-01-13T23:12:42Z</time>
      </trkpt>
      <trkpt lat="41.939158" lon="2.956913">
        <ele>111.0</ele>
        <time>2019-01-13T23:12:46Z</time>
      </trkpt>
      <trkpt lat="41.938944" lon="2.956836">
        <ele>112.0</ele>
        <time>2019-01-13T23:12:49Z</time>
      </trkpt>
      <trkpt lat="41.938593" lon="2.956797">
        <ele>112.0</ele>
        <time>2019-01-13T23:12:55Z</time>
      </trkpt>
      <trkpt lat="41.938161" lon="2.956851">
        <ele>112.0</ele>
        <time>2019-01-13T23:13:02Z</time>
      </trkpt>
      <trkpt lat="41.938092" lon="2.956816">
        <ele>112.0</ele>
        <time>2019-01-13T23:13:03Z</time>
      </trkpt>
      <trkpt lat="41.938031" lon="2.956774">
        <ele>112.0</ele>
        <time>2019-01-13T23:13:04Z</time>
      </trkpt>
      <trkpt lat="41.937976" lon="2.956718">
        <ele>112.0</ele>
        <time>2019-01-13T23:13:05Z</time>
      </trkpt>
      <trkpt lat="41.937921" lon="2.956665">
        <ele>112.0</ele>
        <time>2019-01-13T23:13:06Z</time>
      </trkpt>
      <trkpt lat="41.937864" lon="2.956611">
        <ele>112.0</ele>
        <time>2019-01-13T23:13:07Z</time>
      </trkpt>
      <trkpt lat="41.937565" lon="2.956329">
        <ele>112.0</ele>
        <time>2019-01-13T23:13:13Z</time>
      </trkpt>
      <trkpt lat="41.937228" lon="2.956004">
        <ele>112.0</ele>
        <time>2019-01-13T23:13:20Z</time>
      </trkpt>
      <trkpt lat="41.936835" lon="2.955645">
        <ele>112.0</ele>
        <time>2019-01-13T23:13:28Z</time>
      </trkpt>
      <trkpt lat="41.936596" lon="2.955351">
        <ele>113.0</ele>
        <time>2019-01-13T23:13:33Z</time>
      </trkpt>
      <trkpt lat="41.936555" lon="2.955279">
        <ele>114.0</ele>
        <time>2019-01-13T23:13:34Z</time>
      </trkpt>
      <trkpt lat="41.936400" lon="2.954982">
        <ele>116.0</ele>
        <time>2019-01-13T23:13:38Z</time>
      </trkpt>
      <trkpt lat="41.936363" lon="2.954913">
        <ele>116.0</ele>
        <time>2019-01-13T23:13:39Z</time>
      </trkpt>
      <trkpt lat="41.936327" lon="2.954841">
        <ele>116.0</ele>
        <time>2019-01-13T23:13:40Z</time>
      </trkpt>
      <trkpt lat="41.936288" lon="2.954774">
        <ele>116.0</ele>
        <time>2019-01-13T23:13:41Z</time>
      </trkpt>
      <trkpt lat="41.936254" lon="2.954703">
        <ele>116.0</ele>
        <time>2019-01-13T23:13:42Z</time>
      </trkpt>
      <trkpt lat="41.936176" lon="2.954467">
        <ele>116.0</ele>
        <time>2019-01-13T23:13:45Z</time>
      </trkpt>
      <trkpt lat="41.936172" lon="2.954378">
        <ele>116.0</ele>
        <time>2019-01-13T23:13:46Z</time>
      </trkpt>
      <trkpt lat="41.936191" lon="2.954116">
        <ele>116.0</ele>
        <time>2019-01-13T23:13:49Z</time>
      </trkpt>
      <trkpt lat="41.936198" lon="2.954031">
        <ele>116.0</ele>
        <time>2019-01-13T23:13:50Z</time>
      </trkpt>
      <trkpt lat="41.936241" lon="2.953519">
        <ele>117.0</ele>
        <time>2019-01-13T23:13:57Z</time>
      </trkpt>
      <trkpt lat="41.936248" lon="2.953434">
        <ele>117.0</ele>
        <time>2019-01-13T23:13:58Z</time>
      </trkpt>
      <trkpt lat="41.936258" lon="2.953351">
        <ele>117.0</ele>
        <time>2019-01-13T23:13:59Z</time>
      </trkpt>
      <trkpt lat="41.936268" lon="2.953260">
        <ele>117.0</ele>
        <time>2019-01-13T23:14:00Z</time>
      </trkpt>
      <trkpt lat="41.936281" lon="2.953175">
        <ele>118.0</ele>
        <time>2019-01-13T23:14:01Z</time>
      </trkpt>
      <trkpt lat="41.936302" lon="2.953091">
        <ele>118.0</ele>
        <time>2019-01-13T23:14:02Z</time>
      </trkpt>
      <trkpt lat="41.936418" lon="2.952901">
        <ele>118.0</ele>
        <time>2019-01-13T23:14:05Z</time>
      </trkpt>
      <trkpt lat="41.936519" lon="2.952791">
        <ele>118.0</ele>
        <time>2019-01-13T23:14:07Z</time>
      </trkpt>
      <trkpt lat="41.936660" lon="2.952616">
        <ele>117.0</ele>
        <time>2019-01-13T23:14:10Z</time>
      </trkpt>
      <trkpt lat="41.936819" lon="2.952465">
        <ele>118.0</ele>
        <time>2019-01-13T23:14:13Z</time>
      </trkpt>
      <trkpt lat="41.936955" lon="2.952448">
        <ele>118.0</ele>
        <time>2019-01-13T23:14:15Z</time>
      </trkpt>
      <trkpt lat="41.937070" lon="2.952471">
        <ele>118.0</ele>
        <time>2019-01-13T23:14:17Z</time>
      </trkpt>
      <trkpt lat="41.937134" lon="2.952461">
        <ele>118.0</ele>
        <time>2019-01-13T23:14:18Z</time>
      </trkpt>
      <trkpt lat="41.937204" lon="2.952435">
        <ele>118.0</ele>
        <time>2019-01-13T23:14:19Z</time>
      </trkpt>
      <trkpt lat="41.937258" lon="2.952400">
        <ele>118.0</ele>
        <time>2019-01-13T23:14:20Z</time>
      </trkpt>
      <trkpt lat="41.937315" lon="2.952356">
        <ele>118.0</ele>
        <time>2019-01-13T23:14:21Z</time>
      </trkpt>
      <trkpt lat="41.937378" lon="2.952309">
        <ele>118.0</ele>
        <time>2019-01-13T23:14:22Z</time>
      </trkpt>
      <trkpt lat="41.937437" lon="2.952268">
        <ele>118.0</ele>
        <time>2019-01-13T23:14:23Z</time>
      </trkpt>
      <trkpt lat="41.937608" lon="2.952101">
        <ele>118.0</ele>
        <time>2019-01-13T23:14:27Z</time>
      </trkpt>
      <trkpt lat="41.937671" lon="2.951947">
        <ele>119.0</ele>
        <time>2019-01-13T23:14:29Z</time>
      </trkpt>
      <trkpt lat="41.937723" lon="2.951769">
        <ele>119.0</ele>
        <time>2019-01-13T23:14:31Z</time>
      </trkpt>
      <trkpt lat="41.937733" lon="2.951678">
        <ele>119.0</ele>
        <time>2019-01-13T23:14:32Z</time>
      </trkpt>
      <trkpt lat="41.937771" lon="2.951498">
        <ele>119.0</ele>
        <time>2019-01-13T23:14:35Z</time>
      </trkpt>
      <trkpt lat="41.937909" lon="2.951052">
        <ele>118.0</ele>
        <time>2019-01-13T23:14:40Z</time>
      </trkpt>
      <trkpt lat="41.937952" lon="2.950980">
        <ele>118.0</ele>
        <time>2019-01-13T23:14:41Z</time>
      </trkpt>
      <trkpt lat="41.938077" lon="2.950763">
        <ele>119.0</ele>
        <time>2019-01-13T23:14:45Z</time>
      </trkpt>
      <trkpt lat="41.938125" lon="2.950586">
        <ele>119.0</ele>
        <time>2019-01-13T23:14:47Z</time>
      </trkpt>
      <trkpt lat="41.938152" lon="2.950393">
        <ele>119.0</ele>
        <time>2019-01-13T23:14:49Z</time>
      </trkpt>
      <trkpt lat="41.938192" lon="2.950110">
        <ele>119.0</ele>
        <time>2019-01-13T23:14:53Z</time>
      </trkpt>
      <trkpt lat="41.938266" lon="2.949766">
        <ele>118.0</ele>
        <time>2019-01-13T23:14:57Z</time>
      </trkpt>
      <trkpt lat="41.938326" lon="2.949714">
        <ele>118.0</ele>
        <time>2019-01-13T23:14:58Z</time>
      </trkpt>
      <trkpt lat="41.938513" lon="2.949618">
        <ele>118.0</ele>
        <time>2019-01-13T23:15:01Z</time>
      </trkpt>
      <trkpt lat="41.938866" lon="2.949415">
        <ele>118.0</ele>
        <time>2019-01-13T23:15:07Z</time>
      </trkpt>
      <trkpt lat="41.938936" lon="2.949283">
        <ele>118.0</ele>
        <time>2019-01-13T23:15:09Z</time>
      </trkpt>
      <trkpt lat="41.938953" lon="2.949206">
        <ele>118.0</ele>
        <time>2019-01-13T23:15:10Z</time>
      </trkpt>
      <trkpt lat="41.938961" lon="2.949128">
        <ele>118.0</ele>
        <time>2019-01-13T23:15:11Z</time>
      </trkpt>
      <trkpt lat="41.938938" lon="2.949056">
        <ele>118.0</ele>
        <time>2019-01-13T23:15:12Z</time>
      </trkpt>
      <trkpt lat="41.938896" lon="2.949011">
        <ele>118.0</ele>
        <time>2019-01-13T23:15:13Z</time>
      </trkpt>
      <trkpt lat="41.938727" lon="2.948941">
        <ele>118.0</ele>
        <time>2019-01-13T23:15:16Z</time>
      </trkpt>
      <trkpt lat="41.938584" lon="2.948935">
        <ele>118.0</ele>
        <time>2019-01-13T23:15:18Z</time>
      </trkpt>
      <trkpt lat="41.938542" lon="2.948953">
        <ele>118.0</ele>
        <time>2019-01-13T23:15:19Z</time>
      </trkpt>
      <trkpt lat="41.938500" lon="2.948977">
        <ele>118.0</ele>
        <time>2019-01-13T23:15:20Z</time>
      </trkpt>
      <trkpt lat="41.938463" lon="2.949006">
        <ele>118.0</ele>
        <time>2019-01-13T23:15:20Z</time>
      </trkpt>
      <trkpt lat="41.938422" lon="2.949037">
        <ele>118.0</ele>
        <time>2019-01-13T23:15:21Z</time>
      </trkpt>
      <trkpt lat="41.938380" lon="2.949057">
        <ele>118.0</ele>
        <time>2019-01-13T23:15:22Z</time>
      </trkpt>
      <trkpt lat="41.938341" lon="2.949081">
        <ele>118.0</ele>
        <time>2019-01-13T23:15:22Z</time>
      </trkpt>
      <trkpt lat="41.938306" lon="2.949111">
        <ele>118.0</ele>
        <time>2019-01-13T23:15:23Z</time>
      </trkpt>
      <trkpt lat="41.938263" lon="2.949128">
        <ele>118.0</ele>
        <time>2019-01-13T23:15:24Z</time>
      </trkpt>
      <trkpt lat="41.938227" lon="2.949139">
        <ele>119.0</ele>
        <time>2019-01-13T23:15:24Z</time>
      </trkpt>
      <trkpt lat="41.938190" lon="2.949146">
        <ele>119.0</ele>
        <time>2019-01-13T23:15:25Z</time>
      </trkpt>
      <trkpt lat="41.938152" lon="2.949148">
        <ele>119.0</ele>
        <time>2019-01-13T23:15:26Z</time>
      </trkpt>
      <trkpt lat="41.938115" lon="2.949157">
        <ele>119.0</ele>
        <time>2019-01-13T23:15:26Z</time>
      </trkpt>
      <trkpt lat="41.938080" lon="2.949166">
        <ele>119.0</ele>
        <time>2019-01-13T23:15:27Z</time>
      </trkpt>
      <trkpt lat="41.937977" lon="2.949202">
        <ele>119.0</ele>
        <time>2019-01-13T23:15:29Z</time>
      </trkpt>
      <trkpt lat="41.937947" lon="2.949224">
        <ele>119.0</ele>
        <time>2019-01-13T23:15:29Z</time>
      </trkpt>
      <trkpt lat="41.937914" lon="2.949244">
        <ele>119.0</ele>
        <time>2019-01-13T23:15:30Z</time>
      </trkpt>
      <trkpt lat="41.937887" lon="2.949270">
        <ele>120.0</ele>
        <time>2019-01-13T23:15:30Z</time>
      </trkpt>
      <trkpt lat="41.937836" lon="2.949323">
        <ele>120.0</ele>
        <time>2019-01-13T23:15:31Z</time>
      </trkpt>
      <trkpt lat="41.937786" lon="2.949374">
        <ele>120.0</ele>
        <time>2019-01-13T23:15:32Z</time>
      </trkpt>
      <trkpt lat="41.937762" lon="2.949398">
        <ele>120.0</ele>
        <time>2019-01-13T23:15:33Z</time>
      </trkpt>
      <trkpt lat="41.937742" lon="2.949422">
        <ele>120.0</ele>
        <time>2019-01-13T23:15:33Z</time>
      </trkpt>
      <trkpt lat="41.937724" lon="2.949446">
        <ele>120.0</ele>
        <time>2019-01-13T23:15:34Z</time>
      </trkpt>
      <trkpt lat="41.937699" lon="2.949466">
        <ele>121.0</ele>
        <time>2019-01-13T23:15:34Z</time>
      </trkpt>
      <trkpt lat="41.937621" lon="2.949509">
        <ele>121.0</ele>
        <time>2019-01-13T23:15:35Z</time>
      </trkpt>
      <trkpt lat="41.937587" lon="2.949512">
        <ele>121.0</ele>
        <time>2019-01-13T23:15:36Z</time>
      </trkpt>
      <trkpt lat="41.937557" lon="2.949511">
        <ele>122.0</ele>
        <time>2019-01-13T23:15:36Z</time>
      </trkpt>
      <trkpt lat="41.937528" lon="2.949503">
        <ele>122.0</ele>
        <time>2019-01-13T23:15:37Z</time>
      </trkpt>
      <trkpt lat="41.937503" lon="2.949494">
        <ele>123.0</ele>
        <time>2019-01-13T23:15:37Z</time>
      </trkpt>
      <trkpt lat="41.937465" lon="2.949427">
        <ele>123.0</ele>
        <time>2019-01-13T23:15:38Z</time>
      </trkpt>
      <trkpt lat="41.937433" lon="2.949330">
        <ele>124.0</ele>
        <time>2019-01-13T23:15:40Z</time>
      </trkpt>
      <trkpt lat="41.937425" lon="2.949285">
        <ele>124.0</ele>
        <time>2019-01-13T23:15:40Z</time>
      </trkpt>
      <trkpt lat="41.937420" lon="2.949238">
        <ele>124.0</ele>
        <time>2019-01-13T23:15:41Z</time>
      </trkpt>
      <trkpt lat="41.937413" lon="2.949193">
        <ele>124.0</ele>
        <time>2019-01-13T23:15:41Z</time>
      </trkpt>
      <trkpt lat="41.937406" lon="2.949144">
        <ele>125.0</ele>
        <time>2019-01-13T23:15:42Z</time>
      </trkpt>
      <trkpt lat="41.937414" lon="2.948951">
        <ele>126.0</ele>
        <time>2019-01-13T23:15:44Z</time>
      </trkpt>
      <trkpt lat="41.937414" lon="2.948903">
        <ele>126.0</ele>
        <time>2019-01-13T23:15:45Z</time>
      </trkpt>
      <trkpt lat="41.937414" lon="2.948855">
        <ele>126.0</ele>
        <time>2019-01-13T23:15:45Z</time>
      </trkpt>
      <trkpt lat="41.937414" lon="2.948808">
        <ele>126.0</ele>
        <time>2019-01-13T23:15:46Z</time>
      </trkpt>
      <trkpt lat="41.937419" lon="2.948762">
        <ele>127.0</ele>
        <time>2019-01-13T23:15:46Z</time>
      </trkpt>
      <trkpt lat="41.937449" lon="2.948574">
        <ele>128.0</ele>
        <time>2019-01-13T23:15:49Z</time>
      </trkpt>
      <trkpt lat="41.937463" lon="2.948533">
        <ele>128.0</ele>
        <time>2019-01-13T23:15:49Z</time>
      </trkpt>
      <trkpt lat="41.937483" lon="2.948493">
        <ele>128.0</ele>
        <time>2019-01-13T23:15:50Z</time>
      </trkpt>
      <trkpt lat="41.937502" lon="2.948460">
        <ele>128.0</ele>
        <time>2019-01-13T23:15:50Z</time>
      </trkpt>
      <trkpt lat="41.937523" lon="2.948430">
        <ele>128.0</ele>
        <time>2019-01-13T23:15:51Z</time>
      </trkpt>
      <trkpt lat="41.937601" lon="2.948297">
        <ele>129.0</ele>
        <time>2019-01-13T23:15:53Z</time>
      </trkpt>
      <trkpt lat="41.937617" lon="2.948255">
        <ele>130.0</ele>
        <time>2019-01-13T23:15:53Z</time>
      </trkpt>
      <trkpt lat="41.937629" lon="2.948211">
        <ele>130.0</ele>
        <time>2019-01-13T23:15:54Z</time>
      </trkpt>
      <trkpt lat="41.937635" lon="2.948165">
        <ele>130.0</ele>
        <time>2019-01-13T23:15:54Z</time>
      </trkpt>
      <trkpt lat="41.937637" lon="2.948118">
        <ele>130.0</ele>
        <time>2019-01-13T23:15:55Z</time>
      </trkpt>
      <trkpt lat="41.937633" lon="2.948074">
        <ele>131.0</ele>
        <time>2019-01-13T23:15:55Z</time>
      </trkpt>
      <trkpt lat="41.937580" lon="2.947903">
        <ele>132.0</ele>
        <time>2019-01-13T23:15:58Z</time>
      </trkpt>
      <trkpt lat="41.937572" lon="2.947859">
        <ele>132.0</ele>
        <time>2019-01-13T23:15:58Z</time>
      </trkpt>
      <trkpt lat="41.937571" lon="2.947813">
        <ele>132.0</ele>
        <time>2019-01-13T23:15:59Z</time>
      </trkpt>
      <trkpt lat="41.937574" lon="2.947766">
        <ele>132.0</ele>
        <time>2019-01-13T23:15:59Z</time>
      </trkpt>
      <trkpt lat="41.937594" lon="2.947727">
        <ele>133.0</ele>
        <time>2019-01-13T23:16:00Z</time>
      </trkpt>
      <trkpt lat="41.937617" lon="2.947692">
        <ele>133.0</ele>
        <time>2019-01-13T23:16:00Z</time>
      </trkpt>
      <trkpt lat="41.937740" lon="2.947622">
        <ele>133.0</ele>
        <time>2019-01-13T23:16:03Z</time>
      </trkpt>
      <trkpt lat="41.937769" lon="2.947621">
        <ele>134.0</ele>
        <time>2019-01-13T23:16:03Z</time>
      </trkpt>
      <trkpt lat="41.937803" lon="2.947616">
        <ele>134.0</ele>
        <time>2019-01-13T23:16:04Z</time>
      </trkpt>
      <trkpt lat="41.937837" lon="2.947623">
        <ele>134.0</ele>
        <time>2019-01-13T23:16:04Z</time>
      </trkpt>
      <trkpt lat="41.937863" lon="2.947631">
        <ele>134.0</ele>
        <time>2019-01-13T23:16:05Z</time>
      </trkpt>
      <trkpt lat="41.937895" lon="2.947636">
        <ele>134.0</ele>
        <time>2019-01-13T23:16:05Z</time>
      </trkpt>
      <trkpt lat="41.938022" lon="2.947634">
        <ele>135.0</ele>
        <time>2019-01-13T23:16:07Z</time>
      </trkpt>
      <trkpt lat="41.938054" lon="2.947620">
        <ele>136.0</ele>
        <time>2019-01-13T23:16:08Z</time>
      </trkpt>
      <trkpt lat="41.938085" lon="2.947598">
        <ele>136.0</ele>
        <time>2019-01-13T23:16:08Z</time>
      </trkpt>
      <trkpt lat="41.938114" lon="2.947576">
        <ele>136.0</ele>
        <time>2019-01-13T23:16:09Z</time>
      </trkpt>
      <trkpt lat="41.938221" lon="2.947458">
        <ele>137.0</ele>
        <time>2019-01-13T23:16:11Z</time>
      </trkpt>
      <trkpt lat="41.938250" lon="2.947436">
        <ele>137.0</ele>
        <time>2019-01-13T23:16:12Z</time>
      </trkpt>
      <trkpt lat="41.938281" lon="2.947410">
        <ele>138.0</ele>
        <time>2019-01-13T23:16:12Z</time>
      </trkpt>
      <trkpt lat="41.938309" lon="2.947393">
        <ele>138.0</ele>
        <time>2019-01-13T23:16:13Z</time>
      </trkpt>
      <trkpt lat="41.938341" lon="2.947377">
        <ele>138.0</ele>
        <time>2019-01-13T23:16:13Z</time>
      </trkpt>
      <trkpt lat="41.938439" lon="2.947331">
        <ele>139.0</ele>
        <time>2019-01-13T23:16:15Z</time>
      </trkpt>
      <trkpt lat="41.938525" lon="2.947260">
        <ele>139.0</ele>
        <time>2019-01-13T23:16:16Z</time>
      </trkpt>
      <trkpt lat="41.938553" lon="2.947229">
        <ele>140.0</ele>
        <time>2019-01-13T23:16:17Z</time>
      </trkpt>
      <trkpt lat="41.938577" lon="2.947193">
        <ele>140.0</ele>
        <time>2019-01-13T23:16:18Z</time>
      </trkpt>
      <trkpt lat="41.938604" lon="2.947153">
        <ele>140.0</ele>
        <time>2019-01-13T23:16:18Z</time>
      </trkpt>
      <trkpt lat="41.938623" lon="2.947110">
        <ele>141.0</ele>
        <time>2019-01-13T23:16:19Z</time>
      </trkpt>
      <trkpt lat="41.938669" lon="2.946978">
        <ele>142.0</ele>
        <time>2019-01-13T23:16:21Z</time>
      </trkpt>
      <trkpt lat="41.938742" lon="2.946879">
        <ele>142.0</ele>
        <time>2019-01-13T23:16:22Z</time>
      </trkpt>
      <trkpt lat="41.938771" lon="2.946856">
        <ele>143.0</ele>
        <time>2019-01-13T23:16:23Z</time>
      </trkpt>
      <trkpt lat="41.938800" lon="2.946831">
        <ele>143.0</ele>
        <time>2019-01-13T23:16:23Z</time>
      </trkpt>
      <trkpt lat="41.938828" lon="2.946803">
        <ele>143.0</ele>
        <time>2019-01-13T23:16:24Z</time>
      </trkpt>
      <trkpt lat="41.938959" lon="2.946591">
        <ele>145.0</ele>
        <time>2019-01-13T23:16:27Z</time>
      </trkpt>
      <trkpt lat="41.938961" lon="2.946544">
        <ele>145.0</ele>
        <time>2019-01-13T23:16:28Z</time>
      </trkpt>
      <trkpt lat="41.938960" lon="2.946496">
        <ele>145.0</ele>
        <time>2019-01-13T23:16:28Z</time>
      </trkpt>
      <trkpt lat="41.938956" lon="2.946448">
        <ele>146.0</ele>
        <time>2019-01-13T23:16:29Z</time>
      </trkpt>
      <trkpt lat="41.938944" lon="2.946406">
        <ele>146.0</ele>
        <time>2019-01-13T23:16:29Z</time>
      </trkpt>
      <trkpt lat="41.938885" lon="2.946238">
        <ele>147.0</ele>
        <time>2019-01-13T23:16:32Z</time>
      </trkpt>
      <trkpt lat="41.938876" lon="2.946192">
        <ele>147.0</ele>
        <time>2019-01-13T23:16:32Z</time>
      </trkpt>
      <trkpt lat="41.938867" lon="2.946141">
        <ele>147.0</ele>
        <time>2019-01-13T23:16:33Z</time>
      </trkpt>
      <trkpt lat="41.938860" lon="2.946091">
        <ele>148.0</ele>
        <time>2019-01-13T23:16:33Z</time>
      </trkpt>
      <trkpt lat="41.938856" lon="2.946044">
        <ele>148.0</ele>
        <time>2019-01-13T23:16:34Z</time>
      </trkpt>
      <trkpt lat="41.938843" lon="2.945858">
        <ele>149.0</ele>
        <time>2019-01-13T23:16:36Z</time>
      </trkpt>
      <trkpt lat="41.938834" lon="2.945817">
        <ele>149.0</ele>
        <time>2019-01-13T23:16:37Z</time>
      </trkpt>
      <trkpt lat="41.938822" lon="2.945776">
        <ele>149.0</ele>
        <time>2019-01-13T23:16:37Z</time>
      </trkpt>
      <trkpt lat="41.938804" lon="2.945732">
        <ele>150.0</ele>
        <time>2019-01-13T23:16:38Z</time>
      </trkpt>
      <trkpt lat="41.938776" lon="2.945702">
        <ele>150.0</ele>
        <time>2019-01-13T23:16:38Z</time>
      </trkpt>
      <trkpt lat="41.938681" lon="2.945663">
        <ele>151.0</ele>
        <time>2019-01-13T23:16:40Z</time>
      </trkpt>
      <trkpt lat="41.938583" lon="2.945696">
        <ele>152.0</ele>
        <time>2019-01-13T23:16:42Z</time>
      </trkpt>
      <trkpt lat="41.938550" lon="2.945704">
        <ele>152.0</ele>
        <time>2019-01-13T23:16:42Z</time>
      </trkpt>
      <trkpt lat="41.938515" lon="2.945708">
        <ele>152.0</ele>
        <time>2019-01-13T23:16:43Z</time>
      </trkpt>
      <trkpt lat="41.938480" lon="2.945702">
        <ele>152.0</ele>
        <time>2019-01-13T23:16:43Z</time>
      </trkpt>
      <trkpt lat="41.938448" lon="2.945688">
        <ele>152.0</ele>
        <time>2019-01-13T23:16:44Z</time>
      </trkpt>
      <trkpt lat="41.938392" lon="2.945626">
        <ele>153.0</ele>
        <time>2019-01-13T23:16:45Z</time>
      </trkpt>
      <trkpt lat="41.938341" lon="2.945509">
        <ele>154.0</ele>
        <time>2019-01-13T23:16:47Z</time>
      </trkpt>
      <trkpt lat="41.938328" lon="2.945467">
        <ele>154.0</ele>
        <time>2019-01-13T23:16:47Z</time>
      </trkpt>
      <trkpt lat="41.938319" lon="2.945424">
        <ele>154.0</ele>
        <time>2019-01-13T23:16:48Z</time>
      </trkpt>
      <trkpt lat="41.938311" lon="2.945379">
        <ele>155.0</ele>
        <time>2019-01-13T23:16:48Z</time>
      </trkpt>
      <trkpt lat="41.938302" lon="2.945337">
        <ele>155.0</ele>
        <time>2019-01-13T23:16:49Z</time>
      </trkpt>
      <trkpt lat="41.938263" lon="2.945198">
        <ele>156.0</ele>
        <time>2019-01-13T23:16:50Z</time>
      </trkpt>
      <trkpt lat="41.938251" lon="2.945152">
        <ele>156.0</ele>
        <time>2019-01-13T23:16:51Z</time>
      </trkpt>
      <trkpt lat="41.938237" lon="2.945105">
        <ele>156.0</ele>
        <time>2019-01-13T23:16:52Z</time>
      </trkpt>
      <trkpt lat="41.938224" lon="2.945060">
        <ele>156.0</ele>
        <time>2019-01-13T23:16:52Z</time>
      </trkpt>
      <trkpt lat="41.938215" lon="2.945010">
        <ele>156.0</ele>
        <time>2019-01-13T23:16:53Z</time>
      </trkpt>
      <trkpt lat="41.938158" lon="2.944787">
        <ele>158.0</ele>
        <time>2019-01-13T23:16:56Z</time>
      </trkpt>
      <trkpt lat="41.938144" lon="2.944744">
        <ele>158.0</ele>
        <time>2019-01-13T23:16:56Z</time>
      </trkpt>
      <trkpt lat="41.938134" lon="2.944700">
        <ele>158.0</ele>
        <time>2019-01-13T23:16:57Z</time>
      </trkpt>
      <trkpt lat="41.938120" lon="2.944655">
        <ele>158.0</ele>
        <time>2019-01-13T23:16:57Z</time>
      </trkpt>
      <trkpt lat="41.938110" lon="2.944609">
        <ele>159.0</ele>
        <time>2019-01-13T23:16:58Z</time>
      </trkpt>
      <trkpt lat="41.938104" lon="2.944462">
        <ele>159.0</ele>
        <time>2019-01-13T23:17:00Z</time>
      </trkpt>
      <trkpt lat="41.938128" lon="2.944369">
        <ele>160.0</ele>
        <time>2019-01-13T23:17:01Z</time>
      </trkpt>
      <trkpt lat="41.938153" lon="2.944334">
        <ele>160.0</ele>
        <time>2019-01-13T23:17:01Z</time>
      </trkpt>
      <trkpt lat="41.938182" lon="2.944305">
        <ele>160.0</ele>
        <time>2019-01-13T23:17:02Z</time>
      </trkpt>
      <trkpt lat="41.938212" lon="2.944274">
        <ele>160.0</ele>
        <time>2019-01-13T23:17:03Z</time>
      </trkpt>
      <trkpt lat="41.938241" lon="2.944242">
        <ele>161.0</ele>
        <time>2019-01-13T23:17:03Z</time>
      </trkpt>
      <trkpt lat="41.938344" lon="2.944043">
        <ele>162.0</ele>
        <time>2019-01-13T23:17:06Z</time>
      </trkpt>
      <trkpt lat="41.938348" lon="2.943991">
        <ele>162.0</ele>
        <time>2019-01-13T23:17:07Z</time>
      </trkpt>
      <trkpt lat="41.938347" lon="2.943936">
        <ele>163.0</ele>
        <time>2019-01-13T23:17:07Z</time>
      </trkpt>
      <trkpt lat="41.938341" lon="2.943885">
        <ele>163.0</ele>
        <time>2019-01-13T23:17:08Z</time>
      </trkpt>
      <trkpt lat="41.938330" lon="2.943839">
        <ele>163.0</ele>
        <time>2019-01-13T23:17:09Z</time>
      </trkpt>
      <trkpt lat="41.938317" lon="2.943600">
        <ele>164.0</ele>
        <time>2019-01-13T23:17:11Z</time>
      </trkpt>
      <trkpt lat="41.938332" lon="2.943557">
        <ele>165.0</ele>
        <time>2019-01-13T23:17:12Z</time>
      </trkpt>
      <trkpt lat="41.938351" lon="2.943513">
        <ele>165.0</ele>
        <time>2019-01-13T23:17:13Z</time>
      </trkpt>
      <trkpt lat="41.938371" lon="2.943474">
        <ele>165.0</ele>
        <time>2019-01-13T23:17:13Z</time>
      </trkpt>
      <trkpt lat="41.938388" lon="2.943432">
        <ele>165.0</ele>
        <time>2019-01-13T23:17:14Z</time>
      </trkpt>
      <trkpt lat="41.938438" lon="2.943310">
        <ele>166.0</ele>
        <time>2019-01-13T23:17:15Z</time>
      </trkpt>
      <trkpt lat="41.938456" lon="2.943215">
        <ele>166.0</ele>
        <time>2019-01-13T23:17:17Z</time>
      </trkpt>
      <trkpt lat="41.938452" lon="2.943167">
        <ele>167.0</ele>
        <time>2019-01-13T23:17:17Z</time>
      </trkpt>
      <trkpt lat="41.938442" lon="2.943120">
        <ele>167.0</ele>
        <time>2019-01-13T23:17:18Z</time>
      </trkpt>
      <trkpt lat="41.938431" lon="2.943073">
        <ele>167.0</ele>
        <time>2019-01-13T23:17:18Z</time>
      </trkpt>
      <trkpt lat="41.938323" lon="2.942862">
        <ele>168.0</ele>
        <time>2019-01-13T23:17:21Z</time>
      </trkpt>
      <trkpt lat="41.938281" lon="2.942786">
        <ele>169.0</ele>
        <time>2019-01-13T23:17:22Z</time>
      </trkpt>
      <trkpt lat="41.938261" lon="2.942746">
        <ele>169.0</ele>
        <time>2019-01-13T23:17:23Z</time>
      </trkpt>
      <trkpt lat="41.938239" lon="2.942708">
        <ele>170.0</ele>
        <time>2019-01-13T23:17:24Z</time>
      </trkpt>
      <trkpt lat="41.938219" lon="2.942667">
        <ele>170.0</ele>
        <time>2019-01-13T23:17:24Z</time>
      </trkpt>
      <trkpt lat="41.938198" lon="2.942627">
        <ele>170.0</ele>
        <time>2019-01-13T23:17:25Z</time>
      </trkpt>
      <trkpt lat="41.938142" lon="2.942505">
        <ele>171.0</ele>
        <time>2019-01-13T23:17:26Z</time>
      </trkpt>
      <trkpt lat="41.938133" lon="2.942408">
        <ele>171.0</ele>
        <time>2019-01-13T23:17:28Z</time>
      </trkpt>
      <trkpt lat="41.938136" lon="2.942360">
        <ele>171.0</ele>
        <time>2019-01-13T23:17:28Z</time>
      </trkpt>
      <trkpt lat="41.938142" lon="2.942313">
        <ele>172.0</ele>
        <time>2019-01-13T23:17:29Z</time>
      </trkpt>
      <trkpt lat="41.938158" lon="2.942269">
        <ele>172.0</ele>
        <time>2019-01-13T23:17:29Z</time>
      </trkpt>
      <trkpt lat="41.938178" lon="2.942225">
        <ele>172.0</ele>
        <time>2019-01-13T23:17:30Z</time>
      </trkpt>
      <trkpt lat="41.938269" lon="2.942072">
        <ele>173.0</ele>
        <time>2019-01-13T23:17:32Z</time>
      </trkpt>
      <trkpt lat="41.938291" lon="2.942034">
        <ele>173.0</ele>
        <time>2019-01-13T23:17:33Z</time>
      </trkpt>
      <trkpt lat="41.938315" lon="2.941995">
        <ele>173.0</ele>
        <time>2019-01-13T23:17:33Z</time>
      </trkpt>
      <trkpt lat="41.938336" lon="2.941951">
        <ele>174.0</ele>
        <time>2019-01-13T23:17:34Z</time>
      </trkpt>
      <trkpt lat="41.938362" lon="2.941916">
        <ele>174.0</ele>
        <time>2019-01-13T23:17:35Z</time>
      </trkpt>
      <trkpt lat="41.938434" lon="2.941800">
        <ele>175.0</ele>
        <time>2019-01-13T23:17:37Z</time>
      </trkpt>
      <trkpt lat="41.938461" lon="2.941761">
        <ele>175.0</ele>
        <time>2019-01-13T23:17:37Z</time>
      </trkpt>
      <trkpt lat="41.938485" lon="2.941720">
        <ele>175.0</ele>
        <time>2019-01-13T23:17:38Z</time>
      </trkpt>
      <trkpt lat="41.938509" lon="2.941677">
        <ele>175.0</ele>
        <time>2019-01-13T23:17:38Z</time>
      </trkpt>
      <trkpt lat="41.938531" lon="2.941638">
        <ele>176.0</ele>
        <time>2019-01-13T23:17:39Z</time>
      </trkpt>
      <trkpt lat="41.938558" lon="2.941598">
        <ele>176.0</ele>
        <time>2019-01-13T23:17:40Z</time>
      </trkpt>
      <trkpt lat="41.938629" lon="2.941483">
        <ele>177.0</ele>
        <time>2019-01-13T23:17:41Z</time>
      </trkpt>
      <trkpt lat="41.938688" lon="2.941414">
        <ele>177.0</ele>
        <time>2019-01-13T23:17:43Z</time>
      </trkpt>
      <trkpt lat="41.938717" lon="2.941379">
        <ele>177.0</ele>
        <time>2019-01-13T23:17:43Z</time>
      </trkpt>
      <trkpt lat="41.938744" lon="2.941344">
        <ele>178.0</ele>
        <time>2019-01-13T23:17:44Z</time>
      </trkpt>
      <trkpt lat="41.938768" lon="2.941306">
        <ele>178.0</ele>
        <time>2019-01-13T23:17:44Z</time>
      </trkpt>
      <trkpt lat="41.938792" lon="2.941267">
        <ele>178.0</ele>
        <time>2019-01-13T23:17:45Z</time>
      </trkpt>
      <trkpt lat="41.938847" lon="2.941183">
        <ele>179.0</ele>
        <time>2019-01-13T23:17:46Z</time>
      </trkpt>
      <trkpt lat="41.938891" lon="2.941095">
        <ele>179.0</ele>
        <time>2019-01-13T23:17:48Z</time>
      </trkpt>
      <trkpt lat="41.938901" lon="2.941049">
        <ele>179.0</ele>
        <time>2019-01-13T23:17:48Z</time>
      </trkpt>
      <trkpt lat="41.938911" lon="2.940998">
        <ele>180.0</ele>
        <time>2019-01-13T23:17:49Z</time>
      </trkpt>
      <trkpt lat="41.938922" lon="2.940947">
        <ele>180.0</ele>
        <time>2019-01-13T23:17:49Z</time>
      </trkpt>
      <trkpt lat="41.938933" lon="2.940895">
        <ele>180.0</ele>
        <time>2019-01-13T23:17:50Z</time>
      </trkpt>
      <trkpt lat="41.938952" lon="2.940636">
        <ele>182.0</ele>
        <time>2019-01-13T23:17:53Z</time>
      </trkpt>
      <trkpt lat="41.938960" lon="2.940587">
        <ele>182.0</ele>
        <time>2019-01-13T23:17:54Z</time>
      </trkpt>
      <trkpt lat="41.938970" lon="2.940538">
        <ele>182.0</ele>
        <time>2019-01-13T23:17:54Z</time>
      </trkpt>
      <trkpt lat="41.938981" lon="2.940488">
        <ele>182.0</ele>
        <time>2019-01-13T23:17:55Z</time>
      </trkpt>
      <trkpt lat="41.938991" lon="2.940434">
        <ele>182.0</ele>
        <time>2019-01-13T23:17:56Z</time>
      </trkpt>
      <trkpt lat="41.938998" lon="2.940161">
        <ele>184.0</ele>
        <time>2019-01-13T23:17:59Z</time>
      </trkpt>
      <trkpt lat="41.938990" lon="2.940106">
        <ele>184.0</ele>
        <time>2019-01-13T23:18:00Z</time>
      </trkpt>
      <trkpt lat="41.938980" lon="2.940054">
        <ele>184.0</ele>
        <time>2019-01-13T23:18:00Z</time>
      </trkpt>
      <trkpt lat="41.938967" lon="2.940001">
        <ele>185.0</ele>
        <time>2019-01-13T23:18:01Z</time>
      </trkpt>
      <trkpt lat="41.938953" lon="2.939950">
        <ele>185.0</ele>
        <time>2019-01-13T23:18:02Z</time>
      </trkpt>
      <trkpt lat="41.938932" lon="2.939845">
        <ele>185.0</ele>
        <time>2019-01-13T23:18:03Z</time>
      </trkpt>
      <trkpt lat="41.938916" lon="2.939738">
        <ele>186.0</ele>
        <time>2019-01-13T23:18:04Z</time>
      </trkpt>
      <trkpt lat="41.938914" lon="2.939687">
        <ele>186.0</ele>
        <time>2019-01-13T23:18:05Z</time>
      </trkpt>
      <trkpt lat="41.938912" lon="2.939634">
        <ele>186.0</ele>
        <time>2019-01-13T23:18:05Z</time>
      </trkpt>
      <trkpt lat="41.938916" lon="2.939576">
        <ele>187.0</ele>
        <time>2019-01-13T23:18:06Z</time>
      </trkpt>
      <trkpt lat="41.938920" lon="2.939524">
        <ele>187.0</ele>
        <time>2019-01-13T23:18:07Z</time>
      </trkpt>
      <trkpt lat="41.938966" lon="2.939276">
        <ele>188.0</ele>
        <time>2019-01-13T23:18:10Z</time>
      </trkpt>
      <trkpt lat="41.938978" lon="2.939223">
        <ele>188.0</ele>
        <time>2019-01-13T23:18:10Z</time>
      </trkpt>
      <trkpt lat="41.938990" lon="2.939173">
        <ele>189.0</ele>
        <time>2019-01-13T23:18:11Z</time>
      </trkpt>
      <trkpt lat="41.939002" lon="2.939122">
        <ele>189.0</ele>
        <time>2019-01-13T23:18:12Z</time>
      </trkpt>
      <trkpt lat="41.939014" lon="2.939072">
        <ele>189.0</ele>
        <time>2019-01-13T23:18:12Z</time>
      </trkpt>
      <trkpt lat="41.939061" lon="2.938862">
        <ele>190.0</ele>
        <time>2019-01-13T23:18:15Z</time>
      </trkpt>
      <trkpt lat="41.939072" lon="2.938813">
        <ele>190.0</ele>
        <time>2019-01-13T23:18:16Z</time>
      </trkpt>
      <trkpt lat="41.939082" lon="2.938760">
        <ele>190.0</ele>
        <time>2019-01-13T23:18:16Z</time>
      </trkpt>
      <trkpt lat="41.939090" lon="2.938711">
        <ele>191.0</ele>
        <time>2019-01-13T23:18:17Z</time>
      </trkpt>
      <trkpt lat="41.939099" lon="2.938660">
        <ele>191.0</ele>
        <time>2019-01-13T23:18:17Z</time>
      </trkpt>
      <trkpt lat="41.939104" lon="2.938444">
        <ele>192.0</ele>
        <time>2019-01-13T23:18:20Z</time>
      </trkpt>
      <trkpt lat="41.939099" lon="2.938389">
        <ele>193.0</ele>
        <time>2019-01-13T23:18:21Z</time>
      </trkpt>
      <trkpt lat="41.939091" lon="2.938335">
        <ele>193.0</ele>
        <time>2019-01-13T23:18:21Z</time>
      </trkpt>
      <trkpt lat="41.939080" lon="2.938281">
        <ele>193.0</ele>
        <time>2019-01-13T23:18:22Z</time>
      </trkpt>
      <trkpt lat="41.939063" lon="2.938229">
        <ele>193.0</ele>
        <time>2019-01-13T23:18:23Z</time>
      </trkpt>
      <trkpt lat="41.939046" lon="2.938177">
        <ele>194.0</ele>
        <time>2019-01-13T23:18:23Z</time>
      </trkpt>
      <trkpt lat="41.938981" lon="2.937920">
        <ele>195.0</ele>
        <time>2019-01-13T23:18:27Z</time>
      </trkpt>
      <trkpt lat="41.938972" lon="2.937867">
        <ele>195.0</ele>
        <time>2019-01-13T23:18:27Z</time>
      </trkpt>
      <trkpt lat="41.938959" lon="2.937815">
        <ele>196.0</ele>
        <time>2019-01-13T23:18:28Z</time>
      </trkpt>
      <trkpt lat="41.938948" lon="2.937765">
        <ele>196.0</ele>
        <time>2019-01-13T23:18:28Z</time>
      </trkpt>
      <trkpt lat="41.938946" lon="2.937710">
        <ele>196.0</ele>
        <time>2019-01-13T23:18:29Z</time>
      </trkpt>
      <trkpt lat="41.938962" lon="2.937603">
        <ele>197.0</ele>
        <time>2019-01-13T23:18:30Z</time>
      </trkpt>
      <trkpt lat="41.938994" lon="2.937502">
        <ele>197.0</ele>
        <time>2019-01-13T23:18:32Z</time>
      </trkpt>
      <trkpt lat="41.939010" lon="2.937452">
        <ele>198.0</ele>
        <time>2019-01-13T23:18:32Z</time>
      </trkpt>
      <trkpt lat="41.939022" lon="2.937399">
        <ele>198.0</ele>
        <time>2019-01-13T23:18:33Z</time>
      </trkpt>
      <trkpt lat="41.939030" lon="2.937346">
        <ele>198.0</ele>
        <time>2019-01-13T23:18:34Z</time>
      </trkpt>
      <trkpt lat="41.939028" lon="2.937292">
        <ele>198.0</ele>
        <time>2019-01-13T23:18:34Z</time>
      </trkpt>
      <trkpt lat="41.939027" lon="2.937132">
        <ele>199.0</ele>
        <time>2019-01-13T23:18:36Z</time>
      </trkpt>
      <trkpt lat="41.939031" lon="2.937080">
        <ele>200.0</ele>
        <time>2019-01-13T23:18:37Z</time>
      </trkpt>
      <trkpt lat="41.939034" lon="2.937028">
        <ele>200.0</ele>
        <time>2019-01-13T23:18:37Z</time>
      </trkpt>
      <trkpt lat="41.939038" lon="2.936975">
        <ele>200.0</ele>
        <time>2019-01-13T23:18:38Z</time>
      </trkpt>
      <trkpt lat="41.939035" lon="2.936926">
        <ele>200.0</ele>
        <time>2019-01-13T23:18:39Z</time>
      </trkpt>
      <trkpt lat="41.939053" lon="2.936652">
        <ele>202.0</ele>
        <time>2019-01-13T23:18:42Z</time>
      </trkpt>
      <trkpt lat="41.939053" lon="2.936601">
        <ele>202.0</ele>
        <time>2019-01-13T23:18:43Z</time>
      </trkpt>
      <trkpt lat="41.939053" lon="2.936548">
        <ele>202.0</ele>
        <time>2019-01-13T23:18:43Z</time>
      </trkpt>
      <trkpt lat="41.939051" lon="2.936491">
        <ele>202.0</ele>
        <time>2019-01-13T23:18:44Z</time>
      </trkpt>
      <trkpt lat="41.939049" lon="2.936435">
        <ele>203.0</ele>
        <time>2019-01-13T23:18:45Z</time>
      </trkpt>
      <trkpt lat="41.939045" lon="2.936324">
        <ele>203.0</ele>
        <time>2019-01-13T23:18:46Z</time>
      </trkpt>
      <trkpt lat="41.939047" lon="2.936215">
        <ele>204.0</ele>
        <time>2019-01-13T23:18:47Z</time>
      </trkpt>
      <trkpt lat="41.939052" lon="2.936159">
        <ele>204.0</ele>
        <time>2019-01-13T23:18:48Z</time>
      </trkpt>
      <trkpt lat="41.939069" lon="2.936110">
        <ele>204.0</ele>
        <time>2019-01-13T23:18:49Z</time>
      </trkpt>
      <trkpt lat="41.939093" lon="2.936057">
        <ele>204.0</ele>
        <time>2019-01-13T23:18:49Z</time>
      </trkpt>
      <trkpt lat="41.939126" lon="2.936016">
        <ele>205.0</ele>
        <time>2019-01-13T23:18:50Z</time>
      </trkpt>
      <trkpt lat="41.939159" lon="2.935983">
        <ele>205.0</ele>
        <time>2019-01-13T23:18:51Z</time>
      </trkpt>
      <trkpt lat="41.939284" lon="2.935930">
        <ele>205.0</ele>
        <time>2019-01-13T23:18:53Z</time>
      </trkpt>
      <trkpt lat="41.939322" lon="2.935907">
        <ele>206.0</ele>
        <time>2019-01-13T23:18:53Z</time>
      </trkpt>
      <trkpt lat="41.939361" lon="2.935883">
        <ele>206.0</ele>
        <time>2019-01-13T23:18:54Z</time>
      </trkpt>
      <trkpt lat="41.939400" lon="2.935857">
        <ele>206.0</ele>
        <time>2019-01-13T23:18:55Z</time>
      </trkpt>
      <trkpt lat="41.939439" lon="2.935827">
        <ele>207.0</ele>
        <time>2019-01-13T23:18:55Z</time>
      </trkpt>
      <trkpt lat="41.939536" lon="2.935723">
        <ele>207.0</ele>
        <time>2019-01-13T23:18:57Z</time>
      </trkpt>
      <trkpt lat="41.939586" lon="2.935644">
        <ele>208.0</ele>
        <time>2019-01-13T23:18:59Z</time>
      </trkpt>
      <trkpt lat="41.939607" lon="2.935600">
        <ele>208.0</ele>
        <time>2019-01-13T23:18:59Z</time>
      </trkpt>
      <trkpt lat="41.939628" lon="2.935557">
        <ele>208.0</ele>
        <time>2019-01-13T23:19:00Z</time>
      </trkpt>
      <trkpt lat="41.939643" lon="2.935505">
        <ele>209.0</ele>
        <time>2019-01-13T23:19:01Z</time>
      </trkpt>
      <trkpt lat="41.939656" lon="2.935455">
        <ele>209.0</ele>
        <time>2019-01-13T23:19:01Z</time>
      </trkpt>
      <trkpt lat="41.939666" lon="2.935402">
        <ele>209.0</ele>
        <time>2019-01-13T23:19:02Z</time>
      </trkpt>
      <trkpt lat="41.939677" lon="2.935287">
        <ele>209.0</ele>
        <time>2019-01-13T23:19:03Z</time>
      </trkpt>
      <trkpt lat="41.939667" lon="2.935159">
        <ele>210.0</ele>
        <time>2019-01-13T23:19:05Z</time>
      </trkpt>
      <trkpt lat="41.939601" lon="2.934978">
        <ele>209.0</ele>
        <time>2019-01-13T23:19:07Z</time>
      </trkpt>
      <trkpt lat="41.939575" lon="2.934922">
        <ele>209.0</ele>
        <time>2019-01-13T23:19:08Z</time>
      </trkpt>
      <trkpt lat="41.939546" lon="2.934867">
        <ele>210.0</ele>
        <time>2019-01-13T23:19:09Z</time>
      </trkpt>
      <trkpt lat="41.939518" lon="2.934811">
        <ele>210.0</ele>
        <time>2019-01-13T23:19:10Z</time>
      </trkpt>
      <trkpt lat="41.939489" lon="2.934755">
        <ele>210.0</ele>
        <time>2019-01-13T23:19:10Z</time>
      </trkpt>
      <trkpt lat="41.939456" lon="2.934697">
        <ele>210.0</ele>
        <time>2019-01-13T23:19:11Z</time>
      </trkpt>
      <trkpt lat="41.939422" lon="2.934642">
        <ele>210.0</ele>
        <time>2019-01-13T23:19:12Z</time>
      </trkpt>
      <trkpt lat="41.939325" lon="2.934468">
        <ele>211.0</ele>
        <time>2019-01-13T23:19:15Z</time>
      </trkpt>
      <trkpt lat="41.939097" lon="2.934060">
        <ele>212.0</ele>
        <time>2019-01-13T23:19:21Z</time>
      </trkpt>
      <trkpt lat="41.939063" lon="2.934003">
        <ele>212.0</ele>
        <time>2019-01-13T23:19:22Z</time>
      </trkpt>
      <trkpt lat="41.938863" lon="2.933649">
        <ele>213.0</ele>
        <time>2019-01-13T23:19:27Z</time>
      </trkpt>
      <trkpt lat="41.938805" lon="2.933531">
        <ele>213.0</ele>
        <time>2019-01-13T23:19:29Z</time>
      </trkpt>
      <trkpt lat="41.938779" lon="2.933471">
        <ele>213.0</ele>
        <time>2019-01-13T23:19:29Z</time>
      </trkpt>
      <trkpt lat="41.938753" lon="2.933410">
        <ele>213.0</ele>
        <time>2019-01-13T23:19:30Z</time>
      </trkpt>
      <trkpt lat="41.938732" lon="2.933351">
        <ele>214.0</ele>
        <time>2019-01-13T23:19:31Z</time>
      </trkpt>
      <trkpt lat="41.938712" lon="2.933292">
        <ele>214.0</ele>
        <time>2019-01-13T23:19:32Z</time>
      </trkpt>
      <trkpt lat="41.938694" lon="2.933231">
        <ele>214.0</ele>
        <time>2019-01-13T23:19:33Z</time>
      </trkpt>
      <trkpt lat="41.938678" lon="2.933171">
        <ele>214.0</ele>
        <time>2019-01-13T23:19:33Z</time>
      </trkpt>
      <trkpt lat="41.938664" lon="2.933109">
        <ele>215.0</ele>
        <time>2019-01-13T23:19:34Z</time>
      </trkpt>
      <trkpt lat="41.938651" lon="2.933047">
        <ele>215.0</ele>
        <time>2019-01-13T23:19:35Z</time>
      </trkpt>
      <trkpt lat="41.938642" lon="2.932983">
        <ele>215.0</ele>
        <time>2019-01-13T23:19:36Z</time>
      </trkpt>
      <trkpt lat="41.938634" lon="2.932920">
        <ele>215.0</ele>
        <time>2019-01-13T23:19:36Z</time>
      </trkpt>
      <trkpt lat="41.938625" lon="2.932855">
        <ele>216.0</ele>
        <time>2019-01-13T23:19:37Z</time>
      </trkpt>
      <trkpt lat="41.938618" lon="2.932793">
        <ele>216.0</ele>
        <time>2019-01-13T23:19:38Z</time>
      </trkpt>
      <trkpt lat="41.938614" lon="2.932732">
        <ele>216.0</ele>
        <time>2019-01-13T23:19:39Z</time>
      </trkpt>
      <trkpt lat="41.938587" lon="2.932420">
        <ele>218.0</ele>
        <time>2019-01-13T23:19:42Z</time>
      </trkpt>
      <trkpt lat="41.938582" lon="2.932358">
        <ele>218.0</ele>
        <time>2019-01-13T23:19:43Z</time>
      </trkpt>
      <trkpt lat="41.938577" lon="2.932298">
        <ele>218.0</ele>
        <time>2019-01-13T23:19:44Z</time>
      </trkpt>
      <trkpt lat="41.938574" lon="2.932240">
        <ele>218.0</ele>
        <time>2019-01-13T23:19:45Z</time>
      </trkpt>
      <trkpt lat="41.938572" lon="2.932182">
        <ele>219.0</ele>
        <time>2019-01-13T23:19:45Z</time>
      </trkpt>
      <trkpt lat="41.938565" lon="2.932015">
        <ele>219.0</ele>
        <time>2019-01-13T23:19:47Z</time>
      </trkpt>
      <trkpt lat="41.938560" lon="2.931957">
        <ele>220.0</ele>
        <time>2019-01-13T23:19:48Z</time>
      </trkpt>
      <trkpt lat="41.938556" lon="2.931901">
        <ele>220.0</ele>
        <time>2019-01-13T23:19:49Z</time>
      </trkpt>
      <trkpt lat="41.938554" lon="2.931848">
        <ele>220.0</ele>
        <time>2019-01-13T23:19:49Z</time>
      </trkpt>
      <trkpt lat="41.938550" lon="2.931795">
        <ele>220.0</ele>
        <time>2019-01-13T23:19:50Z</time>
      </trkpt>
      <trkpt lat="41.938544" lon="2.931741">
        <ele>221.0</ele>
        <time>2019-01-13T23:19:51Z</time>
      </trkpt>
      <trkpt lat="41.938523" lon="2.931628">
        <ele>221.0</ele>
        <time>2019-01-13T23:19:52Z</time>
      </trkpt>
      <trkpt lat="41.938506" lon="2.931573">
        <ele>221.0</ele>
        <time>2019-01-13T23:19:53Z</time>
      </trkpt>
      <trkpt lat="41.938438" lon="2.931419">
        <ele>222.0</ele>
        <time>2019-01-13T23:19:55Z</time>
      </trkpt>
      <trkpt lat="41.938410" lon="2.931371">
        <ele>222.0</ele>
        <time>2019-01-13T23:19:56Z</time>
      </trkpt>
      <trkpt lat="41.938380" lon="2.931321">
        <ele>223.0</ele>
        <time>2019-01-13T23:19:56Z</time>
      </trkpt>
      <trkpt lat="41.938353" lon="2.931270">
        <ele>223.0</ele>
        <time>2019-01-13T23:19:57Z</time>
      </trkpt>
      <trkpt lat="41.938326" lon="2.931217">
        <ele>223.0</ele>
        <time>2019-01-13T23:19:58Z</time>
      </trkpt>
      <trkpt lat="41.938172" lon="2.930968">
        <ele>224.0</ele>
        <time>2019-01-13T23:20:02Z</time>
      </trkpt>
      <trkpt lat="41.938113" lon="2.930863">
        <ele>225.0</ele>
        <time>2019-01-13T23:20:03Z</time>
      </trkpt>
      <trkpt lat="41.937998" lon="2.930729">
        <ele>225.0</ele>
        <time>2019-01-13T23:20:06Z</time>
      </trkpt>
      <trkpt lat="41.937904" lon="2.930713">
        <ele>226.0</ele>
        <time>2019-01-13T23:20:07Z</time>
      </trkpt>
      <trkpt lat="41.937857" lon="2.930727">
        <ele>226.0</ele>
        <time>2019-01-13T23:20:08Z</time>
      </trkpt>
      <trkpt lat="41.937814" lon="2.930758">
        <ele>226.0</ele>
        <time>2019-01-13T23:20:09Z</time>
      </trkpt>
      <trkpt lat="41.937781" lon="2.930804">
        <ele>226.0</ele>
        <time>2019-01-13T23:20:09Z</time>
      </trkpt>
      <trkpt lat="41.937760" lon="2.930863">
        <ele>226.0</ele>
        <time>2019-01-13T23:20:10Z</time>
      </trkpt>
      <trkpt lat="41.937691" lon="2.931108">
        <ele>226.0</ele>
        <time>2019-01-13T23:20:13Z</time>
      </trkpt>
      <trkpt lat="41.937554" lon="2.931153">
        <ele>227.0</ele>
        <time>2019-01-13T23:20:16Z</time>
      </trkpt>
      <trkpt lat="41.937504" lon="2.931145">
        <ele>227.0</ele>
        <time>2019-01-13T23:20:16Z</time>
      </trkpt>
      <trkpt lat="41.937453" lon="2.931126">
        <ele>227.0</ele>
        <time>2019-01-13T23:20:17Z</time>
      </trkpt>
      <trkpt lat="41.937367" lon="2.931042">
        <ele>228.0</ele>
        <time>2019-01-13T23:20:19Z</time>
      </trkpt>
      <trkpt lat="41.937285" lon="2.930785">
        <ele>228.0</ele>
        <time>2019-01-13T23:20:22Z</time>
      </trkpt>
      <trkpt lat="41.937285" lon="2.930717">
        <ele>228.0</ele>
        <time>2019-01-13T23:20:23Z</time>
      </trkpt>
      <trkpt lat="41.937293" lon="2.930650">
        <ele>229.0</ele>
        <time>2019-01-13T23:20:24Z</time>
      </trkpt>
      <trkpt lat="41.937305" lon="2.930584">
        <ele>229.0</ele>
        <time>2019-01-13T23:20:25Z</time>
      </trkpt>
      <trkpt lat="41.937319" lon="2.930519">
        <ele>229.0</ele>
        <time>2019-01-13T23:20:26Z</time>
      </trkpt>
      <trkpt lat="41.937391" lon="2.930190">
        <ele>230.0</ele>
        <time>2019-01-13T23:20:30Z</time>
      </trkpt>
      <trkpt lat="41.937398" lon="2.930120">
        <ele>230.0</ele>
        <time>2019-01-13T23:20:30Z</time>
      </trkpt>
      <trkpt lat="41.937399" lon="2.929977">
        <ele>231.0</ele>
        <time>2019-01-13T23:20:32Z</time>
      </trkpt>
      <trkpt lat="41.937387" lon="2.929908">
        <ele>231.0</ele>
        <time>2019-01-13T23:20:33Z</time>
      </trkpt>
      <trkpt lat="41.937367" lon="2.929840">
        <ele>231.0</ele>
        <time>2019-01-13T23:20:34Z</time>
      </trkpt>
      <trkpt lat="41.937340" lon="2.929772">
        <ele>231.0</ele>
        <time>2019-01-13T23:20:35Z</time>
      </trkpt>
      <trkpt lat="41.937314" lon="2.929711">
        <ele>231.0</ele>
        <time>2019-01-13T23:20:36Z</time>
      </trkpt>
      <trkpt lat="41.937286" lon="2.929648">
        <ele>232.0</ele>
        <time>2019-01-13T23:20:37Z</time>
      </trkpt>
      <trkpt lat="41.937257" lon="2.929586">
        <ele>232.0</ele>
        <time>2019-01-13T23:20:37Z</time>
      </trkpt>
      <trkpt lat="41.937201" lon="2.929468">
        <ele>232.0</ele>
        <time>2019-01-13T23:20:39Z</time>
      </trkpt>
      <trkpt lat="41.937160" lon="2.929343">
        <ele>232.0</ele>
        <time>2019-01-13T23:20:41Z</time>
      </trkpt>
      <trkpt lat="41.937152" lon="2.929208">
        <ele>232.0</ele>
        <time>2019-01-13T23:20:42Z</time>
      </trkpt>
      <trkpt lat="41.937160" lon="2.929143">
        <ele>233.0</ele>
        <time>2019-01-13T23:20:43Z</time>
      </trkpt>
      <trkpt lat="41.937167" lon="2.929075">
        <ele>233.0</ele>
        <time>2019-01-13T23:20:44Z</time>
      </trkpt>
      <trkpt lat="41.937166" lon="2.929006">
        <ele>233.0</ele>
        <time>2019-01-13T23:20:45Z</time>
      </trkpt>
      <trkpt lat="41.937157" lon="2.928935">
        <ele>233.0</ele>
        <time>2019-01-13T23:20:46Z</time>
      </trkpt>
      <trkpt lat="41.937071" lon="2.928757">
        <ele>233.0</ele>
        <time>2019-01-13T23:20:48Z</time>
      </trkpt>
      <trkpt lat="41.937037" lon="2.928710">
        <ele>234.0</ele>
        <time>2019-01-13T23:20:49Z</time>
      </trkpt>
      <trkpt lat="41.937005" lon="2.928658">
        <ele>234.0</ele>
        <time>2019-01-13T23:20:50Z</time>
      </trkpt>
      <trkpt lat="41.936939" lon="2.928476">
        <ele>234.0</ele>
        <time>2019-01-13T23:20:52Z</time>
      </trkpt>
      <trkpt lat="41.936921" lon="2.928410">
        <ele>234.0</ele>
        <time>2019-01-13T23:20:53Z</time>
      </trkpt>
      <trkpt lat="41.936904" lon="2.928348">
        <ele>234.0</ele>
        <time>2019-01-13T23:20:54Z</time>
      </trkpt>
      <trkpt lat="41.936888" lon="2.928286">
        <ele>234.0</ele>
        <time>2019-01-13T23:20:55Z</time>
      </trkpt>
      <trkpt lat="41.936871" lon="2.928221">
        <ele>235.0</ele>
        <time>2019-01-13T23:20:55Z</time>
      </trkpt>
      <trkpt lat="41.936856" lon="2.928157">
        <ele>235.0</ele>
        <time>2019-01-13T23:20:56Z</time>
      </trkpt>
      <trkpt lat="41.936842" lon="2.928094">
        <ele>235.0</ele>
        <time>2019-01-13T23:20:57Z</time>
      </trkpt>
      <trkpt lat="41.936833" lon="2.928028">
        <ele>235.0</ele>
        <time>2019-01-13T23:20:58Z</time>
      </trkpt>
      <trkpt lat="41.936869" lon="2.927843">
        <ele>235.0</ele>
        <time>2019-01-13T23:21:00Z</time>
      </trkpt>
      <trkpt lat="41.936947" lon="2.927682">
        <ele>235.0</ele>
        <time>2019-01-13T23:21:02Z</time>
      </trkpt>
      <trkpt lat="41.936957" lon="2.927617">
        <ele>235.0</ele>
        <time>2019-01-13T23:21:03Z</time>
      </trkpt>
      <trkpt lat="41.936955" lon="2.927556">
        <ele>235.0</ele>
        <time>2019-01-13T23:21:04Z</time>
      </trkpt>
      <trkpt lat="41.936939" lon="2.927499">
        <ele>235.0</ele>
        <time>2019-01-13T23:21:05Z</time>
      </trkpt>
      <trkpt lat="41.936908" lon="2.927451">
        <ele>235.0</ele>
        <time>2019-01-13T23:21:05Z</time>
      </trkpt>
      <trkpt lat="41.936779" lon="2.927372">
        <ele>236.0</ele>
        <time>2019-01-13T23:21:08Z</time>
      </trkpt>
      <trkpt lat="41.936735" lon="2.927357">
        <ele>236.0</ele>
        <time>2019-01-13T23:21:08Z</time>
      </trkpt>
      <trkpt lat="41.936593" lon="2.927299">
        <ele>236.0</ele>
        <time>2019-01-13T23:21:11Z</time>
      </trkpt>
      <trkpt lat="41.936467" lon="2.927189">
        <ele>236.0</ele>
        <time>2019-01-13T23:21:13Z</time>
      </trkpt>
      <trkpt lat="41.936419" lon="2.927075">
        <ele>236.0</ele>
        <time>2019-01-13T23:21:15Z</time>
      </trkpt>
      <trkpt lat="41.936407" lon="2.927013">
        <ele>236.0</ele>
        <time>2019-01-13T23:21:15Z</time>
      </trkpt>
      <trkpt lat="41.936399" lon="2.926946">
        <ele>237.0</ele>
        <time>2019-01-13T23:21:16Z</time>
      </trkpt>
      <trkpt lat="41.936390" lon="2.926881">
        <ele>237.0</ele>
        <time>2019-01-13T23:21:17Z</time>
      </trkpt>
      <trkpt lat="41.936369" lon="2.926815">
        <ele>237.0</ele>
        <time>2019-01-13T23:21:18Z</time>
      </trkpt>
      <trkpt lat="41.936336" lon="2.926753">
        <ele>237.0</ele>
        <time>2019-01-13T23:21:19Z</time>
      </trkpt>
      <trkpt lat="41.936253" lon="2.926661">
        <ele>238.0</ele>
        <time>2019-01-13T23:21:20Z</time>
      </trkpt>
      <trkpt lat="41.936174" lon="2.926565">
        <ele>238.0</ele>
        <time>2019-01-13T23:21:22Z</time>
      </trkpt>
      <trkpt lat="41.935998" lon="2.926220">
        <ele>239.0</ele>
        <time>2019-01-13T23:21:27Z</time>
      </trkpt>
      <trkpt lat="41.935967" lon="2.926159">
        <ele>240.0</ele>
        <time>2019-01-13T23:21:28Z</time>
      </trkpt>
      <trkpt lat="41.935838" lon="2.926022">
        <ele>241.0</ele>
        <time>2019-01-13T23:21:31Z</time>
      </trkpt>
      <trkpt lat="41.935688" lon="2.926045">
        <ele>242.0</ele>
        <time>2019-01-13T23:21:33Z</time>
      </trkpt>
      <trkpt lat="41.935651" lon="2.926087">
        <ele>242.0</ele>
        <time>2019-01-13T23:21:34Z</time>
      </trkpt>
      <trkpt lat="41.935618" lon="2.926132">
        <ele>242.0</ele>
        <time>2019-01-13T23:21:35Z</time>
      </trkpt>
      <trkpt lat="41.935585" lon="2.926181">
        <ele>242.0</ele>
        <time>2019-01-13T23:21:35Z</time>
      </trkpt>
      <trkpt lat="41.935558" lon="2.926230">
        <ele>243.0</ele>
        <time>2019-01-13T23:21:36Z</time>
      </trkpt>
      <trkpt lat="41.935531" lon="2.926281">
        <ele>243.0</ele>
        <time>2019-01-13T23:21:37Z</time>
      </trkpt>
      <trkpt lat="41.935510" lon="2.926336">
        <ele>243.0</ele>
        <time>2019-01-13T23:21:38Z</time>
      </trkpt>
      <trkpt lat="41.935490" lon="2.926454">
        <ele>243.0</ele>
        <time>2019-01-13T23:21:39Z</time>
      </trkpt>
      <trkpt lat="41.935479" lon="2.926579">
        <ele>244.0</ele>
        <time>2019-01-13T23:21:41Z</time>
      </trkpt>
      <trkpt lat="41.935478" lon="2.926641">
        <ele>244.0</ele>
        <time>2019-01-13T23:21:41Z</time>
      </trkpt>
      <trkpt lat="41.935475" lon="2.926702">
        <ele>244.0</ele>
        <time>2019-01-13T23:21:42Z</time>
      </trkpt>
      <trkpt lat="41.935467" lon="2.926765">
        <ele>244.0</ele>
        <time>2019-01-13T23:21:43Z</time>
      </trkpt>
      <trkpt lat="41.935458" lon="2.926827">
        <ele>245.0</ele>
        <time>2019-01-13T23:21:44Z</time>
      </trkpt>
      <trkpt lat="41.935415" lon="2.927007">
        <ele>245.0</ele>
        <time>2019-01-13T23:21:46Z</time>
      </trkpt>
      <trkpt lat="41.935363" lon="2.927118">
        <ele>246.0</ele>
        <time>2019-01-13T23:21:47Z</time>
      </trkpt>
      <trkpt lat="41.935326" lon="2.927161">
        <ele>246.0</ele>
        <time>2019-01-13T23:21:48Z</time>
      </trkpt>
      <trkpt lat="41.935281" lon="2.927189">
        <ele>246.0</ele>
        <time>2019-01-13T23:21:49Z</time>
      </trkpt>
      <trkpt lat="41.935235" lon="2.927200">
        <ele>246.0</ele>
        <time>2019-01-13T23:21:50Z</time>
      </trkpt>
      <trkpt lat="41.935190" lon="2.927191">
        <ele>246.0</ele>
        <time>2019-01-13T23:21:50Z</time>
      </trkpt>
      <trkpt lat="41.935144" lon="2.927177">
        <ele>246.0</ele>
        <time>2019-01-13T23:21:51Z</time>
      </trkpt>
      <trkpt lat="41.934955" lon="2.927104">
        <ele>247.0</ele>
        <time>2019-01-13T23:21:54Z</time>
      </trkpt>
      <trkpt lat="41.934906" lon="2.927084">
        <ele>247.0</ele>
        <time>2019-01-13T23:21:55Z</time>
      </trkpt>
      <trkpt lat="41.934854" lon="2.927068">
        <ele>247.0</ele>
        <time>2019-01-13T23:21:56Z</time>
      </trkpt>
      <trkpt lat="41.934803" lon="2.927050">
        <ele>247.0</ele>
        <time>2019-01-13T23:21:57Z</time>
      </trkpt>
      <trkpt lat="41.934751" lon="2.927033">
        <ele>248.0</ele>
        <time>2019-01-13T23:21:58Z</time>
      </trkpt>
      <trkpt lat="41.934695" lon="2.927013">
        <ele>248.0</ele>
        <time>2019-01-13T23:21:59Z</time>
      </trkpt>
      <trkpt lat="41.934496" lon="2.926926">
        <ele>248.0</ele>
        <time>2019-01-13T23:22:02Z</time>
      </trkpt>
      <trkpt lat="41.934341" lon="2.926860">
        <ele>249.0</ele>
        <time>2019-01-13T23:22:05Z</time>
      </trkpt>
      <trkpt lat="41.934291" lon="2.926837">
        <ele>249.0</ele>
        <time>2019-01-13T23:22:05Z</time>
      </trkpt>
      <trkpt lat="41.934243" lon="2.926807">
        <ele>249.0</ele>
        <time>2019-01-13T23:22:06Z</time>
      </trkpt>
      <trkpt lat="41.934196" lon="2.926768">
        <ele>249.0</ele>
        <time>2019-01-13T23:22:07Z</time>
      </trkpt>
      <trkpt lat="41.934090" lon="2.926605">
        <ele>249.0</ele>
        <time>2019-01-13T23:22:10Z</time>
      </trkpt>
      <trkpt lat="41.934062" lon="2.926543">
        <ele>249.0</ele>
        <time>2019-01-13T23:22:11Z</time>
      </trkpt>
      <trkpt lat="41.934037" lon="2.926473">
        <ele>249.0</ele>
        <time>2019-01-13T23:22:11Z</time>
      </trkpt>
      <trkpt lat="41.934002" lon="2.926258">
        <ele>250.0</ele>
        <time>2019-01-13T23:22:14Z</time>
      </trkpt>
      <trkpt lat="41.933998" lon="2.926187">
        <ele>250.0</ele>
        <time>2019-01-13T23:22:15Z</time>
      </trkpt>
      <trkpt lat="41.933995" lon="2.926117">
        <ele>250.0</ele>
        <time>2019-01-13T23:22:16Z</time>
      </trkpt>
      <trkpt lat="41.933990" lon="2.926048">
        <ele>250.0</ele>
        <time>2019-01-13T23:22:17Z</time>
      </trkpt>
      <trkpt lat="41.933977" lon="2.925979">
        <ele>250.0</ele>
        <time>2019-01-13T23:22:17Z</time>
      </trkpt>
      <trkpt lat="41.933957" lon="2.925918">
        <ele>250.0</ele>
        <time>2019-01-13T23:22:18Z</time>
      </trkpt>
      <trkpt lat="41.933924" lon="2.925872">
        <ele>251.0</ele>
        <time>2019-01-13T23:22:19Z</time>
      </trkpt>
      <trkpt lat="41.933781" lon="2.925812">
        <ele>251.0</ele>
        <time>2019-01-13T23:22:21Z</time>
      </trkpt>
      <trkpt lat="41.933643" lon="2.925893">
        <ele>252.0</ele>
        <time>2019-01-13T23:22:24Z</time>
      </trkpt>
      <trkpt lat="41.933558" lon="2.925962">
        <ele>253.0</ele>
        <time>2019-01-13T23:22:25Z</time>
      </trkpt>
      <trkpt lat="41.933515" lon="2.925992">
        <ele>253.0</ele>
        <time>2019-01-13T23:22:26Z</time>
      </trkpt>
      <trkpt lat="41.933419" lon="2.926010">
        <ele>253.0</ele>
        <time>2019-01-13T23:22:28Z</time>
      </trkpt>
      <trkpt lat="41.933234" lon="2.925897">
        <ele>254.0</ele>
        <time>2019-01-13T23:22:31Z</time>
      </trkpt>
      <trkpt lat="41.933192" lon="2.925858">
        <ele>255.0</ele>
        <time>2019-01-13T23:22:32Z</time>
      </trkpt>
      <trkpt lat="41.933148" lon="2.925818">
        <ele>255.0</ele>
        <time>2019-01-13T23:22:33Z</time>
      </trkpt>
      <trkpt lat="41.933105" lon="2.925778">
        <ele>255.0</ele>
        <time>2019-01-13T23:22:33Z</time>
      </trkpt>
      <trkpt lat="41.933061" lon="2.925737">
        <ele>255.0</ele>
        <time>2019-01-13T23:22:34Z</time>
      </trkpt>
      <trkpt lat="41.932977" lon="2.925645">
        <ele>256.0</ele>
        <time>2019-01-13T23:22:36Z</time>
      </trkpt>
      <trkpt lat="41.932945" lon="2.925595">
        <ele>256.0</ele>
        <time>2019-01-13T23:22:37Z</time>
      </trkpt>
      <trkpt lat="41.932894" lon="2.925403">
        <ele>256.0</ele>
        <time>2019-01-13T23:22:39Z</time>
      </trkpt>
      <trkpt lat="41.932886" lon="2.925340">
        <ele>257.0</ele>
        <time>2019-01-13T23:22:40Z</time>
      </trkpt>
      <trkpt lat="41.932872" lon="2.925264">
        <ele>257.0</ele>
        <time>2019-01-13T23:22:41Z</time>
      </trkpt>
      <trkpt lat="41.932859" lon="2.925214">
        <ele>257.0</ele>
        <time>2019-01-13T23:22:42Z</time>
      </trkpt>
      <trkpt lat="41.932838" lon="2.925153">
        <ele>257.0</ele>
        <time>2019-01-13T23:22:42Z</time>
      </trkpt>
      <trkpt lat="41.932808" lon="2.925096">
        <ele>257.0</ele>
        <time>2019-01-13T23:22:43Z</time>
      </trkpt>
      <trkpt lat="41.932773" lon="2.925047">
        <ele>258.0</ele>
        <time>2019-01-13T23:22:44Z</time>
      </trkpt>
      <trkpt lat="41.932588" lon="2.924938">
        <ele>258.0</ele>
        <time>2019-01-13T23:22:47Z</time>
      </trkpt>
      <trkpt lat="41.932537" lon="2.924913">
        <ele>259.0</ele>
        <time>2019-01-13T23:22:48Z</time>
      </trkpt>
      <trkpt lat="41.932490" lon="2.924885">
        <ele>259.0</ele>
        <time>2019-01-13T23:22:49Z</time>
      </trkpt>
      <trkpt lat="41.932446" lon="2.924846">
        <ele>259.0</ele>
        <time>2019-01-13T23:22:50Z</time>
      </trkpt>
      <trkpt lat="41.932411" lon="2.924798">
        <ele>259.0</ele>
        <time>2019-01-13T23:22:51Z</time>
      </trkpt>
      <trkpt lat="41.932390" lon="2.924736">
        <ele>260.0</ele>
        <time>2019-01-13T23:22:51Z</time>
      </trkpt>
      <trkpt lat="41.932399" lon="2.924486">
        <ele>261.0</ele>
        <time>2019-01-13T23:22:54Z</time>
      </trkpt>
      <trkpt lat="41.932416" lon="2.924427">
        <ele>261.0</ele>
        <time>2019-01-13T23:22:55Z</time>
      </trkpt>
      <trkpt lat="41.932432" lon="2.924370">
        <ele>261.0</ele>
        <time>2019-01-13T23:22:56Z</time>
      </trkpt>
      <trkpt lat="41.932439" lon="2.924309">
        <ele>262.0</ele>
        <time>2019-01-13T23:22:57Z</time>
      </trkpt>
      <trkpt lat="41.932424" lon="2.924247">
        <ele>262.0</ele>
        <time>2019-01-13T23:22:57Z</time>
      </trkpt>
      <trkpt lat="41.932403" lon="2.924193">
        <ele>262.0</ele>
        <time>2019-01-13T23:22:58Z</time>
      </trkpt>
      <trkpt lat="41.932336" lon="2.924057">
        <ele>263.0</ele>
        <time>2019-01-13T23:23:00Z</time>
      </trkpt>
      <trkpt lat="41.932260" lon="2.923965">
        <ele>264.0</ele>
        <time>2019-01-13T23:23:02Z</time>
      </trkpt>
      <trkpt lat="41.932219" lon="2.923928">
        <ele>264.0</ele>
        <time>2019-01-13T23:23:03Z</time>
      </trkpt>
      <trkpt lat="41.932175" lon="2.923894">
        <ele>264.0</ele>
        <time>2019-01-13T23:23:03Z</time>
      </trkpt>
      <trkpt lat="41.932131" lon="2.923868">
        <ele>265.0</ele>
        <time>2019-01-13T23:23:04Z</time>
      </trkpt>
      <trkpt lat="41.932086" lon="2.923857">
        <ele>265.0</ele>
        <time>2019-01-13T23:23:05Z</time>
      </trkpt>
      <trkpt lat="41.932003" lon="2.923871">
        <ele>265.0</ele>
        <time>2019-01-13T23:23:06Z</time>
      </trkpt>
      <trkpt lat="41.931919" lon="2.923908">
        <ele>265.0</ele>
        <time>2019-01-13T23:23:08Z</time>
      </trkpt>
      <trkpt lat="41.931878" lon="2.923934">
        <ele>266.0</ele>
        <time>2019-01-13T23:23:08Z</time>
      </trkpt>
      <trkpt lat="41.931793" lon="2.924004">
        <ele>266.0</ele>
        <time>2019-01-13T23:23:10Z</time>
      </trkpt>
      <trkpt lat="41.931755" lon="2.924046">
        <ele>266.0</ele>
        <time>2019-01-13T23:23:11Z</time>
      </trkpt>
      <trkpt lat="41.931723" lon="2.924092">
        <ele>266.0</ele>
        <time>2019-01-13T23:23:11Z</time>
      </trkpt>
      <trkpt lat="41.931693" lon="2.924139">
        <ele>266.0</ele>
        <time>2019-01-13T23:23:12Z</time>
      </trkpt>
      <trkpt lat="41.931662" lon="2.924185">
        <ele>267.0</ele>
        <time>2019-01-13T23:23:13Z</time>
      </trkpt>
      <trkpt lat="41.931630" lon="2.924234">
        <ele>267.0</ele>
        <time>2019-01-13T23:23:14Z</time>
      </trkpt>
      <trkpt lat="41.931572" lon="2.924324">
        <ele>267.0</ele>
        <time>2019-01-13T23:23:15Z</time>
      </trkpt>
      <trkpt lat="41.931538" lon="2.924357">
        <ele>268.0</ele>
        <time>2019-01-13T23:23:16Z</time>
      </trkpt>
      <trkpt lat="41.931500" lon="2.924379">
        <ele>268.0</ele>
        <time>2019-01-13T23:23:16Z</time>
      </trkpt>
      <trkpt lat="41.931458" lon="2.924386">
        <ele>268.0</ele>
        <time>2019-01-13T23:23:17Z</time>
      </trkpt>
      <trkpt lat="41.931415" lon="2.924377">
        <ele>269.0</ele>
        <time>2019-01-13T23:23:18Z</time>
      </trkpt>
      <trkpt lat="41.931379" lon="2.924345">
        <ele>269.0</ele>
        <time>2019-01-13T23:23:18Z</time>
      </trkpt>
      <trkpt lat="41.931327" lon="2.924215">
        <ele>270.0</ele>
        <time>2019-01-13T23:23:20Z</time>
      </trkpt>
      <trkpt lat="41.931321" lon="2.924166">
        <ele>270.0</ele>
        <time>2019-01-13T23:23:21Z</time>
      </trkpt>
      <trkpt lat="41.931318" lon="2.924117">
        <ele>270.0</ele>
        <time>2019-01-13T23:23:21Z</time>
      </trkpt>
      <trkpt lat="41.931316" lon="2.924063">
        <ele>271.0</ele>
        <time>2019-01-13T23:23:22Z</time>
      </trkpt>
      <trkpt lat="41.931307" lon="2.924010">
        <ele>271.0</ele>
        <time>2019-01-13T23:23:23Z</time>
      </trkpt>
      <trkpt lat="41.931293" lon="2.923955">
        <ele>271.0</ele>
        <time>2019-01-13T23:23:23Z</time>
      </trkpt>
      <trkpt lat="41.931193" lon="2.923723">
        <ele>272.0</ele>
        <time>2019-01-13T23:23:27Z</time>
      </trkpt>
      <trkpt lat="41.931162" lon="2.923683">
        <ele>272.0</ele>
        <time>2019-01-13T23:23:27Z</time>
      </trkpt>
      <trkpt lat="41.931131" lon="2.923647">
        <ele>272.0</ele>
        <time>2019-01-13T23:23:28Z</time>
      </trkpt>
      <trkpt lat="41.931097" lon="2.923611">
        <ele>273.0</ele>
        <time>2019-01-13T23:23:29Z</time>
      </trkpt>
      <trkpt lat="41.931065" lon="2.923577">
        <ele>273.0</ele>
        <time>2019-01-13T23:23:29Z</time>
      </trkpt>
      <trkpt lat="41.931033" lon="2.923546">
        <ele>273.0</ele>
        <time>2019-01-13T23:23:30Z</time>
      </trkpt>
      <trkpt lat="41.930966" lon="2.923483">
        <ele>273.0</ele>
        <time>2019-01-13T23:23:31Z</time>
      </trkpt>
      <trkpt lat="41.930805" lon="2.923325">
        <ele>274.0</ele>
        <time>2019-01-13T23:23:34Z</time>
      </trkpt>
      <trkpt lat="41.930772" lon="2.923291">
        <ele>274.0</ele>
        <time>2019-01-13T23:23:35Z</time>
      </trkpt>
      <trkpt lat="41.930739" lon="2.923256">
        <ele>275.0</ele>
        <time>2019-01-13T23:23:36Z</time>
      </trkpt>
      <trkpt lat="41.930708" lon="2.923218">
        <ele>275.0</ele>
        <time>2019-01-13T23:23:36Z</time>
      </trkpt>
      <trkpt lat="41.930681" lon="2.923176">
        <ele>275.0</ele>
        <time>2019-01-13T23:23:37Z</time>
      </trkpt>
      <trkpt lat="41.930656" lon="2.923130">
        <ele>275.0</ele>
        <time>2019-01-13T23:23:38Z</time>
      </trkpt>
      <trkpt lat="41.930593" lon="2.922870">
        <ele>276.0</ele>
        <time>2019-01-13T23:23:41Z</time>
      </trkpt>
      <trkpt lat="41.930581" lon="2.922814">
        <ele>276.0</ele>
        <time>2019-01-13T23:23:42Z</time>
      </trkpt>
      <trkpt lat="41.930569" lon="2.922759">
        <ele>277.0</ele>
        <time>2019-01-13T23:23:42Z</time>
      </trkpt>
      <trkpt lat="41.930558" lon="2.922704">
        <ele>277.0</ele>
        <time>2019-01-13T23:23:43Z</time>
      </trkpt>
      <trkpt lat="41.930548" lon="2.922650">
        <ele>277.0</ele>
        <time>2019-01-13T23:23:44Z</time>
      </trkpt>
      <trkpt lat="41.930541" lon="2.922595">
        <ele>277.0</ele>
        <time>2019-01-13T23:23:44Z</time>
      </trkpt>
      <trkpt lat="41.930534" lon="2.922539">
        <ele>277.0</ele>
        <time>2019-01-13T23:23:45Z</time>
      </trkpt>
      <trkpt lat="41.930487" lon="2.922266">
        <ele>278.0</ele>
        <time>2019-01-13T23:23:48Z</time>
      </trkpt>
      <trkpt lat="41.930475" lon="2.922212">
        <ele>279.0</ele>
        <time>2019-01-13T23:23:49Z</time>
      </trkpt>
      <trkpt lat="41.930461" lon="2.922155">
        <ele>279.0</ele>
        <time>2019-01-13T23:23:50Z</time>
      </trkpt>
      <trkpt lat="41.930443" lon="2.922099">
        <ele>279.0</ele>
        <time>2019-01-13T23:23:51Z</time>
      </trkpt>
      <trkpt lat="41.930422" lon="2.922046">
        <ele>279.0</ele>
        <time>2019-01-13T23:23:51Z</time>
      </trkpt>
      <trkpt lat="41.930398" lon="2.921996">
        <ele>279.0</ele>
        <time>2019-01-13T23:23:52Z</time>
      </trkpt>
      <trkpt lat="41.930320" lon="2.921834">
        <ele>280.0</ele>
        <time>2019-01-13T23:23:54Z</time>
      </trkpt>
      <trkpt lat="41.930293" lon="2.921783">
        <ele>280.0</ele>
        <time>2019-01-13T23:23:55Z</time>
      </trkpt>
      <trkpt lat="41.930213" lon="2.921632">
        <ele>281.0</ele>
        <time>2019-01-13T23:23:57Z</time>
      </trkpt>
      <trkpt lat="41.930192" lon="2.921580">
        <ele>281.0</ele>
        <time>2019-01-13T23:23:58Z</time>
      </trkpt>
      <trkpt lat="41.930169" lon="2.921524">
        <ele>281.0</ele>
        <time>2019-01-13T23:23:59Z</time>
      </trkpt>
      <trkpt lat="41.930153" lon="2.921468">
        <ele>281.0</ele>
        <time>2019-01-13T23:23:59Z</time>
      </trkpt>
      <trkpt lat="41.930141" lon="2.921410">
        <ele>281.0</ele>
        <time>2019-01-13T23:24:00Z</time>
      </trkpt>
      <trkpt lat="41.930158" lon="2.921182">
        <ele>282.0</ele>
        <time>2019-01-13T23:24:03Z</time>
      </trkpt>
      <trkpt lat="41.930184" lon="2.921139">
        <ele>282.0</ele>
        <time>2019-01-13T23:24:03Z</time>
      </trkpt>
      <trkpt lat="41.930219" lon="2.921101">
        <ele>283.0</ele>
        <time>2019-01-13T23:24:04Z</time>
      </trkpt>
      <trkpt lat="41.930252" lon="2.921066">
        <ele>283.0</ele>
        <time>2019-01-13T23:24:05Z</time>
      </trkpt>
      <trkpt lat="41.930284" lon="2.921029">
        <ele>283.0</ele>
        <time>2019-01-13T23:24:06Z</time>
      </trkpt>
      <trkpt lat="41.930312" lon="2.920982">
        <ele>283.0</ele>
        <time>2019-01-13T23:24:06Z</time>
      </trkpt>
      <trkpt lat="41.930381" lon="2.920856">
        <ele>284.0</ele>
        <time>2019-01-13T23:24:08Z</time>
      </trkpt>
      <trkpt lat="41.930396" lon="2.920808">
        <ele>284.0</ele>
        <time>2019-01-13T23:24:09Z</time>
      </trkpt>
      <trkpt lat="41.930398" lon="2.920682">
        <ele>285.0</ele>
        <time>2019-01-13T23:24:10Z</time>
      </trkpt>
      <trkpt lat="41.930394" lon="2.920615">
        <ele>285.0</ele>
        <time>2019-01-13T23:24:11Z</time>
      </trkpt>
      <trkpt lat="41.930384" lon="2.920541">
        <ele>285.0</ele>
        <time>2019-01-13T23:24:12Z</time>
      </trkpt>
      <trkpt lat="41.930377" lon="2.920475">
        <ele>285.0</ele>
        <time>2019-01-13T23:24:13Z</time>
      </trkpt>
      <trkpt lat="41.930342" lon="2.920194">
        <ele>286.0</ele>
        <time>2019-01-13T23:24:16Z</time>
      </trkpt>
      <trkpt lat="41.930337" lon="2.920126">
        <ele>286.0</ele>
        <time>2019-01-13T23:24:17Z</time>
      </trkpt>
      <trkpt lat="41.930332" lon="2.920058">
        <ele>287.0</ele>
        <time>2019-01-13T23:24:18Z</time>
      </trkpt>
      <trkpt lat="41.930331" lon="2.919990">
        <ele>287.0</ele>
        <time>2019-01-13T23:24:19Z</time>
      </trkpt>
      <trkpt lat="41.930332" lon="2.919921">
        <ele>287.0</ele>
        <time>2019-01-13T23:24:19Z</time>
      </trkpt>
      <trkpt lat="41.930335" lon="2.919854">
        <ele>287.0</ele>
        <time>2019-01-13T23:24:20Z</time>
      </trkpt>
      <trkpt lat="41.930345" lon="2.919784">
        <ele>287.0</ele>
        <time>2019-01-13T23:24:21Z</time>
      </trkpt>
      <trkpt lat="41.930360" lon="2.919722">
        <ele>288.0</ele>
        <time>2019-01-13T23:24:22Z</time>
      </trkpt>
      <trkpt lat="41.930414" lon="2.919472">
        <ele>288.0</ele>
        <time>2019-01-13T23:24:25Z</time>
      </trkpt>
      <trkpt lat="41.930419" lon="2.919407">
        <ele>289.0</ele>
        <time>2019-01-13T23:24:26Z</time>
      </trkpt>
      <trkpt lat="41.930420" lon="2.919338">
        <ele>289.0</ele>
        <time>2019-01-13T23:24:27Z</time>
      </trkpt>
      <trkpt lat="41.930416" lon="2.919271">
        <ele>289.0</ele>
        <time>2019-01-13T23:24:27Z</time>
      </trkpt>
      <trkpt lat="41.930409" lon="2.919203">
        <ele>289.0</ele>
        <time>2019-01-13T23:24:28Z</time>
      </trkpt>
      <trkpt lat="41.930400" lon="2.919136">
        <ele>289.0</ele>
        <time>2019-01-13T23:24:29Z</time>
      </trkpt>
      <trkpt lat="41.930385" lon="2.919073">
        <ele>290.0</ele>
        <time>2019-01-13T23:24:30Z</time>
      </trkpt>
      <trkpt lat="41.930284" lon="2.918915">
        <ele>290.0</ele>
        <time>2019-01-13T23:24:32Z</time>
      </trkpt>
      <trkpt lat="41.930127" lon="2.918850">
        <ele>291.0</ele>
        <time>2019-01-13T23:24:35Z</time>
      </trkpt>
      <trkpt lat="41.930076" lon="2.918835">
        <ele>291.0</ele>
        <time>2019-01-13T23:24:36Z</time>
      </trkpt>
      <trkpt lat="41.930026" lon="2.918819">
        <ele>291.0</ele>
        <time>2019-01-13T23:24:37Z</time>
      </trkpt>
      <trkpt lat="41.929975" lon="2.918801">
        <ele>291.0</ele>
        <time>2019-01-13T23:24:37Z</time>
      </trkpt>
      <trkpt lat="41.929928" lon="2.918774">
        <ele>292.0</ele>
        <time>2019-01-13T23:24:38Z</time>
      </trkpt>
      <trkpt lat="41.929883" lon="2.918738">
        <ele>292.0</ele>
        <time>2019-01-13T23:24:39Z</time>
      </trkpt>
      <trkpt lat="41.929843" lon="2.918696">
        <ele>292.0</ele>
        <time>2019-01-13T23:24:40Z</time>
      </trkpt>
      <trkpt lat="41.929756" lon="2.918532">
        <ele>293.0</ele>
        <time>2019-01-13T23:24:42Z</time>
      </trkpt>
      <trkpt lat="41.929729" lon="2.918478">
        <ele>293.0</ele>
        <time>2019-01-13T23:24:43Z</time>
      </trkpt>
      <trkpt lat="41.929705" lon="2.918423">
        <ele>293.0</ele>
        <time>2019-01-13T23:24:44Z</time>
      </trkpt>
      <trkpt lat="41.929656" lon="2.918303">
        <ele>294.0</ele>
        <time>2019-01-13T23:24:45Z</time>
      </trkpt>
      <trkpt lat="41.929620" lon="2.918259">
        <ele>294.0</ele>
        <time>2019-01-13T23:24:46Z</time>
      </trkpt>
      <trkpt lat="41.929574" lon="2.918224">
        <ele>295.0</ele>
        <time>2019-01-13T23:24:47Z</time>
      </trkpt>
      <trkpt lat="41.929518" lon="2.918209">
        <ele>295.0</ele>
        <time>2019-01-13T23:24:48Z</time>
      </trkpt>
      <trkpt lat="41.929463" lon="2.918223">
        <ele>296.0</ele>
        <time>2019-01-13T23:24:49Z</time>
      </trkpt>
      <trkpt lat="41.929337" lon="2.918350">
        <ele>297.0</ele>
        <time>2019-01-13T23:24:51Z</time>
      </trkpt>
      <trkpt lat="41.929274" lon="2.918454">
        <ele>297.0</ele>
        <time>2019-01-13T23:24:53Z</time>
      </trkpt>
      <trkpt lat="41.929248" lon="2.918509">
        <ele>297.0</ele>
        <time>2019-01-13T23:24:54Z</time>
      </trkpt>
      <trkpt lat="41.929228" lon="2.918569">
        <ele>298.0</ele>
        <time>2019-01-13T23:24:54Z</time>
      </trkpt>
      <trkpt lat="41.929211" lon="2.918636">
        <ele>298.0</ele>
        <time>2019-01-13T23:24:55Z</time>
      </trkpt>
      <trkpt lat="41.929109" lon="2.918854">
        <ele>299.0</ele>
        <time>2019-01-13T23:24:58Z</time>
      </trkpt>
      <trkpt lat="41.929037" lon="2.918910">
        <ele>300.0</ele>
        <time>2019-01-13T23:25:00Z</time>
      </trkpt>
      <trkpt lat="41.928998" lon="2.918929">
        <ele>300.0</ele>
        <time>2019-01-13T23:25:00Z</time>
      </trkpt>
      <trkpt lat="41.928960" lon="2.918953">
        <ele>300.0</ele>
        <time>2019-01-13T23:25:01Z</time>
      </trkpt>
      <trkpt lat="41.928922" lon="2.918982">
        <ele>300.0</ele>
        <time>2019-01-13T23:25:02Z</time>
      </trkpt>
      <trkpt lat="41.928885" lon="2.919013">
        <ele>300.0</ele>
        <time>2019-01-13T23:25:02Z</time>
      </trkpt>
      <trkpt lat="41.928813" lon="2.919086">
        <ele>301.0</ele>
        <time>2019-01-13T23:25:04Z</time>
      </trkpt>
      <trkpt lat="41.928774" lon="2.919122">
        <ele>301.0</ele>
        <time>2019-01-13T23:25:05Z</time>
      </trkpt>
      <trkpt lat="41.928734" lon="2.919155">
        <ele>301.0</ele>
        <time>2019-01-13T23:25:05Z</time>
      </trkpt>
      <trkpt lat="41.928694" lon="2.919185">
        <ele>301.0</ele>
        <time>2019-01-13T23:25:06Z</time>
      </trkpt>
      <trkpt lat="41.928653" lon="2.919216">
        <ele>302.0</ele>
        <time>2019-01-13T23:25:07Z</time>
      </trkpt>
      <trkpt lat="41.928569" lon="2.919296">
        <ele>302.0</ele>
        <time>2019-01-13T23:25:09Z</time>
      </trkpt>
      <trkpt lat="41.928535" lon="2.919341">
        <ele>302.0</ele>
        <time>2019-01-13T23:25:09Z</time>
      </trkpt>
      <trkpt lat="41.928504" lon="2.919390">
        <ele>302.0</ele>
        <time>2019-01-13T23:25:10Z</time>
      </trkpt>
      <trkpt lat="41.928476" lon="2.919440">
        <ele>303.0</ele>
        <time>2019-01-13T23:25:11Z</time>
      </trkpt>
      <trkpt lat="41.928448" lon="2.919490">
        <ele>303.0</ele>
        <time>2019-01-13T23:25:12Z</time>
      </trkpt>
      <trkpt lat="41.928418" lon="2.919537">
        <ele>303.0</ele>
        <time>2019-01-13T23:25:12Z</time>
      </trkpt>
      <trkpt lat="41.928384" lon="2.919582">
        <ele>303.0</ele>
        <time>2019-01-13T23:25:13Z</time>
      </trkpt>
      <trkpt lat="41.928345" lon="2.919611">
        <ele>303.0</ele>
        <time>2019-01-13T23:25:14Z</time>
      </trkpt>
      <trkpt lat="41.928213" lon="2.919641">
        <ele>304.0</ele>
        <time>2019-01-13T23:25:16Z</time>
      </trkpt>
      <trkpt lat="41.928171" lon="2.919627">
        <ele>304.0</ele>
        <time>2019-01-13T23:25:17Z</time>
      </trkpt>
      <trkpt lat="41.928134" lon="2.919607">
        <ele>304.0</ele>
        <time>2019-01-13T23:25:17Z</time>
      </trkpt>
      <trkpt lat="41.928104" lon="2.919580">
        <ele>305.0</ele>
        <time>2019-01-13T23:25:18Z</time>
      </trkpt>
      <trkpt lat="41.928070" lon="2.919544">
        <ele>305.0</ele>
        <time>2019-01-13T23:25:19Z</time>
      </trkpt>
      <trkpt lat="41.928029" lon="2.919515">
        <ele>305.0</ele>
        <time>2019-01-13T23:25:19Z</time>
      </trkpt>
      <trkpt lat="41.927937" lon="2.919477">
        <ele>305.0</ele>
        <time>2019-01-13T23:25:21Z</time>
      </trkpt>
      <trkpt lat="41.927887" lon="2.919472">
        <ele>305.0</ele>
        <time>2019-01-13T23:25:22Z</time>
      </trkpt>
      <trkpt lat="41.927837" lon="2.919469">
        <ele>305.0</ele>
        <time>2019-01-13T23:25:22Z</time>
      </trkpt>
      <trkpt lat="41.927790" lon="2.919463">
        <ele>305.0</ele>
        <time>2019-01-13T23:25:23Z</time>
      </trkpt>
      <trkpt lat="41.927741" lon="2.919451">
        <ele>305.0</ele>
        <time>2019-01-13T23:25:24Z</time>
      </trkpt>
      <trkpt lat="41.927664" lon="2.919388">
        <ele>306.0</ele>
        <time>2019-01-13T23:25:25Z</time>
      </trkpt>
      <trkpt lat="41.927579" lon="2.919242">
        <ele>306.0</ele>
        <time>2019-01-13T23:25:28Z</time>
      </trkpt>
      <trkpt lat="41.927553" lon="2.919191">
        <ele>306.0</ele>
        <time>2019-01-13T23:25:28Z</time>
      </trkpt>
      <trkpt lat="41.927524" lon="2.919141">
        <ele>306.0</ele>
        <time>2019-01-13T23:25:29Z</time>
      </trkpt>
      <trkpt lat="41.927495" lon="2.919087">
        <ele>306.0</ele>
        <time>2019-01-13T23:25:30Z</time>
      </trkpt>
      <trkpt lat="41.927392" lon="2.918786">
        <ele>307.0</ele>
        <time>2019-01-13T23:25:34Z</time>
      </trkpt>
      <trkpt lat="41.927357" lon="2.918581">
        <ele>307.0</ele>
        <time>2019-01-13T23:25:36Z</time>
      </trkpt>
      <trkpt lat="41.927340" lon="2.918516">
        <ele>307.0</ele>
        <time>2019-01-13T23:25:37Z</time>
      </trkpt>
      <trkpt lat="41.927315" lon="2.918452">
        <ele>308.0</ele>
        <time>2019-01-13T23:25:38Z</time>
      </trkpt>
      <trkpt lat="41.927283" lon="2.918393">
        <ele>308.0</ele>
        <time>2019-01-13T23:25:39Z</time>
      </trkpt>
      <trkpt lat="41.927247" lon="2.918336">
        <ele>308.0</ele>
        <time>2019-01-13T23:25:40Z</time>
      </trkpt>
      <trkpt lat="41.927208" lon="2.918282">
        <ele>308.0</ele>
        <time>2019-01-13T23:25:41Z</time>
      </trkpt>
      <trkpt lat="41.927171" lon="2.918222">
        <ele>308.0</ele>
        <time>2019-01-13T23:25:42Z</time>
      </trkpt>
      <trkpt lat="41.927134" lon="2.918077">
        <ele>309.0</ele>
        <time>2019-01-13T23:25:43Z</time>
      </trkpt>
      <trkpt lat="41.927147" lon="2.917925">
        <ele>310.0</ele>
        <time>2019-01-13T23:25:45Z</time>
      </trkpt>
      <trkpt lat="41.927155" lon="2.917775">
        <ele>310.0</ele>
        <time>2019-01-13T23:25:47Z</time>
      </trkpt>
      <trkpt lat="41.927111" lon="2.917490">
        <ele>312.0</ele>
        <time>2019-01-13T23:25:51Z</time>
      </trkpt>
      <trkpt lat="41.927102" lon="2.917419">
        <ele>312.0</ele>
        <time>2019-01-13T23:25:51Z</time>
      </trkpt>
      <trkpt lat="41.927131" lon="2.917136">
        <ele>313.0</ele>
        <time>2019-01-13T23:25:55Z</time>
      </trkpt>
      <trkpt lat="41.927154" lon="2.917005">
        <ele>314.0</ele>
        <time>2019-01-13T23:25:56Z</time>
      </trkpt>
      <trkpt lat="41.927155" lon="2.916948">
        <ele>314.0</ele>
        <time>2019-01-13T23:25:57Z</time>
      </trkpt>
      <trkpt lat="41.927149" lon="2.916892">
        <ele>314.0</ele>
        <time>2019-01-13T23:25:58Z</time>
      </trkpt>
      <trkpt lat="41.927129" lon="2.916844">
        <ele>314.0</ele>
        <time>2019-01-13T23:25:58Z</time>
      </trkpt>
      <trkpt lat="41.927098" lon="2.916802">
        <ele>315.0</ele>
        <time>2019-01-13T23:25:59Z</time>
      </trkpt>
      <trkpt lat="41.927053" lon="2.916767">
        <ele>315.0</ele>
        <time>2019-01-13T23:26:00Z</time>
      </trkpt>
      <trkpt lat="41.926898" lon="2.916771">
        <ele>316.0</ele>
        <time>2019-01-13T23:26:02Z</time>
      </trkpt>
      <trkpt lat="41.926846" lon="2.916788">
        <ele>316.0</ele>
        <time>2019-01-13T23:26:03Z</time>
      </trkpt>
      <trkpt lat="41.926796" lon="2.916803">
        <ele>316.0</ele>
        <time>2019-01-13T23:26:04Z</time>
      </trkpt>
      <trkpt lat="41.926745" lon="2.916812">
        <ele>317.0</ele>
        <time>2019-01-13T23:26:05Z</time>
      </trkpt>
      <trkpt lat="41.926695" lon="2.916825">
        <ele>317.0</ele>
        <time>2019-01-13T23:26:06Z</time>
      </trkpt>
      <trkpt lat="41.926650" lon="2.916846">
        <ele>317.0</ele>
        <time>2019-01-13T23:26:06Z</time>
      </trkpt>
      <trkpt lat="41.926557" lon="2.916897">
        <ele>317.0</ele>
        <time>2019-01-13T23:26:08Z</time>
      </trkpt>
      <trkpt lat="41.926464" lon="2.916933">
        <ele>318.0</ele>
        <time>2019-01-13T23:26:10Z</time>
      </trkpt>
      <trkpt lat="41.926414" lon="2.916956">
        <ele>318.0</ele>
        <time>2019-01-13T23:26:10Z</time>
      </trkpt>
      <trkpt lat="41.926368" lon="2.916979">
        <ele>318.0</ele>
        <time>2019-01-13T23:26:11Z</time>
      </trkpt>
      <trkpt lat="41.926326" lon="2.917006">
        <ele>318.0</ele>
        <time>2019-01-13T23:26:12Z</time>
      </trkpt>
      <trkpt lat="41.926244" lon="2.917047">
        <ele>318.0</ele>
        <time>2019-01-13T23:26:13Z</time>
      </trkpt>
      <trkpt lat="41.926208" lon="2.917064">
        <ele>318.0</ele>
        <time>2019-01-13T23:26:14Z</time>
      </trkpt>
      <trkpt lat="41.926172" lon="2.917079">
        <ele>318.0</ele>
        <time>2019-01-13T23:26:15Z</time>
      </trkpt>
      <trkpt lat="41.926139" lon="2.917093">
        <ele>318.0</ele>
        <time>2019-01-13T23:26:15Z</time>
      </trkpt>
      <trkpt lat="41.926109" lon="2.917102">
        <ele>318.0</ele>
        <time>2019-01-13T23:26:16Z</time>
      </trkpt>
      <trkpt lat="41.926077" lon="2.917108">
        <ele>318.0</ele>
        <time>2019-01-13T23:26:16Z</time>
      </trkpt>
      <trkpt lat="41.926045" lon="2.917099">
        <ele>319.0</ele>
        <time>2019-01-13T23:26:17Z</time>
      </trkpt>
      <trkpt lat="41.925977" lon="2.917042">
        <ele>319.0</ele>
        <time>2019-01-13T23:26:18Z</time>
      </trkpt>
      <trkpt lat="41.925921" lon="2.916959">
        <ele>319.0</ele>
        <time>2019-01-13T23:26:19Z</time>
      </trkpt>
      <trkpt lat="41.925893" lon="2.916837">
        <ele>319.0</ele>
        <time>2019-01-13T23:26:21Z</time>
      </trkpt>
      <trkpt lat="41.925881" lon="2.916781">
        <ele>319.0</ele>
        <time>2019-01-13T23:26:22Z</time>
      </trkpt>
      <trkpt lat="41.925869" lon="2.916728">
        <ele>319.0</ele>
        <time>2019-01-13T23:26:22Z</time>
      </trkpt>
      <trkpt lat="41.925857" lon="2.916671">
        <ele>319.0</ele>
        <time>2019-01-13T23:26:23Z</time>
      </trkpt>
      <trkpt lat="41.925848" lon="2.916617">
        <ele>319.0</ele>
        <time>2019-01-13T23:26:24Z</time>
      </trkpt>
      <trkpt lat="41.925791" lon="2.916349">
        <ele>319.0</ele>
        <time>2019-01-13T23:26:27Z</time>
      </trkpt>
      <trkpt lat="41.925781" lon="2.916295">
        <ele>319.0</ele>
        <time>2019-01-13T23:26:28Z</time>
      </trkpt>
      <trkpt lat="41.925760" lon="2.915996">
        <ele>320.0</ele>
        <time>2019-01-13T23:26:31Z</time>
      </trkpt>
      <trkpt lat="41.925771" lon="2.915936">
        <ele>320.0</ele>
        <time>2019-01-13T23:26:32Z</time>
      </trkpt>
      <trkpt lat="41.925790" lon="2.915876">
        <ele>320.0</ele>
        <time>2019-01-13T23:26:33Z</time>
      </trkpt>
      <trkpt lat="41.925815" lon="2.915817">
        <ele>320.0</ele>
        <time>2019-01-13T23:26:33Z</time>
      </trkpt>
      <trkpt lat="41.925840" lon="2.915766">
        <ele>320.0</ele>
        <time>2019-01-13T23:26:34Z</time>
      </trkpt>
      <trkpt lat="41.925856" lon="2.915715">
        <ele>320.0</ele>
        <time>2019-01-13T23:26:35Z</time>
      </trkpt>
      <trkpt lat="41.925866" lon="2.915548">
        <ele>321.0</ele>
        <time>2019-01-13T23:26:37Z</time>
      </trkpt>
      <trkpt lat="41.925798" lon="2.915387">
        <ele>322.0</ele>
        <time>2019-01-13T23:26:39Z</time>
      </trkpt>
      <trkpt lat="41.925667" lon="2.915298">
        <ele>322.0</ele>
        <time>2019-01-13T23:26:41Z</time>
      </trkpt>
      <trkpt lat="41.925562" lon="2.915260">
        <ele>323.0</ele>
        <time>2019-01-13T23:26:43Z</time>
      </trkpt>
      <trkpt lat="41.925460" lon="2.915210">
        <ele>324.0</ele>
        <time>2019-01-13T23:26:45Z</time>
      </trkpt>
      <trkpt lat="41.925418" lon="2.915181">
        <ele>324.0</ele>
        <time>2019-01-13T23:26:46Z</time>
      </trkpt>
      <trkpt lat="41.925380" lon="2.915147">
        <ele>324.0</ele>
        <time>2019-01-13T23:26:46Z</time>
      </trkpt>
      <trkpt lat="41.925232" lon="2.915038">
        <ele>325.0</ele>
        <time>2019-01-13T23:26:49Z</time>
      </trkpt>
      <trkpt lat="41.925097" lon="2.915029">
        <ele>326.0</ele>
        <time>2019-01-13T23:26:51Z</time>
      </trkpt>
      <trkpt lat="41.925069" lon="2.915044">
        <ele>326.0</ele>
        <time>2019-01-13T23:26:52Z</time>
      </trkpt>
      <trkpt lat="41.925047" lon="2.915069">
        <ele>326.0</ele>
        <time>2019-01-13T23:26:52Z</time>
      </trkpt>
      <trkpt lat="41.925027" lon="2.915091">
        <ele>326.0</ele>
        <time>2019-01-13T23:26:53Z</time>
      </trkpt>
      <trkpt lat="41.925007" lon="2.915116">
        <ele>327.0</ele>
        <time>2019-01-13T23:26:53Z</time>
      </trkpt>
      <trkpt lat="41.924946" lon="2.915295">
        <ele>327.0</ele>
        <time>2019-01-13T23:26:55Z</time>
      </trkpt>
      <trkpt lat="41.924876" lon="2.915497">
        <ele>328.0</ele>
        <time>2019-01-13T23:26:58Z</time>
      </trkpt>
      <trkpt lat="41.924809" lon="2.915631">
        <ele>328.0</ele>
        <time>2019-01-13T23:27:00Z</time>
      </trkpt>
      <trkpt lat="41.924788" lon="2.915665">
        <ele>328.0</ele>
        <time>2019-01-13T23:27:00Z</time>
      </trkpt>
      <trkpt lat="41.924770" lon="2.915703">
        <ele>328.0</ele>
        <time>2019-01-13T23:27:01Z</time>
      </trkpt>
      <trkpt lat="41.924755" lon="2.915738">
        <ele>328.0</ele>
        <time>2019-01-13T23:27:01Z</time>
      </trkpt>
      <trkpt lat="41.924735" lon="2.915769">
        <ele>328.0</ele>
        <time>2019-01-13T23:27:02Z</time>
      </trkpt>
      <trkpt lat="41.924665" lon="2.915855">
        <ele>329.0</ele>
        <time>2019-01-13T23:27:03Z</time>
      </trkpt>
      <trkpt lat="41.924573" lon="2.915894">
        <ele>329.0</ele>
        <time>2019-01-13T23:27:05Z</time>
      </trkpt>
      <trkpt lat="41.924540" lon="2.915891">
        <ele>329.0</ele>
        <time>2019-01-13T23:27:06Z</time>
      </trkpt>
      <trkpt lat="41.924506" lon="2.915886">
        <ele>329.0</ele>
        <time>2019-01-13T23:27:06Z</time>
      </trkpt>
      <trkpt lat="41.924475" lon="2.915879">
        <ele>329.0</ele>
        <time>2019-01-13T23:27:07Z</time>
      </trkpt>
      <trkpt lat="41.924439" lon="2.915862">
        <ele>329.0</ele>
        <time>2019-01-13T23:27:07Z</time>
      </trkpt>
      <trkpt lat="41.924403" lon="2.915842">
        <ele>329.0</ele>
        <time>2019-01-13T23:27:08Z</time>
      </trkpt>
      <trkpt lat="41.924368" lon="2.915817">
        <ele>330.0</ele>
        <time>2019-01-13T23:27:08Z</time>
      </trkpt>
      <trkpt lat="41.924296" lon="2.915759">
        <ele>330.0</ele>
        <time>2019-01-13T23:27:10Z</time>
      </trkpt>
      <trkpt lat="41.924164" lon="2.915632">
        <ele>331.0</ele>
        <time>2019-01-13T23:27:12Z</time>
      </trkpt>
      <trkpt lat="41.924135" lon="2.915599">
        <ele>331.0</ele>
        <time>2019-01-13T23:27:13Z</time>
      </trkpt>
      <trkpt lat="41.924109" lon="2.915561">
        <ele>331.0</ele>
        <time>2019-01-13T23:27:14Z</time>
      </trkpt>
      <trkpt lat="41.924083" lon="2.915521">
        <ele>331.0</ele>
        <time>2019-01-13T23:27:14Z</time>
      </trkpt>
      <trkpt lat="41.924056" lon="2.915477">
        <ele>332.0</ele>
        <time>2019-01-13T23:27:15Z</time>
      </trkpt>
      <trkpt lat="41.923999" lon="2.915388">
        <ele>332.0</ele>
        <time>2019-01-13T23:27:16Z</time>
      </trkpt>
      <trkpt lat="41.923877" lon="2.915208">
        <ele>333.0</ele>
        <time>2019-01-13T23:27:19Z</time>
      </trkpt>
      <trkpt lat="41.923772" lon="2.915120">
        <ele>333.0</ele>
        <time>2019-01-13T23:27:21Z</time>
      </trkpt>
      <trkpt lat="41.923603" lon="2.915155">
        <ele>334.0</ele>
        <time>2019-01-13T23:27:24Z</time>
      </trkpt>
      <trkpt lat="41.923560" lon="2.915186">
        <ele>334.0</ele>
        <time>2019-01-13T23:27:25Z</time>
      </trkpt>
      <trkpt lat="41.923524" lon="2.915219">
        <ele>335.0</ele>
        <time>2019-01-13T23:27:25Z</time>
      </trkpt>
      <trkpt lat="41.923492" lon="2.915259">
        <ele>335.0</ele>
        <time>2019-01-13T23:27:26Z</time>
      </trkpt>
      <trkpt lat="41.923460" lon="2.915300">
        <ele>335.0</ele>
        <time>2019-01-13T23:27:27Z</time>
      </trkpt>
      <trkpt lat="41.923428" lon="2.915341">
        <ele>335.0</ele>
        <time>2019-01-13T23:27:28Z</time>
      </trkpt>
      <trkpt lat="41.923397" lon="2.915381">
        <ele>335.0</ele>
        <time>2019-01-13T23:27:28Z</time>
      </trkpt>
      <trkpt lat="41.923240" lon="2.915575">
        <ele>336.0</ele>
        <time>2019-01-13T23:27:32Z</time>
      </trkpt>
      <trkpt lat="41.923213" lon="2.915618">
        <ele>336.0</ele>
        <time>2019-01-13T23:27:32Z</time>
      </trkpt>
      <trkpt lat="41.923190" lon="2.915665">
        <ele>336.0</ele>
        <time>2019-01-13T23:27:33Z</time>
      </trkpt>
      <trkpt lat="41.923173" lon="2.915719">
        <ele>336.0</ele>
        <time>2019-01-13T23:27:34Z</time>
      </trkpt>
      <trkpt lat="41.923162" lon="2.915776">
        <ele>336.0</ele>
        <time>2019-01-13T23:27:34Z</time>
      </trkpt>
      <trkpt lat="41.923152" lon="2.915840">
        <ele>336.0</ele>
        <time>2019-01-13T23:27:35Z</time>
      </trkpt>
      <trkpt lat="41.923119" lon="2.916186">
        <ele>337.0</ele>
        <time>2019-01-13T23:27:39Z</time>
      </trkpt>
      <trkpt lat="41.923108" lon="2.916296">
        <ele>337.0</ele>
        <time>2019-01-13T23:27:41Z</time>
      </trkpt>
      <trkpt lat="41.923100" lon="2.916352">
        <ele>338.0</ele>
        <time>2019-01-13T23:27:41Z</time>
      </trkpt>
      <trkpt lat="41.923093" lon="2.916406">
        <ele>338.0</ele>
        <time>2019-01-13T23:27:42Z</time>
      </trkpt>
      <trkpt lat="41.923086" lon="2.916459">
        <ele>338.0</ele>
        <time>2019-01-13T23:27:43Z</time>
      </trkpt>
      <trkpt lat="41.923077" lon="2.916512">
        <ele>338.0</ele>
        <time>2019-01-13T23:27:43Z</time>
      </trkpt>
      <trkpt lat="41.923044" lon="2.916616">
        <ele>338.0</ele>
        <time>2019-01-13T23:27:45Z</time>
      </trkpt>
      <trkpt lat="41.922983" lon="2.916699">
        <ele>339.0</ele>
        <time>2019-01-13T23:27:46Z</time>
      </trkpt>
      <trkpt lat="41.922869" lon="2.916721">
        <ele>339.0</ele>
        <time>2019-01-13T23:27:48Z</time>
      </trkpt>
      <trkpt lat="41.922797" lon="2.916690">
        <ele>339.0</ele>
        <time>2019-01-13T23:27:49Z</time>
      </trkpt>
      <trkpt lat="41.922764" lon="2.916667">
        <ele>339.0</ele>
        <time>2019-01-13T23:27:50Z</time>
      </trkpt>
      <trkpt lat="41.922729" lon="2.916637">
        <ele>340.0</ele>
        <time>2019-01-13T23:27:50Z</time>
      </trkpt>
      <trkpt lat="41.922700" lon="2.916597">
        <ele>340.0</ele>
        <time>2019-01-13T23:27:51Z</time>
      </trkpt>
      <trkpt lat="41.922671" lon="2.916562">
        <ele>340.0</ele>
        <time>2019-01-13T23:27:52Z</time>
      </trkpt>
      <trkpt lat="41.922624" lon="2.916475">
        <ele>340.0</ele>
        <time>2019-01-13T23:27:53Z</time>
      </trkpt>
      <trkpt lat="41.922593" lon="2.916376">
        <ele>341.0</ele>
        <time>2019-01-13T23:27:54Z</time>
      </trkpt>
      <trkpt lat="41.922544" lon="2.916164">
        <ele>341.0</ele>
        <time>2019-01-13T23:27:57Z</time>
      </trkpt>
      <trkpt lat="41.922531" lon="2.916109">
        <ele>341.0</ele>
        <time>2019-01-13T23:27:58Z</time>
      </trkpt>
      <trkpt lat="41.922518" lon="2.916055">
        <ele>341.0</ele>
        <time>2019-01-13T23:27:58Z</time>
      </trkpt>
      <trkpt lat="41.922504" lon="2.916001">
        <ele>342.0</ele>
        <time>2019-01-13T23:27:59Z</time>
      </trkpt>
      <trkpt lat="41.922490" lon="2.915947">
        <ele>342.0</ele>
        <time>2019-01-13T23:28:00Z</time>
      </trkpt>
      <trkpt lat="41.922410" lon="2.915625">
        <ele>343.0</ele>
        <time>2019-01-13T23:28:04Z</time>
      </trkpt>
      <trkpt lat="41.922415" lon="2.915460">
        <ele>343.0</ele>
        <time>2019-01-13T23:28:06Z</time>
      </trkpt>
      <trkpt lat="41.922428" lon="2.915409">
        <ele>343.0</ele>
        <time>2019-01-13T23:28:06Z</time>
      </trkpt>
      <trkpt lat="41.922439" lon="2.915358">
        <ele>343.0</ele>
        <time>2019-01-13T23:28:07Z</time>
      </trkpt>
      <trkpt lat="41.922452" lon="2.915302">
        <ele>343.0</ele>
        <time>2019-01-13T23:28:08Z</time>
      </trkpt>
      <trkpt lat="41.922461" lon="2.915247">
        <ele>343.0</ele>
        <time>2019-01-13T23:28:08Z</time>
      </trkpt>
      <trkpt lat="41.922461" lon="2.915138">
        <ele>344.0</ele>
        <time>2019-01-13T23:28:10Z</time>
      </trkpt>
      <trkpt lat="41.922416" lon="2.914745">
        <ele>345.0</ele>
        <time>2019-01-13T23:28:14Z</time>
      </trkpt>
      <trkpt lat="41.922435" lon="2.914516">
        <ele>345.0</ele>
        <time>2019-01-13T23:28:17Z</time>
      </trkpt>
      <trkpt lat="41.922435" lon="2.914460">
        <ele>345.0</ele>
        <time>2019-01-13T23:28:18Z</time>
      </trkpt>
      <trkpt lat="41.922429" lon="2.914409">
        <ele>345.0</ele>
        <time>2019-01-13T23:28:18Z</time>
      </trkpt>
      <trkpt lat="41.922414" lon="2.914360">
        <ele>346.0</ele>
        <time>2019-01-13T23:28:19Z</time>
      </trkpt>
      <trkpt lat="41.922353" lon="2.914279">
        <ele>346.0</ele>
        <time>2019-01-13T23:28:20Z</time>
      </trkpt>
      <trkpt lat="41.922232" lon="2.914195">
        <ele>346.0</ele>
        <time>2019-01-13T23:28:22Z</time>
      </trkpt>
      <trkpt lat="41.922151" lon="2.914140">
        <ele>347.0</ele>
        <time>2019-01-13T23:28:24Z</time>
      </trkpt>
      <trkpt lat="41.922083" lon="2.914079">
        <ele>347.0</ele>
        <time>2019-01-13T23:28:25Z</time>
      </trkpt>
      <trkpt lat="41.922014" lon="2.913951">
        <ele>347.0</ele>
        <time>2019-01-13T23:28:27Z</time>
      </trkpt>
      <trkpt lat="41.921967" lon="2.913867">
        <ele>348.0</ele>
        <time>2019-01-13T23:28:28Z</time>
      </trkpt>
      <trkpt lat="41.921870" lon="2.913753">
        <ele>348.0</ele>
        <time>2019-01-13T23:28:30Z</time>
      </trkpt>
      <trkpt lat="41.921829" lon="2.913729">
        <ele>348.0</ele>
        <time>2019-01-13T23:28:31Z</time>
      </trkpt>
      <trkpt lat="41.921788" lon="2.913718">
        <ele>348.0</ele>
        <time>2019-01-13T23:28:32Z</time>
      </trkpt>
      <trkpt lat="41.921748" lon="2.913715">
        <ele>348.0</ele>
        <time>2019-01-13T23:28:32Z</time>
      </trkpt>
      <trkpt lat="41.921710" lon="2.913722">
        <ele>348.0</ele>
        <time>2019-01-13T23:28:33Z</time>
      </trkpt>
      <trkpt lat="41.921549" lon="2.913719">
        <ele>349.0</ele>
        <time>2019-01-13T23:28:36Z</time>
      </trkpt>
      <trkpt lat="41.921405" lon="2.913626">
        <ele>349.0</ele>
        <time>2019-01-13T23:28:38Z</time>
      </trkpt>
      <trkpt lat="41.921363" lon="2.913602">
        <ele>349.0</ele>
        <time>2019-01-13T23:28:39Z</time>
      </trkpt>
      <trkpt lat="41.921317" lon="2.913586">
        <ele>349.0</ele>
        <time>2019-01-13T23:28:40Z</time>
      </trkpt>
      <trkpt lat="41.921189" lon="2.913618">
        <ele>349.0</ele>
        <time>2019-01-13T23:28:42Z</time>
      </trkpt>
      <trkpt lat="41.921153" lon="2.913650">
        <ele>349.0</ele>
        <time>2019-01-13T23:28:42Z</time>
      </trkpt>
      <trkpt lat="41.921124" lon="2.913696">
        <ele>349.0</ele>
        <time>2019-01-13T23:28:43Z</time>
        <cmt>COLL DE SANTA PELLAIA</cmt>
        <sym>C:\Users\Runseru\Desktop\gps\CompeGPS\CompeGPS Land 711\App\CompeGPS\symbols\DEFAULT.ZIP\WAYPOINT.bmp</sym>
      </trkpt>
      <trkpt lat="41.921103" lon="2.913747">
        <ele>349.0</ele>
        <time>2019-01-13T23:28:44Z</time>
      </trkpt>
      <trkpt lat="41.921099" lon="2.913798">
        <ele>350.0</ele>
        <time>2019-01-13T23:28:44Z</time>
      </trkpt>
      <trkpt lat="41.921120" lon="2.913917">
        <ele>350.0</ele>
        <time>2019-01-13T23:28:46Z</time>
      </trkpt>
      <trkpt lat="41.921137" lon="2.913971">
        <ele>350.0</ele>
        <time>2019-01-13T23:28:47Z</time>
      </trkpt>
      <trkpt lat="41.921162" lon="2.914021">
        <ele>350.0</ele>
        <time>2019-01-13T23:28:47Z</time>
      </trkpt>
      <trkpt lat="41.921241" lon="2.914156">
        <ele>351.0</ele>
        <time>2019-01-13T23:28:49Z</time>
      </trkpt>
      <trkpt lat="41.921342" lon="2.914420">
        <ele>352.0</ele>
        <time>2019-01-13T23:28:53Z</time>
      </trkpt>
      <trkpt lat="41.921352" lon="2.914475">
        <ele>352.0</ele>
        <time>2019-01-13T23:28:54Z</time>
      </trkpt>
      <trkpt lat="41.921354" lon="2.914533">
        <ele>352.0</ele>
        <time>2019-01-13T23:28:54Z</time>
      </trkpt>
      <trkpt lat="41.921352" lon="2.914589">
        <ele>352.0</ele>
        <time>2019-01-13T23:28:55Z</time>
      </trkpt>
      <trkpt lat="41.921342" lon="2.914642">
        <ele>353.0</ele>
        <time>2019-01-13T23:28:56Z</time>
      </trkpt>
      <trkpt lat="41.921326" lon="2.914697">
        <ele>353.0</ele>
        <time>2019-01-13T23:28:56Z</time>
      </trkpt>
      <trkpt lat="41.921307" lon="2.914749">
        <ele>353.0</ele>
        <time>2019-01-13T23:28:57Z</time>
      </trkpt>
      <trkpt lat="41.921253" lon="2.914847">
        <ele>353.0</ele>
        <time>2019-01-13T23:28:58Z</time>
      </trkpt>
      <trkpt lat="41.921194" lon="2.914931">
        <ele>353.0</ele>
        <time>2019-01-13T23:29:00Z</time>
      </trkpt>
      <trkpt lat="41.921161" lon="2.914967">
        <ele>354.0</ele>
        <time>2019-01-13T23:29:01Z</time>
      </trkpt>
      <trkpt lat="41.920970" lon="2.915103">
        <ele>354.0</ele>
        <time>2019-01-13T23:29:04Z</time>
      </trkpt>
      <trkpt lat="41.920932" lon="2.915130">
        <ele>354.0</ele>
        <time>2019-01-13T23:29:05Z</time>
      </trkpt>
      <trkpt lat="41.920819" lon="2.915214">
        <ele>355.0</ele>
        <time>2019-01-13T23:29:07Z</time>
      </trkpt>
      <trkpt lat="41.920785" lon="2.915250">
        <ele>355.0</ele>
        <time>2019-01-13T23:29:07Z</time>
      </trkpt>
      <trkpt lat="41.920754" lon="2.915294">
        <ele>355.0</ele>
        <time>2019-01-13T23:29:08Z</time>
      </trkpt>
      <trkpt lat="41.920728" lon="2.915340">
        <ele>355.0</ele>
        <time>2019-01-13T23:29:09Z</time>
      </trkpt>
      <trkpt lat="41.920711" lon="2.915393">
        <ele>355.0</ele>
        <time>2019-01-13T23:29:10Z</time>
      </trkpt>
      <trkpt lat="41.920697" lon="2.915511">
        <ele>355.0</ele>
        <time>2019-01-13T23:29:11Z</time>
      </trkpt>
      <trkpt lat="41.920687" lon="2.915639">
        <ele>356.0</ele>
        <time>2019-01-13T23:29:12Z</time>
      </trkpt>
      <trkpt lat="41.920651" lon="2.915820">
        <ele>356.0</ele>
        <time>2019-01-13T23:29:15Z</time>
      </trkpt>
      <trkpt lat="41.920593" lon="2.915921">
        <ele>356.0</ele>
        <time>2019-01-13T23:29:16Z</time>
      </trkpt>
      <trkpt lat="41.920515" lon="2.915987">
        <ele>356.0</ele>
        <time>2019-01-13T23:29:18Z</time>
      </trkpt>
      <trkpt lat="41.920475" lon="2.916012">
        <ele>356.0</ele>
        <time>2019-01-13T23:29:18Z</time>
      </trkpt>
      <trkpt lat="41.920434" lon="2.916033">
        <ele>356.0</ele>
        <time>2019-01-13T23:29:19Z</time>
      </trkpt>
      <trkpt lat="41.920393" lon="2.916052">
        <ele>356.0</ele>
        <time>2019-01-13T23:29:20Z</time>
      </trkpt>
      <trkpt lat="41.920351" lon="2.916070">
        <ele>356.0</ele>
        <time>2019-01-13T23:29:20Z</time>
      </trkpt>
      <trkpt lat="41.920123" lon="2.916175">
        <ele>356.0</ele>
        <time>2019-01-13T23:29:24Z</time>
      </trkpt>
      <trkpt lat="41.920060" lon="2.916210">
        <ele>356.0</ele>
        <time>2019-01-13T23:29:25Z</time>
      </trkpt>
      <trkpt lat="41.920033" lon="2.916226">
        <ele>356.0</ele>
        <time>2019-01-13T23:29:26Z</time>
      </trkpt>
      <trkpt lat="41.920006" lon="2.916243">
        <ele>356.0</ele>
        <time>2019-01-13T23:29:26Z</time>
      </trkpt>
      <trkpt lat="41.919986" lon="2.916260">
        <ele>356.0</ele>
        <time>2019-01-13T23:29:27Z</time>
      </trkpt>
      <trkpt lat="41.919972" lon="2.916270">
        <ele>356.0</ele>
        <time>2019-01-13T23:29:27Z</time>
      </trkpt>
      <trkpt lat="41.919938" lon="2.916297">
        <ele>356.0</ele>
        <time>2019-01-13T23:29:28Z</time>
      </trkpt>
      <trkpt lat="41.919934" lon="2.916303">
        <ele>356.0</ele>
        <time>2019-01-13T23:29:28Z</time>
      </trkpt>
      <trkpt lat="41.919958" lon="2.916312">
        <ele>356.0</ele>
        <time>2019-01-13T23:29:28Z</time>
      </trkpt>
      <trkpt lat="41.919929" lon="2.916288">
        <ele>356.0</ele>
        <time>2019-01-13T23:29:29Z</time>
      </trkpt>
      <trkpt lat="41.919911" lon="2.916276">
        <ele>356.0</ele>
        <time>2019-01-13T23:29:29Z</time>
      </trkpt>
      <trkpt lat="41.919790" lon="2.916163">
        <ele>356.0</ele>
        <time>2019-01-13T23:29:31Z</time>
      </trkpt>
      <trkpt lat="41.919697" lon="2.916032">
        <ele>357.0</ele>
        <time>2019-01-13T23:29:34Z</time>
      </trkpt>
      <trkpt lat="41.919643" lon="2.915931">
        <ele>357.0</ele>
        <time>2019-01-13T23:29:35Z</time>
      </trkpt>
      <trkpt lat="41.919549" lon="2.915772">
        <ele>358.0</ele>
        <time>2019-01-13T23:29:37Z</time>
      </trkpt>
      <trkpt lat="41.919460" lon="2.915606">
        <ele>358.0</ele>
        <time>2019-01-13T23:29:40Z</time>
      </trkpt>
      <trkpt lat="41.919360" lon="2.915438">
        <ele>358.0</ele>
        <time>2019-01-13T23:29:42Z</time>
      </trkpt>
      <trkpt lat="41.919255" lon="2.915265">
        <ele>358.0</ele>
        <time>2019-01-13T23:29:45Z</time>
      </trkpt>
      <trkpt lat="41.919040" lon="2.914848">
        <ele>357.0</ele>
        <time>2019-01-13T23:29:51Z</time>
      </trkpt>
      <trkpt lat="41.919023" lon="2.914782">
        <ele>357.0</ele>
        <time>2019-01-13T23:29:52Z</time>
      </trkpt>
      <trkpt lat="41.918954" lon="2.914513">
        <ele>357.0</ele>
        <time>2019-01-13T23:29:55Z</time>
      </trkpt>
      <trkpt lat="41.918918" lon="2.914378">
        <ele>357.0</ele>
        <time>2019-01-13T23:29:57Z</time>
      </trkpt>
      <trkpt lat="41.918851" lon="2.914196">
        <ele>357.0</ele>
        <time>2019-01-13T23:29:59Z</time>
      </trkpt>
      <trkpt lat="41.918708" lon="2.913878">
        <ele>357.0</ele>
        <time>2019-01-13T23:30:04Z</time>
      </trkpt>
      <trkpt lat="41.918625" lon="2.913678">
        <ele>357.0</ele>
        <time>2019-01-13T23:30:07Z</time>
      </trkpt>
      <trkpt lat="41.918571" lon="2.913546">
        <ele>357.0</ele>
        <time>2019-01-13T23:30:08Z</time>
      </trkpt>
      <trkpt lat="41.918531" lon="2.913411">
        <ele>357.0</ele>
        <time>2019-01-13T23:30:10Z</time>
      </trkpt>
      <trkpt lat="41.918520" lon="2.913262">
        <ele>356.0</ele>
        <time>2019-01-13T23:30:12Z</time>
      </trkpt>
      <trkpt lat="41.918598" lon="2.912980">
        <ele>356.0</ele>
        <time>2019-01-13T23:30:16Z</time>
      </trkpt>
      <trkpt lat="41.918630" lon="2.912913">
        <ele>356.0</ele>
        <time>2019-01-13T23:30:16Z</time>
      </trkpt>
      <trkpt lat="41.918709" lon="2.912800">
        <ele>356.0</ele>
        <time>2019-01-13T23:30:18Z</time>
      </trkpt>
      <trkpt lat="41.918813" lon="2.912732">
        <ele>356.0</ele>
        <time>2019-01-13T23:30:20Z</time>
      </trkpt>
      <trkpt lat="41.918869" lon="2.912705">
        <ele>356.0</ele>
        <time>2019-01-13T23:30:21Z</time>
      </trkpt>
      <trkpt lat="41.918930" lon="2.912684">
        <ele>356.0</ele>
        <time>2019-01-13T23:30:22Z</time>
      </trkpt>
      <trkpt lat="41.918988" lon="2.912663">
        <ele>355.0</ele>
        <time>2019-01-13T23:30:23Z</time>
      </trkpt>
      <trkpt lat="41.919047" lon="2.912638">
        <ele>355.0</ele>
        <time>2019-01-13T23:30:24Z</time>
      </trkpt>
      <trkpt lat="41.919101" lon="2.912606">
        <ele>355.0</ele>
        <time>2019-01-13T23:30:25Z</time>
      </trkpt>
      <trkpt lat="41.919224" lon="2.912440">
        <ele>355.0</ele>
        <time>2019-01-13T23:30:28Z</time>
      </trkpt>
      <trkpt lat="41.919256" lon="2.912376">
        <ele>355.0</ele>
        <time>2019-01-13T23:30:29Z</time>
      </trkpt>
      <trkpt lat="41.919296" lon="2.912317">
        <ele>355.0</ele>
        <time>2019-01-13T23:30:30Z</time>
      </trkpt>
      <trkpt lat="41.919388" lon="2.912248">
        <ele>355.0</ele>
        <time>2019-01-13T23:30:31Z</time>
      </trkpt>
      <trkpt lat="41.919608" lon="2.912159">
        <ele>355.0</ele>
        <time>2019-01-13T23:30:35Z</time>
      </trkpt>
      <trkpt lat="41.919699" lon="2.911961">
        <ele>355.0</ele>
        <time>2019-01-13T23:30:38Z</time>
      </trkpt>
      <trkpt lat="41.919666" lon="2.911722">
        <ele>355.0</ele>
        <time>2019-01-13T23:30:41Z</time>
      </trkpt>
      <trkpt lat="41.919701" lon="2.911406">
        <ele>355.0</ele>
        <time>2019-01-13T23:30:45Z</time>
      </trkpt>
      <trkpt lat="41.919683" lon="2.911191">
        <ele>355.0</ele>
        <time>2019-01-13T23:30:47Z</time>
      </trkpt>
      <trkpt lat="41.919506" lon="2.911041">
        <ele>355.0</ele>
        <time>2019-01-13T23:30:50Z</time>
      </trkpt>
      <trkpt lat="41.919446" lon="2.910994">
        <ele>355.0</ele>
        <time>2019-01-13T23:30:52Z</time>
      </trkpt>
      <trkpt lat="41.919391" lon="2.910936">
        <ele>355.0</ele>
        <time>2019-01-13T23:30:53Z</time>
      </trkpt>
      <trkpt lat="41.919299" lon="2.910797">
        <ele>355.0</ele>
        <time>2019-01-13T23:30:55Z</time>
      </trkpt>
      <trkpt lat="41.919272" lon="2.910711">
        <ele>355.0</ele>
        <time>2019-01-13T23:30:56Z</time>
      </trkpt>
      <trkpt lat="41.919256" lon="2.910620">
        <ele>355.0</ele>
        <time>2019-01-13T23:30:57Z</time>
      </trkpt>
      <trkpt lat="41.919255" lon="2.910531">
        <ele>355.0</ele>
        <time>2019-01-13T23:30:58Z</time>
      </trkpt>
      <trkpt lat="41.919259" lon="2.910435">
        <ele>355.0</ele>
        <time>2019-01-13T23:30:59Z</time>
      </trkpt>
      <trkpt lat="41.919260" lon="2.910346">
        <ele>355.0</ele>
        <time>2019-01-13T23:31:00Z</time>
      </trkpt>
      <trkpt lat="41.919271" lon="2.909983">
        <ele>355.0</ele>
        <time>2019-01-13T23:31:05Z</time>
      </trkpt>
      <trkpt lat="41.919159" lon="2.909657">
        <ele>355.0</ele>
        <time>2019-01-13T23:31:09Z</time>
      </trkpt>
      <trkpt lat="41.919007" lon="2.909361">
        <ele>354.0</ele>
        <time>2019-01-13T23:31:13Z</time>
      </trkpt>
      <trkpt lat="41.919015" lon="2.909068">
        <ele>354.0</ele>
        <time>2019-01-13T23:31:17Z</time>
      </trkpt>
      <trkpt lat="41.919035" lon="2.908973">
        <ele>354.0</ele>
        <time>2019-01-13T23:31:18Z</time>
      </trkpt>
      <trkpt lat="41.919089" lon="2.908798">
        <ele>354.0</ele>
        <time>2019-01-13T23:31:20Z</time>
      </trkpt>
      <trkpt lat="41.919078" lon="2.908641">
        <ele>354.0</ele>
        <time>2019-01-13T23:31:22Z</time>
      </trkpt>
      <trkpt lat="41.918979" lon="2.908586">
        <ele>354.0</ele>
        <time>2019-01-13T23:31:24Z</time>
      </trkpt>
      <trkpt lat="41.918902" lon="2.908577">
        <ele>354.0</ele>
        <time>2019-01-13T23:31:25Z</time>
      </trkpt>
      <trkpt lat="41.918823" lon="2.908573">
        <ele>354.0</ele>
        <time>2019-01-13T23:31:26Z</time>
      </trkpt>
      <trkpt lat="41.918742" lon="2.908574">
        <ele>354.0</ele>
        <time>2019-01-13T23:31:28Z</time>
      </trkpt>
      <trkpt lat="41.918665" lon="2.908574">
        <ele>354.0</ele>
        <time>2019-01-13T23:31:29Z</time>
      </trkpt>
      <trkpt lat="41.918215" lon="2.908611">
        <ele>353.0</ele>
        <time>2019-01-13T23:31:36Z</time>
      </trkpt>
      <trkpt lat="41.918149" lon="2.908645">
        <ele>353.0</ele>
        <time>2019-01-13T23:31:37Z</time>
      </trkpt>
      <trkpt lat="41.917998" lon="2.908847">
        <ele>353.0</ele>
        <time>2019-01-13T23:31:41Z</time>
      </trkpt>
      <trkpt lat="41.917947" lon="2.908914">
        <ele>353.0</ele>
        <time>2019-01-13T23:31:42Z</time>
      </trkpt>
      <trkpt lat="41.917775" lon="2.909083">
        <ele>352.0</ele>
        <time>2019-01-13T23:31:45Z</time>
      </trkpt>
      <trkpt lat="41.917664" lon="2.909319">
        <ele>352.0</ele>
        <time>2019-01-13T23:31:48Z</time>
      </trkpt>
      <trkpt lat="41.917634" lon="2.909405">
        <ele>352.0</ele>
        <time>2019-01-13T23:31:50Z</time>
      </trkpt>
      <trkpt lat="41.917596" lon="2.909486">
        <ele>352.0</ele>
        <time>2019-01-13T23:31:51Z</time>
      </trkpt>
      <trkpt lat="41.917491" lon="2.909617">
        <ele>352.0</ele>
        <time>2019-01-13T23:31:53Z</time>
      </trkpt>
      <trkpt lat="41.917361" lon="2.909689">
        <ele>352.0</ele>
        <time>2019-01-13T23:31:55Z</time>
      </trkpt>
      <trkpt lat="41.917291" lon="2.909689">
        <ele>352.0</ele>
        <time>2019-01-13T23:31:56Z</time>
      </trkpt>
      <trkpt lat="41.917218" lon="2.909677">
        <ele>351.0</ele>
        <time>2019-01-13T23:31:58Z</time>
      </trkpt>
      <trkpt lat="41.917147" lon="2.909661">
        <ele>351.0</ele>
        <time>2019-01-13T23:31:59Z</time>
      </trkpt>
      <trkpt lat="41.917076" lon="2.909641">
        <ele>351.0</ele>
        <time>2019-01-13T23:32:00Z</time>
      </trkpt>
      <trkpt lat="41.916937" lon="2.909603">
        <ele>351.0</ele>
        <time>2019-01-13T23:32:02Z</time>
      </trkpt>
      <trkpt lat="41.916573" lon="2.909553">
        <ele>351.0</ele>
        <time>2019-01-13T23:32:08Z</time>
      </trkpt>
      <trkpt lat="41.916501" lon="2.909571">
        <ele>351.0</ele>
        <time>2019-01-13T23:32:09Z</time>
      </trkpt>
      <trkpt lat="41.916239" lon="2.909751">
        <ele>351.0</ele>
        <time>2019-01-13T23:32:14Z</time>
      </trkpt>
      <trkpt lat="41.916177" lon="2.909810">
        <ele>351.0</ele>
        <time>2019-01-13T23:32:15Z</time>
      </trkpt>
      <trkpt lat="41.916111" lon="2.909855">
        <ele>351.0</ele>
        <time>2019-01-13T23:32:16Z</time>
      </trkpt>
      <trkpt lat="41.915970" lon="2.909869">
        <ele>351.0</ele>
        <time>2019-01-13T23:32:19Z</time>
      </trkpt>
      <trkpt lat="41.915787" lon="2.909730">
        <ele>351.0</ele>
        <time>2019-01-13T23:32:22Z</time>
      </trkpt>
      <trkpt lat="41.915715" lon="2.909466">
        <ele>350.0</ele>
        <time>2019-01-13T23:32:25Z</time>
      </trkpt>
      <trkpt lat="41.915705" lon="2.909270">
        <ele>350.0</ele>
        <time>2019-01-13T23:32:28Z</time>
      </trkpt>
      <trkpt lat="41.915675" lon="2.909085">
        <ele>350.0</ele>
        <time>2019-01-13T23:32:30Z</time>
      </trkpt>
      <trkpt lat="41.915518" lon="2.908901">
        <ele>350.0</ele>
        <time>2019-01-13T23:32:33Z</time>
      </trkpt>
      <trkpt lat="41.915300" lon="2.908856">
        <ele>350.0</ele>
        <time>2019-01-13T23:32:37Z</time>
      </trkpt>
      <trkpt lat="41.914856" lon="2.908731">
        <ele>350.0</ele>
        <time>2019-01-13T23:32:44Z</time>
      </trkpt>
      <trkpt lat="41.914449" lon="2.908453">
        <ele>348.0</ele>
        <time>2019-01-13T23:32:51Z</time>
      </trkpt>
      <trkpt lat="41.913987" lon="2.908076">
        <ele>345.0</ele>
        <time>2019-01-13T23:33:00Z</time>
      </trkpt>
      <trkpt lat="41.913654" lon="2.907837">
        <ele>344.0</ele>
        <time>2019-01-13T23:33:06Z</time>
      </trkpt>
      <trkpt lat="41.913580" lon="2.907810">
        <ele>344.0</ele>
        <time>2019-01-13T23:33:07Z</time>
      </trkpt>
      <trkpt lat="41.913501" lon="2.907787">
        <ele>344.0</ele>
        <time>2019-01-13T23:33:09Z</time>
      </trkpt>
      <trkpt lat="41.913424" lon="2.907766">
        <ele>344.0</ele>
        <time>2019-01-13T23:33:10Z</time>
      </trkpt>
      <trkpt lat="41.913350" lon="2.907746">
        <ele>344.0</ele>
        <time>2019-01-13T23:33:11Z</time>
      </trkpt>
      <trkpt lat="41.913122" lon="2.907697">
        <ele>343.0</ele>
        <time>2019-01-13T23:33:15Z</time>
      </trkpt>
      <trkpt lat="41.912539" lon="2.907498">
        <ele>343.0</ele>
        <time>2019-01-13T23:33:24Z</time>
      </trkpt>
      <trkpt lat="41.912468" lon="2.907471">
        <ele>343.0</ele>
        <time>2019-01-13T23:33:26Z</time>
      </trkpt>
      <trkpt lat="41.911962" lon="2.907280">
        <ele>343.0</ele>
        <time>2019-01-13T23:33:34Z</time>
      </trkpt>
      <trkpt lat="41.911661" lon="2.907264">
        <ele>343.0</ele>
        <time>2019-01-13T23:33:39Z</time>
      </trkpt>
      <trkpt lat="41.911437" lon="2.907271">
        <ele>343.0</ele>
        <time>2019-01-13T23:33:42Z</time>
      </trkpt>
      <trkpt lat="41.911288" lon="2.907211">
        <ele>343.0</ele>
        <time>2019-01-13T23:33:45Z</time>
      </trkpt>
      <trkpt lat="41.911078" lon="2.907131">
        <ele>343.0</ele>
        <time>2019-01-13T23:33:48Z</time>
      </trkpt>
      <trkpt lat="41.911010" lon="2.907158">
        <ele>343.0</ele>
        <time>2019-01-13T23:33:49Z</time>
      </trkpt>
      <trkpt lat="41.910847" lon="2.907343">
        <ele>343.0</ele>
        <time>2019-01-13T23:33:53Z</time>
      </trkpt>
      <trkpt lat="41.910740" lon="2.907496">
        <ele>342.0</ele>
        <time>2019-01-13T23:33:55Z</time>
      </trkpt>
      <trkpt lat="41.910672" lon="2.907554">
        <ele>342.0</ele>
        <time>2019-01-13T23:33:57Z</time>
      </trkpt>
      <trkpt lat="41.910591" lon="2.907580">
        <ele>342.0</ele>
        <time>2019-01-13T23:33:58Z</time>
      </trkpt>
      <trkpt lat="41.910510" lon="2.907571">
        <ele>342.0</ele>
        <time>2019-01-13T23:33:59Z</time>
      </trkpt>
      <trkpt lat="41.910425" lon="2.907530">
        <ele>342.0</ele>
        <time>2019-01-13T23:34:01Z</time>
      </trkpt>
      <trkpt lat="41.910343" lon="2.907480">
        <ele>342.0</ele>
        <time>2019-01-13T23:34:02Z</time>
      </trkpt>
      <trkpt lat="41.910260" lon="2.907429">
        <ele>342.0</ele>
        <time>2019-01-13T23:34:04Z</time>
      </trkpt>
      <trkpt lat="41.910173" lon="2.907379">
        <ele>342.0</ele>
        <time>2019-01-13T23:34:05Z</time>
      </trkpt>
      <trkpt lat="41.910085" lon="2.907345">
        <ele>342.0</ele>
        <time>2019-01-13T23:34:07Z</time>
      </trkpt>
      <trkpt lat="41.909903" lon="2.907343">
        <ele>341.0</ele>
        <time>2019-01-13T23:34:10Z</time>
      </trkpt>
      <trkpt lat="41.909811" lon="2.907375">
        <ele>340.0</ele>
        <time>2019-01-13T23:34:11Z</time>
      </trkpt>
      <trkpt lat="41.909718" lon="2.907410">
        <ele>340.0</ele>
        <time>2019-01-13T23:34:13Z</time>
      </trkpt>
      <trkpt lat="41.909616" lon="2.907422">
        <ele>339.0</ele>
        <time>2019-01-13T23:34:14Z</time>
      </trkpt>
      <trkpt lat="41.909515" lon="2.907404">
        <ele>339.0</ele>
        <time>2019-01-13T23:34:16Z</time>
      </trkpt>
      <trkpt lat="41.909421" lon="2.907369">
        <ele>338.0</ele>
        <time>2019-01-13T23:34:17Z</time>
      </trkpt>
      <trkpt lat="41.909325" lon="2.907344">
        <ele>338.0</ele>
        <time>2019-01-13T23:34:19Z</time>
      </trkpt>
      <trkpt lat="41.909233" lon="2.907348">
        <ele>337.0</ele>
        <time>2019-01-13T23:34:20Z</time>
      </trkpt>
      <trkpt lat="41.909152" lon="2.907398">
        <ele>337.0</ele>
        <time>2019-01-13T23:34:22Z</time>
      </trkpt>
      <trkpt lat="41.909097" lon="2.907483">
        <ele>337.0</ele>
        <time>2019-01-13T23:34:23Z</time>
      </trkpt>
      <trkpt lat="41.909089" lon="2.907722">
        <ele>336.0</ele>
        <time>2019-01-13T23:34:26Z</time>
      </trkpt>
      <trkpt lat="41.909101" lon="2.907845">
        <ele>336.0</ele>
        <time>2019-01-13T23:34:28Z</time>
      </trkpt>
      <trkpt lat="41.909109" lon="2.907973">
        <ele>335.0</ele>
        <time>2019-01-13T23:34:29Z</time>
      </trkpt>
      <trkpt lat="41.909115" lon="2.908108">
        <ele>335.0</ele>
        <time>2019-01-13T23:34:31Z</time>
      </trkpt>
      <trkpt lat="41.909125" lon="2.908243">
        <ele>334.0</ele>
        <time>2019-01-13T23:34:32Z</time>
      </trkpt>
      <trkpt lat="41.909133" lon="2.908384">
        <ele>334.0</ele>
        <time>2019-01-13T23:34:34Z</time>
      </trkpt>
      <trkpt lat="41.909142" lon="2.908531">
        <ele>334.0</ele>
        <time>2019-01-13T23:34:36Z</time>
      </trkpt>
      <trkpt lat="41.909147" lon="2.908677">
        <ele>333.0</ele>
        <time>2019-01-13T23:34:38Z</time>
      </trkpt>
      <trkpt lat="41.909156" lon="2.908838">
        <ele>333.0</ele>
        <time>2019-01-13T23:34:39Z</time>
      </trkpt>
      <trkpt lat="41.909166" lon="2.908988">
        <ele>333.0</ele>
        <time>2019-01-13T23:34:41Z</time>
      </trkpt>
      <trkpt lat="41.909177" lon="2.909139">
        <ele>332.0</ele>
        <time>2019-01-13T23:34:43Z</time>
      </trkpt>
      <trkpt lat="41.909184" lon="2.909293">
        <ele>331.0</ele>
        <time>2019-01-13T23:34:45Z</time>
      </trkpt>
      <trkpt lat="41.909193" lon="2.909450">
        <ele>331.0</ele>
        <time>2019-01-13T23:34:47Z</time>
      </trkpt>
      <trkpt lat="41.909201" lon="2.909610">
        <ele>330.0</ele>
        <time>2019-01-13T23:34:49Z</time>
      </trkpt>
      <trkpt lat="41.909215" lon="2.909752">
        <ele>329.0</ele>
        <time>2019-01-13T23:34:50Z</time>
      </trkpt>
      <trkpt lat="41.909232" lon="2.909891">
        <ele>329.0</ele>
        <time>2019-01-13T23:34:52Z</time>
      </trkpt>
      <trkpt lat="41.909240" lon="2.910002">
        <ele>328.0</ele>
        <time>2019-01-13T23:34:53Z</time>
      </trkpt>
      <trkpt lat="41.909229" lon="2.910109">
        <ele>327.0</ele>
        <time>2019-01-13T23:34:55Z</time>
      </trkpt>
      <trkpt lat="41.909179" lon="2.910195">
        <ele>326.0</ele>
        <time>2019-01-13T23:34:56Z</time>
      </trkpt>
      <trkpt lat="41.909014" lon="2.910229">
        <ele>324.0</ele>
        <time>2019-01-13T23:34:59Z</time>
      </trkpt>
      <trkpt lat="41.908933" lon="2.910168">
        <ele>324.0</ele>
        <time>2019-01-13T23:35:00Z</time>
      </trkpt>
      <trkpt lat="41.908851" lon="2.910102">
        <ele>323.0</ele>
        <time>2019-01-13T23:35:02Z</time>
      </trkpt>
      <trkpt lat="41.908765" lon="2.910028">
        <ele>323.0</ele>
        <time>2019-01-13T23:35:03Z</time>
      </trkpt>
      <trkpt lat="41.908679" lon="2.909955">
        <ele>322.0</ele>
        <time>2019-01-13T23:35:05Z</time>
      </trkpt>
      <trkpt lat="41.908592" lon="2.909879">
        <ele>322.0</ele>
        <time>2019-01-13T23:35:07Z</time>
      </trkpt>
      <trkpt lat="41.908502" lon="2.909819">
        <ele>322.0</ele>
        <time>2019-01-13T23:35:08Z</time>
      </trkpt>
      <trkpt lat="41.908413" lon="2.909798">
        <ele>321.0</ele>
        <time>2019-01-13T23:35:10Z</time>
      </trkpt>
      <trkpt lat="41.908324" lon="2.909830">
        <ele>321.0</ele>
        <time>2019-01-13T23:35:11Z</time>
      </trkpt>
      <trkpt lat="41.908249" lon="2.909906">
        <ele>321.0</ele>
        <time>2019-01-13T23:35:13Z</time>
      </trkpt>
      <trkpt lat="41.908169" lon="2.909994">
        <ele>320.0</ele>
        <time>2019-01-13T23:35:14Z</time>
      </trkpt>
      <trkpt lat="41.908075" lon="2.910029">
        <ele>319.0</ele>
        <time>2019-01-13T23:35:16Z</time>
      </trkpt>
      <trkpt lat="41.907981" lon="2.909991">
        <ele>318.0</ele>
        <time>2019-01-13T23:35:17Z</time>
      </trkpt>
      <trkpt lat="41.907898" lon="2.909931">
        <ele>318.0</ele>
        <time>2019-01-13T23:35:19Z</time>
      </trkpt>
      <trkpt lat="41.907827" lon="2.909845">
        <ele>317.0</ele>
        <time>2019-01-13T23:35:20Z</time>
      </trkpt>
      <trkpt lat="41.907748" lon="2.909791">
        <ele>316.0</ele>
        <time>2019-01-13T23:35:22Z</time>
      </trkpt>
      <trkpt lat="41.907662" lon="2.909783">
        <ele>316.0</ele>
        <time>2019-01-13T23:35:23Z</time>
      </trkpt>
      <trkpt lat="41.907586" lon="2.909827">
        <ele>315.0</ele>
        <time>2019-01-13T23:35:25Z</time>
      </trkpt>
      <trkpt lat="41.907493" lon="2.910001">
        <ele>314.0</ele>
        <time>2019-01-13T23:35:27Z</time>
      </trkpt>
      <trkpt lat="41.907359" lon="2.910279">
        <ele>312.0</ele>
        <time>2019-01-13T23:35:31Z</time>
      </trkpt>
      <trkpt lat="41.907275" lon="2.910290">
        <ele>312.0</ele>
        <time>2019-01-13T23:35:32Z</time>
      </trkpt>
      <trkpt lat="41.907190" lon="2.910253">
        <ele>312.0</ele>
        <time>2019-01-13T23:35:34Z</time>
      </trkpt>
      <trkpt lat="41.907106" lon="2.910193">
        <ele>311.0</ele>
        <time>2019-01-13T23:35:35Z</time>
      </trkpt>
      <trkpt lat="41.907024" lon="2.910129">
        <ele>311.0</ele>
        <time>2019-01-13T23:35:37Z</time>
      </trkpt>
      <trkpt lat="41.906941" lon="2.910063">
        <ele>310.0</ele>
        <time>2019-01-13T23:35:38Z</time>
      </trkpt>
      <trkpt lat="41.906854" lon="2.909995">
        <ele>310.0</ele>
        <time>2019-01-13T23:35:40Z</time>
      </trkpt>
      <trkpt lat="41.906766" lon="2.909925">
        <ele>309.0</ele>
        <time>2019-01-13T23:35:42Z</time>
      </trkpt>
      <trkpt lat="41.906678" lon="2.909853">
        <ele>309.0</ele>
        <time>2019-01-13T23:35:43Z</time>
      </trkpt>
      <trkpt lat="41.906581" lon="2.909790">
        <ele>308.0</ele>
        <time>2019-01-13T23:35:45Z</time>
      </trkpt>
      <trkpt lat="41.906478" lon="2.909754">
        <ele>308.0</ele>
        <time>2019-01-13T23:35:47Z</time>
      </trkpt>
      <trkpt lat="41.906367" lon="2.909781">
        <ele>307.0</ele>
        <time>2019-01-13T23:35:49Z</time>
      </trkpt>
      <trkpt lat="41.906274" lon="2.909856">
        <ele>306.0</ele>
        <time>2019-01-13T23:35:50Z</time>
      </trkpt>
      <trkpt lat="41.906186" lon="2.909937">
        <ele>306.0</ele>
        <time>2019-01-13T23:35:52Z</time>
      </trkpt>
      <trkpt lat="41.906080" lon="2.909973">
        <ele>305.0</ele>
        <time>2019-01-13T23:35:54Z</time>
      </trkpt>
      <trkpt lat="41.905976" lon="2.909958">
        <ele>305.0</ele>
        <time>2019-01-13T23:35:55Z</time>
      </trkpt>
      <trkpt lat="41.905880" lon="2.909934">
        <ele>304.0</ele>
        <time>2019-01-13T23:35:57Z</time>
      </trkpt>
      <trkpt lat="41.905783" lon="2.909939">
        <ele>303.0</ele>
        <time>2019-01-13T23:35:59Z</time>
      </trkpt>
      <trkpt lat="41.905687" lon="2.909993">
        <ele>303.0</ele>
        <time>2019-01-13T23:36:00Z</time>
      </trkpt>
      <trkpt lat="41.905627" lon="2.910095">
        <ele>302.0</ele>
        <time>2019-01-13T23:36:02Z</time>
      </trkpt>
      <trkpt lat="41.905585" lon="2.910204">
        <ele>302.0</ele>
        <time>2019-01-13T23:36:03Z</time>
      </trkpt>
      <trkpt lat="41.905372" lon="2.910359">
        <ele>300.0</ele>
        <time>2019-01-13T23:36:07Z</time>
      </trkpt>
      <trkpt lat="41.905291" lon="2.910312">
        <ele>300.0</ele>
        <time>2019-01-13T23:36:09Z</time>
      </trkpt>
      <trkpt lat="41.905220" lon="2.910244">
        <ele>299.0</ele>
        <time>2019-01-13T23:36:10Z</time>
      </trkpt>
      <trkpt lat="41.905164" lon="2.910151">
        <ele>298.0</ele>
        <time>2019-01-13T23:36:11Z</time>
      </trkpt>
      <trkpt lat="41.905132" lon="2.910038">
        <ele>298.0</ele>
        <time>2019-01-13T23:36:13Z</time>
      </trkpt>
      <trkpt lat="41.905118" lon="2.909921">
        <ele>298.0</ele>
        <time>2019-01-13T23:36:14Z</time>
      </trkpt>
      <trkpt lat="41.905109" lon="2.909814">
        <ele>297.0</ele>
        <time>2019-01-13T23:36:15Z</time>
      </trkpt>
      <trkpt lat="41.905093" lon="2.909703">
        <ele>297.0</ele>
        <time>2019-01-13T23:36:17Z</time>
      </trkpt>
      <trkpt lat="41.905025" lon="2.909477">
        <ele>296.0</ele>
        <time>2019-01-13T23:36:20Z</time>
      </trkpt>
      <trkpt lat="41.904989" lon="2.909355">
        <ele>296.0</ele>
        <time>2019-01-13T23:36:21Z</time>
      </trkpt>
      <trkpt lat="41.904941" lon="2.909248">
        <ele>295.0</ele>
        <time>2019-01-13T23:36:23Z</time>
      </trkpt>
      <trkpt lat="41.904863" lon="2.909185">
        <ele>295.0</ele>
        <time>2019-01-13T23:36:24Z</time>
      </trkpt>
      <trkpt lat="41.904783" lon="2.909140">
        <ele>294.0</ele>
        <time>2019-01-13T23:36:26Z</time>
      </trkpt>
      <trkpt lat="41.904708" lon="2.909082">
        <ele>293.0</ele>
        <time>2019-01-13T23:36:27Z</time>
      </trkpt>
      <trkpt lat="41.904641" lon="2.909007">
        <ele>293.0</ele>
        <time>2019-01-13T23:36:28Z</time>
      </trkpt>
      <trkpt lat="41.904610" lon="2.908904">
        <ele>292.0</ele>
        <time>2019-01-13T23:36:30Z</time>
      </trkpt>
      <trkpt lat="41.904626" lon="2.908789">
        <ele>291.0</ele>
        <time>2019-01-13T23:36:31Z</time>
      </trkpt>
      <trkpt lat="41.904679" lon="2.908703">
        <ele>291.0</ele>
        <time>2019-01-13T23:36:32Z</time>
      </trkpt>
      <trkpt lat="41.904737" lon="2.908632">
        <ele>290.0</ele>
        <time>2019-01-13T23:36:34Z</time>
      </trkpt>
      <trkpt lat="41.904777" lon="2.908552">
        <ele>290.0</ele>
        <time>2019-01-13T23:36:35Z</time>
      </trkpt>
      <trkpt lat="41.904790" lon="2.908452">
        <ele>290.0</ele>
        <time>2019-01-13T23:36:36Z</time>
      </trkpt>
      <trkpt lat="41.904767" lon="2.908349">
        <ele>290.0</ele>
        <time>2019-01-13T23:36:37Z</time>
      </trkpt>
      <trkpt lat="41.904703" lon="2.908286">
        <ele>289.0</ele>
        <time>2019-01-13T23:36:39Z</time>
      </trkpt>
      <trkpt lat="41.904571" lon="2.908229">
        <ele>288.0</ele>
        <time>2019-01-13T23:36:41Z</time>
      </trkpt>
      <trkpt lat="41.904502" lon="2.908223">
        <ele>287.0</ele>
        <time>2019-01-13T23:36:42Z</time>
      </trkpt>
      <trkpt lat="41.904429" lon="2.908214">
        <ele>287.0</ele>
        <time>2019-01-13T23:36:43Z</time>
      </trkpt>
      <trkpt lat="41.904351" lon="2.908193">
        <ele>286.0</ele>
        <time>2019-01-13T23:36:44Z</time>
      </trkpt>
      <trkpt lat="41.904269" lon="2.908163">
        <ele>286.0</ele>
        <time>2019-01-13T23:36:46Z</time>
      </trkpt>
      <trkpt lat="41.904183" lon="2.908114">
        <ele>286.0</ele>
        <time>2019-01-13T23:36:47Z</time>
      </trkpt>
      <trkpt lat="41.904100" lon="2.908045">
        <ele>285.0</ele>
        <time>2019-01-13T23:36:49Z</time>
      </trkpt>
      <trkpt lat="41.904017" lon="2.907954">
        <ele>285.0</ele>
        <time>2019-01-13T23:36:51Z</time>
      </trkpt>
      <trkpt lat="41.903931" lon="2.907860">
        <ele>284.0</ele>
        <time>2019-01-13T23:36:52Z</time>
      </trkpt>
      <trkpt lat="41.903838" lon="2.907762">
        <ele>283.0</ele>
        <time>2019-01-13T23:36:54Z</time>
      </trkpt>
      <trkpt lat="41.903743" lon="2.907660">
        <ele>283.0</ele>
        <time>2019-01-13T23:36:56Z</time>
      </trkpt>
      <trkpt lat="41.903645" lon="2.907555">
        <ele>282.0</ele>
        <time>2019-01-13T23:36:58Z</time>
      </trkpt>
      <trkpt lat="41.903545" lon="2.907443">
        <ele>281.0</ele>
        <time>2019-01-13T23:37:00Z</time>
      </trkpt>
      <trkpt lat="41.903445" lon="2.907326">
        <ele>281.0</ele>
        <time>2019-01-13T23:37:02Z</time>
      </trkpt>
      <trkpt lat="41.903340" lon="2.907210">
        <ele>280.0</ele>
        <time>2019-01-13T23:37:05Z</time>
      </trkpt>
      <trkpt lat="41.903227" lon="2.907087">
        <ele>279.0</ele>
        <time>2019-01-13T23:37:07Z</time>
      </trkpt>
      <trkpt lat="41.903115" lon="2.906971">
        <ele>278.0</ele>
        <time>2019-01-13T23:37:09Z</time>
      </trkpt>
      <trkpt lat="41.903002" lon="2.906853">
        <ele>276.0</ele>
        <time>2019-01-13T23:37:11Z</time>
      </trkpt>
      <trkpt lat="41.902885" lon="2.906733">
        <ele>275.0</ele>
        <time>2019-01-13T23:37:14Z</time>
      </trkpt>
      <trkpt lat="41.902770" lon="2.906608">
        <ele>273.0</ele>
        <time>2019-01-13T23:37:16Z</time>
      </trkpt>
      <trkpt lat="41.902655" lon="2.906481">
        <ele>272.0</ele>
        <time>2019-01-13T23:37:19Z</time>
      </trkpt>
      <trkpt lat="41.902537" lon="2.906357">
        <ele>270.0</ele>
        <time>2019-01-13T23:37:21Z</time>
      </trkpt>
      <trkpt lat="41.902417" lon="2.906229">
        <ele>269.0</ele>
        <time>2019-01-13T23:37:23Z</time>
      </trkpt>
      <trkpt lat="41.902291" lon="2.906093">
        <ele>268.0</ele>
        <time>2019-01-13T23:37:26Z</time>
      </trkpt>
      <trkpt lat="41.902174" lon="2.905961">
        <ele>267.0</ele>
        <time>2019-01-13T23:37:28Z</time>
      </trkpt>
      <trkpt lat="41.902051" lon="2.905824">
        <ele>265.0</ele>
        <time>2019-01-13T23:37:31Z</time>
      </trkpt>
      <trkpt lat="41.901931" lon="2.905686">
        <ele>264.0</ele>
        <time>2019-01-13T23:37:33Z</time>
      </trkpt>
      <trkpt lat="41.901805" lon="2.905551">
        <ele>263.0</ele>
        <time>2019-01-13T23:37:36Z</time>
      </trkpt>
      <trkpt lat="41.901676" lon="2.905416">
        <ele>262.0</ele>
        <time>2019-01-13T23:37:39Z</time>
      </trkpt>
      <trkpt lat="41.901547" lon="2.905277">
        <ele>261.0</ele>
        <time>2019-01-13T23:37:41Z</time>
      </trkpt>
      <trkpt lat="41.901409" lon="2.905128">
        <ele>260.0</ele>
        <time>2019-01-13T23:37:44Z</time>
      </trkpt>
      <trkpt lat="41.901275" lon="2.904989">
        <ele>259.0</ele>
        <time>2019-01-13T23:37:47Z</time>
      </trkpt>
      <trkpt lat="41.901142" lon="2.904849">
        <ele>258.0</ele>
        <time>2019-01-13T23:37:50Z</time>
      </trkpt>
      <trkpt lat="41.901010" lon="2.904709">
        <ele>257.0</ele>
        <time>2019-01-13T23:37:52Z</time>
      </trkpt>
      <trkpt lat="41.900877" lon="2.904567">
        <ele>256.0</ele>
        <time>2019-01-13T23:37:55Z</time>
      </trkpt>
      <trkpt lat="41.900749" lon="2.904426">
        <ele>255.0</ele>
        <time>2019-01-13T23:37:58Z</time>
      </trkpt>
      <trkpt lat="41.900622" lon="2.904285">
        <ele>254.0</ele>
        <time>2019-01-13T23:38:00Z</time>
      </trkpt>
      <trkpt lat="41.900488" lon="2.904145">
        <ele>253.0</ele>
        <time>2019-01-13T23:38:03Z</time>
      </trkpt>
      <trkpt lat="41.900364" lon="2.904013">
        <ele>252.0</ele>
        <time>2019-01-13T23:38:06Z</time>
      </trkpt>
      <trkpt lat="41.900245" lon="2.903880">
        <ele>251.0</ele>
        <time>2019-01-13T23:38:08Z</time>
      </trkpt>
      <trkpt lat="41.900126" lon="2.903749">
        <ele>251.0</ele>
        <time>2019-01-13T23:38:10Z</time>
      </trkpt>
      <trkpt lat="41.899886" lon="2.903507">
        <ele>250.0</ele>
        <time>2019-01-13T23:38:15Z</time>
      </trkpt>
      <trkpt lat="41.899398" lon="2.902987">
        <ele>247.0</ele>
        <time>2019-01-13T23:38:25Z</time>
      </trkpt>
      <trkpt lat="41.899272" lon="2.902861">
        <ele>246.0</ele>
        <time>2019-01-13T23:38:28Z</time>
      </trkpt>
      <trkpt lat="41.899144" lon="2.902733">
        <ele>246.0</ele>
        <time>2019-01-13T23:38:30Z</time>
      </trkpt>
      <trkpt lat="41.899020" lon="2.902602">
        <ele>245.0</ele>
        <time>2019-01-13T23:38:33Z</time>
      </trkpt>
      <trkpt lat="41.898895" lon="2.902464">
        <ele>244.0</ele>
        <time>2019-01-13T23:38:35Z</time>
      </trkpt>
      <trkpt lat="41.898772" lon="2.902329">
        <ele>243.0</ele>
        <time>2019-01-13T23:38:38Z</time>
      </trkpt>
      <trkpt lat="41.898651" lon="2.902197">
        <ele>243.0</ele>
        <time>2019-01-13T23:38:40Z</time>
      </trkpt>
      <trkpt lat="41.898528" lon="2.902062">
        <ele>242.0</ele>
        <time>2019-01-13T23:38:43Z</time>
      </trkpt>
      <trkpt lat="41.898410" lon="2.901938">
        <ele>241.0</ele>
        <time>2019-01-13T23:38:45Z</time>
      </trkpt>
      <trkpt lat="41.898297" lon="2.901816">
        <ele>240.0</ele>
        <time>2019-01-13T23:38:48Z</time>
      </trkpt>
      <trkpt lat="41.898186" lon="2.901696">
        <ele>240.0</ele>
        <time>2019-01-13T23:38:50Z</time>
      </trkpt>
      <trkpt lat="41.897869" lon="2.901347">
        <ele>238.0</ele>
        <time>2019-01-13T23:38:57Z</time>
      </trkpt>
      <trkpt lat="41.897568" lon="2.901025">
        <ele>236.0</ele>
        <time>2019-01-13T23:39:03Z</time>
      </trkpt>
      <trkpt lat="41.897475" lon="2.900924">
        <ele>236.0</ele>
        <time>2019-01-13T23:39:05Z</time>
      </trkpt>
      <trkpt lat="41.897385" lon="2.900824">
        <ele>236.0</ele>
        <time>2019-01-13T23:39:07Z</time>
      </trkpt>
      <trkpt lat="41.897301" lon="2.900723">
        <ele>235.0</ele>
        <time>2019-01-13T23:39:08Z</time>
      </trkpt>
      <trkpt lat="41.897220" lon="2.900624">
        <ele>235.0</ele>
        <time>2019-01-13T23:39:10Z</time>
      </trkpt>
      <trkpt lat="41.897000" lon="2.900321">
        <ele>234.0</ele>
        <time>2019-01-13T23:39:15Z</time>
      </trkpt>
      <trkpt lat="41.896607" lon="2.899714">
        <ele>234.0</ele>
        <time>2019-01-13T23:39:25Z</time>
      </trkpt>
      <trkpt lat="41.896240" lon="2.899139">
        <ele>236.0</ele>
        <time>2019-01-13T23:39:34Z</time>
      </trkpt>
      <trkpt lat="41.896177" lon="2.899042">
        <ele>236.0</ele>
        <time>2019-01-13T23:39:35Z</time>
      </trkpt>
      <trkpt lat="41.895813" lon="2.898498">
        <ele>239.0</ele>
        <time>2019-01-13T23:39:44Z</time>
      </trkpt>
      <trkpt lat="41.895752" lon="2.898406">
        <ele>239.0</ele>
        <time>2019-01-13T23:39:45Z</time>
      </trkpt>
      <trkpt lat="41.895479" lon="2.897991">
        <ele>239.0</ele>
        <time>2019-01-13T23:39:52Z</time>
      </trkpt>
      <trkpt lat="41.895402" lon="2.897880">
        <ele>238.0</ele>
        <time>2019-01-13T23:39:54Z</time>
      </trkpt>
      <trkpt lat="41.895319" lon="2.897780">
        <ele>238.0</ele>
        <time>2019-01-13T23:39:56Z</time>
      </trkpt>
      <trkpt lat="41.895235" lon="2.897710">
        <ele>237.0</ele>
        <time>2019-01-13T23:39:57Z</time>
      </trkpt>
      <trkpt lat="41.895141" lon="2.897666">
        <ele>237.0</ele>
        <time>2019-01-13T23:39:59Z</time>
      </trkpt>
      <trkpt lat="41.895043" lon="2.897647">
        <ele>236.0</ele>
        <time>2019-01-13T23:40:00Z</time>
      </trkpt>
      <trkpt lat="41.894954" lon="2.897657">
        <ele>235.0</ele>
        <time>2019-01-13T23:40:02Z</time>
      </trkpt>
      <trkpt lat="41.894866" lon="2.897678">
        <ele>234.0</ele>
        <time>2019-01-13T23:40:03Z</time>
      </trkpt>
      <trkpt lat="41.894783" lon="2.897697">
        <ele>234.0</ele>
        <time>2019-01-13T23:40:05Z</time>
      </trkpt>
      <trkpt lat="41.894696" lon="2.897693">
        <ele>233.0</ele>
        <time>2019-01-13T23:40:06Z</time>
      </trkpt>
      <trkpt lat="41.894615" lon="2.897645">
        <ele>233.0</ele>
        <time>2019-01-13T23:40:07Z</time>
      </trkpt>
      <trkpt lat="41.894547" lon="2.897562">
        <ele>232.0</ele>
        <time>2019-01-13T23:40:09Z</time>
      </trkpt>
      <trkpt lat="41.894483" lon="2.897461">
        <ele>232.0</ele>
        <time>2019-01-13T23:40:10Z</time>
      </trkpt>
      <trkpt lat="41.894437" lon="2.897340">
        <ele>231.0</ele>
        <time>2019-01-13T23:40:12Z</time>
      </trkpt>
      <trkpt lat="41.894395" lon="2.897217">
        <ele>231.0</ele>
        <time>2019-01-13T23:40:14Z</time>
      </trkpt>
      <trkpt lat="41.894359" lon="2.897089">
        <ele>230.0</ele>
        <time>2019-01-13T23:40:15Z</time>
      </trkpt>
      <trkpt lat="41.894343" lon="2.896953">
        <ele>229.0</ele>
        <time>2019-01-13T23:40:17Z</time>
      </trkpt>
      <trkpt lat="41.894344" lon="2.896813">
        <ele>229.0</ele>
        <time>2019-01-13T23:40:19Z</time>
      </trkpt>
      <trkpt lat="41.894356" lon="2.896666">
        <ele>228.0</ele>
        <time>2019-01-13T23:40:20Z</time>
      </trkpt>
      <trkpt lat="41.894371" lon="2.896518">
        <ele>227.0</ele>
        <time>2019-01-13T23:40:22Z</time>
      </trkpt>
      <trkpt lat="41.894390" lon="2.896361">
        <ele>226.0</ele>
        <time>2019-01-13T23:40:24Z</time>
      </trkpt>
      <trkpt lat="41.894411" lon="2.896210">
        <ele>225.0</ele>
        <time>2019-01-13T23:40:26Z</time>
      </trkpt>
      <trkpt lat="41.894430" lon="2.896055">
        <ele>224.0</ele>
        <time>2019-01-13T23:40:28Z</time>
      </trkpt>
      <trkpt lat="41.894448" lon="2.895899">
        <ele>224.0</ele>
        <time>2019-01-13T23:40:30Z</time>
      </trkpt>
      <trkpt lat="41.894465" lon="2.895743">
        <ele>223.0</ele>
        <time>2019-01-13T23:40:32Z</time>
      </trkpt>
      <trkpt lat="41.894482" lon="2.895578">
        <ele>222.0</ele>
        <time>2019-01-13T23:40:34Z</time>
      </trkpt>
      <trkpt lat="41.894497" lon="2.895411">
        <ele>221.0</ele>
        <time>2019-01-13T23:40:36Z</time>
      </trkpt>
      <trkpt lat="41.894505" lon="2.895230">
        <ele>221.0</ele>
        <time>2019-01-13T23:40:38Z</time>
      </trkpt>
      <trkpt lat="41.894504" lon="2.895056">
        <ele>220.0</ele>
        <time>2019-01-13T23:40:40Z</time>
      </trkpt>
      <trkpt lat="41.894493" lon="2.894884">
        <ele>219.0</ele>
        <time>2019-01-13T23:40:42Z</time>
      </trkpt>
      <trkpt lat="41.894476" lon="2.894714">
        <ele>218.0</ele>
        <time>2019-01-13T23:40:44Z</time>
      </trkpt>
      <trkpt lat="41.894451" lon="2.894545">
        <ele>217.0</ele>
        <time>2019-01-13T23:40:46Z</time>
      </trkpt>
      <trkpt lat="41.894432" lon="2.894371">
        <ele>217.0</ele>
        <time>2019-01-13T23:40:48Z</time>
      </trkpt>
      <trkpt lat="41.894411" lon="2.894198">
        <ele>216.0</ele>
        <time>2019-01-13T23:40:50Z</time>
      </trkpt>
      <trkpt lat="41.894398" lon="2.894020">
        <ele>215.0</ele>
        <time>2019-01-13T23:40:52Z</time>
      </trkpt>
      <trkpt lat="41.894382" lon="2.893834">
        <ele>214.0</ele>
        <time>2019-01-13T23:40:54Z</time>
      </trkpt>
      <trkpt lat="41.894359" lon="2.893651">
        <ele>213.0</ele>
        <time>2019-01-13T23:40:57Z</time>
      </trkpt>
      <trkpt lat="41.894331" lon="2.893469">
        <ele>213.0</ele>
        <time>2019-01-13T23:40:59Z</time>
      </trkpt>
      <trkpt lat="41.894307" lon="2.893294">
        <ele>212.0</ele>
        <time>2019-01-13T23:41:01Z</time>
      </trkpt>
      <trkpt lat="41.894279" lon="2.893114">
        <ele>211.0</ele>
        <time>2019-01-13T23:41:03Z</time>
      </trkpt>
      <trkpt lat="41.894244" lon="2.892930">
        <ele>211.0</ele>
        <time>2019-01-13T23:41:05Z</time>
      </trkpt>
      <trkpt lat="41.894204" lon="2.892747">
        <ele>210.0</ele>
        <time>2019-01-13T23:41:08Z</time>
      </trkpt>
      <trkpt lat="41.894164" lon="2.892560">
        <ele>209.0</ele>
        <time>2019-01-13T23:41:10Z</time>
      </trkpt>
      <trkpt lat="41.894123" lon="2.892381">
        <ele>208.0</ele>
        <time>2019-01-13T23:41:12Z</time>
      </trkpt>
      <trkpt lat="41.894080" lon="2.892208">
        <ele>207.0</ele>
        <time>2019-01-13T23:41:14Z</time>
      </trkpt>
      <trkpt lat="41.894019" lon="2.892040">
        <ele>206.0</ele>
        <time>2019-01-13T23:41:17Z</time>
      </trkpt>
      <trkpt lat="41.893943" lon="2.891884">
        <ele>206.0</ele>
        <time>2019-01-13T23:41:19Z</time>
      </trkpt>
      <trkpt lat="41.893855" lon="2.891737">
        <ele>205.0</ele>
        <time>2019-01-13T23:41:21Z</time>
      </trkpt>
      <trkpt lat="41.893766" lon="2.891586">
        <ele>204.0</ele>
        <time>2019-01-13T23:41:23Z</time>
      </trkpt>
      <trkpt lat="41.893687" lon="2.891427">
        <ele>203.0</ele>
        <time>2019-01-13T23:41:26Z</time>
      </trkpt>
      <trkpt lat="41.893616" lon="2.891253">
        <ele>202.0</ele>
        <time>2019-01-13T23:41:28Z</time>
      </trkpt>
      <trkpt lat="41.893552" lon="2.891075">
        <ele>202.0</ele>
        <time>2019-01-13T23:41:30Z</time>
      </trkpt>
      <trkpt lat="41.893494" lon="2.890892">
        <ele>201.0</ele>
        <time>2019-01-13T23:41:33Z</time>
      </trkpt>
      <trkpt lat="41.893433" lon="2.890711">
        <ele>200.0</ele>
        <time>2019-01-13T23:41:35Z</time>
      </trkpt>
      <trkpt lat="41.893386" lon="2.890526">
        <ele>200.0</ele>
        <time>2019-01-13T23:41:38Z</time>
      </trkpt>
      <trkpt lat="41.893347" lon="2.890348">
        <ele>199.0</ele>
        <time>2019-01-13T23:41:40Z</time>
      </trkpt>
      <trkpt lat="41.893312" lon="2.890176">
        <ele>198.0</ele>
        <time>2019-01-13T23:41:42Z</time>
      </trkpt>
      <trkpt lat="41.893278" lon="2.889990">
        <ele>198.0</ele>
        <time>2019-01-13T23:41:44Z</time>
      </trkpt>
      <trkpt lat="41.893267" lon="2.889809">
        <ele>197.0</ele>
        <time>2019-01-13T23:41:46Z</time>
      </trkpt>
      <trkpt lat="41.893276" lon="2.889626">
        <ele>196.0</ele>
        <time>2019-01-13T23:41:48Z</time>
      </trkpt>
      <trkpt lat="41.893297" lon="2.889447">
        <ele>196.0</ele>
        <time>2019-01-13T23:41:51Z</time>
      </trkpt>
      <trkpt lat="41.893337" lon="2.889285">
        <ele>195.0</ele>
        <time>2019-01-13T23:41:53Z</time>
      </trkpt>
      <trkpt lat="41.893373" lon="2.889142">
        <ele>194.0</ele>
        <time>2019-01-13T23:41:54Z</time>
      </trkpt>
      <trkpt lat="41.893393" lon="2.888994">
        <ele>194.0</ele>
        <time>2019-01-13T23:41:56Z</time>
      </trkpt>
      <trkpt lat="41.893393" lon="2.888838">
        <ele>193.0</ele>
        <time>2019-01-13T23:41:58Z</time>
      </trkpt>
      <trkpt lat="41.893379" lon="2.888681">
        <ele>193.0</ele>
        <time>2019-01-13T23:42:00Z</time>
      </trkpt>
      <trkpt lat="41.893353" lon="2.888521">
        <ele>192.0</ele>
        <time>2019-01-13T23:42:02Z</time>
      </trkpt>
      <trkpt lat="41.893324" lon="2.888353">
        <ele>191.0</ele>
        <time>2019-01-13T23:42:04Z</time>
      </trkpt>
      <trkpt lat="41.893300" lon="2.888194">
        <ele>191.0</ele>
        <time>2019-01-13T23:42:06Z</time>
      </trkpt>
      <trkpt lat="41.893271" lon="2.888039">
        <ele>190.0</ele>
        <time>2019-01-13T23:42:08Z</time>
      </trkpt>
      <trkpt lat="41.893237" lon="2.887881">
        <ele>189.0</ele>
        <time>2019-01-13T23:42:10Z</time>
      </trkpt>
      <trkpt lat="41.893186" lon="2.887736">
        <ele>188.0</ele>
        <time>2019-01-13T23:42:12Z</time>
      </trkpt>
      <trkpt lat="41.893100" lon="2.887615">
        <ele>187.0</ele>
        <time>2019-01-13T23:42:14Z</time>
      </trkpt>
      <trkpt lat="41.893008" lon="2.887512">
        <ele>187.0</ele>
        <time>2019-01-13T23:42:16Z</time>
      </trkpt>
      <trkpt lat="41.892911" lon="2.887405">
        <ele>186.0</ele>
        <time>2019-01-13T23:42:18Z</time>
      </trkpt>
      <trkpt lat="41.892829" lon="2.887282">
        <ele>185.0</ele>
        <time>2019-01-13T23:42:20Z</time>
      </trkpt>
      <trkpt lat="41.892764" lon="2.887135">
        <ele>184.0</ele>
        <time>2019-01-13T23:42:22Z</time>
      </trkpt>
      <trkpt lat="41.892704" lon="2.887005">
        <ele>183.0</ele>
        <time>2019-01-13T23:42:23Z</time>
      </trkpt>
      <trkpt lat="41.892610" lon="2.886907">
        <ele>183.0</ele>
        <time>2019-01-13T23:42:25Z</time>
      </trkpt>
      <trkpt lat="41.892510" lon="2.886813">
        <ele>182.0</ele>
        <time>2019-01-13T23:42:27Z</time>
      </trkpt>
      <trkpt lat="41.892402" lon="2.886716">
        <ele>181.0</ele>
        <time>2019-01-13T23:42:29Z</time>
      </trkpt>
      <trkpt lat="41.892302" lon="2.886613">
        <ele>180.0</ele>
        <time>2019-01-13T23:42:31Z</time>
      </trkpt>
      <trkpt lat="41.892207" lon="2.886495">
        <ele>179.0</ele>
        <time>2019-01-13T23:42:34Z</time>
      </trkpt>
      <trkpt lat="41.892126" lon="2.886360">
        <ele>179.0</ele>
        <time>2019-01-13T23:42:36Z</time>
      </trkpt>
      <trkpt lat="41.892048" lon="2.886223">
        <ele>178.0</ele>
        <time>2019-01-13T23:42:38Z</time>
      </trkpt>
      <trkpt lat="41.891956" lon="2.886120">
        <ele>177.0</ele>
        <time>2019-01-13T23:42:40Z</time>
      </trkpt>
      <trkpt lat="41.891859" lon="2.886001">
        <ele>177.0</ele>
        <time>2019-01-13T23:42:42Z</time>
      </trkpt>
      <trkpt lat="41.891797" lon="2.885838">
        <ele>176.0</ele>
        <time>2019-01-13T23:42:44Z</time>
      </trkpt>
      <trkpt lat="41.891759" lon="2.885677">
        <ele>175.0</ele>
        <time>2019-01-13T23:42:46Z</time>
      </trkpt>
      <trkpt lat="41.891728" lon="2.885511">
        <ele>175.0</ele>
        <time>2019-01-13T23:42:48Z</time>
      </trkpt>
      <trkpt lat="41.891694" lon="2.885345">
        <ele>174.0</ele>
        <time>2019-01-13T23:42:50Z</time>
      </trkpt>
      <trkpt lat="41.891659" lon="2.885001">
        <ele>173.0</ele>
        <time>2019-01-13T23:42:54Z</time>
      </trkpt>
      <trkpt lat="41.891631" lon="2.884498">
        <ele>172.0</ele>
        <time>2019-01-13T23:43:00Z</time>
      </trkpt>
      <trkpt lat="41.891583" lon="2.884353">
        <ele>171.0</ele>
        <time>2019-01-13T23:43:02Z</time>
      </trkpt>
      <trkpt lat="41.891527" lon="2.884203">
        <ele>171.0</ele>
        <time>2019-01-13T23:43:04Z</time>
      </trkpt>
      <trkpt lat="41.891473" lon="2.884062">
        <ele>170.0</ele>
        <time>2019-01-13T23:43:06Z</time>
      </trkpt>
      <trkpt lat="41.891419" lon="2.883924">
        <ele>170.0</ele>
        <time>2019-01-13T23:43:08Z</time>
      </trkpt>
      <trkpt lat="41.891361" lon="2.883787">
        <ele>170.0</ele>
        <time>2019-01-13T23:43:10Z</time>
      </trkpt>
      <trkpt lat="41.891300" lon="2.883652">
        <ele>169.0</ele>
        <time>2019-01-13T23:43:11Z</time>
      </trkpt>
      <trkpt lat="41.891238" lon="2.883508">
        <ele>169.0</ele>
        <time>2019-01-13T23:43:13Z</time>
      </trkpt>
      <trkpt lat="41.891050" lon="2.883129">
        <ele>167.0</ele>
        <time>2019-01-13T23:43:19Z</time>
      </trkpt>
      <trkpt lat="41.890979" lon="2.883016">
        <ele>167.0</ele>
        <time>2019-01-13T23:43:21Z</time>
      </trkpt>
      <trkpt lat="41.890906" lon="2.882905">
        <ele>166.0</ele>
        <time>2019-01-13T23:43:22Z</time>
      </trkpt>
      <trkpt lat="41.890831" lon="2.882796">
        <ele>166.0</ele>
        <time>2019-01-13T23:43:24Z</time>
      </trkpt>
      <trkpt lat="41.890755" lon="2.882687">
        <ele>166.0</ele>
        <time>2019-01-13T23:43:26Z</time>
      </trkpt>
      <trkpt lat="41.890620" lon="2.882497">
        <ele>165.0</ele>
        <time>2019-01-13T23:43:29Z</time>
      </trkpt>
      <trkpt lat="41.890380" lon="2.882095">
        <ele>163.0</ele>
        <time>2019-01-13T23:43:35Z</time>
      </trkpt>
      <trkpt lat="41.890340" lon="2.881973">
        <ele>163.0</ele>
        <time>2019-01-13T23:43:37Z</time>
      </trkpt>
      <trkpt lat="41.890309" lon="2.881854">
        <ele>162.0</ele>
        <time>2019-01-13T23:43:38Z</time>
      </trkpt>
      <trkpt lat="41.890276" lon="2.881737">
        <ele>161.0</ele>
        <time>2019-01-13T23:43:40Z</time>
      </trkpt>
      <trkpt lat="41.890239" lon="2.881624">
        <ele>161.0</ele>
        <time>2019-01-13T23:43:41Z</time>
      </trkpt>
      <trkpt lat="41.890205" lon="2.881507">
        <ele>160.0</ele>
        <time>2019-01-13T23:43:43Z</time>
      </trkpt>
      <trkpt lat="41.890170" lon="2.881389">
        <ele>160.0</ele>
        <time>2019-01-13T23:43:44Z</time>
      </trkpt>
      <trkpt lat="41.890138" lon="2.881270">
        <ele>160.0</ele>
        <time>2019-01-13T23:43:46Z</time>
      </trkpt>
      <trkpt lat="41.890101" lon="2.881150">
        <ele>160.0</ele>
        <time>2019-01-13T23:43:47Z</time>
      </trkpt>
      <trkpt lat="41.890064" lon="2.881019">
        <ele>160.0</ele>
        <time>2019-01-13T23:43:49Z</time>
      </trkpt>
      <trkpt lat="41.890030" lon="2.880891">
        <ele>160.0</ele>
        <time>2019-01-13T23:43:51Z</time>
      </trkpt>
      <trkpt lat="41.889958" lon="2.880636">
        <ele>160.0</ele>
        <time>2019-01-13T23:43:54Z</time>
      </trkpt>
      <trkpt lat="41.889925" lon="2.880512">
        <ele>159.0</ele>
        <time>2019-01-13T23:43:55Z</time>
      </trkpt>
      <trkpt lat="41.889888" lon="2.880389">
        <ele>159.0</ele>
        <time>2019-01-13T23:43:57Z</time>
      </trkpt>
      <trkpt lat="41.889845" lon="2.880259">
        <ele>158.0</ele>
        <time>2019-01-13T23:43:59Z</time>
      </trkpt>
      <trkpt lat="41.889811" lon="2.880127">
        <ele>158.0</ele>
        <time>2019-01-13T23:44:00Z</time>
      </trkpt>
      <trkpt lat="41.889777" lon="2.880003">
        <ele>158.0</ele>
        <time>2019-01-13T23:44:02Z</time>
      </trkpt>
      <trkpt lat="41.889744" lon="2.879884">
        <ele>157.0</ele>
        <time>2019-01-13T23:44:04Z</time>
      </trkpt>
      <trkpt lat="41.889707" lon="2.879771">
        <ele>157.0</ele>
        <time>2019-01-13T23:44:05Z</time>
      </trkpt>
      <trkpt lat="41.889669" lon="2.879658">
        <ele>157.0</ele>
        <time>2019-01-13T23:44:06Z</time>
      </trkpt>
      <trkpt lat="41.889567" lon="2.879322">
        <ele>156.0</ele>
        <time>2019-01-13T23:44:11Z</time>
      </trkpt>
      <trkpt lat="41.889507" lon="2.879048">
        <ele>156.0</ele>
        <time>2019-01-13T23:44:14Z</time>
      </trkpt>
      <trkpt lat="41.889482" lon="2.878962">
        <ele>156.0</ele>
        <time>2019-01-13T23:44:15Z</time>
      </trkpt>
      <trkpt lat="41.889336" lon="2.878855">
        <ele>156.0</ele>
        <time>2019-01-13T23:44:18Z</time>
      </trkpt>
      <trkpt lat="41.889261" lon="2.878982">
        <ele>156.0</ele>
        <time>2019-01-13T23:44:20Z</time>
      </trkpt>
      <trkpt lat="41.889134" lon="2.879159">
        <ele>157.0</ele>
        <time>2019-01-13T23:44:23Z</time>
      </trkpt>
      <trkpt lat="41.889101" lon="2.879199">
        <ele>157.0</ele>
        <time>2019-01-13T23:44:24Z</time>
      </trkpt>
      <trkpt lat="41.888946" lon="2.879338">
        <ele>158.0</ele>
        <time>2019-01-13T23:44:26Z</time>
      </trkpt>
      <trkpt lat="41.888801" lon="2.879440">
        <ele>158.0</ele>
        <time>2019-01-13T23:44:29Z</time>
      </trkpt>
      <trkpt lat="41.888758" lon="2.879459">
        <ele>158.0</ele>
        <time>2019-01-13T23:44:30Z</time>
      </trkpt>
      <trkpt lat="41.888715" lon="2.879480">
        <ele>158.0</ele>
        <time>2019-01-13T23:44:31Z</time>
      </trkpt>
      <trkpt lat="41.888662" lon="2.879506">
        <ele>158.0</ele>
        <time>2019-01-13T23:44:31Z</time>
      </trkpt>
      <trkpt lat="41.888608" lon="2.879522">
        <ele>158.0</ele>
        <time>2019-01-13T23:44:32Z</time>
      </trkpt>
      <trkpt lat="41.888495" lon="2.879549">
        <ele>158.0</ele>
        <time>2019-01-13T23:44:34Z</time>
      </trkpt>
      <trkpt lat="41.888064" lon="2.879639">
        <ele>156.0</ele>
        <time>2019-01-13T23:44:41Z</time>
      </trkpt>
      <trkpt lat="41.887995" lon="2.879647">
        <ele>156.0</ele>
        <time>2019-01-13T23:44:42Z</time>
      </trkpt>
      <trkpt lat="41.887929" lon="2.879659">
        <ele>155.0</ele>
        <time>2019-01-13T23:44:43Z</time>
      </trkpt>
      <trkpt lat="41.887868" lon="2.879677">
        <ele>155.0</ele>
        <time>2019-01-13T23:44:44Z</time>
      </trkpt>
      <trkpt lat="41.887804" lon="2.879693">
        <ele>155.0</ele>
        <time>2019-01-13T23:44:45Z</time>
      </trkpt>
      <trkpt lat="41.887738" lon="2.879708">
        <ele>154.0</ele>
        <time>2019-01-13T23:44:46Z</time>
      </trkpt>
      <trkpt lat="41.887670" lon="2.879724">
        <ele>154.0</ele>
        <time>2019-01-13T23:44:48Z</time>
      </trkpt>
      <trkpt lat="41.887602" lon="2.879741">
        <ele>153.0</ele>
        <time>2019-01-13T23:44:49Z</time>
      </trkpt>
      <trkpt lat="41.887526" lon="2.879752">
        <ele>153.0</ele>
        <time>2019-01-13T23:44:50Z</time>
      </trkpt>
      <trkpt lat="41.887456" lon="2.879764">
        <ele>152.0</ele>
        <time>2019-01-13T23:44:51Z</time>
      </trkpt>
      <trkpt lat="41.887167" lon="2.879819">
        <ele>150.0</ele>
        <time>2019-01-13T23:44:56Z</time>
      </trkpt>
      <trkpt lat="41.887014" lon="2.879846">
        <ele>150.0</ele>
        <time>2019-01-13T23:44:58Z</time>
      </trkpt>
      <trkpt lat="41.886936" lon="2.879868">
        <ele>150.0</ele>
        <time>2019-01-13T23:44:59Z</time>
      </trkpt>
      <trkpt lat="41.886858" lon="2.879886">
        <ele>149.0</ele>
        <time>2019-01-13T23:45:01Z</time>
      </trkpt>
      <trkpt lat="41.886777" lon="2.879905">
        <ele>149.0</ele>
        <time>2019-01-13T23:45:02Z</time>
      </trkpt>
      <trkpt lat="41.886693" lon="2.879918">
        <ele>149.0</ele>
        <time>2019-01-13T23:45:03Z</time>
      </trkpt>
      <trkpt lat="41.886439" lon="2.879962">
        <ele>148.0</ele>
        <time>2019-01-13T23:45:07Z</time>
      </trkpt>
      <trkpt lat="41.886354" lon="2.879975">
        <ele>148.0</ele>
        <time>2019-01-13T23:45:09Z</time>
      </trkpt>
      <trkpt lat="41.886277" lon="2.879996">
        <ele>147.0</ele>
        <time>2019-01-13T23:45:10Z</time>
      </trkpt>
      <trkpt lat="41.886195" lon="2.880015">
        <ele>147.0</ele>
        <time>2019-01-13T23:45:11Z</time>
      </trkpt>
      <trkpt lat="41.886095" lon="2.880042">
        <ele>147.0</ele>
        <time>2019-01-13T23:45:13Z</time>
      </trkpt>
      <trkpt lat="41.886033" lon="2.880054">
        <ele>147.0</ele>
        <time>2019-01-13T23:45:14Z</time>
      </trkpt>
      <trkpt lat="41.885963" lon="2.880073">
        <ele>146.0</ele>
        <time>2019-01-13T23:45:15Z</time>
      </trkpt>
      <trkpt lat="41.885889" lon="2.880084">
        <ele>146.0</ele>
        <time>2019-01-13T23:45:16Z</time>
      </trkpt>
      <trkpt lat="41.885804" lon="2.880106">
        <ele>145.0</ele>
        <time>2019-01-13T23:45:18Z</time>
      </trkpt>
      <trkpt lat="41.885387" lon="2.880199">
        <ele>143.0</ele>
        <time>2019-01-13T23:45:25Z</time>
      </trkpt>
      <trkpt lat="41.885299" lon="2.880218">
        <ele>143.0</ele>
        <time>2019-01-13T23:45:26Z</time>
      </trkpt>
      <trkpt lat="41.885210" lon="2.880236">
        <ele>143.0</ele>
        <time>2019-01-13T23:45:27Z</time>
      </trkpt>
      <trkpt lat="41.885117" lon="2.880253">
        <ele>142.0</ele>
        <time>2019-01-13T23:45:29Z</time>
      </trkpt>
      <trkpt lat="41.885028" lon="2.880273">
        <ele>142.0</ele>
        <time>2019-01-13T23:45:30Z</time>
      </trkpt>
      <trkpt lat="41.884938" lon="2.880293">
        <ele>142.0</ele>
        <time>2019-01-13T23:45:32Z</time>
      </trkpt>
      <trkpt lat="41.884847" lon="2.880316">
        <ele>141.0</ele>
        <time>2019-01-13T23:45:33Z</time>
      </trkpt>
      <trkpt lat="41.884759" lon="2.880333">
        <ele>141.0</ele>
        <time>2019-01-13T23:45:35Z</time>
      </trkpt>
      <trkpt lat="41.884512" lon="2.880389">
        <ele>140.0</ele>
        <time>2019-01-13T23:45:39Z</time>
      </trkpt>
      <trkpt lat="41.884157" lon="2.880456">
        <ele>140.0</ele>
        <time>2019-01-13T23:45:45Z</time>
      </trkpt>
      <trkpt lat="41.883874" lon="2.880514">
        <ele>140.0</ele>
        <time>2019-01-13T23:45:49Z</time>
      </trkpt>
      <trkpt lat="41.883756" lon="2.880493">
        <ele>140.0</ele>
        <time>2019-01-13T23:45:51Z</time>
      </trkpt>
      <trkpt lat="41.883645" lon="2.880435">
        <ele>140.0</ele>
        <time>2019-01-13T23:45:53Z</time>
      </trkpt>
      <trkpt lat="41.883524" lon="2.880416">
        <ele>141.0</ele>
        <time>2019-01-13T23:45:55Z</time>
      </trkpt>
      <trkpt lat="41.883463" lon="2.880446">
        <ele>141.0</ele>
        <time>2019-01-13T23:45:56Z</time>
      </trkpt>
      <trkpt lat="41.883404" lon="2.880485">
        <ele>142.0</ele>
        <time>2019-01-13T23:45:57Z</time>
      </trkpt>
      <trkpt lat="41.883351" lon="2.880526">
        <ele>142.0</ele>
        <time>2019-01-13T23:45:58Z</time>
      </trkpt>
      <trkpt lat="41.883300" lon="2.880569">
        <ele>143.0</ele>
        <time>2019-01-13T23:45:59Z</time>
      </trkpt>
      <trkpt lat="41.883251" lon="2.880605">
        <ele>143.0</ele>
        <time>2019-01-13T23:46:00Z</time>
      </trkpt>
      <trkpt lat="41.883200" lon="2.880628">
        <ele>144.0</ele>
        <time>2019-01-13T23:46:01Z</time>
      </trkpt>
      <trkpt lat="41.883149" lon="2.880639">
        <ele>144.0</ele>
        <time>2019-01-13T23:46:01Z</time>
      </trkpt>
      <trkpt lat="41.883094" lon="2.880649">
        <ele>144.0</ele>
        <time>2019-01-13T23:46:02Z</time>
      </trkpt>
      <trkpt lat="41.883042" lon="2.880663">
        <ele>145.0</ele>
        <time>2019-01-13T23:46:03Z</time>
      </trkpt>
      <trkpt lat="41.882937" lon="2.880683">
        <ele>145.0</ele>
        <time>2019-01-13T23:46:05Z</time>
      </trkpt>
      <trkpt lat="41.882827" lon="2.880705">
        <ele>146.0</ele>
        <time>2019-01-13T23:46:07Z</time>
      </trkpt>
      <trkpt lat="41.882775" lon="2.880715">
        <ele>146.0</ele>
        <time>2019-01-13T23:46:08Z</time>
      </trkpt>
      <trkpt lat="41.882720" lon="2.880731">
        <ele>146.0</ele>
        <time>2019-01-13T23:46:08Z</time>
      </trkpt>
      <trkpt lat="41.882669" lon="2.880742">
        <ele>147.0</ele>
        <time>2019-01-13T23:46:09Z</time>
      </trkpt>
      <trkpt lat="41.882620" lon="2.880749">
        <ele>147.0</ele>
        <time>2019-01-13T23:46:10Z</time>
      </trkpt>
      <trkpt lat="41.882468" lon="2.880781">
        <ele>147.0</ele>
        <time>2019-01-13T23:46:12Z</time>
      </trkpt>
      <trkpt lat="41.882416" lon="2.880791">
        <ele>147.0</ele>
        <time>2019-01-13T23:46:13Z</time>
      </trkpt>
      <trkpt lat="41.882363" lon="2.880808">
        <ele>148.0</ele>
        <time>2019-01-13T23:46:14Z</time>
      </trkpt>
      <trkpt lat="41.882307" lon="2.880817">
        <ele>148.0</ele>
        <time>2019-01-13T23:46:15Z</time>
      </trkpt>
      <trkpt lat="41.882253" lon="2.880832">
        <ele>148.0</ele>
        <time>2019-01-13T23:46:16Z</time>
      </trkpt>
      <trkpt lat="41.881980" lon="2.880889">
        <ele>148.0</ele>
        <time>2019-01-13T23:46:20Z</time>
      </trkpt>
      <trkpt lat="41.881921" lon="2.880904">
        <ele>148.0</ele>
        <time>2019-01-13T23:46:21Z</time>
      </trkpt>
      <trkpt lat="41.881861" lon="2.880914">
        <ele>148.0</ele>
        <time>2019-01-13T23:46:22Z</time>
      </trkpt>
      <trkpt lat="41.881801" lon="2.880924">
        <ele>148.0</ele>
        <time>2019-01-13T23:46:23Z</time>
      </trkpt>
      <trkpt lat="41.881740" lon="2.880932">
        <ele>147.0</ele>
        <time>2019-01-13T23:46:24Z</time>
      </trkpt>
      <trkpt lat="41.881680" lon="2.880944">
        <ele>147.0</ele>
        <time>2019-01-13T23:46:25Z</time>
      </trkpt>
      <trkpt lat="41.881502" lon="2.880982">
        <ele>147.0</ele>
        <time>2019-01-13T23:46:28Z</time>
      </trkpt>
      <trkpt lat="41.880999" lon="2.881074">
        <ele>146.0</ele>
        <time>2019-01-13T23:46:36Z</time>
      </trkpt>
      <trkpt lat="41.880787" lon="2.881121">
        <ele>146.0</ele>
        <time>2019-01-13T23:46:40Z</time>
      </trkpt>
      <trkpt lat="41.880641" lon="2.881158">
        <ele>146.0</ele>
        <time>2019-01-13T23:46:42Z</time>
      </trkpt>
      <trkpt lat="41.880568" lon="2.881174">
        <ele>146.0</ele>
        <time>2019-01-13T23:46:43Z</time>
      </trkpt>
      <trkpt lat="41.880487" lon="2.881188">
        <ele>145.0</ele>
        <time>2019-01-13T23:46:45Z</time>
      </trkpt>
      <trkpt lat="41.880410" lon="2.881203">
        <ele>145.0</ele>
        <time>2019-01-13T23:46:46Z</time>
      </trkpt>
      <trkpt lat="41.880330" lon="2.881220">
        <ele>145.0</ele>
        <time>2019-01-13T23:46:47Z</time>
      </trkpt>
      <trkpt lat="41.879875" lon="2.881315">
        <ele>145.0</ele>
        <time>2019-01-13T23:46:55Z</time>
      </trkpt>
      <trkpt lat="41.879312" lon="2.881439">
        <ele>146.0</ele>
        <time>2019-01-13T23:47:04Z</time>
      </trkpt>
      <trkpt lat="41.878947" lon="2.881517">
        <ele>147.0</ele>
        <time>2019-01-13T23:47:10Z</time>
      </trkpt>
      <trkpt lat="41.878889" lon="2.881530">
        <ele>147.0</ele>
        <time>2019-01-13T23:47:10Z</time>
      </trkpt>
      <trkpt lat="41.878829" lon="2.881541">
        <ele>147.0</ele>
        <time>2019-01-13T23:47:11Z</time>
      </trkpt>
      <trkpt lat="41.878766" lon="2.881554">
        <ele>147.0</ele>
        <time>2019-01-13T23:47:12Z</time>
      </trkpt>
      <trkpt lat="41.878707" lon="2.881565">
        <ele>147.0</ele>
        <time>2019-01-13T23:47:13Z</time>
      </trkpt>
      <trkpt lat="41.878285" lon="2.881661">
        <ele>148.0</ele>
        <time>2019-01-13T23:47:20Z</time>
      </trkpt>
      <trkpt lat="41.878222" lon="2.881674">
        <ele>147.0</ele>
        <time>2019-01-13T23:47:21Z</time>
      </trkpt>
      <trkpt lat="41.877753" lon="2.881775">
        <ele>147.0</ele>
        <time>2019-01-13T23:47:29Z</time>
      </trkpt>
      <trkpt lat="41.877273" lon="2.881865">
        <ele>146.0</ele>
        <time>2019-01-13T23:47:37Z</time>
      </trkpt>
      <trkpt lat="41.876685" lon="2.881991">
        <ele>144.0</ele>
        <time>2019-01-13T23:47:46Z</time>
      </trkpt>
      <trkpt lat="41.876591" lon="2.882013">
        <ele>144.0</ele>
        <time>2019-01-13T23:47:48Z</time>
      </trkpt>
      <trkpt lat="41.876502" lon="2.882034">
        <ele>144.0</ele>
        <time>2019-01-13T23:47:49Z</time>
      </trkpt>
      <trkpt lat="41.876415" lon="2.882052">
        <ele>144.0</ele>
        <time>2019-01-13T23:47:51Z</time>
      </trkpt>
      <trkpt lat="41.876329" lon="2.882068">
        <ele>143.0</ele>
        <time>2019-01-13T23:47:52Z</time>
      </trkpt>
      <trkpt lat="41.876075" lon="2.882124">
        <ele>143.0</ele>
        <time>2019-01-13T23:47:56Z</time>
      </trkpt>
      <trkpt lat="41.875898" lon="2.882159">
        <ele>142.0</ele>
        <time>2019-01-13T23:47:59Z</time>
      </trkpt>
      <trkpt lat="41.875725" lon="2.882199">
        <ele>142.0</ele>
        <time>2019-01-13T23:48:02Z</time>
      </trkpt>
      <trkpt lat="41.875638" lon="2.882217">
        <ele>142.0</ele>
        <time>2019-01-13T23:48:03Z</time>
      </trkpt>
      <trkpt lat="41.875553" lon="2.882234">
        <ele>142.0</ele>
        <time>2019-01-13T23:48:05Z</time>
      </trkpt>
      <trkpt lat="41.875472" lon="2.882251">
        <ele>141.0</ele>
        <time>2019-01-13T23:48:06Z</time>
      </trkpt>
      <trkpt lat="41.875389" lon="2.882265">
        <ele>141.0</ele>
        <time>2019-01-13T23:48:07Z</time>
      </trkpt>
      <trkpt lat="41.875300" lon="2.882285">
        <ele>141.0</ele>
        <time>2019-01-13T23:48:09Z</time>
      </trkpt>
      <trkpt lat="41.875054" lon="2.882337">
        <ele>140.0</ele>
        <time>2019-01-13T23:48:13Z</time>
      </trkpt>
      <trkpt lat="41.874973" lon="2.882355">
        <ele>140.0</ele>
        <time>2019-01-13T23:48:14Z</time>
      </trkpt>
      <trkpt lat="41.874648" lon="2.882426">
        <ele>139.0</ele>
        <time>2019-01-13T23:48:19Z</time>
      </trkpt>
      <trkpt lat="41.874569" lon="2.882442">
        <ele>139.0</ele>
        <time>2019-01-13T23:48:21Z</time>
      </trkpt>
      <trkpt lat="41.874490" lon="2.882456">
        <ele>138.0</ele>
        <time>2019-01-13T23:48:22Z</time>
      </trkpt>
      <trkpt lat="41.874409" lon="2.882470">
        <ele>138.0</ele>
        <time>2019-01-13T23:48:23Z</time>
      </trkpt>
      <trkpt lat="41.874325" lon="2.882486">
        <ele>138.0</ele>
        <time>2019-01-13T23:48:24Z</time>
      </trkpt>
      <trkpt lat="41.874065" lon="2.882541">
        <ele>136.0</ele>
        <time>2019-01-13T23:48:29Z</time>
      </trkpt>
      <trkpt lat="41.873967" lon="2.882563">
        <ele>136.0</ele>
        <time>2019-01-13T23:48:30Z</time>
      </trkpt>
      <trkpt lat="41.873874" lon="2.882584">
        <ele>135.0</ele>
        <time>2019-01-13T23:48:32Z</time>
      </trkpt>
      <trkpt lat="41.873779" lon="2.882605">
        <ele>135.0</ele>
        <time>2019-01-13T23:48:33Z</time>
      </trkpt>
      <trkpt lat="41.873683" lon="2.882630">
        <ele>134.0</ele>
        <time>2019-01-13T23:48:35Z</time>
      </trkpt>
      <trkpt lat="41.873583" lon="2.882650">
        <ele>134.0</ele>
        <time>2019-01-13T23:48:36Z</time>
      </trkpt>
      <trkpt lat="41.873481" lon="2.882672">
        <ele>133.0</ele>
        <time>2019-01-13T23:48:38Z</time>
      </trkpt>
      <trkpt lat="41.873377" lon="2.882694">
        <ele>133.0</ele>
        <time>2019-01-13T23:48:40Z</time>
      </trkpt>
      <trkpt lat="41.873265" lon="2.882721">
        <ele>132.0</ele>
        <time>2019-01-13T23:48:42Z</time>
      </trkpt>
      <trkpt lat="41.873161" lon="2.882747">
        <ele>132.0</ele>
        <time>2019-01-13T23:48:43Z</time>
      </trkpt>
      <trkpt lat="41.873058" lon="2.882770">
        <ele>131.0</ele>
        <time>2019-01-13T23:48:45Z</time>
      </trkpt>
      <trkpt lat="41.872956" lon="2.882798">
        <ele>131.0</ele>
        <time>2019-01-13T23:48:47Z</time>
      </trkpt>
      <trkpt lat="41.872856" lon="2.882820">
        <ele>131.0</ele>
        <time>2019-01-13T23:48:48Z</time>
      </trkpt>
      <trkpt lat="41.872768" lon="2.882850">
        <ele>131.0</ele>
        <time>2019-01-13T23:48:50Z</time>
      </trkpt>
      <trkpt lat="41.872688" lon="2.882860">
        <ele>131.0</ele>
        <time>2019-01-13T23:48:51Z</time>
      </trkpt>
      <trkpt lat="41.872620" lon="2.882837">
        <ele>130.0</ele>
        <time>2019-01-13T23:48:52Z</time>
      </trkpt>
      <trkpt lat="41.872569" lon="2.882805">
        <ele>130.0</ele>
        <time>2019-01-13T23:48:53Z</time>
      </trkpt>
      <trkpt lat="41.872517" lon="2.882732">
        <ele>130.0</ele>
        <time>2019-01-13T23:48:54Z</time>
      </trkpt>
      <trkpt lat="41.872489" lon="2.882677">
        <ele>130.0</ele>
        <time>2019-01-13T23:48:55Z</time>
      </trkpt>
      <trkpt lat="41.872462" lon="2.882546">
        <ele>130.0</ele>
        <time>2019-01-13T23:48:57Z</time>
      </trkpt>
      <trkpt lat="41.872421" lon="2.882367">
        <ele>130.0</ele>
        <time>2019-01-13T23:48:59Z</time>
      </trkpt>
      <trkpt lat="41.872383" lon="2.882315">
        <ele>130.0</ele>
        <time>2019-01-13T23:49:00Z</time>
      </trkpt>
      <trkpt lat="41.872265" lon="2.882231">
        <ele>130.0</ele>
        <time>2019-01-13T23:49:02Z</time>
      </trkpt>
      <trkpt lat="41.872199" lon="2.882233">
        <ele>130.0</ele>
        <time>2019-01-13T23:49:03Z</time>
      </trkpt>
      <trkpt lat="41.872096" lon="2.882329">
        <ele>129.0</ele>
        <time>2019-01-13T23:49:05Z</time>
      </trkpt>
      <trkpt lat="41.872020" lon="2.882563">
        <ele>128.0</ele>
        <time>2019-01-13T23:49:08Z</time>
      </trkpt>
      <trkpt lat="41.871880" lon="2.882752">
        <ele>128.0</ele>
        <time>2019-01-13T23:49:11Z</time>
      </trkpt>
      <trkpt lat="41.871816" lon="2.882789">
        <ele>127.0</ele>
        <time>2019-01-13T23:49:12Z</time>
      </trkpt>
      <trkpt lat="41.871687" lon="2.882857">
        <ele>127.0</ele>
        <time>2019-01-13T23:49:15Z</time>
      </trkpt>
      <trkpt lat="41.871430" lon="2.882987">
        <ele>126.0</ele>
        <time>2019-01-13T23:49:19Z</time>
      </trkpt>
      <trkpt lat="41.871032" lon="2.883149">
        <ele>125.0</ele>
        <time>2019-01-13T23:49:26Z</time>
      </trkpt>
      <trkpt lat="41.870622" lon="2.883267">
        <ele>124.0</ele>
        <time>2019-01-13T23:49:32Z</time>
      </trkpt>
      <trkpt lat="41.870545" lon="2.883294">
        <ele>124.0</ele>
        <time>2019-01-13T23:49:34Z</time>
      </trkpt>
      <trkpt lat="41.870387" lon="2.883332">
        <ele>124.0</ele>
        <time>2019-01-13T23:49:36Z</time>
      </trkpt>
      <trkpt lat="41.870310" lon="2.883348">
        <ele>124.0</ele>
        <time>2019-01-13T23:49:37Z</time>
      </trkpt>
      <trkpt lat="41.870233" lon="2.883367">
        <ele>124.0</ele>
        <time>2019-01-13T23:49:39Z</time>
      </trkpt>
      <trkpt lat="41.870075" lon="2.883403">
        <ele>124.0</ele>
        <time>2019-01-13T23:49:41Z</time>
      </trkpt>
      <trkpt lat="41.869995" lon="2.883422">
        <ele>124.0</ele>
        <time>2019-01-13T23:49:43Z</time>
      </trkpt>
      <trkpt lat="41.869827" lon="2.883453">
        <ele>125.0</ele>
        <time>2019-01-13T23:49:45Z</time>
      </trkpt>
      <trkpt lat="41.869655" lon="2.883491">
        <ele>125.0</ele>
        <time>2019-01-13T23:49:48Z</time>
      </trkpt>
      <trkpt lat="41.869479" lon="2.883530">
        <ele>125.0</ele>
        <time>2019-01-13T23:49:51Z</time>
      </trkpt>
      <trkpt lat="41.868919" lon="2.883649">
        <ele>124.0</ele>
        <time>2019-01-13T23:50:00Z</time>
      </trkpt>
      <trkpt lat="41.868820" lon="2.883669">
        <ele>124.0</ele>
        <time>2019-01-13T23:50:02Z</time>
      </trkpt>
      <trkpt lat="41.868616" lon="2.883711">
        <ele>124.0</ele>
        <time>2019-01-13T23:50:05Z</time>
      </trkpt>
      <trkpt lat="41.868510" lon="2.883733">
        <ele>124.0</ele>
        <time>2019-01-13T23:50:07Z</time>
      </trkpt>
      <trkpt lat="41.868399" lon="2.883756">
        <ele>124.0</ele>
        <time>2019-01-13T23:50:08Z</time>
      </trkpt>
      <trkpt lat="41.868294" lon="2.883786">
        <ele>124.0</ele>
        <time>2019-01-13T23:50:10Z</time>
      </trkpt>
      <trkpt lat="41.868189" lon="2.883806">
        <ele>124.0</ele>
        <time>2019-01-13T23:50:12Z</time>
      </trkpt>
      <trkpt lat="41.868086" lon="2.883830">
        <ele>124.0</ele>
        <time>2019-01-13T23:50:13Z</time>
      </trkpt>
      <trkpt lat="41.867980" lon="2.883847">
        <ele>124.0</ele>
        <time>2019-01-13T23:50:15Z</time>
      </trkpt>
      <trkpt lat="41.867876" lon="2.883873">
        <ele>125.0</ele>
        <time>2019-01-13T23:50:17Z</time>
      </trkpt>
      <trkpt lat="41.867771" lon="2.883894">
        <ele>125.0</ele>
        <time>2019-01-13T23:50:19Z</time>
      </trkpt>
      <trkpt lat="41.867669" lon="2.883912">
        <ele>126.0</ele>
        <time>2019-01-13T23:50:20Z</time>
      </trkpt>
      <trkpt lat="41.867468" lon="2.883946">
        <ele>126.0</ele>
        <time>2019-01-13T23:50:23Z</time>
      </trkpt>
      <trkpt lat="41.866915" lon="2.884071">
        <ele>127.0</ele>
        <time>2019-01-13T23:50:32Z</time>
      </trkpt>
      <trkpt lat="41.866825" lon="2.884090">
        <ele>128.0</ele>
        <time>2019-01-13T23:50:34Z</time>
      </trkpt>
      <trkpt lat="41.866737" lon="2.884107">
        <ele>128.0</ele>
        <time>2019-01-13T23:50:35Z</time>
      </trkpt>
      <trkpt lat="41.866650" lon="2.884122">
        <ele>128.0</ele>
        <time>2019-01-13T23:50:37Z</time>
      </trkpt>
      <trkpt lat="41.866563" lon="2.884141">
        <ele>128.0</ele>
        <time>2019-01-13T23:50:38Z</time>
      </trkpt>
      <trkpt lat="41.866477" lon="2.884158">
        <ele>128.0</ele>
        <time>2019-01-13T23:50:40Z</time>
      </trkpt>
      <trkpt lat="41.866391" lon="2.884180">
        <ele>128.0</ele>
        <time>2019-01-13T23:50:41Z</time>
      </trkpt>
      <trkpt lat="41.866302" lon="2.884196">
        <ele>128.0</ele>
        <time>2019-01-13T23:50:42Z</time>
      </trkpt>
      <trkpt lat="41.866220" lon="2.884218">
        <ele>128.0</ele>
        <time>2019-01-13T23:50:44Z</time>
      </trkpt>
      <trkpt lat="41.865972" lon="2.884265">
        <ele>129.0</ele>
        <time>2019-01-13T23:50:48Z</time>
      </trkpt>
      <trkpt lat="41.865717" lon="2.884316">
        <ele>129.0</ele>
        <time>2019-01-13T23:50:52Z</time>
      </trkpt>
      <trkpt lat="41.865628" lon="2.884336">
        <ele>129.0</ele>
        <time>2019-01-13T23:50:53Z</time>
      </trkpt>
      <trkpt lat="41.865542" lon="2.884352">
        <ele>129.0</ele>
        <time>2019-01-13T23:50:55Z</time>
      </trkpt>
      <trkpt lat="41.865455" lon="2.884371">
        <ele>129.0</ele>
        <time>2019-01-13T23:50:56Z</time>
      </trkpt>
      <trkpt lat="41.865367" lon="2.884388">
        <ele>129.0</ele>
        <time>2019-01-13T23:50:58Z</time>
      </trkpt>
      <trkpt lat="41.865282" lon="2.884409">
        <ele>129.0</ele>
        <time>2019-01-13T23:50:59Z</time>
      </trkpt>
      <trkpt lat="41.865192" lon="2.884430">
        <ele>129.0</ele>
        <time>2019-01-13T23:51:00Z</time>
      </trkpt>
      <trkpt lat="41.864923" lon="2.884483">
        <ele>130.0</ele>
        <time>2019-01-13T23:51:05Z</time>
      </trkpt>
      <trkpt lat="41.864316" lon="2.884605">
        <ele>130.0</ele>
        <time>2019-01-13T23:51:15Z</time>
      </trkpt>
      <trkpt lat="41.864232" lon="2.884624">
        <ele>130.0</ele>
        <time>2019-01-13T23:51:16Z</time>
      </trkpt>
      <trkpt lat="41.863619" lon="2.884754">
        <ele>130.0</ele>
        <time>2019-01-13T23:51:26Z</time>
      </trkpt>
      <trkpt lat="41.863535" lon="2.884775">
        <ele>130.0</ele>
        <time>2019-01-13T23:51:27Z</time>
      </trkpt>
      <trkpt lat="41.863448" lon="2.884794">
        <ele>130.0</ele>
        <time>2019-01-13T23:51:29Z</time>
      </trkpt>
      <trkpt lat="41.863363" lon="2.884816">
        <ele>130.0</ele>
        <time>2019-01-13T23:51:30Z</time>
      </trkpt>
      <trkpt lat="41.863273" lon="2.884836">
        <ele>129.0</ele>
        <time>2019-01-13T23:51:31Z</time>
      </trkpt>
      <trkpt lat="41.863002" lon="2.884893">
        <ele>129.0</ele>
        <time>2019-01-13T23:51:36Z</time>
      </trkpt>
      <trkpt lat="41.862719" lon="2.884952">
        <ele>128.0</ele>
        <time>2019-01-13T23:51:40Z</time>
      </trkpt>
      <trkpt lat="41.862531" lon="2.884991">
        <ele>128.0</ele>
        <time>2019-01-13T23:51:43Z</time>
      </trkpt>
      <trkpt lat="41.862435" lon="2.885011">
        <ele>127.0</ele>
        <time>2019-01-13T23:51:45Z</time>
      </trkpt>
      <trkpt lat="41.862339" lon="2.885034">
        <ele>127.0</ele>
        <time>2019-01-13T23:51:47Z</time>
      </trkpt>
      <trkpt lat="41.862237" lon="2.885057">
        <ele>127.0</ele>
        <time>2019-01-13T23:51:48Z</time>
      </trkpt>
      <trkpt lat="41.862140" lon="2.885076">
        <ele>127.0</ele>
        <time>2019-01-13T23:51:50Z</time>
      </trkpt>
      <trkpt lat="41.861941" lon="2.885113">
        <ele>126.0</ele>
        <time>2019-01-13T23:51:53Z</time>
      </trkpt>
      <trkpt lat="41.861638" lon="2.885172">
        <ele>126.0</ele>
        <time>2019-01-13T23:51:58Z</time>
      </trkpt>
      <trkpt lat="41.861529" lon="2.885194">
        <ele>125.0</ele>
        <time>2019-01-13T23:52:00Z</time>
      </trkpt>
      <trkpt lat="41.861424" lon="2.885214">
        <ele>125.0</ele>
        <time>2019-01-13T23:52:01Z</time>
      </trkpt>
      <trkpt lat="41.861318" lon="2.885236">
        <ele>125.0</ele>
        <time>2019-01-13T23:52:03Z</time>
      </trkpt>
      <trkpt lat="41.860992" lon="2.885311">
        <ele>125.0</ele>
        <time>2019-01-13T23:52:08Z</time>
      </trkpt>
      <trkpt lat="41.860881" lon="2.885334">
        <ele>125.0</ele>
        <time>2019-01-13T23:52:10Z</time>
      </trkpt>
      <trkpt lat="41.860769" lon="2.885357">
        <ele>124.0</ele>
        <time>2019-01-13T23:52:12Z</time>
      </trkpt>
      <trkpt lat="41.860651" lon="2.885378">
        <ele>124.0</ele>
        <time>2019-01-13T23:52:14Z</time>
      </trkpt>
      <trkpt lat="41.860540" lon="2.885399">
        <ele>124.0</ele>
        <time>2019-01-13T23:52:16Z</time>
      </trkpt>
      <trkpt lat="41.860107" lon="2.885487">
        <ele>124.0</ele>
        <time>2019-01-13T23:52:23Z</time>
      </trkpt>
      <trkpt lat="41.859897" lon="2.885538">
        <ele>124.0</ele>
        <time>2019-01-13T23:52:26Z</time>
      </trkpt>
      <trkpt lat="41.859312" lon="2.885656">
        <ele>125.0</ele>
        <time>2019-01-13T23:52:36Z</time>
      </trkpt>
      <trkpt lat="41.859217" lon="2.885675">
        <ele>125.0</ele>
        <time>2019-01-13T23:52:37Z</time>
      </trkpt>
      <trkpt lat="41.858661" lon="2.885799">
        <ele>126.0</ele>
        <time>2019-01-13T23:52:46Z</time>
      </trkpt>
      <trkpt lat="41.858569" lon="2.885812">
        <ele>127.0</ele>
        <time>2019-01-13T23:52:48Z</time>
      </trkpt>
      <trkpt lat="41.858021" lon="2.885917">
        <ele>127.0</ele>
        <time>2019-01-13T23:52:57Z</time>
      </trkpt>
      <trkpt lat="41.857931" lon="2.885935">
        <ele>127.0</ele>
        <time>2019-01-13T23:52:58Z</time>
      </trkpt>
      <trkpt lat="41.857312" lon="2.886066">
        <ele>127.0</ele>
        <time>2019-01-13T23:53:08Z</time>
      </trkpt>
      <trkpt lat="41.857226" lon="2.886083">
        <ele>127.0</ele>
        <time>2019-01-13T23:53:09Z</time>
      </trkpt>
      <trkpt lat="41.856625" lon="2.886218">
        <ele>126.0</ele>
        <time>2019-01-13T23:53:19Z</time>
      </trkpt>
      <trkpt lat="41.856457" lon="2.886255">
        <ele>126.0</ele>
        <time>2019-01-13T23:53:22Z</time>
      </trkpt>
      <trkpt lat="41.855898" lon="2.886373">
        <ele>126.0</ele>
        <time>2019-01-13T23:53:31Z</time>
      </trkpt>
      <trkpt lat="41.855737" lon="2.886407">
        <ele>126.0</ele>
        <time>2019-01-13T23:53:34Z</time>
      </trkpt>
      <trkpt lat="41.855154" lon="2.886537">
        <ele>126.0</ele>
        <time>2019-01-13T23:53:43Z</time>
      </trkpt>
      <trkpt lat="41.855064" lon="2.886556">
        <ele>125.0</ele>
        <time>2019-01-13T23:53:44Z</time>
      </trkpt>
      <trkpt lat="41.854628" lon="2.886649">
        <ele>125.0</ele>
        <time>2019-01-13T23:53:52Z</time>
      </trkpt>
      <trkpt lat="41.854537" lon="2.886671">
        <ele>125.0</ele>
        <time>2019-01-13T23:53:53Z</time>
      </trkpt>
      <trkpt lat="41.854451" lon="2.886687">
        <ele>125.0</ele>
        <time>2019-01-13T23:53:54Z</time>
      </trkpt>
      <trkpt lat="41.854365" lon="2.886702">
        <ele>125.0</ele>
        <time>2019-01-13T23:53:56Z</time>
      </trkpt>
      <trkpt lat="41.853786" lon="2.886826">
        <ele>125.0</ele>
        <time>2019-01-13T23:54:05Z</time>
      </trkpt>
      <trkpt lat="41.853628" lon="2.886863">
        <ele>125.0</ele>
        <time>2019-01-13T23:54:08Z</time>
      </trkpt>
      <trkpt lat="41.853100" lon="2.886968">
        <ele>125.0</ele>
        <time>2019-01-13T23:54:16Z</time>
      </trkpt>
      <trkpt lat="41.853030" lon="2.886980">
        <ele>125.0</ele>
        <time>2019-01-13T23:54:17Z</time>
      </trkpt>
      <trkpt lat="41.852962" lon="2.886994">
        <ele>125.0</ele>
        <time>2019-01-13T23:54:19Z</time>
      </trkpt>
      <trkpt lat="41.852893" lon="2.887010">
        <ele>125.0</ele>
        <time>2019-01-13T23:54:20Z</time>
      </trkpt>
      <trkpt lat="41.852825" lon="2.887026">
        <ele>125.0</ele>
        <time>2019-01-13T23:54:21Z</time>
      </trkpt>
      <trkpt lat="41.852765" lon="2.887033">
        <ele>125.0</ele>
        <time>2019-01-13T23:54:22Z</time>
      </trkpt>
      <trkpt lat="41.852698" lon="2.887032">
        <ele>125.0</ele>
        <time>2019-01-13T23:54:23Z</time>
      </trkpt>
      <trkpt lat="41.852634" lon="2.887040">
        <ele>126.0</ele>
        <time>2019-01-13T23:54:24Z</time>
      </trkpt>
      <trkpt lat="41.852572" lon="2.887056">
        <ele>126.0</ele>
        <time>2019-01-13T23:54:25Z</time>
      </trkpt>
      <trkpt lat="41.852458" lon="2.887089">
        <ele>126.0</ele>
        <time>2019-01-13T23:54:27Z</time>
      </trkpt>
      <trkpt lat="41.852399" lon="2.887110">
        <ele>127.0</ele>
        <time>2019-01-13T23:54:28Z</time>
      </trkpt>
      <trkpt lat="41.852346" lon="2.887128">
        <ele>127.0</ele>
        <time>2019-01-13T23:54:29Z</time>
      </trkpt>
      <trkpt lat="41.852293" lon="2.887131">
        <ele>127.0</ele>
        <time>2019-01-13T23:54:29Z</time>
      </trkpt>
      <trkpt lat="41.852246" lon="2.887141">
        <ele>127.0</ele>
        <time>2019-01-13T23:54:30Z</time>
      </trkpt>
      <trkpt lat="41.852199" lon="2.887143">
        <ele>127.0</ele>
        <time>2019-01-13T23:54:31Z</time>
      </trkpt>
      <trkpt lat="41.852152" lon="2.887151">
        <ele>128.0</ele>
        <time>2019-01-13T23:54:32Z</time>
      </trkpt>
      <trkpt lat="41.852061" lon="2.887177">
        <ele>128.0</ele>
        <time>2019-01-13T23:54:33Z</time>
      </trkpt>
      <trkpt lat="41.852016" lon="2.887191">
        <ele>128.0</ele>
        <time>2019-01-13T23:54:34Z</time>
      </trkpt>
      <trkpt lat="41.851971" lon="2.887203">
        <ele>128.0</ele>
        <time>2019-01-13T23:54:35Z</time>
      </trkpt>
      <trkpt lat="41.851929" lon="2.887217">
        <ele>129.0</ele>
        <time>2019-01-13T23:54:35Z</time>
      </trkpt>
      <trkpt lat="41.851879" lon="2.887228">
        <ele>129.0</ele>
        <time>2019-01-13T23:54:36Z</time>
      </trkpt>
      <trkpt lat="41.851825" lon="2.887235">
        <ele>129.0</ele>
        <time>2019-01-13T23:54:37Z</time>
      </trkpt>
      <trkpt lat="41.851652" lon="2.887261">
        <ele>130.0</ele>
        <time>2019-01-13T23:54:40Z</time>
      </trkpt>
      <trkpt lat="41.851481" lon="2.887286">
        <ele>130.0</ele>
        <time>2019-01-13T23:54:43Z</time>
      </trkpt>
      <trkpt lat="41.851429" lon="2.887298">
        <ele>131.0</ele>
        <time>2019-01-13T23:54:43Z</time>
      </trkpt>
      <trkpt lat="41.851378" lon="2.887313">
        <ele>131.0</ele>
        <time>2019-01-13T23:54:44Z</time>
      </trkpt>
      <trkpt lat="41.851326" lon="2.887326">
        <ele>131.0</ele>
        <time>2019-01-13T23:54:45Z</time>
      </trkpt>
      <trkpt lat="41.851277" lon="2.887337">
        <ele>131.0</ele>
        <time>2019-01-13T23:54:46Z</time>
      </trkpt>
      <trkpt lat="41.851176" lon="2.887357">
        <ele>132.0</ele>
        <time>2019-01-13T23:54:48Z</time>
      </trkpt>
      <trkpt lat="41.850932" lon="2.887406">
        <ele>132.0</ele>
        <time>2019-01-13T23:54:51Z</time>
      </trkpt>
      <trkpt lat="41.850887" lon="2.887416">
        <ele>133.0</ele>
        <time>2019-01-13T23:54:52Z</time>
      </trkpt>
      <trkpt lat="41.850840" lon="2.887423">
        <ele>133.0</ele>
        <time>2019-01-13T23:54:53Z</time>
      </trkpt>
      <trkpt lat="41.850795" lon="2.887437">
        <ele>133.0</ele>
        <time>2019-01-13T23:54:54Z</time>
      </trkpt>
      <trkpt lat="41.850749" lon="2.887448">
        <ele>133.0</ele>
        <time>2019-01-13T23:54:54Z</time>
      </trkpt>
      <trkpt lat="41.850397" lon="2.887544">
        <ele>135.0</ele>
        <time>2019-01-13T23:55:00Z</time>
      </trkpt>
      <trkpt lat="41.850281" lon="2.887572">
        <ele>135.0</ele>
        <time>2019-01-13T23:55:02Z</time>
      </trkpt>
      <trkpt lat="41.850222" lon="2.887583">
        <ele>136.0</ele>
        <time>2019-01-13T23:55:03Z</time>
      </trkpt>
      <trkpt lat="41.850162" lon="2.887595">
        <ele>136.0</ele>
        <time>2019-01-13T23:55:04Z</time>
      </trkpt>
      <trkpt lat="41.850101" lon="2.887607">
        <ele>136.0</ele>
        <time>2019-01-13T23:55:05Z</time>
      </trkpt>
      <trkpt lat="41.850035" lon="2.887619">
        <ele>136.0</ele>
        <time>2019-01-13T23:55:06Z</time>
      </trkpt>
      <trkpt lat="41.849536" lon="2.887723">
        <ele>136.0</ele>
        <time>2019-01-13T23:55:14Z</time>
      </trkpt>
      <trkpt lat="41.849047" lon="2.887840">
        <ele>136.0</ele>
        <time>2019-01-13T23:55:22Z</time>
      </trkpt>
      <trkpt lat="41.848865" lon="2.887884">
        <ele>136.0</ele>
        <time>2019-01-13T23:55:25Z</time>
      </trkpt>
      <trkpt lat="41.848773" lon="2.887903">
        <ele>136.0</ele>
        <time>2019-01-13T23:55:27Z</time>
      </trkpt>
      <trkpt lat="41.848678" lon="2.887919">
        <ele>136.0</ele>
        <time>2019-01-13T23:55:28Z</time>
      </trkpt>
      <trkpt lat="41.848582" lon="2.887932">
        <ele>136.0</ele>
        <time>2019-01-13T23:55:30Z</time>
      </trkpt>
      <trkpt lat="41.848486" lon="2.887955">
        <ele>136.0</ele>
        <time>2019-01-13T23:55:31Z</time>
      </trkpt>
      <trkpt lat="41.847998" lon="2.888053">
        <ele>135.0</ele>
        <time>2019-01-13T23:55:39Z</time>
      </trkpt>
      <trkpt lat="41.847904" lon="2.888073">
        <ele>135.0</ele>
        <time>2019-01-13T23:55:41Z</time>
      </trkpt>
      <trkpt lat="41.847809" lon="2.888094">
        <ele>135.0</ele>
        <time>2019-01-13T23:55:42Z</time>
      </trkpt>
      <trkpt lat="41.847715" lon="2.888113">
        <ele>135.0</ele>
        <time>2019-01-13T23:55:44Z</time>
      </trkpt>
      <trkpt lat="41.847622" lon="2.888132">
        <ele>134.0</ele>
        <time>2019-01-13T23:55:45Z</time>
      </trkpt>
      <trkpt lat="41.847530" lon="2.888147">
        <ele>134.0</ele>
        <time>2019-01-13T23:55:47Z</time>
      </trkpt>
      <trkpt lat="41.846974" lon="2.888276">
        <ele>134.0</ele>
        <time>2019-01-13T23:55:56Z</time>
      </trkpt>
      <trkpt lat="41.846881" lon="2.888301">
        <ele>134.0</ele>
        <time>2019-01-13T23:55:57Z</time>
      </trkpt>
      <trkpt lat="41.846598" lon="2.888386">
        <ele>134.0</ele>
        <time>2019-01-13T23:56:02Z</time>
      </trkpt>
      <trkpt lat="41.846324" lon="2.888507">
        <ele>134.0</ele>
        <time>2019-01-13T23:56:06Z</time>
      </trkpt>
      <trkpt lat="41.846236" lon="2.888561">
        <ele>134.0</ele>
        <time>2019-01-13T23:56:08Z</time>
      </trkpt>
      <trkpt lat="41.846143" lon="2.888614">
        <ele>134.0</ele>
        <time>2019-01-13T23:56:10Z</time>
      </trkpt>
      <trkpt lat="41.846054" lon="2.888668">
        <ele>134.0</ele>
        <time>2019-01-13T23:56:11Z</time>
      </trkpt>
      <trkpt lat="41.845959" lon="2.888734">
        <ele>134.0</ele>
        <time>2019-01-13T23:56:13Z</time>
      </trkpt>
      <trkpt lat="41.845868" lon="2.888794">
        <ele>133.0</ele>
        <time>2019-01-13T23:56:15Z</time>
      </trkpt>
      <trkpt lat="41.845778" lon="2.888856">
        <ele>133.0</ele>
        <time>2019-01-13T23:56:16Z</time>
      </trkpt>
      <trkpt lat="41.845688" lon="2.888921">
        <ele>133.0</ele>
        <time>2019-01-13T23:56:18Z</time>
      </trkpt>
      <trkpt lat="41.845600" lon="2.888976">
        <ele>133.0</ele>
        <time>2019-01-13T23:56:19Z</time>
      </trkpt>
      <trkpt lat="41.845508" lon="2.889037">
        <ele>133.0</ele>
        <time>2019-01-13T23:56:21Z</time>
      </trkpt>
      <trkpt lat="41.845418" lon="2.889094">
        <ele>133.0</ele>
        <time>2019-01-13T23:56:23Z</time>
      </trkpt>
      <trkpt lat="41.845235" lon="2.889179">
        <ele>132.0</ele>
        <time>2019-01-13T23:56:26Z</time>
      </trkpt>
      <trkpt lat="41.844933" lon="2.889295">
        <ele>131.0</ele>
        <time>2019-01-13T23:56:31Z</time>
      </trkpt>
      <trkpt lat="41.844864" lon="2.889317">
        <ele>131.0</ele>
        <time>2019-01-13T23:56:32Z</time>
      </trkpt>
      <trkpt lat="41.844794" lon="2.889348">
        <ele>130.0</ele>
        <time>2019-01-13T23:56:33Z</time>
      </trkpt>
      <trkpt lat="41.844718" lon="2.889372">
        <ele>130.0</ele>
        <time>2019-01-13T23:56:34Z</time>
      </trkpt>
      <trkpt lat="41.844645" lon="2.889386">
        <ele>129.0</ele>
        <time>2019-01-13T23:56:35Z</time>
      </trkpt>
      <trkpt lat="41.844575" lon="2.889401">
        <ele>129.0</ele>
        <time>2019-01-13T23:56:37Z</time>
      </trkpt>
      <trkpt lat="41.844503" lon="2.889408">
        <ele>128.0</ele>
        <time>2019-01-13T23:56:38Z</time>
      </trkpt>
      <trkpt lat="41.844429" lon="2.889403">
        <ele>128.0</ele>
        <time>2019-01-13T23:56:39Z</time>
      </trkpt>
      <trkpt lat="41.844355" lon="2.889384">
        <ele>127.0</ele>
        <time>2019-01-13T23:56:40Z</time>
      </trkpt>
      <trkpt lat="41.844279" lon="2.889357">
        <ele>127.0</ele>
        <time>2019-01-13T23:56:41Z</time>
      </trkpt>
      <trkpt lat="41.844112" lon="2.889332">
        <ele>126.0</ele>
        <time>2019-01-13T23:56:44Z</time>
      </trkpt>
      <trkpt lat="41.843940" lon="2.889266">
        <ele>125.0</ele>
        <time>2019-01-13T23:56:47Z</time>
      </trkpt>
      <trkpt lat="41.843760" lon="2.889173">
        <ele>123.0</ele>
        <time>2019-01-13T23:56:50Z</time>
      </trkpt>
      <trkpt lat="41.843662" lon="2.889138">
        <ele>122.0</ele>
        <time>2019-01-13T23:56:52Z</time>
      </trkpt>
      <trkpt lat="41.843557" lon="2.889104">
        <ele>121.0</ele>
        <time>2019-01-13T23:56:53Z</time>
      </trkpt>
      <trkpt lat="41.843442" lon="2.889083">
        <ele>120.0</ele>
        <time>2019-01-13T23:56:55Z</time>
      </trkpt>
      <trkpt lat="41.843331" lon="2.889072">
        <ele>120.0</ele>
        <time>2019-01-13T23:56:57Z</time>
      </trkpt>
      <trkpt lat="41.843213" lon="2.889075">
        <ele>120.0</ele>
        <time>2019-01-13T23:56:59Z</time>
      </trkpt>
      <trkpt lat="41.843091" lon="2.889085">
        <ele>119.0</ele>
        <time>2019-01-13T23:57:01Z</time>
      </trkpt>
      <trkpt lat="41.842966" lon="2.889108">
        <ele>119.0</ele>
        <time>2019-01-13T23:57:03Z</time>
      </trkpt>
      <trkpt lat="41.842841" lon="2.889145">
        <ele>119.0</ele>
        <time>2019-01-13T23:57:05Z</time>
      </trkpt>
      <trkpt lat="41.842718" lon="2.889177">
        <ele>119.0</ele>
        <time>2019-01-13T23:57:07Z</time>
      </trkpt>
      <trkpt lat="41.842588" lon="2.889208">
        <ele>119.0</ele>
        <time>2019-01-13T23:57:09Z</time>
      </trkpt>
      <trkpt lat="41.842470" lon="2.889227">
        <ele>119.0</ele>
        <time>2019-01-13T23:57:11Z</time>
      </trkpt>
      <trkpt lat="41.842355" lon="2.889254">
        <ele>120.0</ele>
        <time>2019-01-13T23:57:13Z</time>
      </trkpt>
      <trkpt lat="41.842243" lon="2.889279">
        <ele>120.0</ele>
        <time>2019-01-13T23:57:15Z</time>
      </trkpt>
      <trkpt lat="41.842133" lon="2.889298">
        <ele>121.0</ele>
        <time>2019-01-13T23:57:16Z</time>
      </trkpt>
      <trkpt lat="41.842023" lon="2.889325">
        <ele>121.0</ele>
        <time>2019-01-13T23:57:18Z</time>
      </trkpt>
      <trkpt lat="41.841401" lon="2.889446">
        <ele>124.0</ele>
        <time>2019-01-13T23:57:28Z</time>
      </trkpt>
      <trkpt lat="41.841209" lon="2.889484">
        <ele>124.0</ele>
        <time>2019-01-13T23:57:31Z</time>
      </trkpt>
      <trkpt lat="41.840939" lon="2.889536">
        <ele>125.0</ele>
        <time>2019-01-13T23:57:36Z</time>
      </trkpt>
      <trkpt lat="41.840849" lon="2.889554">
        <ele>126.0</ele>
        <time>2019-01-13T23:57:37Z</time>
      </trkpt>
      <trkpt lat="41.840760" lon="2.889567">
        <ele>126.0</ele>
        <time>2019-01-13T23:57:39Z</time>
      </trkpt>
      <trkpt lat="41.840672" lon="2.889590">
        <ele>126.0</ele>
        <time>2019-01-13T23:57:40Z</time>
      </trkpt>
      <trkpt lat="41.840581" lon="2.889605">
        <ele>127.0</ele>
        <time>2019-01-13T23:57:42Z</time>
      </trkpt>
      <trkpt lat="41.840496" lon="2.889623">
        <ele>127.0</ele>
        <time>2019-01-13T23:57:43Z</time>
      </trkpt>
      <trkpt lat="41.840403" lon="2.889645">
        <ele>127.0</ele>
        <time>2019-01-13T23:57:44Z</time>
      </trkpt>
      <trkpt lat="41.840306" lon="2.889672">
        <ele>128.0</ele>
        <time>2019-01-13T23:57:46Z</time>
      </trkpt>
      <trkpt lat="41.840212" lon="2.889679">
        <ele>128.0</ele>
        <time>2019-01-13T23:57:48Z</time>
      </trkpt>
      <trkpt lat="41.840123" lon="2.889697">
        <ele>128.0</ele>
        <time>2019-01-13T23:57:49Z</time>
      </trkpt>
      <trkpt lat="41.839941" lon="2.889738">
        <ele>129.0</ele>
        <time>2019-01-13T23:57:52Z</time>
      </trkpt>
      <trkpt lat="41.839850" lon="2.889757">
        <ele>129.0</ele>
        <time>2019-01-13T23:57:53Z</time>
      </trkpt>
      <trkpt lat="41.839759" lon="2.889774">
        <ele>130.0</ele>
        <time>2019-01-13T23:57:55Z</time>
      </trkpt>
      <trkpt lat="41.839669" lon="2.889794">
        <ele>130.0</ele>
        <time>2019-01-13T23:57:56Z</time>
      </trkpt>
      <trkpt lat="41.839577" lon="2.889814">
        <ele>130.0</ele>
        <time>2019-01-13T23:57:58Z</time>
      </trkpt>
      <trkpt lat="41.839489" lon="2.889831">
        <ele>131.0</ele>
        <time>2019-01-13T23:57:59Z</time>
      </trkpt>
      <trkpt lat="41.839402" lon="2.889847">
        <ele>131.0</ele>
        <time>2019-01-13T23:58:01Z</time>
      </trkpt>
      <trkpt lat="41.839315" lon="2.889868">
        <ele>131.0</ele>
        <time>2019-01-13T23:58:02Z</time>
      </trkpt>
      <trkpt lat="41.839230" lon="2.889887">
        <ele>131.0</ele>
        <time>2019-01-13T23:58:03Z</time>
      </trkpt>
      <trkpt lat="41.839148" lon="2.889905">
        <ele>131.0</ele>
        <time>2019-01-13T23:58:05Z</time>
      </trkpt>
      <trkpt lat="41.839063" lon="2.889921">
        <ele>131.0</ele>
        <time>2019-01-13T23:58:06Z</time>
      </trkpt>
      <trkpt lat="41.838801" lon="2.889971">
        <ele>132.0</ele>
        <time>2019-01-13T23:58:10Z</time>
      </trkpt>
      <trkpt lat="41.838713" lon="2.889990">
        <ele>132.0</ele>
        <time>2019-01-13T23:58:12Z</time>
      </trkpt>
      <trkpt lat="41.838625" lon="2.890009">
        <ele>133.0</ele>
        <time>2019-01-13T23:58:13Z</time>
      </trkpt>
      <trkpt lat="41.838537" lon="2.890028">
        <ele>133.0</ele>
        <time>2019-01-13T23:58:15Z</time>
      </trkpt>
      <trkpt lat="41.838442" lon="2.890049">
        <ele>133.0</ele>
        <time>2019-01-13T23:58:16Z</time>
      </trkpt>
      <trkpt lat="41.838353" lon="2.890068">
        <ele>133.0</ele>
        <time>2019-01-13T23:58:18Z</time>
      </trkpt>
      <trkpt lat="41.837748" lon="2.890193">
        <ele>133.0</ele>
        <time>2019-01-13T23:58:27Z</time>
      </trkpt>
      <trkpt lat="41.837585" lon="2.890227">
        <ele>133.0</ele>
        <time>2019-01-13T23:58:30Z</time>
      </trkpt>
      <trkpt lat="41.837433" lon="2.890274">
        <ele>133.0</ele>
        <time>2019-01-13T23:58:33Z</time>
      </trkpt>
      <trkpt lat="41.837357" lon="2.890295">
        <ele>133.0</ele>
        <time>2019-01-13T23:58:34Z</time>
      </trkpt>
      <trkpt lat="41.837280" lon="2.890306">
        <ele>133.0</ele>
        <time>2019-01-13T23:58:35Z</time>
      </trkpt>
      <trkpt lat="41.837199" lon="2.890319">
        <ele>133.0</ele>
        <time>2019-01-13T23:58:36Z</time>
      </trkpt>
      <trkpt lat="41.837123" lon="2.890330">
        <ele>134.0</ele>
        <time>2019-01-13T23:58:38Z</time>
      </trkpt>
      <trkpt lat="41.837047" lon="2.890344">
        <ele>134.0</ele>
        <time>2019-01-13T23:58:39Z</time>
      </trkpt>
      <trkpt lat="41.836577" lon="2.890440">
        <ele>135.0</ele>
        <time>2019-01-13T23:58:46Z</time>
      </trkpt>
      <trkpt lat="41.836496" lon="2.890456">
        <ele>135.0</ele>
        <time>2019-01-13T23:58:48Z</time>
      </trkpt>
      <trkpt lat="41.836419" lon="2.890473">
        <ele>135.0</ele>
        <time>2019-01-13T23:58:49Z</time>
      </trkpt>
      <trkpt lat="41.836341" lon="2.890485">
        <ele>135.0</ele>
        <time>2019-01-13T23:58:50Z</time>
      </trkpt>
      <trkpt lat="41.836263" lon="2.890497">
        <ele>135.0</ele>
        <time>2019-01-13T23:58:52Z</time>
      </trkpt>
      <trkpt lat="41.835768" lon="2.890599">
        <ele>134.0</ele>
        <time>2019-01-13T23:59:00Z</time>
      </trkpt>
      <trkpt lat="41.835312" lon="2.890693">
        <ele>133.0</ele>
        <time>2019-01-13T23:59:07Z</time>
      </trkpt>
      <trkpt lat="41.835114" lon="2.890740">
        <ele>132.0</ele>
        <time>2019-01-13T23:59:10Z</time>
      </trkpt>
      <trkpt lat="41.835015" lon="2.890761">
        <ele>131.0</ele>
        <time>2019-01-13T23:59:12Z</time>
      </trkpt>
      <trkpt lat="41.834915" lon="2.890785">
        <ele>131.0</ele>
        <time>2019-01-13T23:59:13Z</time>
      </trkpt>
      <trkpt lat="41.834815" lon="2.890808">
        <ele>130.0</ele>
        <time>2019-01-13T23:59:15Z</time>
      </trkpt>
      <trkpt lat="41.834715" lon="2.890831">
        <ele>130.0</ele>
        <time>2019-01-13T23:59:17Z</time>
      </trkpt>
      <trkpt lat="41.834610" lon="2.890855">
        <ele>130.0</ele>
        <time>2019-01-13T23:59:18Z</time>
      </trkpt>
      <trkpt lat="41.834499" lon="2.890878">
        <ele>129.0</ele>
        <time>2019-01-13T23:59:20Z</time>
      </trkpt>
      <trkpt lat="41.834391" lon="2.890903">
        <ele>129.0</ele>
        <time>2019-01-13T23:59:22Z</time>
      </trkpt>
      <trkpt lat="41.834282" lon="2.890925">
        <ele>128.0</ele>
        <time>2019-01-13T23:59:24Z</time>
      </trkpt>
      <trkpt lat="41.834169" lon="2.890940">
        <ele>127.0</ele>
        <time>2019-01-13T23:59:25Z</time>
      </trkpt>
      <trkpt lat="41.834058" lon="2.890966">
        <ele>127.0</ele>
        <time>2019-01-13T23:59:27Z</time>
      </trkpt>
      <trkpt lat="41.833944" lon="2.890988">
        <ele>126.0</ele>
        <time>2019-01-13T23:59:29Z</time>
      </trkpt>
      <trkpt lat="41.833832" lon="2.891010">
        <ele>126.0</ele>
        <time>2019-01-13T23:59:31Z</time>
      </trkpt>
      <trkpt lat="41.833720" lon="2.891034">
        <ele>125.0</ele>
        <time>2019-01-13T23:59:33Z</time>
      </trkpt>
      <trkpt lat="41.833603" lon="2.891060">
        <ele>125.0</ele>
        <time>2019-01-13T23:59:35Z</time>
      </trkpt>
      <trkpt lat="41.833488" lon="2.891083">
        <ele>124.0</ele>
        <time>2019-01-13T23:59:36Z</time>
      </trkpt>
      <trkpt lat="41.833375" lon="2.891109">
        <ele>124.0</ele>
        <time>2019-01-13T23:59:38Z</time>
      </trkpt>
      <trkpt lat="41.833260" lon="2.891131">
        <ele>123.0</ele>
        <time>2019-01-13T23:59:40Z</time>
      </trkpt>
      <trkpt lat="41.833142" lon="2.891152">
        <ele>123.0</ele>
        <time>2019-01-13T23:59:42Z</time>
      </trkpt>
      <trkpt lat="41.833027" lon="2.891176">
        <ele>123.0</ele>
        <time>2019-01-13T23:59:44Z</time>
      </trkpt>
      <trkpt lat="41.832903" lon="2.891204">
        <ele>122.0</ele>
        <time>2019-01-13T23:59:46Z</time>
      </trkpt>
      <trkpt lat="41.832788" lon="2.891232">
        <ele>121.0</ele>
        <time>2019-01-13T23:59:48Z</time>
      </trkpt>
      <trkpt lat="41.832557" lon="2.891283">
        <ele>121.0</ele>
        <time>2019-01-13T23:59:52Z</time>
      </trkpt>
      <trkpt lat="41.832326" lon="2.891331">
        <ele>121.0</ele>
        <time>2019-01-13T23:59:55Z</time>
      </trkpt>
      <trkpt lat="41.832214" lon="2.891355">
        <ele>121.0</ele>
        <time>2019-01-13T23:59:57Z</time>
      </trkpt>
      <trkpt lat="41.832106" lon="2.891383">
        <ele>121.0</ele>
        <time>2019-01-13T23:59:59Z</time>
      </trkpt>
      <trkpt lat="41.831990" lon="2.891410">
        <ele>122.0</ele>
        <time>2019-01-14T00:00:01Z</time>
      </trkpt>
      <trkpt lat="41.831883" lon="2.891432">
        <ele>122.0</ele>
        <time>2019-01-14T00:00:03Z</time>
      </trkpt>
      <trkpt lat="41.831778" lon="2.891450">
        <ele>122.0</ele>
        <time>2019-01-14T00:00:04Z</time>
      </trkpt>
      <trkpt lat="41.831185" lon="2.891572">
        <ele>122.0</ele>
        <time>2019-01-14T00:00:14Z</time>
      </trkpt>
      <trkpt lat="41.830693" lon="2.891736">
        <ele>123.0</ele>
        <time>2019-01-14T00:00:22Z</time>
      </trkpt>
      <trkpt lat="41.830537" lon="2.891747">
        <ele>124.0</ele>
        <time>2019-01-14T00:00:24Z</time>
      </trkpt>
      <trkpt lat="41.830465" lon="2.891722">
        <ele>124.0</ele>
        <time>2019-01-14T00:00:26Z</time>
      </trkpt>
      <trkpt lat="41.830397" lon="2.891679">
        <ele>124.0</ele>
        <time>2019-01-14T00:00:27Z</time>
      </trkpt>
      <trkpt lat="41.830334" lon="2.891620">
        <ele>125.0</ele>
        <time>2019-01-14T00:00:28Z</time>
      </trkpt>
      <trkpt lat="41.830274" lon="2.891554">
        <ele>125.0</ele>
        <time>2019-01-14T00:00:29Z</time>
      </trkpt>
      <trkpt lat="41.830220" lon="2.891468">
        <ele>125.0</ele>
        <time>2019-01-14T00:00:31Z</time>
      </trkpt>
      <trkpt lat="41.830167" lon="2.891387">
        <ele>125.0</ele>
        <time>2019-01-14T00:00:32Z</time>
      </trkpt>
      <trkpt lat="41.830017" lon="2.891101">
        <ele>125.0</ele>
        <time>2019-01-14T00:00:36Z</time>
      </trkpt>
      <trkpt lat="41.829972" lon="2.891006">
        <ele>125.0</ele>
        <time>2019-01-14T00:00:37Z</time>
      </trkpt>
      <trkpt lat="41.829664" lon="2.890349">
        <ele>125.0</ele>
        <time>2019-01-14T00:00:47Z</time>
      </trkpt>
      <trkpt lat="41.829540" lon="2.890091">
        <ele>126.0</ele>
        <time>2019-01-14T00:00:50Z</time>
      </trkpt>
      <trkpt lat="41.829430" lon="2.889834">
        <ele>125.0</ele>
        <time>2019-01-14T00:00:54Z</time>
      </trkpt>
      <trkpt lat="41.829411" lon="2.889743">
        <ele>124.0</ele>
        <time>2019-01-14T00:00:55Z</time>
      </trkpt>
      <trkpt lat="41.829234" lon="2.889511">
        <ele>123.0</ele>
        <time>2019-01-14T00:00:59Z</time>
      </trkpt>
      <trkpt lat="41.829098" lon="2.889554">
        <ele>124.0</ele>
        <time>2019-01-14T00:01:01Z</time>
      </trkpt>
      <trkpt lat="41.829038" lon="2.889576">
        <ele>125.0</ele>
        <time>2019-01-14T00:01:02Z</time>
      </trkpt>
      <trkpt lat="41.828976" lon="2.889589">
        <ele>125.0</ele>
        <time>2019-01-14T00:01:03Z</time>
      </trkpt>
      <trkpt lat="41.828912" lon="2.889591">
        <ele>125.0</ele>
        <time>2019-01-14T00:01:04Z</time>
      </trkpt>
      <trkpt lat="41.828783" lon="2.889581">
        <ele>126.0</ele>
        <time>2019-01-14T00:01:06Z</time>
      </trkpt>
      <trkpt lat="41.828528" lon="2.889543">
        <ele>126.0</ele>
        <time>2019-01-14T00:01:10Z</time>
      </trkpt>
      <trkpt lat="41.828353" lon="2.889517">
        <ele>126.0</ele>
        <time>2019-01-14T00:01:13Z</time>
      </trkpt>
      <trkpt lat="41.827977" lon="2.889489">
        <ele>127.0</ele>
        <time>2019-01-14T00:01:19Z</time>
      </trkpt>
      <trkpt lat="41.827821" lon="2.889464">
        <ele>127.0</ele>
        <time>2019-01-14T00:01:22Z</time>
      </trkpt>
      <trkpt lat="41.827677" lon="2.889446">
        <ele>127.0</ele>
        <time>2019-01-14T00:01:24Z</time>
      </trkpt>
      <trkpt lat="41.827394" lon="2.889412">
        <ele>127.0</ele>
        <time>2019-01-14T00:01:29Z</time>
      </trkpt>
      <trkpt lat="41.827042" lon="2.889376">
        <ele>127.0</ele>
        <time>2019-01-14T00:01:34Z</time>
      </trkpt>
      <trkpt lat="41.826824" lon="2.889350">
        <ele>127.0</ele>
        <time>2019-01-14T00:01:38Z</time>
      </trkpt>
      <trkpt lat="41.826516" lon="2.889319">
        <ele>127.0</ele>
        <time>2019-01-14T00:01:43Z</time>
      </trkpt>
      <trkpt lat="41.826438" lon="2.889312">
        <ele>127.0</ele>
        <time>2019-01-14T00:01:44Z</time>
      </trkpt>
      <trkpt lat="41.825888" lon="2.889271">
        <ele>126.0</ele>
        <time>2019-01-14T00:01:53Z</time>
      </trkpt>
      <trkpt lat="41.825730" lon="2.889256">
        <ele>126.0</ele>
        <time>2019-01-14T00:01:55Z</time>
      </trkpt>
      <trkpt lat="41.825496" lon="2.889223">
        <ele>125.0</ele>
        <time>2019-01-14T00:01:59Z</time>
      </trkpt>
      <trkpt lat="41.825359" lon="2.889148">
        <ele>125.0</ele>
        <time>2019-01-14T00:02:01Z</time>
      </trkpt>
      <trkpt lat="41.825240" lon="2.889038">
        <ele>125.0</ele>
        <time>2019-01-14T00:02:04Z</time>
      </trkpt>
      <trkpt lat="41.825024" lon="2.888848">
        <ele>125.0</ele>
        <time>2019-01-14T00:02:08Z</time>
      </trkpt>
      <trkpt lat="41.824776" lon="2.888617">
        <ele>125.0</ele>
        <time>2019-01-14T00:02:13Z</time>
      </trkpt>
      <trkpt lat="41.824775" lon="2.888571">
        <ele>125.0</ele>
        <time>2019-01-14T00:02:13Z</time>
      </trkpt>
      <trkpt lat="41.824783" lon="2.888537">
        <ele>125.0</ele>
        <time>2019-01-14T00:02:14Z</time>
      </trkpt>
      <trkpt lat="41.824807" lon="2.888499">
        <ele>125.0</ele>
        <time>2019-01-14T00:02:14Z</time>
      </trkpt>
      <trkpt lat="41.824817" lon="2.888493">
        <ele>125.0</ele>
        <time>2019-01-14T00:02:15Z</time>
      </trkpt>
      <trkpt lat="41.824814" lon="2.888515">
        <ele>125.0</ele>
        <time>2019-01-14T00:02:15Z</time>
      </trkpt>
      <trkpt lat="41.824809" lon="2.888531">
        <ele>125.0</ele>
        <time>2019-01-14T00:02:15Z</time>
      </trkpt>
      <trkpt lat="41.824782" lon="2.888569">
        <ele>125.0</ele>
        <time>2019-01-14T00:02:16Z</time>
      </trkpt>
      <trkpt lat="41.824690" lon="2.888566">
        <ele>125.0</ele>
        <time>2019-01-14T00:02:17Z</time>
      </trkpt>
      <trkpt lat="41.824566" lon="2.888455">
        <ele>125.0</ele>
        <time>2019-01-14T00:02:19Z</time>
      </trkpt>
      <trkpt lat="41.824499" lon="2.888388">
        <ele>125.0</ele>
        <time>2019-01-14T00:02:21Z</time>
      </trkpt>
      <trkpt lat="41.824240" lon="2.888154">
        <ele>125.0</ele>
        <time>2019-01-14T00:02:26Z</time>
      </trkpt>
      <trkpt lat="41.824078" lon="2.888003">
        <ele>126.0</ele>
        <time>2019-01-14T00:02:29Z</time>
      </trkpt>
      <trkpt lat="41.823857" lon="2.887806">
        <ele>126.0</ele>
        <time>2019-01-14T00:02:33Z</time>
      </trkpt>
      <trkpt lat="41.823664" lon="2.887633">
        <ele>126.0</ele>
        <time>2019-01-14T00:02:37Z</time>
      </trkpt>
      <trkpt lat="41.823518" lon="2.887494">
        <ele>126.0</ele>
        <time>2019-01-14T00:02:40Z</time>
      </trkpt>
      <trkpt lat="41.823359" lon="2.887346">
        <ele>126.0</ele>
        <time>2019-01-14T00:02:43Z</time>
      </trkpt>
      <trkpt lat="41.823305" lon="2.887302">
        <ele>126.0</ele>
        <time>2019-01-14T00:02:44Z</time>
      </trkpt>
      <trkpt lat="41.823195" lon="2.887213">
        <ele>127.0</ele>
        <time>2019-01-14T00:02:46Z</time>
      </trkpt>
      <trkpt lat="41.823140" lon="2.887162">
        <ele>127.0</ele>
        <time>2019-01-14T00:02:47Z</time>
      </trkpt>
      <trkpt lat="41.823024" lon="2.887057">
        <ele>127.0</ele>
        <time>2019-01-14T00:02:49Z</time>
      </trkpt>
      <trkpt lat="41.822971" lon="2.887009">
        <ele>128.0</ele>
        <time>2019-01-14T00:02:50Z</time>
      </trkpt>
      <trkpt lat="41.822877" lon="2.886929">
        <ele>128.0</ele>
        <time>2019-01-14T00:02:52Z</time>
      </trkpt>
      <trkpt lat="41.822834" lon="2.886890">
        <ele>128.0</ele>
        <time>2019-01-14T00:02:53Z</time>
      </trkpt>
      <trkpt lat="41.822792" lon="2.886852">
        <ele>128.0</ele>
        <time>2019-01-14T00:02:54Z</time>
      </trkpt>
      <trkpt lat="41.822753" lon="2.886817">
        <ele>129.0</ele>
        <time>2019-01-14T00:02:54Z</time>
      </trkpt>
      <trkpt lat="41.822674" lon="2.886743">
        <ele>129.0</ele>
        <time>2019-01-14T00:02:56Z</time>
      </trkpt>
      <trkpt lat="41.822635" lon="2.886702">
        <ele>129.0</ele>
        <time>2019-01-14T00:02:57Z</time>
      </trkpt>
      <trkpt lat="41.822594" lon="2.886659">
        <ele>129.0</ele>
        <time>2019-01-14T00:02:58Z</time>
      </trkpt>
      <trkpt lat="41.822553" lon="2.886618">
        <ele>129.0</ele>
        <time>2019-01-14T00:02:58Z</time>
      </trkpt>
      <trkpt lat="41.822510" lon="2.886578">
        <ele>130.0</ele>
        <time>2019-01-14T00:02:59Z</time>
      </trkpt>
      <trkpt lat="41.822326" lon="2.886413">
        <ele>131.0</ele>
        <time>2019-01-14T00:03:03Z</time>
      </trkpt>
      <trkpt lat="41.822280" lon="2.886373">
        <ele>131.0</ele>
        <time>2019-01-14T00:03:04Z</time>
      </trkpt>
      <trkpt lat="41.822235" lon="2.886337">
        <ele>131.0</ele>
        <time>2019-01-14T00:03:05Z</time>
      </trkpt>
      <trkpt lat="41.822189" lon="2.886296">
        <ele>131.0</ele>
        <time>2019-01-14T00:03:05Z</time>
      </trkpt>
      <trkpt lat="41.822144" lon="2.886254">
        <ele>131.0</ele>
        <time>2019-01-14T00:03:06Z</time>
      </trkpt>
      <trkpt lat="41.821908" lon="2.886058">
        <ele>133.0</ele>
        <time>2019-01-14T00:03:11Z</time>
      </trkpt>
      <trkpt lat="41.821860" lon="2.886016">
        <ele>133.0</ele>
        <time>2019-01-14T00:03:12Z</time>
      </trkpt>
      <trkpt lat="41.821814" lon="2.885976">
        <ele>133.0</ele>
        <time>2019-01-14T00:03:13Z</time>
      </trkpt>
      <trkpt lat="41.821769" lon="2.885936">
        <ele>133.0</ele>
        <time>2019-01-14T00:03:13Z</time>
      </trkpt>
      <trkpt lat="41.821724" lon="2.885896">
        <ele>134.0</ele>
        <time>2019-01-14T00:03:14Z</time>
      </trkpt>
      <trkpt lat="41.821584" lon="2.885770">
        <ele>134.0</ele>
        <time>2019-01-14T00:03:17Z</time>
      </trkpt>
      <trkpt lat="41.821538" lon="2.885729">
        <ele>134.0</ele>
        <time>2019-01-14T00:03:18Z</time>
      </trkpt>
      <trkpt lat="41.821492" lon="2.885688">
        <ele>135.0</ele>
        <time>2019-01-14T00:03:19Z</time>
      </trkpt>
      <trkpt lat="41.821447" lon="2.885649">
        <ele>135.0</ele>
        <time>2019-01-14T00:03:20Z</time>
      </trkpt>
      <trkpt lat="41.821400" lon="2.885609">
        <ele>135.0</ele>
        <time>2019-01-14T00:03:20Z</time>
      </trkpt>
      <trkpt lat="41.821220" lon="2.885448">
        <ele>137.0</ele>
        <time>2019-01-14T00:03:24Z</time>
      </trkpt>
      <trkpt lat="41.821175" lon="2.885406">
        <ele>137.0</ele>
        <time>2019-01-14T00:03:25Z</time>
      </trkpt>
      <trkpt lat="41.821128" lon="2.885363">
        <ele>137.0</ele>
        <time>2019-01-14T00:03:26Z</time>
      </trkpt>
      <trkpt lat="41.821080" lon="2.885322">
        <ele>138.0</ele>
        <time>2019-01-14T00:03:27Z</time>
      </trkpt>
      <trkpt lat="41.821030" lon="2.885279">
        <ele>138.0</ele>
        <time>2019-01-14T00:03:28Z</time>
      </trkpt>
      <trkpt lat="41.820981" lon="2.885234">
        <ele>138.0</ele>
        <time>2019-01-14T00:03:29Z</time>
      </trkpt>
      <trkpt lat="41.820630" lon="2.884917">
        <ele>139.0</ele>
        <time>2019-01-14T00:03:35Z</time>
      </trkpt>
      <trkpt lat="41.820229" lon="2.884559">
        <ele>140.0</ele>
        <time>2019-01-14T00:03:43Z</time>
      </trkpt>
      <trkpt lat="41.820180" lon="2.884519">
        <ele>140.0</ele>
        <time>2019-01-14T00:03:44Z</time>
      </trkpt>
      <trkpt lat="41.820130" lon="2.884477">
        <ele>140.0</ele>
        <time>2019-01-14T00:03:45Z</time>
      </trkpt>
      <trkpt lat="41.820081" lon="2.884434">
        <ele>140.0</ele>
        <time>2019-01-14T00:03:46Z</time>
      </trkpt>
      <trkpt lat="41.820032" lon="2.884389">
        <ele>140.0</ele>
        <time>2019-01-14T00:03:47Z</time>
      </trkpt>
      <trkpt lat="41.819883" lon="2.884254">
        <ele>141.0</ele>
        <time>2019-01-14T00:03:50Z</time>
      </trkpt>
      <trkpt lat="41.819829" lon="2.884209">
        <ele>141.0</ele>
        <time>2019-01-14T00:03:51Z</time>
      </trkpt>
      <trkpt lat="41.819779" lon="2.884166">
        <ele>141.0</ele>
        <time>2019-01-14T00:03:52Z</time>
      </trkpt>
      <trkpt lat="41.819732" lon="2.884124">
        <ele>141.0</ele>
        <time>2019-01-14T00:03:53Z</time>
      </trkpt>
      <trkpt lat="41.819685" lon="2.884084">
        <ele>141.0</ele>
        <time>2019-01-14T00:03:53Z</time>
      </trkpt>
      <trkpt lat="41.819452" lon="2.883875">
        <ele>142.0</ele>
        <time>2019-01-14T00:03:58Z</time>
      </trkpt>
      <trkpt lat="41.819313" lon="2.883752">
        <ele>143.0</ele>
        <time>2019-01-14T00:04:01Z</time>
      </trkpt>
      <trkpt lat="41.819268" lon="2.883712">
        <ele>143.0</ele>
        <time>2019-01-14T00:04:01Z</time>
      </trkpt>
      <trkpt lat="41.819224" lon="2.883672">
        <ele>143.0</ele>
        <time>2019-01-14T00:04:02Z</time>
      </trkpt>
      <trkpt lat="41.819180" lon="2.883635">
        <ele>143.0</ele>
        <time>2019-01-14T00:04:03Z</time>
      </trkpt>
      <trkpt lat="41.819133" lon="2.883596">
        <ele>144.0</ele>
        <time>2019-01-14T00:04:04Z</time>
      </trkpt>
      <trkpt lat="41.819086" lon="2.883558">
        <ele>144.0</ele>
        <time>2019-01-14T00:04:05Z</time>
      </trkpt>
      <trkpt lat="41.818950" lon="2.883434">
        <ele>144.0</ele>
        <time>2019-01-14T00:04:08Z</time>
      </trkpt>
      <trkpt lat="41.818767" lon="2.883271">
        <ele>145.0</ele>
        <time>2019-01-14T00:04:11Z</time>
      </trkpt>
      <trkpt lat="41.818723" lon="2.883232">
        <ele>145.0</ele>
        <time>2019-01-14T00:04:12Z</time>
      </trkpt>
      <trkpt lat="41.818679" lon="2.883193">
        <ele>145.0</ele>
        <time>2019-01-14T00:04:13Z</time>
      </trkpt>
      <trkpt lat="41.818634" lon="2.883155">
        <ele>145.0</ele>
        <time>2019-01-14T00:04:14Z</time>
      </trkpt>
      <trkpt lat="41.818587" lon="2.883116">
        <ele>145.0</ele>
        <time>2019-01-14T00:04:14Z</time>
      </trkpt>
      <trkpt lat="41.818316" lon="2.882873">
        <ele>147.0</ele>
        <time>2019-01-14T00:04:20Z</time>
      </trkpt>
      <trkpt lat="41.818269" lon="2.882830">
        <ele>147.0</ele>
        <time>2019-01-14T00:04:21Z</time>
      </trkpt>
      <trkpt lat="41.818222" lon="2.882789">
        <ele>147.0</ele>
        <time>2019-01-14T00:04:21Z</time>
      </trkpt>
      <trkpt lat="41.818172" lon="2.882748">
        <ele>147.0</ele>
        <time>2019-01-14T00:04:22Z</time>
      </trkpt>
      <trkpt lat="41.817966" lon="2.882569">
        <ele>147.0</ele>
        <time>2019-01-14T00:04:26Z</time>
      </trkpt>
      <trkpt lat="41.817647" lon="2.882281">
        <ele>147.0</ele>
        <time>2019-01-14T00:04:33Z</time>
      </trkpt>
      <trkpt lat="41.817426" lon="2.882101">
        <ele>148.0</ele>
        <time>2019-01-14T00:04:37Z</time>
      </trkpt>
      <trkpt lat="41.817064" lon="2.881790">
        <ele>150.0</ele>
        <time>2019-01-14T00:04:44Z</time>
      </trkpt>
      <trkpt lat="41.817016" lon="2.881749">
        <ele>150.0</ele>
        <time>2019-01-14T00:04:44Z</time>
      </trkpt>
      <trkpt lat="41.816968" lon="2.881709">
        <ele>150.0</ele>
        <time>2019-01-14T00:04:45Z</time>
      </trkpt>
      <trkpt lat="41.816919" lon="2.881673">
        <ele>151.0</ele>
        <time>2019-01-14T00:04:46Z</time>
      </trkpt>
      <trkpt lat="41.816868" lon="2.881631">
        <ele>151.0</ele>
        <time>2019-01-14T00:04:47Z</time>
      </trkpt>
      <trkpt lat="41.816818" lon="2.881589">
        <ele>152.0</ele>
        <time>2019-01-14T00:04:48Z</time>
      </trkpt>
      <trkpt lat="41.816771" lon="2.881547">
        <ele>152.0</ele>
        <time>2019-01-14T00:04:49Z</time>
      </trkpt>
      <trkpt lat="41.816727" lon="2.881507">
        <ele>153.0</ele>
        <time>2019-01-14T00:04:50Z</time>
      </trkpt>
      <trkpt lat="41.816682" lon="2.881463">
        <ele>153.0</ele>
        <time>2019-01-14T00:04:51Z</time>
      </trkpt>
      <trkpt lat="41.816491" lon="2.881293">
        <ele>154.0</ele>
        <time>2019-01-14T00:04:54Z</time>
      </trkpt>
      <trkpt lat="41.816393" lon="2.881207">
        <ele>154.0</ele>
        <time>2019-01-14T00:04:56Z</time>
      </trkpt>
      <trkpt lat="41.816343" lon="2.881161">
        <ele>154.0</ele>
        <time>2019-01-14T00:04:57Z</time>
      </trkpt>
      <trkpt lat="41.816291" lon="2.881114">
        <ele>154.0</ele>
        <time>2019-01-14T00:04:58Z</time>
      </trkpt>
      <trkpt lat="41.816241" lon="2.881067">
        <ele>154.0</ele>
        <time>2019-01-14T00:04:59Z</time>
      </trkpt>
      <trkpt lat="41.816190" lon="2.881019">
        <ele>154.0</ele>
        <time>2019-01-14T00:05:00Z</time>
      </trkpt>
      <trkpt lat="41.815924" lon="2.880782">
        <ele>155.0</ele>
        <time>2019-01-14T00:05:05Z</time>
      </trkpt>
      <trkpt lat="41.815508" lon="2.880409">
        <ele>155.0</ele>
        <time>2019-01-14T00:05:13Z</time>
      </trkpt>
      <trkpt lat="41.815319" lon="2.880238">
        <ele>154.0</ele>
        <time>2019-01-14T00:05:17Z</time>
      </trkpt>
      <trkpt lat="41.814980" lon="2.879939">
        <ele>154.0</ele>
        <time>2019-01-14T00:05:24Z</time>
      </trkpt>
      <trkpt lat="41.814691" lon="2.879676">
        <ele>153.0</ele>
        <time>2019-01-14T00:05:29Z</time>
      </trkpt>
      <trkpt lat="41.814619" lon="2.879611">
        <ele>153.0</ele>
        <time>2019-01-14T00:05:31Z</time>
      </trkpt>
      <trkpt lat="41.814544" lon="2.879546">
        <ele>153.0</ele>
        <time>2019-01-14T00:05:32Z</time>
      </trkpt>
      <trkpt lat="41.814469" lon="2.879478">
        <ele>152.0</ele>
        <time>2019-01-14T00:05:33Z</time>
      </trkpt>
      <trkpt lat="41.814388" lon="2.879404">
        <ele>152.0</ele>
        <time>2019-01-14T00:05:35Z</time>
      </trkpt>
      <trkpt lat="41.814141" lon="2.879184">
        <ele>151.0</ele>
        <time>2019-01-14T00:05:40Z</time>
      </trkpt>
      <trkpt lat="41.814056" lon="2.879107">
        <ele>151.0</ele>
        <time>2019-01-14T00:05:41Z</time>
      </trkpt>
      <trkpt lat="41.813967" lon="2.879027">
        <ele>150.0</ele>
        <time>2019-01-14T00:05:43Z</time>
      </trkpt>
      <trkpt lat="41.813878" lon="2.878946">
        <ele>150.0</ele>
        <time>2019-01-14T00:05:45Z</time>
      </trkpt>
      <trkpt lat="41.813788" lon="2.878863">
        <ele>149.0</ele>
        <time>2019-01-14T00:05:47Z</time>
      </trkpt>
      <trkpt lat="41.813699" lon="2.878782">
        <ele>149.0</ele>
        <time>2019-01-14T00:05:48Z</time>
      </trkpt>
      <trkpt lat="41.813604" lon="2.878698">
        <ele>149.0</ele>
        <time>2019-01-14T00:05:50Z</time>
      </trkpt>
      <trkpt lat="41.813515" lon="2.878617">
        <ele>148.0</ele>
        <time>2019-01-14T00:05:52Z</time>
      </trkpt>
      <trkpt lat="41.813427" lon="2.878534">
        <ele>148.0</ele>
        <time>2019-01-14T00:05:54Z</time>
      </trkpt>
      <trkpt lat="41.813340" lon="2.878451">
        <ele>148.0</ele>
        <time>2019-01-14T00:05:55Z</time>
      </trkpt>
      <trkpt lat="41.813254" lon="2.878372">
        <ele>147.0</ele>
        <time>2019-01-14T00:05:57Z</time>
      </trkpt>
      <trkpt lat="41.813165" lon="2.878291">
        <ele>147.0</ele>
        <time>2019-01-14T00:05:59Z</time>
      </trkpt>
      <trkpt lat="41.813074" lon="2.878212">
        <ele>147.0</ele>
        <time>2019-01-14T00:06:00Z</time>
      </trkpt>
      <trkpt lat="41.812974" lon="2.878124">
        <ele>147.0</ele>
        <time>2019-01-14T00:06:02Z</time>
      </trkpt>
      <trkpt lat="41.812876" lon="2.878035">
        <ele>146.0</ele>
        <time>2019-01-14T00:06:04Z</time>
      </trkpt>
      <trkpt lat="41.812778" lon="2.877944">
        <ele>146.0</ele>
        <time>2019-01-14T00:06:06Z</time>
      </trkpt>
      <trkpt lat="41.812678" lon="2.877855">
        <ele>145.0</ele>
        <time>2019-01-14T00:06:08Z</time>
      </trkpt>
      <trkpt lat="41.812477" lon="2.877672">
        <ele>145.0</ele>
        <time>2019-01-14T00:06:12Z</time>
      </trkpt>
      <trkpt lat="41.812376" lon="2.877579">
        <ele>144.0</ele>
        <time>2019-01-14T00:06:14Z</time>
      </trkpt>
      <trkpt lat="41.812277" lon="2.877487">
        <ele>144.0</ele>
        <time>2019-01-14T00:06:16Z</time>
      </trkpt>
      <trkpt lat="41.812174" lon="2.877392">
        <ele>143.0</ele>
        <time>2019-01-14T00:06:18Z</time>
      </trkpt>
      <trkpt lat="41.812077" lon="2.877304">
        <ele>143.0</ele>
        <time>2019-01-14T00:06:20Z</time>
      </trkpt>
      <trkpt lat="41.811982" lon="2.877215">
        <ele>142.0</ele>
        <time>2019-01-14T00:06:22Z</time>
      </trkpt>
      <trkpt lat="41.811530" lon="2.876788">
        <ele>141.0</ele>
        <time>2019-01-14T00:06:30Z</time>
      </trkpt>
      <trkpt lat="41.811445" lon="2.876705">
        <ele>141.0</ele>
        <time>2019-01-14T00:06:32Z</time>
      </trkpt>
      <trkpt lat="41.811126" lon="2.876405">
        <ele>141.0</ele>
        <time>2019-01-14T00:06:38Z</time>
      </trkpt>
      <trkpt lat="41.811049" lon="2.876335">
        <ele>142.0</ele>
        <time>2019-01-14T00:06:40Z</time>
      </trkpt>
      <trkpt lat="41.810974" lon="2.876267">
        <ele>142.0</ele>
        <time>2019-01-14T00:06:41Z</time>
      </trkpt>
      <trkpt lat="41.810901" lon="2.876198">
        <ele>142.0</ele>
        <time>2019-01-14T00:06:43Z</time>
      </trkpt>
      <trkpt lat="41.810825" lon="2.876125">
        <ele>142.0</ele>
        <time>2019-01-14T00:06:44Z</time>
      </trkpt>
      <trkpt lat="41.810532" lon="2.875839">
        <ele>142.0</ele>
        <time>2019-01-14T00:06:50Z</time>
      </trkpt>
      <trkpt lat="41.810380" lon="2.875699">
        <ele>142.0</ele>
        <time>2019-01-14T00:06:53Z</time>
      </trkpt>
      <trkpt lat="41.809890" lon="2.875247">
        <ele>143.0</ele>
        <time>2019-01-14T00:07:02Z</time>
      </trkpt>
      <trkpt lat="41.809831" lon="2.875194">
        <ele>144.0</ele>
        <time>2019-01-14T00:07:04Z</time>
      </trkpt>
      <trkpt lat="41.809768" lon="2.875139">
        <ele>144.0</ele>
        <time>2019-01-14T00:07:05Z</time>
      </trkpt>
      <trkpt lat="41.809711" lon="2.875084">
        <ele>144.0</ele>
        <time>2019-01-14T00:07:06Z</time>
      </trkpt>
      <trkpt lat="41.809654" lon="2.875031">
        <ele>144.0</ele>
        <time>2019-01-14T00:07:07Z</time>
      </trkpt>
      <trkpt lat="41.809597" lon="2.874980">
        <ele>144.0</ele>
        <time>2019-01-14T00:07:08Z</time>
      </trkpt>
      <trkpt lat="41.809541" lon="2.874927">
        <ele>145.0</ele>
        <time>2019-01-14T00:07:09Z</time>
      </trkpt>
      <trkpt lat="41.809485" lon="2.874878">
        <ele>145.0</ele>
        <time>2019-01-14T00:07:10Z</time>
      </trkpt>
      <trkpt lat="41.809429" lon="2.874825">
        <ele>145.0</ele>
        <time>2019-01-14T00:07:11Z</time>
      </trkpt>
      <trkpt lat="41.809381" lon="2.874766">
        <ele>145.0</ele>
        <time>2019-01-14T00:07:12Z</time>
      </trkpt>
      <trkpt lat="41.809338" lon="2.874696">
        <ele>145.0</ele>
        <time>2019-01-14T00:07:13Z</time>
      </trkpt>
      <trkpt lat="41.809299" lon="2.874620">
        <ele>145.0</ele>
        <time>2019-01-14T00:07:15Z</time>
      </trkpt>
      <trkpt lat="41.809252" lon="2.874553">
        <ele>146.0</ele>
        <time>2019-01-14T00:07:16Z</time>
      </trkpt>
      <trkpt lat="41.809192" lon="2.874507">
        <ele>146.0</ele>
        <time>2019-01-14T00:07:17Z</time>
      </trkpt>
      <trkpt lat="41.809064" lon="2.874456">
        <ele>146.0</ele>
        <time>2019-01-14T00:07:19Z</time>
      </trkpt>
      <trkpt lat="41.809001" lon="2.874426">
        <ele>146.0</ele>
        <time>2019-01-14T00:07:20Z</time>
      </trkpt>
      <trkpt lat="41.808940" lon="2.874389">
        <ele>146.0</ele>
        <time>2019-01-14T00:07:21Z</time>
      </trkpt>
      <trkpt lat="41.808620" lon="2.874087">
        <ele>146.0</ele>
        <time>2019-01-14T00:07:27Z</time>
      </trkpt>
      <trkpt lat="41.808466" lon="2.873940">
        <ele>146.0</ele>
        <time>2019-01-14T00:07:30Z</time>
      </trkpt>
      <trkpt lat="41.808417" lon="2.873882">
        <ele>146.0</ele>
        <time>2019-01-14T00:07:31Z</time>
      </trkpt>
      <trkpt lat="41.808375" lon="2.873809">
        <ele>146.0</ele>
        <time>2019-01-14T00:07:32Z</time>
      </trkpt>
      <trkpt lat="41.808335" lon="2.873731">
        <ele>146.0</ele>
        <time>2019-01-14T00:07:34Z</time>
      </trkpt>
      <trkpt lat="41.808283" lon="2.873663">
        <ele>146.0</ele>
        <time>2019-01-14T00:07:35Z</time>
      </trkpt>
      <trkpt lat="41.808149" lon="2.873575">
        <ele>146.0</ele>
        <time>2019-01-14T00:07:37Z</time>
      </trkpt>
      <trkpt lat="41.808073" lon="2.873535">
        <ele>146.0</ele>
        <time>2019-01-14T00:07:38Z</time>
      </trkpt>
      <trkpt lat="41.808001" lon="2.873487">
        <ele>146.0</ele>
        <time>2019-01-14T00:07:40Z</time>
      </trkpt>
      <trkpt lat="41.807931" lon="2.873429">
        <ele>146.0</ele>
        <time>2019-01-14T00:07:41Z</time>
      </trkpt>
      <trkpt lat="41.807859" lon="2.873364">
        <ele>146.0</ele>
        <time>2019-01-14T00:07:42Z</time>
      </trkpt>
      <trkpt lat="41.807785" lon="2.873297">
        <ele>146.0</ele>
        <time>2019-01-14T00:07:44Z</time>
      </trkpt>
      <trkpt lat="41.807624" lon="2.873154">
        <ele>146.0</ele>
        <time>2019-01-14T00:07:47Z</time>
      </trkpt>
      <trkpt lat="41.807537" lon="2.873073">
        <ele>146.0</ele>
        <time>2019-01-14T00:07:49Z</time>
      </trkpt>
      <trkpt lat="41.807453" lon="2.872993">
        <ele>146.0</ele>
        <time>2019-01-14T00:07:50Z</time>
      </trkpt>
      <trkpt lat="41.807369" lon="2.872916">
        <ele>146.0</ele>
        <time>2019-01-14T00:07:52Z</time>
      </trkpt>
      <trkpt lat="41.807283" lon="2.872838">
        <ele>146.0</ele>
        <time>2019-01-14T00:07:54Z</time>
      </trkpt>
      <trkpt lat="41.807196" lon="2.872762">
        <ele>147.0</ele>
        <time>2019-01-14T00:07:55Z</time>
      </trkpt>
      <trkpt lat="41.807112" lon="2.872684">
        <ele>148.0</ele>
        <time>2019-01-14T00:07:57Z</time>
      </trkpt>
      <trkpt lat="41.807029" lon="2.872610">
        <ele>148.0</ele>
        <time>2019-01-14T00:07:59Z</time>
      </trkpt>
      <trkpt lat="41.806950" lon="2.872535">
        <ele>149.0</ele>
        <time>2019-01-14T00:08:00Z</time>
      </trkpt>
      <trkpt lat="41.806869" lon="2.872453">
        <ele>150.0</ele>
        <time>2019-01-14T00:08:02Z</time>
      </trkpt>
      <trkpt lat="41.806565" lon="2.872157">
        <ele>151.0</ele>
        <time>2019-01-14T00:08:08Z</time>
      </trkpt>
      <trkpt lat="41.806488" lon="2.872087">
        <ele>151.0</ele>
        <time>2019-01-14T00:08:09Z</time>
      </trkpt>
      <trkpt lat="41.806411" lon="2.872014">
        <ele>151.0</ele>
        <time>2019-01-14T00:08:11Z</time>
      </trkpt>
      <trkpt lat="41.806333" lon="2.871940">
        <ele>151.0</ele>
        <time>2019-01-14T00:08:12Z</time>
      </trkpt>
      <trkpt lat="41.806251" lon="2.871866">
        <ele>151.0</ele>
        <time>2019-01-14T00:08:14Z</time>
      </trkpt>
      <trkpt lat="41.805932" lon="2.871567">
        <ele>152.0</ele>
        <time>2019-01-14T00:08:20Z</time>
      </trkpt>
      <trkpt lat="41.805768" lon="2.871418">
        <ele>152.0</ele>
        <time>2019-01-14T00:08:23Z</time>
      </trkpt>
      <trkpt lat="41.805598" lon="2.871262">
        <ele>152.0</ele>
        <time>2019-01-14T00:08:27Z</time>
      </trkpt>
      <trkpt lat="41.805431" lon="2.871101">
        <ele>151.0</ele>
        <time>2019-01-14T00:08:30Z</time>
      </trkpt>
      <trkpt lat="41.805174" lon="2.870868">
        <ele>152.0</ele>
        <time>2019-01-14T00:08:35Z</time>
      </trkpt>
      <trkpt lat="41.805091" lon="2.870786">
        <ele>152.0</ele>
        <time>2019-01-14T00:08:36Z</time>
      </trkpt>
      <trkpt lat="41.804917" lon="2.870626">
        <ele>152.0</ele>
        <time>2019-01-14T00:08:40Z</time>
      </trkpt>
      <trkpt lat="41.804583" lon="2.870311">
        <ele>152.0</ele>
        <time>2019-01-14T00:08:46Z</time>
      </trkpt>
      <trkpt lat="41.804420" lon="2.870155">
        <ele>152.0</ele>
        <time>2019-01-14T00:08:50Z</time>
      </trkpt>
      <trkpt lat="41.804334" lon="2.870075">
        <ele>153.0</ele>
        <time>2019-01-14T00:08:51Z</time>
      </trkpt>
      <trkpt lat="41.804251" lon="2.870000">
        <ele>153.0</ele>
        <time>2019-01-14T00:08:53Z</time>
      </trkpt>
      <trkpt lat="41.804170" lon="2.869923">
        <ele>153.0</ele>
        <time>2019-01-14T00:08:54Z</time>
      </trkpt>
      <trkpt lat="41.804089" lon="2.869847">
        <ele>153.0</ele>
        <time>2019-01-14T00:08:56Z</time>
      </trkpt>
      <trkpt lat="41.804007" lon="2.869770">
        <ele>153.0</ele>
        <time>2019-01-14T00:08:58Z</time>
      </trkpt>
      <trkpt lat="41.803925" lon="2.869690">
        <ele>153.0</ele>
        <time>2019-01-14T00:08:59Z</time>
      </trkpt>
      <trkpt lat="41.803842" lon="2.869614">
        <ele>153.0</ele>
        <time>2019-01-14T00:09:01Z</time>
      </trkpt>
      <trkpt lat="41.803760" lon="2.869538">
        <ele>154.0</ele>
        <time>2019-01-14T00:09:02Z</time>
      </trkpt>
      <trkpt lat="41.803676" lon="2.869461">
        <ele>154.0</ele>
        <time>2019-01-14T00:09:04Z</time>
      </trkpt>
      <trkpt lat="41.803595" lon="2.869383">
        <ele>154.0</ele>
        <time>2019-01-14T00:09:06Z</time>
      </trkpt>
      <trkpt lat="41.803514" lon="2.869303">
        <ele>154.0</ele>
        <time>2019-01-14T00:09:07Z</time>
      </trkpt>
      <trkpt lat="41.803431" lon="2.869229">
        <ele>154.0</ele>
        <time>2019-01-14T00:09:09Z</time>
      </trkpt>
      <trkpt lat="41.803351" lon="2.869152">
        <ele>154.0</ele>
        <time>2019-01-14T00:09:10Z</time>
      </trkpt>
      <trkpt lat="41.803271" lon="2.869078">
        <ele>155.0</ele>
        <time>2019-01-14T00:09:12Z</time>
      </trkpt>
      <trkpt lat="41.803190" lon="2.869004">
        <ele>155.0</ele>
        <time>2019-01-14T00:09:14Z</time>
      </trkpt>
      <trkpt lat="41.802719" lon="2.868570">
        <ele>156.0</ele>
        <time>2019-01-14T00:09:23Z</time>
      </trkpt>
      <trkpt lat="41.802362" lon="2.868215">
        <ele>158.0</ele>
        <time>2019-01-14T00:09:30Z</time>
      </trkpt>
      <trkpt lat="41.802293" lon="2.868140">
        <ele>158.0</ele>
        <time>2019-01-14T00:09:31Z</time>
      </trkpt>
      <trkpt lat="41.802225" lon="2.868061">
        <ele>158.0</ele>
        <time>2019-01-14T00:09:33Z</time>
      </trkpt>
      <trkpt lat="41.802156" lon="2.867984">
        <ele>158.0</ele>
        <time>2019-01-14T00:09:34Z</time>
      </trkpt>
      <trkpt lat="41.802093" lon="2.867900">
        <ele>159.0</ele>
        <time>2019-01-14T00:09:36Z</time>
      </trkpt>
      <trkpt lat="41.801974" lon="2.867714">
        <ele>159.0</ele>
        <time>2019-01-14T00:09:38Z</time>
      </trkpt>
      <trkpt lat="41.801915" lon="2.867626">
        <ele>159.0</ele>
        <time>2019-01-14T00:09:40Z</time>
      </trkpt>
      <trkpt lat="41.801857" lon="2.867539">
        <ele>159.0</ele>
        <time>2019-01-14T00:09:41Z</time>
      </trkpt>
      <trkpt lat="41.801799" lon="2.867451">
        <ele>160.0</ele>
        <time>2019-01-14T00:09:43Z</time>
      </trkpt>
      <trkpt lat="41.801744" lon="2.867364">
        <ele>160.0</ele>
        <time>2019-01-14T00:09:44Z</time>
      </trkpt>
      <trkpt lat="41.801471" lon="2.866957">
        <ele>161.0</ele>
        <time>2019-01-14T00:09:51Z</time>
      </trkpt>
      <trkpt lat="41.801371" lon="2.866806">
        <ele>161.0</ele>
        <time>2019-01-14T00:09:53Z</time>
      </trkpt>
      <trkpt lat="41.801325" lon="2.866734">
        <ele>162.0</ele>
        <time>2019-01-14T00:09:54Z</time>
      </trkpt>
      <trkpt lat="41.801277" lon="2.866661">
        <ele>162.0</ele>
        <time>2019-01-14T00:09:55Z</time>
      </trkpt>
      <trkpt lat="41.801232" lon="2.866596">
        <ele>162.0</ele>
        <time>2019-01-14T00:09:56Z</time>
      </trkpt>
      <trkpt lat="41.801190" lon="2.866528">
        <ele>162.0</ele>
        <time>2019-01-14T00:09:57Z</time>
      </trkpt>
      <trkpt lat="41.801104" lon="2.866398">
        <ele>163.0</ele>
        <time>2019-01-14T00:09:59Z</time>
      </trkpt>
      <trkpt lat="41.800939" lon="2.866160">
        <ele>163.0</ele>
        <time>2019-01-14T00:10:03Z</time>
      </trkpt>
      <trkpt lat="41.800902" lon="2.866106">
        <ele>164.0</ele>
        <time>2019-01-14T00:10:04Z</time>
      </trkpt>
      <trkpt lat="41.800866" lon="2.866043">
        <ele>164.0</ele>
        <time>2019-01-14T00:10:05Z</time>
      </trkpt>
      <trkpt lat="41.800830" lon="2.865981">
        <ele>164.0</ele>
        <time>2019-01-14T00:10:06Z</time>
      </trkpt>
      <trkpt lat="41.800794" lon="2.865920">
        <ele>164.0</ele>
        <time>2019-01-14T00:10:07Z</time>
      </trkpt>
      <trkpt lat="41.800759" lon="2.865858">
        <ele>164.0</ele>
        <time>2019-01-14T00:10:08Z</time>
      </trkpt>
      <trkpt lat="41.800527" lon="2.865495">
        <ele>165.0</ele>
        <time>2019-01-14T00:10:14Z</time>
      </trkpt>
      <trkpt lat="41.800360" lon="2.865253">
        <ele>166.0</ele>
        <time>2019-01-14T00:10:18Z</time>
      </trkpt>
      <trkpt lat="41.800318" lon="2.865187">
        <ele>166.0</ele>
        <time>2019-01-14T00:10:19Z</time>
      </trkpt>
      <trkpt lat="41.800277" lon="2.865125">
        <ele>166.0</ele>
        <time>2019-01-14T00:10:20Z</time>
      </trkpt>
      <trkpt lat="41.800234" lon="2.865062">
        <ele>166.0</ele>
        <time>2019-01-14T00:10:21Z</time>
      </trkpt>
      <trkpt lat="41.800190" lon="2.864999">
        <ele>167.0</ele>
        <time>2019-01-14T00:10:22Z</time>
      </trkpt>
      <trkpt lat="41.800103" lon="2.864877">
        <ele>167.0</ele>
        <time>2019-01-14T00:10:24Z</time>
      </trkpt>
      <trkpt lat="41.800060" lon="2.864811">
        <ele>167.0</ele>
        <time>2019-01-14T00:10:25Z</time>
      </trkpt>
      <trkpt lat="41.800015" lon="2.864742">
        <ele>167.0</ele>
        <time>2019-01-14T00:10:26Z</time>
      </trkpt>
      <trkpt lat="41.799970" lon="2.864675">
        <ele>167.0</ele>
        <time>2019-01-14T00:10:27Z</time>
      </trkpt>
      <trkpt lat="41.799925" lon="2.864609">
        <ele>167.0</ele>
        <time>2019-01-14T00:10:28Z</time>
      </trkpt>
      <trkpt lat="41.799882" lon="2.864544">
        <ele>168.0</ele>
        <time>2019-01-14T00:10:29Z</time>
      </trkpt>
      <trkpt lat="41.799493" lon="2.863961">
        <ele>169.0</ele>
        <time>2019-01-14T00:10:38Z</time>
      </trkpt>
      <trkpt lat="41.799406" lon="2.863830">
        <ele>169.0</ele>
        <time>2019-01-14T00:10:40Z</time>
      </trkpt>
      <trkpt lat="41.799363" lon="2.863762">
        <ele>170.0</ele>
        <time>2019-01-14T00:10:41Z</time>
      </trkpt>
      <trkpt lat="41.799321" lon="2.863694">
        <ele>170.0</ele>
        <time>2019-01-14T00:10:43Z</time>
      </trkpt>
      <trkpt lat="41.799279" lon="2.863625">
        <ele>170.0</ele>
        <time>2019-01-14T00:10:44Z</time>
      </trkpt>
      <trkpt lat="41.799239" lon="2.863557">
        <ele>170.0</ele>
        <time>2019-01-14T00:10:45Z</time>
      </trkpt>
      <trkpt lat="41.799137" lon="2.863342">
        <ele>170.0</ele>
        <time>2019-01-14T00:10:48Z</time>
      </trkpt>
      <trkpt lat="41.799041" lon="2.862951">
        <ele>172.0</ele>
        <time>2019-01-14T00:10:53Z</time>
      </trkpt>
      <trkpt lat="41.799008" lon="2.862731">
        <ele>172.0</ele>
        <time>2019-01-14T00:10:55Z</time>
      </trkpt>
      <trkpt lat="41.799000" lon="2.862665">
        <ele>173.0</ele>
        <time>2019-01-14T00:10:56Z</time>
      </trkpt>
      <trkpt lat="41.798995" lon="2.862603">
        <ele>173.0</ele>
        <time>2019-01-14T00:10:57Z</time>
      </trkpt>
      <trkpt lat="41.798990" lon="2.862546">
        <ele>173.0</ele>
        <time>2019-01-14T00:10:58Z</time>
      </trkpt>
      <trkpt lat="41.798985" lon="2.862489">
        <ele>173.0</ele>
        <time>2019-01-14T00:10:58Z</time>
      </trkpt>
      <trkpt lat="41.798979" lon="2.862433">
        <ele>173.0</ele>
        <time>2019-01-14T00:10:59Z</time>
      </trkpt>
      <trkpt lat="41.798972" lon="2.862375">
        <ele>173.0</ele>
        <time>2019-01-14T00:11:00Z</time>
      </trkpt>
      <trkpt lat="41.798965" lon="2.862316">
        <ele>174.0</ele>
        <time>2019-01-14T00:11:00Z</time>
      </trkpt>
      <trkpt lat="41.798956" lon="2.862254">
        <ele>174.0</ele>
        <time>2019-01-14T00:11:01Z</time>
      </trkpt>
      <trkpt lat="41.798949" lon="2.862197">
        <ele>174.0</ele>
        <time>2019-01-14T00:11:02Z</time>
      </trkpt>
      <trkpt lat="41.798946" lon="2.862145">
        <ele>174.0</ele>
        <time>2019-01-14T00:11:02Z</time>
      </trkpt>
      <trkpt lat="41.798907" lon="2.861902">
        <ele>175.0</ele>
        <time>2019-01-14T00:11:05Z</time>
      </trkpt>
      <trkpt lat="41.798894" lon="2.861857">
        <ele>175.0</ele>
        <time>2019-01-14T00:11:06Z</time>
      </trkpt>
      <trkpt lat="41.798881" lon="2.861812">
        <ele>176.0</ele>
        <time>2019-01-14T00:11:06Z</time>
      </trkpt>
      <trkpt lat="41.798867" lon="2.861767">
        <ele>176.0</ele>
        <time>2019-01-14T00:11:07Z</time>
      </trkpt>
      <trkpt lat="41.798769" lon="2.861451">
        <ele>178.0</ele>
        <time>2019-01-14T00:11:11Z</time>
      </trkpt>
      <trkpt lat="41.798751" lon="2.861407">
        <ele>178.0</ele>
        <time>2019-01-14T00:11:12Z</time>
      </trkpt>
      <trkpt lat="41.798733" lon="2.861364">
        <ele>178.0</ele>
        <time>2019-01-14T00:11:12Z</time>
      </trkpt>
      <trkpt lat="41.798714" lon="2.861323">
        <ele>178.0</ele>
        <time>2019-01-14T00:11:13Z</time>
      </trkpt>
      <trkpt lat="41.798696" lon="2.861282">
        <ele>178.0</ele>
        <time>2019-01-14T00:11:13Z</time>
      </trkpt>
      <trkpt lat="41.798679" lon="2.861234">
        <ele>179.0</ele>
        <time>2019-01-14T00:11:14Z</time>
      </trkpt>
      <trkpt lat="41.798630" lon="2.861102">
        <ele>179.0</ele>
        <time>2019-01-14T00:11:16Z</time>
      </trkpt>
      <trkpt lat="41.798598" lon="2.861017">
        <ele>180.0</ele>
        <time>2019-01-14T00:11:17Z</time>
      </trkpt>
      <trkpt lat="41.798582" lon="2.860979">
        <ele>180.0</ele>
        <time>2019-01-14T00:11:18Z</time>
      </trkpt>
      <trkpt lat="41.798566" lon="2.860934">
        <ele>180.0</ele>
        <time>2019-01-14T00:11:18Z</time>
      </trkpt>
      <trkpt lat="41.798547" lon="2.860892">
        <ele>181.0</ele>
        <time>2019-01-14T00:11:19Z</time>
      </trkpt>
      <trkpt lat="41.798530" lon="2.860855">
        <ele>181.0</ele>
        <time>2019-01-14T00:11:19Z</time>
      </trkpt>
      <trkpt lat="41.798448" lon="2.860703">
        <ele>182.0</ele>
        <time>2019-01-14T00:11:21Z</time>
      </trkpt>
      <trkpt lat="41.798426" lon="2.860668">
        <ele>182.0</ele>
        <time>2019-01-14T00:11:22Z</time>
      </trkpt>
      <trkpt lat="41.798403" lon="2.860633">
        <ele>183.0</ele>
        <time>2019-01-14T00:11:23Z</time>
      </trkpt>
      <trkpt lat="41.798383" lon="2.860592">
        <ele>183.0</ele>
        <time>2019-01-14T00:11:23Z</time>
      </trkpt>
      <trkpt lat="41.798361" lon="2.860555">
        <ele>183.0</ele>
        <time>2019-01-14T00:11:24Z</time>
      </trkpt>
      <trkpt lat="41.798294" lon="2.860451">
        <ele>184.0</ele>
        <time>2019-01-14T00:11:25Z</time>
      </trkpt>
      <trkpt lat="41.798269" lon="2.860418">
        <ele>184.0</ele>
        <time>2019-01-14T00:11:26Z</time>
      </trkpt>
      <trkpt lat="41.798242" lon="2.860388">
        <ele>184.0</ele>
        <time>2019-01-14T00:11:26Z</time>
      </trkpt>
      <trkpt lat="41.798212" lon="2.860360">
        <ele>185.0</ele>
        <time>2019-01-14T00:11:27Z</time>
      </trkpt>
      <trkpt lat="41.798181" lon="2.860334">
        <ele>185.0</ele>
        <time>2019-01-14T00:11:28Z</time>
      </trkpt>
      <trkpt lat="41.798057" lon="2.860257">
        <ele>186.0</ele>
        <time>2019-01-14T00:11:30Z</time>
      </trkpt>
      <trkpt lat="41.798023" lon="2.860238">
        <ele>186.0</ele>
        <time>2019-01-14T00:11:30Z</time>
      </trkpt>
      <trkpt lat="41.797988" lon="2.860221">
        <ele>186.0</ele>
        <time>2019-01-14T00:11:31Z</time>
      </trkpt>
      <trkpt lat="41.797954" lon="2.860213">
        <ele>187.0</ele>
        <time>2019-01-14T00:11:32Z</time>
      </trkpt>
      <trkpt lat="41.797917" lon="2.860200">
        <ele>187.0</ele>
        <time>2019-01-14T00:11:32Z</time>
      </trkpt>
      <trkpt lat="41.797783" lon="2.860190">
        <ele>188.0</ele>
        <time>2019-01-14T00:11:34Z</time>
      </trkpt>
      <trkpt lat="41.797750" lon="2.860195">
        <ele>188.0</ele>
        <time>2019-01-14T00:11:35Z</time>
      </trkpt>
      <trkpt lat="41.797714" lon="2.860204">
        <ele>188.0</ele>
        <time>2019-01-14T00:11:35Z</time>
      </trkpt>
      <trkpt lat="41.797684" lon="2.860215">
        <ele>189.0</ele>
        <time>2019-01-14T00:11:36Z</time>
      </trkpt>
      <trkpt lat="41.797587" lon="2.860244">
        <ele>189.0</ele>
        <time>2019-01-14T00:11:38Z</time>
      </trkpt>
      <trkpt lat="41.797556" lon="2.860254">
        <ele>190.0</ele>
        <time>2019-01-14T00:11:38Z</time>
      </trkpt>
      <trkpt lat="41.797527" lon="2.860267">
        <ele>190.0</ele>
        <time>2019-01-14T00:11:39Z</time>
      </trkpt>
      <trkpt lat="41.797498" lon="2.860283">
        <ele>190.0</ele>
        <time>2019-01-14T00:11:39Z</time>
      </trkpt>
      <trkpt lat="41.797467" lon="2.860302">
        <ele>190.0</ele>
        <time>2019-01-14T00:11:40Z</time>
      </trkpt>
      <trkpt lat="41.797439" lon="2.860323">
        <ele>190.0</ele>
        <time>2019-01-14T00:11:40Z</time>
      </trkpt>
      <trkpt lat="41.797353" lon="2.860374">
        <ele>191.0</ele>
        <time>2019-01-14T00:11:42Z</time>
      </trkpt>
      <trkpt lat="41.797263" lon="2.860432">
        <ele>192.0</ele>
        <time>2019-01-14T00:11:43Z</time>
      </trkpt>
      <trkpt lat="41.797234" lon="2.860450">
        <ele>192.0</ele>
        <time>2019-01-14T00:11:44Z</time>
      </trkpt>
      <trkpt lat="41.797207" lon="2.860468">
        <ele>192.0</ele>
        <time>2019-01-14T00:11:44Z</time>
      </trkpt>
      <trkpt lat="41.797179" lon="2.860487">
        <ele>192.0</ele>
        <time>2019-01-14T00:11:45Z</time>
      </trkpt>
      <trkpt lat="41.797151" lon="2.860502">
        <ele>193.0</ele>
        <time>2019-01-14T00:11:45Z</time>
      </trkpt>
      <trkpt lat="41.797097" lon="2.860536">
        <ele>193.0</ele>
        <time>2019-01-14T00:11:46Z</time>
      </trkpt>
      <trkpt lat="41.797043" lon="2.860575">
        <ele>194.0</ele>
        <time>2019-01-14T00:11:47Z</time>
      </trkpt>
      <trkpt lat="41.797017" lon="2.860596">
        <ele>194.0</ele>
        <time>2019-01-14T00:11:48Z</time>
      </trkpt>
      <trkpt lat="41.796989" lon="2.860615">
        <ele>194.0</ele>
        <time>2019-01-14T00:11:48Z</time>
      </trkpt>
      <trkpt lat="41.796961" lon="2.860634">
        <ele>194.0</ele>
        <time>2019-01-14T00:11:49Z</time>
      </trkpt>
      <trkpt lat="41.796856" lon="2.860709">
        <ele>195.0</ele>
        <time>2019-01-14T00:11:50Z</time>
      </trkpt>
      <trkpt lat="41.796832" lon="2.860729">
        <ele>196.0</ele>
        <time>2019-01-14T00:11:51Z</time>
      </trkpt>
      <trkpt lat="41.796804" lon="2.860749">
        <ele>196.0</ele>
        <time>2019-01-14T00:11:51Z</time>
      </trkpt>
      <trkpt lat="41.796779" lon="2.860771">
        <ele>196.0</ele>
        <time>2019-01-14T00:11:52Z</time>
      </trkpt>
      <trkpt lat="41.796752" lon="2.860789">
        <ele>196.0</ele>
        <time>2019-01-14T00:11:52Z</time>
      </trkpt>
      <trkpt lat="41.796664" lon="2.860844">
        <ele>197.0</ele>
        <time>2019-01-14T00:11:54Z</time>
      </trkpt>
      <trkpt lat="41.796581" lon="2.860909">
        <ele>197.0</ele>
        <time>2019-01-14T00:11:56Z</time>
      </trkpt>
      <trkpt lat="41.796551" lon="2.860928">
        <ele>198.0</ele>
        <time>2019-01-14T00:11:56Z</time>
      </trkpt>
      <trkpt lat="41.796520" lon="2.860946">
        <ele>198.0</ele>
        <time>2019-01-14T00:11:57Z</time>
      </trkpt>
      <trkpt lat="41.796489" lon="2.860966">
        <ele>198.0</ele>
        <time>2019-01-14T00:11:57Z</time>
      </trkpt>
      <trkpt lat="41.796457" lon="2.860984">
        <ele>198.0</ele>
        <time>2019-01-14T00:11:58Z</time>
      </trkpt>
      <trkpt lat="41.796389" lon="2.861009">
        <ele>199.0</ele>
        <time>2019-01-14T00:11:59Z</time>
      </trkpt>
      <trkpt lat="41.796294" lon="2.861039">
        <ele>200.0</ele>
        <time>2019-01-14T00:12:00Z</time>
      </trkpt>
      <trkpt lat="41.796261" lon="2.861046">
        <ele>200.0</ele>
        <time>2019-01-14T00:12:01Z</time>
      </trkpt>
      <trkpt lat="41.796227" lon="2.861045">
        <ele>200.0</ele>
        <time>2019-01-14T00:12:01Z</time>
      </trkpt>
      <trkpt lat="41.796194" lon="2.861048">
        <ele>200.0</ele>
        <time>2019-01-14T00:12:02Z</time>
      </trkpt>
      <trkpt lat="41.796159" lon="2.861053">
        <ele>200.0</ele>
        <time>2019-01-14T00:12:03Z</time>
      </trkpt>
      <trkpt lat="41.795958" lon="2.861014">
        <ele>202.0</ele>
        <time>2019-01-14T00:12:06Z</time>
      </trkpt>
      <trkpt lat="41.795926" lon="2.860998">
        <ele>202.0</ele>
        <time>2019-01-14T00:12:06Z</time>
      </trkpt>
      <trkpt lat="41.795896" lon="2.860980">
        <ele>202.0</ele>
        <time>2019-01-14T00:12:07Z</time>
      </trkpt>
      <trkpt lat="41.795864" lon="2.860961">
        <ele>202.0</ele>
        <time>2019-01-14T00:12:07Z</time>
      </trkpt>
      <trkpt lat="41.795832" lon="2.860941">
        <ele>202.0</ele>
        <time>2019-01-14T00:12:08Z</time>
      </trkpt>
      <trkpt lat="41.795675" lon="2.860830">
        <ele>203.0</ele>
        <time>2019-01-14T00:12:11Z</time>
      </trkpt>
      <trkpt lat="41.795614" lon="2.860781">
        <ele>204.0</ele>
        <time>2019-01-14T00:12:12Z</time>
      </trkpt>
      <trkpt lat="41.795584" lon="2.860755">
        <ele>204.0</ele>
        <time>2019-01-14T00:12:13Z</time>
      </trkpt>
      <trkpt lat="41.795555" lon="2.860730">
        <ele>204.0</ele>
        <time>2019-01-14T00:12:13Z</time>
      </trkpt>
      <trkpt lat="41.795526" lon="2.860707">
        <ele>204.0</ele>
        <time>2019-01-14T00:12:14Z</time>
      </trkpt>
      <trkpt lat="41.795494" lon="2.860683">
        <ele>205.0</ele>
        <time>2019-01-14T00:12:14Z</time>
      </trkpt>
      <trkpt lat="41.795408" lon="2.860620">
        <ele>205.0</ele>
        <time>2019-01-14T00:12:16Z</time>
      </trkpt>
      <trkpt lat="41.795269" lon="2.860506">
        <ele>206.0</ele>
        <time>2019-01-14T00:12:18Z</time>
      </trkpt>
      <trkpt lat="41.795242" lon="2.860483">
        <ele>206.0</ele>
        <time>2019-01-14T00:12:19Z</time>
      </trkpt>
      <trkpt lat="41.795215" lon="2.860459">
        <ele>207.0</ele>
        <time>2019-01-14T00:12:19Z</time>
      </trkpt>
      <trkpt lat="41.795189" lon="2.860434">
        <ele>207.0</ele>
        <time>2019-01-14T00:12:20Z</time>
      </trkpt>
      <trkpt lat="41.795161" lon="2.860412">
        <ele>207.0</ele>
        <time>2019-01-14T00:12:20Z</time>
      </trkpt>
      <trkpt lat="41.795047" lon="2.860326">
        <ele>208.0</ele>
        <time>2019-01-14T00:12:23Z</time>
      </trkpt>
      <trkpt lat="41.795018" lon="2.860304">
        <ele>208.0</ele>
        <time>2019-01-14T00:12:23Z</time>
      </trkpt>
      <trkpt lat="41.794991" lon="2.860282">
        <ele>208.0</ele>
        <time>2019-01-14T00:12:24Z</time>
      </trkpt>
      <trkpt lat="41.794964" lon="2.860260">
        <ele>209.0</ele>
        <time>2019-01-14T00:12:24Z</time>
      </trkpt>
      <trkpt lat="41.794936" lon="2.860239">
        <ele>209.0</ele>
        <time>2019-01-14T00:12:25Z</time>
      </trkpt>
      <trkpt lat="41.794825" lon="2.860146">
        <ele>210.0</ele>
        <time>2019-01-14T00:12:27Z</time>
      </trkpt>
      <trkpt lat="41.794798" lon="2.860124">
        <ele>210.0</ele>
        <time>2019-01-14T00:12:27Z</time>
      </trkpt>
      <trkpt lat="41.794770" lon="2.860101">
        <ele>210.0</ele>
        <time>2019-01-14T00:12:28Z</time>
      </trkpt>
      <trkpt lat="41.794741" lon="2.860079">
        <ele>211.0</ele>
        <time>2019-01-14T00:12:28Z</time>
      </trkpt>
      <trkpt lat="41.794657" lon="2.860020">
        <ele>211.0</ele>
        <time>2019-01-14T00:12:30Z</time>
      </trkpt>
      <trkpt lat="41.794628" lon="2.860000">
        <ele>212.0</ele>
        <time>2019-01-14T00:12:30Z</time>
      </trkpt>
      <trkpt lat="41.794602" lon="2.859981">
        <ele>212.0</ele>
        <time>2019-01-14T00:12:31Z</time>
      </trkpt>
      <trkpt lat="41.794577" lon="2.859960">
        <ele>212.0</ele>
        <time>2019-01-14T00:12:31Z</time>
      </trkpt>
      <trkpt lat="41.794550" lon="2.859941">
        <ele>212.0</ele>
        <time>2019-01-14T00:12:32Z</time>
      </trkpt>
      <trkpt lat="41.794524" lon="2.859919">
        <ele>213.0</ele>
        <time>2019-01-14T00:12:32Z</time>
      </trkpt>
      <trkpt lat="41.794441" lon="2.859860">
        <ele>213.0</ele>
        <time>2019-01-14T00:12:34Z</time>
      </trkpt>
      <trkpt lat="41.794412" lon="2.859844">
        <ele>214.0</ele>
        <time>2019-01-14T00:12:34Z</time>
      </trkpt>
      <trkpt lat="41.794385" lon="2.859828">
        <ele>214.0</ele>
        <time>2019-01-14T00:12:35Z</time>
      </trkpt>
      <trkpt lat="41.794359" lon="2.859817">
        <ele>214.0</ele>
        <time>2019-01-14T00:12:35Z</time>
      </trkpt>
      <trkpt lat="41.794329" lon="2.859809">
        <ele>214.0</ele>
        <time>2019-01-14T00:12:36Z</time>
      </trkpt>
      <trkpt lat="41.794215" lon="2.859782">
        <ele>215.0</ele>
        <time>2019-01-14T00:12:37Z</time>
      </trkpt>
      <trkpt lat="41.794185" lon="2.859777">
        <ele>216.0</ele>
        <time>2019-01-14T00:12:38Z</time>
      </trkpt>
      <trkpt lat="41.794156" lon="2.859774">
        <ele>216.0</ele>
        <time>2019-01-14T00:12:38Z</time>
      </trkpt>
      <trkpt lat="41.794126" lon="2.859773">
        <ele>216.0</ele>
        <time>2019-01-14T00:12:39Z</time>
      </trkpt>
      <trkpt lat="41.793979" lon="2.859851">
        <ele>218.0</ele>
        <time>2019-01-14T00:12:41Z</time>
      </trkpt>
      <trkpt lat="41.793951" lon="2.859870">
        <ele>218.0</ele>
        <time>2019-01-14T00:12:42Z</time>
      </trkpt>
      <trkpt lat="41.793926" lon="2.859890">
        <ele>218.0</ele>
        <time>2019-01-14T00:12:42Z</time>
      </trkpt>
      <trkpt lat="41.793900" lon="2.859911">
        <ele>218.0</ele>
        <time>2019-01-14T00:12:43Z</time>
      </trkpt>
      <trkpt lat="41.793875" lon="2.859933">
        <ele>218.0</ele>
        <time>2019-01-14T00:12:43Z</time>
      </trkpt>
      <trkpt lat="41.793850" lon="2.859960">
        <ele>219.0</ele>
        <time>2019-01-14T00:12:44Z</time>
      </trkpt>
      <trkpt lat="41.793802" lon="2.860015">
        <ele>219.0</ele>
        <time>2019-01-14T00:12:45Z</time>
      </trkpt>
      <trkpt lat="41.793755" lon="2.860072">
        <ele>220.0</ele>
        <time>2019-01-14T00:12:46Z</time>
      </trkpt>
      <trkpt lat="41.793733" lon="2.860101">
        <ele>220.0</ele>
        <time>2019-01-14T00:12:46Z</time>
      </trkpt>
      <trkpt lat="41.793711" lon="2.860131">
        <ele>220.0</ele>
        <time>2019-01-14T00:12:47Z</time>
      </trkpt>
      <trkpt lat="41.793690" lon="2.860162">
        <ele>221.0</ele>
        <time>2019-01-14T00:12:47Z</time>
      </trkpt>
      <trkpt lat="41.793671" lon="2.860192">
        <ele>221.0</ele>
        <time>2019-01-14T00:12:48Z</time>
      </trkpt>
      <trkpt lat="41.793577" lon="2.860296">
        <ele>222.0</ele>
        <time>2019-01-14T00:12:50Z</time>
      </trkpt>
      <trkpt lat="41.793530" lon="2.860344">
        <ele>222.0</ele>
        <time>2019-01-14T00:12:51Z</time>
      </trkpt>
      <trkpt lat="41.793506" lon="2.860367">
        <ele>222.0</ele>
        <time>2019-01-14T00:12:51Z</time>
      </trkpt>
      <trkpt lat="41.793481" lon="2.860388">
        <ele>222.0</ele>
        <time>2019-01-14T00:12:52Z</time>
      </trkpt>
      <trkpt lat="41.793454" lon="2.860409">
        <ele>223.0</ele>
        <time>2019-01-14T00:12:52Z</time>
      </trkpt>
      <trkpt lat="41.793372" lon="2.860454">
        <ele>223.0</ele>
        <time>2019-01-14T00:12:54Z</time>
      </trkpt>
      <trkpt lat="41.793316" lon="2.860476">
        <ele>224.0</ele>
        <time>2019-01-14T00:12:55Z</time>
      </trkpt>
      <trkpt lat="41.793286" lon="2.860481">
        <ele>224.0</ele>
        <time>2019-01-14T00:12:55Z</time>
      </trkpt>
      <trkpt lat="41.793253" lon="2.860487">
        <ele>224.0</ele>
        <time>2019-01-14T00:12:56Z</time>
      </trkpt>
      <trkpt lat="41.793223" lon="2.860493">
        <ele>224.0</ele>
        <time>2019-01-14T00:12:56Z</time>
      </trkpt>
      <trkpt lat="41.793195" lon="2.860500">
        <ele>225.0</ele>
        <time>2019-01-14T00:12:57Z</time>
      </trkpt>
      <trkpt lat="41.793170" lon="2.860503">
        <ele>225.0</ele>
        <time>2019-01-14T00:12:57Z</time>
      </trkpt>
      <trkpt lat="41.793076" lon="2.860521">
        <ele>226.0</ele>
        <time>2019-01-14T00:12:58Z</time>
      </trkpt>
      <trkpt lat="41.793048" lon="2.860515">
        <ele>226.0</ele>
        <time>2019-01-14T00:12:59Z</time>
      </trkpt>
      <trkpt lat="41.793018" lon="2.860510">
        <ele>226.0</ele>
        <time>2019-01-14T00:12:59Z</time>
      </trkpt>
      <trkpt lat="41.792986" lon="2.860506">
        <ele>226.0</ele>
        <time>2019-01-14T00:13:00Z</time>
      </trkpt>
      <trkpt lat="41.792955" lon="2.860506">
        <ele>227.0</ele>
        <time>2019-01-14T00:13:00Z</time>
      </trkpt>
      <trkpt lat="41.792893" lon="2.860505">
        <ele>227.0</ele>
        <time>2019-01-14T00:13:01Z</time>
      </trkpt>
      <trkpt lat="41.792769" lon="2.860508">
        <ele>228.0</ele>
        <time>2019-01-14T00:13:03Z</time>
      </trkpt>
      <trkpt lat="41.792736" lon="2.860507">
        <ele>228.0</ele>
        <time>2019-01-14T00:13:04Z</time>
      </trkpt>
      <trkpt lat="41.792701" lon="2.860507">
        <ele>229.0</ele>
        <time>2019-01-14T00:13:04Z</time>
      </trkpt>
      <trkpt lat="41.792669" lon="2.860506">
        <ele>229.0</ele>
        <time>2019-01-14T00:13:05Z</time>
      </trkpt>
      <trkpt lat="41.792635" lon="2.860504">
        <ele>229.0</ele>
        <time>2019-01-14T00:13:06Z</time>
      </trkpt>
      <trkpt lat="41.792468" lon="2.860486">
        <ele>230.0</ele>
        <time>2019-01-14T00:13:08Z</time>
      </trkpt>
      <trkpt lat="41.792435" lon="2.860490">
        <ele>230.0</ele>
        <time>2019-01-14T00:13:09Z</time>
      </trkpt>
      <trkpt lat="41.792401" lon="2.860488">
        <ele>231.0</ele>
        <time>2019-01-14T00:13:09Z</time>
      </trkpt>
      <trkpt lat="41.792369" lon="2.860488">
        <ele>231.0</ele>
        <time>2019-01-14T00:13:10Z</time>
      </trkpt>
      <trkpt lat="41.792335" lon="2.860489">
        <ele>231.0</ele>
        <time>2019-01-14T00:13:10Z</time>
      </trkpt>
      <trkpt lat="41.792144" lon="2.860482">
        <ele>232.0</ele>
        <time>2019-01-14T00:13:13Z</time>
      </trkpt>
      <trkpt lat="41.792113" lon="2.860481">
        <ele>232.0</ele>
        <time>2019-01-14T00:13:14Z</time>
      </trkpt>
      <trkpt lat="41.792079" lon="2.860484">
        <ele>233.0</ele>
        <time>2019-01-14T00:13:14Z</time>
      </trkpt>
      <trkpt lat="41.792045" lon="2.860482">
        <ele>233.0</ele>
        <time>2019-01-14T00:13:15Z</time>
      </trkpt>
      <trkpt lat="41.792012" lon="2.860484">
        <ele>233.0</ele>
        <time>2019-01-14T00:13:16Z</time>
      </trkpt>
      <trkpt lat="41.791844" lon="2.860484">
        <ele>234.0</ele>
        <time>2019-01-14T00:13:18Z</time>
      </trkpt>
      <trkpt lat="41.791741" lon="2.860483">
        <ele>235.0</ele>
        <time>2019-01-14T00:13:20Z</time>
      </trkpt>
      <trkpt lat="41.791707" lon="2.860483">
        <ele>235.0</ele>
        <time>2019-01-14T00:13:20Z</time>
      </trkpt>
      <trkpt lat="41.791673" lon="2.860479">
        <ele>235.0</ele>
        <time>2019-01-14T00:13:21Z</time>
      </trkpt>
      <trkpt lat="41.791639" lon="2.860477">
        <ele>235.0</ele>
        <time>2019-01-14T00:13:21Z</time>
      </trkpt>
      <trkpt lat="41.791604" lon="2.860475">
        <ele>235.0</ele>
        <time>2019-01-14T00:13:22Z</time>
      </trkpt>
      <trkpt lat="41.791531" lon="2.860467">
        <ele>236.0</ele>
        <time>2019-01-14T00:13:23Z</time>
      </trkpt>
      <trkpt lat="41.791326" lon="2.860377">
        <ele>237.0</ele>
        <time>2019-01-14T00:13:27Z</time>
      </trkpt>
      <trkpt lat="41.791292" lon="2.860351">
        <ele>237.0</ele>
        <time>2019-01-14T00:13:27Z</time>
      </trkpt>
      <trkpt lat="41.791260" lon="2.860321">
        <ele>238.0</ele>
        <time>2019-01-14T00:13:28Z</time>
      </trkpt>
      <trkpt lat="41.791232" lon="2.860292">
        <ele>238.0</ele>
        <time>2019-01-14T00:13:28Z</time>
      </trkpt>
      <trkpt lat="41.791203" lon="2.860260">
        <ele>238.0</ele>
        <time>2019-01-14T00:13:29Z</time>
      </trkpt>
      <trkpt lat="41.791131" lon="2.860151">
        <ele>238.0</ele>
        <time>2019-01-14T00:13:31Z</time>
      </trkpt>
      <trkpt lat="41.791083" lon="2.860075">
        <ele>239.0</ele>
        <time>2019-01-14T00:13:32Z</time>
      </trkpt>
      <trkpt lat="41.791065" lon="2.860036">
        <ele>239.0</ele>
        <time>2019-01-14T00:13:33Z</time>
      </trkpt>
      <trkpt lat="41.791047" lon="2.859994">
        <ele>239.0</ele>
        <time>2019-01-14T00:13:33Z</time>
      </trkpt>
      <trkpt lat="41.791028" lon="2.859954">
        <ele>240.0</ele>
        <time>2019-01-14T00:13:34Z</time>
      </trkpt>
      <trkpt lat="41.791006" lon="2.859914">
        <ele>240.0</ele>
        <time>2019-01-14T00:13:34Z</time>
      </trkpt>
      <trkpt lat="41.790984" lon="2.859873">
        <ele>240.0</ele>
        <time>2019-01-14T00:13:35Z</time>
      </trkpt>
      <trkpt lat="41.790905" lon="2.859716">
        <ele>241.0</ele>
        <time>2019-01-14T00:13:37Z</time>
      </trkpt>
      <trkpt lat="41.790886" lon="2.859676">
        <ele>241.0</ele>
        <time>2019-01-14T00:13:38Z</time>
      </trkpt>
      <trkpt lat="41.790866" lon="2.859636">
        <ele>242.0</ele>
        <time>2019-01-14T00:13:38Z</time>
      </trkpt>
      <trkpt lat="41.790843" lon="2.859597">
        <ele>242.0</ele>
        <time>2019-01-14T00:13:39Z</time>
      </trkpt>
      <trkpt lat="41.790818" lon="2.859559">
        <ele>242.0</ele>
        <time>2019-01-14T00:13:39Z</time>
      </trkpt>
      <trkpt lat="41.790643" lon="2.859360">
        <ele>244.0</ele>
        <time>2019-01-14T00:13:43Z</time>
      </trkpt>
      <trkpt lat="41.790609" lon="2.859337">
        <ele>244.0</ele>
        <time>2019-01-14T00:13:44Z</time>
      </trkpt>
      <trkpt lat="41.790575" lon="2.859313">
        <ele>244.0</ele>
        <time>2019-01-14T00:13:44Z</time>
      </trkpt>
      <trkpt lat="41.790539" lon="2.859288">
        <ele>244.0</ele>
        <time>2019-01-14T00:13:45Z</time>
      </trkpt>
      <trkpt lat="41.790469" lon="2.859244">
        <ele>245.0</ele>
        <time>2019-01-14T00:13:46Z</time>
      </trkpt>
      <trkpt lat="41.790273" lon="2.859212">
        <ele>245.0</ele>
        <time>2019-01-14T00:13:49Z</time>
      </trkpt>
      <trkpt lat="41.790157" lon="2.859234">
        <ele>246.0</ele>
        <time>2019-01-14T00:13:51Z</time>
      </trkpt>
      <trkpt lat="41.790116" lon="2.859246">
        <ele>246.0</ele>
        <time>2019-01-14T00:13:52Z</time>
      </trkpt>
      <trkpt lat="41.790076" lon="2.859262">
        <ele>246.0</ele>
        <time>2019-01-14T00:13:53Z</time>
      </trkpt>
      <trkpt lat="41.790035" lon="2.859279">
        <ele>246.0</ele>
        <time>2019-01-14T00:13:53Z</time>
      </trkpt>
      <trkpt lat="41.789995" lon="2.859302">
        <ele>246.0</ele>
        <time>2019-01-14T00:13:54Z</time>
      </trkpt>
      <trkpt lat="41.789845" lon="2.859402">
        <ele>246.0</ele>
        <time>2019-01-14T00:13:57Z</time>
      </trkpt>
      <trkpt lat="41.789812" lon="2.859437">
        <ele>247.0</ele>
        <time>2019-01-14T00:13:57Z</time>
      </trkpt>
      <trkpt lat="41.789600" lon="2.859733">
        <ele>247.0</ele>
        <time>2019-01-14T00:14:02Z</time>
      </trkpt>
      <trkpt lat="41.789481" lon="2.859931">
        <ele>248.0</ele>
        <time>2019-01-14T00:14:05Z</time>
      </trkpt>
      <trkpt lat="41.789447" lon="2.859978">
        <ele>248.0</ele>
        <time>2019-01-14T00:14:06Z</time>
      </trkpt>
      <trkpt lat="41.789367" lon="2.860068">
        <ele>248.0</ele>
        <time>2019-01-14T00:14:08Z</time>
      </trkpt>
      <trkpt lat="41.789321" lon="2.860105">
        <ele>248.0</ele>
        <time>2019-01-14T00:14:09Z</time>
      </trkpt>
      <trkpt lat="41.789164" lon="2.860136">
        <ele>248.0</ele>
        <time>2019-01-14T00:14:11Z</time>
      </trkpt>
      <trkpt lat="41.788978" lon="2.860016">
        <ele>248.0</ele>
        <time>2019-01-14T00:14:14Z</time>
      </trkpt>
      <trkpt lat="41.788867" lon="2.859861">
        <ele>248.0</ele>
        <time>2019-01-14T00:14:17Z</time>
      </trkpt>
      <trkpt lat="41.788756" lon="2.859703">
        <ele>249.0</ele>
        <time>2019-01-14T00:14:20Z</time>
      </trkpt>
      <trkpt lat="41.788615" lon="2.859607">
        <ele>249.0</ele>
        <time>2019-01-14T00:14:22Z</time>
      </trkpt>
      <trkpt lat="41.788563" lon="2.859593">
        <ele>249.0</ele>
        <time>2019-01-14T00:14:23Z</time>
      </trkpt>
      <trkpt lat="41.788356" lon="2.859671">
        <ele>249.0</ele>
        <time>2019-01-14T00:14:26Z</time>
      </trkpt>
      <trkpt lat="41.788257" lon="2.859849">
        <ele>249.0</ele>
        <time>2019-01-14T00:14:29Z</time>
      </trkpt>
      <trkpt lat="41.788238" lon="2.860003">
        <ele>249.0</ele>
        <time>2019-01-14T00:14:31Z</time>
      </trkpt>
      <trkpt lat="41.788236" lon="2.860082">
        <ele>249.0</ele>
        <time>2019-01-14T00:14:32Z</time>
      </trkpt>
      <trkpt lat="41.788237" lon="2.860161">
        <ele>249.0</ele>
        <time>2019-01-14T00:14:33Z</time>
      </trkpt>
      <trkpt lat="41.788238" lon="2.860242">
        <ele>249.0</ele>
        <time>2019-01-14T00:14:34Z</time>
      </trkpt>
      <trkpt lat="41.788239" lon="2.860325">
        <ele>249.0</ele>
        <time>2019-01-14T00:14:35Z</time>
      </trkpt>
      <trkpt lat="41.788233" lon="2.860407">
        <ele>249.0</ele>
        <time>2019-01-14T00:14:36Z</time>
      </trkpt>
      <trkpt lat="41.788203" lon="2.860578">
        <ele>249.0</ele>
        <time>2019-01-14T00:14:38Z</time>
      </trkpt>
      <trkpt lat="41.788074" lon="2.860761">
        <ele>249.0</ele>
        <time>2019-01-14T00:14:41Z</time>
      </trkpt>
      <trkpt lat="41.787891" lon="2.860800">
        <ele>249.0</ele>
        <time>2019-01-14T00:14:44Z</time>
      </trkpt>
      <trkpt lat="41.787830" lon="2.860778">
        <ele>249.0</ele>
        <time>2019-01-14T00:14:45Z</time>
      </trkpt>
      <trkpt lat="41.787766" lon="2.860744">
        <ele>249.0</ele>
        <time>2019-01-14T00:14:46Z</time>
      </trkpt>
      <trkpt lat="41.787710" lon="2.860705">
        <ele>249.0</ele>
        <time>2019-01-14T00:14:47Z</time>
      </trkpt>
      <trkpt lat="41.787658" lon="2.860665">
        <ele>249.0</ele>
        <time>2019-01-14T00:14:48Z</time>
      </trkpt>
      <trkpt lat="41.787608" lon="2.860626">
        <ele>249.0</ele>
        <time>2019-01-14T00:14:49Z</time>
      </trkpt>
      <trkpt lat="41.787453" lon="2.860520">
        <ele>249.0</ele>
        <time>2019-01-14T00:14:52Z</time>
      </trkpt>
      <trkpt lat="41.787400" lon="2.860498">
        <ele>249.0</ele>
        <time>2019-01-14T00:14:53Z</time>
      </trkpt>
      <trkpt lat="41.787166" lon="2.860536">
        <ele>249.0</ele>
        <time>2019-01-14T00:14:56Z</time>
      </trkpt>
      <trkpt lat="41.787029" lon="2.860691">
        <ele>249.0</ele>
        <time>2019-01-14T00:14:59Z</time>
      </trkpt>
      <trkpt lat="41.786930" lon="2.860910">
        <ele>249.0</ele>
        <time>2019-01-14T00:15:02Z</time>
      </trkpt>
      <trkpt lat="41.786871" lon="2.861058">
        <ele>249.0</ele>
        <time>2019-01-14T00:15:04Z</time>
      </trkpt>
      <trkpt lat="41.786656" lon="2.861489">
        <ele>249.0</ele>
        <time>2019-01-14T00:15:10Z</time>
      </trkpt>
      <trkpt lat="41.786608" lon="2.861552">
        <ele>249.0</ele>
        <time>2019-01-14T00:15:12Z</time>
      </trkpt>
      <trkpt lat="41.786433" lon="2.861665">
        <ele>249.0</ele>
        <time>2019-01-14T00:15:15Z</time>
      </trkpt>
      <trkpt lat="41.786308" lon="2.861693">
        <ele>249.0</ele>
        <time>2019-01-14T00:15:17Z</time>
      </trkpt>
      <trkpt lat="41.786244" lon="2.861703">
        <ele>249.0</ele>
        <time>2019-01-14T00:15:18Z</time>
      </trkpt>
      <trkpt lat="41.786180" lon="2.861712">
        <ele>249.0</ele>
        <time>2019-01-14T00:15:19Z</time>
      </trkpt>
      <trkpt lat="41.786117" lon="2.861719">
        <ele>249.0</ele>
        <time>2019-01-14T00:15:20Z</time>
      </trkpt>
      <trkpt lat="41.786053" lon="2.861729">
        <ele>249.0</ele>
        <time>2019-01-14T00:15:21Z</time>
      </trkpt>
      <trkpt lat="41.785856" lon="2.861799">
        <ele>249.0</ele>
        <time>2019-01-14T00:15:24Z</time>
      </trkpt>
      <trkpt lat="41.785792" lon="2.861839">
        <ele>249.0</ele>
        <time>2019-01-14T00:15:25Z</time>
      </trkpt>
      <trkpt lat="41.785623" lon="2.862030">
        <ele>249.0</ele>
        <time>2019-01-14T00:15:29Z</time>
      </trkpt>
      <trkpt lat="41.785532" lon="2.862208">
        <ele>248.0</ele>
        <time>2019-01-14T00:15:31Z</time>
      </trkpt>
      <trkpt lat="41.785493" lon="2.862315">
        <ele>248.0</ele>
        <time>2019-01-14T00:15:33Z</time>
      </trkpt>
      <trkpt lat="41.785458" lon="2.862423">
        <ele>248.0</ele>
        <time>2019-01-14T00:15:34Z</time>
      </trkpt>
      <trkpt lat="41.785422" lon="2.862538">
        <ele>248.0</ele>
        <time>2019-01-14T00:15:36Z</time>
      </trkpt>
      <trkpt lat="41.785380" lon="2.862655">
        <ele>248.0</ele>
        <time>2019-01-14T00:15:37Z</time>
      </trkpt>
      <trkpt lat="41.785323" lon="2.862764">
        <ele>248.0</ele>
        <time>2019-01-14T00:15:39Z</time>
      </trkpt>
      <trkpt lat="41.785245" lon="2.862852">
        <ele>248.0</ele>
        <time>2019-01-14T00:15:40Z</time>
      </trkpt>
      <trkpt lat="41.785152" lon="2.862897">
        <ele>248.0</ele>
        <time>2019-01-14T00:15:42Z</time>
      </trkpt>
      <trkpt lat="41.785054" lon="2.862899">
        <ele>248.0</ele>
        <time>2019-01-14T00:15:44Z</time>
      </trkpt>
      <trkpt lat="41.784958" lon="2.862855">
        <ele>248.0</ele>
        <time>2019-01-14T00:15:45Z</time>
      </trkpt>
      <trkpt lat="41.784877" lon="2.862787">
        <ele>248.0</ele>
        <time>2019-01-14T00:15:47Z</time>
      </trkpt>
      <trkpt lat="41.784817" lon="2.862698">
        <ele>248.0</ele>
        <time>2019-01-14T00:15:48Z</time>
      </trkpt>
      <trkpt lat="41.784776" lon="2.862594">
        <ele>248.0</ele>
        <time>2019-01-14T00:15:50Z</time>
      </trkpt>
      <trkpt lat="41.784714" lon="2.862392">
        <ele>249.0</ele>
        <time>2019-01-14T00:15:52Z</time>
      </trkpt>
      <trkpt lat="41.784689" lon="2.862297">
        <ele>249.0</ele>
        <time>2019-01-14T00:15:53Z</time>
      </trkpt>
      <trkpt lat="41.784662" lon="2.862211">
        <ele>249.0</ele>
        <time>2019-01-14T00:15:54Z</time>
      </trkpt>
      <trkpt lat="41.784634" lon="2.862128">
        <ele>249.0</ele>
        <time>2019-01-14T00:15:56Z</time>
      </trkpt>
      <trkpt lat="41.784607" lon="2.862056">
        <ele>249.0</ele>
        <time>2019-01-14T00:15:56Z</time>
      </trkpt>
      <trkpt lat="41.784578" lon="2.861990">
        <ele>250.0</ele>
        <time>2019-01-14T00:15:57Z</time>
      </trkpt>
      <trkpt lat="41.784542" lon="2.861930">
        <ele>250.0</ele>
        <time>2019-01-14T00:15:58Z</time>
      </trkpt>
      <trkpt lat="41.784504" lon="2.861876">
        <ele>250.0</ele>
        <time>2019-01-14T00:15:59Z</time>
      </trkpt>
      <trkpt lat="41.784464" lon="2.861828">
        <ele>250.0</ele>
        <time>2019-01-14T00:16:00Z</time>
      </trkpt>
      <trkpt lat="41.784416" lon="2.861783">
        <ele>250.0</ele>
        <time>2019-01-14T00:16:01Z</time>
      </trkpt>
      <trkpt lat="41.784365" lon="2.861744">
        <ele>251.0</ele>
        <time>2019-01-14T00:16:02Z</time>
      </trkpt>
      <trkpt lat="41.784316" lon="2.861711">
        <ele>251.0</ele>
        <time>2019-01-14T00:16:03Z</time>
      </trkpt>
      <trkpt lat="41.784269" lon="2.861685">
        <ele>251.0</ele>
        <time>2019-01-14T00:16:04Z</time>
      </trkpt>
      <trkpt lat="41.784222" lon="2.861667">
        <ele>251.0</ele>
        <time>2019-01-14T00:16:04Z</time>
      </trkpt>
      <trkpt lat="41.784174" lon="2.861655">
        <ele>251.0</ele>
        <time>2019-01-14T00:16:05Z</time>
      </trkpt>
      <trkpt lat="41.784124" lon="2.861650">
        <ele>251.0</ele>
        <time>2019-01-14T00:16:06Z</time>
      </trkpt>
      <trkpt lat="41.784073" lon="2.861656">
        <ele>251.0</ele>
        <time>2019-01-14T00:16:07Z</time>
      </trkpt>
      <trkpt lat="41.784020" lon="2.861670">
        <ele>251.0</ele>
        <time>2019-01-14T00:16:08Z</time>
      </trkpt>
      <trkpt lat="41.783971" lon="2.861686">
        <ele>251.0</ele>
        <time>2019-01-14T00:16:08Z</time>
      </trkpt>
      <trkpt lat="41.783921" lon="2.861708">
        <ele>251.0</ele>
        <time>2019-01-14T00:16:09Z</time>
      </trkpt>
      <trkpt lat="41.783827" lon="2.861775">
        <ele>252.0</ele>
        <time>2019-01-14T00:16:11Z</time>
      </trkpt>
      <trkpt lat="41.783738" lon="2.861869">
        <ele>251.0</ele>
        <time>2019-01-14T00:16:13Z</time>
      </trkpt>
      <trkpt lat="41.783610" lon="2.862051">
        <ele>251.0</ele>
        <time>2019-01-14T00:16:16Z</time>
      </trkpt>
      <trkpt lat="41.783484" lon="2.862248">
        <ele>251.0</ele>
        <time>2019-01-14T00:16:19Z</time>
      </trkpt>
      <trkpt lat="41.783249" lon="2.862636">
        <ele>250.0</ele>
        <time>2019-01-14T00:16:25Z</time>
      </trkpt>
      <trkpt lat="41.783202" lon="2.862724">
        <ele>250.0</ele>
        <time>2019-01-14T00:16:26Z</time>
      </trkpt>
      <trkpt lat="41.783147" lon="2.862810">
        <ele>250.0</ele>
        <time>2019-01-14T00:16:28Z</time>
      </trkpt>
      <trkpt lat="41.783090" lon="2.862892">
        <ele>250.0</ele>
        <time>2019-01-14T00:16:29Z</time>
      </trkpt>
      <trkpt lat="41.783032" lon="2.862977">
        <ele>250.0</ele>
        <time>2019-01-14T00:16:30Z</time>
      </trkpt>
      <trkpt lat="41.782975" lon="2.863061">
        <ele>250.0</ele>
        <time>2019-01-14T00:16:32Z</time>
      </trkpt>
      <trkpt lat="41.782915" lon="2.863154">
        <ele>250.0</ele>
        <time>2019-01-14T00:16:33Z</time>
      </trkpt>
      <trkpt lat="41.782854" lon="2.863244">
        <ele>250.0</ele>
        <time>2019-01-14T00:16:35Z</time>
      </trkpt>
      <trkpt lat="41.782793" lon="2.863335">
        <ele>249.0</ele>
        <time>2019-01-14T00:16:36Z</time>
      </trkpt>
      <trkpt lat="41.782731" lon="2.863426">
        <ele>249.0</ele>
        <time>2019-01-14T00:16:37Z</time>
      </trkpt>
      <trkpt lat="41.782668" lon="2.863518">
        <ele>248.0</ele>
        <time>2019-01-14T00:16:39Z</time>
      </trkpt>
      <trkpt lat="41.782604" lon="2.863615">
        <ele>247.0</ele>
        <time>2019-01-14T00:16:40Z</time>
      </trkpt>
      <trkpt lat="41.782537" lon="2.863711">
        <ele>246.0</ele>
        <time>2019-01-14T00:16:42Z</time>
      </trkpt>
      <trkpt lat="41.782464" lon="2.863814">
        <ele>245.0</ele>
        <time>2019-01-14T00:16:44Z</time>
      </trkpt>
      <trkpt lat="41.782393" lon="2.863910">
        <ele>244.0</ele>
        <time>2019-01-14T00:16:45Z</time>
      </trkpt>
      <trkpt lat="41.782321" lon="2.864005">
        <ele>244.0</ele>
        <time>2019-01-14T00:16:47Z</time>
      </trkpt>
      <trkpt lat="41.782246" lon="2.864095">
        <ele>244.0</ele>
        <time>2019-01-14T00:16:49Z</time>
      </trkpt>
      <trkpt lat="41.782172" lon="2.864186">
        <ele>243.0</ele>
        <time>2019-01-14T00:16:50Z</time>
      </trkpt>
      <trkpt lat="41.782097" lon="2.864277">
        <ele>243.0</ele>
        <time>2019-01-14T00:16:52Z</time>
      </trkpt>
      <trkpt lat="41.782019" lon="2.864370">
        <ele>243.0</ele>
        <time>2019-01-14T00:16:53Z</time>
      </trkpt>
      <trkpt lat="41.781940" lon="2.864462">
        <ele>242.0</ele>
        <time>2019-01-14T00:16:55Z</time>
      </trkpt>
      <trkpt lat="41.781852" lon="2.864562">
        <ele>242.0</ele>
        <time>2019-01-14T00:16:57Z</time>
      </trkpt>
      <trkpt lat="41.781769" lon="2.864654">
        <ele>241.0</ele>
        <time>2019-01-14T00:16:59Z</time>
      </trkpt>
      <trkpt lat="41.781601" lon="2.864834">
        <ele>240.0</ele>
        <time>2019-01-14T00:17:02Z</time>
      </trkpt>
      <trkpt lat="41.781517" lon="2.864922">
        <ele>240.0</ele>
        <time>2019-01-14T00:17:04Z</time>
      </trkpt>
      <trkpt lat="41.781433" lon="2.865006">
        <ele>240.0</ele>
        <time>2019-01-14T00:17:06Z</time>
      </trkpt>
      <trkpt lat="41.781351" lon="2.865087">
        <ele>239.0</ele>
        <time>2019-01-14T00:17:07Z</time>
      </trkpt>
      <trkpt lat="41.781267" lon="2.865173">
        <ele>239.0</ele>
        <time>2019-01-14T00:17:09Z</time>
      </trkpt>
      <trkpt lat="41.781188" lon="2.865253">
        <ele>239.0</ele>
        <time>2019-01-14T00:17:10Z</time>
      </trkpt>
      <trkpt lat="41.781109" lon="2.865333">
        <ele>239.0</ele>
        <time>2019-01-14T00:17:12Z</time>
      </trkpt>
      <trkpt lat="41.780726" lon="2.865712">
        <ele>238.0</ele>
        <time>2019-01-14T00:17:20Z</time>
      </trkpt>
      <trkpt lat="41.780406" lon="2.865927">
        <ele>237.0</ele>
        <time>2019-01-14T00:17:25Z</time>
      </trkpt>
      <trkpt lat="41.779987" lon="2.866065">
        <ele>235.0</ele>
        <time>2019-01-14T00:17:32Z</time>
      </trkpt>
      <trkpt lat="41.779831" lon="2.866121">
        <ele>235.0</ele>
        <time>2019-01-14T00:17:35Z</time>
      </trkpt>
      <trkpt lat="41.779533" lon="2.866262">
        <ele>235.0</ele>
        <time>2019-01-14T00:17:40Z</time>
      </trkpt>
      <trkpt lat="41.779219" lon="2.866584">
        <ele>235.0</ele>
        <time>2019-01-14T00:17:46Z</time>
      </trkpt>
      <trkpt lat="41.778943" lon="2.866987">
        <ele>235.0</ele>
        <time>2019-01-14T00:17:53Z</time>
      </trkpt>
      <trkpt lat="41.778886" lon="2.867060">
        <ele>236.0</ele>
        <time>2019-01-14T00:17:54Z</time>
      </trkpt>
      <trkpt lat="41.778828" lon="2.867129">
        <ele>236.0</ele>
        <time>2019-01-14T00:17:55Z</time>
      </trkpt>
      <trkpt lat="41.778770" lon="2.867197">
        <ele>236.0</ele>
        <time>2019-01-14T00:17:57Z</time>
      </trkpt>
      <trkpt lat="41.778708" lon="2.867260">
        <ele>236.0</ele>
        <time>2019-01-14T00:17:58Z</time>
      </trkpt>
      <trkpt lat="41.778637" lon="2.867306">
        <ele>237.0</ele>
        <time>2019-01-14T00:17:59Z</time>
      </trkpt>
      <trkpt lat="41.778487" lon="2.867368">
        <ele>237.0</ele>
        <time>2019-01-14T00:18:02Z</time>
      </trkpt>
      <trkpt lat="41.778341" lon="2.867396">
        <ele>237.0</ele>
        <time>2019-01-14T00:18:04Z</time>
      </trkpt>
      <trkpt lat="41.778271" lon="2.867399">
        <ele>238.0</ele>
        <time>2019-01-14T00:18:05Z</time>
      </trkpt>
      <trkpt lat="41.778134" lon="2.867404">
        <ele>238.0</ele>
        <time>2019-01-14T00:18:07Z</time>
      </trkpt>
      <trkpt lat="41.777930" lon="2.867405">
        <ele>239.0</ele>
        <time>2019-01-14T00:18:11Z</time>
      </trkpt>
      <trkpt lat="41.777865" lon="2.867413">
        <ele>239.0</ele>
        <time>2019-01-14T00:18:12Z</time>
      </trkpt>
      <trkpt lat="41.777800" lon="2.867426">
        <ele>240.0</ele>
        <time>2019-01-14T00:18:13Z</time>
      </trkpt>
      <trkpt lat="41.777738" lon="2.867445">
        <ele>240.0</ele>
        <time>2019-01-14T00:18:14Z</time>
      </trkpt>
      <trkpt lat="41.777676" lon="2.867476">
        <ele>240.0</ele>
        <time>2019-01-14T00:18:15Z</time>
      </trkpt>
      <trkpt lat="41.777493" lon="2.867579">
        <ele>241.0</ele>
        <time>2019-01-14T00:18:18Z</time>
      </trkpt>
      <trkpt lat="41.777435" lon="2.867619">
        <ele>242.0</ele>
        <time>2019-01-14T00:18:19Z</time>
      </trkpt>
      <trkpt lat="41.777376" lon="2.867674">
        <ele>242.0</ele>
        <time>2019-01-14T00:18:20Z</time>
      </trkpt>
      <trkpt lat="41.777325" lon="2.867728">
        <ele>243.0</ele>
        <time>2019-01-14T00:18:21Z</time>
      </trkpt>
      <trkpt lat="41.777276" lon="2.867788">
        <ele>243.0</ele>
        <time>2019-01-14T00:18:22Z</time>
      </trkpt>
      <trkpt lat="41.777182" lon="2.867913">
        <ele>243.0</ele>
        <time>2019-01-14T00:18:24Z</time>
      </trkpt>
      <trkpt lat="41.777085" lon="2.868044">
        <ele>243.0</ele>
        <time>2019-01-14T00:18:26Z</time>
      </trkpt>
      <trkpt lat="41.777041" lon="2.868107">
        <ele>243.0</ele>
        <time>2019-01-14T00:18:28Z</time>
      </trkpt>
      <trkpt lat="41.776994" lon="2.868175">
        <ele>244.0</ele>
        <time>2019-01-14T00:18:29Z</time>
      </trkpt>
      <trkpt lat="41.776944" lon="2.868235">
        <ele>244.0</ele>
        <time>2019-01-14T00:18:30Z</time>
      </trkpt>
      <trkpt lat="41.776893" lon="2.868288">
        <ele>244.0</ele>
        <time>2019-01-14T00:18:31Z</time>
      </trkpt>
      <trkpt lat="41.776784" lon="2.868388">
        <ele>244.0</ele>
        <time>2019-01-14T00:18:33Z</time>
      </trkpt>
      <trkpt lat="41.776664" lon="2.868464">
        <ele>245.0</ele>
        <time>2019-01-14T00:18:35Z</time>
      </trkpt>
      <trkpt lat="41.776475" lon="2.868542">
        <ele>246.0</ele>
        <time>2019-01-14T00:18:38Z</time>
      </trkpt>
      <trkpt lat="41.776413" lon="2.868568">
        <ele>247.0</ele>
        <time>2019-01-14T00:18:39Z</time>
      </trkpt>
      <trkpt lat="41.776349" lon="2.868591">
        <ele>247.0</ele>
        <time>2019-01-14T00:18:40Z</time>
      </trkpt>
      <trkpt lat="41.776283" lon="2.868615">
        <ele>248.0</ele>
        <time>2019-01-14T00:18:41Z</time>
      </trkpt>
      <trkpt lat="41.776222" lon="2.868638">
        <ele>248.0</ele>
        <time>2019-01-14T00:18:42Z</time>
      </trkpt>
      <trkpt lat="41.776040" lon="2.868706">
        <ele>249.0</ele>
        <time>2019-01-14T00:18:45Z</time>
      </trkpt>
      <trkpt lat="41.775577" lon="2.868915">
        <ele>253.0</ele>
        <time>2019-01-14T00:18:53Z</time>
      </trkpt>
      <trkpt lat="41.775523" lon="2.868940">
        <ele>253.0</ele>
        <time>2019-01-14T00:18:54Z</time>
      </trkpt>
      <trkpt lat="41.775471" lon="2.868965">
        <ele>253.0</ele>
        <time>2019-01-14T00:18:55Z</time>
      </trkpt>
      <trkpt lat="41.775416" lon="2.868993">
        <ele>254.0</ele>
        <time>2019-01-14T00:18:56Z</time>
      </trkpt>
      <trkpt lat="41.775366" lon="2.869023">
        <ele>254.0</ele>
        <time>2019-01-14T00:18:57Z</time>
      </trkpt>
      <trkpt lat="41.775308" lon="2.869047">
        <ele>255.0</ele>
        <time>2019-01-14T00:18:58Z</time>
      </trkpt>
      <trkpt lat="41.775207" lon="2.869112">
        <ele>256.0</ele>
        <time>2019-01-14T00:19:00Z</time>
      </trkpt>
      <trkpt lat="41.775106" lon="2.869174">
        <ele>257.0</ele>
        <time>2019-01-14T00:19:01Z</time>
      </trkpt>
      <trkpt lat="41.775055" lon="2.869193">
        <ele>257.0</ele>
        <time>2019-01-14T00:19:02Z</time>
      </trkpt>
      <trkpt lat="41.775006" lon="2.869237">
        <ele>257.0</ele>
        <time>2019-01-14T00:19:03Z</time>
      </trkpt>
      <trkpt lat="41.774956" lon="2.869272">
        <ele>258.0</ele>
        <time>2019-01-14T00:19:04Z</time>
      </trkpt>
      <trkpt lat="41.774853" lon="2.869332">
        <ele>259.0</ele>
        <time>2019-01-14T00:19:06Z</time>
      </trkpt>
      <trkpt lat="41.774804" lon="2.869371">
        <ele>259.0</ele>
        <time>2019-01-14T00:19:07Z</time>
      </trkpt>
      <trkpt lat="41.774757" lon="2.869411">
        <ele>260.0</ele>
        <time>2019-01-14T00:19:08Z</time>
      </trkpt>
      <trkpt lat="41.774713" lon="2.869446">
        <ele>260.0</ele>
        <time>2019-01-14T00:19:08Z</time>
      </trkpt>
      <trkpt lat="41.774670" lon="2.869479">
        <ele>260.0</ele>
        <time>2019-01-14T00:19:09Z</time>
      </trkpt>
      <trkpt lat="41.774635" lon="2.869513">
        <ele>261.0</ele>
        <time>2019-01-14T00:19:10Z</time>
      </trkpt>
      <trkpt lat="41.774571" lon="2.869573">
        <ele>261.0</ele>
        <time>2019-01-14T00:19:11Z</time>
      </trkpt>
      <trkpt lat="41.774538" lon="2.869613">
        <ele>262.0</ele>
        <time>2019-01-14T00:19:12Z</time>
      </trkpt>
      <trkpt lat="41.774513" lon="2.869647">
        <ele>262.0</ele>
        <time>2019-01-14T00:19:12Z</time>
      </trkpt>
      <trkpt lat="41.774481" lon="2.869675">
        <ele>262.0</ele>
        <time>2019-01-14T00:19:13Z</time>
      </trkpt>
      <trkpt lat="41.774451" lon="2.869704">
        <ele>263.0</ele>
        <time>2019-01-14T00:19:14Z</time>
      </trkpt>
      <trkpt lat="41.774247" lon="2.869873">
        <ele>264.0</ele>
        <time>2019-01-14T00:19:18Z</time>
      </trkpt>
      <trkpt lat="41.774217" lon="2.869907">
        <ele>265.0</ele>
        <time>2019-01-14T00:19:18Z</time>
      </trkpt>
      <trkpt lat="41.774187" lon="2.869947">
        <ele>265.0</ele>
        <time>2019-01-14T00:19:19Z</time>
      </trkpt>
      <trkpt lat="41.774155" lon="2.869980">
        <ele>265.0</ele>
        <time>2019-01-14T00:19:19Z</time>
      </trkpt>
      <trkpt lat="41.774128" lon="2.870012">
        <ele>266.0</ele>
        <time>2019-01-14T00:19:20Z</time>
      </trkpt>
      <trkpt lat="41.774034" lon="2.870115">
        <ele>266.0</ele>
        <time>2019-01-14T00:19:22Z</time>
      </trkpt>
      <trkpt lat="41.773935" lon="2.870217">
        <ele>267.0</ele>
        <time>2019-01-14T00:19:24Z</time>
      </trkpt>
      <trkpt lat="41.773899" lon="2.870256">
        <ele>267.0</ele>
        <time>2019-01-14T00:19:25Z</time>
      </trkpt>
      <trkpt lat="41.773868" lon="2.870297">
        <ele>268.0</ele>
        <time>2019-01-14T00:19:25Z</time>
      </trkpt>
      <trkpt lat="41.773837" lon="2.870339">
        <ele>268.0</ele>
        <time>2019-01-14T00:19:26Z</time>
      </trkpt>
      <trkpt lat="41.773814" lon="2.870378">
        <ele>268.0</ele>
        <time>2019-01-14T00:19:27Z</time>
      </trkpt>
      <trkpt lat="41.773705" lon="2.870533">
        <ele>269.0</ele>
        <time>2019-01-14T00:19:29Z</time>
      </trkpt>
      <trkpt lat="41.773673" lon="2.870569">
        <ele>269.0</ele>
        <time>2019-01-14T00:19:30Z</time>
      </trkpt>
      <trkpt lat="41.773638" lon="2.870608">
        <ele>269.0</ele>
        <time>2019-01-14T00:19:31Z</time>
      </trkpt>
      <trkpt lat="41.773605" lon="2.870646">
        <ele>269.0</ele>
        <time>2019-01-14T00:19:31Z</time>
      </trkpt>
      <trkpt lat="41.773576" lon="2.870686">
        <ele>270.0</ele>
        <time>2019-01-14T00:19:32Z</time>
      </trkpt>
      <trkpt lat="41.773482" lon="2.870819">
        <ele>270.0</ele>
        <time>2019-01-14T00:19:34Z</time>
      </trkpt>
      <trkpt lat="41.773453" lon="2.870861">
        <ele>270.0</ele>
        <time>2019-01-14T00:19:35Z</time>
      </trkpt>
      <trkpt lat="41.773425" lon="2.870907">
        <ele>269.0</ele>
        <time>2019-01-14T00:19:36Z</time>
      </trkpt>
      <trkpt lat="41.773394" lon="2.870953">
        <ele>269.0</ele>
        <time>2019-01-14T00:19:36Z</time>
      </trkpt>
      <trkpt lat="41.773366" lon="2.870998">
        <ele>269.0</ele>
        <time>2019-01-14T00:19:37Z</time>
      </trkpt>
      <trkpt lat="41.773248" lon="2.871200">
        <ele>269.0</ele>
        <time>2019-01-14T00:19:40Z</time>
      </trkpt>
      <trkpt lat="41.773103" lon="2.871437">
        <ele>268.0</ele>
        <time>2019-01-14T00:19:44Z</time>
      </trkpt>
      <trkpt lat="41.773075" lon="2.871487">
        <ele>267.0</ele>
        <time>2019-01-14T00:19:45Z</time>
      </trkpt>
      <trkpt lat="41.773050" lon="2.871537">
        <ele>267.0</ele>
        <time>2019-01-14T00:19:45Z</time>
      </trkpt>
      <trkpt lat="41.773024" lon="2.871589">
        <ele>267.0</ele>
        <time>2019-01-14T00:19:46Z</time>
      </trkpt>
      <trkpt lat="41.772996" lon="2.871642">
        <ele>266.0</ele>
        <time>2019-01-14T00:19:47Z</time>
      </trkpt>
      <trkpt lat="41.772843" lon="2.871922">
        <ele>265.0</ele>
        <time>2019-01-14T00:19:51Z</time>
      </trkpt>
      <trkpt lat="41.772821" lon="2.871983">
        <ele>265.0</ele>
        <time>2019-01-14T00:19:52Z</time>
      </trkpt>
      <trkpt lat="41.772614" lon="2.872363">
        <ele>263.0</ele>
        <time>2019-01-14T00:19:57Z</time>
      </trkpt>
      <trkpt lat="41.772542" lon="2.872510">
        <ele>262.0</ele>
        <time>2019-01-14T00:19:59Z</time>
      </trkpt>
      <trkpt lat="41.772500" lon="2.872582">
        <ele>262.0</ele>
        <time>2019-01-14T00:20:01Z</time>
      </trkpt>
      <trkpt lat="41.772459" lon="2.872657">
        <ele>262.0</ele>
        <time>2019-01-14T00:20:02Z</time>
      </trkpt>
      <trkpt lat="41.772417" lon="2.872730">
        <ele>261.0</ele>
        <time>2019-01-14T00:20:03Z</time>
      </trkpt>
      <trkpt lat="41.772370" lon="2.872803">
        <ele>261.0</ele>
        <time>2019-01-14T00:20:04Z</time>
      </trkpt>
      <trkpt lat="41.772324" lon="2.872881">
        <ele>261.0</ele>
        <time>2019-01-14T00:20:05Z</time>
      </trkpt>
      <trkpt lat="41.772271" lon="2.872962">
        <ele>260.0</ele>
        <time>2019-01-14T00:20:06Z</time>
      </trkpt>
      <trkpt lat="41.772219" lon="2.873044">
        <ele>260.0</ele>
        <time>2019-01-14T00:20:08Z</time>
      </trkpt>
      <trkpt lat="41.772166" lon="2.873127">
        <ele>259.0</ele>
        <time>2019-01-14T00:20:09Z</time>
      </trkpt>
      <trkpt lat="41.772106" lon="2.873204">
        <ele>259.0</ele>
        <time>2019-01-14T00:20:10Z</time>
      </trkpt>
      <trkpt lat="41.772045" lon="2.873280">
        <ele>258.0</ele>
        <time>2019-01-14T00:20:12Z</time>
      </trkpt>
      <trkpt lat="41.771855" lon="2.873518">
        <ele>257.0</ele>
        <time>2019-01-14T00:20:16Z</time>
      </trkpt>
      <trkpt lat="41.771788" lon="2.873596">
        <ele>256.0</ele>
        <time>2019-01-14T00:20:17Z</time>
      </trkpt>
      <trkpt lat="41.771720" lon="2.873675">
        <ele>256.0</ele>
        <time>2019-01-14T00:20:19Z</time>
      </trkpt>
      <trkpt lat="41.771651" lon="2.873754">
        <ele>255.0</ele>
        <time>2019-01-14T00:20:20Z</time>
      </trkpt>
      <trkpt lat="41.771579" lon="2.873835">
        <ele>254.0</ele>
        <time>2019-01-14T00:20:22Z</time>
      </trkpt>
      <trkpt lat="41.771508" lon="2.873914">
        <ele>254.0</ele>
        <time>2019-01-14T00:20:23Z</time>
      </trkpt>
      <trkpt lat="41.771437" lon="2.873999">
        <ele>253.0</ele>
        <time>2019-01-14T00:20:25Z</time>
      </trkpt>
      <trkpt lat="41.771374" lon="2.874093">
        <ele>253.0</ele>
        <time>2019-01-14T00:20:26Z</time>
      </trkpt>
      <trkpt lat="41.771319" lon="2.874210">
        <ele>252.0</ele>
        <time>2019-01-14T00:20:28Z</time>
      </trkpt>
      <trkpt lat="41.771279" lon="2.874322">
        <ele>252.0</ele>
        <time>2019-01-14T00:20:29Z</time>
      </trkpt>
      <trkpt lat="41.771255" lon="2.874441">
        <ele>251.0</ele>
        <time>2019-01-14T00:20:31Z</time>
      </trkpt>
      <trkpt lat="41.771245" lon="2.874561">
        <ele>251.0</ele>
        <time>2019-01-14T00:20:32Z</time>
      </trkpt>
      <trkpt lat="41.771243" lon="2.874678">
        <ele>250.0</ele>
        <time>2019-01-14T00:20:34Z</time>
      </trkpt>
      <trkpt lat="41.771245" lon="2.874791">
        <ele>250.0</ele>
        <time>2019-01-14T00:20:35Z</time>
      </trkpt>
      <trkpt lat="41.771247" lon="2.874904">
        <ele>249.0</ele>
        <time>2019-01-14T00:20:36Z</time>
      </trkpt>
      <trkpt lat="41.771252" lon="2.875018">
        <ele>249.0</ele>
        <time>2019-01-14T00:20:38Z</time>
      </trkpt>
      <trkpt lat="41.771257" lon="2.875135">
        <ele>249.0</ele>
        <time>2019-01-14T00:20:39Z</time>
      </trkpt>
      <trkpt lat="41.771255" lon="2.875248">
        <ele>248.0</ele>
        <time>2019-01-14T00:20:40Z</time>
      </trkpt>
      <trkpt lat="41.771233" lon="2.875357">
        <ele>248.0</ele>
        <time>2019-01-14T00:20:42Z</time>
      </trkpt>
      <trkpt lat="41.771189" lon="2.875460">
        <ele>247.0</ele>
        <time>2019-01-14T00:20:43Z</time>
      </trkpt>
      <trkpt lat="41.771123" lon="2.875540">
        <ele>247.0</ele>
        <time>2019-01-14T00:20:45Z</time>
      </trkpt>
      <trkpt lat="41.771045" lon="2.875599">
        <ele>246.0</ele>
        <time>2019-01-14T00:20:46Z</time>
      </trkpt>
      <trkpt lat="41.770962" lon="2.875641">
        <ele>245.0</ele>
        <time>2019-01-14T00:20:47Z</time>
      </trkpt>
      <trkpt lat="41.770878" lon="2.875694">
        <ele>245.0</ele>
        <time>2019-01-14T00:20:49Z</time>
      </trkpt>
      <trkpt lat="41.770811" lon="2.875769">
        <ele>244.0</ele>
        <time>2019-01-14T00:20:50Z</time>
      </trkpt>
      <trkpt lat="41.770770" lon="2.875870">
        <ele>244.0</ele>
        <time>2019-01-14T00:20:52Z</time>
      </trkpt>
      <trkpt lat="41.770759" lon="2.875981">
        <ele>244.0</ele>
        <time>2019-01-14T00:20:53Z</time>
      </trkpt>
      <trkpt lat="41.770780" lon="2.876084">
        <ele>243.0</ele>
        <time>2019-01-14T00:20:54Z</time>
      </trkpt>
      <trkpt lat="41.770818" lon="2.876172">
        <ele>243.0</ele>
        <time>2019-01-14T00:20:55Z</time>
      </trkpt>
      <trkpt lat="41.770983" lon="2.876380">
        <ele>242.0</ele>
        <time>2019-01-14T00:20:59Z</time>
      </trkpt>
      <trkpt lat="41.771034" lon="2.876444">
        <ele>242.0</ele>
        <time>2019-01-14T00:21:00Z</time>
      </trkpt>
      <trkpt lat="41.771081" lon="2.876518">
        <ele>241.0</ele>
        <time>2019-01-14T00:21:01Z</time>
      </trkpt>
      <trkpt lat="41.771131" lon="2.876589">
        <ele>241.0</ele>
        <time>2019-01-14T00:21:03Z</time>
      </trkpt>
      <trkpt lat="41.771178" lon="2.876663">
        <ele>241.0</ele>
        <time>2019-01-14T00:21:04Z</time>
      </trkpt>
      <trkpt lat="41.771204" lon="2.876755">
        <ele>240.0</ele>
        <time>2019-01-14T00:21:05Z</time>
      </trkpt>
      <trkpt lat="41.771202" lon="2.876852">
        <ele>240.0</ele>
        <time>2019-01-14T00:21:06Z</time>
      </trkpt>
      <trkpt lat="41.771186" lon="2.876952">
        <ele>239.0</ele>
        <time>2019-01-14T00:21:07Z</time>
      </trkpt>
      <trkpt lat="41.771159" lon="2.877040">
        <ele>239.0</ele>
        <time>2019-01-14T00:21:08Z</time>
      </trkpt>
      <trkpt lat="41.771117" lon="2.877119">
        <ele>239.0</ele>
        <time>2019-01-14T00:21:10Z</time>
      </trkpt>
      <trkpt lat="41.771060" lon="2.877180">
        <ele>238.0</ele>
        <time>2019-01-14T00:21:11Z</time>
      </trkpt>
      <trkpt lat="41.770995" lon="2.877228">
        <ele>237.0</ele>
        <time>2019-01-14T00:21:12Z</time>
      </trkpt>
      <trkpt lat="41.770928" lon="2.877278">
        <ele>237.0</ele>
        <time>2019-01-14T00:21:13Z</time>
      </trkpt>
      <trkpt lat="41.770863" lon="2.877334">
        <ele>236.0</ele>
        <time>2019-01-14T00:21:14Z</time>
      </trkpt>
      <trkpt lat="41.770800" lon="2.877390">
        <ele>236.0</ele>
        <time>2019-01-14T00:21:16Z</time>
      </trkpt>
      <trkpt lat="41.770745" lon="2.877458">
        <ele>235.0</ele>
        <time>2019-01-14T00:21:17Z</time>
      </trkpt>
      <trkpt lat="41.770702" lon="2.877539">
        <ele>235.0</ele>
        <time>2019-01-14T00:21:18Z</time>
      </trkpt>
      <trkpt lat="41.770671" lon="2.877630">
        <ele>234.0</ele>
        <time>2019-01-14T00:21:19Z</time>
      </trkpt>
      <trkpt lat="41.770658" lon="2.877731">
        <ele>234.0</ele>
        <time>2019-01-14T00:21:20Z</time>
      </trkpt>
      <trkpt lat="41.770690" lon="2.877953">
        <ele>233.0</ele>
        <time>2019-01-14T00:21:23Z</time>
      </trkpt>
      <trkpt lat="41.770724" lon="2.878079">
        <ele>232.0</ele>
        <time>2019-01-14T00:21:25Z</time>
      </trkpt>
      <trkpt lat="41.770764" lon="2.878211">
        <ele>232.0</ele>
        <time>2019-01-14T00:21:26Z</time>
      </trkpt>
      <trkpt lat="41.770789" lon="2.878346">
        <ele>231.0</ele>
        <time>2019-01-14T00:21:28Z</time>
      </trkpt>
      <trkpt lat="41.770778" lon="2.878485">
        <ele>230.0</ele>
        <time>2019-01-14T00:21:30Z</time>
      </trkpt>
      <trkpt lat="41.770723" lon="2.878609">
        <ele>229.0</ele>
        <time>2019-01-14T00:21:31Z</time>
      </trkpt>
      <trkpt lat="41.770632" lon="2.878690">
        <ele>229.0</ele>
        <time>2019-01-14T00:21:33Z</time>
      </trkpt>
      <trkpt lat="41.770518" lon="2.878712">
        <ele>228.0</ele>
        <time>2019-01-14T00:21:35Z</time>
      </trkpt>
      <trkpt lat="41.770405" lon="2.878706">
        <ele>227.0</ele>
        <time>2019-01-14T00:21:37Z</time>
      </trkpt>
      <trkpt lat="41.770294" lon="2.878689">
        <ele>226.0</ele>
        <time>2019-01-14T00:21:39Z</time>
      </trkpt>
      <trkpt lat="41.770180" lon="2.878690">
        <ele>225.0</ele>
        <time>2019-01-14T00:21:40Z</time>
      </trkpt>
      <trkpt lat="41.770072" lon="2.878717">
        <ele>224.0</ele>
        <time>2019-01-14T00:21:42Z</time>
      </trkpt>
      <trkpt lat="41.769974" lon="2.878786">
        <ele>223.0</ele>
        <time>2019-01-14T00:21:44Z</time>
      </trkpt>
      <trkpt lat="41.769891" lon="2.878890">
        <ele>223.0</ele>
        <time>2019-01-14T00:21:46Z</time>
      </trkpt>
      <trkpt lat="41.769826" lon="2.879019">
        <ele>222.0</ele>
        <time>2019-01-14T00:21:48Z</time>
      </trkpt>
      <trkpt lat="41.769775" lon="2.879165">
        <ele>221.0</ele>
        <time>2019-01-14T00:21:50Z</time>
      </trkpt>
      <trkpt lat="41.769732" lon="2.879317">
        <ele>220.0</ele>
        <time>2019-01-14T00:21:52Z</time>
      </trkpt>
      <trkpt lat="41.769686" lon="2.879474">
        <ele>219.0</ele>
        <time>2019-01-14T00:21:54Z</time>
      </trkpt>
      <trkpt lat="41.769634" lon="2.879625">
        <ele>219.0</ele>
        <time>2019-01-14T00:21:56Z</time>
      </trkpt>
      <trkpt lat="41.769574" lon="2.879773">
        <ele>218.0</ele>
        <time>2019-01-14T00:21:58Z</time>
      </trkpt>
      <trkpt lat="41.769492" lon="2.879906">
        <ele>217.0</ele>
        <time>2019-01-14T00:22:00Z</time>
      </trkpt>
      <trkpt lat="41.769390" lon="2.880018">
        <ele>216.0</ele>
        <time>2019-01-14T00:22:02Z</time>
      </trkpt>
      <trkpt lat="41.769272" lon="2.880093">
        <ele>215.0</ele>
        <time>2019-01-14T00:22:04Z</time>
      </trkpt>
      <trkpt lat="41.769144" lon="2.880129">
        <ele>214.0</ele>
        <time>2019-01-14T00:22:06Z</time>
      </trkpt>
      <trkpt lat="41.769010" lon="2.880145">
        <ele>213.0</ele>
        <time>2019-01-14T00:22:08Z</time>
      </trkpt>
      <trkpt lat="41.768869" lon="2.880158">
        <ele>212.0</ele>
        <time>2019-01-14T00:22:10Z</time>
      </trkpt>
      <trkpt lat="41.768732" lon="2.880165">
        <ele>211.0</ele>
        <time>2019-01-14T00:22:13Z</time>
      </trkpt>
      <trkpt lat="41.768593" lon="2.880174">
        <ele>210.0</ele>
        <time>2019-01-14T00:22:15Z</time>
      </trkpt>
      <trkpt lat="41.768452" lon="2.880180">
        <ele>209.0</ele>
        <time>2019-01-14T00:22:17Z</time>
      </trkpt>
      <trkpt lat="41.768313" lon="2.880187">
        <ele>208.0</ele>
        <time>2019-01-14T00:22:19Z</time>
      </trkpt>
      <trkpt lat="41.768178" lon="2.880193">
        <ele>208.0</ele>
        <time>2019-01-14T00:22:21Z</time>
      </trkpt>
      <trkpt lat="41.768054" lon="2.880205">
        <ele>207.0</ele>
        <time>2019-01-14T00:22:23Z</time>
      </trkpt>
      <trkpt lat="41.767945" lon="2.880240">
        <ele>206.0</ele>
        <time>2019-01-14T00:22:25Z</time>
      </trkpt>
      <trkpt lat="41.767865" lon="2.880310">
        <ele>205.0</ele>
        <time>2019-01-14T00:22:27Z</time>
      </trkpt>
      <trkpt lat="41.767802" lon="2.880408">
        <ele>204.0</ele>
        <time>2019-01-14T00:22:28Z</time>
      </trkpt>
      <trkpt lat="41.767771" lon="2.880676">
        <ele>203.0</ele>
        <time>2019-01-14T00:22:31Z</time>
      </trkpt>
      <trkpt lat="41.767901" lon="2.880907">
        <ele>202.0</ele>
        <time>2019-01-14T00:22:35Z</time>
      </trkpt>
      <trkpt lat="41.768002" lon="2.880974">
        <ele>201.0</ele>
        <time>2019-01-14T00:22:37Z</time>
      </trkpt>
      <trkpt lat="41.768120" lon="2.881028">
        <ele>200.0</ele>
        <time>2019-01-14T00:22:39Z</time>
      </trkpt>
      <trkpt lat="41.768232" lon="2.881067">
        <ele>199.0</ele>
        <time>2019-01-14T00:22:41Z</time>
      </trkpt>
      <trkpt lat="41.768345" lon="2.881121">
        <ele>198.0</ele>
        <time>2019-01-14T00:22:43Z</time>
      </trkpt>
      <trkpt lat="41.768456" lon="2.881200">
        <ele>197.0</ele>
        <time>2019-01-14T00:22:45Z</time>
      </trkpt>
      <trkpt lat="41.768550" lon="2.881316">
        <ele>196.0</ele>
        <time>2019-01-14T00:22:47Z</time>
      </trkpt>
      <trkpt lat="41.768624" lon="2.881458">
        <ele>196.0</ele>
        <time>2019-01-14T00:22:49Z</time>
      </trkpt>
      <trkpt lat="41.768672" lon="2.881621">
        <ele>194.0</ele>
        <time>2019-01-14T00:22:51Z</time>
      </trkpt>
      <trkpt lat="41.768696" lon="2.881805">
        <ele>193.0</ele>
        <time>2019-01-14T00:22:53Z</time>
      </trkpt>
      <trkpt lat="41.768705" lon="2.881987">
        <ele>192.0</ele>
        <time>2019-01-14T00:22:55Z</time>
      </trkpt>
      <trkpt lat="41.768699" lon="2.882176">
        <ele>191.0</ele>
        <time>2019-01-14T00:22:57Z</time>
      </trkpt>
      <trkpt lat="41.768677" lon="2.882402">
        <ele>189.0</ele>
        <time>2019-01-14T00:23:00Z</time>
      </trkpt>
      <trkpt lat="41.768665" lon="2.882608">
        <ele>188.0</ele>
        <time>2019-01-14T00:23:03Z</time>
      </trkpt>
      <trkpt lat="41.768645" lon="2.882822">
        <ele>187.0</ele>
        <time>2019-01-14T00:23:05Z</time>
      </trkpt>
      <trkpt lat="41.768569" lon="2.883009">
        <ele>185.0</ele>
        <time>2019-01-14T00:23:08Z</time>
      </trkpt>
      <trkpt lat="41.768490" lon="2.883176">
        <ele>184.0</ele>
        <time>2019-01-14T00:23:10Z</time>
      </trkpt>
      <trkpt lat="41.768386" lon="2.883341">
        <ele>182.0</ele>
        <time>2019-01-14T00:23:13Z</time>
      </trkpt>
      <trkpt lat="41.768254" lon="2.883491">
        <ele>181.0</ele>
        <time>2019-01-14T00:23:15Z</time>
      </trkpt>
      <trkpt lat="41.768115" lon="2.883618">
        <ele>179.0</ele>
        <time>2019-01-14T00:23:18Z</time>
      </trkpt>
      <trkpt lat="41.767977" lon="2.883738">
        <ele>178.0</ele>
        <time>2019-01-14T00:23:21Z</time>
      </trkpt>
      <trkpt lat="41.767834" lon="2.883838">
        <ele>176.0</ele>
        <time>2019-01-14T00:23:23Z</time>
      </trkpt>
      <trkpt lat="41.767687" lon="2.883925">
        <ele>175.0</ele>
        <time>2019-01-14T00:23:26Z</time>
      </trkpt>
      <trkpt lat="41.767532" lon="2.883992">
        <ele>174.0</ele>
        <time>2019-01-14T00:23:28Z</time>
      </trkpt>
      <trkpt lat="41.767365" lon="2.884039">
        <ele>172.0</ele>
        <time>2019-01-14T00:23:31Z</time>
      </trkpt>
      <trkpt lat="41.767200" lon="2.884062">
        <ele>171.0</ele>
        <time>2019-01-14T00:23:34Z</time>
      </trkpt>
      <trkpt lat="41.767035" lon="2.884071">
        <ele>169.0</ele>
        <time>2019-01-14T00:23:37Z</time>
      </trkpt>
      <trkpt lat="41.766870" lon="2.884063">
        <ele>168.0</ele>
        <time>2019-01-14T00:23:39Z</time>
      </trkpt>
      <trkpt lat="41.766706" lon="2.884051">
        <ele>166.0</ele>
        <time>2019-01-14T00:23:42Z</time>
      </trkpt>
      <trkpt lat="41.766545" lon="2.884012">
        <ele>165.0</ele>
        <time>2019-01-14T00:23:44Z</time>
      </trkpt>
      <trkpt lat="41.766384" lon="2.883955">
        <ele>163.0</ele>
        <time>2019-01-14T00:23:47Z</time>
      </trkpt>
      <trkpt lat="41.766229" lon="2.883893">
        <ele>162.0</ele>
        <time>2019-01-14T00:23:50Z</time>
      </trkpt>
      <trkpt lat="41.766070" lon="2.883818">
        <ele>160.0</ele>
        <time>2019-01-14T00:23:52Z</time>
      </trkpt>
      <trkpt lat="41.765922" lon="2.883731">
        <ele>159.0</ele>
        <time>2019-01-14T00:23:55Z</time>
      </trkpt>
      <trkpt lat="41.765776" lon="2.883648">
        <ele>157.0</ele>
        <time>2019-01-14T00:23:57Z</time>
      </trkpt>
      <trkpt lat="41.765640" lon="2.883574">
        <ele>156.0</ele>
        <time>2019-01-14T00:24:00Z</time>
      </trkpt>
      <trkpt lat="41.765506" lon="2.883513">
        <ele>155.0</ele>
        <time>2019-01-14T00:24:02Z</time>
      </trkpt>
      <trkpt lat="41.765366" lon="2.883469">
        <ele>153.0</ele>
        <time>2019-01-14T00:24:04Z</time>
      </trkpt>
      <trkpt lat="41.765218" lon="2.883451">
        <ele>152.0</ele>
        <time>2019-01-14T00:24:07Z</time>
      </trkpt>
      <trkpt lat="41.765070" lon="2.883463">
        <ele>151.0</ele>
        <time>2019-01-14T00:24:09Z</time>
      </trkpt>
      <trkpt lat="41.764933" lon="2.883500">
        <ele>150.0</ele>
        <time>2019-01-14T00:24:11Z</time>
      </trkpt>
      <trkpt lat="41.764807" lon="2.883559">
        <ele>149.0</ele>
        <time>2019-01-14T00:24:14Z</time>
      </trkpt>
      <trkpt lat="41.764695" lon="2.883635">
        <ele>148.0</ele>
        <time>2019-01-14T00:24:16Z</time>
      </trkpt>
      <trkpt lat="41.764609" lon="2.883735">
        <ele>147.0</ele>
        <time>2019-01-14T00:24:17Z</time>
      </trkpt>
      <trkpt lat="41.764544" lon="2.883858">
        <ele>146.0</ele>
        <time>2019-01-14T00:24:19Z</time>
      </trkpt>
      <trkpt lat="41.764481" lon="2.884170">
        <ele>145.0</ele>
        <time>2019-01-14T00:24:23Z</time>
      </trkpt>
      <trkpt lat="41.764496" lon="2.884326">
        <ele>144.0</ele>
        <time>2019-01-14T00:24:25Z</time>
      </trkpt>
      <trkpt lat="41.764539" lon="2.884479">
        <ele>143.0</ele>
        <time>2019-01-14T00:24:27Z</time>
      </trkpt>
      <trkpt lat="41.764604" lon="2.884617">
        <ele>142.0</ele>
        <time>2019-01-14T00:24:29Z</time>
      </trkpt>
      <trkpt lat="41.764676" lon="2.884753">
        <ele>141.0</ele>
        <time>2019-01-14T00:24:31Z</time>
      </trkpt>
      <trkpt lat="41.764756" lon="2.884891">
        <ele>140.0</ele>
        <time>2019-01-14T00:24:33Z</time>
      </trkpt>
      <trkpt lat="41.764833" lon="2.885029">
        <ele>140.0</ele>
        <time>2019-01-14T00:24:35Z</time>
      </trkpt>
      <trkpt lat="41.764904" lon="2.885168">
        <ele>139.0</ele>
        <time>2019-01-14T00:24:37Z</time>
      </trkpt>
      <trkpt lat="41.764977" lon="2.885310">
        <ele>138.0</ele>
        <time>2019-01-14T00:24:39Z</time>
      </trkpt>
      <trkpt lat="41.765038" lon="2.885441">
        <ele>138.0</ele>
        <time>2019-01-14T00:24:41Z</time>
      </trkpt>
      <trkpt lat="41.765093" lon="2.885571">
        <ele>137.0</ele>
        <time>2019-01-14T00:24:43Z</time>
      </trkpt>
      <trkpt lat="41.765139" lon="2.885706">
        <ele>137.0</ele>
        <time>2019-01-14T00:24:44Z</time>
      </trkpt>
      <trkpt lat="41.765171" lon="2.885843">
        <ele>136.0</ele>
        <time>2019-01-14T00:24:46Z</time>
      </trkpt>
      <trkpt lat="41.765186" lon="2.885983">
        <ele>135.0</ele>
        <time>2019-01-14T00:24:48Z</time>
      </trkpt>
      <trkpt lat="41.765175" lon="2.886108">
        <ele>135.0</ele>
        <time>2019-01-14T00:24:49Z</time>
      </trkpt>
      <trkpt lat="41.765127" lon="2.886231">
        <ele>134.0</ele>
        <time>2019-01-14T00:24:51Z</time>
      </trkpt>
      <trkpt lat="41.765049" lon="2.886311">
        <ele>134.0</ele>
        <time>2019-01-14T00:24:53Z</time>
      </trkpt>
      <trkpt lat="41.764953" lon="2.886347">
        <ele>133.0</ele>
        <time>2019-01-14T00:24:54Z</time>
      </trkpt>
      <trkpt lat="41.764849" lon="2.886342">
        <ele>132.0</ele>
        <time>2019-01-14T00:24:56Z</time>
      </trkpt>
      <trkpt lat="41.764760" lon="2.886282">
        <ele>132.0</ele>
        <time>2019-01-14T00:24:57Z</time>
      </trkpt>
      <trkpt lat="41.764680" lon="2.886191">
        <ele>131.0</ele>
        <time>2019-01-14T00:24:59Z</time>
      </trkpt>
      <trkpt lat="41.764611" lon="2.886086">
        <ele>131.0</ele>
        <time>2019-01-14T00:25:01Z</time>
      </trkpt>
      <trkpt lat="41.764552" lon="2.885953">
        <ele>131.0</ele>
        <time>2019-01-14T00:25:03Z</time>
      </trkpt>
      <trkpt lat="41.764491" lon="2.885822">
        <ele>130.0</ele>
        <time>2019-01-14T00:25:04Z</time>
      </trkpt>
      <trkpt lat="41.764429" lon="2.885683">
        <ele>130.0</ele>
        <time>2019-01-14T00:25:06Z</time>
      </trkpt>
      <trkpt lat="41.764371" lon="2.885546">
        <ele>130.0</ele>
        <time>2019-01-14T00:25:08Z</time>
      </trkpt>
      <trkpt lat="41.764305" lon="2.885419">
        <ele>130.0</ele>
        <time>2019-01-14T00:25:10Z</time>
      </trkpt>
      <trkpt lat="41.764236" lon="2.885282">
        <ele>130.0</ele>
        <time>2019-01-14T00:25:12Z</time>
      </trkpt>
      <trkpt lat="41.764153" lon="2.885152">
        <ele>129.0</ele>
        <time>2019-01-14T00:25:14Z</time>
      </trkpt>
      <trkpt lat="41.764065" lon="2.885020">
        <ele>129.0</ele>
        <time>2019-01-14T00:25:16Z</time>
      </trkpt>
      <trkpt lat="41.763978" lon="2.884883">
        <ele>129.0</ele>
        <time>2019-01-14T00:25:18Z</time>
      </trkpt>
      <trkpt lat="41.763881" lon="2.884739">
        <ele>128.0</ele>
        <time>2019-01-14T00:25:21Z</time>
      </trkpt>
      <trkpt lat="41.763786" lon="2.884611">
        <ele>127.0</ele>
        <time>2019-01-14T00:25:23Z</time>
      </trkpt>
      <trkpt lat="41.763676" lon="2.884501">
        <ele>126.0</ele>
        <time>2019-01-14T00:25:25Z</time>
      </trkpt>
      <trkpt lat="41.763551" lon="2.884413">
        <ele>126.0</ele>
        <time>2019-01-14T00:25:27Z</time>
      </trkpt>
      <trkpt lat="41.763436" lon="2.884329">
        <ele>125.0</ele>
        <time>2019-01-14T00:25:29Z</time>
      </trkpt>
      <trkpt lat="41.763297" lon="2.884325">
        <ele>125.0</ele>
        <time>2019-01-14T00:25:32Z</time>
      </trkpt>
      <trkpt lat="41.763155" lon="2.884347">
        <ele>125.0</ele>
        <time>2019-01-14T00:25:34Z</time>
      </trkpt>
      <trkpt lat="41.763013" lon="2.884383">
        <ele>124.0</ele>
        <time>2019-01-14T00:25:36Z</time>
      </trkpt>
      <trkpt lat="41.762875" lon="2.884424">
        <ele>123.0</ele>
        <time>2019-01-14T00:25:39Z</time>
      </trkpt>
      <trkpt lat="41.762741" lon="2.884465">
        <ele>123.0</ele>
        <time>2019-01-14T00:25:41Z</time>
      </trkpt>
      <trkpt lat="41.762610" lon="2.884501">
        <ele>122.0</ele>
        <time>2019-01-14T00:25:43Z</time>
      </trkpt>
      <trkpt lat="41.762478" lon="2.884531">
        <ele>122.0</ele>
        <time>2019-01-14T00:25:45Z</time>
      </trkpt>
      <trkpt lat="41.762349" lon="2.884559">
        <ele>121.0</ele>
        <time>2019-01-14T00:25:47Z</time>
      </trkpt>
      <trkpt lat="41.762218" lon="2.884578">
        <ele>121.0</ele>
        <time>2019-01-14T00:25:49Z</time>
      </trkpt>
      <trkpt lat="41.762087" lon="2.884588">
        <ele>120.0</ele>
        <time>2019-01-14T00:25:51Z</time>
      </trkpt>
      <trkpt lat="41.761439" lon="2.884573">
        <ele>120.0</ele>
        <time>2019-01-14T00:26:02Z</time>
      </trkpt>
      <trkpt lat="41.760836" lon="2.884525">
        <ele>119.0</ele>
        <time>2019-01-14T00:26:11Z</time>
      </trkpt>
      <trkpt lat="41.760624" lon="2.884521">
        <ele>119.0</ele>
        <time>2019-01-14T00:26:15Z</time>
      </trkpt>
      <trkpt lat="41.760082" lon="2.884608">
        <ele>117.0</ele>
        <time>2019-01-14T00:26:23Z</time>
      </trkpt>
      <trkpt lat="41.759634" lon="2.884710">
        <ele>115.0</ele>
        <time>2019-01-14T00:26:31Z</time>
      </trkpt>
      <trkpt lat="41.759523" lon="2.884736">
        <ele>115.0</ele>
        <time>2019-01-14T00:26:33Z</time>
      </trkpt>
      <trkpt lat="41.759406" lon="2.884763">
        <ele>114.0</ele>
        <time>2019-01-14T00:26:34Z</time>
      </trkpt>
      <trkpt lat="41.759289" lon="2.884790">
        <ele>114.0</ele>
        <time>2019-01-14T00:26:36Z</time>
      </trkpt>
      <trkpt lat="41.759174" lon="2.884816">
        <ele>113.0</ele>
        <time>2019-01-14T00:26:38Z</time>
      </trkpt>
      <trkpt lat="41.759058" lon="2.884846">
        <ele>112.0</ele>
        <time>2019-01-14T00:26:40Z</time>
      </trkpt>
      <trkpt lat="41.758943" lon="2.884874">
        <ele>112.0</ele>
        <time>2019-01-14T00:26:42Z</time>
      </trkpt>
      <trkpt lat="41.758831" lon="2.884902">
        <ele>111.0</ele>
        <time>2019-01-14T00:26:44Z</time>
      </trkpt>
      <trkpt lat="41.758719" lon="2.884929">
        <ele>111.0</ele>
        <time>2019-01-14T00:26:46Z</time>
      </trkpt>
      <trkpt lat="41.758603" lon="2.884960">
        <ele>110.0</ele>
        <time>2019-01-14T00:26:48Z</time>
      </trkpt>
      <trkpt lat="41.758494" lon="2.884996">
        <ele>110.0</ele>
        <time>2019-01-14T00:26:49Z</time>
      </trkpt>
      <trkpt lat="41.758387" lon="2.885028">
        <ele>109.0</ele>
        <time>2019-01-14T00:26:51Z</time>
      </trkpt>
      <trkpt lat="41.758171" lon="2.885112">
        <ele>108.0</ele>
        <time>2019-01-14T00:26:55Z</time>
      </trkpt>
      <trkpt lat="41.758062" lon="2.885164">
        <ele>108.0</ele>
        <time>2019-01-14T00:26:57Z</time>
      </trkpt>
      <trkpt lat="41.757951" lon="2.885216">
        <ele>107.0</ele>
        <time>2019-01-14T00:26:58Z</time>
      </trkpt>
      <trkpt lat="41.757840" lon="2.885274">
        <ele>107.0</ele>
        <time>2019-01-14T00:27:00Z</time>
      </trkpt>
      <trkpt lat="41.757726" lon="2.885337">
        <ele>106.0</ele>
        <time>2019-01-14T00:27:02Z</time>
      </trkpt>
      <trkpt lat="41.757619" lon="2.885404">
        <ele>105.0</ele>
        <time>2019-01-14T00:27:04Z</time>
      </trkpt>
      <trkpt lat="41.757509" lon="2.885471">
        <ele>105.0</ele>
        <time>2019-01-14T00:27:06Z</time>
      </trkpt>
      <trkpt lat="41.757405" lon="2.885547">
        <ele>104.0</ele>
        <time>2019-01-14T00:27:08Z</time>
      </trkpt>
      <trkpt lat="41.757299" lon="2.885620">
        <ele>103.0</ele>
        <time>2019-01-14T00:27:10Z</time>
      </trkpt>
      <trkpt lat="41.757195" lon="2.885704">
        <ele>103.0</ele>
        <time>2019-01-14T00:27:12Z</time>
      </trkpt>
      <trkpt lat="41.757095" lon="2.885792">
        <ele>102.0</ele>
        <time>2019-01-14T00:27:14Z</time>
      </trkpt>
      <trkpt lat="41.756999" lon="2.885899">
        <ele>101.0</ele>
        <time>2019-01-14T00:27:16Z</time>
      </trkpt>
      <trkpt lat="41.756915" lon="2.886014">
        <ele>101.0</ele>
        <time>2019-01-14T00:27:18Z</time>
      </trkpt>
      <trkpt lat="41.756840" lon="2.886141">
        <ele>100.0</ele>
        <time>2019-01-14T00:27:20Z</time>
      </trkpt>
      <trkpt lat="41.756775" lon="2.886276">
        <ele>99.0</ele>
        <time>2019-01-14T00:27:22Z</time>
      </trkpt>
      <trkpt lat="41.756701" lon="2.886415">
        <ele>100.0</ele>
        <time>2019-01-14T00:27:24Z</time>
      </trkpt>
      <trkpt lat="41.756633" lon="2.886565">
        <ele>100.0</ele>
        <time>2019-01-14T00:27:26Z</time>
      </trkpt>
      <trkpt lat="41.756567" lon="2.886709">
        <ele>100.0</ele>
        <time>2019-01-14T00:27:28Z</time>
      </trkpt>
      <trkpt lat="41.756431" lon="2.886989">
        <ele>101.0</ele>
        <time>2019-01-14T00:27:32Z</time>
      </trkpt>
      <trkpt lat="41.756305" lon="2.887256">
        <ele>101.0</ele>
        <time>2019-01-14T00:27:35Z</time>
      </trkpt>
      <trkpt lat="41.756183" lon="2.887513">
        <ele>101.0</ele>
        <time>2019-01-14T00:27:39Z</time>
      </trkpt>
      <trkpt lat="41.755987" lon="2.887889">
        <ele>102.0</ele>
        <time>2019-01-14T00:27:45Z</time>
      </trkpt>
      <trkpt lat="41.755916" lon="2.887999">
        <ele>102.0</ele>
        <time>2019-01-14T00:27:46Z</time>
      </trkpt>
      <trkpt lat="41.755759" lon="2.888197">
        <ele>102.0</ele>
        <time>2019-01-14T00:27:50Z</time>
      </trkpt>
      <trkpt lat="41.755582" lon="2.888358">
        <ele>102.0</ele>
        <time>2019-01-14T00:27:53Z</time>
      </trkpt>
      <trkpt lat="41.755290" lon="2.888539">
        <ele>102.0</ele>
        <time>2019-01-14T00:27:58Z</time>
      </trkpt>
      <trkpt lat="41.755188" lon="2.888575">
        <ele>102.0</ele>
        <time>2019-01-14T00:28:00Z</time>
      </trkpt>
      <trkpt lat="41.754885" lon="2.888650">
        <ele>101.0</ele>
        <time>2019-01-14T00:28:05Z</time>
      </trkpt>
      <trkpt lat="41.754783" lon="2.888672">
        <ele>101.0</ele>
        <time>2019-01-14T00:28:07Z</time>
      </trkpt>
      <trkpt lat="41.754683" lon="2.888697">
        <ele>101.0</ele>
        <time>2019-01-14T00:28:08Z</time>
      </trkpt>
      <trkpt lat="41.754575" lon="2.888721">
        <ele>101.0</ele>
        <time>2019-01-14T00:28:10Z</time>
      </trkpt>
      <trkpt lat="41.754472" lon="2.888747">
        <ele>101.0</ele>
        <time>2019-01-14T00:28:12Z</time>
      </trkpt>
      <trkpt lat="41.753959" lon="2.888933">
        <ele>98.0</ele>
        <time>2019-01-14T00:28:20Z</time>
      </trkpt>
      <trkpt lat="41.753857" lon="2.889008">
        <ele>98.0</ele>
        <time>2019-01-14T00:28:22Z</time>
      </trkpt>
      <trkpt lat="41.753764" lon="2.889089">
        <ele>97.0</ele>
        <time>2019-01-14T00:28:24Z</time>
      </trkpt>
      <trkpt lat="41.753674" lon="2.889180">
        <ele>97.0</ele>
        <time>2019-01-14T00:28:26Z</time>
      </trkpt>
      <trkpt lat="41.753591" lon="2.889286">
        <ele>96.0</ele>
        <time>2019-01-14T00:28:27Z</time>
      </trkpt>
      <trkpt lat="41.753512" lon="2.889400">
        <ele>95.0</ele>
        <time>2019-01-14T00:28:29Z</time>
      </trkpt>
      <trkpt lat="41.753440" lon="2.889527">
        <ele>95.0</ele>
        <time>2019-01-14T00:28:31Z</time>
      </trkpt>
      <trkpt lat="41.753377" lon="2.889666">
        <ele>94.0</ele>
        <time>2019-01-14T00:28:33Z</time>
      </trkpt>
      <trkpt lat="41.753314" lon="2.889806">
        <ele>93.0</ele>
        <time>2019-01-14T00:28:35Z</time>
      </trkpt>
      <trkpt lat="41.753252" lon="2.889961">
        <ele>92.0</ele>
        <time>2019-01-14T00:28:37Z</time>
      </trkpt>
      <trkpt lat="41.753197" lon="2.890119">
        <ele>92.0</ele>
        <time>2019-01-14T00:28:39Z</time>
      </trkpt>
      <trkpt lat="41.753133" lon="2.890272">
        <ele>91.0</ele>
        <time>2019-01-14T00:28:41Z</time>
      </trkpt>
      <trkpt lat="41.753065" lon="2.890423">
        <ele>90.0</ele>
        <time>2019-01-14T00:28:44Z</time>
      </trkpt>
      <trkpt lat="41.752986" lon="2.890568">
        <ele>89.0</ele>
        <time>2019-01-14T00:28:46Z</time>
      </trkpt>
      <trkpt lat="41.752888" lon="2.890703">
        <ele>88.0</ele>
        <time>2019-01-14T00:28:48Z</time>
      </trkpt>
      <trkpt lat="41.752785" lon="2.890815">
        <ele>88.0</ele>
        <time>2019-01-14T00:28:50Z</time>
      </trkpt>
      <trkpt lat="41.752675" lon="2.890916">
        <ele>87.0</ele>
        <time>2019-01-14T00:28:52Z</time>
      </trkpt>
      <trkpt lat="41.752566" lon="2.891011">
        <ele>87.0</ele>
        <time>2019-01-14T00:28:54Z</time>
      </trkpt>
      <trkpt lat="41.752460" lon="2.891102">
        <ele>87.0</ele>
        <time>2019-01-14T00:28:56Z</time>
      </trkpt>
      <trkpt lat="41.752360" lon="2.891199">
        <ele>87.0</ele>
        <time>2019-01-14T00:28:58Z</time>
      </trkpt>
      <trkpt lat="41.752254" lon="2.891282">
        <ele>87.0</ele>
        <time>2019-01-14T00:29:00Z</time>
      </trkpt>
      <trkpt lat="41.752143" lon="2.891350">
        <ele>86.0</ele>
        <time>2019-01-14T00:29:02Z</time>
      </trkpt>
      <trkpt lat="41.752027" lon="2.891379">
        <ele>86.0</ele>
        <time>2019-01-14T00:29:04Z</time>
      </trkpt>
      <trkpt lat="41.751910" lon="2.891381">
        <ele>85.0</ele>
        <time>2019-01-14T00:29:06Z</time>
      </trkpt>
      <trkpt lat="41.751556" lon="2.891286">
        <ele>83.0</ele>
        <time>2019-01-14T00:29:12Z</time>
      </trkpt>
      <trkpt lat="41.750936" lon="2.891165">
        <ele>79.0</ele>
        <time>2019-01-14T00:29:22Z</time>
      </trkpt>
      <trkpt lat="41.750809" lon="2.891157">
        <ele>79.0</ele>
        <time>2019-01-14T00:29:24Z</time>
      </trkpt>
      <trkpt lat="41.750682" lon="2.891153">
        <ele>78.0</ele>
        <time>2019-01-14T00:29:26Z</time>
      </trkpt>
      <trkpt lat="41.750558" lon="2.891161">
        <ele>78.0</ele>
        <time>2019-01-14T00:29:28Z</time>
      </trkpt>
      <trkpt lat="41.750435" lon="2.891169">
        <ele>77.0</ele>
        <time>2019-01-14T00:29:30Z</time>
      </trkpt>
      <trkpt lat="41.750315" lon="2.891184">
        <ele>77.0</ele>
        <time>2019-01-14T00:29:32Z</time>
      </trkpt>
      <trkpt lat="41.750197" lon="2.891209">
        <ele>77.0</ele>
        <time>2019-01-14T00:29:34Z</time>
      </trkpt>
      <trkpt lat="41.750075" lon="2.891240">
        <ele>77.0</ele>
        <time>2019-01-14T00:29:36Z</time>
      </trkpt>
      <trkpt lat="41.749961" lon="2.891264">
        <ele>77.0</ele>
        <time>2019-01-14T00:29:37Z</time>
      </trkpt>
      <trkpt lat="41.749846" lon="2.891298">
        <ele>76.0</ele>
        <time>2019-01-14T00:29:39Z</time>
      </trkpt>
      <trkpt lat="41.749730" lon="2.891330">
        <ele>76.0</ele>
        <time>2019-01-14T00:29:41Z</time>
      </trkpt>
      <trkpt lat="41.749617" lon="2.891374">
        <ele>76.0</ele>
        <time>2019-01-14T00:29:43Z</time>
      </trkpt>
      <trkpt lat="41.749164" lon="2.891538">
        <ele>75.0</ele>
        <time>2019-01-14T00:29:51Z</time>
      </trkpt>
      <trkpt lat="41.748620" lon="2.891781">
        <ele>74.0</ele>
        <time>2019-01-14T00:30:00Z</time>
      </trkpt>
      <trkpt lat="41.748518" lon="2.891847">
        <ele>74.0</ele>
        <time>2019-01-14T00:30:02Z</time>
      </trkpt>
      <trkpt lat="41.748040" lon="2.892247">
        <ele>74.0</ele>
        <time>2019-01-14T00:30:11Z</time>
      </trkpt>
      <trkpt lat="41.747855" lon="2.892411">
        <ele>74.0</ele>
        <time>2019-01-14T00:30:14Z</time>
      </trkpt>
      <trkpt lat="41.747766" lon="2.892497">
        <ele>74.0</ele>
        <time>2019-01-14T00:30:16Z</time>
      </trkpt>
      <trkpt lat="41.747674" lon="2.892582">
        <ele>74.0</ele>
        <time>2019-01-14T00:30:18Z</time>
      </trkpt>
      <trkpt lat="41.747584" lon="2.892669">
        <ele>74.0</ele>
        <time>2019-01-14T00:30:19Z</time>
      </trkpt>
      <trkpt lat="41.747498" lon="2.892757">
        <ele>74.0</ele>
        <time>2019-01-14T00:30:21Z</time>
      </trkpt>
      <trkpt lat="41.747420" lon="2.892840">
        <ele>73.0</ele>
        <time>2019-01-14T00:30:23Z</time>
      </trkpt>
      <trkpt lat="41.747152" lon="2.893097">
        <ele>73.0</ele>
        <time>2019-01-14T00:30:28Z</time>
      </trkpt>
      <trkpt lat="41.746964" lon="2.893257">
        <ele>73.0</ele>
        <time>2019-01-14T00:30:32Z</time>
      </trkpt>
      <trkpt lat="41.746878" lon="2.893341">
        <ele>73.0</ele>
        <time>2019-01-14T00:30:33Z</time>
      </trkpt>
      <trkpt lat="41.746789" lon="2.893421">
        <ele>72.0</ele>
        <time>2019-01-14T00:30:35Z</time>
      </trkpt>
      <trkpt lat="41.746700" lon="2.893505">
        <ele>72.0</ele>
        <time>2019-01-14T00:30:37Z</time>
      </trkpt>
      <trkpt lat="41.746614" lon="2.893588">
        <ele>72.0</ele>
        <time>2019-01-14T00:30:39Z</time>
      </trkpt>
      <trkpt lat="41.746234" lon="2.893880">
        <ele>70.0</ele>
        <time>2019-01-14T00:30:46Z</time>
      </trkpt>
      <trkpt lat="41.745819" lon="2.894045">
        <ele>69.0</ele>
        <time>2019-01-14T00:30:52Z</time>
      </trkpt>
      <trkpt lat="41.745277" lon="2.894181">
        <ele>72.0</ele>
        <time>2019-01-14T00:31:01Z</time>
      </trkpt>
      <trkpt lat="41.745169" lon="2.894200">
        <ele>72.0</ele>
        <time>2019-01-14T00:31:03Z</time>
      </trkpt>
      <trkpt lat="41.745061" lon="2.894221">
        <ele>71.0</ele>
        <time>2019-01-14T00:31:05Z</time>
      </trkpt>
      <trkpt lat="41.744953" lon="2.894241">
        <ele>71.0</ele>
        <time>2019-01-14T00:31:07Z</time>
      </trkpt>
      <trkpt lat="41.744844" lon="2.894260">
        <ele>70.0</ele>
        <time>2019-01-14T00:31:08Z</time>
      </trkpt>
      <trkpt lat="41.744731" lon="2.894281">
        <ele>70.0</ele>
        <time>2019-01-14T00:31:10Z</time>
      </trkpt>
      <trkpt lat="41.744625" lon="2.894302">
        <ele>70.0</ele>
        <time>2019-01-14T00:31:12Z</time>
      </trkpt>
      <trkpt lat="41.744087" lon="2.894383">
        <ele>68.0</ele>
        <time>2019-01-14T00:31:21Z</time>
      </trkpt>
      <trkpt lat="41.743451" lon="2.894488">
        <ele>66.0</ele>
        <time>2019-01-14T00:31:31Z</time>
      </trkpt>
      <trkpt lat="41.743348" lon="2.894521">
        <ele>65.0</ele>
        <time>2019-01-14T00:31:32Z</time>
      </trkpt>
      <trkpt lat="41.742861" lon="2.894730">
        <ele>64.0</ele>
        <time>2019-01-14T00:31:41Z</time>
      </trkpt>
      <trkpt lat="41.742699" lon="2.894878">
        <ele>65.0</ele>
        <time>2019-01-14T00:31:44Z</time>
      </trkpt>
      <trkpt lat="41.742631" lon="2.894967">
        <ele>65.0</ele>
        <time>2019-01-14T00:31:45Z</time>
      </trkpt>
      <trkpt lat="41.742563" lon="2.895077">
        <ele>65.0</ele>
        <time>2019-01-14T00:31:47Z</time>
      </trkpt>
      <trkpt lat="41.742512" lon="2.895191">
        <ele>65.0</ele>
        <time>2019-01-14T00:31:49Z</time>
      </trkpt>
      <trkpt lat="41.742470" lon="2.895316">
        <ele>64.0</ele>
        <time>2019-01-14T00:31:50Z</time>
      </trkpt>
      <trkpt lat="41.742431" lon="2.895442">
        <ele>64.0</ele>
        <time>2019-01-14T00:31:52Z</time>
      </trkpt>
      <trkpt lat="41.742401" lon="2.895574">
        <ele>64.0</ele>
        <time>2019-01-14T00:31:54Z</time>
      </trkpt>
      <trkpt lat="41.742370" lon="2.895844">
        <ele>63.0</ele>
        <time>2019-01-14T00:31:57Z</time>
      </trkpt>
      <trkpt lat="41.742342" lon="2.896557">
        <ele>62.0</ele>
        <time>2019-01-14T00:32:05Z</time>
      </trkpt>
      <trkpt lat="41.742327" lon="2.896845">
        <ele>64.0</ele>
        <time>2019-01-14T00:32:09Z</time>
      </trkpt>
      <trkpt lat="41.742322" lon="2.896993">
        <ele>65.0</ele>
        <time>2019-01-14T00:32:11Z</time>
      </trkpt>
      <trkpt lat="41.742315" lon="2.897149">
        <ele>65.0</ele>
        <time>2019-01-14T00:32:12Z</time>
      </trkpt>
      <trkpt lat="41.742312" lon="2.897296">
        <ele>65.0</ele>
        <time>2019-01-14T00:32:14Z</time>
      </trkpt>
      <trkpt lat="41.742305" lon="2.897441">
        <ele>65.0</ele>
        <time>2019-01-14T00:32:16Z</time>
      </trkpt>
      <trkpt lat="41.742300" lon="2.897587">
        <ele>65.0</ele>
        <time>2019-01-14T00:32:18Z</time>
      </trkpt>
      <trkpt lat="41.742285" lon="2.897730">
        <ele>65.0</ele>
        <time>2019-01-14T00:32:19Z</time>
      </trkpt>
      <trkpt lat="41.742225" lon="2.898006">
        <ele>65.0</ele>
        <time>2019-01-14T00:32:23Z</time>
      </trkpt>
      <trkpt lat="41.742177" lon="2.898135">
        <ele>65.0</ele>
        <time>2019-01-14T00:32:25Z</time>
      </trkpt>
      <trkpt lat="41.741962" lon="2.898462">
        <ele>65.0</ele>
        <time>2019-01-14T00:32:30Z</time>
      </trkpt>
      <trkpt lat="41.741680" lon="2.898664">
        <ele>65.0</ele>
        <time>2019-01-14T00:32:35Z</time>
      </trkpt>
      <trkpt lat="41.741361" lon="2.898715">
        <ele>65.0</ele>
        <time>2019-01-14T00:32:40Z</time>
      </trkpt>
      <trkpt lat="41.741049" lon="2.898625">
        <ele>64.0</ele>
        <time>2019-01-14T00:32:45Z</time>
      </trkpt>
      <trkpt lat="41.740953" lon="2.898558">
        <ele>63.0</ele>
        <time>2019-01-14T00:32:47Z</time>
      </trkpt>
      <trkpt lat="41.740860" lon="2.898477">
        <ele>63.0</ele>
        <time>2019-01-14T00:32:49Z</time>
      </trkpt>
      <trkpt lat="41.740775" lon="2.898380">
        <ele>63.0</ele>
        <time>2019-01-14T00:32:50Z</time>
      </trkpt>
      <trkpt lat="41.740691" lon="2.898265">
        <ele>63.0</ele>
        <time>2019-01-14T00:32:52Z</time>
      </trkpt>
      <trkpt lat="41.740620" lon="2.898146">
        <ele>62.0</ele>
        <time>2019-01-14T00:32:54Z</time>
      </trkpt>
      <trkpt lat="41.740561" lon="2.898018">
        <ele>61.0</ele>
        <time>2019-01-14T00:32:56Z</time>
      </trkpt>
      <trkpt lat="41.740505" lon="2.897886">
        <ele>60.0</ele>
        <time>2019-01-14T00:32:58Z</time>
      </trkpt>
      <trkpt lat="41.740454" lon="2.897753">
        <ele>60.0</ele>
        <time>2019-01-14T00:33:00Z</time>
      </trkpt>
      <trkpt lat="41.740406" lon="2.897619">
        <ele>60.0</ele>
        <time>2019-01-14T00:33:01Z</time>
      </trkpt>
      <trkpt lat="41.740356" lon="2.897488">
        <ele>59.0</ele>
        <time>2019-01-14T00:33:03Z</time>
      </trkpt>
      <trkpt lat="41.740301" lon="2.897357">
        <ele>59.0</ele>
        <time>2019-01-14T00:33:05Z</time>
      </trkpt>
      <trkpt lat="41.740241" lon="2.897242">
        <ele>59.0</ele>
        <time>2019-01-14T00:33:07Z</time>
      </trkpt>
      <trkpt lat="41.740176" lon="2.897137">
        <ele>59.0</ele>
        <time>2019-01-14T00:33:08Z</time>
      </trkpt>
      <trkpt lat="41.740101" lon="2.897047">
        <ele>58.0</ele>
        <time>2019-01-14T00:33:10Z</time>
      </trkpt>
      <trkpt lat="41.740022" lon="2.896965">
        <ele>58.0</ele>
        <time>2019-01-14T00:33:11Z</time>
      </trkpt>
      <trkpt lat="41.739937" lon="2.896892">
        <ele>58.0</ele>
        <time>2019-01-14T00:33:13Z</time>
      </trkpt>
      <trkpt lat="41.739848" lon="2.896830">
        <ele>58.0</ele>
        <time>2019-01-14T00:33:15Z</time>
      </trkpt>
      <trkpt lat="41.739748" lon="2.896784">
        <ele>58.0</ele>
        <time>2019-01-14T00:33:16Z</time>
      </trkpt>
      <trkpt lat="41.739656" lon="2.896751">
        <ele>58.0</ele>
        <time>2019-01-14T00:33:18Z</time>
      </trkpt>
      <trkpt lat="41.739568" lon="2.896738">
        <ele>57.0</ele>
        <time>2019-01-14T00:33:19Z</time>
      </trkpt>
      <trkpt lat="41.739480" lon="2.896731">
        <ele>57.0</ele>
        <time>2019-01-14T00:33:21Z</time>
      </trkpt>
      <trkpt lat="41.739389" lon="2.896741">
        <ele>56.0</ele>
        <time>2019-01-14T00:33:22Z</time>
      </trkpt>
      <trkpt lat="41.739296" lon="2.896761">
        <ele>56.0</ele>
        <time>2019-01-14T00:33:24Z</time>
      </trkpt>
      <trkpt lat="41.739202" lon="2.896799">
        <ele>56.0</ele>
        <time>2019-01-14T00:33:25Z</time>
      </trkpt>
      <trkpt lat="41.739104" lon="2.896838">
        <ele>55.0</ele>
        <time>2019-01-14T00:33:27Z</time>
      </trkpt>
      <trkpt lat="41.738997" lon="2.896872">
        <ele>55.0</ele>
        <time>2019-01-14T00:33:29Z</time>
      </trkpt>
      <trkpt lat="41.738572" lon="2.897022">
        <ele>54.0</ele>
        <time>2019-01-14T00:33:36Z</time>
      </trkpt>
      <trkpt lat="41.738464" lon="2.897053">
        <ele>54.0</ele>
        <time>2019-01-14T00:33:37Z</time>
      </trkpt>
      <trkpt lat="41.738350" lon="2.897088">
        <ele>54.0</ele>
        <time>2019-01-14T00:33:39Z</time>
      </trkpt>
      <trkpt lat="41.738233" lon="2.897113">
        <ele>54.0</ele>
        <time>2019-01-14T00:33:41Z</time>
      </trkpt>
      <trkpt lat="41.738109" lon="2.897132">
        <ele>54.0</ele>
        <time>2019-01-14T00:33:43Z</time>
      </trkpt>
      <trkpt lat="41.737990" lon="2.897133">
        <ele>54.0</ele>
        <time>2019-01-14T00:33:45Z</time>
      </trkpt>
      <trkpt lat="41.737873" lon="2.897123">
        <ele>53.0</ele>
        <time>2019-01-14T00:33:47Z</time>
      </trkpt>
      <trkpt lat="41.737535" lon="2.897049">
        <ele>53.0</ele>
        <time>2019-01-14T00:33:52Z</time>
      </trkpt>
      <trkpt lat="41.737424" lon="2.897013">
        <ele>53.0</ele>
        <time>2019-01-14T00:33:54Z</time>
      </trkpt>
      <trkpt lat="41.736897" lon="2.896759">
        <ele>52.0</ele>
        <time>2019-01-14T00:34:03Z</time>
      </trkpt>
      <trkpt lat="41.736416" lon="2.896363">
        <ele>52.0</ele>
        <time>2019-01-14T00:34:12Z</time>
      </trkpt>
      <trkpt lat="41.735958" lon="2.895997">
        <ele>51.0</ele>
        <time>2019-01-14T00:34:21Z</time>
      </trkpt>
      <trkpt lat="41.735865" lon="2.895939">
        <ele>51.0</ele>
        <time>2019-01-14T00:34:22Z</time>
      </trkpt>
      <trkpt lat="41.735563" lon="2.895819">
        <ele>51.0</ele>
        <time>2019-01-14T00:34:27Z</time>
      </trkpt>
      <trkpt lat="41.735460" lon="2.895807">
        <ele>51.0</ele>
        <time>2019-01-14T00:34:29Z</time>
      </trkpt>
      <trkpt lat="41.735059" lon="2.895833">
        <ele>51.0</ele>
        <time>2019-01-14T00:34:36Z</time>
      </trkpt>
      <trkpt lat="41.734871" lon="2.895900">
        <ele>51.0</ele>
        <time>2019-01-14T00:34:39Z</time>
      </trkpt>
      <trkpt lat="41.734690" lon="2.896004">
        <ele>51.0</ele>
        <time>2019-01-14T00:34:42Z</time>
      </trkpt>
      <trkpt lat="41.734518" lon="2.896129">
        <ele>51.0</ele>
        <time>2019-01-14T00:34:45Z</time>
      </trkpt>
      <trkpt lat="41.734370" lon="2.896296">
        <ele>50.0</ele>
        <time>2019-01-14T00:34:48Z</time>
      </trkpt>
      <trkpt lat="41.734039" lon="2.896790">
        <ele>50.0</ele>
        <time>2019-01-14T00:34:56Z</time>
      </trkpt>
      <trkpt lat="41.733975" lon="2.896899">
        <ele>50.0</ele>
        <time>2019-01-14T00:34:58Z</time>
      </trkpt>
      <trkpt lat="41.733912" lon="2.897009">
        <ele>50.0</ele>
        <time>2019-01-14T00:34:59Z</time>
      </trkpt>
      <trkpt lat="41.733840" lon="2.897123">
        <ele>50.0</ele>
        <time>2019-01-14T00:35:01Z</time>
      </trkpt>
      <trkpt lat="41.733772" lon="2.897232">
        <ele>50.0</ele>
        <time>2019-01-14T00:35:03Z</time>
      </trkpt>
      <trkpt lat="41.733702" lon="2.897341">
        <ele>50.0</ele>
        <time>2019-01-14T00:35:04Z</time>
      </trkpt>
      <trkpt lat="41.733632" lon="2.897449">
        <ele>50.0</ele>
        <time>2019-01-14T00:35:06Z</time>
      </trkpt>
      <trkpt lat="41.733563" lon="2.897558">
        <ele>49.0</ele>
        <time>2019-01-14T00:35:08Z</time>
      </trkpt>
      <trkpt lat="41.733490" lon="2.897668">
        <ele>49.0</ele>
        <time>2019-01-14T00:35:10Z</time>
      </trkpt>
      <trkpt lat="41.733345" lon="2.897900">
        <ele>48.0</ele>
        <time>2019-01-14T00:35:13Z</time>
      </trkpt>
      <trkpt lat="41.733278" lon="2.898007">
        <ele>48.0</ele>
        <time>2019-01-14T00:35:15Z</time>
      </trkpt>
      <trkpt lat="41.733205" lon="2.898110">
        <ele>47.0</ele>
        <time>2019-01-14T00:35:17Z</time>
      </trkpt>
      <trkpt lat="41.733131" lon="2.898213">
        <ele>47.0</ele>
        <time>2019-01-14T00:35:18Z</time>
      </trkpt>
      <trkpt lat="41.733046" lon="2.898322">
        <ele>47.0</ele>
        <time>2019-01-14T00:35:20Z</time>
      </trkpt>
      <trkpt lat="41.732953" lon="2.898416">
        <ele>46.0</ele>
        <time>2019-01-14T00:35:22Z</time>
      </trkpt>
      <trkpt lat="41.732858" lon="2.898503">
        <ele>46.0</ele>
        <time>2019-01-14T00:35:24Z</time>
      </trkpt>
      <trkpt lat="41.732752" lon="2.898574">
        <ele>45.0</ele>
        <time>2019-01-14T00:35:26Z</time>
      </trkpt>
      <trkpt lat="41.732640" lon="2.898640">
        <ele>45.0</ele>
        <time>2019-01-14T00:35:28Z</time>
      </trkpt>
      <trkpt lat="41.732531" lon="2.898692">
        <ele>45.0</ele>
        <time>2019-01-14T00:35:30Z</time>
      </trkpt>
      <trkpt lat="41.732419" lon="2.898736">
        <ele>44.0</ele>
        <time>2019-01-14T00:35:32Z</time>
      </trkpt>
      <trkpt lat="41.732304" lon="2.898763">
        <ele>44.0</ele>
        <time>2019-01-14T00:35:33Z</time>
      </trkpt>
      <trkpt lat="41.732071" lon="2.898804">
        <ele>43.0</ele>
        <time>2019-01-14T00:35:37Z</time>
      </trkpt>
      <trkpt lat="41.731615" lon="2.898853">
        <ele>42.0</ele>
        <time>2019-01-14T00:35:44Z</time>
      </trkpt>
      <trkpt lat="41.731056" lon="2.898921">
        <ele>42.0</ele>
        <time>2019-01-14T00:35:53Z</time>
      </trkpt>
      <trkpt lat="41.730828" lon="2.898942">
        <ele>42.0</ele>
        <time>2019-01-14T00:35:57Z</time>
      </trkpt>
      <trkpt lat="41.730287" lon="2.899015">
        <ele>41.0</ele>
        <time>2019-01-14T00:36:06Z</time>
      </trkpt>
      <trkpt lat="41.729966" lon="2.899066">
        <ele>41.0</ele>
        <time>2019-01-14T00:36:11Z</time>
      </trkpt>
      <trkpt lat="41.729863" lon="2.899078">
        <ele>41.0</ele>
        <time>2019-01-14T00:36:13Z</time>
      </trkpt>
      <trkpt lat="41.729761" lon="2.899091">
        <ele>41.0</ele>
        <time>2019-01-14T00:36:14Z</time>
      </trkpt>
      <trkpt lat="41.729660" lon="2.899106">
        <ele>41.0</ele>
        <time>2019-01-14T00:36:16Z</time>
      </trkpt>
      <trkpt lat="41.729560" lon="2.899126">
        <ele>41.0</ele>
        <time>2019-01-14T00:36:18Z</time>
      </trkpt>
      <trkpt lat="41.729260" lon="2.899226">
        <ele>41.0</ele>
        <time>2019-01-14T00:36:22Z</time>
      </trkpt>
      <trkpt lat="41.728815" lon="2.899497">
        <ele>41.0</ele>
        <time>2019-01-14T00:36:30Z</time>
      </trkpt>
      <trkpt lat="41.728511" lon="2.899825">
        <ele>41.0</ele>
        <time>2019-01-14T00:36:37Z</time>
      </trkpt>
      <trkpt lat="41.728361" lon="2.900157">
        <ele>41.0</ele>
        <time>2019-01-14T00:36:41Z</time>
      </trkpt>
      <trkpt lat="41.728325" lon="2.900273">
        <ele>41.0</ele>
        <time>2019-01-14T00:36:43Z</time>
      </trkpt>
      <trkpt lat="41.728302" lon="2.900400">
        <ele>41.0</ele>
        <time>2019-01-14T00:36:44Z</time>
      </trkpt>
      <trkpt lat="41.728286" lon="2.900528">
        <ele>41.0</ele>
        <time>2019-01-14T00:36:46Z</time>
      </trkpt>
      <trkpt lat="41.728275" lon="2.900653">
        <ele>41.0</ele>
        <time>2019-01-14T00:36:47Z</time>
      </trkpt>
      <trkpt lat="41.728269" lon="2.900782">
        <ele>41.0</ele>
        <time>2019-01-14T00:36:49Z</time>
      </trkpt>
      <trkpt lat="41.728231" lon="2.901434">
        <ele>39.0</ele>
        <time>2019-01-14T00:36:57Z</time>
      </trkpt>
      <trkpt lat="41.728201" lon="2.902246">
        <ele>37.0</ele>
        <time>2019-01-14T00:37:06Z</time>
      </trkpt>
      <trkpt lat="41.728194" lon="2.902387">
        <ele>36.0</ele>
        <time>2019-01-14T00:37:08Z</time>
      </trkpt>
      <trkpt lat="41.728189" lon="2.902526">
        <ele>36.0</ele>
        <time>2019-01-14T00:37:10Z</time>
      </trkpt>
      <trkpt lat="41.728184" lon="2.902669">
        <ele>36.0</ele>
        <time>2019-01-14T00:37:11Z</time>
      </trkpt>
      <trkpt lat="41.728174" lon="2.902812">
        <ele>35.0</ele>
        <time>2019-01-14T00:37:13Z</time>
      </trkpt>
      <trkpt lat="41.728166" lon="2.902956">
        <ele>35.0</ele>
        <time>2019-01-14T00:37:15Z</time>
      </trkpt>
      <trkpt lat="41.728152" lon="2.903394">
        <ele>33.0</ele>
        <time>2019-01-14T00:37:20Z</time>
      </trkpt>
      <trkpt lat="41.728140" lon="2.903698">
        <ele>33.0</ele>
        <time>2019-01-14T00:37:24Z</time>
      </trkpt>
      <trkpt lat="41.728145" lon="2.903849">
        <ele>33.0</ele>
        <time>2019-01-14T00:37:26Z</time>
      </trkpt>
      <trkpt lat="41.728157" lon="2.903999">
        <ele>33.0</ele>
        <time>2019-01-14T00:37:27Z</time>
      </trkpt>
      <trkpt lat="41.728170" lon="2.904141">
        <ele>33.0</ele>
        <time>2019-01-14T00:37:29Z</time>
      </trkpt>
      <trkpt lat="41.728189" lon="2.904284">
        <ele>33.0</ele>
        <time>2019-01-14T00:37:31Z</time>
      </trkpt>
      <trkpt lat="41.728215" lon="2.904431">
        <ele>33.0</ele>
        <time>2019-01-14T00:37:33Z</time>
      </trkpt>
      <trkpt lat="41.728246" lon="2.904565">
        <ele>33.0</ele>
        <time>2019-01-14T00:37:34Z</time>
      </trkpt>
      <trkpt lat="41.728283" lon="2.904690">
        <ele>33.0</ele>
        <time>2019-01-14T00:37:36Z</time>
      </trkpt>
      <trkpt lat="41.728376" lon="2.904921">
        <ele>33.0</ele>
        <time>2019-01-14T00:37:39Z</time>
      </trkpt>
      <trkpt lat="41.728429" lon="2.905029">
        <ele>33.0</ele>
        <time>2019-01-14T00:37:41Z</time>
      </trkpt>
      <trkpt lat="41.728482" lon="2.905135">
        <ele>33.0</ele>
        <time>2019-01-14T00:37:42Z</time>
      </trkpt>
      <trkpt lat="41.728533" lon="2.905239">
        <ele>33.0</ele>
        <time>2019-01-14T00:37:44Z</time>
      </trkpt>
      <trkpt lat="41.728590" lon="2.905347">
        <ele>33.0</ele>
        <time>2019-01-14T00:37:45Z</time>
      </trkpt>
      <trkpt lat="41.728868" lon="2.905861">
        <ele>33.0</ele>
        <time>2019-01-14T00:37:53Z</time>
      </trkpt>
      <trkpt lat="41.729177" lon="2.906431">
        <ele>32.0</ele>
        <time>2019-01-14T00:38:01Z</time>
      </trkpt>
      <trkpt lat="41.729230" lon="2.906520">
        <ele>32.0</ele>
        <time>2019-01-14T00:38:03Z</time>
      </trkpt>
      <trkpt lat="41.729338" lon="2.906717">
        <ele>32.0</ele>
        <time>2019-01-14T00:38:05Z</time>
      </trkpt>
      <trkpt lat="41.729453" lon="2.906911">
        <ele>32.0</ele>
        <time>2019-01-14T00:38:08Z</time>
      </trkpt>
      <trkpt lat="41.729814" lon="2.907591">
        <ele>32.0</ele>
        <time>2019-01-14T00:38:18Z</time>
      </trkpt>
      <trkpt lat="41.730175" lon="2.908252">
        <ele>32.0</ele>
        <time>2019-01-14T00:38:28Z</time>
      </trkpt>
      <trkpt lat="41.730326" lon="2.908531">
        <ele>32.0</ele>
        <time>2019-01-14T00:38:32Z</time>
      </trkpt>
      <trkpt lat="41.730670" lon="2.909169">
        <ele>31.0</ele>
        <time>2019-01-14T00:38:42Z</time>
      </trkpt>
      <trkpt lat="41.730716" lon="2.909252">
        <ele>31.0</ele>
        <time>2019-01-14T00:38:43Z</time>
      </trkpt>
      <trkpt lat="41.730953" lon="2.909683">
        <ele>30.0</ele>
        <time>2019-01-14T00:38:49Z</time>
      </trkpt>
      <trkpt lat="41.730990" lon="2.909773">
        <ele>30.0</ele>
        <time>2019-01-14T00:38:51Z</time>
      </trkpt>
      <trkpt lat="41.731062" lon="2.909964">
        <ele>30.0</ele>
        <time>2019-01-14T00:38:53Z</time>
      </trkpt>
      <trkpt lat="41.731171" lon="2.910240">
        <ele>30.0</ele>
        <time>2019-01-14T00:38:57Z</time>
      </trkpt>
      <trkpt lat="41.731196" lon="2.910336">
        <ele>30.0</ele>
        <time>2019-01-14T00:38:58Z</time>
      </trkpt>
      <trkpt lat="41.731218" lon="2.910427">
        <ele>30.0</ele>
        <time>2019-01-14T00:38:59Z</time>
      </trkpt>
      <trkpt lat="41.731236" lon="2.910526">
        <ele>30.0</ele>
        <time>2019-01-14T00:39:00Z</time>
      </trkpt>
      <trkpt lat="41.731252" lon="2.910625">
        <ele>30.0</ele>
        <time>2019-01-14T00:39:02Z</time>
      </trkpt>
      <trkpt lat="41.731267" lon="2.910721">
        <ele>30.0</ele>
        <time>2019-01-14T00:39:03Z</time>
      </trkpt>
      <trkpt lat="41.731300" lon="2.910922">
        <ele>30.0</ele>
        <time>2019-01-14T00:39:05Z</time>
      </trkpt>
      <trkpt lat="41.731307" lon="2.911348">
        <ele>29.0</ele>
        <time>2019-01-14T00:39:10Z</time>
      </trkpt>
      <trkpt lat="41.731229" lon="2.911983">
        <ele>25.0</ele>
        <time>2019-01-14T00:39:18Z</time>
      </trkpt>
      <trkpt lat="41.731124" lon="2.912549">
        <ele>23.0</ele>
        <time>2019-01-14T00:39:25Z</time>
      </trkpt>
      <trkpt lat="41.731105" lon="2.912663">
        <ele>23.0</ele>
        <time>2019-01-14T00:39:26Z</time>
      </trkpt>
      <trkpt lat="41.731080" lon="2.912788">
        <ele>24.0</ele>
        <time>2019-01-14T00:39:28Z</time>
      </trkpt>
      <trkpt lat="41.731058" lon="2.912911">
        <ele>24.0</ele>
        <time>2019-01-14T00:39:29Z</time>
      </trkpt>
      <trkpt lat="41.731036" lon="2.913035">
        <ele>25.0</ele>
        <time>2019-01-14T00:39:31Z</time>
      </trkpt>
      <trkpt lat="41.730981" lon="2.913401">
        <ele>26.0</ele>
        <time>2019-01-14T00:39:35Z</time>
      </trkpt>
      <trkpt lat="41.730958" lon="2.913525">
        <ele>27.0</ele>
        <time>2019-01-14T00:39:37Z</time>
      </trkpt>
      <trkpt lat="41.730935" lon="2.913649">
        <ele>27.0</ele>
        <time>2019-01-14T00:39:39Z</time>
      </trkpt>
      <trkpt lat="41.730912" lon="2.913779">
        <ele>27.0</ele>
        <time>2019-01-14T00:39:40Z</time>
      </trkpt>
      <trkpt lat="41.730891" lon="2.913902">
        <ele>27.0</ele>
        <time>2019-01-14T00:39:42Z</time>
      </trkpt>
      <trkpt lat="41.730868" lon="2.914026">
        <ele>27.0</ele>
        <time>2019-01-14T00:39:43Z</time>
      </trkpt>
      <trkpt lat="41.730842" lon="2.914153">
        <ele>27.0</ele>
        <time>2019-01-14T00:39:45Z</time>
      </trkpt>
      <trkpt lat="41.730822" lon="2.914280">
        <ele>27.0</ele>
        <time>2019-01-14T00:39:46Z</time>
      </trkpt>
      <trkpt lat="41.730800" lon="2.914410">
        <ele>27.0</ele>
        <time>2019-01-14T00:39:48Z</time>
      </trkpt>
      <trkpt lat="41.730777" lon="2.914541">
        <ele>26.0</ele>
        <time>2019-01-14T00:39:49Z</time>
      </trkpt>
      <trkpt lat="41.730753" lon="2.914678">
        <ele>26.0</ele>
        <time>2019-01-14T00:39:51Z</time>
      </trkpt>
      <trkpt lat="41.730646" lon="2.915184">
        <ele>26.0</ele>
        <time>2019-01-14T00:39:57Z</time>
      </trkpt>
      <trkpt lat="41.730576" lon="2.915418">
        <ele>26.0</ele>
        <time>2019-01-14T00:40:00Z</time>
      </trkpt>
      <trkpt lat="41.730502" lon="2.915644">
        <ele>26.0</ele>
        <time>2019-01-14T00:40:03Z</time>
      </trkpt>
      <trkpt lat="41.730328" lon="2.916054">
        <ele>26.0</ele>
        <time>2019-01-14T00:40:09Z</time>
      </trkpt>
      <trkpt lat="41.729967" lon="2.916718">
        <ele>25.0</ele>
        <time>2019-01-14T00:40:19Z</time>
      </trkpt>
      <trkpt lat="41.729866" lon="2.916909">
        <ele>24.0</ele>
        <time>2019-01-14T00:40:22Z</time>
      </trkpt>
      <trkpt lat="41.729816" lon="2.917002">
        <ele>24.0</ele>
        <time>2019-01-14T00:40:23Z</time>
      </trkpt>
      <trkpt lat="41.729762" lon="2.917101">
        <ele>23.0</ele>
        <time>2019-01-14T00:40:24Z</time>
      </trkpt>
      <trkpt lat="41.729711" lon="2.917194">
        <ele>23.0</ele>
        <time>2019-01-14T00:40:26Z</time>
      </trkpt>
      <trkpt lat="41.729661" lon="2.917287">
        <ele>23.0</ele>
        <time>2019-01-14T00:40:27Z</time>
      </trkpt>
      <trkpt lat="41.729517" lon="2.917550">
        <ele>21.0</ele>
        <time>2019-01-14T00:40:31Z</time>
      </trkpt>
      <trkpt lat="41.729470" lon="2.917640">
        <ele>21.0</ele>
        <time>2019-01-14T00:40:32Z</time>
      </trkpt>
      <trkpt lat="41.729424" lon="2.917729">
        <ele>21.0</ele>
        <time>2019-01-14T00:40:34Z</time>
      </trkpt>
      <trkpt lat="41.729379" lon="2.917823">
        <ele>20.0</ele>
        <time>2019-01-14T00:40:35Z</time>
      </trkpt>
      <trkpt lat="41.729335" lon="2.917908">
        <ele>20.0</ele>
        <time>2019-01-14T00:40:36Z</time>
      </trkpt>
      <trkpt lat="41.729149" lon="2.918233">
        <ele>18.0</ele>
        <time>2019-01-14T00:40:41Z</time>
      </trkpt>
      <trkpt lat="41.729040" lon="2.918372">
        <ele>19.0</ele>
        <time>2019-01-14T00:40:44Z</time>
      </trkpt>
      <trkpt lat="41.728906" lon="2.918411">
        <ele>19.0</ele>
        <time>2019-01-14T00:40:46Z</time>
      </trkpt>
      <trkpt lat="41.728845" lon="2.918428">
        <ele>19.0</ele>
        <time>2019-01-14T00:40:47Z</time>
      </trkpt>
      <trkpt lat="41.728795" lon="2.918472">
        <ele>20.0</ele>
        <time>2019-01-14T00:40:48Z</time>
      </trkpt>
      <trkpt lat="41.728770" lon="2.918546">
        <ele>20.0</ele>
        <time>2019-01-14T00:40:49Z</time>
      </trkpt>
      <trkpt lat="41.728761" lon="2.918632">
        <ele>20.0</ele>
        <time>2019-01-14T00:40:50Z</time>
      </trkpt>
      <trkpt lat="41.728765" lon="2.918810">
        <ele>20.0</ele>
        <time>2019-01-14T00:40:52Z</time>
      </trkpt>
      <trkpt lat="41.728749" lon="2.918899">
        <ele>20.0</ele>
        <time>2019-01-14T00:40:53Z</time>
      </trkpt>
      <trkpt lat="41.728689" lon="2.919056">
        <ele>20.0</ele>
        <time>2019-01-14T00:40:55Z</time>
      </trkpt>
      <trkpt lat="41.728607" lon="2.919197">
        <ele>20.0</ele>
        <time>2019-01-14T00:40:57Z</time>
      </trkpt>
      <trkpt lat="41.728500" lon="2.919421">
        <ele>20.0</ele>
        <time>2019-01-14T00:41:00Z</time>
      </trkpt>
      <trkpt lat="41.728416" lon="2.919673">
        <ele>20.0</ele>
        <time>2019-01-14T00:41:04Z</time>
      </trkpt>
      <trkpt lat="41.728374" lon="2.919858">
        <ele>19.0</ele>
        <time>2019-01-14T00:41:06Z</time>
      </trkpt>
      <trkpt lat="41.728359" lon="2.920048">
        <ele>19.0</ele>
        <time>2019-01-14T00:41:08Z</time>
      </trkpt>
      <trkpt lat="41.728358" lon="2.920353">
        <ele>19.0</ele>
        <time>2019-01-14T00:41:12Z</time>
      </trkpt>
      <trkpt lat="41.728364" lon="2.920568">
        <ele>19.0</ele>
        <time>2019-01-14T00:41:14Z</time>
      </trkpt>
      <trkpt lat="41.728378" lon="2.920970">
        <ele>18.0</ele>
        <time>2019-01-14T00:41:19Z</time>
      </trkpt>
      <trkpt lat="41.728418" lon="2.921533">
        <ele>18.0</ele>
        <time>2019-01-14T00:41:26Z</time>
      </trkpt>
      <trkpt lat="41.728447" lon="2.922127">
        <ele>17.0</ele>
        <time>2019-01-14T00:41:33Z</time>
      </trkpt>
      <trkpt lat="41.728471" lon="2.922680">
        <ele>17.0</ele>
        <time>2019-01-14T00:41:40Z</time>
      </trkpt>
      <trkpt lat="41.728467" lon="2.922768">
        <ele>17.0</ele>
        <time>2019-01-14T00:41:41Z</time>
      </trkpt>
      <trkpt lat="41.728437" lon="2.923063">
        <ele>17.0</ele>
        <time>2019-01-14T00:41:44Z</time>
      </trkpt>
      <trkpt lat="41.728417" lon="2.923159">
        <ele>17.0</ele>
        <time>2019-01-14T00:41:46Z</time>
      </trkpt>
      <trkpt lat="41.728398" lon="2.923252">
        <ele>17.0</ele>
        <time>2019-01-14T00:41:47Z</time>
      </trkpt>
      <trkpt lat="41.728372" lon="2.923340">
        <ele>17.0</ele>
        <time>2019-01-14T00:41:48Z</time>
      </trkpt>
      <trkpt lat="41.728343" lon="2.923430">
        <ele>17.0</ele>
        <time>2019-01-14T00:41:49Z</time>
      </trkpt>
      <trkpt lat="41.728301" lon="2.923517">
        <ele>17.0</ele>
        <time>2019-01-14T00:41:50Z</time>
      </trkpt>
      <trkpt lat="41.728263" lon="2.923604">
        <ele>18.0</ele>
        <time>2019-01-14T00:41:51Z</time>
      </trkpt>
      <trkpt lat="41.728217" lon="2.923698">
        <ele>18.0</ele>
        <time>2019-01-14T00:41:53Z</time>
      </trkpt>
      <trkpt lat="41.728173" lon="2.923789">
        <ele>18.0</ele>
        <time>2019-01-14T00:41:54Z</time>
      </trkpt>
      <trkpt lat="41.728129" lon="2.923879">
        <ele>18.0</ele>
        <time>2019-01-14T00:41:55Z</time>
      </trkpt>
      <trkpt lat="41.728082" lon="2.923967">
        <ele>18.0</ele>
        <time>2019-01-14T00:41:57Z</time>
      </trkpt>
      <trkpt lat="41.727992" lon="2.924151">
        <ele>18.0</ele>
        <time>2019-01-14T00:41:59Z</time>
      </trkpt>
      <trkpt lat="41.727845" lon="2.924431">
        <ele>17.0</ele>
        <time>2019-01-14T00:42:03Z</time>
      </trkpt>
      <trkpt lat="41.727797" lon="2.924518">
        <ele>17.0</ele>
        <time>2019-01-14T00:42:05Z</time>
      </trkpt>
      <trkpt lat="41.727746" lon="2.924607">
        <ele>16.0</ele>
        <time>2019-01-14T00:42:06Z</time>
      </trkpt>
      <trkpt lat="41.727695" lon="2.924697">
        <ele>16.0</ele>
        <time>2019-01-14T00:42:07Z</time>
      </trkpt>
      <trkpt lat="41.727648" lon="2.924794">
        <ele>15.0</ele>
        <time>2019-01-14T00:42:09Z</time>
      </trkpt>
      <trkpt lat="41.727588" lon="2.924871">
        <ele>15.0</ele>
        <time>2019-01-14T00:42:10Z</time>
      </trkpt>
      <trkpt lat="41.727493" lon="2.925059">
        <ele>14.0</ele>
        <time>2019-01-14T00:42:13Z</time>
      </trkpt>
      <trkpt lat="41.727450" lon="2.925149">
        <ele>13.0</ele>
        <time>2019-01-14T00:42:14Z</time>
      </trkpt>
      <trkpt lat="41.727402" lon="2.925232">
        <ele>13.0</ele>
        <time>2019-01-14T00:42:15Z</time>
      </trkpt>
      <trkpt lat="41.727355" lon="2.925310">
        <ele>13.0</ele>
        <time>2019-01-14T00:42:17Z</time>
      </trkpt>
      <trkpt lat="41.727302" lon="2.925381">
        <ele>12.0</ele>
        <time>2019-01-14T00:42:18Z</time>
      </trkpt>
      <trkpt lat="41.727239" lon="2.925438">
        <ele>12.0</ele>
        <time>2019-01-14T00:42:19Z</time>
      </trkpt>
      <trkpt lat="41.727026" lon="2.925521">
        <ele>11.0</ele>
        <time>2019-01-14T00:42:23Z</time>
      </trkpt>
      <trkpt lat="41.726973" lon="2.925593">
        <ele>11.0</ele>
        <time>2019-01-14T00:42:24Z</time>
      </trkpt>
      <trkpt lat="41.726943" lon="2.925690">
        <ele>10.0</ele>
        <time>2019-01-14T00:42:25Z</time>
      </trkpt>
      <trkpt lat="41.726912" lon="2.926018">
        <ele>9.0</ele>
        <time>2019-01-14T00:42:29Z</time>
      </trkpt>
      <trkpt lat="41.726884" lon="2.926125">
        <ele>9.0</ele>
        <time>2019-01-14T00:42:30Z</time>
      </trkpt>
      <trkpt lat="41.726785" lon="2.926315">
        <ele>8.0</ele>
        <time>2019-01-14T00:42:33Z</time>
      </trkpt>
      <trkpt lat="41.726582" lon="2.926507">
        <ele>8.0</ele>
        <time>2019-01-14T00:42:37Z</time>
      </trkpt>
      <trkpt lat="41.726442" lon="2.926630">
        <ele>9.0</ele>
        <time>2019-01-14T00:42:40Z</time>
      </trkpt>
      <trkpt lat="41.726361" lon="2.926683">
        <ele>9.0</ele>
        <time>2019-01-14T00:42:41Z</time>
      </trkpt>
      <trkpt lat="41.726291" lon="2.926740">
        <ele>9.0</ele>
        <time>2019-01-14T00:42:42Z</time>
      </trkpt>
      <trkpt lat="41.726224" lon="2.926801">
        <ele>10.0</ele>
        <time>2019-01-14T00:42:44Z</time>
      </trkpt>
      <trkpt lat="41.726156" lon="2.926863">
        <ele>10.0</ele>
        <time>2019-01-14T00:42:45Z</time>
      </trkpt>
      <trkpt lat="41.725950" lon="2.927045">
        <ele>10.0</ele>
        <time>2019-01-14T00:42:49Z</time>
      </trkpt>
      <trkpt lat="41.725811" lon="2.927151">
        <ele>11.0</ele>
        <time>2019-01-14T00:42:52Z</time>
      </trkpt>
      <trkpt lat="41.725743" lon="2.927210">
        <ele>11.0</ele>
        <time>2019-01-14T00:42:53Z</time>
      </trkpt>
      <trkpt lat="41.725677" lon="2.927267">
        <ele>10.0</ele>
        <time>2019-01-14T00:42:54Z</time>
      </trkpt>
      <trkpt lat="41.725608" lon="2.927324">
        <ele>10.0</ele>
        <time>2019-01-14T00:42:55Z</time>
      </trkpt>
      <trkpt lat="41.725543" lon="2.927378">
        <ele>10.0</ele>
        <time>2019-01-14T00:42:57Z</time>
      </trkpt>
      <trkpt lat="41.725268" lon="2.927585">
        <ele>10.0</ele>
        <time>2019-01-14T00:43:02Z</time>
      </trkpt>
      <trkpt lat="41.725208" lon="2.927637">
        <ele>10.0</ele>
        <time>2019-01-14T00:43:03Z</time>
      </trkpt>
      <trkpt lat="41.724898" lon="2.927917">
        <ele>11.0</ele>
        <time>2019-01-14T00:43:09Z</time>
      </trkpt>
      <trkpt lat="41.724779" lon="2.928023">
        <ele>10.0</ele>
        <time>2019-01-14T00:43:11Z</time>
      </trkpt>
      <trkpt lat="41.724439" lon="2.928282">
        <ele>9.0</ele>
        <time>2019-01-14T00:43:17Z</time>
      </trkpt>
      <trkpt lat="41.724339" lon="2.928355">
        <ele>9.0</ele>
        <time>2019-01-14T00:43:19Z</time>
      </trkpt>
      <trkpt lat="41.724249" lon="2.928481">
        <ele>9.0</ele>
        <time>2019-01-14T00:43:21Z</time>
      </trkpt>
      <trkpt lat="41.724080" lon="2.928620">
        <ele>9.0</ele>
        <time>2019-01-14T00:43:24Z</time>
      </trkpt>
      <trkpt lat="41.724030" lon="2.928661">
        <ele>9.0</ele>
        <time>2019-01-14T00:43:25Z</time>
      </trkpt>
      <trkpt lat="41.723855" lon="2.928812">
        <ele>9.0</ele>
        <time>2019-01-14T00:43:29Z</time>
      </trkpt>
      <trkpt lat="41.723674" lon="2.928952">
        <ele>9.0</ele>
        <time>2019-01-14T00:43:32Z</time>
      </trkpt>
      <trkpt lat="41.723563" lon="2.929043">
        <ele>9.0</ele>
        <time>2019-01-14T00:43:34Z</time>
      </trkpt>
      <trkpt lat="41.723387" lon="2.929198">
        <ele>9.0</ele>
        <time>2019-01-14T00:43:38Z</time>
      </trkpt>
      <trkpt lat="41.723060" lon="2.929475">
        <ele>10.0</ele>
        <time>2019-01-14T00:43:44Z</time>
      </trkpt>
      <trkpt lat="41.722753" lon="2.929750">
        <ele>10.0</ele>
        <time>2019-01-14T00:43:50Z</time>
      </trkpt>
      <trkpt lat="41.722564" lon="2.929918">
        <ele>10.0</ele>
        <time>2019-01-14T00:43:53Z</time>
      </trkpt>
      <trkpt lat="41.722468" lon="2.929998">
        <ele>11.0</ele>
        <time>2019-01-14T00:43:55Z</time>
      </trkpt>
      <trkpt lat="41.722365" lon="2.930067">
        <ele>11.0</ele>
        <time>2019-01-14T00:43:57Z</time>
      </trkpt>
      <trkpt lat="41.722316" lon="2.930080">
        <ele>11.0</ele>
        <time>2019-01-14T00:43:58Z</time>
      </trkpt>
      <trkpt lat="41.722239" lon="2.930166">
        <ele>11.0</ele>
        <time>2019-01-14T00:43:59Z</time>
      </trkpt>
      <trkpt lat="41.722292" lon="2.930291">
        <ele>11.0</ele>
        <time>2019-01-14T00:44:01Z</time>
      </trkpt>
      <trkpt lat="41.722407" lon="2.930433">
        <ele>11.0</ele>
        <time>2019-01-14T00:44:04Z</time>
      </trkpt>
      <trkpt lat="41.722521" lon="2.930628">
        <ele>11.0</ele>
        <time>2019-01-14T00:44:07Z</time>
      </trkpt>
      <trkpt lat="41.722580" lon="2.930728">
        <ele>11.0</ele>
        <time>2019-01-14T00:44:08Z</time>
      </trkpt>
      <trkpt lat="41.722642" lon="2.930843">
        <ele>11.0</ele>
        <time>2019-01-14T00:44:10Z</time>
      </trkpt>
      <trkpt lat="41.722829" lon="2.931140">
        <ele>12.0</ele>
        <time>2019-01-14T00:44:14Z</time>
      </trkpt>
      <trkpt lat="41.722938" lon="2.931314">
        <ele>12.0</ele>
        <time>2019-01-14T00:44:17Z</time>
      </trkpt>
      <trkpt lat="41.723141" lon="2.931638">
        <ele>13.0</ele>
        <time>2019-01-14T00:44:22Z</time>
      </trkpt>
      <trkpt lat="41.723308" lon="2.931873">
        <ele>14.0</ele>
        <time>2019-01-14T00:44:26Z</time>
      </trkpt>
      <trkpt lat="41.723366" lon="2.932003">
        <ele>14.0</ele>
        <time>2019-01-14T00:44:28Z</time>
      </trkpt>
      <trkpt lat="41.723385" lon="2.932054">
        <ele>15.0</ele>
        <time>2019-01-14T00:44:29Z</time>
      </trkpt>
      <trkpt lat="41.723412" lon="2.932095">
        <ele>15.0</ele>
        <time>2019-01-14T00:44:29Z</time>
      </trkpt>
      <trkpt lat="41.723447" lon="2.932144">
        <ele>15.0</ele>
        <time>2019-01-14T00:44:30Z</time>
      </trkpt>
      <trkpt lat="41.723474" lon="2.932187">
        <ele>15.0</ele>
        <time>2019-01-14T00:44:31Z</time>
      </trkpt>
      <trkpt lat="41.723502" lon="2.932227">
        <ele>15.0</ele>
        <time>2019-01-14T00:44:31Z</time>
      </trkpt>
      <trkpt lat="41.723549" lon="2.932313">
        <ele>15.0</ele>
        <time>2019-01-14T00:44:33Z</time>
      </trkpt>
      <trkpt lat="41.723590" lon="2.932410">
        <ele>15.0</ele>
        <time>2019-01-14T00:44:34Z</time>
      </trkpt>
      <trkpt lat="41.723625" lon="2.932457">
        <ele>15.0</ele>
        <time>2019-01-14T00:44:35Z</time>
      </trkpt>
      <trkpt lat="41.723648" lon="2.932490">
        <ele>16.0</ele>
        <time>2019-01-14T00:44:35Z</time>
      </trkpt>
      <trkpt lat="41.723673" lon="2.932519">
        <ele>16.0</ele>
        <time>2019-01-14T00:44:36Z</time>
      </trkpt>
      <trkpt lat="41.723698" lon="2.932546">
        <ele>16.0</ele>
        <time>2019-01-14T00:44:36Z</time>
      </trkpt>
      <trkpt lat="41.723773" lon="2.932635">
        <ele>16.0</ele>
        <time>2019-01-14T00:44:38Z</time>
      </trkpt>
      <trkpt lat="41.723865" lon="2.932702">
        <ele>17.0</ele>
        <time>2019-01-14T00:44:40Z</time>
      </trkpt>
      <trkpt lat="41.723901" lon="2.932717">
        <ele>17.0</ele>
        <time>2019-01-14T00:44:40Z</time>
      </trkpt>
      <trkpt lat="41.723927" lon="2.932725">
        <ele>17.0</ele>
        <time>2019-01-14T00:44:41Z</time>
      </trkpt>
      <trkpt lat="41.723958" lon="2.932734">
        <ele>17.0</ele>
        <time>2019-01-14T00:44:41Z</time>
      </trkpt>
      <trkpt lat="41.723994" lon="2.932740">
        <ele>17.0</ele>
        <time>2019-01-14T00:44:42Z</time>
      </trkpt>
      <trkpt lat="41.724075" lon="2.932755">
        <ele>18.0</ele>
        <time>2019-01-14T00:44:43Z</time>
      </trkpt>
      <trkpt lat="41.724185" lon="2.932787">
        <ele>18.0</ele>
        <time>2019-01-14T00:44:45Z</time>
      </trkpt>
      <trkpt lat="41.724220" lon="2.932800">
        <ele>19.0</ele>
        <time>2019-01-14T00:44:45Z</time>
      </trkpt>
      <trkpt lat="41.724260" lon="2.932804">
        <ele>19.0</ele>
        <time>2019-01-14T00:44:46Z</time>
      </trkpt>
      <trkpt lat="41.724301" lon="2.932810">
        <ele>19.0</ele>
        <time>2019-01-14T00:44:47Z</time>
      </trkpt>
      <trkpt lat="41.724342" lon="2.932818">
        <ele>19.0</ele>
        <time>2019-01-14T00:44:47Z</time>
      </trkpt>
      <trkpt lat="41.724378" lon="2.932828">
        <ele>20.0</ele>
        <time>2019-01-14T00:44:48Z</time>
      </trkpt>
      <trkpt lat="41.724523" lon="2.932846">
        <ele>20.0</ele>
        <time>2019-01-14T00:44:50Z</time>
      </trkpt>
      <trkpt lat="41.724633" lon="2.932869">
        <ele>21.0</ele>
        <time>2019-01-14T00:44:52Z</time>
      </trkpt>
      <trkpt lat="41.724669" lon="2.932879">
        <ele>21.0</ele>
        <time>2019-01-14T00:44:53Z</time>
      </trkpt>
      <trkpt lat="41.724714" lon="2.932891">
        <ele>21.0</ele>
        <time>2019-01-14T00:44:53Z</time>
      </trkpt>
      <trkpt lat="41.724747" lon="2.932904">
        <ele>22.0</ele>
        <time>2019-01-14T00:44:54Z</time>
      </trkpt>
      <trkpt lat="41.724782" lon="2.932911">
        <ele>22.0</ele>
        <time>2019-01-14T00:44:54Z</time>
      </trkpt>
      <trkpt lat="41.725037" lon="2.932977">
        <ele>23.0</ele>
        <time>2019-01-14T00:44:59Z</time>
      </trkpt>
      <trkpt lat="41.725074" lon="2.933001">
        <ele>24.0</ele>
        <time>2019-01-14T00:44:59Z</time>
      </trkpt>
      <trkpt lat="41.725109" lon="2.933030">
        <ele>24.0</ele>
        <time>2019-01-14T00:45:00Z</time>
      </trkpt>
      <trkpt lat="41.725149" lon="2.933054">
        <ele>24.0</ele>
        <time>2019-01-14T00:45:01Z</time>
      </trkpt>
      <trkpt lat="41.725180" lon="2.933085">
        <ele>24.0</ele>
        <time>2019-01-14T00:45:01Z</time>
      </trkpt>
      <trkpt lat="41.725210" lon="2.933113">
        <ele>25.0</ele>
        <time>2019-01-14T00:45:02Z</time>
      </trkpt>
      <trkpt lat="41.725371" lon="2.933252">
        <ele>26.0</ele>
        <time>2019-01-14T00:45:05Z</time>
      </trkpt>
      <trkpt lat="41.725406" lon="2.933283">
        <ele>27.0</ele>
        <time>2019-01-14T00:45:06Z</time>
      </trkpt>
      <trkpt lat="41.725439" lon="2.933325">
        <ele>27.0</ele>
        <time>2019-01-14T00:45:06Z</time>
      </trkpt>
      <trkpt lat="41.725471" lon="2.933365">
        <ele>28.0</ele>
        <time>2019-01-14T00:45:07Z</time>
      </trkpt>
      <trkpt lat="41.725506" lon="2.933403">
        <ele>28.0</ele>
        <time>2019-01-14T00:45:08Z</time>
      </trkpt>
      <trkpt lat="41.725595" lon="2.933498">
        <ele>30.0</ele>
        <time>2019-01-14T00:45:10Z</time>
      </trkpt>
      <trkpt lat="41.725625" lon="2.933522">
        <ele>30.0</ele>
        <time>2019-01-14T00:45:10Z</time>
      </trkpt>
      <trkpt lat="41.725660" lon="2.933541">
        <ele>31.0</ele>
        <time>2019-01-14T00:45:11Z</time>
      </trkpt>
      <trkpt lat="41.725698" lon="2.933572">
        <ele>32.0</ele>
        <time>2019-01-14T00:45:11Z</time>
      </trkpt>
      <trkpt lat="41.725729" lon="2.933598">
        <ele>32.0</ele>
        <time>2019-01-14T00:45:12Z</time>
      </trkpt>
      <trkpt lat="41.725758" lon="2.933626">
        <ele>33.0</ele>
        <time>2019-01-14T00:45:13Z</time>
      </trkpt>
      <trkpt lat="41.725798" lon="2.933639">
        <ele>34.0</ele>
        <time>2019-01-14T00:45:13Z</time>
      </trkpt>
      <trkpt lat="41.725866" lon="2.933666">
        <ele>35.0</ele>
        <time>2019-01-14T00:45:14Z</time>
      </trkpt>
      <trkpt lat="41.725892" lon="2.933695">
        <ele>36.0</ele>
        <time>2019-01-14T00:45:15Z</time>
      </trkpt>
      <trkpt lat="41.725902" lon="2.933721">
        <ele>36.0</ele>
        <time>2019-01-14T00:45:15Z</time>
      </trkpt>
      <trkpt lat="41.725925" lon="2.933743">
        <ele>36.0</ele>
        <time>2019-01-14T00:45:16Z</time>
      </trkpt>
      <trkpt lat="41.726080" lon="2.933837">
        <ele>39.0</ele>
        <time>2019-01-14T00:45:18Z</time>
      </trkpt>
      <trkpt lat="41.726108" lon="2.933856">
        <ele>40.0</ele>
        <time>2019-01-14T00:45:19Z</time>
      </trkpt>
      <trkpt lat="41.726144" lon="2.933879">
        <ele>41.0</ele>
        <time>2019-01-14T00:45:20Z</time>
      </trkpt>
      <trkpt lat="41.726172" lon="2.933903">
        <ele>42.0</ele>
        <time>2019-01-14T00:45:20Z</time>
      </trkpt>
      <trkpt lat="41.726193" lon="2.933930">
        <ele>43.0</ele>
        <time>2019-01-14T00:45:21Z</time>
      </trkpt>
      <trkpt lat="41.726249" lon="2.934019">
        <ele>45.0</ele>
        <time>2019-01-14T00:45:22Z</time>
      </trkpt>
      <trkpt lat="41.726264" lon="2.934148">
        <ele>46.0</ele>
        <time>2019-01-14T00:45:24Z</time>
      </trkpt>
      <trkpt lat="41.726262" lon="2.934195">
        <ele>46.0</ele>
        <time>2019-01-14T00:45:24Z</time>
      </trkpt>
      <trkpt lat="41.726256" lon="2.934238">
        <ele>46.0</ele>
        <time>2019-01-14T00:45:25Z</time>
      </trkpt>
      <trkpt lat="41.726233" lon="2.934279">
        <ele>46.0</ele>
        <time>2019-01-14T00:45:25Z</time>
      </trkpt>
      <trkpt lat="41.726195" lon="2.934302">
        <ele>46.0</ele>
        <time>2019-01-14T00:45:26Z</time>
      </trkpt>
      <trkpt lat="41.726160" lon="2.934322">
        <ele>47.0</ele>
        <time>2019-01-14T00:45:27Z</time>
      </trkpt>
      <trkpt lat="41.726043" lon="2.934337">
        <ele>47.0</ele>
        <time>2019-01-14T00:45:28Z</time>
      </trkpt>
      <trkpt lat="41.726009" lon="2.934332">
        <ele>48.0</ele>
        <time>2019-01-14T00:45:29Z</time>
      </trkpt>
      <trkpt lat="41.725974" lon="2.934323">
        <ele>48.0</ele>
        <time>2019-01-14T00:45:30Z</time>
      </trkpt>
      <trkpt lat="41.725943" lon="2.934311">
        <ele>48.0</ele>
        <time>2019-01-14T00:45:30Z</time>
      </trkpt>
      <trkpt lat="41.725909" lon="2.934314">
        <ele>48.0</ele>
        <time>2019-01-14T00:45:31Z</time>
      </trkpt>
      <trkpt lat="41.725874" lon="2.934310">
        <ele>48.0</ele>
        <time>2019-01-14T00:45:31Z</time>
      </trkpt>
      <trkpt lat="41.725859" lon="2.934292">
        <ele>49.0</ele>
        <time>2019-01-14T00:45:31Z</time>
      </trkpt>
      <trkpt lat="41.725802" lon="2.934286">
        <ele>49.0</ele>
        <time>2019-01-14T00:45:32Z</time>
      </trkpt>
      <trkpt lat="41.725686" lon="2.934364">
        <ele>50.0</ele>
        <time>2019-01-14T00:45:34Z</time>
      </trkpt>
      <trkpt lat="41.725665" lon="2.934401">
        <ele>50.0</ele>
        <time>2019-01-14T00:45:35Z</time>
      </trkpt>
      <trkpt lat="41.725650" lon="2.934443">
        <ele>50.0</ele>
        <time>2019-01-14T00:45:36Z</time>
      </trkpt>
      <trkpt lat="41.725640" lon="2.934487">
        <ele>50.0</ele>
        <time>2019-01-14T00:45:36Z</time>
      </trkpt>
      <trkpt lat="41.725634" lon="2.934532">
        <ele>50.0</ele>
        <time>2019-01-14T00:45:37Z</time>
      </trkpt>
      <trkpt lat="41.725644" lon="2.934706">
        <ele>51.0</ele>
        <time>2019-01-14T00:45:39Z</time>
      </trkpt>
      <trkpt lat="41.725721" lon="2.934902">
        <ele>52.0</ele>
        <time>2019-01-14T00:45:41Z</time>
      </trkpt>
      <trkpt lat="41.725733" lon="2.934936">
        <ele>52.0</ele>
        <time>2019-01-14T00:45:42Z</time>
      </trkpt>
      <trkpt lat="41.725753" lon="2.934965">
        <ele>53.0</ele>
        <time>2019-01-14T00:45:42Z</time>
      </trkpt>
      <trkpt lat="41.725762" lon="2.935000">
        <ele>53.0</ele>
        <time>2019-01-14T00:45:43Z</time>
      </trkpt>
      <trkpt lat="41.725771" lon="2.935035">
        <ele>53.0</ele>
        <time>2019-01-14T00:45:43Z</time>
      </trkpt>
      <trkpt lat="41.725803" lon="2.935095">
        <ele>53.0</ele>
        <time>2019-01-14T00:45:44Z</time>
      </trkpt>
      <trkpt lat="41.725881" lon="2.935255">
        <ele>54.0</ele>
        <time>2019-01-14T00:45:46Z</time>
      </trkpt>
      <trkpt lat="41.725886" lon="2.935293">
        <ele>54.0</ele>
        <time>2019-01-14T00:45:47Z</time>
      </trkpt>
      <trkpt lat="41.725883" lon="2.935339">
        <ele>54.0</ele>
        <time>2019-01-14T00:45:47Z</time>
      </trkpt>
      <trkpt lat="41.725879" lon="2.935379">
        <ele>55.0</ele>
        <time>2019-01-14T00:45:48Z</time>
      </trkpt>
      <trkpt lat="41.725873" lon="2.935416">
        <ele>55.0</ele>
        <time>2019-01-14T00:45:48Z</time>
      </trkpt>
      <trkpt lat="41.725866" lon="2.935452">
        <ele>55.0</ele>
        <time>2019-01-14T00:45:49Z</time>
      </trkpt>
      <trkpt lat="41.725809" lon="2.935576">
        <ele>56.0</ele>
        <time>2019-01-14T00:45:50Z</time>
      </trkpt>
      <trkpt lat="41.725795" lon="2.935603">
        <ele>56.0</ele>
        <time>2019-01-14T00:45:51Z</time>
      </trkpt>
      <trkpt lat="41.725783" lon="2.935631">
        <ele>56.0</ele>
        <time>2019-01-14T00:45:51Z</time>
      </trkpt>
      <trkpt lat="41.725784" lon="2.935664">
        <ele>56.0</ele>
        <time>2019-01-14T00:45:52Z</time>
      </trkpt>
      <trkpt lat="41.725779" lon="2.935696">
        <ele>56.0</ele>
        <time>2019-01-14T00:45:52Z</time>
      </trkpt>
      <trkpt lat="41.725797" lon="2.935805">
        <ele>57.0</ele>
        <time>2019-01-14T00:45:53Z</time>
      </trkpt>
      <trkpt lat="41.725844" lon="2.936031">
        <ele>58.0</ele>
        <time>2019-01-14T00:45:56Z</time>
      </trkpt>
      <trkpt lat="41.725852" lon="2.936070">
        <ele>58.0</ele>
        <time>2019-01-14T00:45:57Z</time>
      </trkpt>
      <trkpt lat="41.725864" lon="2.936105">
        <ele>58.0</ele>
        <time>2019-01-14T00:45:57Z</time>
      </trkpt>
      <trkpt lat="41.725876" lon="2.936138">
        <ele>59.0</ele>
        <time>2019-01-14T00:45:58Z</time>
      </trkpt>
      <trkpt lat="41.725888" lon="2.936170">
        <ele>59.0</ele>
        <time>2019-01-14T00:45:58Z</time>
      </trkpt>
      <trkpt lat="41.725911" lon="2.936243">
        <ele>59.0</ele>
        <time>2019-01-14T00:45:59Z</time>
      </trkpt>
      <trkpt lat="41.725919" lon="2.936281">
        <ele>60.0</ele>
        <time>2019-01-14T00:45:59Z</time>
      </trkpt>
      <trkpt lat="41.725918" lon="2.936325">
        <ele>60.0</ele>
        <time>2019-01-14T00:46:00Z</time>
      </trkpt>
      <trkpt lat="41.725913" lon="2.936367">
        <ele>60.0</ele>
        <time>2019-01-14T00:46:00Z</time>
      </trkpt>
      <trkpt lat="41.725902" lon="2.936404">
        <ele>60.0</ele>
        <time>2019-01-14T00:46:01Z</time>
      </trkpt>
      <trkpt lat="41.725885" lon="2.936434">
        <ele>61.0</ele>
        <time>2019-01-14T00:46:01Z</time>
      </trkpt>
      <trkpt lat="41.725823" lon="2.936513">
        <ele>61.0</ele>
        <time>2019-01-14T00:46:03Z</time>
      </trkpt>
      <trkpt lat="41.725812" lon="2.936541">
        <ele>61.0</ele>
        <time>2019-01-14T00:46:03Z</time>
      </trkpt>
      <trkpt lat="41.725814" lon="2.936579">
        <ele>62.0</ele>
        <time>2019-01-14T00:46:04Z</time>
      </trkpt>
      <trkpt lat="41.725810" lon="2.936615">
        <ele>62.0</ele>
        <time>2019-01-14T00:46:04Z</time>
      </trkpt>
      <trkpt lat="41.725808" lon="2.936654">
        <ele>62.0</ele>
        <time>2019-01-14T00:46:04Z</time>
      </trkpt>
      <trkpt lat="41.725810" lon="2.936693">
        <ele>62.0</ele>
        <time>2019-01-14T00:46:05Z</time>
      </trkpt>
      <trkpt lat="41.725841" lon="2.936799">
        <ele>63.0</ele>
        <time>2019-01-14T00:46:06Z</time>
      </trkpt>
      <trkpt lat="41.725922" lon="2.937007">
        <ele>64.0</ele>
        <time>2019-01-14T00:46:09Z</time>
      </trkpt>
      <trkpt lat="41.725936" lon="2.937040">
        <ele>64.0</ele>
        <time>2019-01-14T00:46:10Z</time>
      </trkpt>
      <trkpt lat="41.725951" lon="2.937070">
        <ele>64.0</ele>
        <time>2019-01-14T00:46:10Z</time>
      </trkpt>
      <trkpt lat="41.725966" lon="2.937101">
        <ele>65.0</ele>
        <time>2019-01-14T00:46:10Z</time>
      </trkpt>
      <trkpt lat="41.725984" lon="2.937131">
        <ele>65.0</ele>
        <time>2019-01-14T00:46:11Z</time>
      </trkpt>
      <trkpt lat="41.726046" lon="2.937197">
        <ele>65.0</ele>
        <time>2019-01-14T00:46:12Z</time>
      </trkpt>
      <trkpt lat="41.726171" lon="2.937299">
        <ele>66.0</ele>
        <time>2019-01-14T00:46:15Z</time>
      </trkpt>
      <trkpt lat="41.726198" lon="2.937317">
        <ele>66.0</ele>
        <time>2019-01-14T00:46:15Z</time>
      </trkpt>
      <trkpt lat="41.726226" lon="2.937336">
        <ele>67.0</ele>
        <time>2019-01-14T00:46:15Z</time>
      </trkpt>
      <trkpt lat="41.726254" lon="2.937355">
        <ele>67.0</ele>
        <time>2019-01-14T00:46:16Z</time>
      </trkpt>
      <trkpt lat="41.726280" lon="2.937374">
        <ele>67.0</ele>
        <time>2019-01-14T00:46:16Z</time>
      </trkpt>
      <trkpt lat="41.726364" lon="2.937423">
        <ele>68.0</ele>
        <time>2019-01-14T00:46:18Z</time>
      </trkpt>
      <trkpt lat="41.726422" lon="2.937453">
        <ele>68.0</ele>
        <time>2019-01-14T00:46:19Z</time>
      </trkpt>
      <trkpt lat="41.726450" lon="2.937467">
        <ele>68.0</ele>
        <time>2019-01-14T00:46:19Z</time>
      </trkpt>
      <trkpt lat="41.726476" lon="2.937481">
        <ele>68.0</ele>
        <time>2019-01-14T00:46:20Z</time>
      </trkpt>
      <trkpt lat="41.726502" lon="2.937500">
        <ele>68.0</ele>
        <time>2019-01-14T00:46:20Z</time>
      </trkpt>
      <trkpt lat="41.726527" lon="2.937520">
        <ele>69.0</ele>
        <time>2019-01-14T00:46:21Z</time>
      </trkpt>
      <trkpt lat="41.726628" lon="2.937707">
        <ele>69.0</ele>
        <time>2019-01-14T00:46:24Z</time>
      </trkpt>
      <trkpt lat="41.726628" lon="2.937747">
        <ele>69.0</ele>
        <time>2019-01-14T00:46:24Z</time>
      </trkpt>
      <trkpt lat="41.726620" lon="2.937785">
        <ele>69.0</ele>
        <time>2019-01-14T00:46:25Z</time>
      </trkpt>
      <trkpt lat="41.726607" lon="2.937821">
        <ele>69.0</ele>
        <time>2019-01-14T00:46:25Z</time>
      </trkpt>
      <trkpt lat="41.726594" lon="2.937849">
        <ele>69.0</ele>
        <time>2019-01-14T00:46:25Z</time>
      </trkpt>
      <trkpt lat="41.726499" lon="2.937911">
        <ele>69.0</ele>
        <time>2019-01-14T00:46:27Z</time>
      </trkpt>
      <trkpt lat="41.726472" lon="2.937917">
        <ele>69.0</ele>
        <time>2019-01-14T00:46:28Z</time>
      </trkpt>
      <trkpt lat="41.726445" lon="2.937920">
        <ele>69.0</ele>
        <time>2019-01-14T00:46:28Z</time>
      </trkpt>
      <trkpt lat="41.726419" lon="2.937928">
        <ele>69.0</ele>
        <time>2019-01-14T00:46:28Z</time>
      </trkpt>
      <trkpt lat="41.726394" lon="2.937939">
        <ele>69.0</ele>
        <time>2019-01-14T00:46:29Z</time>
      </trkpt>
      <trkpt lat="41.726321" lon="2.937992">
        <ele>69.0</ele>
        <time>2019-01-14T00:46:30Z</time>
      </trkpt>
      <trkpt lat="41.726300" lon="2.938017">
        <ele>69.0</ele>
        <time>2019-01-14T00:46:31Z</time>
      </trkpt>
      <trkpt lat="41.726280" lon="2.938047">
        <ele>69.0</ele>
        <time>2019-01-14T00:46:31Z</time>
      </trkpt>
      <trkpt lat="41.726266" lon="2.938079">
        <ele>69.0</ele>
        <time>2019-01-14T00:46:31Z</time>
      </trkpt>
      <trkpt lat="41.726256" lon="2.938117">
        <ele>69.0</ele>
        <time>2019-01-14T00:46:32Z</time>
      </trkpt>
      <trkpt lat="41.726250" lon="2.938153">
        <ele>69.0</ele>
        <time>2019-01-14T00:46:32Z</time>
      </trkpt>
      <trkpt lat="41.726236" lon="2.938303">
        <ele>70.0</ele>
        <time>2019-01-14T00:46:34Z</time>
      </trkpt>
      <trkpt lat="41.726232" lon="2.938342">
        <ele>70.0</ele>
        <time>2019-01-14T00:46:35Z</time>
      </trkpt>
      <trkpt lat="41.726224" lon="2.938385">
        <ele>70.0</ele>
        <time>2019-01-14T00:46:35Z</time>
      </trkpt>
      <trkpt lat="41.726209" lon="2.938418">
        <ele>70.0</ele>
        <time>2019-01-14T00:46:36Z</time>
      </trkpt>
      <trkpt lat="41.726189" lon="2.938446">
        <ele>71.0</ele>
        <time>2019-01-14T00:46:36Z</time>
      </trkpt>
      <trkpt lat="41.726137" lon="2.938481">
        <ele>71.0</ele>
        <time>2019-01-14T00:46:37Z</time>
      </trkpt>
      <trkpt lat="41.725998" lon="2.938485">
        <ele>71.0</ele>
        <time>2019-01-14T00:46:39Z</time>
      </trkpt>
      <trkpt lat="41.725970" lon="2.938480">
        <ele>71.0</ele>
        <time>2019-01-14T00:46:40Z</time>
      </trkpt>
      <trkpt lat="41.725942" lon="2.938477">
        <ele>72.0</ele>
        <time>2019-01-14T00:46:40Z</time>
      </trkpt>
      <trkpt lat="41.725912" lon="2.938476">
        <ele>72.0</ele>
        <time>2019-01-14T00:46:41Z</time>
      </trkpt>
      <trkpt lat="41.725881" lon="2.938474">
        <ele>72.0</ele>
        <time>2019-01-14T00:46:41Z</time>
      </trkpt>
      <trkpt lat="41.725707" lon="2.938451">
        <ele>73.0</ele>
        <time>2019-01-14T00:46:44Z</time>
      </trkpt>
      <trkpt lat="41.725680" lon="2.938439">
        <ele>73.0</ele>
        <time>2019-01-14T00:46:44Z</time>
      </trkpt>
      <trkpt lat="41.725652" lon="2.938425">
        <ele>73.0</ele>
        <time>2019-01-14T00:46:45Z</time>
      </trkpt>
      <trkpt lat="41.725625" lon="2.938409">
        <ele>73.0</ele>
        <time>2019-01-14T00:46:45Z</time>
      </trkpt>
      <trkpt lat="41.725601" lon="2.938392">
        <ele>74.0</ele>
        <time>2019-01-14T00:46:46Z</time>
      </trkpt>
      <trkpt lat="41.725515" lon="2.938324">
        <ele>74.0</ele>
        <time>2019-01-14T00:46:47Z</time>
      </trkpt>
      <trkpt lat="41.725464" lon="2.938309">
        <ele>74.0</ele>
        <time>2019-01-14T00:46:48Z</time>
      </trkpt>
      <trkpt lat="41.725437" lon="2.938309">
        <ele>75.0</ele>
        <time>2019-01-14T00:46:49Z</time>
      </trkpt>
      <trkpt lat="41.725409" lon="2.938316">
        <ele>75.0</ele>
        <time>2019-01-14T00:46:49Z</time>
      </trkpt>
      <trkpt lat="41.725383" lon="2.938327">
        <ele>75.0</ele>
        <time>2019-01-14T00:46:50Z</time>
      </trkpt>
      <trkpt lat="41.725358" lon="2.938346">
        <ele>75.0</ele>
        <time>2019-01-14T00:46:50Z</time>
      </trkpt>
      <trkpt lat="41.725275" lon="2.938464">
        <ele>76.0</ele>
        <time>2019-01-14T00:46:52Z</time>
      </trkpt>
      <trkpt lat="41.725230" lon="2.938651">
        <ele>77.0</ele>
        <time>2019-01-14T00:46:54Z</time>
      </trkpt>
      <trkpt lat="41.725266" lon="2.938848">
        <ele>77.0</ele>
        <time>2019-01-14T00:46:57Z</time>
      </trkpt>
      <trkpt lat="41.725277" lon="2.938884">
        <ele>78.0</ele>
        <time>2019-01-14T00:46:57Z</time>
      </trkpt>
      <trkpt lat="41.725290" lon="2.938919">
        <ele>78.0</ele>
        <time>2019-01-14T00:46:58Z</time>
      </trkpt>
      <trkpt lat="41.725301" lon="2.938953">
        <ele>78.0</ele>
        <time>2019-01-14T00:46:58Z</time>
      </trkpt>
      <trkpt lat="41.725312" lon="2.938987">
        <ele>78.0</ele>
        <time>2019-01-14T00:46:59Z</time>
      </trkpt>
      <trkpt lat="41.725341" lon="2.939057">
        <ele>78.0</ele>
        <time>2019-01-14T00:47:00Z</time>
      </trkpt>
      <trkpt lat="41.725354" lon="2.939090">
        <ele>78.0</ele>
        <time>2019-01-14T00:47:00Z</time>
      </trkpt>
      <trkpt lat="41.725369" lon="2.939122">
        <ele>79.0</ele>
        <time>2019-01-14T00:47:00Z</time>
      </trkpt>
      <trkpt lat="41.725384" lon="2.939153">
        <ele>79.0</ele>
        <time>2019-01-14T00:47:01Z</time>
      </trkpt>
      <trkpt lat="41.725402" lon="2.939182">
        <ele>79.0</ele>
        <time>2019-01-14T00:47:01Z</time>
      </trkpt>
      <trkpt lat="41.725549" lon="2.939364">
        <ele>80.0</ele>
        <time>2019-01-14T00:47:04Z</time>
      </trkpt>
      <trkpt lat="41.725692" lon="2.939488">
        <ele>81.0</ele>
        <time>2019-01-14T00:47:07Z</time>
      </trkpt>
      <trkpt lat="41.725868" lon="2.939614">
        <ele>82.0</ele>
        <time>2019-01-14T00:47:10Z</time>
      </trkpt>
      <trkpt lat="41.725894" lon="2.939632">
        <ele>83.0</ele>
        <time>2019-01-14T00:47:11Z</time>
      </trkpt>
      <trkpt lat="41.725920" lon="2.939650">
        <ele>83.0</ele>
        <time>2019-01-14T00:47:11Z</time>
      </trkpt>
      <trkpt lat="41.725943" lon="2.939670">
        <ele>83.0</ele>
        <time>2019-01-14T00:47:12Z</time>
      </trkpt>
      <trkpt lat="41.726063" lon="2.939749">
        <ele>84.0</ele>
        <time>2019-01-14T00:47:14Z</time>
      </trkpt>
      <trkpt lat="41.726086" lon="2.939766">
        <ele>84.0</ele>
        <time>2019-01-14T00:47:14Z</time>
      </trkpt>
      <trkpt lat="41.726107" lon="2.939788">
        <ele>84.0</ele>
        <time>2019-01-14T00:47:15Z</time>
      </trkpt>
      <trkpt lat="41.726128" lon="2.939814">
        <ele>84.0</ele>
        <time>2019-01-14T00:47:15Z</time>
      </trkpt>
      <trkpt lat="41.726148" lon="2.939837">
        <ele>84.0</ele>
        <time>2019-01-14T00:47:16Z</time>
      </trkpt>
      <trkpt lat="41.726168" lon="2.939860">
        <ele>85.0</ele>
        <time>2019-01-14T00:47:16Z</time>
      </trkpt>
      <trkpt lat="41.726197" lon="2.939885">
        <ele>85.0</ele>
        <time>2019-01-14T00:47:17Z</time>
      </trkpt>
      <trkpt lat="41.726240" lon="2.939943">
        <ele>85.0</ele>
        <time>2019-01-14T00:47:18Z</time>
      </trkpt>
      <trkpt lat="41.726257" lon="2.939976">
        <ele>85.0</ele>
        <time>2019-01-14T00:47:18Z</time>
      </trkpt>
      <trkpt lat="41.726276" lon="2.940005">
        <ele>85.0</ele>
        <time>2019-01-14T00:47:19Z</time>
      </trkpt>
      <trkpt lat="41.726294" lon="2.940033">
        <ele>86.0</ele>
        <time>2019-01-14T00:47:19Z</time>
      </trkpt>
      <trkpt lat="41.726312" lon="2.940058">
        <ele>86.0</ele>
        <time>2019-01-14T00:47:19Z</time>
      </trkpt>
      <trkpt lat="41.726404" lon="2.940203">
        <ele>86.0</ele>
        <time>2019-01-14T00:47:22Z</time>
      </trkpt>
      <trkpt lat="41.726453" lon="2.940295">
        <ele>87.0</ele>
        <time>2019-01-14T00:47:23Z</time>
      </trkpt>
      <trkpt lat="41.726464" lon="2.940329">
        <ele>87.0</ele>
        <time>2019-01-14T00:47:23Z</time>
      </trkpt>
      <trkpt lat="41.726472" lon="2.940361">
        <ele>87.0</ele>
        <time>2019-01-14T00:47:24Z</time>
      </trkpt>
      <trkpt lat="41.726478" lon="2.940396">
        <ele>87.0</ele>
        <time>2019-01-14T00:47:24Z</time>
      </trkpt>
      <trkpt lat="41.726481" lon="2.940433">
        <ele>87.0</ele>
        <time>2019-01-14T00:47:25Z</time>
      </trkpt>
      <trkpt lat="41.726459" lon="2.940537">
        <ele>88.0</ele>
        <time>2019-01-14T00:47:26Z</time>
      </trkpt>
      <trkpt lat="41.726426" lon="2.940603">
        <ele>88.0</ele>
        <time>2019-01-14T00:47:27Z</time>
      </trkpt>
      <trkpt lat="41.726384" lon="2.940639">
        <ele>88.0</ele>
        <time>2019-01-14T00:47:28Z</time>
      </trkpt>
      <trkpt lat="41.726363" lon="2.940657">
        <ele>88.0</ele>
        <time>2019-01-14T00:47:28Z</time>
      </trkpt>
      <trkpt lat="41.726342" lon="2.940673">
        <ele>89.0</ele>
        <time>2019-01-14T00:47:29Z</time>
      </trkpt>
      <trkpt lat="41.726321" lon="2.940692">
        <ele>89.0</ele>
        <time>2019-01-14T00:47:29Z</time>
      </trkpt>
      <trkpt lat="41.726301" lon="2.940712">
        <ele>89.0</ele>
        <time>2019-01-14T00:47:29Z</time>
      </trkpt>
      <trkpt lat="41.726254" lon="2.940796">
        <ele>89.0</ele>
        <time>2019-01-14T00:47:31Z</time>
      </trkpt>
      <trkpt lat="41.726232" lon="2.940906">
        <ele>90.0</ele>
        <time>2019-01-14T00:47:32Z</time>
      </trkpt>
      <trkpt lat="41.726234" lon="2.940942">
        <ele>90.0</ele>
        <time>2019-01-14T00:47:32Z</time>
      </trkpt>
      <trkpt lat="41.726243" lon="2.940977">
        <ele>90.0</ele>
        <time>2019-01-14T00:47:33Z</time>
      </trkpt>
      <trkpt lat="41.726255" lon="2.941012">
        <ele>91.0</ele>
        <time>2019-01-14T00:47:33Z</time>
      </trkpt>
      <trkpt lat="41.726270" lon="2.941047">
        <ele>91.0</ele>
        <time>2019-01-14T00:47:34Z</time>
      </trkpt>
      <trkpt lat="41.726300" lon="2.941152">
        <ele>92.0</ele>
        <time>2019-01-14T00:47:35Z</time>
      </trkpt>
      <trkpt lat="41.726379" lon="2.941310">
        <ele>93.0</ele>
        <time>2019-01-14T00:47:37Z</time>
      </trkpt>
      <trkpt lat="41.726391" lon="2.941343">
        <ele>93.0</ele>
        <time>2019-01-14T00:47:38Z</time>
      </trkpt>
      <trkpt lat="41.726404" lon="2.941377">
        <ele>93.0</ele>
        <time>2019-01-14T00:47:38Z</time>
      </trkpt>
      <trkpt lat="41.726402" lon="2.941411">
        <ele>94.0</ele>
        <time>2019-01-14T00:47:39Z</time>
      </trkpt>
      <trkpt lat="41.726393" lon="2.941448">
        <ele>94.0</ele>
        <time>2019-01-14T00:47:39Z</time>
      </trkpt>
      <trkpt lat="41.726385" lon="2.941488">
        <ele>94.0</ele>
        <time>2019-01-14T00:47:40Z</time>
      </trkpt>
      <trkpt lat="41.726329" lon="2.941658">
        <ele>97.0</ele>
        <time>2019-01-14T00:47:42Z</time>
      </trkpt>
      <trkpt lat="41.726319" lon="2.941690">
        <ele>97.0</ele>
        <time>2019-01-14T00:47:42Z</time>
      </trkpt>
      <trkpt lat="41.726308" lon="2.941724">
        <ele>97.0</ele>
        <time>2019-01-14T00:47:43Z</time>
      </trkpt>
      <trkpt lat="41.726297" lon="2.941755">
        <ele>98.0</ele>
        <time>2019-01-14T00:47:43Z</time>
      </trkpt>
      <trkpt lat="41.726254" lon="2.941939">
        <ele>97.0</ele>
        <time>2019-01-14T00:47:45Z</time>
      </trkpt>
      <trkpt lat="41.726244" lon="2.941978">
        <ele>97.0</ele>
        <time>2019-01-14T00:47:46Z</time>
      </trkpt>
      <trkpt lat="41.726236" lon="2.942019">
        <ele>96.0</ele>
        <time>2019-01-14T00:47:46Z</time>
      </trkpt>
      <trkpt lat="41.726234" lon="2.942059">
        <ele>96.0</ele>
        <time>2019-01-14T00:47:47Z</time>
      </trkpt>
      <trkpt lat="41.726232" lon="2.942098">
        <ele>95.0</ele>
        <time>2019-01-14T00:47:47Z</time>
      </trkpt>
      <trkpt lat="41.726232" lon="2.942140">
        <ele>94.0</ele>
        <time>2019-01-14T00:47:48Z</time>
      </trkpt>
      <trkpt lat="41.726260" lon="2.942462">
        <ele>92.0</ele>
        <time>2019-01-14T00:47:52Z</time>
      </trkpt>
      <trkpt lat="41.726286" lon="2.942578">
        <ele>93.0</ele>
        <time>2019-01-14T00:47:53Z</time>
      </trkpt>
      <trkpt lat="41.726295" lon="2.942617">
        <ele>94.0</ele>
        <time>2019-01-14T00:47:54Z</time>
      </trkpt>
      <trkpt lat="41.726304" lon="2.942655">
        <ele>94.0</ele>
        <time>2019-01-14T00:47:54Z</time>
      </trkpt>
      <trkpt lat="41.726314" lon="2.942694">
        <ele>94.0</ele>
        <time>2019-01-14T00:47:55Z</time>
      </trkpt>
      <trkpt lat="41.726321" lon="2.942732">
        <ele>95.0</ele>
        <time>2019-01-14T00:47:55Z</time>
      </trkpt>
      <trkpt lat="41.726382" lon="2.942960">
        <ele>97.0</ele>
        <time>2019-01-14T00:47:58Z</time>
      </trkpt>
      <trkpt lat="41.726394" lon="2.942997">
        <ele>97.0</ele>
        <time>2019-01-14T00:47:59Z</time>
      </trkpt>
      <trkpt lat="41.726406" lon="2.943035">
        <ele>98.0</ele>
        <time>2019-01-14T00:47:59Z</time>
      </trkpt>
      <trkpt lat="41.726413" lon="2.943073">
        <ele>98.0</ele>
        <time>2019-01-14T00:47:59Z</time>
      </trkpt>
      <trkpt lat="41.726420" lon="2.943111">
        <ele>98.0</ele>
        <time>2019-01-14T00:48:00Z</time>
      </trkpt>
      <trkpt lat="41.726438" lon="2.943228">
        <ele>99.0</ele>
        <time>2019-01-14T00:48:01Z</time>
      </trkpt>
      <trkpt lat="41.726480" lon="2.943468">
        <ele>101.0</ele>
        <time>2019-01-14T00:48:04Z</time>
      </trkpt>
      <trkpt lat="41.726491" lon="2.943508">
        <ele>101.0</ele>
        <time>2019-01-14T00:48:05Z</time>
      </trkpt>
      <trkpt lat="41.726501" lon="2.943544">
        <ele>102.0</ele>
        <time>2019-01-14T00:48:05Z</time>
      </trkpt>
      <trkpt lat="41.726514" lon="2.943578">
        <ele>102.0</ele>
        <time>2019-01-14T00:48:06Z</time>
      </trkpt>
      <trkpt lat="41.726526" lon="2.943615">
        <ele>102.0</ele>
        <time>2019-01-14T00:48:06Z</time>
      </trkpt>
      <trkpt lat="41.726570" lon="2.943729">
        <ele>103.0</ele>
        <time>2019-01-14T00:48:08Z</time>
      </trkpt>
      <trkpt lat="41.726657" lon="2.943887">
        <ele>104.0</ele>
        <time>2019-01-14T00:48:10Z</time>
      </trkpt>
      <trkpt lat="41.726677" lon="2.943908">
        <ele>105.0</ele>
        <time>2019-01-14T00:48:11Z</time>
      </trkpt>
      <trkpt lat="41.726703" lon="2.943925">
        <ele>105.0</ele>
        <time>2019-01-14T00:48:11Z</time>
      </trkpt>
      <trkpt lat="41.726736" lon="2.943936">
        <ele>105.0</ele>
        <time>2019-01-14T00:48:12Z</time>
      </trkpt>
      <trkpt lat="41.726770" lon="2.943937">
        <ele>105.0</ele>
        <time>2019-01-14T00:48:12Z</time>
      </trkpt>
      <trkpt lat="41.726802" lon="2.943933">
        <ele>106.0</ele>
        <time>2019-01-14T00:48:13Z</time>
      </trkpt>
      <trkpt lat="41.726985" lon="2.943853">
        <ele>106.0</ele>
        <time>2019-01-14T00:48:16Z</time>
      </trkpt>
      <trkpt lat="41.727125" lon="2.943828">
        <ele>110.0</ele>
        <time>2019-01-14T00:48:18Z</time>
      </trkpt>
      <trkpt lat="41.727291" lon="2.943870">
        <ele>110.0</ele>
        <time>2019-01-14T00:48:21Z</time>
      </trkpt>
      <trkpt lat="41.727443" lon="2.943889">
        <ele>110.0</ele>
        <time>2019-01-14T00:48:23Z</time>
      </trkpt>
      <trkpt lat="41.727525" lon="2.943895">
        <ele>110.0</ele>
        <time>2019-01-14T00:48:24Z</time>
      </trkpt>
      <trkpt lat="41.727569" lon="2.943904">
        <ele>110.0</ele>
        <time>2019-01-14T00:48:25Z</time>
      </trkpt>
      <trkpt lat="41.727656" lon="2.943949">
        <ele>110.0</ele>
        <time>2019-01-14T00:48:27Z</time>
      </trkpt>
      <trkpt lat="41.727727" lon="2.944007">
        <ele>110.0</ele>
        <time>2019-01-14T00:48:28Z</time>
      </trkpt>
      <trkpt lat="41.727765" lon="2.944036">
        <ele>110.0</ele>
        <time>2019-01-14T00:48:29Z</time>
      </trkpt>
      <trkpt lat="41.727807" lon="2.944062">
        <ele>110.0</ele>
        <time>2019-01-14T00:48:29Z</time>
      </trkpt>
      <trkpt lat="41.727855" lon="2.944081">
        <ele>110.0</ele>
        <time>2019-01-14T00:48:30Z</time>
      </trkpt>
      <trkpt lat="41.727907" lon="2.944093">
        <ele>110.0</ele>
        <time>2019-01-14T00:48:31Z</time>
      </trkpt>
      <trkpt lat="41.728016" lon="2.944106">
        <ele>110.0</ele>
        <time>2019-01-14T00:48:33Z</time>
      </trkpt>
      <trkpt lat="41.728124" lon="2.944137">
        <ele>109.0</ele>
        <time>2019-01-14T00:48:35Z</time>
      </trkpt>
      <trkpt lat="41.728174" lon="2.944170">
        <ele>109.0</ele>
        <time>2019-01-14T00:48:35Z</time>
      </trkpt>
      <trkpt lat="41.728217" lon="2.944212">
        <ele>109.0</ele>
        <time>2019-01-14T00:48:36Z</time>
      </trkpt>
      <trkpt lat="41.728255" lon="2.944261">
        <ele>109.0</ele>
        <time>2019-01-14T00:48:37Z</time>
      </trkpt>
      <trkpt lat="41.728328" lon="2.944350">
        <ele>109.0</ele>
        <time>2019-01-14T00:48:39Z</time>
      </trkpt>
      <trkpt lat="41.728527" lon="2.944428">
        <ele>109.0</ele>
        <time>2019-01-14T00:48:42Z</time>
      </trkpt>
      <trkpt lat="41.728584" lon="2.944405">
        <ele>108.0</ele>
        <time>2019-01-14T00:48:43Z</time>
      </trkpt>
      <trkpt lat="41.728631" lon="2.944360">
        <ele>108.0</ele>
        <time>2019-01-14T00:48:44Z</time>
      </trkpt>
      <trkpt lat="41.728670" lon="2.944296">
        <ele>108.0</ele>
        <time>2019-01-14T00:48:45Z</time>
      </trkpt>
      <trkpt lat="41.728696" lon="2.944225">
        <ele>108.0</ele>
        <time>2019-01-14T00:48:46Z</time>
      </trkpt>
      <trkpt lat="41.728720" lon="2.944151">
        <ele>108.0</ele>
        <time>2019-01-14T00:48:47Z</time>
      </trkpt>
      <trkpt lat="41.728743" lon="2.944077">
        <ele>107.0</ele>
        <time>2019-01-14T00:48:48Z</time>
      </trkpt>
      <trkpt lat="41.728766" lon="2.944003">
        <ele>107.0</ele>
        <time>2019-01-14T00:48:49Z</time>
      </trkpt>
      <trkpt lat="41.728794" lon="2.943929">
        <ele>107.0</ele>
        <time>2019-01-14T00:48:50Z</time>
      </trkpt>
      <trkpt lat="41.728830" lon="2.943868">
        <ele>106.0</ele>
        <time>2019-01-14T00:48:51Z</time>
      </trkpt>
      <trkpt lat="41.728879" lon="2.943821">
        <ele>106.0</ele>
        <time>2019-01-14T00:48:52Z</time>
      </trkpt>
      <trkpt lat="41.728937" lon="2.943789">
        <ele>106.0</ele>
        <time>2019-01-14T00:48:53Z</time>
      </trkpt>
      <trkpt lat="41.728998" lon="2.943762">
        <ele>106.0</ele>
        <time>2019-01-14T00:48:54Z</time>
      </trkpt>
      <trkpt lat="41.729061" lon="2.943736">
        <ele>105.0</ele>
        <time>2019-01-14T00:48:55Z</time>
      </trkpt>
      <trkpt lat="41.729123" lon="2.943702">
        <ele>105.0</ele>
        <time>2019-01-14T00:48:56Z</time>
      </trkpt>
      <trkpt lat="41.729181" lon="2.943653">
        <ele>105.0</ele>
        <time>2019-01-14T00:48:57Z</time>
      </trkpt>
      <trkpt lat="41.729236" lon="2.943587">
        <ele>104.0</ele>
        <time>2019-01-14T00:48:58Z</time>
      </trkpt>
      <trkpt lat="41.729448" lon="2.943294">
        <ele>103.0</ele>
        <time>2019-01-14T00:49:03Z</time>
      </trkpt>
      <trkpt lat="41.729511" lon="2.943233">
        <ele>102.0</ele>
        <time>2019-01-14T00:49:04Z</time>
      </trkpt>
      <trkpt lat="41.729579" lon="2.943182">
        <ele>102.0</ele>
        <time>2019-01-14T00:49:05Z</time>
      </trkpt>
      <trkpt lat="41.729651" lon="2.943132">
        <ele>101.0</ele>
        <time>2019-01-14T00:49:07Z</time>
      </trkpt>
      <trkpt lat="41.729720" lon="2.943072">
        <ele>101.0</ele>
        <time>2019-01-14T00:49:08Z</time>
      </trkpt>
      <trkpt lat="41.729777" lon="2.943000">
        <ele>101.0</ele>
        <time>2019-01-14T00:49:09Z</time>
      </trkpt>
      <trkpt lat="41.729825" lon="2.942817">
        <ele>100.0</ele>
        <time>2019-01-14T00:49:12Z</time>
      </trkpt>
      <trkpt lat="41.729748" lon="2.942641">
        <ele>99.0</ele>
        <time>2019-01-14T00:49:14Z</time>
      </trkpt>
      <trkpt lat="41.729684" lon="2.942573">
        <ele>99.0</ele>
        <time>2019-01-14T00:49:15Z</time>
      </trkpt>
      <trkpt lat="41.729614" lon="2.942499">
        <ele>98.0</ele>
        <time>2019-01-14T00:49:17Z</time>
      </trkpt>
      <trkpt lat="41.729553" lon="2.942421">
        <ele>97.0</ele>
        <time>2019-01-14T00:49:18Z</time>
      </trkpt>
      <trkpt lat="41.729498" lon="2.942333">
        <ele>97.0</ele>
        <time>2019-01-14T00:49:19Z</time>
      </trkpt>
      <trkpt lat="41.729447" lon="2.942236">
        <ele>96.0</ele>
        <time>2019-01-14T00:49:21Z</time>
      </trkpt>
      <trkpt lat="41.729392" lon="2.942141">
        <ele>96.0</ele>
        <time>2019-01-14T00:49:22Z</time>
      </trkpt>
      <trkpt lat="41.729338" lon="2.942046">
        <ele>96.0</ele>
        <time>2019-01-14T00:49:24Z</time>
      </trkpt>
      <trkpt lat="41.729306" lon="2.941938">
        <ele>95.0</ele>
        <time>2019-01-14T00:49:25Z</time>
      </trkpt>
      <trkpt lat="41.729311" lon="2.941818">
        <ele>95.0</ele>
        <time>2019-01-14T00:49:27Z</time>
      </trkpt>
      <trkpt lat="41.729353" lon="2.941709">
        <ele>95.0</ele>
        <time>2019-01-14T00:49:28Z</time>
      </trkpt>
      <trkpt lat="41.729404" lon="2.941620">
        <ele>94.0</ele>
        <time>2019-01-14T00:49:29Z</time>
      </trkpt>
      <trkpt lat="41.729463" lon="2.941542">
        <ele>94.0</ele>
        <time>2019-01-14T00:49:31Z</time>
      </trkpt>
      <trkpt lat="41.729527" lon="2.941464">
        <ele>93.0</ele>
        <time>2019-01-14T00:49:32Z</time>
      </trkpt>
      <trkpt lat="41.729594" lon="2.941386">
        <ele>93.0</ele>
        <time>2019-01-14T00:49:34Z</time>
      </trkpt>
      <trkpt lat="41.729761" lon="2.941337">
        <ele>92.0</ele>
        <time>2019-01-14T00:49:36Z</time>
      </trkpt>
      <trkpt lat="41.729852" lon="2.941385">
        <ele>92.0</ele>
        <time>2019-01-14T00:49:38Z</time>
      </trkpt>
      <trkpt lat="41.729931" lon="2.941455">
        <ele>92.0</ele>
        <time>2019-01-14T00:49:39Z</time>
      </trkpt>
      <trkpt lat="41.730009" lon="2.941522">
        <ele>91.0</ele>
        <time>2019-01-14T00:49:41Z</time>
      </trkpt>
      <trkpt lat="41.730086" lon="2.941574">
        <ele>91.0</ele>
        <time>2019-01-14T00:49:42Z</time>
      </trkpt>
      <trkpt lat="41.730169" lon="2.941604">
        <ele>91.0</ele>
        <time>2019-01-14T00:49:44Z</time>
      </trkpt>
      <trkpt lat="41.730344" lon="2.941642">
        <ele>90.0</ele>
        <time>2019-01-14T00:49:46Z</time>
      </trkpt>
      <trkpt lat="41.730431" lon="2.941666">
        <ele>90.0</ele>
        <time>2019-01-14T00:49:48Z</time>
      </trkpt>
      <trkpt lat="41.730522" lon="2.941708">
        <ele>90.0</ele>
        <time>2019-01-14T00:49:49Z</time>
      </trkpt>
      <trkpt lat="41.730602" lon="2.941759">
        <ele>89.0</ele>
        <time>2019-01-14T00:49:51Z</time>
      </trkpt>
      <trkpt lat="41.730675" lon="2.941822">
        <ele>89.0</ele>
        <time>2019-01-14T00:49:52Z</time>
      </trkpt>
      <trkpt lat="41.730744" lon="2.941892">
        <ele>88.0</ele>
        <time>2019-01-14T00:49:54Z</time>
      </trkpt>
      <trkpt lat="41.730814" lon="2.941965">
        <ele>88.0</ele>
        <time>2019-01-14T00:49:55Z</time>
      </trkpt>
      <trkpt lat="41.730880" lon="2.942042">
        <ele>87.0</ele>
        <time>2019-01-14T00:49:56Z</time>
      </trkpt>
      <trkpt lat="41.730940" lon="2.942127">
        <ele>86.0</ele>
        <time>2019-01-14T00:49:58Z</time>
      </trkpt>
      <trkpt lat="41.730993" lon="2.942230">
        <ele>86.0</ele>
        <time>2019-01-14T00:49:59Z</time>
      </trkpt>
      <trkpt lat="41.731039" lon="2.942333">
        <ele>85.0</ele>
        <time>2019-01-14T00:50:01Z</time>
      </trkpt>
      <trkpt lat="41.731081" lon="2.942439">
        <ele>84.0</ele>
        <time>2019-01-14T00:50:02Z</time>
      </trkpt>
      <trkpt lat="41.731118" lon="2.942549">
        <ele>83.0</ele>
        <time>2019-01-14T00:50:04Z</time>
      </trkpt>
      <trkpt lat="41.731153" lon="2.942660">
        <ele>83.0</ele>
        <time>2019-01-14T00:50:05Z</time>
      </trkpt>
      <trkpt lat="41.731186" lon="2.942772">
        <ele>82.0</ele>
        <time>2019-01-14T00:50:06Z</time>
      </trkpt>
      <trkpt lat="41.731215" lon="2.942886">
        <ele>82.0</ele>
        <time>2019-01-14T00:50:08Z</time>
      </trkpt>
      <trkpt lat="41.731245" lon="2.943001">
        <ele>82.0</ele>
        <time>2019-01-14T00:50:09Z</time>
      </trkpt>
      <trkpt lat="41.731331" lon="2.943210">
        <ele>81.0</ele>
        <time>2019-01-14T00:50:12Z</time>
      </trkpt>
      <trkpt lat="41.731409" lon="2.943260">
        <ele>81.0</ele>
        <time>2019-01-14T00:50:14Z</time>
      </trkpt>
      <trkpt lat="41.731502" lon="2.943250">
        <ele>80.0</ele>
        <time>2019-01-14T00:50:15Z</time>
      </trkpt>
      <trkpt lat="41.731590" lon="2.943194">
        <ele>80.0</ele>
        <time>2019-01-14T00:50:17Z</time>
      </trkpt>
      <trkpt lat="41.731675" lon="2.943143">
        <ele>79.0</ele>
        <time>2019-01-14T00:50:18Z</time>
      </trkpt>
      <trkpt lat="41.731761" lon="2.943139">
        <ele>79.0</ele>
        <time>2019-01-14T00:50:20Z</time>
      </trkpt>
      <trkpt lat="41.731848" lon="2.943197">
        <ele>78.0</ele>
        <time>2019-01-14T00:50:21Z</time>
      </trkpt>
      <trkpt lat="41.731899" lon="2.943294">
        <ele>78.0</ele>
        <time>2019-01-14T00:50:22Z</time>
      </trkpt>
      <trkpt lat="41.731907" lon="2.943408">
        <ele>78.0</ele>
        <time>2019-01-14T00:50:24Z</time>
      </trkpt>
      <trkpt lat="41.731885" lon="2.943521">
        <ele>77.0</ele>
        <time>2019-01-14T00:50:25Z</time>
      </trkpt>
      <trkpt lat="41.731847" lon="2.943630">
        <ele>77.0</ele>
        <time>2019-01-14T00:50:27Z</time>
      </trkpt>
      <trkpt lat="41.731803" lon="2.943732">
        <ele>76.0</ele>
        <time>2019-01-14T00:50:28Z</time>
      </trkpt>
      <trkpt lat="41.731754" lon="2.943835">
        <ele>76.0</ele>
        <time>2019-01-14T00:50:30Z</time>
      </trkpt>
      <trkpt lat="41.731694" lon="2.943937">
        <ele>75.0</ele>
        <time>2019-01-14T00:50:31Z</time>
      </trkpt>
      <trkpt lat="41.731526" lon="2.944087">
        <ele>74.0</ele>
        <time>2019-01-14T00:50:34Z</time>
      </trkpt>
      <trkpt lat="41.731433" lon="2.944131">
        <ele>73.0</ele>
        <time>2019-01-14T00:50:36Z</time>
      </trkpt>
      <trkpt lat="41.731345" lon="2.944176">
        <ele>73.0</ele>
        <time>2019-01-14T00:50:37Z</time>
      </trkpt>
      <trkpt lat="41.731273" lon="2.944249">
        <ele>72.0</ele>
        <time>2019-01-14T00:50:39Z</time>
      </trkpt>
      <trkpt lat="41.731227" lon="2.944354">
        <ele>72.0</ele>
        <time>2019-01-14T00:50:40Z</time>
      </trkpt>
      <trkpt lat="41.731212" lon="2.944478">
        <ele>72.0</ele>
        <time>2019-01-14T00:50:42Z</time>
      </trkpt>
      <trkpt lat="41.731212" lon="2.944607">
        <ele>71.0</ele>
        <time>2019-01-14T00:50:43Z</time>
      </trkpt>
      <trkpt lat="41.731201" lon="2.944739">
        <ele>71.0</ele>
        <time>2019-01-14T00:50:45Z</time>
      </trkpt>
      <trkpt lat="41.731165" lon="2.944856">
        <ele>70.0</ele>
        <time>2019-01-14T00:50:46Z</time>
      </trkpt>
      <trkpt lat="41.731108" lon="2.944953">
        <ele>70.0</ele>
        <time>2019-01-14T00:50:48Z</time>
      </trkpt>
      <trkpt lat="41.731049" lon="2.945043">
        <ele>69.0</ele>
        <time>2019-01-14T00:50:49Z</time>
      </trkpt>
      <trkpt lat="41.731003" lon="2.945143">
        <ele>69.0</ele>
        <time>2019-01-14T00:50:51Z</time>
      </trkpt>
      <trkpt lat="41.730983" lon="2.945258">
        <ele>69.0</ele>
        <time>2019-01-14T00:50:52Z</time>
      </trkpt>
      <trkpt lat="41.730991" lon="2.945376">
        <ele>68.0</ele>
        <time>2019-01-14T00:50:54Z</time>
      </trkpt>
      <trkpt lat="41.731103" lon="2.945567">
        <ele>68.0</ele>
        <time>2019-01-14T00:50:56Z</time>
      </trkpt>
      <trkpt lat="41.731171" lon="2.945653">
        <ele>67.0</ele>
        <time>2019-01-14T00:50:58Z</time>
      </trkpt>
      <trkpt lat="41.731217" lon="2.945759">
        <ele>67.0</ele>
        <time>2019-01-14T00:50:59Z</time>
      </trkpt>
      <trkpt lat="41.731232" lon="2.945877">
        <ele>67.0</ele>
        <time>2019-01-14T00:51:01Z</time>
      </trkpt>
      <trkpt lat="41.731228" lon="2.946000">
        <ele>67.0</ele>
        <time>2019-01-14T00:51:02Z</time>
      </trkpt>
      <trkpt lat="41.731216" lon="2.946121">
        <ele>67.0</ele>
        <time>2019-01-14T00:51:04Z</time>
      </trkpt>
      <trkpt lat="41.731205" lon="2.946239">
        <ele>67.0</ele>
        <time>2019-01-14T00:51:05Z</time>
      </trkpt>
      <trkpt lat="41.731195" lon="2.946366">
        <ele>67.0</ele>
        <time>2019-01-14T00:51:07Z</time>
      </trkpt>
      <trkpt lat="41.731179" lon="2.946482">
        <ele>67.0</ele>
        <time>2019-01-14T00:51:08Z</time>
      </trkpt>
      <trkpt lat="41.731159" lon="2.946713">
        <ele>67.0</ele>
        <time>2019-01-14T00:51:11Z</time>
      </trkpt>
      <trkpt lat="41.731192" lon="2.946819">
        <ele>67.0</ele>
        <time>2019-01-14T00:51:12Z</time>
      </trkpt>
      <trkpt lat="41.731328" lon="2.946942">
        <ele>67.0</ele>
        <time>2019-01-14T00:51:15Z</time>
      </trkpt>
      <trkpt lat="41.731404" lon="2.947004">
        <ele>65.0</ele>
        <time>2019-01-14T00:51:16Z</time>
      </trkpt>
      <trkpt lat="41.731458" lon="2.947085">
        <ele>64.0</ele>
        <time>2019-01-14T00:51:18Z</time>
      </trkpt>
      <trkpt lat="41.731494" lon="2.947178">
        <ele>63.0</ele>
        <time>2019-01-14T00:51:19Z</time>
      </trkpt>
      <trkpt lat="41.731517" lon="2.947274">
        <ele>62.0</ele>
        <time>2019-01-14T00:51:20Z</time>
      </trkpt>
      <trkpt lat="41.731571" lon="2.947453">
        <ele>60.0</ele>
        <time>2019-01-14T00:51:22Z</time>
      </trkpt>
      <trkpt lat="41.731603" lon="2.947538">
        <ele>59.0</ele>
        <time>2019-01-14T00:51:24Z</time>
      </trkpt>
      <trkpt lat="41.731655" lon="2.947714">
        <ele>57.0</ele>
        <time>2019-01-14T00:51:26Z</time>
      </trkpt>
      <trkpt lat="41.731677" lon="2.947891">
        <ele>55.0</ele>
        <time>2019-01-14T00:51:28Z</time>
      </trkpt>
      <trkpt lat="41.731641" lon="2.948141">
        <ele>52.0</ele>
        <time>2019-01-14T00:51:31Z</time>
      </trkpt>
      <trkpt lat="41.731616" lon="2.948212">
        <ele>52.0</ele>
        <time>2019-01-14T00:51:32Z</time>
      </trkpt>
      <trkpt lat="41.731556" lon="2.948344">
        <ele>50.0</ele>
        <time>2019-01-14T00:51:34Z</time>
      </trkpt>
      <trkpt lat="41.731530" lon="2.948406">
        <ele>49.0</ele>
        <time>2019-01-14T00:51:35Z</time>
      </trkpt>
      <trkpt lat="41.731492" lon="2.948531">
        <ele>48.0</ele>
        <time>2019-01-14T00:51:36Z</time>
      </trkpt>
      <trkpt lat="41.731484" lon="2.948780">
        <ele>44.0</ele>
        <time>2019-01-14T00:51:39Z</time>
      </trkpt>
      <trkpt lat="41.731488" lon="2.948837">
        <ele>44.0</ele>
        <time>2019-01-14T00:51:40Z</time>
      </trkpt>
      <trkpt lat="41.731491" lon="2.948890">
        <ele>43.0</ele>
        <time>2019-01-14T00:51:41Z</time>
      </trkpt>
      <trkpt lat="41.731495" lon="2.948943">
        <ele>43.0</ele>
        <time>2019-01-14T00:51:41Z</time>
      </trkpt>
      <trkpt lat="41.731495" lon="2.948995">
        <ele>42.0</ele>
        <time>2019-01-14T00:51:42Z</time>
      </trkpt>
      <trkpt lat="41.731503" lon="2.949086">
        <ele>41.0</ele>
        <time>2019-01-14T00:51:43Z</time>
      </trkpt>
      <trkpt lat="41.731520" lon="2.949343">
        <ele>39.0</ele>
        <time>2019-01-14T00:51:46Z</time>
      </trkpt>
      <trkpt lat="41.731562" lon="2.949560">
        <ele>37.0</ele>
        <time>2019-01-14T00:51:49Z</time>
      </trkpt>
      <trkpt lat="41.731617" lon="2.949829">
        <ele>35.0</ele>
        <time>2019-01-14T00:51:52Z</time>
      </trkpt>
      <trkpt lat="41.731629" lon="2.949981">
        <ele>33.0</ele>
        <time>2019-01-14T00:51:54Z</time>
      </trkpt>
      <trkpt lat="41.731628" lon="2.950040">
        <ele>33.0</ele>
        <time>2019-01-14T00:51:55Z</time>
      </trkpt>
      <trkpt lat="41.731632" lon="2.950104">
        <ele>32.0</ele>
        <time>2019-01-14T00:51:55Z</time>
      </trkpt>
      <trkpt lat="41.731681" lon="2.950309">
        <ele>30.0</ele>
        <time>2019-01-14T00:51:58Z</time>
      </trkpt>
      <trkpt lat="41.731797" lon="2.950446">
        <ele>28.0</ele>
        <time>2019-01-14T00:52:00Z</time>
      </trkpt>
      <trkpt lat="41.731932" lon="2.950456">
        <ele>29.0</ele>
        <time>2019-01-14T00:52:03Z</time>
      </trkpt>
      <trkpt lat="41.731974" lon="2.950442">
        <ele>29.0</ele>
        <time>2019-01-14T00:52:03Z</time>
      </trkpt>
      <trkpt lat="41.732088" lon="2.950350">
        <ele>30.0</ele>
        <time>2019-01-14T00:52:05Z</time>
      </trkpt>
      <trkpt lat="41.732120" lon="2.950317">
        <ele>30.0</ele>
        <time>2019-01-14T00:52:06Z</time>
      </trkpt>
      <trkpt lat="41.732260" lon="2.950155">
        <ele>30.0</ele>
        <time>2019-01-14T00:52:09Z</time>
      </trkpt>
      <trkpt lat="41.732323" lon="2.950088">
        <ele>30.0</ele>
        <time>2019-01-14T00:52:10Z</time>
      </trkpt>
      <trkpt lat="41.732391" lon="2.950017">
        <ele>31.0</ele>
        <time>2019-01-14T00:52:12Z</time>
      </trkpt>
      <trkpt lat="41.732429" lon="2.949989">
        <ele>31.0</ele>
        <time>2019-01-14T00:52:12Z</time>
      </trkpt>
      <trkpt lat="41.732559" lon="2.949959">
        <ele>31.0</ele>
        <time>2019-01-14T00:52:14Z</time>
      </trkpt>
      <trkpt lat="41.732647" lon="2.949947">
        <ele>31.0</ele>
        <time>2019-01-14T00:52:16Z</time>
      </trkpt>
      <trkpt lat="41.732886" lon="2.949872">
        <ele>32.0</ele>
        <time>2019-01-14T00:52:20Z</time>
      </trkpt>
      <trkpt lat="41.733208" lon="2.949697">
        <ele>33.0</ele>
        <time>2019-01-14T00:52:25Z</time>
      </trkpt>
      <trkpt lat="41.733267" lon="2.949665">
        <ele>33.0</ele>
        <time>2019-01-14T00:52:26Z</time>
      </trkpt>
      <trkpt lat="41.733399" lon="2.949667">
        <ele>34.0</ele>
        <time>2019-01-14T00:52:28Z</time>
      </trkpt>
      <trkpt lat="41.733530" lon="2.949733">
        <ele>34.0</ele>
        <time>2019-01-14T00:52:31Z</time>
      </trkpt>
      <trkpt lat="41.733596" lon="2.949765">
        <ele>34.0</ele>
        <time>2019-01-14T00:52:32Z</time>
      </trkpt>
      <trkpt lat="41.733667" lon="2.949787">
        <ele>34.0</ele>
        <time>2019-01-14T00:52:33Z</time>
      </trkpt>
      <trkpt lat="41.733737" lon="2.949801">
        <ele>34.0</ele>
        <time>2019-01-14T00:52:34Z</time>
      </trkpt>
      <trkpt lat="41.733805" lon="2.949804">
        <ele>34.0</ele>
        <time>2019-01-14T00:52:35Z</time>
      </trkpt>
      <trkpt lat="41.733874" lon="2.949803">
        <ele>34.0</ele>
        <time>2019-01-14T00:52:36Z</time>
      </trkpt>
      <trkpt lat="41.733941" lon="2.949791">
        <ele>34.0</ele>
        <time>2019-01-14T00:52:37Z</time>
      </trkpt>
      <trkpt lat="41.734004" lon="2.949755">
        <ele>34.0</ele>
        <time>2019-01-14T00:52:38Z</time>
      </trkpt>
      <trkpt lat="41.734056" lon="2.949695">
        <ele>34.0</ele>
        <time>2019-01-14T00:52:40Z</time>
      </trkpt>
      <trkpt lat="41.734103" lon="2.949623">
        <ele>34.0</ele>
        <time>2019-01-14T00:52:41Z</time>
      </trkpt>
      <trkpt lat="41.734148" lon="2.949549">
        <ele>34.0</ele>
        <time>2019-01-14T00:52:42Z</time>
      </trkpt>
      <trkpt lat="41.734283" lon="2.949327">
        <ele>34.0</ele>
        <time>2019-01-14T00:52:45Z</time>
      </trkpt>
      <trkpt lat="41.734352" lon="2.949178">
        <ele>34.0</ele>
        <time>2019-01-14T00:52:47Z</time>
      </trkpt>
      <trkpt lat="41.734371" lon="2.949102">
        <ele>34.0</ele>
        <time>2019-01-14T00:52:48Z</time>
      </trkpt>
      <trkpt lat="41.734393" lon="2.949020">
        <ele>34.0</ele>
        <time>2019-01-14T00:52:49Z</time>
      </trkpt>
      <trkpt lat="41.734422" lon="2.948948">
        <ele>34.0</ele>
        <time>2019-01-14T00:52:50Z</time>
      </trkpt>
      <trkpt lat="41.734458" lon="2.948888">
        <ele>35.0</ele>
        <time>2019-01-14T00:52:51Z</time>
      </trkpt>
      <trkpt lat="41.734503" lon="2.948839">
        <ele>35.0</ele>
        <time>2019-01-14T00:52:52Z</time>
      </trkpt>
      <trkpt lat="41.734552" lon="2.948800">
        <ele>35.0</ele>
        <time>2019-01-14T00:52:53Z</time>
      </trkpt>
      <trkpt lat="41.734602" lon="2.948764">
        <ele>35.0</ele>
        <time>2019-01-14T00:52:54Z</time>
      </trkpt>
      <trkpt lat="41.734649" lon="2.948726">
        <ele>35.0</ele>
        <time>2019-01-14T00:52:55Z</time>
      </trkpt>
      <trkpt lat="41.734693" lon="2.948684">
        <ele>35.0</ele>
        <time>2019-01-14T00:52:56Z</time>
      </trkpt>
      <trkpt lat="41.734733" lon="2.948635">
        <ele>35.0</ele>
        <time>2019-01-14T00:52:57Z</time>
      </trkpt>
      <trkpt lat="41.734837" lon="2.948469">
        <ele>35.0</ele>
        <time>2019-01-14T00:52:59Z</time>
      </trkpt>
      <trkpt lat="41.734862" lon="2.948399">
        <ele>35.0</ele>
        <time>2019-01-14T00:53:00Z</time>
      </trkpt>
      <trkpt lat="41.734879" lon="2.948225">
        <ele>35.0</ele>
        <time>2019-01-14T00:53:02Z</time>
      </trkpt>
      <trkpt lat="41.734883" lon="2.948137">
        <ele>36.0</ele>
        <time>2019-01-14T00:53:03Z</time>
      </trkpt>
      <trkpt lat="41.734888" lon="2.948041">
        <ele>36.0</ele>
        <time>2019-01-14T00:53:04Z</time>
      </trkpt>
      <trkpt lat="41.734896" lon="2.947945">
        <ele>36.0</ele>
        <time>2019-01-14T00:53:06Z</time>
      </trkpt>
      <trkpt lat="41.734909" lon="2.947846">
        <ele>36.0</ele>
        <time>2019-01-14T00:53:07Z</time>
      </trkpt>
      <trkpt lat="41.734925" lon="2.947748">
        <ele>36.0</ele>
        <time>2019-01-14T00:53:08Z</time>
      </trkpt>
      <trkpt lat="41.734944" lon="2.947651">
        <ele>36.0</ele>
        <time>2019-01-14T00:53:09Z</time>
      </trkpt>
      <trkpt lat="41.734973" lon="2.947442">
        <ele>37.0</ele>
        <time>2019-01-14T00:53:12Z</time>
      </trkpt>
      <trkpt lat="41.734984" lon="2.947219">
        <ele>37.0</ele>
        <time>2019-01-14T00:53:14Z</time>
      </trkpt>
      <trkpt lat="41.734997" lon="2.947104">
        <ele>37.0</ele>
        <time>2019-01-14T00:53:16Z</time>
      </trkpt>
      <trkpt lat="41.735018" lon="2.946990">
        <ele>37.0</ele>
        <time>2019-01-14T00:53:17Z</time>
      </trkpt>
      <trkpt lat="41.735044" lon="2.946879">
        <ele>37.0</ele>
        <time>2019-01-14T00:53:19Z</time>
      </trkpt>
      <trkpt lat="41.735072" lon="2.946762">
        <ele>37.0</ele>
        <time>2019-01-14T00:53:20Z</time>
      </trkpt>
      <trkpt lat="41.735107" lon="2.946641">
        <ele>36.0</ele>
        <time>2019-01-14T00:53:22Z</time>
      </trkpt>
      <trkpt lat="41.735143" lon="2.946529">
        <ele>36.0</ele>
        <time>2019-01-14T00:53:23Z</time>
      </trkpt>
      <trkpt lat="41.735186" lon="2.946418">
        <ele>36.0</ele>
        <time>2019-01-14T00:53:25Z</time>
      </trkpt>
      <trkpt lat="41.735242" lon="2.946315">
        <ele>36.0</ele>
        <time>2019-01-14T00:53:26Z</time>
      </trkpt>
      <trkpt lat="41.735424" lon="2.946001">
        <ele>36.0</ele>
        <time>2019-01-14T00:53:31Z</time>
      </trkpt>
      <trkpt lat="41.735488" lon="2.945892">
        <ele>36.0</ele>
        <time>2019-01-14T00:53:32Z</time>
      </trkpt>
      <trkpt lat="41.735547" lon="2.945780">
        <ele>36.0</ele>
        <time>2019-01-14T00:53:34Z</time>
      </trkpt>
      <trkpt lat="41.735600" lon="2.945670">
        <ele>35.0</ele>
        <time>2019-01-14T00:53:36Z</time>
      </trkpt>
      <trkpt lat="41.735703" lon="2.945484">
        <ele>35.0</ele>
        <time>2019-01-14T00:53:38Z</time>
      </trkpt>
      <trkpt lat="41.735775" lon="2.945454">
        <ele>35.0</ele>
        <time>2019-01-14T00:53:40Z</time>
      </trkpt>
      <trkpt lat="41.735862" lon="2.945450">
        <ele>35.0</ele>
        <time>2019-01-14T00:53:41Z</time>
      </trkpt>
      <trkpt lat="41.735952" lon="2.945443">
        <ele>35.0</ele>
        <time>2019-01-14T00:53:43Z</time>
      </trkpt>
      <trkpt lat="41.736040" lon="2.945430">
        <ele>36.0</ele>
        <time>2019-01-14T00:53:44Z</time>
      </trkpt>
      <trkpt lat="41.736119" lon="2.945428">
        <ele>36.0</ele>
        <time>2019-01-14T00:53:45Z</time>
      </trkpt>
      <trkpt lat="41.736251" lon="2.945526">
        <ele>37.0</ele>
        <time>2019-01-14T00:53:48Z</time>
      </trkpt>
      <trkpt lat="41.736331" lon="2.945757">
        <ele>40.0</ele>
        <time>2019-01-14T00:53:51Z</time>
      </trkpt>
      <trkpt lat="41.736358" lon="2.945907">
        <ele>41.0</ele>
        <time>2019-01-14T00:53:52Z</time>
      </trkpt>
      <trkpt lat="41.736389" lon="2.946120">
        <ele>43.0</ele>
        <time>2019-01-14T00:53:55Z</time>
      </trkpt>
      <trkpt lat="41.736394" lon="2.946187">
        <ele>43.0</ele>
        <time>2019-01-14T00:53:56Z</time>
      </trkpt>
      <trkpt lat="41.736395" lon="2.946250">
        <ele>44.0</ele>
        <time>2019-01-14T00:53:57Z</time>
      </trkpt>
      <trkpt lat="41.736390" lon="2.946319">
        <ele>44.0</ele>
        <time>2019-01-14T00:53:57Z</time>
      </trkpt>
      <trkpt lat="41.736381" lon="2.946385">
        <ele>45.0</ele>
        <time>2019-01-14T00:53:58Z</time>
      </trkpt>
      <trkpt lat="41.736360" lon="2.946509">
        <ele>45.0</ele>
        <time>2019-01-14T00:54:00Z</time>
      </trkpt>
      <trkpt lat="41.736338" lon="2.946616">
        <ele>46.0</ele>
        <time>2019-01-14T00:54:01Z</time>
      </trkpt>
      <trkpt lat="41.736332" lon="2.946664">
        <ele>47.0</ele>
        <time>2019-01-14T00:54:02Z</time>
      </trkpt>
      <trkpt lat="41.736331" lon="2.946714">
        <ele>47.0</ele>
        <time>2019-01-14T00:54:02Z</time>
      </trkpt>
      <trkpt lat="41.736338" lon="2.946760">
        <ele>48.0</ele>
        <time>2019-01-14T00:54:03Z</time>
      </trkpt>
      <trkpt lat="41.736398" lon="2.946877">
        <ele>49.0</ele>
        <time>2019-01-14T00:54:05Z</time>
      </trkpt>
      <trkpt lat="41.736437" lon="2.946904">
        <ele>49.0</ele>
        <time>2019-01-14T00:54:05Z</time>
      </trkpt>
      <trkpt lat="41.736498" lon="2.946935">
        <ele>50.0</ele>
        <time>2019-01-14T00:54:06Z</time>
      </trkpt>
      <trkpt lat="41.736528" lon="2.946938">
        <ele>50.0</ele>
        <time>2019-01-14T00:54:07Z</time>
      </trkpt>
      <trkpt lat="41.736568" lon="2.946933">
        <ele>50.0</ele>
        <time>2019-01-14T00:54:07Z</time>
      </trkpt>
      <trkpt lat="41.736608" lon="2.946925">
        <ele>50.0</ele>
        <time>2019-01-14T00:54:08Z</time>
      </trkpt>
      <trkpt lat="41.736650" lon="2.946917">
        <ele>51.0</ele>
        <time>2019-01-14T00:54:09Z</time>
      </trkpt>
      <trkpt lat="41.736730" lon="2.946903">
        <ele>51.0</ele>
        <time>2019-01-14T00:54:10Z</time>
      </trkpt>
      <trkpt lat="41.736817" lon="2.946889">
        <ele>52.0</ele>
        <time>2019-01-14T00:54:11Z</time>
      </trkpt>
      <trkpt lat="41.736860" lon="2.946893">
        <ele>52.0</ele>
        <time>2019-01-14T00:54:12Z</time>
      </trkpt>
      <trkpt lat="41.736898" lon="2.946898">
        <ele>52.0</ele>
        <time>2019-01-14T00:54:13Z</time>
      </trkpt>
      <trkpt lat="41.736936" lon="2.946909">
        <ele>53.0</ele>
        <time>2019-01-14T00:54:13Z</time>
      </trkpt>
      <trkpt lat="41.736974" lon="2.946922">
        <ele>53.0</ele>
        <time>2019-01-14T00:54:14Z</time>
      </trkpt>
      <trkpt lat="41.737032" lon="2.946972">
        <ele>53.0</ele>
        <time>2019-01-14T00:54:15Z</time>
      </trkpt>
      <trkpt lat="41.737092" lon="2.947132">
        <ele>55.0</ele>
        <time>2019-01-14T00:54:17Z</time>
      </trkpt>
      <trkpt lat="41.737094" lon="2.947177">
        <ele>55.0</ele>
        <time>2019-01-14T00:54:18Z</time>
      </trkpt>
      <trkpt lat="41.737097" lon="2.947224">
        <ele>55.0</ele>
        <time>2019-01-14T00:54:18Z</time>
      </trkpt>
      <trkpt lat="41.737093" lon="2.947267">
        <ele>55.0</ele>
        <time>2019-01-14T00:54:19Z</time>
      </trkpt>
      <trkpt lat="41.737085" lon="2.947308">
        <ele>55.0</ele>
        <time>2019-01-14T00:54:19Z</time>
      </trkpt>
      <trkpt lat="41.737072" lon="2.947551">
        <ele>55.0</ele>
        <time>2019-01-14T00:54:22Z</time>
      </trkpt>
      <trkpt lat="41.737078" lon="2.947595">
        <ele>55.0</ele>
        <time>2019-01-14T00:54:23Z</time>
      </trkpt>
      <trkpt lat="41.737091" lon="2.947633">
        <ele>55.0</ele>
        <time>2019-01-14T00:54:23Z</time>
      </trkpt>
      <trkpt lat="41.737105" lon="2.947671">
        <ele>55.0</ele>
        <time>2019-01-14T00:54:24Z</time>
      </trkpt>
      <trkpt lat="41.737121" lon="2.947720">
        <ele>55.0</ele>
        <time>2019-01-14T00:54:24Z</time>
      </trkpt>
      <trkpt lat="41.737135" lon="2.947759">
        <ele>55.0</ele>
        <time>2019-01-14T00:54:25Z</time>
      </trkpt>
      <trkpt lat="41.737209" lon="2.947954">
        <ele>55.0</ele>
        <time>2019-01-14T00:54:28Z</time>
      </trkpt>
      <trkpt lat="41.737214" lon="2.947989">
        <ele>55.0</ele>
        <time>2019-01-14T00:54:28Z</time>
      </trkpt>
      <trkpt lat="41.737215" lon="2.948027">
        <ele>55.0</ele>
        <time>2019-01-14T00:54:28Z</time>
      </trkpt>
      <trkpt lat="41.737221" lon="2.948063">
        <ele>55.0</ele>
        <time>2019-01-14T00:54:29Z</time>
      </trkpt>
      <trkpt lat="41.737217" lon="2.948163">
        <ele>55.0</ele>
        <time>2019-01-14T00:54:30Z</time>
      </trkpt>
      <trkpt lat="41.737227" lon="2.948264">
        <ele>55.0</ele>
        <time>2019-01-14T00:54:31Z</time>
      </trkpt>
      <trkpt lat="41.737211" lon="2.948297">
        <ele>55.0</ele>
        <time>2019-01-14T00:54:32Z</time>
      </trkpt>
      <trkpt lat="41.737215" lon="2.948327">
        <ele>55.0</ele>
        <time>2019-01-14T00:54:32Z</time>
      </trkpt>
      <trkpt lat="41.737214" lon="2.948368">
        <ele>55.0</ele>
        <time>2019-01-14T00:54:33Z</time>
      </trkpt>
      <trkpt lat="41.737199" lon="2.948410">
        <ele>55.0</ele>
        <time>2019-01-14T00:54:33Z</time>
      </trkpt>
      <trkpt lat="41.737165" lon="2.948492">
        <ele>55.0</ele>
        <time>2019-01-14T00:54:34Z</time>
      </trkpt>
      <trkpt lat="41.737075" lon="2.948653">
        <ele>56.0</ele>
        <time>2019-01-14T00:54:37Z</time>
      </trkpt>
      <trkpt lat="41.737020" lon="2.948718">
        <ele>56.0</ele>
        <time>2019-01-14T00:54:38Z</time>
      </trkpt>
      <trkpt lat="41.737010" lon="2.948726">
        <ele>56.0</ele>
        <time>2019-01-14T00:54:38Z</time>
      </trkpt>
      <trkpt lat="41.736989" lon="2.948738">
        <ele>56.0</ele>
        <time>2019-01-14T00:54:38Z</time>
      </trkpt>
      <trkpt lat="41.736963" lon="2.948749">
        <ele>56.0</ele>
        <time>2019-01-14T00:54:39Z</time>
      </trkpt>
      <trkpt lat="41.736846" lon="2.948881">
        <ele>56.0</ele>
        <time>2019-01-14T00:54:41Z</time>
      </trkpt>
      <trkpt lat="41.736814" lon="2.948965">
        <ele>56.0</ele>
        <time>2019-01-14T00:54:42Z</time>
      </trkpt>
      <trkpt lat="41.736801" lon="2.949014">
        <ele>56.0</ele>
        <time>2019-01-14T00:54:43Z</time>
      </trkpt>
      <trkpt lat="41.736789" lon="2.949053">
        <ele>56.0</ele>
        <time>2019-01-14T00:54:44Z</time>
      </trkpt>
      <trkpt lat="41.736773" lon="2.949089">
        <ele>56.0</ele>
        <time>2019-01-14T00:54:44Z</time>
      </trkpt>
      <trkpt lat="41.736753" lon="2.949128">
        <ele>56.0</ele>
        <time>2019-01-14T00:54:45Z</time>
      </trkpt>
      <trkpt lat="41.736713" lon="2.949276">
        <ele>56.0</ele>
        <time>2019-01-14T00:54:47Z</time>
      </trkpt>
      <trkpt lat="41.736683" lon="2.949514">
        <ele>56.0</ele>
        <time>2019-01-14T00:54:49Z</time>
      </trkpt>
      <trkpt lat="41.736680" lon="2.949557">
        <ele>56.0</ele>
        <time>2019-01-14T00:54:50Z</time>
      </trkpt>
      <trkpt lat="41.736681" lon="2.949600">
        <ele>56.0</ele>
        <time>2019-01-14T00:54:50Z</time>
      </trkpt>
      <trkpt lat="41.736688" lon="2.949643">
        <ele>56.0</ele>
        <time>2019-01-14T00:54:51Z</time>
      </trkpt>
      <trkpt lat="41.736699" lon="2.949686">
        <ele>56.0</ele>
        <time>2019-01-14T00:54:51Z</time>
      </trkpt>
      <trkpt lat="41.736804" lon="2.949879">
        <ele>56.0</ele>
        <time>2019-01-14T00:54:54Z</time>
      </trkpt>
      <trkpt lat="41.736987" lon="2.949983">
        <ele>56.0</ele>
        <time>2019-01-14T00:54:58Z</time>
      </trkpt>
      <trkpt lat="41.737108" lon="2.950063">
        <ele>55.0</ele>
        <time>2019-01-14T00:55:00Z</time>
      </trkpt>
      <trkpt lat="41.737110" lon="2.950071">
        <ele>55.0</ele>
        <time>2019-01-14T00:55:00Z</time>
      </trkpt>
      <trkpt lat="41.737117" lon="2.950071">
        <ele>55.0</ele>
        <time>2019-01-14T00:55:00Z</time>
      </trkpt>
      <trkpt lat="41.737129" lon="2.950073">
        <ele>55.0</ele>
        <time>2019-01-14T00:55:00Z</time>
      </trkpt>
      <trkpt lat="41.737154" lon="2.950076">
        <ele>55.0</ele>
        <time>2019-01-14T00:55:00Z</time>
      </trkpt>
      <trkpt lat="41.737162" lon="2.950081">
        <ele>55.0</ele>
        <time>2019-01-14T00:55:01Z</time>
      </trkpt>
      <trkpt lat="41.737179" lon="2.950094">
        <ele>55.0</ele>
        <time>2019-01-14T00:55:01Z</time>
      </trkpt>
      <trkpt lat="41.737311" lon="2.950162">
        <ele>55.0</ele>
        <time>2019-01-14T00:55:03Z</time>
      </trkpt>
      <trkpt lat="41.737400" lon="2.950254">
        <ele>55.0</ele>
        <time>2019-01-14T00:55:05Z</time>
      </trkpt>
      <trkpt lat="41.737440" lon="2.950285">
        <ele>55.0</ele>
        <time>2019-01-14T00:55:06Z</time>
      </trkpt>
      <trkpt lat="41.737536" lon="2.950328">
        <ele>55.0</ele>
        <time>2019-01-14T00:55:07Z</time>
      </trkpt>
      <trkpt lat="41.737589" lon="2.950329">
        <ele>55.0</ele>
        <time>2019-01-14T00:55:08Z</time>
      </trkpt>
      <trkpt lat="41.737641" lon="2.950315">
        <ele>55.0</ele>
        <time>2019-01-14T00:55:09Z</time>
      </trkpt>
      <trkpt lat="41.737754" lon="2.950256">
        <ele>55.0</ele>
        <time>2019-01-14T00:55:11Z</time>
      </trkpt>
      <trkpt lat="41.737855" lon="2.950147">
        <ele>55.0</ele>
        <time>2019-01-14T00:55:13Z</time>
      </trkpt>
      <trkpt lat="41.737941" lon="2.950013">
        <ele>54.0</ele>
        <time>2019-01-14T00:55:15Z</time>
      </trkpt>
      <trkpt lat="41.737980" lon="2.949944">
        <ele>54.0</ele>
        <time>2019-01-14T00:55:16Z</time>
      </trkpt>
      <trkpt lat="41.738024" lon="2.949878">
        <ele>54.0</ele>
        <time>2019-01-14T00:55:17Z</time>
      </trkpt>
      <trkpt lat="41.738079" lon="2.949828">
        <ele>54.0</ele>
        <time>2019-01-14T00:55:18Z</time>
      </trkpt>
      <trkpt lat="41.738147" lon="2.949808">
        <ele>54.0</ele>
        <time>2019-01-14T00:55:19Z</time>
      </trkpt>
      <trkpt lat="41.738219" lon="2.949821">
        <ele>54.0</ele>
        <time>2019-01-14T00:55:21Z</time>
      </trkpt>
      <trkpt lat="41.738289" lon="2.949856">
        <ele>54.0</ele>
        <time>2019-01-14T00:55:22Z</time>
      </trkpt>
      <trkpt lat="41.738359" lon="2.949881">
        <ele>54.0</ele>
        <time>2019-01-14T00:55:23Z</time>
      </trkpt>
      <trkpt lat="41.738434" lon="2.949902">
        <ele>54.0</ele>
        <time>2019-01-14T00:55:24Z</time>
      </trkpt>
      <trkpt lat="41.738506" lon="2.949911">
        <ele>54.0</ele>
        <time>2019-01-14T00:55:25Z</time>
      </trkpt>
      <trkpt lat="41.738580" lon="2.949912">
        <ele>54.0</ele>
        <time>2019-01-14T00:55:27Z</time>
      </trkpt>
      <trkpt lat="41.738652" lon="2.949896">
        <ele>54.0</ele>
        <time>2019-01-14T00:55:28Z</time>
      </trkpt>
      <trkpt lat="41.738722" lon="2.949865">
        <ele>54.0</ele>
        <time>2019-01-14T00:55:29Z</time>
      </trkpt>
      <trkpt lat="41.738791" lon="2.949831">
        <ele>54.0</ele>
        <time>2019-01-14T00:55:30Z</time>
      </trkpt>
      <trkpt lat="41.738860" lon="2.949799">
        <ele>54.0</ele>
        <time>2019-01-14T00:55:31Z</time>
      </trkpt>
      <trkpt lat="41.738933" lon="2.949787">
        <ele>54.0</ele>
        <time>2019-01-14T00:55:32Z</time>
      </trkpt>
      <trkpt lat="41.739002" lon="2.949822">
        <ele>54.0</ele>
        <time>2019-01-14T00:55:34Z</time>
      </trkpt>
      <trkpt lat="41.739084" lon="2.949982">
        <ele>54.0</ele>
        <time>2019-01-14T00:55:36Z</time>
      </trkpt>
      <trkpt lat="41.739097" lon="2.950078">
        <ele>54.0</ele>
        <time>2019-01-14T00:55:37Z</time>
      </trkpt>
      <trkpt lat="41.739103" lon="2.950177">
        <ele>54.0</ele>
        <time>2019-01-14T00:55:38Z</time>
      </trkpt>
      <trkpt lat="41.739112" lon="2.950271">
        <ele>54.0</ele>
        <time>2019-01-14T00:55:39Z</time>
      </trkpt>
      <trkpt lat="41.739127" lon="2.950367">
        <ele>54.0</ele>
        <time>2019-01-14T00:55:41Z</time>
      </trkpt>
      <trkpt lat="41.739218" lon="2.950633">
        <ele>53.0</ele>
        <time>2019-01-14T00:55:44Z</time>
      </trkpt>
      <trkpt lat="41.739277" lon="2.950701">
        <ele>53.0</ele>
        <time>2019-01-14T00:55:45Z</time>
      </trkpt>
      <trkpt lat="41.739354" lon="2.950734">
        <ele>53.0</ele>
        <time>2019-01-14T00:55:47Z</time>
      </trkpt>
      <trkpt lat="41.739435" lon="2.950724">
        <ele>53.0</ele>
        <time>2019-01-14T00:55:48Z</time>
      </trkpt>
      <trkpt lat="41.739520" lon="2.950696">
        <ele>53.0</ele>
        <time>2019-01-14T00:55:49Z</time>
      </trkpt>
      <trkpt lat="41.739599" lon="2.950659">
        <ele>53.0</ele>
        <time>2019-01-14T00:55:51Z</time>
      </trkpt>
      <trkpt lat="41.739739" lon="2.950537">
        <ele>52.0</ele>
        <time>2019-01-14T00:55:53Z</time>
      </trkpt>
      <trkpt lat="41.739798" lon="2.950459">
        <ele>52.0</ele>
        <time>2019-01-14T00:55:55Z</time>
      </trkpt>
      <trkpt lat="41.739858" lon="2.950379">
        <ele>52.0</ele>
        <time>2019-01-14T00:55:56Z</time>
      </trkpt>
      <trkpt lat="41.739918" lon="2.950301">
        <ele>52.0</ele>
        <time>2019-01-14T00:55:57Z</time>
      </trkpt>
      <trkpt lat="41.739979" lon="2.950226">
        <ele>52.0</ele>
        <time>2019-01-14T00:55:59Z</time>
      </trkpt>
      <trkpt lat="41.740040" lon="2.950144">
        <ele>52.0</ele>
        <time>2019-01-14T00:56:00Z</time>
      </trkpt>
      <trkpt lat="41.740096" lon="2.950073">
        <ele>52.0</ele>
        <time>2019-01-14T00:56:01Z</time>
      </trkpt>
      <trkpt lat="41.740158" lon="2.950020">
        <ele>52.0</ele>
        <time>2019-01-14T00:56:02Z</time>
      </trkpt>
      <trkpt lat="41.740225" lon="2.950018">
        <ele>52.0</ele>
        <time>2019-01-14T00:56:04Z</time>
      </trkpt>
      <trkpt lat="41.740359" lon="2.950113">
        <ele>53.0</ele>
        <time>2019-01-14T00:56:06Z</time>
      </trkpt>
      <trkpt lat="41.740567" lon="2.950386">
        <ele>54.0</ele>
        <time>2019-01-14T00:56:11Z</time>
      </trkpt>
      <trkpt lat="41.740551" lon="2.950639">
        <ele>53.0</ele>
        <time>2019-01-14T00:56:14Z</time>
      </trkpt>
      <trkpt lat="41.740540" lon="2.950710">
        <ele>53.0</ele>
        <time>2019-01-14T00:56:15Z</time>
      </trkpt>
      <trkpt lat="41.740441" lon="2.950825">
        <ele>53.0</ele>
        <time>2019-01-14T00:56:17Z</time>
      </trkpt>
      <trkpt lat="41.740392" lon="2.950877">
        <ele>53.0</ele>
        <time>2019-01-14T00:56:18Z</time>
      </trkpt>
      <trkpt lat="41.740269" lon="2.951006">
        <ele>53.0</ele>
        <time>2019-01-14T00:56:20Z</time>
      </trkpt>
      <trkpt lat="41.740215" lon="2.951093">
        <ele>53.0</ele>
        <time>2019-01-14T00:56:21Z</time>
      </trkpt>
      <trkpt lat="41.740186" lon="2.951139">
        <ele>53.0</ele>
        <time>2019-01-14T00:56:22Z</time>
      </trkpt>
      <trkpt lat="41.740161" lon="2.951187">
        <ele>53.0</ele>
        <time>2019-01-14T00:56:23Z</time>
      </trkpt>
      <trkpt lat="41.740137" lon="2.951235">
        <ele>53.0</ele>
        <time>2019-01-14T00:56:24Z</time>
      </trkpt>
      <trkpt lat="41.740116" lon="2.951282">
        <ele>53.0</ele>
        <time>2019-01-14T00:56:24Z</time>
      </trkpt>
      <trkpt lat="41.740097" lon="2.951328">
        <ele>54.0</ele>
        <time>2019-01-14T00:56:25Z</time>
      </trkpt>
      <trkpt lat="41.740075" lon="2.951373">
        <ele>54.0</ele>
        <time>2019-01-14T00:56:26Z</time>
      </trkpt>
      <trkpt lat="41.739992" lon="2.951557">
        <ele>54.0</ele>
        <time>2019-01-14T00:56:28Z</time>
      </trkpt>
      <trkpt lat="41.739941" lon="2.951710">
        <ele>55.0</ele>
        <time>2019-01-14T00:56:30Z</time>
      </trkpt>
      <trkpt lat="41.739931" lon="2.951762">
        <ele>55.0</ele>
        <time>2019-01-14T00:56:31Z</time>
      </trkpt>
      <trkpt lat="41.739927" lon="2.951814">
        <ele>56.0</ele>
        <time>2019-01-14T00:56:31Z</time>
      </trkpt>
      <trkpt lat="41.739926" lon="2.951866">
        <ele>56.0</ele>
        <time>2019-01-14T00:56:32Z</time>
      </trkpt>
      <trkpt lat="41.739928" lon="2.951920">
        <ele>56.0</ele>
        <time>2019-01-14T00:56:33Z</time>
      </trkpt>
      <trkpt lat="41.739929" lon="2.951974">
        <ele>56.0</ele>
        <time>2019-01-14T00:56:33Z</time>
      </trkpt>
      <trkpt lat="41.739943" lon="2.952179">
        <ele>57.0</ele>
        <time>2019-01-14T00:56:36Z</time>
      </trkpt>
      <trkpt lat="41.739953" lon="2.952230">
        <ele>57.0</ele>
        <time>2019-01-14T00:56:36Z</time>
      </trkpt>
      <trkpt lat="41.739964" lon="2.952283">
        <ele>57.0</ele>
        <time>2019-01-14T00:56:37Z</time>
      </trkpt>
      <trkpt lat="41.739977" lon="2.952334">
        <ele>58.0</ele>
        <time>2019-01-14T00:56:38Z</time>
      </trkpt>
      <trkpt lat="41.739989" lon="2.952384">
        <ele>58.0</ele>
        <time>2019-01-14T00:56:38Z</time>
      </trkpt>
      <trkpt lat="41.739970" lon="2.952568">
        <ele>59.0</ele>
        <time>2019-01-14T00:56:40Z</time>
      </trkpt>
      <trkpt lat="41.739944" lon="2.952591">
        <ele>59.0</ele>
        <time>2019-01-14T00:56:41Z</time>
      </trkpt>
      <trkpt lat="41.739892" lon="2.952617">
        <ele>59.0</ele>
        <time>2019-01-14T00:56:42Z</time>
      </trkpt>
      <trkpt lat="41.739869" lon="2.952625">
        <ele>59.0</ele>
        <time>2019-01-14T00:56:42Z</time>
      </trkpt>
      <trkpt lat="41.739846" lon="2.952629">
        <ele>59.0</ele>
        <time>2019-01-14T00:56:43Z</time>
      </trkpt>
      <trkpt lat="41.739826" lon="2.952621">
        <ele>60.0</ele>
        <time>2019-01-14T00:56:43Z</time>
      </trkpt>
      <trkpt lat="41.739802" lon="2.952606">
        <ele>60.0</ele>
        <time>2019-01-14T00:56:43Z</time>
      </trkpt>
      <trkpt lat="41.739779" lon="2.952588">
        <ele>60.0</ele>
        <time>2019-01-14T00:56:44Z</time>
      </trkpt>
      <trkpt lat="41.739683" lon="2.952490">
        <ele>61.0</ele>
        <time>2019-01-14T00:56:46Z</time>
      </trkpt>
      <trkpt lat="41.739659" lon="2.952472">
        <ele>61.0</ele>
        <time>2019-01-14T00:56:46Z</time>
      </trkpt>
      <trkpt lat="41.739636" lon="2.952453">
        <ele>61.0</ele>
        <time>2019-01-14T00:56:47Z</time>
      </trkpt>
      <trkpt lat="41.739616" lon="2.952431">
        <ele>62.0</ele>
        <time>2019-01-14T00:56:47Z</time>
      </trkpt>
      <trkpt lat="41.739592" lon="2.952414">
        <ele>62.0</ele>
        <time>2019-01-14T00:56:47Z</time>
      </trkpt>
      <trkpt lat="41.739484" lon="2.952340">
        <ele>63.0</ele>
        <time>2019-01-14T00:56:49Z</time>
      </trkpt>
      <trkpt lat="41.739400" lon="2.952287">
        <ele>64.0</ele>
        <time>2019-01-14T00:56:51Z</time>
      </trkpt>
      <trkpt lat="41.739374" lon="2.952268">
        <ele>64.0</ele>
        <time>2019-01-14T00:56:51Z</time>
      </trkpt>
      <trkpt lat="41.739347" lon="2.952253">
        <ele>64.0</ele>
        <time>2019-01-14T00:56:52Z</time>
      </trkpt>
      <trkpt lat="41.739317" lon="2.952241">
        <ele>65.0</ele>
        <time>2019-01-14T00:56:52Z</time>
      </trkpt>
      <trkpt lat="41.739082" lon="2.952205">
        <ele>67.0</ele>
        <time>2019-01-14T00:56:56Z</time>
      </trkpt>
      <trkpt lat="41.739019" lon="2.952190">
        <ele>67.0</ele>
        <time>2019-01-14T00:56:57Z</time>
      </trkpt>
      <trkpt lat="41.738988" lon="2.952182">
        <ele>67.0</ele>
        <time>2019-01-14T00:56:58Z</time>
      </trkpt>
      <trkpt lat="41.738958" lon="2.952170">
        <ele>68.0</ele>
        <time>2019-01-14T00:56:58Z</time>
      </trkpt>
      <trkpt lat="41.738930" lon="2.952156">
        <ele>68.0</ele>
        <time>2019-01-14T00:56:59Z</time>
      </trkpt>
      <trkpt lat="41.738897" lon="2.952146">
        <ele>68.0</ele>
        <time>2019-01-14T00:56:59Z</time>
      </trkpt>
      <trkpt lat="41.738731" lon="2.952084">
        <ele>69.0</ele>
        <time>2019-01-14T00:57:02Z</time>
      </trkpt>
      <trkpt lat="41.738700" lon="2.952073">
        <ele>70.0</ele>
        <time>2019-01-14T00:57:02Z</time>
      </trkpt>
      <trkpt lat="41.738671" lon="2.952066">
        <ele>70.0</ele>
        <time>2019-01-14T00:57:03Z</time>
      </trkpt>
      <trkpt lat="41.738641" lon="2.952064">
        <ele>70.0</ele>
        <time>2019-01-14T00:57:03Z</time>
      </trkpt>
      <trkpt lat="41.738608" lon="2.952072">
        <ele>70.0</ele>
        <time>2019-01-14T00:57:04Z</time>
      </trkpt>
      <trkpt lat="41.738551" lon="2.952109">
        <ele>71.0</ele>
        <time>2019-01-14T00:57:05Z</time>
      </trkpt>
      <trkpt lat="41.738528" lon="2.952140">
        <ele>71.0</ele>
        <time>2019-01-14T00:57:05Z</time>
      </trkpt>
      <trkpt lat="41.738509" lon="2.952177">
        <ele>71.0</ele>
        <time>2019-01-14T00:57:06Z</time>
      </trkpt>
      <trkpt lat="41.738496" lon="2.952216">
        <ele>71.0</ele>
        <time>2019-01-14T00:57:07Z</time>
      </trkpt>
      <trkpt lat="41.738488" lon="2.952257">
        <ele>72.0</ele>
        <time>2019-01-14T00:57:07Z</time>
      </trkpt>
      <trkpt lat="41.738488" lon="2.952302">
        <ele>72.0</ele>
        <time>2019-01-14T00:57:08Z</time>
      </trkpt>
      <trkpt lat="41.738530" lon="2.952627">
        <ele>73.0</ele>
        <time>2019-01-14T00:57:11Z</time>
      </trkpt>
      <trkpt lat="41.738538" lon="2.952667">
        <ele>74.0</ele>
        <time>2019-01-14T00:57:12Z</time>
      </trkpt>
      <trkpt lat="41.738542" lon="2.952707">
        <ele>74.0</ele>
        <time>2019-01-14T00:57:12Z</time>
      </trkpt>
      <trkpt lat="41.738545" lon="2.952749">
        <ele>74.0</ele>
        <time>2019-01-14T00:57:13Z</time>
      </trkpt>
      <trkpt lat="41.738552" lon="2.952791">
        <ele>74.0</ele>
        <time>2019-01-14T00:57:13Z</time>
      </trkpt>
      <trkpt lat="41.738564" lon="2.952871">
        <ele>75.0</ele>
        <time>2019-01-14T00:57:14Z</time>
      </trkpt>
      <trkpt lat="41.738591" lon="2.953063">
        <ele>75.0</ele>
        <time>2019-01-14T00:57:17Z</time>
      </trkpt>
      <trkpt lat="41.738618" lon="2.953141">
        <ele>76.0</ele>
        <time>2019-01-14T00:57:18Z</time>
      </trkpt>
      <trkpt lat="41.738628" lon="2.953180">
        <ele>76.0</ele>
        <time>2019-01-14T00:57:18Z</time>
      </trkpt>
      <trkpt lat="41.738637" lon="2.953220">
        <ele>76.0</ele>
        <time>2019-01-14T00:57:19Z</time>
      </trkpt>
      <trkpt lat="41.738648" lon="2.953258">
        <ele>76.0</ele>
        <time>2019-01-14T00:57:19Z</time>
      </trkpt>
      <trkpt lat="41.738656" lon="2.953297">
        <ele>76.0</ele>
        <time>2019-01-14T00:57:20Z</time>
      </trkpt>
      <trkpt lat="41.738709" lon="2.953438">
        <ele>77.0</ele>
        <time>2019-01-14T00:57:22Z</time>
      </trkpt>
      <trkpt lat="41.738722" lon="2.953481">
        <ele>77.0</ele>
        <time>2019-01-14T00:57:22Z</time>
      </trkpt>
      <trkpt lat="41.738730" lon="2.953525">
        <ele>77.0</ele>
        <time>2019-01-14T00:57:23Z</time>
      </trkpt>
      <trkpt lat="41.738741" lon="2.953568">
        <ele>77.0</ele>
        <time>2019-01-14T00:57:23Z</time>
      </trkpt>
      <trkpt lat="41.738750" lon="2.953615">
        <ele>78.0</ele>
        <time>2019-01-14T00:57:24Z</time>
      </trkpt>
      <trkpt lat="41.738752" lon="2.953782">
        <ele>78.0</ele>
        <time>2019-01-14T00:57:26Z</time>
      </trkpt>
      <trkpt lat="41.738750" lon="2.953864">
        <ele>79.0</ele>
        <time>2019-01-14T00:57:27Z</time>
      </trkpt>
      <trkpt lat="41.738749" lon="2.953905">
        <ele>79.0</ele>
        <time>2019-01-14T00:57:27Z</time>
      </trkpt>
      <trkpt lat="41.738751" lon="2.953949">
        <ele>79.0</ele>
        <time>2019-01-14T00:57:28Z</time>
      </trkpt>
      <trkpt lat="41.738748" lon="2.953990">
        <ele>79.0</ele>
        <time>2019-01-14T00:57:28Z</time>
      </trkpt>
      <trkpt lat="41.738751" lon="2.954033">
        <ele>80.0</ele>
        <time>2019-01-14T00:57:29Z</time>
      </trkpt>
      <trkpt lat="41.738757" lon="2.954075">
        <ele>80.0</ele>
        <time>2019-01-14T00:57:29Z</time>
      </trkpt>
      <trkpt lat="41.738761" lon="2.954294">
        <ele>81.0</ele>
        <time>2019-01-14T00:57:32Z</time>
      </trkpt>
      <trkpt lat="41.738764" lon="2.954338">
        <ele>81.0</ele>
        <time>2019-01-14T00:57:33Z</time>
      </trkpt>
      <trkpt lat="41.738770" lon="2.954380">
        <ele>81.0</ele>
        <time>2019-01-14T00:57:33Z</time>
      </trkpt>
      <trkpt lat="41.738779" lon="2.954424">
        <ele>82.0</ele>
        <time>2019-01-14T00:57:34Z</time>
      </trkpt>
      <trkpt lat="41.738788" lon="2.954465">
        <ele>82.0</ele>
        <time>2019-01-14T00:57:34Z</time>
      </trkpt>
      <trkpt lat="41.738793" lon="2.954508">
        <ele>82.0</ele>
        <time>2019-01-14T00:57:35Z</time>
      </trkpt>
      <trkpt lat="41.738790" lon="2.954554">
        <ele>82.0</ele>
        <time>2019-01-14T00:57:35Z</time>
      </trkpt>
      <trkpt lat="41.738773" lon="2.954816">
        <ele>84.0</ele>
        <time>2019-01-14T00:57:38Z</time>
      </trkpt>
      <trkpt lat="41.738771" lon="2.954862">
        <ele>84.0</ele>
        <time>2019-01-14T00:57:39Z</time>
      </trkpt>
      <trkpt lat="41.738770" lon="2.954909">
        <ele>84.0</ele>
        <time>2019-01-14T00:57:39Z</time>
      </trkpt>
      <trkpt lat="41.738770" lon="2.954953">
        <ele>83.0</ele>
        <time>2019-01-14T00:57:40Z</time>
      </trkpt>
      <trkpt lat="41.738769" lon="2.955001">
        <ele>83.0</ele>
        <time>2019-01-14T00:57:41Z</time>
      </trkpt>
      <trkpt lat="41.738762" lon="2.955193">
        <ele>80.0</ele>
        <time>2019-01-14T00:57:43Z</time>
      </trkpt>
      <trkpt lat="41.738754" lon="2.955281">
        <ele>79.0</ele>
        <time>2019-01-14T00:57:44Z</time>
      </trkpt>
      <trkpt lat="41.738748" lon="2.955323">
        <ele>78.0</ele>
        <time>2019-01-14T00:57:44Z</time>
      </trkpt>
      <trkpt lat="41.738746" lon="2.955363">
        <ele>78.0</ele>
        <time>2019-01-14T00:57:45Z</time>
      </trkpt>
      <trkpt lat="41.738744" lon="2.955406">
        <ele>77.0</ele>
        <time>2019-01-14T00:57:45Z</time>
      </trkpt>
      <trkpt lat="41.738740" lon="2.955451">
        <ele>77.0</ele>
        <time>2019-01-14T00:57:46Z</time>
      </trkpt>
      <trkpt lat="41.738731" lon="2.955542">
        <ele>75.0</ele>
        <time>2019-01-14T00:57:47Z</time>
      </trkpt>
      <trkpt lat="41.738678" lon="2.955801">
        <ele>71.0</ele>
        <time>2019-01-14T00:57:50Z</time>
      </trkpt>
      <trkpt lat="41.738670" lon="2.955844">
        <ele>71.0</ele>
        <time>2019-01-14T00:57:51Z</time>
      </trkpt>
      <trkpt lat="41.738661" lon="2.955888">
        <ele>70.0</ele>
        <time>2019-01-14T00:57:51Z</time>
      </trkpt>
      <trkpt lat="41.738657" lon="2.955931">
        <ele>69.0</ele>
        <time>2019-01-14T00:57:52Z</time>
      </trkpt>
      <trkpt lat="41.738652" lon="2.955974">
        <ele>69.0</ele>
        <time>2019-01-14T00:57:52Z</time>
      </trkpt>
      <trkpt lat="41.738623" lon="2.956156">
        <ele>67.0</ele>
        <time>2019-01-14T00:57:55Z</time>
      </trkpt>
      <trkpt lat="41.738607" lon="2.956289">
        <ele>65.0</ele>
        <time>2019-01-14T00:57:56Z</time>
      </trkpt>
      <trkpt lat="41.738599" lon="2.956335">
        <ele>64.0</ele>
        <time>2019-01-14T00:57:57Z</time>
      </trkpt>
      <trkpt lat="41.738593" lon="2.956379">
        <ele>64.0</ele>
        <time>2019-01-14T00:57:57Z</time>
      </trkpt>
      <trkpt lat="41.738590" lon="2.956426">
        <ele>63.0</ele>
        <time>2019-01-14T00:57:58Z</time>
      </trkpt>
      <trkpt lat="41.738591" lon="2.956473">
        <ele>62.0</ele>
        <time>2019-01-14T00:57:58Z</time>
      </trkpt>
      <trkpt lat="41.738625" lon="2.956602">
        <ele>61.0</ele>
        <time>2019-01-14T00:58:00Z</time>
      </trkpt>
      <trkpt lat="41.738710" lon="2.956682">
        <ele>62.0</ele>
        <time>2019-01-14T00:58:02Z</time>
      </trkpt>
      <trkpt lat="41.738748" lon="2.956697">
        <ele>63.0</ele>
        <time>2019-01-14T00:58:02Z</time>
      </trkpt>
      <trkpt lat="41.738782" lon="2.956712">
        <ele>64.0</ele>
        <time>2019-01-14T00:58:03Z</time>
      </trkpt>
      <trkpt lat="41.738813" lon="2.956724">
        <ele>64.0</ele>
        <time>2019-01-14T00:58:03Z</time>
      </trkpt>
      <trkpt lat="41.738847" lon="2.956728">
        <ele>64.0</ele>
        <time>2019-01-14T00:58:04Z</time>
      </trkpt>
      <trkpt lat="41.738923" lon="2.956716">
        <ele>66.0</ele>
        <time>2019-01-14T00:58:05Z</time>
      </trkpt>
      <trkpt lat="41.739104" lon="2.956625">
        <ele>69.0</ele>
        <time>2019-01-14T00:58:08Z</time>
      </trkpt>
      <trkpt lat="41.739293" lon="2.956516">
        <ele>72.0</ele>
        <time>2019-01-14T00:58:12Z</time>
      </trkpt>
      <trkpt lat="41.739332" lon="2.956506">
        <ele>72.0</ele>
        <time>2019-01-14T00:58:12Z</time>
      </trkpt>
      <trkpt lat="41.739434" lon="2.956510">
        <ele>74.0</ele>
        <time>2019-01-14T00:58:14Z</time>
      </trkpt>
      <trkpt lat="41.739467" lon="2.956537">
        <ele>74.0</ele>
        <time>2019-01-14T00:58:14Z</time>
      </trkpt>
      <trkpt lat="41.739596" lon="2.956703">
        <ele>77.0</ele>
        <time>2019-01-14T00:58:17Z</time>
      </trkpt>
      <trkpt lat="41.739623" lon="2.956735">
        <ele>77.0</ele>
        <time>2019-01-14T00:58:18Z</time>
      </trkpt>
      <trkpt lat="41.739653" lon="2.956766">
        <ele>78.0</ele>
        <time>2019-01-14T00:58:18Z</time>
      </trkpt>
      <trkpt lat="41.739682" lon="2.956796">
        <ele>78.0</ele>
        <time>2019-01-14T00:58:19Z</time>
      </trkpt>
      <trkpt lat="41.739714" lon="2.956826">
        <ele>79.0</ele>
        <time>2019-01-14T00:58:20Z</time>
      </trkpt>
      <trkpt lat="41.739808" lon="2.956909">
        <ele>80.0</ele>
        <time>2019-01-14T00:58:22Z</time>
      </trkpt>
      <trkpt lat="41.740012" lon="2.957018">
        <ele>82.0</ele>
        <time>2019-01-14T00:58:25Z</time>
      </trkpt>
      <trkpt lat="41.740144" lon="2.956988">
        <ele>84.0</ele>
        <time>2019-01-14T00:58:27Z</time>
      </trkpt>
      <trkpt lat="41.740226" lon="2.956938">
        <ele>85.0</ele>
        <time>2019-01-14T00:58:29Z</time>
      </trkpt>
      <trkpt lat="41.740334" lon="2.956830">
        <ele>87.0</ele>
        <time>2019-01-14T00:58:31Z</time>
      </trkpt>
      <trkpt lat="41.740429" lon="2.956711">
        <ele>88.0</ele>
        <time>2019-01-14T00:58:33Z</time>
      </trkpt>
      <trkpt lat="41.740650" lon="2.956462">
        <ele>91.0</ele>
        <time>2019-01-14T00:58:37Z</time>
      </trkpt>
      <trkpt lat="41.740771" lon="2.956418">
        <ele>92.0</ele>
        <time>2019-01-14T00:58:39Z</time>
      </trkpt>
      <trkpt lat="41.740813" lon="2.956401">
        <ele>93.0</ele>
        <time>2019-01-14T00:58:40Z</time>
      </trkpt>
      <trkpt lat="41.740853" lon="2.956384">
        <ele>93.0</ele>
        <time>2019-01-14T00:58:41Z</time>
      </trkpt>
      <trkpt lat="41.740891" lon="2.956369">
        <ele>94.0</ele>
        <time>2019-01-14T00:58:41Z</time>
      </trkpt>
      <trkpt lat="41.740932" lon="2.956351">
        <ele>94.0</ele>
        <time>2019-01-14T00:58:42Z</time>
      </trkpt>
      <trkpt lat="41.741201" lon="2.956242">
        <ele>97.0</ele>
        <time>2019-01-14T00:58:47Z</time>
      </trkpt>
      <trkpt lat="41.741428" lon="2.956166">
        <ele>100.0</ele>
        <time>2019-01-14T00:58:50Z</time>
      </trkpt>
      <trkpt lat="41.741472" lon="2.956175">
        <ele>100.0</ele>
        <time>2019-01-14T00:58:51Z</time>
      </trkpt>
      <trkpt lat="41.741587" lon="2.956297">
        <ele>102.0</ele>
        <time>2019-01-14T00:58:53Z</time>
      </trkpt>
      <trkpt lat="41.741622" lon="2.956341">
        <ele>103.0</ele>
        <time>2019-01-14T00:58:54Z</time>
      </trkpt>
      <trkpt lat="41.741646" lon="2.956394">
        <ele>103.0</ele>
        <time>2019-01-14T00:58:55Z</time>
      </trkpt>
      <trkpt lat="41.741665" lon="2.956456">
        <ele>103.0</ele>
        <time>2019-01-14T00:58:56Z</time>
      </trkpt>
      <trkpt lat="41.741681" lon="2.956516">
        <ele>103.0</ele>
        <time>2019-01-14T00:58:57Z</time>
      </trkpt>
      <trkpt lat="41.741698" lon="2.956576">
        <ele>103.0</ele>
        <time>2019-01-14T00:58:57Z</time>
      </trkpt>
      <trkpt lat="41.741771" lon="2.956962">
        <ele>103.0</ele>
        <time>2019-01-14T00:59:02Z</time>
      </trkpt>
      <trkpt lat="41.741718" lon="2.957143">
        <ele>104.0</ele>
        <time>2019-01-14T00:59:04Z</time>
      </trkpt>
      <trkpt lat="41.741679" lon="2.957317">
        <ele>104.0</ele>
        <time>2019-01-14T00:59:07Z</time>
      </trkpt>
      <trkpt lat="41.741672" lon="2.957374">
        <ele>104.0</ele>
        <time>2019-01-14T00:59:07Z</time>
      </trkpt>
      <trkpt lat="41.741671" lon="2.957433">
        <ele>104.0</ele>
        <time>2019-01-14T00:59:08Z</time>
      </trkpt>
      <trkpt lat="41.741673" lon="2.957492">
        <ele>104.0</ele>
        <time>2019-01-14T00:59:09Z</time>
      </trkpt>
      <trkpt lat="41.741678" lon="2.957552">
        <ele>104.0</ele>
        <time>2019-01-14T00:59:09Z</time>
      </trkpt>
      <trkpt lat="41.741686" lon="2.957614">
        <ele>104.0</ele>
        <time>2019-01-14T00:59:10Z</time>
      </trkpt>
      <trkpt lat="41.741689" lon="2.957849">
        <ele>104.0</ele>
        <time>2019-01-14T00:59:13Z</time>
      </trkpt>
      <trkpt lat="41.741645" lon="2.958015">
        <ele>104.0</ele>
        <time>2019-01-14T00:59:15Z</time>
      </trkpt>
      <trkpt lat="41.741623" lon="2.958127">
        <ele>104.0</ele>
        <time>2019-01-14T00:59:16Z</time>
      </trkpt>
      <trkpt lat="41.741617" lon="2.958242">
        <ele>104.0</ele>
        <time>2019-01-14T00:59:18Z</time>
      </trkpt>
      <trkpt lat="41.741624" lon="2.958302">
        <ele>104.0</ele>
        <time>2019-01-14T00:59:19Z</time>
      </trkpt>
      <trkpt lat="41.741636" lon="2.958360">
        <ele>104.0</ele>
        <time>2019-01-14T00:59:19Z</time>
      </trkpt>
      <trkpt lat="41.741647" lon="2.958422">
        <ele>105.0</ele>
        <time>2019-01-14T00:59:20Z</time>
      </trkpt>
      <trkpt lat="41.741686" lon="2.958586">
        <ele>105.0</ele>
        <time>2019-01-14T00:59:22Z</time>
      </trkpt>
      <trkpt lat="41.741702" lon="2.958633">
        <ele>105.0</ele>
        <time>2019-01-14T00:59:23Z</time>
      </trkpt>
      <trkpt lat="41.741723" lon="2.958677">
        <ele>105.0</ele>
        <time>2019-01-14T00:59:23Z</time>
      </trkpt>
      <trkpt lat="41.741754" lon="2.958709">
        <ele>105.0</ele>
        <time>2019-01-14T00:59:24Z</time>
      </trkpt>
      <trkpt lat="41.741791" lon="2.958730">
        <ele>105.0</ele>
        <time>2019-01-14T00:59:25Z</time>
      </trkpt>
      <trkpt lat="41.741919" lon="2.958771">
        <ele>105.0</ele>
        <time>2019-01-14T00:59:27Z</time>
      </trkpt>
      <trkpt lat="41.742191" lon="2.958824">
        <ele>105.0</ele>
        <time>2019-01-14T00:59:31Z</time>
      </trkpt>
      <trkpt lat="41.742236" lon="2.958816">
        <ele>105.0</ele>
        <time>2019-01-14T00:59:32Z</time>
      </trkpt>
      <trkpt lat="41.742403" lon="2.958702">
        <ele>105.0</ele>
        <time>2019-01-14T00:59:35Z</time>
      </trkpt>
      <trkpt lat="41.742651" lon="2.958487">
        <ele>105.0</ele>
        <time>2019-01-14T00:59:40Z</time>
      </trkpt>
      <trkpt lat="41.742701" lon="2.958477">
        <ele>105.0</ele>
        <time>2019-01-14T00:59:40Z</time>
      </trkpt>
      <trkpt lat="41.742835" lon="2.958547">
        <ele>105.0</ele>
        <time>2019-01-14T00:59:43Z</time>
      </trkpt>
      <trkpt lat="41.742937" lon="2.958732">
        <ele>106.0</ele>
        <time>2019-01-14T00:59:45Z</time>
      </trkpt>
      <trkpt lat="41.742954" lon="2.958781">
        <ele>106.0</ele>
        <time>2019-01-14T00:59:46Z</time>
      </trkpt>
      <trkpt lat="41.742966" lon="2.958832">
        <ele>106.0</ele>
        <time>2019-01-14T00:59:47Z</time>
      </trkpt>
      <trkpt lat="41.742980" lon="2.958889">
        <ele>106.0</ele>
        <time>2019-01-14T00:59:47Z</time>
      </trkpt>
      <trkpt lat="41.742986" lon="2.958941">
        <ele>106.0</ele>
        <time>2019-01-14T00:59:48Z</time>
      </trkpt>
      <trkpt lat="41.742990" lon="2.958997">
        <ele>106.0</ele>
        <time>2019-01-14T00:59:49Z</time>
      </trkpt>
      <trkpt lat="41.743021" lon="2.959227">
        <ele>106.0</ele>
        <time>2019-01-14T00:59:51Z</time>
      </trkpt>
      <trkpt lat="41.743029" lon="2.959286">
        <ele>106.0</ele>
        <time>2019-01-14T00:59:52Z</time>
      </trkpt>
      <trkpt lat="41.743041" lon="2.959400">
        <ele>106.0</ele>
        <time>2019-01-14T00:59:54Z</time>
      </trkpt>
      <trkpt lat="41.743045" lon="2.959452">
        <ele>106.0</ele>
        <time>2019-01-14T00:59:54Z</time>
      </trkpt>
      <trkpt lat="41.743045" lon="2.959507">
        <ele>106.0</ele>
        <time>2019-01-14T00:59:55Z</time>
      </trkpt>
      <trkpt lat="41.743044" lon="2.959561">
        <ele>106.0</ele>
        <time>2019-01-14T00:59:56Z</time>
      </trkpt>
      <trkpt lat="41.743045" lon="2.959614">
        <ele>106.0</ele>
        <time>2019-01-14T00:59:56Z</time>
      </trkpt>
      <trkpt lat="41.743035" lon="2.959941">
        <ele>106.0</ele>
        <time>2019-01-14T01:00:00Z</time>
      </trkpt>
      <trkpt lat="41.743043" lon="2.960104">
        <ele>106.0</ele>
        <time>2019-01-14T01:00:02Z</time>
      </trkpt>
      <trkpt lat="41.743071" lon="2.960261">
        <ele>106.0</ele>
        <time>2019-01-14T01:00:04Z</time>
      </trkpt>
      <trkpt lat="41.743087" lon="2.960308">
        <ele>106.0</ele>
        <time>2019-01-14T01:00:05Z</time>
      </trkpt>
      <trkpt lat="41.743103" lon="2.960353">
        <ele>106.0</ele>
        <time>2019-01-14T01:00:05Z</time>
      </trkpt>
      <trkpt lat="41.743124" lon="2.960399">
        <ele>106.0</ele>
        <time>2019-01-14T01:00:06Z</time>
      </trkpt>
      <trkpt lat="41.743148" lon="2.960446">
        <ele>106.0</ele>
        <time>2019-01-14T01:00:06Z</time>
      </trkpt>
      <trkpt lat="41.743194" lon="2.960529">
        <ele>106.0</ele>
        <time>2019-01-14T01:00:08Z</time>
      </trkpt>
      <trkpt lat="41.743298" lon="2.960671">
        <ele>107.0</ele>
        <time>2019-01-14T01:00:10Z</time>
      </trkpt>
      <trkpt lat="41.743326" lon="2.960708">
        <ele>107.0</ele>
        <time>2019-01-14T01:00:11Z</time>
      </trkpt>
      <trkpt lat="41.743352" lon="2.960745">
        <ele>107.0</ele>
        <time>2019-01-14T01:00:11Z</time>
      </trkpt>
      <trkpt lat="41.743382" lon="2.960781">
        <ele>107.0</ele>
        <time>2019-01-14T01:00:12Z</time>
      </trkpt>
      <trkpt lat="41.743410" lon="2.960814">
        <ele>107.0</ele>
        <time>2019-01-14T01:00:13Z</time>
      </trkpt>
      <trkpt lat="41.743594" lon="2.960961">
        <ele>107.0</ele>
        <time>2019-01-14T01:00:16Z</time>
      </trkpt>
      <trkpt lat="41.743807" lon="2.960973">
        <ele>107.0</ele>
        <time>2019-01-14T01:00:19Z</time>
      </trkpt>
      <trkpt lat="41.744031" lon="2.960908">
        <ele>107.0</ele>
        <time>2019-01-14T01:00:23Z</time>
      </trkpt>
      <trkpt lat="41.744074" lon="2.960901">
        <ele>107.0</ele>
        <time>2019-01-14T01:00:24Z</time>
      </trkpt>
      <trkpt lat="41.744187" lon="2.960866">
        <ele>107.0</ele>
        <time>2019-01-14T01:00:26Z</time>
      </trkpt>
      <trkpt lat="41.744299" lon="2.960830">
        <ele>108.0</ele>
        <time>2019-01-14T01:00:27Z</time>
      </trkpt>
      <trkpt lat="41.744334" lon="2.960826">
        <ele>108.0</ele>
        <time>2019-01-14T01:00:28Z</time>
      </trkpt>
      <trkpt lat="41.744372" lon="2.960828">
        <ele>108.0</ele>
        <time>2019-01-14T01:00:29Z</time>
      </trkpt>
      <trkpt lat="41.744411" lon="2.960835">
        <ele>108.0</ele>
        <time>2019-01-14T01:00:29Z</time>
      </trkpt>
      <trkpt lat="41.744446" lon="2.960852">
        <ele>108.0</ele>
        <time>2019-01-14T01:00:30Z</time>
      </trkpt>
      <trkpt lat="41.744541" lon="2.960949">
        <ele>108.0</ele>
        <time>2019-01-14T01:00:32Z</time>
      </trkpt>
      <trkpt lat="41.744757" lon="2.961172">
        <ele>108.0</ele>
        <time>2019-01-14T01:00:36Z</time>
      </trkpt>
      <trkpt lat="41.744812" lon="2.961299">
        <ele>108.0</ele>
        <time>2019-01-14T01:00:38Z</time>
      </trkpt>
      <trkpt lat="41.744831" lon="2.961338">
        <ele>108.0</ele>
        <time>2019-01-14T01:00:38Z</time>
      </trkpt>
      <trkpt lat="41.744849" lon="2.961379">
        <ele>108.0</ele>
        <time>2019-01-14T01:00:39Z</time>
      </trkpt>
      <trkpt lat="41.744864" lon="2.961421">
        <ele>108.0</ele>
        <time>2019-01-14T01:00:40Z</time>
      </trkpt>
      <trkpt lat="41.744880" lon="2.961460">
        <ele>108.0</ele>
        <time>2019-01-14T01:00:40Z</time>
      </trkpt>
      <trkpt lat="41.745019" lon="2.961738">
        <ele>109.0</ele>
        <time>2019-01-14T01:00:44Z</time>
      </trkpt>
      <trkpt lat="41.745045" lon="2.961775">
        <ele>109.0</ele>
        <time>2019-01-14T01:00:45Z</time>
      </trkpt>
      <trkpt lat="41.745068" lon="2.961815">
        <ele>109.0</ele>
        <time>2019-01-14T01:00:45Z</time>
      </trkpt>
      <trkpt lat="41.745090" lon="2.961852">
        <ele>109.0</ele>
        <time>2019-01-14T01:00:46Z</time>
      </trkpt>
      <trkpt lat="41.745111" lon="2.961887">
        <ele>109.0</ele>
        <time>2019-01-14T01:00:46Z</time>
      </trkpt>
      <trkpt lat="41.745168" lon="2.961958">
        <ele>109.0</ele>
        <time>2019-01-14T01:00:48Z</time>
      </trkpt>
      <trkpt lat="41.745351" lon="2.962201">
        <ele>109.0</ele>
        <time>2019-01-14T01:00:52Z</time>
      </trkpt>
      <trkpt lat="41.745375" lon="2.962232">
        <ele>109.0</ele>
        <time>2019-01-14T01:00:52Z</time>
      </trkpt>
      <trkpt lat="41.745406" lon="2.962270">
        <ele>109.0</ele>
        <time>2019-01-14T01:00:53Z</time>
      </trkpt>
      <trkpt lat="41.745435" lon="2.962304">
        <ele>109.0</ele>
        <time>2019-01-14T01:00:54Z</time>
      </trkpt>
      <trkpt lat="41.745466" lon="2.962341">
        <ele>109.0</ele>
        <time>2019-01-14T01:00:54Z</time>
      </trkpt>
      <trkpt lat="41.745549" lon="2.962453">
        <ele>109.0</ele>
        <time>2019-01-14T01:00:56Z</time>
      </trkpt>
      <trkpt lat="41.745678" lon="2.962624">
        <ele>108.0</ele>
        <time>2019-01-14T01:00:59Z</time>
      </trkpt>
      <trkpt lat="41.745872" lon="2.962839">
        <ele>105.0</ele>
        <time>2019-01-14T01:01:03Z</time>
      </trkpt>
      <trkpt lat="41.746018" lon="2.963007">
        <ele>105.0</ele>
        <time>2019-01-14T01:01:06Z</time>
      </trkpt>
      <trkpt lat="41.746067" lon="2.963016">
        <ele>105.0</ele>
        <time>2019-01-14T01:01:07Z</time>
      </trkpt>
      <trkpt lat="41.746216" lon="2.962918">
        <ele>105.0</ele>
        <time>2019-01-14T01:01:10Z</time>
      </trkpt>
      <trkpt lat="41.746303" lon="2.962789">
        <ele>105.0</ele>
        <time>2019-01-14T01:01:12Z</time>
      </trkpt>
      <trkpt lat="41.746374" lon="2.962658">
        <ele>105.0</ele>
        <time>2019-01-14T01:01:14Z</time>
      </trkpt>
      <trkpt lat="41.746405" lon="2.962588">
        <ele>105.0</ele>
        <time>2019-01-14T01:01:15Z</time>
      </trkpt>
      <trkpt lat="41.746445" lon="2.962516">
        <ele>105.0</ele>
        <time>2019-01-14T01:01:16Z</time>
      </trkpt>
      <trkpt lat="41.746487" lon="2.962445">
        <ele>105.0</ele>
        <time>2019-01-14T01:01:17Z</time>
      </trkpt>
      <trkpt lat="41.746534" lon="2.962371">
        <ele>105.0</ele>
        <time>2019-01-14T01:01:18Z</time>
      </trkpt>
      <trkpt lat="41.746574" lon="2.962294">
        <ele>105.0</ele>
        <time>2019-01-14T01:01:19Z</time>
      </trkpt>
      <trkpt lat="41.746611" lon="2.962213">
        <ele>105.0</ele>
        <time>2019-01-14T01:01:20Z</time>
      </trkpt>
      <trkpt lat="41.746647" lon="2.962130">
        <ele>104.0</ele>
        <time>2019-01-14T01:01:21Z</time>
      </trkpt>
      <trkpt lat="41.746683" lon="2.962046">
        <ele>104.0</ele>
        <time>2019-01-14T01:01:22Z</time>
      </trkpt>
      <trkpt lat="41.746721" lon="2.961978">
        <ele>104.0</ele>
        <time>2019-01-14T01:01:23Z</time>
      </trkpt>
      <trkpt lat="41.746775" lon="2.961937">
        <ele>103.0</ele>
        <time>2019-01-14T01:01:24Z</time>
      </trkpt>
      <trkpt lat="41.746843" lon="2.961929">
        <ele>103.0</ele>
        <time>2019-01-14T01:01:26Z</time>
      </trkpt>
      <trkpt lat="41.746916" lon="2.961941">
        <ele>103.0</ele>
        <time>2019-01-14T01:01:27Z</time>
      </trkpt>
      <trkpt lat="41.746991" lon="2.961954">
        <ele>102.0</ele>
        <time>2019-01-14T01:01:28Z</time>
      </trkpt>
      <trkpt lat="41.747066" lon="2.961971">
        <ele>102.0</ele>
        <time>2019-01-14T01:01:29Z</time>
      </trkpt>
      <trkpt lat="41.747142" lon="2.961980">
        <ele>101.0</ele>
        <time>2019-01-14T01:01:30Z</time>
      </trkpt>
      <trkpt lat="41.747222" lon="2.961972">
        <ele>100.0</ele>
        <time>2019-01-14T01:01:32Z</time>
      </trkpt>
      <trkpt lat="41.747355" lon="2.961869">
        <ele>99.0</ele>
        <time>2019-01-14T01:01:34Z</time>
      </trkpt>
      <trkpt lat="41.747459" lon="2.961702">
        <ele>98.0</ele>
        <time>2019-01-14T01:01:37Z</time>
      </trkpt>
      <trkpt lat="41.747509" lon="2.961618">
        <ele>97.0</ele>
        <time>2019-01-14T01:01:38Z</time>
      </trkpt>
      <trkpt lat="41.747552" lon="2.961535">
        <ele>97.0</ele>
        <time>2019-01-14T01:01:39Z</time>
      </trkpt>
      <trkpt lat="41.747581" lon="2.961440">
        <ele>96.0</ele>
        <time>2019-01-14T01:01:40Z</time>
      </trkpt>
      <trkpt lat="41.747583" lon="2.961327">
        <ele>95.0</ele>
        <time>2019-01-14T01:01:42Z</time>
      </trkpt>
      <trkpt lat="41.747518" lon="2.961119">
        <ele>95.0</ele>
        <time>2019-01-14T01:01:44Z</time>
      </trkpt>
      <trkpt lat="41.747469" lon="2.961021">
        <ele>94.0</ele>
        <time>2019-01-14T01:01:46Z</time>
      </trkpt>
      <trkpt lat="41.747406" lon="2.960925">
        <ele>94.0</ele>
        <time>2019-01-14T01:01:47Z</time>
      </trkpt>
      <trkpt lat="41.747350" lon="2.960829">
        <ele>94.0</ele>
        <time>2019-01-14T01:01:49Z</time>
      </trkpt>
      <trkpt lat="41.747297" lon="2.960733">
        <ele>93.0</ele>
        <time>2019-01-14T01:01:50Z</time>
      </trkpt>
      <trkpt lat="41.747242" lon="2.960630">
        <ele>93.0</ele>
        <time>2019-01-14T01:01:52Z</time>
      </trkpt>
      <trkpt lat="41.747190" lon="2.960539">
        <ele>93.0</ele>
        <time>2019-01-14T01:01:53Z</time>
      </trkpt>
      <trkpt lat="41.747143" lon="2.960448">
        <ele>92.0</ele>
        <time>2019-01-14T01:01:55Z</time>
      </trkpt>
      <trkpt lat="41.747091" lon="2.960360">
        <ele>92.0</ele>
        <time>2019-01-14T01:01:56Z</time>
      </trkpt>
      <trkpt lat="41.747048" lon="2.960269">
        <ele>92.0</ele>
        <time>2019-01-14T01:01:57Z</time>
      </trkpt>
      <trkpt lat="41.747021" lon="2.960167">
        <ele>91.0</ele>
        <time>2019-01-14T01:01:58Z</time>
      </trkpt>
      <trkpt lat="41.747015" lon="2.960059">
        <ele>91.0</ele>
        <time>2019-01-14T01:02:00Z</time>
      </trkpt>
      <trkpt lat="41.747016" lon="2.959948">
        <ele>90.0</ele>
        <time>2019-01-14T01:02:01Z</time>
      </trkpt>
      <trkpt lat="41.747028" lon="2.959833">
        <ele>90.0</ele>
        <time>2019-01-14T01:02:02Z</time>
      </trkpt>
      <trkpt lat="41.747045" lon="2.959745">
        <ele>90.0</ele>
        <time>2019-01-14T01:02:04Z</time>
      </trkpt>
      <trkpt lat="41.747101" lon="2.959719">
        <ele>89.0</ele>
        <time>2019-01-14T01:02:04Z</time>
      </trkpt>
      <trkpt lat="41.747191" lon="2.959733">
        <ele>88.0</ele>
        <time>2019-01-14T01:02:06Z</time>
      </trkpt>
      <trkpt lat="41.747281" lon="2.959747">
        <ele>87.0</ele>
        <time>2019-01-14T01:02:07Z</time>
      </trkpt>
      <trkpt lat="41.747372" lon="2.959756">
        <ele>87.0</ele>
        <time>2019-01-14T01:02:09Z</time>
      </trkpt>
      <trkpt lat="41.747459" lon="2.959758">
        <ele>86.0</ele>
        <time>2019-01-14T01:02:10Z</time>
      </trkpt>
      <trkpt lat="41.747548" lon="2.959752">
        <ele>85.0</ele>
        <time>2019-01-14T01:02:12Z</time>
      </trkpt>
      <trkpt lat="41.747711" lon="2.959634">
        <ele>83.0</ele>
        <time>2019-01-14T01:02:15Z</time>
      </trkpt>
      <trkpt lat="41.747811" lon="2.959300">
        <ele>81.0</ele>
        <time>2019-01-14T01:02:19Z</time>
      </trkpt>
      <trkpt lat="41.747818" lon="2.959175">
        <ele>81.0</ele>
        <time>2019-01-14T01:02:20Z</time>
      </trkpt>
      <trkpt lat="41.747844" lon="2.959041">
        <ele>80.0</ele>
        <time>2019-01-14T01:02:22Z</time>
      </trkpt>
      <trkpt lat="41.747869" lon="2.958912">
        <ele>79.0</ele>
        <time>2019-01-14T01:02:24Z</time>
      </trkpt>
      <trkpt lat="41.747909" lon="2.958797">
        <ele>78.0</ele>
        <time>2019-01-14T01:02:25Z</time>
      </trkpt>
      <trkpt lat="41.747969" lon="2.958695">
        <ele>77.0</ele>
        <time>2019-01-14T01:02:27Z</time>
      </trkpt>
      <trkpt lat="41.748047" lon="2.958597">
        <ele>76.0</ele>
        <time>2019-01-14T01:02:28Z</time>
      </trkpt>
      <trkpt lat="41.748122" lon="2.958495">
        <ele>75.0</ele>
        <time>2019-01-14T01:02:30Z</time>
      </trkpt>
      <trkpt lat="41.748196" lon="2.958385">
        <ele>74.0</ele>
        <time>2019-01-14T01:02:32Z</time>
      </trkpt>
      <trkpt lat="41.748260" lon="2.958266">
        <ele>73.0</ele>
        <time>2019-01-14T01:02:34Z</time>
      </trkpt>
      <trkpt lat="41.748295" lon="2.958130">
        <ele>73.0</ele>
        <time>2019-01-14T01:02:35Z</time>
      </trkpt>
      <trkpt lat="41.748319" lon="2.957987">
        <ele>72.0</ele>
        <time>2019-01-14T01:02:37Z</time>
      </trkpt>
      <trkpt lat="41.748333" lon="2.957839">
        <ele>72.0</ele>
        <time>2019-01-14T01:02:39Z</time>
      </trkpt>
      <trkpt lat="41.748335" lon="2.957695">
        <ele>71.0</ele>
        <time>2019-01-14T01:02:41Z</time>
      </trkpt>
      <trkpt lat="41.748329" lon="2.957556">
        <ele>71.0</ele>
        <time>2019-01-14T01:02:42Z</time>
      </trkpt>
      <trkpt lat="41.748337" lon="2.957409">
        <ele>70.0</ele>
        <time>2019-01-14T01:02:44Z</time>
      </trkpt>
      <trkpt lat="41.748393" lon="2.957268">
        <ele>70.0</ele>
        <time>2019-01-14T01:02:46Z</time>
      </trkpt>
      <trkpt lat="41.748475" lon="2.957157">
        <ele>70.0</ele>
        <time>2019-01-14T01:02:48Z</time>
      </trkpt>
      <trkpt lat="41.748566" lon="2.957051">
        <ele>70.0</ele>
        <time>2019-01-14T01:02:50Z</time>
      </trkpt>
      <trkpt lat="41.748652" lon="2.956960">
        <ele>70.0</ele>
        <time>2019-01-14T01:02:52Z</time>
      </trkpt>
      <trkpt lat="41.748729" lon="2.956860">
        <ele>70.0</ele>
        <time>2019-01-14T01:02:53Z</time>
      </trkpt>
      <trkpt lat="41.748799" lon="2.956755">
        <ele>70.0</ele>
        <time>2019-01-14T01:02:55Z</time>
      </trkpt>
      <trkpt lat="41.748870" lon="2.956662">
        <ele>70.0</ele>
        <time>2019-01-14T01:02:57Z</time>
      </trkpt>
      <trkpt lat="41.748958" lon="2.956597">
        <ele>70.0</ele>
        <time>2019-01-14T01:02:58Z</time>
      </trkpt>
      <trkpt lat="41.749052" lon="2.956549">
        <ele>70.0</ele>
        <time>2019-01-14T01:03:00Z</time>
      </trkpt>
      <trkpt lat="41.749150" lon="2.956525">
        <ele>69.0</ele>
        <time>2019-01-14T01:03:01Z</time>
      </trkpt>
      <trkpt lat="41.749254" lon="2.956579">
        <ele>69.0</ele>
        <time>2019-01-14T01:03:03Z</time>
      </trkpt>
      <trkpt lat="41.749345" lon="2.956647">
        <ele>69.0</ele>
        <time>2019-01-14T01:03:05Z</time>
      </trkpt>
      <trkpt lat="41.749378" lon="2.956765">
        <ele>69.0</ele>
        <time>2019-01-14T01:03:06Z</time>
      </trkpt>
      <trkpt lat="41.749368" lon="2.956900">
        <ele>69.0</ele>
        <time>2019-01-14T01:03:08Z</time>
      </trkpt>
      <trkpt lat="41.749379" lon="2.957008">
        <ele>69.0</ele>
        <time>2019-01-14T01:03:09Z</time>
      </trkpt>
      <trkpt lat="41.749412" lon="2.957083">
        <ele>69.0</ele>
        <time>2019-01-14T01:03:10Z</time>
      </trkpt>
      <trkpt lat="41.749422" lon="2.957188">
        <ele>69.0</ele>
        <time>2019-01-14T01:03:11Z</time>
      </trkpt>
      <trkpt lat="41.749458" lon="2.957268">
        <ele>69.0</ele>
        <time>2019-01-14T01:03:13Z</time>
      </trkpt>
      <trkpt lat="41.749506" lon="2.957317">
        <ele>69.0</ele>
        <time>2019-01-14T01:03:14Z</time>
      </trkpt>
      <trkpt lat="41.749557" lon="2.957348">
        <ele>70.0</ele>
        <time>2019-01-14T01:03:14Z</time>
      </trkpt>
      <trkpt lat="41.749611" lon="2.957358">
        <ele>70.0</ele>
        <time>2019-01-14T01:03:15Z</time>
      </trkpt>
      <trkpt lat="41.749664" lon="2.957357">
        <ele>70.0</ele>
        <time>2019-01-14T01:03:16Z</time>
      </trkpt>
      <trkpt lat="41.749716" lon="2.957340">
        <ele>70.0</ele>
        <time>2019-01-14T01:03:17Z</time>
      </trkpt>
      <trkpt lat="41.749883" lon="2.957272">
        <ele>71.0</ele>
        <time>2019-01-14T01:03:20Z</time>
      </trkpt>
      <trkpt lat="41.750120" lon="2.957205">
        <ele>71.0</ele>
        <time>2019-01-14T01:03:24Z</time>
      </trkpt>
      <trkpt lat="41.750224" lon="2.957344">
        <ele>72.0</ele>
        <time>2019-01-14T01:03:26Z</time>
      </trkpt>
      <trkpt lat="41.750261" lon="2.957422">
        <ele>72.0</ele>
        <time>2019-01-14T01:03:27Z</time>
      </trkpt>
      <trkpt lat="41.750255" lon="2.957511">
        <ele>72.0</ele>
        <time>2019-01-14T01:03:28Z</time>
      </trkpt>
      <trkpt lat="41.750234" lon="2.957589">
        <ele>72.0</ele>
        <time>2019-01-14T01:03:29Z</time>
      </trkpt>
      <trkpt lat="41.750099" lon="2.957748">
        <ele>73.0</ele>
        <time>2019-01-14T01:03:32Z</time>
      </trkpt>
      <trkpt lat="41.749995" lon="2.957837">
        <ele>74.0</ele>
        <time>2019-01-14T01:03:34Z</time>
      </trkpt>
      <trkpt lat="41.749945" lon="2.957872">
        <ele>74.0</ele>
        <time>2019-01-14T01:03:35Z</time>
      </trkpt>
      <trkpt lat="41.749895" lon="2.957902">
        <ele>75.0</ele>
        <time>2019-01-14T01:03:36Z</time>
      </trkpt>
      <trkpt lat="41.749844" lon="2.957923">
        <ele>75.0</ele>
        <time>2019-01-14T01:03:37Z</time>
      </trkpt>
      <trkpt lat="41.749799" lon="2.957946">
        <ele>75.0</ele>
        <time>2019-01-14T01:03:37Z</time>
      </trkpt>
      <trkpt lat="41.749764" lon="2.957972">
        <ele>76.0</ele>
        <time>2019-01-14T01:03:38Z</time>
      </trkpt>
      <trkpt lat="41.749732" lon="2.958008">
        <ele>76.0</ele>
        <time>2019-01-14T01:03:39Z</time>
      </trkpt>
      <trkpt lat="41.749704" lon="2.958053">
        <ele>76.0</ele>
        <time>2019-01-14T01:03:39Z</time>
      </trkpt>
      <trkpt lat="41.749610" lon="2.958357">
        <ele>78.0</ele>
        <time>2019-01-14T01:03:43Z</time>
      </trkpt>
      <trkpt lat="41.749542" lon="2.958695">
        <ele>79.0</ele>
        <time>2019-01-14T01:03:48Z</time>
      </trkpt>
      <trkpt lat="41.749531" lon="2.958848">
        <ele>80.0</ele>
        <time>2019-01-14T01:03:49Z</time>
      </trkpt>
      <trkpt lat="41.749531" lon="2.958896">
        <ele>80.0</ele>
        <time>2019-01-14T01:03:50Z</time>
      </trkpt>
      <trkpt lat="41.749530" lon="2.958952">
        <ele>80.0</ele>
        <time>2019-01-14T01:03:51Z</time>
      </trkpt>
      <trkpt lat="41.749530" lon="2.959002">
        <ele>80.0</ele>
        <time>2019-01-14T01:03:51Z</time>
      </trkpt>
      <trkpt lat="41.749536" lon="2.959055">
        <ele>81.0</ele>
        <time>2019-01-14T01:03:52Z</time>
      </trkpt>
      <trkpt lat="41.749543" lon="2.959154">
        <ele>81.0</ele>
        <time>2019-01-14T01:03:53Z</time>
      </trkpt>
      <trkpt lat="41.749568" lon="2.959250">
        <ele>82.0</ele>
        <time>2019-01-14T01:03:54Z</time>
      </trkpt>
      <trkpt lat="41.749582" lon="2.959303">
        <ele>82.0</ele>
        <time>2019-01-14T01:03:55Z</time>
      </trkpt>
      <trkpt lat="41.749591" lon="2.959355">
        <ele>83.0</ele>
        <time>2019-01-14T01:03:56Z</time>
      </trkpt>
      <trkpt lat="41.749600" lon="2.959409">
        <ele>83.0</ele>
        <time>2019-01-14T01:03:56Z</time>
      </trkpt>
      <trkpt lat="41.749614" lon="2.959460">
        <ele>83.0</ele>
        <time>2019-01-14T01:03:57Z</time>
      </trkpt>
      <trkpt lat="41.749625" lon="2.959512">
        <ele>84.0</ele>
        <time>2019-01-14T01:03:58Z</time>
      </trkpt>
      <trkpt lat="41.749656" lon="2.959604">
        <ele>85.0</ele>
        <time>2019-01-14T01:03:59Z</time>
      </trkpt>
      <trkpt lat="41.749730" lon="2.959752">
        <ele>86.0</ele>
        <time>2019-01-14T01:04:01Z</time>
      </trkpt>
      <trkpt lat="41.749784" lon="2.959809">
        <ele>87.0</ele>
        <time>2019-01-14T01:04:02Z</time>
      </trkpt>
      <trkpt lat="41.749819" lon="2.959829">
        <ele>87.0</ele>
        <time>2019-01-14T01:04:03Z</time>
      </trkpt>
      <trkpt lat="41.749844" lon="2.959850">
        <ele>87.0</ele>
        <time>2019-01-14T01:04:03Z</time>
      </trkpt>
      <trkpt lat="41.749879" lon="2.959865">
        <ele>88.0</ele>
        <time>2019-01-14T01:04:04Z</time>
      </trkpt>
      <trkpt lat="41.749921" lon="2.959874">
        <ele>88.0</ele>
        <time>2019-01-14T01:04:04Z</time>
      </trkpt>
      <trkpt lat="41.750039" lon="2.959891">
        <ele>89.0</ele>
        <time>2019-01-14T01:04:06Z</time>
      </trkpt>
      <trkpt lat="41.750074" lon="2.959894">
        <ele>89.0</ele>
        <time>2019-01-14T01:04:07Z</time>
      </trkpt>
      <trkpt lat="41.750112" lon="2.959901">
        <ele>89.0</ele>
        <time>2019-01-14T01:04:07Z</time>
      </trkpt>
      <trkpt lat="41.750147" lon="2.959917">
        <ele>90.0</ele>
        <time>2019-01-14T01:04:08Z</time>
      </trkpt>
      <trkpt lat="41.750179" lon="2.959934">
        <ele>90.0</ele>
        <time>2019-01-14T01:04:09Z</time>
      </trkpt>
      <trkpt lat="41.750258" lon="2.960019">
        <ele>91.0</ele>
        <time>2019-01-14T01:04:10Z</time>
      </trkpt>
      <trkpt lat="41.750295" lon="2.960083">
        <ele>91.0</ele>
        <time>2019-01-14T01:04:11Z</time>
      </trkpt>
      <trkpt lat="41.750314" lon="2.960120">
        <ele>91.0</ele>
        <time>2019-01-14T01:04:12Z</time>
      </trkpt>
      <trkpt lat="41.750336" lon="2.960158">
        <ele>91.0</ele>
        <time>2019-01-14T01:04:12Z</time>
      </trkpt>
      <trkpt lat="41.750359" lon="2.960191">
        <ele>92.0</ele>
        <time>2019-01-14T01:04:13Z</time>
      </trkpt>
      <trkpt lat="41.750380" lon="2.960223">
        <ele>92.0</ele>
        <time>2019-01-14T01:04:13Z</time>
      </trkpt>
      <trkpt lat="41.750401" lon="2.960257">
        <ele>92.0</ele>
        <time>2019-01-14T01:04:14Z</time>
      </trkpt>
      <trkpt lat="41.750419" lon="2.960290">
        <ele>92.0</ele>
        <time>2019-01-14T01:04:14Z</time>
      </trkpt>
      <trkpt lat="41.750440" lon="2.960323">
        <ele>92.0</ele>
        <time>2019-01-14T01:04:15Z</time>
      </trkpt>
      <trkpt lat="41.750460" lon="2.960357">
        <ele>92.0</ele>
        <time>2019-01-14T01:04:15Z</time>
      </trkpt>
      <trkpt lat="41.750476" lon="2.960401">
        <ele>93.0</ele>
        <time>2019-01-14T01:04:16Z</time>
      </trkpt>
      <trkpt lat="41.750483" lon="2.960588">
        <ele>93.0</ele>
        <time>2019-01-14T01:04:18Z</time>
      </trkpt>
      <trkpt lat="41.750469" lon="2.960630">
        <ele>94.0</ele>
        <time>2019-01-14T01:04:19Z</time>
      </trkpt>
      <trkpt lat="41.750453" lon="2.960667">
        <ele>94.0</ele>
        <time>2019-01-14T01:04:19Z</time>
      </trkpt>
      <trkpt lat="41.750428" lon="2.960695">
        <ele>94.0</ele>
        <time>2019-01-14T01:04:20Z</time>
      </trkpt>
      <trkpt lat="41.750398" lon="2.960726">
        <ele>94.0</ele>
        <time>2019-01-14T01:04:20Z</time>
      </trkpt>
      <trkpt lat="41.750313" lon="2.960762">
        <ele>95.0</ele>
        <time>2019-01-14T01:04:22Z</time>
      </trkpt>
      <trkpt lat="41.750280" lon="2.960772">
        <ele>95.0</ele>
        <time>2019-01-14T01:04:22Z</time>
      </trkpt>
      <trkpt lat="41.750249" lon="2.960791">
        <ele>95.0</ele>
        <time>2019-01-14T01:04:23Z</time>
      </trkpt>
      <trkpt lat="41.750218" lon="2.960811">
        <ele>95.0</ele>
        <time>2019-01-14T01:04:23Z</time>
      </trkpt>
      <trkpt lat="41.750186" lon="2.960829">
        <ele>95.0</ele>
        <time>2019-01-14T01:04:24Z</time>
      </trkpt>
      <trkpt lat="41.750108" lon="2.960891">
        <ele>96.0</ele>
        <time>2019-01-14T01:04:25Z</time>
      </trkpt>
      <trkpt lat="41.749996" lon="2.961048">
        <ele>97.0</ele>
        <time>2019-01-14T01:04:28Z</time>
      </trkpt>
      <trkpt lat="41.749978" lon="2.961086">
        <ele>97.0</ele>
        <time>2019-01-14T01:04:29Z</time>
      </trkpt>
      <trkpt lat="41.749965" lon="2.961125">
        <ele>98.0</ele>
        <time>2019-01-14T01:04:29Z</time>
      </trkpt>
      <trkpt lat="41.749954" lon="2.961166">
        <ele>98.0</ele>
        <time>2019-01-14T01:04:30Z</time>
      </trkpt>
      <trkpt lat="41.749951" lon="2.961342">
        <ele>99.0</ele>
        <time>2019-01-14T01:04:32Z</time>
      </trkpt>
      <trkpt lat="41.749960" lon="2.961388">
        <ele>99.0</ele>
        <time>2019-01-14T01:04:32Z</time>
      </trkpt>
      <trkpt lat="41.749975" lon="2.961428">
        <ele>99.0</ele>
        <time>2019-01-14T01:04:33Z</time>
      </trkpt>
      <trkpt lat="41.749985" lon="2.961468">
        <ele>99.0</ele>
        <time>2019-01-14T01:04:33Z</time>
      </trkpt>
      <trkpt lat="41.750001" lon="2.961511">
        <ele>99.0</ele>
        <time>2019-01-14T01:04:34Z</time>
      </trkpt>
      <trkpt lat="41.750016" lon="2.961552">
        <ele>100.0</ele>
        <time>2019-01-14T01:04:34Z</time>
      </trkpt>
      <trkpt lat="41.750082" lon="2.961665">
        <ele>100.0</ele>
        <time>2019-01-14T01:04:36Z</time>
      </trkpt>
      <trkpt lat="41.750108" lon="2.961699">
        <ele>100.0</ele>
        <time>2019-01-14T01:04:37Z</time>
      </trkpt>
      <trkpt lat="41.750131" lon="2.961733">
        <ele>100.0</ele>
        <time>2019-01-14T01:04:37Z</time>
      </trkpt>
      <trkpt lat="41.750155" lon="2.961766">
        <ele>101.0</ele>
        <time>2019-01-14T01:04:38Z</time>
      </trkpt>
      <trkpt lat="41.750178" lon="2.961798">
        <ele>101.0</ele>
        <time>2019-01-14T01:04:38Z</time>
      </trkpt>
      <trkpt lat="41.750249" lon="2.961891">
        <ele>101.0</ele>
        <time>2019-01-14T01:04:40Z</time>
      </trkpt>
      <trkpt lat="41.750326" lon="2.961986">
        <ele>102.0</ele>
        <time>2019-01-14T01:04:42Z</time>
      </trkpt>
      <trkpt lat="41.750402" lon="2.962075">
        <ele>102.0</ele>
        <time>2019-01-14T01:04:43Z</time>
      </trkpt>
      <trkpt lat="41.750427" lon="2.962108">
        <ele>102.0</ele>
        <time>2019-01-14T01:04:44Z</time>
      </trkpt>
      <trkpt lat="41.750451" lon="2.962140">
        <ele>102.0</ele>
        <time>2019-01-14T01:04:44Z</time>
      </trkpt>
      <trkpt lat="41.750477" lon="2.962175">
        <ele>102.0</ele>
        <time>2019-01-14T01:04:45Z</time>
      </trkpt>
      <trkpt lat="41.750502" lon="2.962208">
        <ele>103.0</ele>
        <time>2019-01-14T01:04:46Z</time>
      </trkpt>
      <trkpt lat="41.750584" lon="2.962304">
        <ele>103.0</ele>
        <time>2019-01-14T01:04:47Z</time>
      </trkpt>
      <trkpt lat="41.750607" lon="2.962337">
        <ele>103.0</ele>
        <time>2019-01-14T01:04:48Z</time>
      </trkpt>
      <trkpt lat="41.750633" lon="2.962368">
        <ele>104.0</ele>
        <time>2019-01-14T01:04:48Z</time>
      </trkpt>
      <trkpt lat="41.750653" lon="2.962406">
        <ele>104.0</ele>
        <time>2019-01-14T01:04:49Z</time>
      </trkpt>
      <trkpt lat="41.750669" lon="2.962451">
        <ele>104.0</ele>
        <time>2019-01-14T01:04:49Z</time>
      </trkpt>
      <trkpt lat="41.750669" lon="2.962546">
        <ele>104.0</ele>
        <time>2019-01-14T01:04:51Z</time>
      </trkpt>
      <trkpt lat="41.750582" lon="2.962748">
        <ele>106.0</ele>
        <time>2019-01-14T01:04:53Z</time>
      </trkpt>
      <trkpt lat="41.750506" lon="2.962838">
        <ele>106.0</ele>
        <time>2019-01-14T01:04:55Z</time>
      </trkpt>
      <trkpt lat="41.750481" lon="2.962868">
        <ele>107.0</ele>
        <time>2019-01-14T01:04:56Z</time>
      </trkpt>
      <trkpt lat="41.750456" lon="2.962900">
        <ele>107.0</ele>
        <time>2019-01-14T01:04:56Z</time>
      </trkpt>
      <trkpt lat="41.750434" lon="2.962932">
        <ele>107.0</ele>
        <time>2019-01-14T01:04:57Z</time>
      </trkpt>
      <trkpt lat="41.750382" lon="2.963040">
        <ele>108.0</ele>
        <time>2019-01-14T01:04:58Z</time>
      </trkpt>
      <trkpt lat="41.750337" lon="2.963341">
        <ele>110.0</ele>
        <time>2019-01-14T01:05:02Z</time>
      </trkpt>
      <trkpt lat="41.750381" lon="2.963569">
        <ele>111.0</ele>
        <time>2019-01-14T01:05:05Z</time>
      </trkpt>
      <trkpt lat="41.750395" lon="2.963614">
        <ele>111.0</ele>
        <time>2019-01-14T01:05:05Z</time>
      </trkpt>
      <trkpt lat="41.750409" lon="2.963655">
        <ele>111.0</ele>
        <time>2019-01-14T01:05:06Z</time>
      </trkpt>
      <trkpt lat="41.750424" lon="2.963694">
        <ele>111.0</ele>
        <time>2019-01-14T01:05:06Z</time>
      </trkpt>
      <trkpt lat="41.750437" lon="2.963733">
        <ele>112.0</ele>
        <time>2019-01-14T01:05:07Z</time>
      </trkpt>
      <trkpt lat="41.750510" lon="2.963930">
        <ele>113.0</ele>
        <time>2019-01-14T01:05:09Z</time>
      </trkpt>
      <trkpt lat="41.750612" lon="2.964141">
        <ele>114.0</ele>
        <time>2019-01-14T01:05:12Z</time>
      </trkpt>
      <trkpt lat="41.750633" lon="2.964176">
        <ele>114.0</ele>
        <time>2019-01-14T01:05:13Z</time>
      </trkpt>
      <trkpt lat="41.750653" lon="2.964207">
        <ele>114.0</ele>
        <time>2019-01-14T01:05:13Z</time>
      </trkpt>
      <trkpt lat="41.750673" lon="2.964235">
        <ele>114.0</ele>
        <time>2019-01-14T01:05:14Z</time>
      </trkpt>
      <trkpt lat="41.750696" lon="2.964266">
        <ele>114.0</ele>
        <time>2019-01-14T01:05:14Z</time>
      </trkpt>
      <trkpt lat="41.750817" lon="2.964407">
        <ele>115.0</ele>
        <time>2019-01-14T01:05:17Z</time>
      </trkpt>
      <trkpt lat="41.750842" lon="2.964433">
        <ele>115.0</ele>
        <time>2019-01-14T01:05:18Z</time>
      </trkpt>
      <trkpt lat="41.750862" lon="2.964461">
        <ele>115.0</ele>
        <time>2019-01-14T01:05:18Z</time>
      </trkpt>
      <trkpt lat="41.750886" lon="2.964491">
        <ele>115.0</ele>
        <time>2019-01-14T01:05:19Z</time>
      </trkpt>
      <trkpt lat="41.750906" lon="2.964523">
        <ele>116.0</ele>
        <time>2019-01-14T01:05:19Z</time>
      </trkpt>
      <trkpt lat="41.750976" lon="2.964701">
        <ele>116.0</ele>
        <time>2019-01-14T01:05:21Z</time>
      </trkpt>
      <trkpt lat="41.750997" lon="2.964772">
        <ele>117.0</ele>
        <time>2019-01-14T01:05:22Z</time>
      </trkpt>
      <trkpt lat="41.751005" lon="2.964805">
        <ele>117.0</ele>
        <time>2019-01-14T01:05:23Z</time>
      </trkpt>
      <trkpt lat="41.751016" lon="2.964844">
        <ele>117.0</ele>
        <time>2019-01-14T01:05:23Z</time>
      </trkpt>
      <trkpt lat="41.751028" lon="2.964884">
        <ele>117.0</ele>
        <time>2019-01-14T01:05:24Z</time>
      </trkpt>
      <trkpt lat="41.751040" lon="2.964925">
        <ele>118.0</ele>
        <time>2019-01-14T01:05:24Z</time>
      </trkpt>
      <trkpt lat="41.751052" lon="2.965014">
        <ele>118.0</ele>
        <time>2019-01-14T01:05:25Z</time>
      </trkpt>
      <trkpt lat="41.751076" lon="2.965145">
        <ele>119.0</ele>
        <time>2019-01-14T01:05:27Z</time>
      </trkpt>
      <trkpt lat="41.751078" lon="2.965189">
        <ele>119.0</ele>
        <time>2019-01-14T01:05:27Z</time>
      </trkpt>
      <trkpt lat="41.751077" lon="2.965234">
        <ele>119.0</ele>
        <time>2019-01-14T01:05:28Z</time>
      </trkpt>
      <trkpt lat="41.751074" lon="2.965280">
        <ele>120.0</ele>
        <time>2019-01-14T01:05:29Z</time>
      </trkpt>
      <trkpt lat="41.751068" lon="2.965321">
        <ele>120.0</ele>
        <time>2019-01-14T01:05:29Z</time>
      </trkpt>
      <trkpt lat="41.751003" lon="2.965517">
        <ele>121.0</ele>
        <time>2019-01-14T01:05:32Z</time>
      </trkpt>
      <trkpt lat="41.750945" lon="2.965631">
        <ele>122.0</ele>
        <time>2019-01-14T01:05:33Z</time>
      </trkpt>
      <trkpt lat="41.750925" lon="2.965668">
        <ele>122.0</ele>
        <time>2019-01-14T01:05:34Z</time>
      </trkpt>
      <trkpt lat="41.750915" lon="2.965697">
        <ele>122.0</ele>
        <time>2019-01-14T01:05:34Z</time>
      </trkpt>
      <trkpt lat="41.750900" lon="2.965728">
        <ele>122.0</ele>
        <time>2019-01-14T01:05:35Z</time>
      </trkpt>
      <trkpt lat="41.750759" lon="2.965959">
        <ele>124.0</ele>
        <time>2019-01-14T01:05:38Z</time>
      </trkpt>
      <trkpt lat="41.750732" lon="2.965978">
        <ele>124.0</ele>
        <time>2019-01-14T01:05:39Z</time>
      </trkpt>
      <trkpt lat="41.750699" lon="2.965990">
        <ele>124.0</ele>
        <time>2019-01-14T01:05:39Z</time>
      </trkpt>
      <trkpt lat="41.750665" lon="2.966003">
        <ele>124.0</ele>
        <time>2019-01-14T01:05:40Z</time>
      </trkpt>
      <trkpt lat="41.750631" lon="2.966013">
        <ele>124.0</ele>
        <time>2019-01-14T01:05:40Z</time>
      </trkpt>
      <trkpt lat="41.750600" lon="2.966023">
        <ele>125.0</ele>
        <time>2019-01-14T01:05:41Z</time>
      </trkpt>
      <trkpt lat="41.750570" lon="2.966037">
        <ele>125.0</ele>
        <time>2019-01-14T01:05:41Z</time>
      </trkpt>
      <trkpt lat="41.750425" lon="2.966122">
        <ele>126.0</ele>
        <time>2019-01-14T01:05:44Z</time>
      </trkpt>
      <trkpt lat="41.750403" lon="2.966152">
        <ele>126.0</ele>
        <time>2019-01-14T01:05:44Z</time>
      </trkpt>
      <trkpt lat="41.750388" lon="2.966188">
        <ele>126.0</ele>
        <time>2019-01-14T01:05:45Z</time>
      </trkpt>
      <trkpt lat="41.750383" lon="2.966228">
        <ele>124.0</ele>
        <time>2019-01-14T01:05:45Z</time>
      </trkpt>
      <trkpt lat="41.750384" lon="2.966272">
        <ele>123.0</ele>
        <time>2019-01-14T01:05:46Z</time>
      </trkpt>
      <trkpt lat="41.750400" lon="2.966367">
        <ele>121.0</ele>
        <time>2019-01-14T01:05:47Z</time>
      </trkpt>
      <trkpt lat="41.750500" lon="2.966557">
        <ele>116.0</ele>
        <time>2019-01-14T01:05:50Z</time>
      </trkpt>
      <trkpt lat="41.750522" lon="2.966589">
        <ele>115.0</ele>
        <time>2019-01-14T01:05:50Z</time>
      </trkpt>
      <trkpt lat="41.750551" lon="2.966616">
        <ele>114.0</ele>
        <time>2019-01-14T01:05:51Z</time>
      </trkpt>
      <trkpt lat="41.750578" lon="2.966643">
        <ele>113.0</ele>
        <time>2019-01-14T01:05:52Z</time>
      </trkpt>
      <trkpt lat="41.750605" lon="2.966669">
        <ele>112.0</ele>
        <time>2019-01-14T01:05:52Z</time>
      </trkpt>
      <trkpt lat="41.750630" lon="2.966693">
        <ele>111.0</ele>
        <time>2019-01-14T01:05:53Z</time>
      </trkpt>
      <trkpt lat="41.750686" lon="2.966742">
        <ele>110.0</ele>
        <time>2019-01-14T01:05:54Z</time>
      </trkpt>
      <trkpt lat="41.750711" lon="2.966770">
        <ele>109.0</ele>
        <time>2019-01-14T01:05:54Z</time>
      </trkpt>
      <trkpt lat="41.750734" lon="2.966801">
        <ele>108.0</ele>
        <time>2019-01-14T01:05:55Z</time>
      </trkpt>
      <trkpt lat="41.750761" lon="2.966832">
        <ele>107.0</ele>
        <time>2019-01-14T01:05:55Z</time>
      </trkpt>
      <trkpt lat="41.750784" lon="2.966862">
        <ele>106.0</ele>
        <time>2019-01-14T01:05:56Z</time>
      </trkpt>
      <trkpt lat="41.750808" lon="2.966896">
        <ele>105.0</ele>
        <time>2019-01-14T01:05:56Z</time>
      </trkpt>
      <trkpt lat="41.750872" lon="2.966996">
        <ele>102.0</ele>
        <time>2019-01-14T01:05:58Z</time>
      </trkpt>
      <trkpt lat="41.750987" lon="2.967237">
        <ele>94.0</ele>
        <time>2019-01-14T01:06:01Z</time>
      </trkpt>
      <trkpt lat="41.751008" lon="2.967278">
        <ele>93.0</ele>
        <time>2019-01-14T01:06:02Z</time>
      </trkpt>
      <trkpt lat="41.751028" lon="2.967317">
        <ele>91.0</ele>
        <time>2019-01-14T01:06:02Z</time>
      </trkpt>
      <trkpt lat="41.751052" lon="2.967359">
        <ele>89.0</ele>
        <time>2019-01-14T01:06:03Z</time>
      </trkpt>
      <trkpt lat="41.751073" lon="2.967399">
        <ele>87.0</ele>
        <time>2019-01-14T01:06:04Z</time>
      </trkpt>
      <trkpt lat="41.751202" lon="2.967588">
        <ele>78.0</ele>
        <time>2019-01-14T01:06:07Z</time>
      </trkpt>
      <trkpt lat="41.751358" lon="2.967789">
        <ele>69.0</ele>
        <time>2019-01-14T01:06:10Z</time>
      </trkpt>
      <trkpt lat="41.751392" lon="2.967822">
        <ele>68.0</ele>
        <time>2019-01-14T01:06:11Z</time>
      </trkpt>
      <trkpt lat="41.751433" lon="2.967845">
        <ele>66.0</ele>
        <time>2019-01-14T01:06:12Z</time>
      </trkpt>
      <trkpt lat="41.751479" lon="2.967860">
        <ele>65.0</ele>
        <time>2019-01-14T01:06:12Z</time>
      </trkpt>
      <trkpt lat="41.751532" lon="2.967863">
        <ele>64.0</ele>
        <time>2019-01-14T01:06:13Z</time>
      </trkpt>
      <trkpt lat="41.751588" lon="2.967844">
        <ele>62.0</ele>
        <time>2019-01-14T01:06:14Z</time>
      </trkpt>
      <trkpt lat="41.751721" lon="2.967687">
        <ele>62.0</ele>
        <time>2019-01-14T01:06:17Z</time>
      </trkpt>
      <trkpt lat="41.751751" lon="2.967614">
        <ele>62.0</ele>
        <time>2019-01-14T01:06:18Z</time>
      </trkpt>
      <trkpt lat="41.751776" lon="2.967531">
        <ele>62.0</ele>
        <time>2019-01-14T01:06:19Z</time>
      </trkpt>
      <trkpt lat="41.751798" lon="2.967441">
        <ele>62.0</ele>
        <time>2019-01-14T01:06:20Z</time>
      </trkpt>
      <trkpt lat="41.751816" lon="2.967344">
        <ele>63.0</ele>
        <time>2019-01-14T01:06:21Z</time>
      </trkpt>
      <trkpt lat="41.751844" lon="2.967243">
        <ele>63.0</ele>
        <time>2019-01-14T01:06:23Z</time>
      </trkpt>
      <trkpt lat="41.751875" lon="2.967136">
        <ele>63.0</ele>
        <time>2019-01-14T01:06:24Z</time>
      </trkpt>
      <trkpt lat="41.751907" lon="2.967032">
        <ele>63.0</ele>
        <time>2019-01-14T01:06:25Z</time>
      </trkpt>
      <trkpt lat="41.751943" lon="2.966926">
        <ele>63.0</ele>
        <time>2019-01-14T01:06:27Z</time>
      </trkpt>
      <trkpt lat="41.751989" lon="2.966826">
        <ele>64.0</ele>
        <time>2019-01-14T01:06:28Z</time>
      </trkpt>
      <trkpt lat="41.752046" lon="2.966735">
        <ele>64.0</ele>
        <time>2019-01-14T01:06:30Z</time>
      </trkpt>
      <trkpt lat="41.752107" lon="2.966647">
        <ele>64.0</ele>
        <time>2019-01-14T01:06:31Z</time>
      </trkpt>
      <trkpt lat="41.752163" lon="2.966554">
        <ele>64.0</ele>
        <time>2019-01-14T01:06:32Z</time>
      </trkpt>
      <trkpt lat="41.752200" lon="2.966457">
        <ele>64.0</ele>
        <time>2019-01-14T01:06:34Z</time>
      </trkpt>
      <trkpt lat="41.752213" lon="2.966343">
        <ele>65.0</ele>
        <time>2019-01-14T01:06:35Z</time>
      </trkpt>
      <trkpt lat="41.752215" lon="2.966227">
        <ele>65.0</ele>
        <time>2019-01-14T01:06:36Z</time>
      </trkpt>
      <trkpt lat="41.752226" lon="2.966101">
        <ele>65.0</ele>
        <time>2019-01-14T01:06:38Z</time>
      </trkpt>
      <trkpt lat="41.752250" lon="2.965978">
        <ele>65.0</ele>
        <time>2019-01-14T01:06:39Z</time>
      </trkpt>
      <trkpt lat="41.752281" lon="2.965866">
        <ele>66.0</ele>
        <time>2019-01-14T01:06:41Z</time>
      </trkpt>
      <trkpt lat="41.752316" lon="2.965757">
        <ele>66.0</ele>
        <time>2019-01-14T01:06:42Z</time>
      </trkpt>
      <trkpt lat="41.752360" lon="2.965651">
        <ele>66.0</ele>
        <time>2019-01-14T01:06:44Z</time>
      </trkpt>
      <trkpt lat="41.752404" lon="2.965542">
        <ele>66.0</ele>
        <time>2019-01-14T01:06:45Z</time>
      </trkpt>
      <trkpt lat="41.752453" lon="2.965439">
        <ele>67.0</ele>
        <time>2019-01-14T01:06:47Z</time>
      </trkpt>
      <trkpt lat="41.752503" lon="2.965360">
        <ele>67.0</ele>
        <time>2019-01-14T01:06:48Z</time>
      </trkpt>
      <trkpt lat="41.752590" lon="2.965324">
        <ele>67.0</ele>
        <time>2019-01-14T01:06:49Z</time>
      </trkpt>
      <trkpt lat="41.752697" lon="2.965333">
        <ele>67.0</ele>
        <time>2019-01-14T01:06:51Z</time>
      </trkpt>
      <trkpt lat="41.752806" lon="2.965404">
        <ele>68.0</ele>
        <time>2019-01-14T01:06:53Z</time>
      </trkpt>
      <trkpt lat="41.752907" lon="2.965456">
        <ele>68.0</ele>
        <time>2019-01-14T01:06:55Z</time>
      </trkpt>
      <trkpt lat="41.753007" lon="2.965452">
        <ele>69.0</ele>
        <time>2019-01-14T01:06:56Z</time>
      </trkpt>
      <trkpt lat="41.753101" lon="2.965381">
        <ele>69.0</ele>
        <time>2019-01-14T01:06:58Z</time>
      </trkpt>
      <trkpt lat="41.753179" lon="2.965281">
        <ele>69.0</ele>
        <time>2019-01-14T01:07:00Z</time>
      </trkpt>
      <trkpt lat="41.753240" lon="2.965169">
        <ele>70.0</ele>
        <time>2019-01-14T01:07:02Z</time>
      </trkpt>
      <trkpt lat="41.753302" lon="2.965068">
        <ele>70.0</ele>
        <time>2019-01-14T01:07:03Z</time>
      </trkpt>
      <trkpt lat="41.753366" lon="2.964969">
        <ele>71.0</ele>
        <time>2019-01-14T01:07:05Z</time>
      </trkpt>
      <trkpt lat="41.753445" lon="2.964905">
        <ele>71.0</ele>
        <time>2019-01-14T01:07:06Z</time>
      </trkpt>
      <trkpt lat="41.753539" lon="2.964887">
        <ele>72.0</ele>
        <time>2019-01-14T01:07:08Z</time>
      </trkpt>
      <trkpt lat="41.753642" lon="2.964911">
        <ele>72.0</ele>
        <time>2019-01-14T01:07:09Z</time>
      </trkpt>
      <trkpt lat="41.753749" lon="2.964981">
        <ele>73.0</ele>
        <time>2019-01-14T01:07:11Z</time>
      </trkpt>
      <trkpt lat="41.753831" lon="2.965066">
        <ele>73.0</ele>
        <time>2019-01-14T01:07:13Z</time>
      </trkpt>
      <trkpt lat="41.753922" lon="2.965142">
        <ele>74.0</ele>
        <time>2019-01-14T01:07:15Z</time>
      </trkpt>
      <trkpt lat="41.754020" lon="2.965179">
        <ele>74.0</ele>
        <time>2019-01-14T01:07:16Z</time>
      </trkpt>
      <trkpt lat="41.754209" lon="2.965099">
        <ele>75.0</ele>
        <time>2019-01-14T01:07:19Z</time>
      </trkpt>
      <trkpt lat="41.754289" lon="2.965018">
        <ele>76.0</ele>
        <time>2019-01-14T01:07:21Z</time>
      </trkpt>
      <trkpt lat="41.754368" lon="2.964920">
        <ele>76.0</ele>
        <time>2019-01-14T01:07:23Z</time>
      </trkpt>
      <trkpt lat="41.754447" lon="2.964825">
        <ele>77.0</ele>
        <time>2019-01-14T01:07:24Z</time>
      </trkpt>
      <trkpt lat="41.754521" lon="2.964737">
        <ele>77.0</ele>
        <time>2019-01-14T01:07:26Z</time>
      </trkpt>
      <trkpt lat="41.754590" lon="2.964653">
        <ele>78.0</ele>
        <time>2019-01-14T01:07:27Z</time>
      </trkpt>
      <trkpt lat="41.754648" lon="2.964552">
        <ele>79.0</ele>
        <time>2019-01-14T01:07:29Z</time>
      </trkpt>
      <trkpt lat="41.754681" lon="2.964430">
        <ele>79.0</ele>
        <time>2019-01-14T01:07:31Z</time>
      </trkpt>
      <trkpt lat="41.754686" lon="2.964293">
        <ele>80.0</ele>
        <time>2019-01-14T01:07:32Z</time>
      </trkpt>
      <trkpt lat="41.754672" lon="2.964155">
        <ele>80.0</ele>
        <time>2019-01-14T01:07:34Z</time>
      </trkpt>
      <trkpt lat="41.754658" lon="2.964015">
        <ele>81.0</ele>
        <time>2019-01-14T01:07:36Z</time>
      </trkpt>
      <trkpt lat="41.754648" lon="2.963874">
        <ele>81.0</ele>
        <time>2019-01-14T01:07:37Z</time>
      </trkpt>
      <trkpt lat="41.754645" lon="2.963728">
        <ele>82.0</ele>
        <time>2019-01-14T01:07:39Z</time>
      </trkpt>
      <trkpt lat="41.754668" lon="2.963586">
        <ele>83.0</ele>
        <time>2019-01-14T01:07:41Z</time>
      </trkpt>
      <trkpt lat="41.754706" lon="2.963453">
        <ele>83.0</ele>
        <time>2019-01-14T01:07:42Z</time>
      </trkpt>
      <trkpt lat="41.754744" lon="2.963322">
        <ele>84.0</ele>
        <time>2019-01-14T01:07:44Z</time>
      </trkpt>
      <trkpt lat="41.754801" lon="2.963207">
        <ele>85.0</ele>
        <time>2019-01-14T01:07:46Z</time>
      </trkpt>
      <trkpt lat="41.754889" lon="2.963115">
        <ele>85.0</ele>
        <time>2019-01-14T01:07:48Z</time>
      </trkpt>
      <trkpt lat="41.754989" lon="2.963049">
        <ele>86.0</ele>
        <time>2019-01-14T01:07:49Z</time>
      </trkpt>
      <trkpt lat="41.755091" lon="2.963005">
        <ele>87.0</ele>
        <time>2019-01-14T01:07:51Z</time>
      </trkpt>
      <trkpt lat="41.755196" lon="2.962969">
        <ele>87.0</ele>
        <time>2019-01-14T01:07:53Z</time>
      </trkpt>
      <trkpt lat="41.755299" lon="2.962922">
        <ele>88.0</ele>
        <time>2019-01-14T01:07:55Z</time>
      </trkpt>
      <trkpt lat="41.755401" lon="2.962874">
        <ele>89.0</ele>
        <time>2019-01-14T01:07:56Z</time>
      </trkpt>
      <trkpt lat="41.755508" lon="2.962844">
        <ele>89.0</ele>
        <time>2019-01-14T01:07:58Z</time>
      </trkpt>
      <trkpt lat="41.755622" lon="2.962841">
        <ele>90.0</ele>
        <time>2019-01-14T01:08:00Z</time>
      </trkpt>
      <trkpt lat="41.755737" lon="2.962866">
        <ele>91.0</ele>
        <time>2019-01-14T01:08:02Z</time>
      </trkpt>
      <trkpt lat="41.755836" lon="2.962917">
        <ele>92.0</ele>
        <time>2019-01-14T01:08:03Z</time>
      </trkpt>
      <trkpt lat="41.755922" lon="2.963001">
        <ele>93.0</ele>
        <time>2019-01-14T01:08:05Z</time>
      </trkpt>
      <trkpt lat="41.755964" lon="2.963122">
        <ele>93.0</ele>
        <time>2019-01-14T01:08:07Z</time>
      </trkpt>
      <trkpt lat="41.755961" lon="2.963247">
        <ele>92.0</ele>
        <time>2019-01-14T01:08:08Z</time>
      </trkpt>
      <trkpt lat="41.755945" lon="2.963368">
        <ele>92.0</ele>
        <time>2019-01-14T01:08:10Z</time>
      </trkpt>
      <trkpt lat="41.755928" lon="2.963483">
        <ele>91.0</ele>
        <time>2019-01-14T01:08:11Z</time>
      </trkpt>
      <trkpt lat="41.755902" lon="2.963594">
        <ele>90.0</ele>
        <time>2019-01-14T01:08:12Z</time>
      </trkpt>
      <trkpt lat="41.755851" lon="2.963787">
        <ele>89.0</ele>
        <time>2019-01-14T01:08:15Z</time>
      </trkpt>
      <trkpt lat="41.755846" lon="2.963959">
        <ele>89.0</ele>
        <time>2019-01-14T01:08:17Z</time>
      </trkpt>
      <trkpt lat="41.755865" lon="2.964109">
        <ele>89.0</ele>
        <time>2019-01-14T01:08:19Z</time>
      </trkpt>
      <trkpt lat="41.755874" lon="2.964177">
        <ele>89.0</ele>
        <time>2019-01-14T01:08:20Z</time>
      </trkpt>
      <trkpt lat="41.755886" lon="2.964251">
        <ele>89.0</ele>
        <time>2019-01-14T01:08:20Z</time>
      </trkpt>
      <trkpt lat="41.755903" lon="2.964317">
        <ele>89.0</ele>
        <time>2019-01-14T01:08:21Z</time>
      </trkpt>
      <trkpt lat="41.755920" lon="2.964381">
        <ele>89.0</ele>
        <time>2019-01-14T01:08:22Z</time>
      </trkpt>
      <trkpt lat="41.755937" lon="2.964446">
        <ele>90.0</ele>
        <time>2019-01-14T01:08:23Z</time>
      </trkpt>
      <trkpt lat="41.756025" lon="2.964802">
        <ele>90.0</ele>
        <time>2019-01-14T01:08:27Z</time>
      </trkpt>
      <trkpt lat="41.756049" lon="2.964921">
        <ele>90.0</ele>
        <time>2019-01-14T01:08:29Z</time>
      </trkpt>
      <trkpt lat="41.756061" lon="2.964982">
        <ele>90.0</ele>
        <time>2019-01-14T01:08:30Z</time>
      </trkpt>
      <trkpt lat="41.756069" lon="2.965044">
        <ele>90.0</ele>
        <time>2019-01-14T01:08:30Z</time>
      </trkpt>
      <trkpt lat="41.756078" lon="2.965105">
        <ele>91.0</ele>
        <time>2019-01-14T01:08:31Z</time>
      </trkpt>
      <trkpt lat="41.756081" lon="2.965165">
        <ele>91.0</ele>
        <time>2019-01-14T01:08:32Z</time>
      </trkpt>
      <trkpt lat="41.756081" lon="2.965291">
        <ele>91.0</ele>
        <time>2019-01-14T01:08:33Z</time>
      </trkpt>
      <trkpt lat="41.756038" lon="2.965456">
        <ele>91.0</ele>
        <time>2019-01-14T01:08:35Z</time>
      </trkpt>
      <trkpt lat="41.756020" lon="2.965510">
        <ele>91.0</ele>
        <time>2019-01-14T01:08:36Z</time>
      </trkpt>
      <trkpt lat="41.755993" lon="2.965562">
        <ele>91.0</ele>
        <time>2019-01-14T01:08:37Z</time>
      </trkpt>
      <trkpt lat="41.755883" lon="2.965770">
        <ele>91.0</ele>
        <time>2019-01-14T01:08:40Z</time>
      </trkpt>
      <trkpt lat="41.755851" lon="2.965812">
        <ele>91.0</ele>
        <time>2019-01-14T01:08:41Z</time>
      </trkpt>
      <trkpt lat="41.755821" lon="2.965858">
        <ele>91.0</ele>
        <time>2019-01-14T01:08:41Z</time>
      </trkpt>
      <trkpt lat="41.755793" lon="2.965903">
        <ele>91.0</ele>
        <time>2019-01-14T01:08:42Z</time>
      </trkpt>
      <trkpt lat="41.755765" lon="2.965945">
        <ele>91.0</ele>
        <time>2019-01-14T01:08:43Z</time>
      </trkpt>
      <trkpt lat="41.755645" lon="2.966116">
        <ele>90.0</ele>
        <time>2019-01-14T01:08:46Z</time>
      </trkpt>
      <trkpt lat="41.755549" lon="2.966235">
        <ele>90.0</ele>
        <time>2019-01-14T01:08:48Z</time>
      </trkpt>
      <trkpt lat="41.755429" lon="2.966388">
        <ele>90.0</ele>
        <time>2019-01-14T01:08:50Z</time>
      </trkpt>
      <trkpt lat="41.755322" lon="2.966568">
        <ele>90.0</ele>
        <time>2019-01-14T01:08:53Z</time>
      </trkpt>
      <trkpt lat="41.755256" lon="2.966724">
        <ele>90.0</ele>
        <time>2019-01-14T01:08:55Z</time>
      </trkpt>
      <trkpt lat="41.755223" lon="2.966834">
        <ele>90.0</ele>
        <time>2019-01-14T01:08:57Z</time>
      </trkpt>
      <trkpt lat="41.755213" lon="2.966894">
        <ele>90.0</ele>
        <time>2019-01-14T01:08:57Z</time>
      </trkpt>
      <trkpt lat="41.755196" lon="2.967019">
        <ele>90.0</ele>
        <time>2019-01-14T01:08:59Z</time>
      </trkpt>
      <trkpt lat="41.755198" lon="2.967083">
        <ele>90.0</ele>
        <time>2019-01-14T01:09:00Z</time>
      </trkpt>
      <trkpt lat="41.755206" lon="2.967146">
        <ele>90.0</ele>
        <time>2019-01-14T01:09:00Z</time>
      </trkpt>
      <trkpt lat="41.755220" lon="2.967208">
        <ele>90.0</ele>
        <time>2019-01-14T01:09:01Z</time>
      </trkpt>
      <trkpt lat="41.755242" lon="2.967266">
        <ele>90.0</ele>
        <time>2019-01-14T01:09:02Z</time>
      </trkpt>
      <trkpt lat="41.755297" lon="2.967372">
        <ele>90.0</ele>
        <time>2019-01-14T01:09:03Z</time>
      </trkpt>
      <trkpt lat="41.755455" lon="2.967654">
        <ele>91.0</ele>
        <time>2019-01-14T01:09:08Z</time>
      </trkpt>
      <trkpt lat="41.755465" lon="2.967870">
        <ele>91.0</ele>
        <time>2019-01-14T01:09:10Z</time>
      </trkpt>
      <trkpt lat="41.755557" lon="2.968056">
        <ele>91.0</ele>
        <time>2019-01-14T01:09:13Z</time>
      </trkpt>
      <trkpt lat="41.755705" lon="2.968128">
        <ele>91.0</ele>
        <time>2019-01-14T01:09:15Z</time>
      </trkpt>
      <trkpt lat="41.755758" lon="2.968148">
        <ele>92.0</ele>
        <time>2019-01-14T01:09:16Z</time>
      </trkpt>
      <trkpt lat="41.755810" lon="2.968179">
        <ele>92.0</ele>
        <time>2019-01-14T01:09:17Z</time>
      </trkpt>
      <trkpt lat="41.755891" lon="2.968280">
        <ele>92.0</ele>
        <time>2019-01-14T01:09:19Z</time>
      </trkpt>
      <trkpt lat="41.755931" lon="2.968481">
        <ele>92.0</ele>
        <time>2019-01-14T01:09:22Z</time>
      </trkpt>
      <trkpt lat="41.755935" lon="2.968551">
        <ele>92.0</ele>
        <time>2019-01-14T01:09:22Z</time>
      </trkpt>
      <trkpt lat="41.755948" lon="2.968830">
        <ele>93.0</ele>
        <time>2019-01-14T01:09:26Z</time>
      </trkpt>
      <trkpt lat="41.755936" lon="2.968961">
        <ele>93.0</ele>
        <time>2019-01-14T01:09:27Z</time>
      </trkpt>
      <trkpt lat="41.755883" lon="2.969156">
        <ele>93.0</ele>
        <time>2019-01-14T01:09:30Z</time>
      </trkpt>
      <trkpt lat="41.755738" lon="2.969375">
        <ele>93.0</ele>
        <time>2019-01-14T01:09:33Z</time>
      </trkpt>
      <trkpt lat="41.755732" lon="2.969643">
        <ele>92.0</ele>
        <time>2019-01-14T01:09:36Z</time>
      </trkpt>
      <trkpt lat="41.755858" lon="2.969859">
        <ele>91.0</ele>
        <time>2019-01-14T01:09:40Z</time>
      </trkpt>
      <trkpt lat="41.755943" lon="2.969951">
        <ele>91.0</ele>
        <time>2019-01-14T01:09:41Z</time>
      </trkpt>
      <trkpt lat="41.756029" lon="2.970047">
        <ele>91.0</ele>
        <time>2019-01-14T01:09:43Z</time>
      </trkpt>
      <trkpt lat="41.756075" lon="2.970179">
        <ele>90.0</ele>
        <time>2019-01-14T01:09:45Z</time>
      </trkpt>
      <trkpt lat="41.756046" lon="2.970388">
        <ele>90.0</ele>
        <time>2019-01-14T01:09:48Z</time>
      </trkpt>
      <trkpt lat="41.756036" lon="2.970454">
        <ele>90.0</ele>
        <time>2019-01-14T01:09:48Z</time>
      </trkpt>
      <trkpt lat="41.756022" lon="2.970663">
        <ele>89.0</ele>
        <time>2019-01-14T01:09:51Z</time>
      </trkpt>
      <trkpt lat="41.756023" lon="2.970736">
        <ele>89.0</ele>
        <time>2019-01-14T01:09:52Z</time>
      </trkpt>
      <trkpt lat="41.756025" lon="2.970813">
        <ele>89.0</ele>
        <time>2019-01-14T01:09:53Z</time>
      </trkpt>
      <trkpt lat="41.756029" lon="2.970884">
        <ele>89.0</ele>
        <time>2019-01-14T01:09:53Z</time>
      </trkpt>
      <trkpt lat="41.756080" lon="2.971153">
        <ele>88.0</ele>
        <time>2019-01-14T01:09:57Z</time>
      </trkpt>
      <trkpt lat="41.756099" lon="2.971213">
        <ele>88.0</ele>
        <time>2019-01-14T01:09:58Z</time>
      </trkpt>
      <trkpt lat="41.756166" lon="2.971456">
        <ele>88.0</ele>
        <time>2019-01-14T01:10:01Z</time>
      </trkpt>
      <trkpt lat="41.756164" lon="2.971523">
        <ele>88.0</ele>
        <time>2019-01-14T01:10:01Z</time>
      </trkpt>
      <trkpt lat="41.756130" lon="2.971707">
        <ele>88.0</ele>
        <time>2019-01-14T01:10:04Z</time>
      </trkpt>
      <trkpt lat="41.756118" lon="2.971761">
        <ele>89.0</ele>
        <time>2019-01-14T01:10:04Z</time>
      </trkpt>
      <trkpt lat="41.756100" lon="2.971818">
        <ele>89.0</ele>
        <time>2019-01-14T01:10:05Z</time>
      </trkpt>
      <trkpt lat="41.756084" lon="2.971873">
        <ele>89.0</ele>
        <time>2019-01-14T01:10:06Z</time>
      </trkpt>
      <trkpt lat="41.756068" lon="2.971932">
        <ele>89.0</ele>
        <time>2019-01-14T01:10:07Z</time>
      </trkpt>
      <trkpt lat="41.756052" lon="2.971988">
        <ele>89.0</ele>
        <time>2019-01-14T01:10:07Z</time>
      </trkpt>
      <trkpt lat="41.756033" lon="2.972049">
        <ele>89.0</ele>
        <time>2019-01-14T01:10:08Z</time>
      </trkpt>
      <trkpt lat="41.756011" lon="2.972103">
        <ele>89.0</ele>
        <time>2019-01-14T01:10:09Z</time>
      </trkpt>
      <trkpt lat="41.755982" lon="2.972151">
        <ele>89.0</ele>
        <time>2019-01-14T01:10:10Z</time>
      </trkpt>
      <trkpt lat="41.755839" lon="2.972279">
        <ele>89.0</ele>
        <time>2019-01-14T01:10:12Z</time>
      </trkpt>
      <trkpt lat="41.755751" lon="2.972324">
        <ele>90.0</ele>
        <time>2019-01-14T01:10:14Z</time>
      </trkpt>
      <trkpt lat="41.755713" lon="2.972346">
        <ele>90.0</ele>
        <time>2019-01-14T01:10:15Z</time>
      </trkpt>
      <trkpt lat="41.755668" lon="2.972376">
        <ele>90.0</ele>
        <time>2019-01-14T01:10:15Z</time>
      </trkpt>
      <trkpt lat="41.755630" lon="2.972393">
        <ele>90.0</ele>
        <time>2019-01-14T01:10:16Z</time>
      </trkpt>
      <trkpt lat="41.755590" lon="2.972413">
        <ele>90.0</ele>
        <time>2019-01-14T01:10:17Z</time>
      </trkpt>
      <trkpt lat="41.755342" lon="2.972553">
        <ele>89.0</ele>
        <time>2019-01-14T01:10:21Z</time>
      </trkpt>
      <trkpt lat="41.755234" lon="2.972605">
        <ele>89.0</ele>
        <time>2019-01-14T01:10:23Z</time>
      </trkpt>
      <trkpt lat="41.755200" lon="2.972630">
        <ele>89.0</ele>
        <time>2019-01-14T01:10:23Z</time>
      </trkpt>
      <trkpt lat="41.755170" lon="2.972673">
        <ele>89.0</ele>
        <time>2019-01-14T01:10:24Z</time>
      </trkpt>
      <trkpt lat="41.755145" lon="2.972721">
        <ele>89.0</ele>
        <time>2019-01-14T01:10:25Z</time>
      </trkpt>
      <trkpt lat="41.755127" lon="2.972772">
        <ele>89.0</ele>
        <time>2019-01-14T01:10:25Z</time>
      </trkpt>
      <trkpt lat="41.755106" lon="2.972939">
        <ele>89.0</ele>
        <time>2019-01-14T01:10:28Z</time>
      </trkpt>
      <trkpt lat="41.755148" lon="2.973109">
        <ele>88.0</ele>
        <time>2019-01-14T01:10:30Z</time>
      </trkpt>
      <trkpt lat="41.755163" lon="2.973167">
        <ele>88.0</ele>
        <time>2019-01-14T01:10:30Z</time>
      </trkpt>
      <trkpt lat="41.755187" lon="2.973223">
        <ele>88.0</ele>
        <time>2019-01-14T01:10:31Z</time>
      </trkpt>
      <trkpt lat="41.755273" lon="2.973519">
        <ele>88.0</ele>
        <time>2019-01-14T01:10:35Z</time>
      </trkpt>
      <trkpt lat="41.755325" lon="2.973677">
        <ele>88.0</ele>
        <time>2019-01-14T01:10:37Z</time>
      </trkpt>
      <trkpt lat="41.755337" lon="2.973731">
        <ele>88.0</ele>
        <time>2019-01-14T01:10:38Z</time>
      </trkpt>
      <trkpt lat="41.755352" lon="2.973784">
        <ele>88.0</ele>
        <time>2019-01-14T01:10:38Z</time>
      </trkpt>
      <trkpt lat="41.755368" lon="2.973829">
        <ele>88.0</ele>
        <time>2019-01-14T01:10:39Z</time>
      </trkpt>
      <trkpt lat="41.755387" lon="2.973877">
        <ele>88.0</ele>
        <time>2019-01-14T01:10:40Z</time>
      </trkpt>
      <trkpt lat="41.755405" lon="2.973921">
        <ele>88.0</ele>
        <time>2019-01-14T01:10:40Z</time>
      </trkpt>
      <trkpt lat="41.755439" lon="2.973956">
        <ele>88.0</ele>
        <time>2019-01-14T01:10:41Z</time>
      </trkpt>
      <trkpt lat="41.755531" lon="2.974003">
        <ele>88.0</ele>
        <time>2019-01-14T01:10:42Z</time>
      </trkpt>
      <trkpt lat="41.755724" lon="2.973965">
        <ele>89.0</ele>
        <time>2019-01-14T01:10:46Z</time>
      </trkpt>
      <trkpt lat="41.755827" lon="2.973905">
        <ele>89.0</ele>
        <time>2019-01-14T01:10:47Z</time>
      </trkpt>
      <trkpt lat="41.755985" lon="2.973799">
        <ele>91.0</ele>
        <time>2019-01-14T01:10:50Z</time>
      </trkpt>
      <trkpt lat="41.756040" lon="2.973758">
        <ele>91.0</ele>
        <time>2019-01-14T01:10:51Z</time>
      </trkpt>
      <trkpt lat="41.756095" lon="2.973720">
        <ele>92.0</ele>
        <time>2019-01-14T01:10:52Z</time>
      </trkpt>
      <trkpt lat="41.756150" lon="2.973675">
        <ele>92.0</ele>
        <time>2019-01-14T01:10:53Z</time>
      </trkpt>
      <trkpt lat="41.756206" lon="2.973633">
        <ele>93.0</ele>
        <time>2019-01-14T01:10:54Z</time>
      </trkpt>
      <trkpt lat="41.756264" lon="2.973584">
        <ele>93.0</ele>
        <time>2019-01-14T01:10:55Z</time>
      </trkpt>
      <trkpt lat="41.756325" lon="2.973529">
        <ele>91.0</ele>
        <time>2019-01-14T01:10:57Z</time>
      </trkpt>
      <trkpt lat="41.756391" lon="2.973477">
        <ele>89.0</ele>
        <time>2019-01-14T01:10:58Z</time>
      </trkpt>
      <trkpt lat="41.756458" lon="2.973447">
        <ele>88.0</ele>
        <time>2019-01-14T01:10:59Z</time>
      </trkpt>
      <trkpt lat="41.756534" lon="2.973433">
        <ele>86.0</ele>
        <time>2019-01-14T01:11:00Z</time>
      </trkpt>
      <trkpt lat="41.756611" lon="2.973420">
        <ele>86.0</ele>
        <time>2019-01-14T01:11:01Z</time>
      </trkpt>
      <trkpt lat="41.756837" lon="2.973343">
        <ele>84.0</ele>
        <time>2019-01-14T01:11:05Z</time>
      </trkpt>
      <trkpt lat="41.756910" lon="2.973291">
        <ele>84.0</ele>
        <time>2019-01-14T01:11:06Z</time>
      </trkpt>
      <trkpt lat="41.756979" lon="2.973223">
        <ele>83.0</ele>
        <time>2019-01-14T01:11:08Z</time>
      </trkpt>
      <trkpt lat="41.757038" lon="2.973143">
        <ele>83.0</ele>
        <time>2019-01-14T01:11:09Z</time>
      </trkpt>
      <trkpt lat="41.757090" lon="2.973058">
        <ele>83.0</ele>
        <time>2019-01-14T01:11:10Z</time>
      </trkpt>
      <trkpt lat="41.757142" lon="2.972971">
        <ele>82.0</ele>
        <time>2019-01-14T01:11:12Z</time>
      </trkpt>
      <trkpt lat="41.757204" lon="2.972907">
        <ele>82.0</ele>
        <time>2019-01-14T01:11:13Z</time>
      </trkpt>
      <trkpt lat="41.757277" lon="2.972877">
        <ele>82.0</ele>
        <time>2019-01-14T01:11:14Z</time>
      </trkpt>
      <trkpt lat="41.757343" lon="2.972839">
        <ele>81.0</ele>
        <time>2019-01-14T01:11:15Z</time>
      </trkpt>
      <trkpt lat="41.757410" lon="2.972781">
        <ele>81.0</ele>
        <time>2019-01-14T01:11:17Z</time>
      </trkpt>
      <trkpt lat="41.757611" lon="2.972601">
        <ele>81.0</ele>
        <time>2019-01-14T01:11:21Z</time>
      </trkpt>
      <trkpt lat="41.757681" lon="2.972427">
        <ele>80.0</ele>
        <time>2019-01-14T01:11:23Z</time>
      </trkpt>
      <trkpt lat="41.757678" lon="2.972319">
        <ele>80.0</ele>
        <time>2019-01-14T01:11:24Z</time>
      </trkpt>
      <trkpt lat="41.757650" lon="2.972009">
        <ele>80.0</ele>
        <time>2019-01-14T01:11:28Z</time>
      </trkpt>
      <trkpt lat="41.757651" lon="2.971913">
        <ele>80.0</ele>
        <time>2019-01-14T01:11:29Z</time>
      </trkpt>
      <trkpt lat="41.757664" lon="2.971818">
        <ele>80.0</ele>
        <time>2019-01-14T01:11:30Z</time>
      </trkpt>
      <trkpt lat="41.757676" lon="2.971541">
        <ele>80.0</ele>
        <time>2019-01-14T01:11:34Z</time>
      </trkpt>
      <trkpt lat="41.757708" lon="2.971368">
        <ele>80.0</ele>
        <time>2019-01-14T01:11:36Z</time>
      </trkpt>
      <trkpt lat="41.757767" lon="2.971259">
        <ele>80.0</ele>
        <time>2019-01-14T01:11:37Z</time>
      </trkpt>
      <trkpt lat="41.757859" lon="2.971261">
        <ele>80.0</ele>
        <time>2019-01-14T01:11:39Z</time>
      </trkpt>
      <trkpt lat="41.757946" lon="2.971327">
        <ele>80.0</ele>
        <time>2019-01-14T01:11:40Z</time>
      </trkpt>
      <trkpt lat="41.757973" lon="2.971355">
        <ele>80.0</ele>
        <time>2019-01-14T01:11:41Z</time>
      </trkpt>
      <trkpt lat="41.758002" lon="2.971385">
        <ele>80.0</ele>
        <time>2019-01-14T01:11:41Z</time>
      </trkpt>
      <trkpt lat="41.758033" lon="2.971417">
        <ele>81.0</ele>
        <time>2019-01-14T01:11:42Z</time>
      </trkpt>
      <trkpt lat="41.758068" lon="2.971459">
        <ele>81.0</ele>
        <time>2019-01-14T01:11:43Z</time>
      </trkpt>
      <trkpt lat="41.758098" lon="2.971502">
        <ele>81.0</ele>
        <time>2019-01-14T01:11:44Z</time>
      </trkpt>
      <trkpt lat="41.758122" lon="2.971548">
        <ele>81.0</ele>
        <time>2019-01-14T01:11:44Z</time>
      </trkpt>
      <trkpt lat="41.758151" lon="2.971592">
        <ele>81.0</ele>
        <time>2019-01-14T01:11:45Z</time>
      </trkpt>
      <trkpt lat="41.758181" lon="2.971634">
        <ele>81.0</ele>
        <time>2019-01-14T01:11:46Z</time>
      </trkpt>
      <trkpt lat="41.758211" lon="2.971675">
        <ele>82.0</ele>
        <time>2019-01-14T01:11:46Z</time>
      </trkpt>
      <trkpt lat="41.758238" lon="2.971716">
        <ele>82.0</ele>
        <time>2019-01-14T01:11:47Z</time>
      </trkpt>
      <trkpt lat="41.758262" lon="2.971755">
        <ele>82.0</ele>
        <time>2019-01-14T01:11:48Z</time>
      </trkpt>
      <trkpt lat="41.758315" lon="2.971832">
        <ele>82.0</ele>
        <time>2019-01-14T01:11:49Z</time>
      </trkpt>
      <trkpt lat="41.758471" lon="2.972069">
        <ele>83.0</ele>
        <time>2019-01-14T01:11:53Z</time>
      </trkpt>
      <trkpt lat="41.758514" lon="2.972148">
        <ele>83.0</ele>
        <time>2019-01-14T01:11:54Z</time>
      </trkpt>
      <trkpt lat="41.758532" lon="2.972188">
        <ele>83.0</ele>
        <time>2019-01-14T01:11:54Z</time>
      </trkpt>
      <trkpt lat="41.758551" lon="2.972231">
        <ele>84.0</ele>
        <time>2019-01-14T01:11:55Z</time>
      </trkpt>
      <trkpt lat="41.758566" lon="2.972277">
        <ele>84.0</ele>
        <time>2019-01-14T01:11:56Z</time>
      </trkpt>
      <trkpt lat="41.758580" lon="2.972324">
        <ele>84.0</ele>
        <time>2019-01-14T01:11:56Z</time>
      </trkpt>
      <trkpt lat="41.758607" lon="2.972416">
        <ele>84.0</ele>
        <time>2019-01-14T01:11:57Z</time>
      </trkpt>
      <trkpt lat="41.758623" lon="2.972460">
        <ele>84.0</ele>
        <time>2019-01-14T01:11:58Z</time>
      </trkpt>
      <trkpt lat="41.758641" lon="2.972501">
        <ele>84.0</ele>
        <time>2019-01-14T01:11:58Z</time>
      </trkpt>
      <trkpt lat="41.758656" lon="2.972541">
        <ele>84.0</ele>
        <time>2019-01-14T01:11:59Z</time>
      </trkpt>
      <trkpt lat="41.758670" lon="2.972586">
        <ele>85.0</ele>
        <time>2019-01-14T01:12:00Z</time>
      </trkpt>
      <trkpt lat="41.758715" lon="2.972744">
        <ele>85.0</ele>
        <time>2019-01-14T01:12:02Z</time>
      </trkpt>
      <trkpt lat="41.758729" lon="2.972786">
        <ele>85.0</ele>
        <time>2019-01-14T01:12:02Z</time>
      </trkpt>
      <trkpt lat="41.758738" lon="2.972827">
        <ele>85.0</ele>
        <time>2019-01-14T01:12:03Z</time>
      </trkpt>
      <trkpt lat="41.758751" lon="2.972870">
        <ele>86.0</ele>
        <time>2019-01-14T01:12:03Z</time>
      </trkpt>
      <trkpt lat="41.758764" lon="2.972913">
        <ele>86.0</ele>
        <time>2019-01-14T01:12:04Z</time>
      </trkpt>
      <trkpt lat="41.758817" lon="2.973116">
        <ele>87.0</ele>
        <time>2019-01-14T01:12:06Z</time>
      </trkpt>
      <trkpt lat="41.758832" lon="2.973158">
        <ele>87.0</ele>
        <time>2019-01-14T01:12:07Z</time>
      </trkpt>
      <trkpt lat="41.758841" lon="2.973200">
        <ele>87.0</ele>
        <time>2019-01-14T01:12:07Z</time>
      </trkpt>
      <trkpt lat="41.758847" lon="2.973239">
        <ele>87.0</ele>
        <time>2019-01-14T01:12:08Z</time>
      </trkpt>
      <trkpt lat="41.758856" lon="2.973282">
        <ele>87.0</ele>
        <time>2019-01-14T01:12:08Z</time>
      </trkpt>
      <trkpt lat="41.758879" lon="2.973414">
        <ele>88.0</ele>
        <time>2019-01-14T01:12:10Z</time>
      </trkpt>
      <trkpt lat="41.758878" lon="2.973455">
        <ele>88.0</ele>
        <time>2019-01-14T01:12:11Z</time>
      </trkpt>
      <trkpt lat="41.758867" lon="2.973495">
        <ele>88.0</ele>
        <time>2019-01-14T01:12:11Z</time>
      </trkpt>
      <trkpt lat="41.758846" lon="2.973536">
        <ele>88.0</ele>
        <time>2019-01-14T01:12:12Z</time>
      </trkpt>
      <trkpt lat="41.758827" lon="2.973567">
        <ele>88.0</ele>
        <time>2019-01-14T01:12:12Z</time>
      </trkpt>
      <trkpt lat="41.758752" lon="2.973721">
        <ele>89.0</ele>
        <time>2019-01-14T01:12:14Z</time>
      </trkpt>
      <trkpt lat="41.758734" lon="2.973757">
        <ele>89.0</ele>
        <time>2019-01-14T01:12:15Z</time>
      </trkpt>
      <trkpt lat="41.758713" lon="2.973797">
        <ele>89.0</ele>
        <time>2019-01-14T01:12:15Z</time>
      </trkpt>
      <trkpt lat="41.758694" lon="2.973834">
        <ele>89.0</ele>
        <time>2019-01-14T01:12:16Z</time>
      </trkpt>
      <trkpt lat="41.758677" lon="2.973869">
        <ele>89.0</ele>
        <time>2019-01-14T01:12:16Z</time>
      </trkpt>
      <trkpt lat="41.758662" lon="2.973906">
        <ele>89.0</ele>
        <time>2019-01-14T01:12:17Z</time>
      </trkpt>
      <trkpt lat="41.758618" lon="2.974023">
        <ele>89.0</ele>
        <time>2019-01-14T01:12:18Z</time>
      </trkpt>
      <trkpt lat="41.758620" lon="2.974150">
        <ele>90.0</ele>
        <time>2019-01-14T01:12:20Z</time>
      </trkpt>
      <trkpt lat="41.758621" lon="2.974199">
        <ele>90.0</ele>
        <time>2019-01-14T01:12:21Z</time>
      </trkpt>
      <trkpt lat="41.758625" lon="2.974247">
        <ele>90.0</ele>
        <time>2019-01-14T01:12:21Z</time>
      </trkpt>
      <trkpt lat="41.758623" lon="2.974294">
        <ele>90.0</ele>
        <time>2019-01-14T01:12:22Z</time>
      </trkpt>
      <trkpt lat="41.758601" lon="2.974465">
        <ele>91.0</ele>
        <time>2019-01-14T01:12:24Z</time>
      </trkpt>
      <trkpt lat="41.758535" lon="2.974613">
        <ele>91.0</ele>
        <time>2019-01-14T01:12:26Z</time>
      </trkpt>
      <trkpt lat="41.758518" lon="2.974649">
        <ele>91.0</ele>
        <time>2019-01-14T01:12:26Z</time>
      </trkpt>
      <trkpt lat="41.758504" lon="2.974688">
        <ele>91.0</ele>
        <time>2019-01-14T01:12:27Z</time>
      </trkpt>
      <trkpt lat="41.758488" lon="2.974725">
        <ele>92.0</ele>
        <time>2019-01-14T01:12:27Z</time>
      </trkpt>
      <trkpt lat="41.758474" lon="2.974763">
        <ele>92.0</ele>
        <time>2019-01-14T01:12:28Z</time>
      </trkpt>
      <trkpt lat="41.758455" lon="2.974909">
        <ele>92.0</ele>
        <time>2019-01-14T01:12:30Z</time>
      </trkpt>
      <trkpt lat="41.758449" lon="2.974951">
        <ele>92.0</ele>
        <time>2019-01-14T01:12:30Z</time>
      </trkpt>
      <trkpt lat="41.758443" lon="2.974994">
        <ele>92.0</ele>
        <time>2019-01-14T01:12:31Z</time>
      </trkpt>
      <trkpt lat="41.758438" lon="2.975037">
        <ele>92.0</ele>
        <time>2019-01-14T01:12:31Z</time>
      </trkpt>
      <trkpt lat="41.758434" lon="2.975082">
        <ele>93.0</ele>
        <time>2019-01-14T01:12:32Z</time>
      </trkpt>
      <trkpt lat="41.758380" lon="2.975408">
        <ele>94.0</ele>
        <time>2019-01-14T01:12:36Z</time>
      </trkpt>
      <trkpt lat="41.758361" lon="2.975451">
        <ele>94.0</ele>
        <time>2019-01-14T01:12:36Z</time>
      </trkpt>
      <trkpt lat="41.758344" lon="2.975492">
        <ele>94.0</ele>
        <time>2019-01-14T01:12:37Z</time>
      </trkpt>
      <trkpt lat="41.758329" lon="2.975530">
        <ele>94.0</ele>
        <time>2019-01-14T01:12:37Z</time>
      </trkpt>
      <trkpt lat="41.758319" lon="2.975567">
        <ele>94.0</ele>
        <time>2019-01-14T01:12:38Z</time>
      </trkpt>
      <trkpt lat="41.758312" lon="2.975649">
        <ele>94.0</ele>
        <time>2019-01-14T01:12:39Z</time>
      </trkpt>
      <trkpt lat="41.758311" lon="2.975695">
        <ele>94.0</ele>
        <time>2019-01-14T01:12:39Z</time>
      </trkpt>
      <trkpt lat="41.758315" lon="2.975739">
        <ele>95.0</ele>
        <time>2019-01-14T01:12:40Z</time>
      </trkpt>
      <trkpt lat="41.758322" lon="2.975789">
        <ele>95.0</ele>
        <time>2019-01-14T01:12:41Z</time>
      </trkpt>
      <trkpt lat="41.758330" lon="2.975836">
        <ele>95.0</ele>
        <time>2019-01-14T01:12:41Z</time>
      </trkpt>
      <trkpt lat="41.758361" lon="2.975929">
        <ele>95.0</ele>
        <time>2019-01-14T01:12:42Z</time>
      </trkpt>
      <trkpt lat="41.758418" lon="2.976069">
        <ele>96.0</ele>
        <time>2019-01-14T01:12:44Z</time>
      </trkpt>
      <trkpt lat="41.758535" lon="2.976355">
        <ele>97.0</ele>
        <time>2019-01-14T01:12:48Z</time>
      </trkpt>
      <trkpt lat="41.758679" lon="2.976638">
        <ele>98.0</ele>
        <time>2019-01-14T01:12:52Z</time>
      </trkpt>
      <trkpt lat="41.758714" lon="2.976684">
        <ele>98.0</ele>
        <time>2019-01-14T01:12:53Z</time>
      </trkpt>
      <trkpt lat="41.758857" lon="2.976811">
        <ele>99.0</ele>
        <time>2019-01-14T01:12:56Z</time>
      </trkpt>
      <trkpt lat="41.758910" lon="2.976852">
        <ele>99.0</ele>
        <time>2019-01-14T01:12:57Z</time>
      </trkpt>
      <trkpt lat="41.758970" lon="2.976886">
        <ele>99.0</ele>
        <time>2019-01-14T01:12:58Z</time>
      </trkpt>
      <trkpt lat="41.759034" lon="2.976916">
        <ele>99.0</ele>
        <time>2019-01-14T01:12:59Z</time>
      </trkpt>
      <trkpt lat="41.759103" lon="2.976909">
        <ele>99.0</ele>
        <time>2019-01-14T01:13:00Z</time>
      </trkpt>
      <trkpt lat="41.759169" lon="2.976860">
        <ele>100.0</ele>
        <time>2019-01-14T01:13:01Z</time>
      </trkpt>
      <trkpt lat="41.759268" lon="2.976723">
        <ele>100.0</ele>
        <time>2019-01-14T01:13:03Z</time>
      </trkpt>
      <trkpt lat="41.759298" lon="2.976654">
        <ele>100.0</ele>
        <time>2019-01-14T01:13:04Z</time>
      </trkpt>
      <trkpt lat="41.759334" lon="2.976570">
        <ele>100.0</ele>
        <time>2019-01-14T01:13:06Z</time>
      </trkpt>
      <trkpt lat="41.759352" lon="2.976466">
        <ele>100.0</ele>
        <time>2019-01-14T01:13:07Z</time>
      </trkpt>
      <trkpt lat="41.759357" lon="2.976336">
        <ele>100.0</ele>
        <time>2019-01-14T01:13:08Z</time>
      </trkpt>
      <trkpt lat="41.759391" lon="2.976213">
        <ele>101.0</ele>
        <time>2019-01-14T01:13:10Z</time>
      </trkpt>
      <trkpt lat="41.759438" lon="2.976111">
        <ele>101.0</ele>
        <time>2019-01-14T01:13:11Z</time>
      </trkpt>
      <trkpt lat="41.759497" lon="2.976027">
        <ele>101.0</ele>
        <time>2019-01-14T01:13:13Z</time>
      </trkpt>
      <trkpt lat="41.759566" lon="2.975938">
        <ele>101.0</ele>
        <time>2019-01-14T01:13:14Z</time>
      </trkpt>
      <trkpt lat="41.759605" lon="2.975851">
        <ele>101.0</ele>
        <time>2019-01-14T01:13:16Z</time>
      </trkpt>
      <trkpt lat="41.759636" lon="2.975755">
        <ele>101.0</ele>
        <time>2019-01-14T01:13:17Z</time>
      </trkpt>
      <trkpt lat="41.759672" lon="2.975643">
        <ele>101.0</ele>
        <time>2019-01-14T01:13:18Z</time>
      </trkpt>
      <trkpt lat="41.759713" lon="2.975542">
        <ele>101.0</ele>
        <time>2019-01-14T01:13:20Z</time>
      </trkpt>
      <trkpt lat="41.759752" lon="2.975484">
        <ele>101.0</ele>
        <time>2019-01-14T01:13:21Z</time>
      </trkpt>
      <trkpt lat="41.759791" lon="2.975490">
        <ele>101.0</ele>
        <time>2019-01-14T01:13:21Z</time>
      </trkpt>
      <trkpt lat="41.759892" lon="2.975538">
        <ele>101.0</ele>
        <time>2019-01-14T01:13:23Z</time>
      </trkpt>
      <trkpt lat="41.759970" lon="2.975583">
        <ele>101.0</ele>
        <time>2019-01-14T01:13:24Z</time>
      </trkpt>
      <trkpt lat="41.760120" lon="2.975469">
        <ele>101.0</ele>
        <time>2019-01-14T01:13:27Z</time>
      </trkpt>
      <trkpt lat="41.760188" lon="2.975386">
        <ele>101.0</ele>
        <time>2019-01-14T01:13:28Z</time>
      </trkpt>
      <trkpt lat="41.760256" lon="2.975299">
        <ele>101.0</ele>
        <time>2019-01-14T01:13:30Z</time>
      </trkpt>
      <trkpt lat="41.760322" lon="2.975211">
        <ele>101.0</ele>
        <time>2019-01-14T01:13:31Z</time>
      </trkpt>
      <trkpt lat="41.760379" lon="2.975161">
        <ele>101.0</ele>
        <time>2019-01-14T01:13:33Z</time>
      </trkpt>
      <trkpt lat="41.760476" lon="2.975186">
        <ele>100.0</ele>
        <time>2019-01-14T01:13:34Z</time>
      </trkpt>
      <trkpt lat="41.760558" lon="2.975235">
        <ele>100.0</ele>
        <time>2019-01-14T01:13:36Z</time>
      </trkpt>
      <trkpt lat="41.760642" lon="2.975264">
        <ele>100.0</ele>
        <time>2019-01-14T01:13:37Z</time>
      </trkpt>
      <trkpt lat="41.760729" lon="2.975292">
        <ele>100.0</ele>
        <time>2019-01-14T01:13:38Z</time>
      </trkpt>
      <trkpt lat="41.760825" lon="2.975327">
        <ele>100.0</ele>
        <time>2019-01-14T01:13:40Z</time>
      </trkpt>
      <trkpt lat="41.760917" lon="2.975365">
        <ele>100.0</ele>
        <time>2019-01-14T01:13:42Z</time>
      </trkpt>
      <trkpt lat="41.761009" lon="2.975374">
        <ele>100.0</ele>
        <time>2019-01-14T01:13:43Z</time>
      </trkpt>
      <trkpt lat="41.761110" lon="2.975318">
        <ele>100.0</ele>
        <time>2019-01-14T01:13:45Z</time>
      </trkpt>
      <trkpt lat="41.761197" lon="2.975222">
        <ele>99.0</ele>
        <time>2019-01-14T01:13:47Z</time>
      </trkpt>
      <trkpt lat="41.761218" lon="2.975072">
        <ele>99.0</ele>
        <time>2019-01-14T01:13:48Z</time>
      </trkpt>
      <trkpt lat="41.761198" lon="2.974924">
        <ele>99.0</ele>
        <time>2019-01-14T01:13:50Z</time>
      </trkpt>
      <trkpt lat="41.761195" lon="2.974780">
        <ele>99.0</ele>
        <time>2019-01-14T01:13:52Z</time>
      </trkpt>
      <trkpt lat="41.761234" lon="2.974647">
        <ele>99.0</ele>
        <time>2019-01-14T01:13:54Z</time>
      </trkpt>
      <trkpt lat="41.761295" lon="2.974552">
        <ele>98.0</ele>
        <time>2019-01-14T01:13:55Z</time>
      </trkpt>
      <trkpt lat="41.761335" lon="2.974496">
        <ele>98.0</ele>
        <time>2019-01-14T01:13:56Z</time>
      </trkpt>
      <trkpt lat="41.761368" lon="2.974469">
        <ele>98.0</ele>
        <time>2019-01-14T01:13:57Z</time>
      </trkpt>
      <trkpt lat="41.761495" lon="2.974493">
        <ele>98.0</ele>
        <time>2019-01-14T01:13:59Z</time>
      </trkpt>
      <trkpt lat="41.761622" lon="2.974518">
        <ele>97.0</ele>
        <time>2019-01-14T01:14:01Z</time>
      </trkpt>
      <trkpt lat="41.761745" lon="2.974496">
        <ele>97.0</ele>
        <time>2019-01-14T01:14:03Z</time>
      </trkpt>
      <trkpt lat="41.761851" lon="2.974428">
        <ele>96.0</ele>
        <time>2019-01-14T01:14:05Z</time>
      </trkpt>
      <trkpt lat="41.761953" lon="2.974349">
        <ele>96.0</ele>
        <time>2019-01-14T01:14:07Z</time>
      </trkpt>
      <trkpt lat="41.762044" lon="2.974272">
        <ele>95.0</ele>
        <time>2019-01-14T01:14:08Z</time>
      </trkpt>
      <trkpt lat="41.762098" lon="2.974130">
        <ele>95.0</ele>
        <time>2019-01-14T01:14:10Z</time>
      </trkpt>
      <trkpt lat="41.762092" lon="2.973828">
        <ele>94.0</ele>
        <time>2019-01-14T01:14:14Z</time>
      </trkpt>
      <trkpt lat="41.762025" lon="2.973528">
        <ele>93.0</ele>
        <time>2019-01-14T01:14:17Z</time>
      </trkpt>
      <trkpt lat="41.762034" lon="2.973373">
        <ele>93.0</ele>
        <time>2019-01-14T01:14:19Z</time>
      </trkpt>
      <trkpt lat="41.762033" lon="2.973207">
        <ele>92.0</ele>
        <time>2019-01-14T01:14:21Z</time>
      </trkpt>
      <trkpt lat="41.762056" lon="2.973080">
        <ele>92.0</ele>
        <time>2019-01-14T01:14:23Z</time>
      </trkpt>
      <trkpt lat="41.762158" lon="2.973002">
        <ele>92.0</ele>
        <time>2019-01-14T01:14:25Z</time>
      </trkpt>
      <trkpt lat="41.762203" lon="2.972924">
        <ele>91.0</ele>
        <time>2019-01-14T01:14:26Z</time>
      </trkpt>
      <trkpt lat="41.762265" lon="2.972920">
        <ele>91.0</ele>
        <time>2019-01-14T01:14:27Z</time>
      </trkpt>
      <trkpt lat="41.762319" lon="2.972967">
        <ele>91.0</ele>
        <time>2019-01-14T01:14:28Z</time>
      </trkpt>
      <trkpt lat="41.762442" lon="2.973099">
        <ele>90.0</ele>
        <time>2019-01-14T01:14:30Z</time>
      </trkpt>
      <trkpt lat="41.762536" lon="2.973214">
        <ele>90.0</ele>
        <time>2019-01-14T01:14:33Z</time>
      </trkpt>
      <trkpt lat="41.762701" lon="2.973426">
        <ele>89.0</ele>
        <time>2019-01-14T01:14:36Z</time>
      </trkpt>
      <trkpt lat="41.762775" lon="2.973513">
        <ele>88.0</ele>
        <time>2019-01-14T01:14:38Z</time>
      </trkpt>
      <trkpt lat="41.762853" lon="2.973595">
        <ele>88.0</ele>
        <time>2019-01-14T01:14:39Z</time>
      </trkpt>
      <trkpt lat="41.762940" lon="2.973661">
        <ele>87.0</ele>
        <time>2019-01-14T01:14:41Z</time>
      </trkpt>
      <trkpt lat="41.763030" lon="2.973717">
        <ele>87.0</ele>
        <time>2019-01-14T01:14:43Z</time>
      </trkpt>
      <trkpt lat="41.763130" lon="2.973731">
        <ele>87.0</ele>
        <time>2019-01-14T01:14:44Z</time>
      </trkpt>
      <trkpt lat="41.763225" lon="2.973683">
        <ele>86.0</ele>
        <time>2019-01-14T01:14:46Z</time>
      </trkpt>
      <trkpt lat="41.763305" lon="2.973592">
        <ele>86.0</ele>
        <time>2019-01-14T01:14:47Z</time>
      </trkpt>
      <trkpt lat="41.763393" lon="2.973504">
        <ele>85.0</ele>
        <time>2019-01-14T01:14:49Z</time>
      </trkpt>
      <trkpt lat="41.763478" lon="2.973471">
        <ele>85.0</ele>
        <time>2019-01-14T01:14:51Z</time>
      </trkpt>
      <trkpt lat="41.763616" lon="2.973491">
        <ele>84.0</ele>
        <time>2019-01-14T01:14:53Z</time>
      </trkpt>
      <trkpt lat="41.763687" lon="2.973582">
        <ele>84.0</ele>
        <time>2019-01-14T01:14:54Z</time>
      </trkpt>
      <trkpt lat="41.763737" lon="2.973696">
        <ele>83.0</ele>
        <time>2019-01-14T01:14:56Z</time>
      </trkpt>
      <trkpt lat="41.763810" lon="2.973788">
        <ele>83.0</ele>
        <time>2019-01-14T01:14:58Z</time>
      </trkpt>
      <trkpt lat="41.763886" lon="2.973864">
        <ele>83.0</ele>
        <time>2019-01-14T01:14:59Z</time>
      </trkpt>
      <trkpt lat="41.763972" lon="2.973910">
        <ele>82.0</ele>
        <time>2019-01-14T01:15:01Z</time>
      </trkpt>
      <trkpt lat="41.764163" lon="2.973870">
        <ele>82.0</ele>
        <time>2019-01-14T01:15:04Z</time>
      </trkpt>
      <trkpt lat="41.764341" lon="2.973749">
        <ele>81.0</ele>
        <time>2019-01-14T01:15:07Z</time>
      </trkpt>
      <trkpt lat="41.764427" lon="2.973737">
        <ele>81.0</ele>
        <time>2019-01-14T01:15:08Z</time>
      </trkpt>
      <trkpt lat="41.764517" lon="2.973800">
        <ele>79.0</ele>
        <time>2019-01-14T01:15:10Z</time>
      </trkpt>
      <trkpt lat="41.764615" lon="2.973881">
        <ele>77.0</ele>
        <time>2019-01-14T01:15:12Z</time>
      </trkpt>
      <trkpt lat="41.764619" lon="2.974020">
        <ele>75.0</ele>
        <time>2019-01-14T01:15:13Z</time>
      </trkpt>
      <trkpt lat="41.764591" lon="2.974161">
        <ele>74.0</ele>
        <time>2019-01-14T01:15:15Z</time>
      </trkpt>
      <trkpt lat="41.764608" lon="2.974297">
        <ele>72.0</ele>
        <time>2019-01-14T01:15:17Z</time>
      </trkpt>
      <trkpt lat="41.764661" lon="2.974421">
        <ele>70.0</ele>
        <time>2019-01-14T01:15:19Z</time>
      </trkpt>
      <trkpt lat="41.764733" lon="2.974532">
        <ele>70.0</ele>
        <time>2019-01-14T01:15:20Z</time>
      </trkpt>
      <trkpt lat="41.764825" lon="2.974613">
        <ele>69.0</ele>
        <time>2019-01-14T01:15:22Z</time>
      </trkpt>
      <trkpt lat="41.764929" lon="2.974661">
        <ele>69.0</ele>
        <time>2019-01-14T01:15:24Z</time>
      </trkpt>
      <trkpt lat="41.765039" lon="2.974688">
        <ele>69.0</ele>
        <time>2019-01-14T01:15:26Z</time>
      </trkpt>
      <trkpt lat="41.765156" lon="2.974683">
        <ele>69.0</ele>
        <time>2019-01-14T01:15:27Z</time>
      </trkpt>
      <trkpt lat="41.765259" lon="2.974634">
        <ele>70.0</ele>
        <time>2019-01-14T01:15:29Z</time>
      </trkpt>
      <trkpt lat="41.765364" lon="2.974565">
        <ele>70.0</ele>
        <time>2019-01-14T01:15:31Z</time>
      </trkpt>
      <trkpt lat="41.765460" lon="2.974501">
        <ele>71.0</ele>
        <time>2019-01-14T01:15:33Z</time>
      </trkpt>
      <trkpt lat="41.765564" lon="2.974485">
        <ele>72.0</ele>
        <time>2019-01-14T01:15:34Z</time>
      </trkpt>
      <trkpt lat="41.765662" lon="2.974540">
        <ele>72.0</ele>
        <time>2019-01-14T01:15:36Z</time>
      </trkpt>
      <trkpt lat="41.765737" lon="2.974628">
        <ele>73.0</ele>
        <time>2019-01-14T01:15:38Z</time>
      </trkpt>
      <trkpt lat="41.765813" lon="2.974724">
        <ele>73.0</ele>
        <time>2019-01-14T01:15:39Z</time>
      </trkpt>
      <trkpt lat="41.765863" lon="2.974823">
        <ele>73.0</ele>
        <time>2019-01-14T01:15:41Z</time>
      </trkpt>
      <trkpt lat="41.765895" lon="2.974905">
        <ele>73.0</ele>
        <time>2019-01-14T01:15:42Z</time>
      </trkpt>
      <trkpt lat="41.765879" lon="2.974996">
        <ele>73.0</ele>
        <time>2019-01-14T01:15:43Z</time>
      </trkpt>
      <trkpt lat="41.765821" lon="2.975100">
        <ele>74.0</ele>
        <time>2019-01-14T01:15:45Z</time>
      </trkpt>
      <trkpt lat="41.765784" lon="2.975172">
        <ele>74.0</ele>
        <time>2019-01-14T01:15:46Z</time>
      </trkpt>
      <trkpt lat="41.765758" lon="2.975246">
        <ele>75.0</ele>
        <time>2019-01-14T01:15:47Z</time>
      </trkpt>
      <trkpt lat="41.765746" lon="2.975315">
        <ele>75.0</ele>
        <time>2019-01-14T01:15:47Z</time>
      </trkpt>
      <trkpt lat="41.765736" lon="2.975386">
        <ele>75.0</ele>
        <time>2019-01-14T01:15:48Z</time>
      </trkpt>
      <trkpt lat="41.765735" lon="2.975447">
        <ele>76.0</ele>
        <time>2019-01-14T01:15:49Z</time>
      </trkpt>
      <trkpt lat="41.765731" lon="2.975509">
        <ele>76.0</ele>
        <time>2019-01-14T01:15:50Z</time>
      </trkpt>
      <trkpt lat="41.765738" lon="2.975554">
        <ele>76.0</ele>
        <time>2019-01-14T01:15:50Z</time>
      </trkpt>
      <trkpt lat="41.765754" lon="2.975600">
        <ele>76.0</ele>
        <time>2019-01-14T01:15:51Z</time>
      </trkpt>
      <trkpt lat="41.765774" lon="2.975637">
        <ele>76.0</ele>
        <time>2019-01-14T01:15:52Z</time>
      </trkpt>
      <trkpt lat="41.765843" lon="2.975720">
        <ele>77.0</ele>
        <time>2019-01-14T01:15:53Z</time>
      </trkpt>
      <trkpt lat="41.765916" lon="2.975803">
        <ele>78.0</ele>
        <time>2019-01-14T01:15:55Z</time>
      </trkpt>
      <trkpt lat="41.765952" lon="2.975925">
        <ele>78.0</ele>
        <time>2019-01-14T01:15:56Z</time>
      </trkpt>
      <trkpt lat="41.765954" lon="2.975969">
        <ele>79.0</ele>
        <time>2019-01-14T01:15:57Z</time>
      </trkpt>
      <trkpt lat="41.765940" lon="2.976015">
        <ele>79.0</ele>
        <time>2019-01-14T01:15:57Z</time>
      </trkpt>
      <trkpt lat="41.765910" lon="2.976074">
        <ele>79.0</ele>
        <time>2019-01-14T01:15:58Z</time>
      </trkpt>
      <trkpt lat="41.765856" lon="2.976113">
        <ele>80.0</ele>
        <time>2019-01-14T01:15:59Z</time>
      </trkpt>
      <trkpt lat="41.765826" lon="2.976121">
        <ele>80.0</ele>
        <time>2019-01-14T01:16:00Z</time>
      </trkpt>
      <trkpt lat="41.765794" lon="2.976128">
        <ele>80.0</ele>
        <time>2019-01-14T01:16:00Z</time>
      </trkpt>
      <trkpt lat="41.765763" lon="2.976129">
        <ele>81.0</ele>
        <time>2019-01-14T01:16:01Z</time>
      </trkpt>
      <trkpt lat="41.765730" lon="2.976132">
        <ele>81.0</ele>
        <time>2019-01-14T01:16:01Z</time>
      </trkpt>
      <trkpt lat="41.765597" lon="2.976099">
        <ele>81.0</ele>
        <time>2019-01-14T01:16:03Z</time>
      </trkpt>
      <trkpt lat="41.765348" lon="2.976012">
        <ele>83.0</ele>
        <time>2019-01-14T01:16:07Z</time>
      </trkpt>
      <trkpt lat="41.765313" lon="2.976003">
        <ele>83.0</ele>
        <time>2019-01-14T01:16:08Z</time>
      </trkpt>
      <trkpt lat="41.765280" lon="2.975989">
        <ele>83.0</ele>
        <time>2019-01-14T01:16:09Z</time>
      </trkpt>
      <trkpt lat="41.765248" lon="2.975975">
        <ele>84.0</ele>
        <time>2019-01-14T01:16:09Z</time>
      </trkpt>
      <trkpt lat="41.765214" lon="2.975961">
        <ele>84.0</ele>
        <time>2019-01-14T01:16:10Z</time>
      </trkpt>
      <trkpt lat="41.765075" lon="2.975973">
        <ele>85.0</ele>
        <time>2019-01-14T01:16:12Z</time>
      </trkpt>
      <trkpt lat="41.764887" lon="2.976013">
        <ele>86.0</ele>
        <time>2019-01-14T01:16:15Z</time>
      </trkpt>
      <trkpt lat="41.764811" lon="2.976019">
        <ele>87.0</ele>
        <time>2019-01-14T01:16:16Z</time>
      </trkpt>
      <trkpt lat="41.764772" lon="2.976021">
        <ele>87.0</ele>
        <time>2019-01-14T01:16:17Z</time>
      </trkpt>
      <trkpt lat="41.764736" lon="2.976022">
        <ele>87.0</ele>
        <time>2019-01-14T01:16:17Z</time>
      </trkpt>
      <trkpt lat="41.764703" lon="2.976018">
        <ele>88.0</ele>
        <time>2019-01-14T01:16:18Z</time>
      </trkpt>
      <trkpt lat="41.764670" lon="2.976022">
        <ele>88.0</ele>
        <time>2019-01-14T01:16:18Z</time>
      </trkpt>
      <trkpt lat="41.764636" lon="2.976032">
        <ele>88.0</ele>
        <time>2019-01-14T01:16:19Z</time>
      </trkpt>
      <trkpt lat="41.764523" lon="2.976093">
        <ele>89.0</ele>
        <time>2019-01-14T01:16:21Z</time>
      </trkpt>
      <trkpt lat="41.764499" lon="2.976122">
        <ele>90.0</ele>
        <time>2019-01-14T01:16:21Z</time>
      </trkpt>
      <trkpt lat="41.764470" lon="2.976170">
        <ele>90.0</ele>
        <time>2019-01-14T01:16:22Z</time>
      </trkpt>
      <trkpt lat="41.764444" lon="2.976213">
        <ele>91.0</ele>
        <time>2019-01-14T01:16:23Z</time>
      </trkpt>
      <trkpt lat="41.764422" lon="2.976251">
        <ele>91.0</ele>
        <time>2019-01-14T01:16:23Z</time>
      </trkpt>
      <trkpt lat="41.764398" lon="2.976294">
        <ele>91.0</ele>
        <time>2019-01-14T01:16:24Z</time>
      </trkpt>
      <trkpt lat="41.764376" lon="2.976336">
        <ele>92.0</ele>
        <time>2019-01-14T01:16:25Z</time>
      </trkpt>
      <trkpt lat="41.764312" lon="2.976557">
        <ele>93.0</ele>
        <time>2019-01-14T01:16:27Z</time>
      </trkpt>
      <trkpt lat="41.764313" lon="2.976603">
        <ele>94.0</ele>
        <time>2019-01-14T01:16:28Z</time>
      </trkpt>
      <trkpt lat="41.764319" lon="2.976648">
        <ele>94.0</ele>
        <time>2019-01-14T01:16:29Z</time>
      </trkpt>
      <trkpt lat="41.764329" lon="2.976698">
        <ele>94.0</ele>
        <time>2019-01-14T01:16:29Z</time>
      </trkpt>
      <trkpt lat="41.764356" lon="2.976782">
        <ele>95.0</ele>
        <time>2019-01-14T01:16:30Z</time>
      </trkpt>
      <trkpt lat="41.764377" lon="2.976818">
        <ele>95.0</ele>
        <time>2019-01-14T01:16:31Z</time>
      </trkpt>
      <trkpt lat="41.764394" lon="2.976857">
        <ele>95.0</ele>
        <time>2019-01-14T01:16:31Z</time>
      </trkpt>
      <trkpt lat="41.764409" lon="2.976902">
        <ele>96.0</ele>
        <time>2019-01-14T01:16:32Z</time>
      </trkpt>
      <trkpt lat="41.764424" lon="2.976947">
        <ele>96.0</ele>
        <time>2019-01-14T01:16:33Z</time>
      </trkpt>
      <trkpt lat="41.764501" lon="2.977156">
        <ele>98.0</ele>
        <time>2019-01-14T01:16:35Z</time>
      </trkpt>
      <trkpt lat="41.764537" lon="2.977281">
        <ele>99.0</ele>
        <time>2019-01-14T01:16:37Z</time>
      </trkpt>
      <trkpt lat="41.764547" lon="2.977325">
        <ele>99.0</ele>
        <time>2019-01-14T01:16:37Z</time>
      </trkpt>
      <trkpt lat="41.764559" lon="2.977367">
        <ele>99.0</ele>
        <time>2019-01-14T01:16:38Z</time>
      </trkpt>
      <trkpt lat="41.764568" lon="2.977410">
        <ele>100.0</ele>
        <time>2019-01-14T01:16:39Z</time>
      </trkpt>
      <trkpt lat="41.764574" lon="2.977453">
        <ele>100.0</ele>
        <time>2019-01-14T01:16:39Z</time>
      </trkpt>
      <trkpt lat="41.764589" lon="2.977543">
        <ele>100.0</ele>
        <time>2019-01-14T01:16:40Z</time>
      </trkpt>
      <trkpt lat="41.764622" lon="2.977722">
        <ele>102.0</ele>
        <time>2019-01-14T01:16:42Z</time>
      </trkpt>
      <trkpt lat="41.764634" lon="2.977761">
        <ele>102.0</ele>
        <time>2019-01-14T01:16:43Z</time>
      </trkpt>
      <trkpt lat="41.764642" lon="2.977803">
        <ele>102.0</ele>
        <time>2019-01-14T01:16:43Z</time>
      </trkpt>
      <trkpt lat="41.764660" lon="2.977837">
        <ele>102.0</ele>
        <time>2019-01-14T01:16:44Z</time>
      </trkpt>
      <trkpt lat="41.764756" lon="2.978025">
        <ele>103.0</ele>
        <time>2019-01-14T01:16:47Z</time>
      </trkpt>
      <trkpt lat="41.764775" lon="2.978064">
        <ele>104.0</ele>
        <time>2019-01-14T01:16:47Z</time>
      </trkpt>
      <trkpt lat="41.764797" lon="2.978103">
        <ele>104.0</ele>
        <time>2019-01-14T01:16:48Z</time>
      </trkpt>
      <trkpt lat="41.764811" lon="2.978141">
        <ele>104.0</ele>
        <time>2019-01-14T01:16:48Z</time>
      </trkpt>
      <trkpt lat="41.764820" lon="2.978182">
        <ele>104.0</ele>
        <time>2019-01-14T01:16:49Z</time>
      </trkpt>
      <trkpt lat="41.764847" lon="2.978307">
        <ele>104.0</ele>
        <time>2019-01-14T01:16:50Z</time>
      </trkpt>
      <trkpt lat="41.764875" lon="2.978389">
        <ele>105.0</ele>
        <time>2019-01-14T01:16:51Z</time>
      </trkpt>
      <trkpt lat="41.764887" lon="2.978432">
        <ele>105.0</ele>
        <time>2019-01-14T01:16:52Z</time>
      </trkpt>
      <trkpt lat="41.764892" lon="2.978476">
        <ele>105.0</ele>
        <time>2019-01-14T01:16:52Z</time>
      </trkpt>
      <trkpt lat="41.764909" lon="2.978518">
        <ele>105.0</ele>
        <time>2019-01-14T01:16:53Z</time>
      </trkpt>
      <trkpt lat="41.764919" lon="2.978558">
        <ele>105.0</ele>
        <time>2019-01-14T01:16:54Z</time>
      </trkpt>
      <trkpt lat="41.764934" lon="2.978637">
        <ele>106.0</ele>
        <time>2019-01-14T01:16:54Z</time>
      </trkpt>
      <trkpt lat="41.764958" lon="2.978755">
        <ele>106.0</ele>
        <time>2019-01-14T01:16:56Z</time>
      </trkpt>
      <trkpt lat="41.764976" lon="2.978798">
        <ele>106.0</ele>
        <time>2019-01-14T01:16:57Z</time>
      </trkpt>
      <trkpt lat="41.764989" lon="2.978844">
        <ele>106.0</ele>
        <time>2019-01-14T01:16:57Z</time>
      </trkpt>
      <trkpt lat="41.764998" lon="2.978889">
        <ele>106.0</ele>
        <time>2019-01-14T01:16:58Z</time>
      </trkpt>
      <trkpt lat="41.764983" lon="2.979110">
        <ele>107.0</ele>
        <time>2019-01-14T01:17:00Z</time>
      </trkpt>
      <trkpt lat="41.764954" lon="2.979136">
        <ele>107.0</ele>
        <time>2019-01-14T01:17:01Z</time>
      </trkpt>
      <trkpt lat="41.764930" lon="2.979161">
        <ele>108.0</ele>
        <time>2019-01-14T01:17:01Z</time>
      </trkpt>
      <trkpt lat="41.764900" lon="2.979179">
        <ele>108.0</ele>
        <time>2019-01-14T01:17:02Z</time>
      </trkpt>
      <trkpt lat="41.764870" lon="2.979194">
        <ele>108.0</ele>
        <time>2019-01-14T01:17:02Z</time>
      </trkpt>
      <trkpt lat="41.764835" lon="2.979203">
        <ele>108.0</ele>
        <time>2019-01-14T01:17:03Z</time>
      </trkpt>
      <trkpt lat="41.764802" lon="2.979209">
        <ele>108.0</ele>
        <time>2019-01-14T01:17:04Z</time>
      </trkpt>
      <trkpt lat="41.764693" lon="2.979204">
        <ele>109.0</ele>
        <time>2019-01-14T01:17:05Z</time>
      </trkpt>
      <trkpt lat="41.764663" lon="2.979195">
        <ele>109.0</ele>
        <time>2019-01-14T01:17:06Z</time>
      </trkpt>
      <trkpt lat="41.764635" lon="2.979183">
        <ele>110.0</ele>
        <time>2019-01-14T01:17:06Z</time>
      </trkpt>
      <trkpt lat="41.764609" lon="2.979168">
        <ele>110.0</ele>
        <time>2019-01-14T01:17:07Z</time>
      </trkpt>
      <trkpt lat="41.764581" lon="2.979151">
        <ele>110.0</ele>
        <time>2019-01-14T01:17:07Z</time>
      </trkpt>
      <trkpt lat="41.764528" lon="2.979105">
        <ele>110.0</ele>
        <time>2019-01-14T01:17:08Z</time>
      </trkpt>
      <trkpt lat="41.764509" lon="2.979070">
        <ele>111.0</ele>
        <time>2019-01-14T01:17:09Z</time>
      </trkpt>
      <trkpt lat="41.764491" lon="2.979036">
        <ele>111.0</ele>
        <time>2019-01-14T01:17:09Z</time>
      </trkpt>
      <trkpt lat="41.764475" lon="2.979001">
        <ele>111.0</ele>
        <time>2019-01-14T01:17:10Z</time>
      </trkpt>
      <trkpt lat="41.764463" lon="2.978966">
        <ele>111.0</ele>
        <time>2019-01-14T01:17:10Z</time>
      </trkpt>
      <trkpt lat="41.764451" lon="2.978934">
        <ele>111.0</ele>
        <time>2019-01-14T01:17:11Z</time>
      </trkpt>
      <trkpt lat="41.764437" lon="2.978900">
        <ele>111.0</ele>
        <time>2019-01-14T01:17:11Z</time>
      </trkpt>
      <trkpt lat="41.764317" lon="2.978739">
        <ele>112.0</ele>
        <time>2019-01-14T01:17:14Z</time>
      </trkpt>
      <trkpt lat="41.764257" lon="2.978687">
        <ele>113.0</ele>
        <time>2019-01-14T01:17:15Z</time>
      </trkpt>
      <trkpt lat="41.764231" lon="2.978661">
        <ele>113.0</ele>
        <time>2019-01-14T01:17:15Z</time>
      </trkpt>
      <trkpt lat="41.764200" lon="2.978633">
        <ele>113.0</ele>
        <time>2019-01-14T01:17:16Z</time>
      </trkpt>
      <trkpt lat="41.764172" lon="2.978611">
        <ele>113.0</ele>
        <time>2019-01-14T01:17:17Z</time>
      </trkpt>
      <trkpt lat="41.764142" lon="2.978596">
        <ele>113.0</ele>
        <time>2019-01-14T01:17:17Z</time>
      </trkpt>
      <trkpt lat="41.764113" lon="2.978580">
        <ele>114.0</ele>
        <time>2019-01-14T01:17:18Z</time>
      </trkpt>
      <trkpt lat="41.763983" lon="2.978555">
        <ele>114.0</ele>
        <time>2019-01-14T01:17:20Z</time>
      </trkpt>
      <trkpt lat="41.763952" lon="2.978557">
        <ele>115.0</ele>
        <time>2019-01-14T01:17:20Z</time>
      </trkpt>
      <trkpt lat="41.763919" lon="2.978562">
        <ele>115.0</ele>
        <time>2019-01-14T01:17:21Z</time>
      </trkpt>
      <trkpt lat="41.763888" lon="2.978570">
        <ele>115.0</ele>
        <time>2019-01-14T01:17:21Z</time>
      </trkpt>
      <trkpt lat="41.763858" lon="2.978581">
        <ele>115.0</ele>
        <time>2019-01-14T01:17:22Z</time>
      </trkpt>
      <trkpt lat="41.763774" lon="2.978638">
        <ele>116.0</ele>
        <time>2019-01-14T01:17:23Z</time>
      </trkpt>
      <trkpt lat="41.763572" lon="2.978843">
        <ele>117.0</ele>
        <time>2019-01-14T01:17:27Z</time>
      </trkpt>
      <trkpt lat="41.763545" lon="2.978880">
        <ele>118.0</ele>
        <time>2019-01-14T01:17:28Z</time>
      </trkpt>
      <trkpt lat="41.763521" lon="2.978919">
        <ele>118.0</ele>
        <time>2019-01-14T01:17:28Z</time>
      </trkpt>
      <trkpt lat="41.763497" lon="2.978960">
        <ele>118.0</ele>
        <time>2019-01-14T01:17:29Z</time>
      </trkpt>
      <trkpt lat="41.763476" lon="2.978998">
        <ele>118.0</ele>
        <time>2019-01-14T01:17:30Z</time>
      </trkpt>
      <trkpt lat="41.763454" lon="2.979038">
        <ele>119.0</ele>
        <time>2019-01-14T01:17:30Z</time>
      </trkpt>
      <trkpt lat="41.763414" lon="2.979123">
        <ele>119.0</ele>
        <time>2019-01-14T01:17:31Z</time>
      </trkpt>
      <trkpt lat="41.763359" lon="2.979317">
        <ele>120.0</ele>
        <time>2019-01-14T01:17:34Z</time>
      </trkpt>
      <trkpt lat="41.763361" lon="2.979364">
        <ele>120.0</ele>
        <time>2019-01-14T01:17:34Z</time>
      </trkpt>
      <trkpt lat="41.763380" lon="2.979664">
        <ele>122.0</ele>
        <time>2019-01-14T01:17:38Z</time>
      </trkpt>
      <trkpt lat="41.763382" lon="2.979713">
        <ele>122.0</ele>
        <time>2019-01-14T01:17:39Z</time>
      </trkpt>
      <trkpt lat="41.763381" lon="2.979761">
        <ele>123.0</ele>
        <time>2019-01-14T01:17:39Z</time>
      </trkpt>
      <trkpt lat="41.763375" lon="2.979806">
        <ele>123.0</ele>
        <time>2019-01-14T01:17:40Z</time>
      </trkpt>
      <trkpt lat="41.763363" lon="2.979847">
        <ele>123.0</ele>
        <time>2019-01-14T01:17:40Z</time>
      </trkpt>
      <trkpt lat="41.763320" lon="2.979927">
        <ele>123.0</ele>
        <time>2019-01-14T01:17:41Z</time>
      </trkpt>
      <trkpt lat="41.763232" lon="2.980078">
        <ele>124.0</ele>
        <time>2019-01-14T01:17:44Z</time>
      </trkpt>
      <trkpt lat="41.763220" lon="2.980120">
        <ele>125.0</ele>
        <time>2019-01-14T01:17:44Z</time>
      </trkpt>
      <trkpt lat="41.763210" lon="2.980164">
        <ele>125.0</ele>
        <time>2019-01-14T01:17:45Z</time>
      </trkpt>
      <trkpt lat="41.763202" lon="2.980205">
        <ele>125.0</ele>
        <time>2019-01-14T01:17:45Z</time>
      </trkpt>
      <trkpt lat="41.763198" lon="2.980247">
        <ele>125.0</ele>
        <time>2019-01-14T01:17:46Z</time>
      </trkpt>
      <trkpt lat="41.763202" lon="2.980442">
        <ele>127.0</ele>
        <time>2019-01-14T01:17:48Z</time>
      </trkpt>
      <trkpt lat="41.763195" lon="2.980780">
        <ele>128.0</ele>
        <time>2019-01-14T01:17:52Z</time>
      </trkpt>
      <trkpt lat="41.763191" lon="2.980825">
        <ele>129.0</ele>
        <time>2019-01-14T01:17:53Z</time>
      </trkpt>
      <trkpt lat="41.763188" lon="2.980869">
        <ele>129.0</ele>
        <time>2019-01-14T01:17:53Z</time>
      </trkpt>
      <trkpt lat="41.763187" lon="2.980917">
        <ele>129.0</ele>
        <time>2019-01-14T01:17:54Z</time>
      </trkpt>
      <trkpt lat="41.763186" lon="2.980965">
        <ele>129.0</ele>
        <time>2019-01-14T01:17:54Z</time>
      </trkpt>
      <trkpt lat="41.763189" lon="2.981014">
        <ele>130.0</ele>
        <time>2019-01-14T01:17:55Z</time>
      </trkpt>
      <trkpt lat="41.763213" lon="2.981108">
        <ele>130.0</ele>
        <time>2019-01-14T01:17:56Z</time>
      </trkpt>
      <trkpt lat="41.763231" lon="2.981148">
        <ele>130.0</ele>
        <time>2019-01-14T01:17:57Z</time>
      </trkpt>
      <trkpt lat="41.763253" lon="2.981188">
        <ele>131.0</ele>
        <time>2019-01-14T01:17:57Z</time>
      </trkpt>
      <trkpt lat="41.763275" lon="2.981227">
        <ele>131.0</ele>
        <time>2019-01-14T01:17:58Z</time>
      </trkpt>
      <trkpt lat="41.763300" lon="2.981264">
        <ele>131.0</ele>
        <time>2019-01-14T01:17:59Z</time>
      </trkpt>
      <trkpt lat="41.763350" lon="2.981335">
        <ele>132.0</ele>
        <time>2019-01-14T01:18:00Z</time>
      </trkpt>
      <trkpt lat="41.763540" lon="2.981566">
        <ele>133.0</ele>
        <time>2019-01-14T01:18:04Z</time>
      </trkpt>
      <trkpt lat="41.763563" lon="2.981605">
        <ele>133.0</ele>
        <time>2019-01-14T01:18:04Z</time>
      </trkpt>
      <trkpt lat="41.763578" lon="2.981644">
        <ele>133.0</ele>
        <time>2019-01-14T01:18:05Z</time>
      </trkpt>
      <trkpt lat="41.763589" lon="2.981685">
        <ele>133.0</ele>
        <time>2019-01-14T01:18:05Z</time>
      </trkpt>
      <trkpt lat="41.763607" lon="2.981767">
        <ele>134.0</ele>
        <time>2019-01-14T01:18:06Z</time>
      </trkpt>
      <trkpt lat="41.763657" lon="2.982028">
        <ele>135.0</ele>
        <time>2019-01-14T01:18:10Z</time>
      </trkpt>
      <trkpt lat="41.763665" lon="2.982068">
        <ele>135.0</ele>
        <time>2019-01-14T01:18:10Z</time>
      </trkpt>
      <trkpt lat="41.763670" lon="2.982110">
        <ele>135.0</ele>
        <time>2019-01-14T01:18:11Z</time>
      </trkpt>
      <trkpt lat="41.763673" lon="2.982151">
        <ele>135.0</ele>
        <time>2019-01-14T01:18:11Z</time>
      </trkpt>
      <trkpt lat="41.763679" lon="2.982193">
        <ele>136.0</ele>
        <time>2019-01-14T01:18:12Z</time>
      </trkpt>
      <trkpt lat="41.763675" lon="2.982330">
        <ele>136.0</ele>
        <time>2019-01-14T01:18:13Z</time>
      </trkpt>
      <trkpt lat="41.763571" lon="2.982441">
        <ele>137.0</ele>
        <time>2019-01-14T01:18:15Z</time>
      </trkpt>
      <trkpt lat="41.763535" lon="2.982447">
        <ele>137.0</ele>
        <time>2019-01-14T01:18:16Z</time>
      </trkpt>
      <trkpt lat="41.763500" lon="2.982450">
        <ele>138.0</ele>
        <time>2019-01-14T01:18:17Z</time>
      </trkpt>
      <trkpt lat="41.763465" lon="2.982452">
        <ele>138.0</ele>
        <time>2019-01-14T01:18:17Z</time>
      </trkpt>
      <trkpt lat="41.763432" lon="2.982452">
        <ele>138.0</ele>
        <time>2019-01-14T01:18:18Z</time>
      </trkpt>
      <trkpt lat="41.763398" lon="2.982456">
        <ele>138.0</ele>
        <time>2019-01-14T01:18:18Z</time>
      </trkpt>
      <trkpt lat="41.763365" lon="2.982462">
        <ele>139.0</ele>
        <time>2019-01-14T01:18:19Z</time>
      </trkpt>
      <trkpt lat="41.763332" lon="2.982475">
        <ele>139.0</ele>
        <time>2019-01-14T01:18:19Z</time>
      </trkpt>
      <trkpt lat="41.763302" lon="2.982492">
        <ele>139.0</ele>
        <time>2019-01-14T01:18:20Z</time>
      </trkpt>
      <trkpt lat="41.763274" lon="2.982517">
        <ele>139.0</ele>
        <time>2019-01-14T01:18:20Z</time>
      </trkpt>
      <trkpt lat="41.763248" lon="2.982547">
        <ele>139.0</ele>
        <time>2019-01-14T01:18:21Z</time>
      </trkpt>
      <trkpt lat="41.763206" lon="2.982619">
        <ele>140.0</ele>
        <time>2019-01-14T01:18:22Z</time>
      </trkpt>
      <trkpt lat="41.763112" lon="2.982876">
        <ele>141.0</ele>
        <time>2019-01-14T01:18:25Z</time>
      </trkpt>
      <trkpt lat="41.763079" lon="2.982956">
        <ele>141.0</ele>
        <time>2019-01-14T01:18:27Z</time>
      </trkpt>
      <trkpt lat="41.763062" lon="2.982995">
        <ele>142.0</ele>
        <time>2019-01-14T01:18:27Z</time>
      </trkpt>
      <trkpt lat="41.763044" lon="2.983033">
        <ele>142.0</ele>
        <time>2019-01-14T01:18:28Z</time>
      </trkpt>
      <trkpt lat="41.763029" lon="2.983071">
        <ele>142.0</ele>
        <time>2019-01-14T01:18:28Z</time>
      </trkpt>
      <trkpt lat="41.763015" lon="2.983108">
        <ele>142.0</ele>
        <time>2019-01-14T01:18:29Z</time>
      </trkpt>
      <trkpt lat="41.762999" lon="2.983145">
        <ele>142.0</ele>
        <time>2019-01-14T01:18:29Z</time>
      </trkpt>
      <trkpt lat="41.762968" lon="2.983304">
        <ele>143.0</ele>
        <time>2019-01-14T01:18:31Z</time>
      </trkpt>
      <trkpt lat="41.762972" lon="2.983349">
        <ele>143.0</ele>
        <time>2019-01-14T01:18:32Z</time>
      </trkpt>
      <trkpt lat="41.762983" lon="2.983397">
        <ele>143.0</ele>
        <time>2019-01-14T01:18:32Z</time>
      </trkpt>
      <trkpt lat="41.762994" lon="2.983444">
        <ele>143.0</ele>
        <time>2019-01-14T01:18:33Z</time>
      </trkpt>
      <trkpt lat="41.763072" lon="2.983611">
        <ele>144.0</ele>
        <time>2019-01-14T01:18:35Z</time>
      </trkpt>
      <trkpt lat="41.763166" lon="2.983807">
        <ele>145.0</ele>
        <time>2019-01-14T01:18:38Z</time>
      </trkpt>
      <trkpt lat="41.763195" lon="2.983892">
        <ele>145.0</ele>
        <time>2019-01-14T01:18:39Z</time>
      </trkpt>
      <trkpt lat="41.763222" lon="2.983966">
        <ele>145.0</ele>
        <time>2019-01-14T01:18:40Z</time>
      </trkpt>
      <trkpt lat="41.763245" lon="2.983997">
        <ele>145.0</ele>
        <time>2019-01-14T01:18:41Z</time>
      </trkpt>
      <trkpt lat="41.763275" lon="2.984020">
        <ele>146.0</ele>
        <time>2019-01-14T01:18:41Z</time>
      </trkpt>
      <trkpt lat="41.763307" lon="2.984038">
        <ele>146.0</ele>
        <time>2019-01-14T01:18:42Z</time>
      </trkpt>
      <trkpt lat="41.763340" lon="2.984051">
        <ele>146.0</ele>
        <time>2019-01-14T01:18:42Z</time>
      </trkpt>
      <trkpt lat="41.763407" lon="2.984072">
        <ele>146.0</ele>
        <time>2019-01-14T01:18:43Z</time>
      </trkpt>
      <trkpt lat="41.763441" lon="2.984082">
        <ele>146.0</ele>
        <time>2019-01-14T01:18:44Z</time>
      </trkpt>
      <trkpt lat="41.763475" lon="2.984099">
        <ele>146.0</ele>
        <time>2019-01-14T01:18:44Z</time>
      </trkpt>
      <trkpt lat="41.763506" lon="2.984121">
        <ele>147.0</ele>
        <time>2019-01-14T01:18:45Z</time>
      </trkpt>
      <trkpt lat="41.763532" lon="2.984146">
        <ele>147.0</ele>
        <time>2019-01-14T01:18:46Z</time>
      </trkpt>
      <trkpt lat="41.763589" lon="2.984256">
        <ele>147.0</ele>
        <time>2019-01-14T01:18:47Z</time>
      </trkpt>
      <trkpt lat="41.763689" lon="2.984484">
        <ele>148.0</ele>
        <time>2019-01-14T01:18:50Z</time>
      </trkpt>
      <trkpt lat="41.763728" lon="2.984604">
        <ele>149.0</ele>
        <time>2019-01-14T01:18:52Z</time>
      </trkpt>
      <trkpt lat="41.763735" lon="2.984647">
        <ele>149.0</ele>
        <time>2019-01-14T01:18:52Z</time>
      </trkpt>
      <trkpt lat="41.763739" lon="2.984692">
        <ele>149.0</ele>
        <time>2019-01-14T01:18:53Z</time>
      </trkpt>
      <trkpt lat="41.763738" lon="2.984736">
        <ele>149.0</ele>
        <time>2019-01-14T01:18:53Z</time>
      </trkpt>
      <trkpt lat="41.763736" lon="2.984779">
        <ele>150.0</ele>
        <time>2019-01-14T01:18:54Z</time>
      </trkpt>
      <trkpt lat="41.763732" lon="2.984903">
        <ele>150.0</ele>
        <time>2019-01-14T01:18:55Z</time>
      </trkpt>
      <trkpt lat="41.763724" lon="2.985027">
        <ele>150.0</ele>
        <time>2019-01-14T01:18:57Z</time>
      </trkpt>
      <trkpt lat="41.763727" lon="2.985069">
        <ele>151.0</ele>
        <time>2019-01-14T01:18:57Z</time>
      </trkpt>
      <trkpt lat="41.763733" lon="2.985111">
        <ele>151.0</ele>
        <time>2019-01-14T01:18:58Z</time>
      </trkpt>
      <trkpt lat="41.763741" lon="2.985150">
        <ele>151.0</ele>
        <time>2019-01-14T01:18:58Z</time>
      </trkpt>
      <trkpt lat="41.763773" lon="2.985311">
        <ele>152.0</ele>
        <time>2019-01-14T01:19:00Z</time>
      </trkpt>
      <trkpt lat="41.763782" lon="2.985354">
        <ele>152.0</ele>
        <time>2019-01-14T01:19:01Z</time>
      </trkpt>
      <trkpt lat="41.763789" lon="2.985397">
        <ele>152.0</ele>
        <time>2019-01-14T01:19:01Z</time>
      </trkpt>
      <trkpt lat="41.763790" lon="2.985441">
        <ele>152.0</ele>
        <time>2019-01-14T01:19:02Z</time>
      </trkpt>
      <trkpt lat="41.763784" lon="2.985484">
        <ele>152.0</ele>
        <time>2019-01-14T01:19:03Z</time>
      </trkpt>
      <trkpt lat="41.763738" lon="2.985691">
        <ele>154.0</ele>
        <time>2019-01-14T01:19:05Z</time>
      </trkpt>
      <trkpt lat="41.763732" lon="2.985735">
        <ele>154.0</ele>
        <time>2019-01-14T01:19:06Z</time>
      </trkpt>
      <trkpt lat="41.763722" lon="2.985775">
        <ele>154.0</ele>
        <time>2019-01-14T01:19:06Z</time>
      </trkpt>
      <trkpt lat="41.763707" lon="2.985813">
        <ele>154.0</ele>
        <time>2019-01-14T01:19:07Z</time>
      </trkpt>
      <trkpt lat="41.763691" lon="2.985850">
        <ele>155.0</ele>
        <time>2019-01-14T01:19:07Z</time>
      </trkpt>
      <trkpt lat="41.763673" lon="2.985888">
        <ele>155.0</ele>
        <time>2019-01-14T01:19:08Z</time>
      </trkpt>
      <trkpt lat="41.763654" lon="2.985925">
        <ele>155.0</ele>
        <time>2019-01-14T01:19:08Z</time>
      </trkpt>
      <trkpt lat="41.763536" lon="2.986067">
        <ele>156.0</ele>
        <time>2019-01-14T01:19:11Z</time>
      </trkpt>
      <trkpt lat="41.763511" lon="2.986076">
        <ele>156.0</ele>
        <time>2019-01-14T01:19:11Z</time>
      </trkpt>
      <trkpt lat="41.763483" lon="2.986078">
        <ele>156.0</ele>
        <time>2019-01-14T01:19:12Z</time>
      </trkpt>
      <trkpt lat="41.763452" lon="2.986075">
        <ele>156.0</ele>
        <time>2019-01-14T01:19:12Z</time>
      </trkpt>
      <trkpt lat="41.763419" lon="2.986072">
        <ele>156.0</ele>
        <time>2019-01-14T01:19:13Z</time>
      </trkpt>
      <trkpt lat="41.763230" lon="2.986004">
        <ele>157.0</ele>
        <time>2019-01-14T01:19:16Z</time>
      </trkpt>
      <trkpt lat="41.763205" lon="2.985981">
        <ele>157.0</ele>
        <time>2019-01-14T01:19:16Z</time>
      </trkpt>
      <trkpt lat="41.763179" lon="2.985966">
        <ele>157.0</ele>
        <time>2019-01-14T01:19:17Z</time>
      </trkpt>
      <trkpt lat="41.763149" lon="2.985952">
        <ele>158.0</ele>
        <time>2019-01-14T01:19:17Z</time>
      </trkpt>
      <trkpt lat="41.763120" lon="2.985941">
        <ele>158.0</ele>
        <time>2019-01-14T01:19:18Z</time>
      </trkpt>
      <trkpt lat="41.763088" lon="2.985937">
        <ele>158.0</ele>
        <time>2019-01-14T01:19:18Z</time>
      </trkpt>
      <trkpt lat="41.763058" lon="2.985941">
        <ele>158.0</ele>
        <time>2019-01-14T01:19:19Z</time>
      </trkpt>
      <trkpt lat="41.762927" lon="2.986039">
        <ele>158.0</ele>
        <time>2019-01-14T01:19:21Z</time>
      </trkpt>
      <trkpt lat="41.762885" lon="2.986191">
        <ele>159.0</ele>
        <time>2019-01-14T01:19:23Z</time>
      </trkpt>
      <trkpt lat="41.762882" lon="2.986231">
        <ele>159.0</ele>
        <time>2019-01-14T01:19:24Z</time>
      </trkpt>
      <trkpt lat="41.762884" lon="2.986274">
        <ele>159.0</ele>
        <time>2019-01-14T01:19:24Z</time>
      </trkpt>
      <trkpt lat="41.762885" lon="2.986316">
        <ele>159.0</ele>
        <time>2019-01-14T01:19:25Z</time>
      </trkpt>
      <trkpt lat="41.762863" lon="2.986495">
        <ele>159.0</ele>
        <time>2019-01-14T01:19:27Z</time>
      </trkpt>
      <trkpt lat="41.762798" lon="2.986662">
        <ele>159.0</ele>
        <time>2019-01-14T01:19:29Z</time>
      </trkpt>
      <trkpt lat="41.762782" lon="2.986699">
        <ele>159.0</ele>
        <time>2019-01-14T01:19:29Z</time>
      </trkpt>
      <trkpt lat="41.762763" lon="2.986736">
        <ele>159.0</ele>
        <time>2019-01-14T01:19:30Z</time>
      </trkpt>
      <trkpt lat="41.762746" lon="2.986777">
        <ele>159.0</ele>
        <time>2019-01-14T01:19:31Z</time>
      </trkpt>
      <trkpt lat="41.762729" lon="2.986820">
        <ele>159.0</ele>
        <time>2019-01-14T01:19:31Z</time>
      </trkpt>
      <trkpt lat="41.762621" lon="2.987124">
        <ele>159.0</ele>
        <time>2019-01-14T01:19:35Z</time>
      </trkpt>
      <trkpt lat="41.762609" lon="2.987170">
        <ele>159.0</ele>
        <time>2019-01-14T01:19:36Z</time>
      </trkpt>
      <trkpt lat="41.762600" lon="2.987216">
        <ele>159.0</ele>
        <time>2019-01-14T01:19:36Z</time>
      </trkpt>
      <trkpt lat="41.762594" lon="2.987260">
        <ele>159.0</ele>
        <time>2019-01-14T01:19:37Z</time>
      </trkpt>
      <trkpt lat="41.762589" lon="2.987306">
        <ele>159.0</ele>
        <time>2019-01-14T01:19:37Z</time>
      </trkpt>
      <trkpt lat="41.762571" lon="2.987450">
        <ele>159.0</ele>
        <time>2019-01-14T01:19:39Z</time>
      </trkpt>
      <trkpt lat="41.762548" lon="2.987641">
        <ele>159.0</ele>
        <time>2019-01-14T01:19:41Z</time>
      </trkpt>
      <trkpt lat="41.762543" lon="2.987705">
        <ele>159.0</ele>
        <time>2019-01-14T01:19:42Z</time>
      </trkpt>
      <trkpt lat="41.762539" lon="2.987756">
        <ele>159.0</ele>
        <time>2019-01-14T01:19:43Z</time>
      </trkpt>
      <trkpt lat="41.762539" lon="2.987810">
        <ele>159.0</ele>
        <time>2019-01-14T01:19:43Z</time>
      </trkpt>
      <trkpt lat="41.762542" lon="2.987866">
        <ele>159.0</ele>
        <time>2019-01-14T01:19:44Z</time>
      </trkpt>
      <trkpt lat="41.762563" lon="2.988106">
        <ele>159.0</ele>
        <time>2019-01-14T01:19:47Z</time>
      </trkpt>
      <trkpt lat="41.762614" lon="2.988385">
        <ele>159.0</ele>
        <time>2019-01-14T01:19:50Z</time>
      </trkpt>
      <trkpt lat="41.762657" lon="2.988488">
        <ele>159.0</ele>
        <time>2019-01-14T01:19:52Z</time>
      </trkpt>
      <trkpt lat="41.762847" lon="2.988833">
        <ele>159.0</ele>
        <time>2019-01-14T01:19:57Z</time>
      </trkpt>
      <trkpt lat="41.762910" lon="2.988917">
        <ele>159.0</ele>
        <time>2019-01-14T01:19:58Z</time>
      </trkpt>
      <trkpt lat="41.763032" lon="2.988970">
        <ele>159.0</ele>
        <time>2019-01-14T01:20:00Z</time>
      </trkpt>
      <trkpt lat="41.763178" lon="2.988960">
        <ele>159.0</ele>
        <time>2019-01-14T01:20:03Z</time>
      </trkpt>
      <trkpt lat="41.763270" lon="2.988943">
        <ele>159.0</ele>
        <time>2019-01-14T01:20:04Z</time>
      </trkpt>
      <trkpt lat="41.763415" lon="2.988905">
        <ele>159.0</ele>
        <time>2019-01-14T01:20:07Z</time>
      </trkpt>
      <trkpt lat="41.763545" lon="2.988807">
        <ele>159.0</ele>
        <time>2019-01-14T01:20:09Z</time>
      </trkpt>
      <trkpt lat="41.763581" lon="2.988761">
        <ele>159.0</ele>
        <time>2019-01-14T01:20:10Z</time>
      </trkpt>
      <trkpt lat="41.763612" lon="2.988710">
        <ele>159.0</ele>
        <time>2019-01-14T01:20:11Z</time>
      </trkpt>
      <trkpt lat="41.763640" lon="2.988656">
        <ele>159.0</ele>
        <time>2019-01-14T01:20:11Z</time>
      </trkpt>
      <trkpt lat="41.763669" lon="2.988602">
        <ele>159.0</ele>
        <time>2019-01-14T01:20:12Z</time>
      </trkpt>
      <trkpt lat="41.763696" lon="2.988545">
        <ele>159.0</ele>
        <time>2019-01-14T01:20:13Z</time>
      </trkpt>
      <trkpt lat="41.763797" lon="2.988388">
        <ele>159.0</ele>
        <time>2019-01-14T01:20:16Z</time>
      </trkpt>
      <trkpt lat="41.763869" lon="2.988297">
        <ele>159.0</ele>
        <time>2019-01-14T01:20:17Z</time>
      </trkpt>
      <trkpt lat="41.764066" lon="2.988112">
        <ele>159.0</ele>
        <time>2019-01-14T01:20:21Z</time>
      </trkpt>
      <trkpt lat="41.764111" lon="2.988098">
        <ele>159.0</ele>
        <time>2019-01-14T01:20:22Z</time>
      </trkpt>
      <trkpt lat="41.764248" lon="2.988186">
        <ele>159.0</ele>
        <time>2019-01-14T01:20:24Z</time>
      </trkpt>
      <trkpt lat="41.764300" lon="2.988386">
        <ele>160.0</ele>
        <time>2019-01-14T01:20:27Z</time>
      </trkpt>
      <trkpt lat="41.764239" lon="2.988618">
        <ele>160.0</ele>
        <time>2019-01-14T01:20:30Z</time>
      </trkpt>
      <trkpt lat="41.764195" lon="2.988869">
        <ele>160.0</ele>
        <time>2019-01-14T01:20:33Z</time>
      </trkpt>
      <trkpt lat="41.764187" lon="2.988998">
        <ele>160.0</ele>
        <time>2019-01-14T01:20:34Z</time>
      </trkpt>
      <trkpt lat="41.764170" lon="2.989362">
        <ele>160.0</ele>
        <time>2019-01-14T01:20:39Z</time>
      </trkpt>
      <trkpt lat="41.764165" lon="2.989471">
        <ele>160.0</ele>
        <time>2019-01-14T01:20:40Z</time>
      </trkpt>
      <trkpt lat="41.764160" lon="2.989584">
        <ele>160.0</ele>
        <time>2019-01-14T01:20:41Z</time>
      </trkpt>
      <trkpt lat="41.764160" lon="2.989643">
        <ele>160.0</ele>
        <time>2019-01-14T01:20:42Z</time>
      </trkpt>
      <trkpt lat="41.764158" lon="2.989701">
        <ele>160.0</ele>
        <time>2019-01-14T01:20:43Z</time>
      </trkpt>
      <trkpt lat="41.764156" lon="2.989758">
        <ele>160.0</ele>
        <time>2019-01-14T01:20:43Z</time>
      </trkpt>
      <trkpt lat="41.764153" lon="2.989814">
        <ele>160.0</ele>
        <time>2019-01-14T01:20:44Z</time>
      </trkpt>
      <trkpt lat="41.764143" lon="2.989870">
        <ele>160.0</ele>
        <time>2019-01-14T01:20:45Z</time>
      </trkpt>
      <trkpt lat="41.764087" lon="2.990024">
        <ele>160.0</ele>
        <time>2019-01-14T01:20:47Z</time>
      </trkpt>
      <trkpt lat="41.764061" lon="2.990069">
        <ele>160.0</ele>
        <time>2019-01-14T01:20:47Z</time>
      </trkpt>
      <trkpt lat="41.763929" lon="2.990191">
        <ele>159.0</ele>
        <time>2019-01-14T01:20:50Z</time>
      </trkpt>
      <trkpt lat="41.763743" lon="2.990407">
        <ele>158.0</ele>
        <time>2019-01-14T01:20:54Z</time>
      </trkpt>
      <trkpt lat="41.763732" lon="2.990663">
        <ele>157.0</ele>
        <time>2019-01-14T01:20:57Z</time>
      </trkpt>
      <trkpt lat="41.763742" lon="2.990732">
        <ele>157.0</ele>
        <time>2019-01-14T01:20:58Z</time>
      </trkpt>
      <trkpt lat="41.763757" lon="2.990800">
        <ele>157.0</ele>
        <time>2019-01-14T01:20:59Z</time>
      </trkpt>
      <trkpt lat="41.763789" lon="2.990987">
        <ele>157.0</ele>
        <time>2019-01-14T01:21:01Z</time>
      </trkpt>
      <trkpt lat="41.763855" lon="2.991325">
        <ele>157.0</ele>
        <time>2019-01-14T01:21:05Z</time>
      </trkpt>
      <trkpt lat="41.763935" lon="2.991729">
        <ele>156.0</ele>
        <time>2019-01-14T01:21:10Z</time>
      </trkpt>
      <trkpt lat="41.763981" lon="2.991879">
        <ele>156.0</ele>
        <time>2019-01-14T01:21:12Z</time>
      </trkpt>
      <trkpt lat="41.764052" lon="2.992019">
        <ele>156.0</ele>
        <time>2019-01-14T01:21:14Z</time>
      </trkpt>
      <trkpt lat="41.764274" lon="2.992253">
        <ele>153.0</ele>
        <time>2019-01-14T01:21:19Z</time>
      </trkpt>
      <trkpt lat="41.764349" lon="2.992267">
        <ele>153.0</ele>
        <time>2019-01-14T01:21:20Z</time>
      </trkpt>
      <trkpt lat="41.764426" lon="2.992258">
        <ele>152.0</ele>
        <time>2019-01-14T01:21:21Z</time>
      </trkpt>
      <trkpt lat="41.764507" lon="2.992236">
        <ele>152.0</ele>
        <time>2019-01-14T01:21:22Z</time>
      </trkpt>
      <trkpt lat="41.764586" lon="2.992204">
        <ele>152.0</ele>
        <time>2019-01-14T01:21:24Z</time>
      </trkpt>
      <trkpt lat="41.764666" lon="2.992165">
        <ele>152.0</ele>
        <time>2019-01-14T01:21:25Z</time>
      </trkpt>
      <trkpt lat="41.764744" lon="2.992109">
        <ele>151.0</ele>
        <time>2019-01-14T01:21:26Z</time>
      </trkpt>
      <trkpt lat="41.764819" lon="2.992039">
        <ele>151.0</ele>
        <time>2019-01-14T01:21:28Z</time>
      </trkpt>
      <trkpt lat="41.764895" lon="2.991954">
        <ele>151.0</ele>
        <time>2019-01-14T01:21:29Z</time>
      </trkpt>
      <trkpt lat="41.764973" lon="2.991884">
        <ele>151.0</ele>
        <time>2019-01-14T01:21:31Z</time>
      </trkpt>
      <trkpt lat="41.765067" lon="2.991844">
        <ele>151.0</ele>
        <time>2019-01-14T01:21:33Z</time>
      </trkpt>
      <trkpt lat="41.765165" lon="2.991828">
        <ele>150.0</ele>
        <time>2019-01-14T01:21:34Z</time>
      </trkpt>
      <trkpt lat="41.765260" lon="2.991802">
        <ele>150.0</ele>
        <time>2019-01-14T01:21:36Z</time>
      </trkpt>
      <trkpt lat="41.765356" lon="2.991752">
        <ele>150.0</ele>
        <time>2019-01-14T01:21:37Z</time>
      </trkpt>
      <trkpt lat="41.765463" lon="2.991736">
        <ele>149.0</ele>
        <time>2019-01-14T01:21:39Z</time>
      </trkpt>
      <trkpt lat="41.765576" lon="2.991787">
        <ele>149.0</ele>
        <time>2019-01-14T01:21:41Z</time>
      </trkpt>
      <trkpt lat="41.765658" lon="2.991887">
        <ele>148.0</ele>
        <time>2019-01-14T01:21:43Z</time>
      </trkpt>
      <trkpt lat="41.765730" lon="2.992003">
        <ele>148.0</ele>
        <time>2019-01-14T01:21:45Z</time>
      </trkpt>
      <trkpt lat="41.765787" lon="2.992133">
        <ele>147.0</ele>
        <time>2019-01-14T01:21:46Z</time>
      </trkpt>
      <trkpt lat="41.765832" lon="2.992262">
        <ele>146.0</ele>
        <time>2019-01-14T01:21:48Z</time>
      </trkpt>
      <trkpt lat="41.765876" lon="2.992379">
        <ele>146.0</ele>
        <time>2019-01-14T01:21:50Z</time>
      </trkpt>
      <trkpt lat="41.765940" lon="2.992467">
        <ele>145.0</ele>
        <time>2019-01-14T01:21:51Z</time>
      </trkpt>
      <trkpt lat="41.766021" lon="2.992500">
        <ele>144.0</ele>
        <time>2019-01-14T01:21:52Z</time>
      </trkpt>
      <trkpt lat="41.766106" lon="2.992487">
        <ele>143.0</ele>
        <time>2019-01-14T01:21:54Z</time>
      </trkpt>
      <trkpt lat="41.766176" lon="2.992440">
        <ele>142.0</ele>
        <time>2019-01-14T01:21:55Z</time>
      </trkpt>
      <trkpt lat="41.766253" lon="2.992362">
        <ele>142.0</ele>
        <time>2019-01-14T01:21:57Z</time>
      </trkpt>
      <trkpt lat="41.766338" lon="2.992293">
        <ele>141.0</ele>
        <time>2019-01-14T01:21:58Z</time>
      </trkpt>
      <trkpt lat="41.766439" lon="2.992275">
        <ele>140.0</ele>
        <time>2019-01-14T01:22:00Z</time>
      </trkpt>
      <trkpt lat="41.766547" lon="2.992269">
        <ele>140.0</ele>
        <time>2019-01-14T01:22:02Z</time>
      </trkpt>
      <trkpt lat="41.766650" lon="2.992234">
        <ele>139.0</ele>
        <time>2019-01-14T01:22:03Z</time>
      </trkpt>
      <trkpt lat="41.766729" lon="2.992161">
        <ele>138.0</ele>
        <time>2019-01-14T01:22:05Z</time>
      </trkpt>
      <trkpt lat="41.766807" lon="2.992058">
        <ele>138.0</ele>
        <time>2019-01-14T01:22:07Z</time>
      </trkpt>
      <trkpt lat="41.766909" lon="2.991987">
        <ele>137.0</ele>
        <time>2019-01-14T01:22:08Z</time>
      </trkpt>
      <trkpt lat="41.767131" lon="2.992013">
        <ele>136.0</ele>
        <time>2019-01-14T01:22:12Z</time>
      </trkpt>
      <trkpt lat="41.767238" lon="2.992055">
        <ele>135.0</ele>
        <time>2019-01-14T01:22:14Z</time>
      </trkpt>
      <trkpt lat="41.767346" lon="2.992110">
        <ele>135.0</ele>
        <time>2019-01-14T01:22:16Z</time>
      </trkpt>
      <trkpt lat="41.767450" lon="2.992169">
        <ele>134.0</ele>
        <time>2019-01-14T01:22:17Z</time>
      </trkpt>
      <trkpt lat="41.767568" lon="2.992199">
        <ele>133.0</ele>
        <time>2019-01-14T01:22:19Z</time>
      </trkpt>
      <trkpt lat="41.767685" lon="2.992205">
        <ele>133.0</ele>
        <time>2019-01-14T01:22:21Z</time>
      </trkpt>
      <trkpt lat="41.767792" lon="2.992252">
        <ele>132.0</ele>
        <time>2019-01-14T01:22:23Z</time>
      </trkpt>
      <trkpt lat="41.767880" lon="2.992341">
        <ele>131.0</ele>
        <time>2019-01-14T01:22:25Z</time>
      </trkpt>
      <trkpt lat="41.767965" lon="2.992426">
        <ele>131.0</ele>
        <time>2019-01-14T01:22:26Z</time>
      </trkpt>
      <trkpt lat="41.768059" lon="2.992469">
        <ele>130.0</ele>
        <time>2019-01-14T01:22:28Z</time>
      </trkpt>
      <trkpt lat="41.768157" lon="2.992460">
        <ele>130.0</ele>
        <time>2019-01-14T01:22:30Z</time>
      </trkpt>
      <trkpt lat="41.768256" lon="2.992425">
        <ele>129.0</ele>
        <time>2019-01-14T01:22:31Z</time>
      </trkpt>
      <trkpt lat="41.768439" lon="2.992309">
        <ele>128.0</ele>
        <time>2019-01-14T01:22:34Z</time>
      </trkpt>
      <trkpt lat="41.768524" lon="2.992243">
        <ele>127.0</ele>
        <time>2019-01-14T01:22:36Z</time>
      </trkpt>
      <trkpt lat="41.768610" lon="2.992175">
        <ele>127.0</ele>
        <time>2019-01-14T01:22:38Z</time>
      </trkpt>
      <trkpt lat="41.768693" lon="2.992107">
        <ele>126.0</ele>
        <time>2019-01-14T01:22:39Z</time>
      </trkpt>
      <trkpt lat="41.768768" lon="2.992028">
        <ele>126.0</ele>
        <time>2019-01-14T01:22:41Z</time>
      </trkpt>
      <trkpt lat="41.768835" lon="2.991943">
        <ele>126.0</ele>
        <time>2019-01-14T01:22:42Z</time>
      </trkpt>
      <trkpt lat="41.768909" lon="2.991855">
        <ele>125.0</ele>
        <time>2019-01-14T01:22:44Z</time>
      </trkpt>
      <trkpt lat="41.768991" lon="2.991793">
        <ele>125.0</ele>
        <time>2019-01-14T01:22:45Z</time>
      </trkpt>
      <trkpt lat="41.769083" lon="2.991764">
        <ele>124.0</ele>
        <time>2019-01-14T01:22:47Z</time>
      </trkpt>
      <trkpt lat="41.769381" lon="2.991715">
        <ele>123.0</ele>
        <time>2019-01-14T01:22:52Z</time>
      </trkpt>
      <trkpt lat="41.769486" lon="2.991691">
        <ele>123.0</ele>
        <time>2019-01-14T01:22:53Z</time>
      </trkpt>
      <trkpt lat="41.769591" lon="2.991695">
        <ele>122.0</ele>
        <time>2019-01-14T01:22:55Z</time>
      </trkpt>
      <trkpt lat="41.769695" lon="2.991746">
        <ele>122.0</ele>
        <time>2019-01-14T01:22:57Z</time>
      </trkpt>
      <trkpt lat="41.769755" lon="2.991846">
        <ele>122.0</ele>
        <time>2019-01-14T01:22:58Z</time>
      </trkpt>
      <trkpt lat="41.769767" lon="2.991948">
        <ele>122.0</ele>
        <time>2019-01-14T01:23:00Z</time>
      </trkpt>
      <trkpt lat="41.769732" lon="2.992042">
        <ele>121.0</ele>
        <time>2019-01-14T01:23:01Z</time>
      </trkpt>
      <trkpt lat="41.769691" lon="2.992132">
        <ele>120.0</ele>
        <time>2019-01-14T01:23:02Z</time>
      </trkpt>
      <trkpt lat="41.769651" lon="2.992219">
        <ele>119.0</ele>
        <time>2019-01-14T01:23:03Z</time>
      </trkpt>
      <trkpt lat="41.769431" lon="2.992608">
        <ele>119.0</ele>
        <time>2019-01-14T01:23:09Z</time>
      </trkpt>
      <trkpt lat="41.769185" lon="2.992890">
        <ele>120.0</ele>
        <time>2019-01-14T01:23:14Z</time>
      </trkpt>
      <trkpt lat="41.768976" lon="2.993151">
        <ele>122.0</ele>
        <time>2019-01-14T01:23:19Z</time>
      </trkpt>
      <trkpt lat="41.768946" lon="2.993195">
        <ele>122.0</ele>
        <time>2019-01-14T01:23:20Z</time>
      </trkpt>
      <trkpt lat="41.768860" lon="2.993326">
        <ele>122.0</ele>
        <time>2019-01-14T01:23:22Z</time>
      </trkpt>
      <trkpt lat="41.768830" lon="2.993366">
        <ele>123.0</ele>
        <time>2019-01-14T01:23:22Z</time>
      </trkpt>
      <trkpt lat="41.768800" lon="2.993402">
        <ele>123.0</ele>
        <time>2019-01-14T01:23:23Z</time>
      </trkpt>
      <trkpt lat="41.768772" lon="2.993434">
        <ele>123.0</ele>
        <time>2019-01-14T01:23:24Z</time>
      </trkpt>
      <trkpt lat="41.768746" lon="2.993467">
        <ele>123.0</ele>
        <time>2019-01-14T01:23:24Z</time>
      </trkpt>
      <trkpt lat="41.768659" lon="2.993566">
        <ele>124.0</ele>
        <time>2019-01-14T01:23:26Z</time>
      </trkpt>
      <trkpt lat="41.768586" lon="2.993638">
        <ele>124.0</ele>
        <time>2019-01-14T01:23:27Z</time>
      </trkpt>
      <trkpt lat="41.768562" lon="2.993670">
        <ele>124.0</ele>
        <time>2019-01-14T01:23:28Z</time>
      </trkpt>
      <trkpt lat="41.768541" lon="2.993711">
        <ele>125.0</ele>
        <time>2019-01-14T01:23:29Z</time>
      </trkpt>
      <trkpt lat="41.768527" lon="2.993762">
        <ele>125.0</ele>
        <time>2019-01-14T01:23:29Z</time>
      </trkpt>
      <trkpt lat="41.768518" lon="2.993814">
        <ele>125.0</ele>
        <time>2019-01-14T01:23:30Z</time>
      </trkpt>
      <trkpt lat="41.768514" lon="2.993860">
        <ele>126.0</ele>
        <time>2019-01-14T01:23:30Z</time>
      </trkpt>
      <trkpt lat="41.768514" lon="2.993949">
        <ele>126.0</ele>
        <time>2019-01-14T01:23:31Z</time>
      </trkpt>
      <trkpt lat="41.768503" lon="2.994133">
        <ele>127.0</ele>
        <time>2019-01-14T01:23:34Z</time>
      </trkpt>
      <trkpt lat="41.768490" lon="2.994179">
        <ele>128.0</ele>
        <time>2019-01-14T01:23:34Z</time>
      </trkpt>
      <trkpt lat="41.768473" lon="2.994223">
        <ele>128.0</ele>
        <time>2019-01-14T01:23:35Z</time>
      </trkpt>
      <trkpt lat="41.768456" lon="2.994266">
        <ele>128.0</ele>
        <time>2019-01-14T01:23:35Z</time>
      </trkpt>
      <trkpt lat="41.768439" lon="2.994309">
        <ele>129.0</ele>
        <time>2019-01-14T01:23:36Z</time>
      </trkpt>
      <trkpt lat="41.768401" lon="2.994448">
        <ele>130.0</ele>
        <time>2019-01-14T01:23:38Z</time>
      </trkpt>
      <trkpt lat="41.768393" lon="2.994499">
        <ele>130.0</ele>
        <time>2019-01-14T01:23:38Z</time>
      </trkpt>
      <trkpt lat="41.768393" lon="2.994547">
        <ele>130.0</ele>
        <time>2019-01-14T01:23:39Z</time>
      </trkpt>
      <trkpt lat="41.768389" lon="2.994592">
        <ele>130.0</ele>
        <time>2019-01-14T01:23:40Z</time>
      </trkpt>
      <trkpt lat="41.768386" lon="2.994637">
        <ele>131.0</ele>
        <time>2019-01-14T01:23:40Z</time>
      </trkpt>
      <trkpt lat="41.768326" lon="2.994843">
        <ele>131.0</ele>
        <time>2019-01-14T01:23:43Z</time>
      </trkpt>
      <trkpt lat="41.768250" lon="2.994902">
        <ele>131.0</ele>
        <time>2019-01-14T01:23:44Z</time>
      </trkpt>
      <trkpt lat="41.768227" lon="2.994901">
        <ele>132.0</ele>
        <time>2019-01-14T01:23:44Z</time>
      </trkpt>
      <trkpt lat="41.768202" lon="2.994898">
        <ele>132.0</ele>
        <time>2019-01-14T01:23:45Z</time>
      </trkpt>
      <trkpt lat="41.768174" lon="2.994887">
        <ele>132.0</ele>
        <time>2019-01-14T01:23:45Z</time>
      </trkpt>
      <trkpt lat="41.768144" lon="2.994878">
        <ele>132.0</ele>
        <time>2019-01-14T01:23:46Z</time>
      </trkpt>
      <trkpt lat="41.768120" lon="2.994869">
        <ele>133.0</ele>
        <time>2019-01-14T01:23:46Z</time>
      </trkpt>
      <trkpt lat="41.768063" lon="2.994851">
        <ele>134.0</ele>
        <time>2019-01-14T01:23:47Z</time>
      </trkpt>
      <trkpt lat="41.768033" lon="2.994847">
        <ele>134.0</ele>
        <time>2019-01-14T01:23:48Z</time>
      </trkpt>
      <trkpt lat="41.768005" lon="2.994843">
        <ele>134.0</ele>
        <time>2019-01-14T01:23:48Z</time>
      </trkpt>
      <trkpt lat="41.767976" lon="2.994838">
        <ele>135.0</ele>
        <time>2019-01-14T01:23:49Z</time>
      </trkpt>
      <trkpt lat="41.767948" lon="2.994838">
        <ele>135.0</ele>
        <time>2019-01-14T01:23:49Z</time>
      </trkpt>
      <trkpt lat="41.767872" lon="2.994857">
        <ele>136.0</ele>
        <time>2019-01-14T01:23:50Z</time>
      </trkpt>
      <trkpt lat="41.767808" lon="2.994893">
        <ele>136.0</ele>
        <time>2019-01-14T01:23:51Z</time>
      </trkpt>
      <trkpt lat="41.767788" lon="2.994912">
        <ele>136.0</ele>
        <time>2019-01-14T01:23:52Z</time>
      </trkpt>
      <trkpt lat="41.767774" lon="2.994935">
        <ele>137.0</ele>
        <time>2019-01-14T01:23:52Z</time>
      </trkpt>
      <trkpt lat="41.767764" lon="2.994966">
        <ele>137.0</ele>
        <time>2019-01-14T01:23:53Z</time>
      </trkpt>
      <trkpt lat="41.767752" lon="2.994997">
        <ele>137.0</ele>
        <time>2019-01-14T01:23:53Z</time>
      </trkpt>
      <trkpt lat="41.767734" lon="2.995139">
        <ele>138.0</ele>
        <time>2019-01-14T01:23:55Z</time>
      </trkpt>
      <trkpt lat="41.767736" lon="2.995175">
        <ele>138.0</ele>
        <time>2019-01-14T01:23:55Z</time>
      </trkpt>
      <trkpt lat="41.767739" lon="2.995211">
        <ele>139.0</ele>
        <time>2019-01-14T01:23:56Z</time>
      </trkpt>
      <trkpt lat="41.767743" lon="2.995247">
        <ele>139.0</ele>
        <time>2019-01-14T01:23:56Z</time>
      </trkpt>
      <trkpt lat="41.767746" lon="2.995287">
        <ele>139.0</ele>
        <time>2019-01-14T01:23:56Z</time>
      </trkpt>
      <trkpt lat="41.767772" lon="2.995480">
        <ele>140.0</ele>
        <time>2019-01-14T01:23:59Z</time>
      </trkpt>
      <trkpt lat="41.767772" lon="2.995515">
        <ele>140.0</ele>
        <time>2019-01-14T01:23:59Z</time>
      </trkpt>
      <trkpt lat="41.767767" lon="2.995549">
        <ele>140.0</ele>
        <time>2019-01-14T01:24:00Z</time>
      </trkpt>
      <trkpt lat="41.767763" lon="2.995586">
        <ele>141.0</ele>
        <time>2019-01-14T01:24:00Z</time>
      </trkpt>
      <trkpt lat="41.767757" lon="2.995621">
        <ele>141.0</ele>
        <time>2019-01-14T01:24:00Z</time>
      </trkpt>
      <trkpt lat="41.767755" lon="2.995655">
        <ele>141.0</ele>
        <time>2019-01-14T01:24:01Z</time>
      </trkpt>
      <trkpt lat="41.767750" lon="2.995694">
        <ele>141.0</ele>
        <time>2019-01-14T01:24:01Z</time>
      </trkpt>
      <trkpt lat="41.767702" lon="2.995901">
        <ele>142.0</ele>
        <time>2019-01-14T01:24:04Z</time>
      </trkpt>
      <trkpt lat="41.767620" lon="2.996048">
        <ele>143.0</ele>
        <time>2019-01-14T01:24:06Z</time>
      </trkpt>
      <trkpt lat="41.767607" lon="2.996083">
        <ele>144.0</ele>
        <time>2019-01-14T01:24:07Z</time>
      </trkpt>
      <trkpt lat="41.767594" lon="2.996115">
        <ele>144.0</ele>
        <time>2019-01-14T01:24:07Z</time>
      </trkpt>
      <trkpt lat="41.767581" lon="2.996148">
        <ele>144.0</ele>
        <time>2019-01-14T01:24:07Z</time>
      </trkpt>
      <trkpt lat="41.767571" lon="2.996180">
        <ele>144.0</ele>
        <time>2019-01-14T01:24:08Z</time>
      </trkpt>
      <trkpt lat="41.767535" lon="2.996316">
        <ele>145.0</ele>
        <time>2019-01-14T01:24:10Z</time>
      </trkpt>
      <trkpt lat="41.767480" lon="2.996505">
        <ele>145.0</ele>
        <time>2019-01-14T01:24:12Z</time>
      </trkpt>
      <trkpt lat="41.767473" lon="2.996545">
        <ele>146.0</ele>
        <time>2019-01-14T01:24:13Z</time>
      </trkpt>
      <trkpt lat="41.767467" lon="2.996586">
        <ele>146.0</ele>
        <time>2019-01-14T01:24:13Z</time>
      </trkpt>
      <trkpt lat="41.767465" lon="2.996625">
        <ele>146.0</ele>
        <time>2019-01-14T01:24:13Z</time>
      </trkpt>
      <trkpt lat="41.767463" lon="2.996664">
        <ele>146.0</ele>
        <time>2019-01-14T01:24:14Z</time>
      </trkpt>
      <trkpt lat="41.767507" lon="2.996814">
        <ele>147.0</ele>
        <time>2019-01-14T01:24:16Z</time>
      </trkpt>
      <trkpt lat="41.767530" lon="2.996844">
        <ele>147.0</ele>
        <time>2019-01-14T01:24:16Z</time>
      </trkpt>
      <trkpt lat="41.767552" lon="2.996872">
        <ele>147.0</ele>
        <time>2019-01-14T01:24:17Z</time>
      </trkpt>
      <trkpt lat="41.767579" lon="2.996896">
        <ele>147.0</ele>
        <time>2019-01-14T01:24:17Z</time>
      </trkpt>
      <trkpt lat="41.767602" lon="2.996922">
        <ele>147.0</ele>
        <time>2019-01-14T01:24:18Z</time>
      </trkpt>
      <trkpt lat="41.767624" lon="2.996949">
        <ele>147.0</ele>
        <time>2019-01-14T01:24:18Z</time>
      </trkpt>
      <trkpt lat="41.767723" lon="2.997136">
        <ele>149.0</ele>
        <time>2019-01-14T01:24:21Z</time>
      </trkpt>
      <trkpt lat="41.767717" lon="2.997321">
        <ele>149.0</ele>
        <time>2019-01-14T01:24:23Z</time>
      </trkpt>
      <trkpt lat="41.767599" lon="2.997508">
        <ele>146.0</ele>
        <time>2019-01-14T01:24:26Z</time>
      </trkpt>
      <trkpt lat="41.767413" lon="2.997683">
        <ele>141.0</ele>
        <time>2019-01-14T01:24:30Z</time>
      </trkpt>
      <trkpt lat="41.767387" lon="2.997722">
        <ele>140.0</ele>
        <time>2019-01-14T01:24:30Z</time>
      </trkpt>
      <trkpt lat="41.767362" lon="2.997767">
        <ele>140.0</ele>
        <time>2019-01-14T01:24:31Z</time>
      </trkpt>
      <trkpt lat="41.767336" lon="2.997814">
        <ele>139.0</ele>
        <time>2019-01-14T01:24:32Z</time>
      </trkpt>
      <trkpt lat="41.767309" lon="2.997866">
        <ele>139.0</ele>
        <time>2019-01-14T01:24:33Z</time>
      </trkpt>
      <trkpt lat="41.767208" lon="2.998137">
        <ele>136.0</ele>
        <time>2019-01-14T01:24:36Z</time>
      </trkpt>
      <trkpt lat="41.767194" lon="2.998195">
        <ele>136.0</ele>
        <time>2019-01-14T01:24:37Z</time>
      </trkpt>
      <trkpt lat="41.767177" lon="2.998372">
        <ele>137.0</ele>
        <time>2019-01-14T01:24:39Z</time>
      </trkpt>
      <trkpt lat="41.767182" lon="2.998435">
        <ele>137.0</ele>
        <time>2019-01-14T01:24:40Z</time>
      </trkpt>
      <trkpt lat="41.767281" lon="2.998645">
        <ele>138.0</ele>
        <time>2019-01-14T01:24:43Z</time>
      </trkpt>
      <trkpt lat="41.767434" lon="2.998720">
        <ele>138.0</ele>
        <time>2019-01-14T01:24:45Z</time>
      </trkpt>
      <trkpt lat="41.767486" lon="2.998740">
        <ele>139.0</ele>
        <time>2019-01-14T01:24:46Z</time>
      </trkpt>
      <trkpt lat="41.767536" lon="2.998769">
        <ele>139.0</ele>
        <time>2019-01-14T01:24:47Z</time>
      </trkpt>
      <trkpt lat="41.767634" lon="2.998850">
        <ele>139.0</ele>
        <time>2019-01-14T01:24:49Z</time>
      </trkpt>
      <trkpt lat="41.767682" lon="2.998897">
        <ele>139.0</ele>
        <time>2019-01-14T01:24:50Z</time>
      </trkpt>
      <trkpt lat="41.767732" lon="2.998951">
        <ele>140.0</ele>
        <time>2019-01-14T01:24:51Z</time>
      </trkpt>
      <trkpt lat="41.767777" lon="2.999005">
        <ele>140.0</ele>
        <time>2019-01-14T01:24:52Z</time>
      </trkpt>
      <trkpt lat="41.767821" lon="2.999064">
        <ele>140.0</ele>
        <time>2019-01-14T01:24:53Z</time>
      </trkpt>
      <trkpt lat="41.767932" lon="2.999251">
        <ele>140.0</ele>
        <time>2019-01-14T01:24:56Z</time>
      </trkpt>
      <trkpt lat="41.767965" lon="2.999318">
        <ele>140.0</ele>
        <time>2019-01-14T01:24:57Z</time>
      </trkpt>
      <trkpt lat="41.767990" lon="2.999388">
        <ele>140.0</ele>
        <time>2019-01-14T01:24:58Z</time>
      </trkpt>
      <trkpt lat="41.768016" lon="2.999462">
        <ele>140.0</ele>
        <time>2019-01-14T01:24:59Z</time>
      </trkpt>
      <trkpt lat="41.768067" lon="2.999605">
        <ele>139.0</ele>
        <time>2019-01-14T01:25:01Z</time>
      </trkpt>
      <trkpt lat="41.768094" lon="2.999674">
        <ele>139.0</ele>
        <time>2019-01-14T01:25:01Z</time>
      </trkpt>
      <trkpt lat="41.768124" lon="2.999737">
        <ele>139.0</ele>
        <time>2019-01-14T01:25:02Z</time>
      </trkpt>
      <trkpt lat="41.768160" lon="2.999796">
        <ele>139.0</ele>
        <time>2019-01-14T01:25:03Z</time>
      </trkpt>
      <trkpt lat="41.768199" lon="2.999847">
        <ele>139.0</ele>
        <time>2019-01-14T01:25:04Z</time>
      </trkpt>
      <trkpt lat="41.768294" lon="2.999942">
        <ele>138.0</ele>
        <time>2019-01-14T01:25:06Z</time>
      </trkpt>
      <trkpt lat="41.768490" lon="3.000153">
        <ele>138.0</ele>
        <time>2019-01-14T01:25:10Z</time>
      </trkpt>
      <trkpt lat="41.768536" lon="3.000227">
        <ele>138.0</ele>
        <time>2019-01-14T01:25:11Z</time>
      </trkpt>
      <trkpt lat="41.768580" lon="3.000297">
        <ele>138.0</ele>
        <time>2019-01-14T01:25:12Z</time>
      </trkpt>
      <trkpt lat="41.768628" lon="3.000364">
        <ele>138.0</ele>
        <time>2019-01-14T01:25:13Z</time>
      </trkpt>
      <trkpt lat="41.768681" lon="3.000422">
        <ele>138.0</ele>
        <time>2019-01-14T01:25:15Z</time>
      </trkpt>
      <trkpt lat="41.768740" lon="3.000477">
        <ele>137.0</ele>
        <time>2019-01-14T01:25:16Z</time>
      </trkpt>
      <trkpt lat="41.768804" lon="3.000519">
        <ele>137.0</ele>
        <time>2019-01-14T01:25:17Z</time>
      </trkpt>
      <trkpt lat="41.769086" lon="3.000587">
        <ele>137.0</ele>
        <time>2019-01-14T01:25:21Z</time>
      </trkpt>
      <trkpt lat="41.769162" lon="3.000584">
        <ele>137.0</ele>
        <time>2019-01-14T01:25:23Z</time>
      </trkpt>
      <trkpt lat="41.769234" lon="3.000576">
        <ele>137.0</ele>
        <time>2019-01-14T01:25:24Z</time>
      </trkpt>
      <trkpt lat="41.769305" lon="3.000568">
        <ele>137.0</ele>
        <time>2019-01-14T01:25:25Z</time>
      </trkpt>
      <trkpt lat="41.769379" lon="3.000562">
        <ele>137.0</ele>
        <time>2019-01-14T01:25:26Z</time>
      </trkpt>
      <trkpt lat="41.769455" lon="3.000562">
        <ele>137.0</ele>
        <time>2019-01-14T01:25:27Z</time>
      </trkpt>
      <trkpt lat="41.769541" lon="3.000579">
        <ele>137.0</ele>
        <time>2019-01-14T01:25:29Z</time>
      </trkpt>
      <trkpt lat="41.769617" lon="3.000600">
        <ele>137.0</ele>
        <time>2019-01-14T01:25:30Z</time>
      </trkpt>
      <trkpt lat="41.769690" lon="3.000628">
        <ele>137.0</ele>
        <time>2019-01-14T01:25:31Z</time>
      </trkpt>
      <trkpt lat="41.769763" lon="3.000660">
        <ele>137.0</ele>
        <time>2019-01-14T01:25:32Z</time>
      </trkpt>
      <trkpt lat="41.769832" lon="3.000698">
        <ele>136.0</ele>
        <time>2019-01-14T01:25:34Z</time>
      </trkpt>
      <trkpt lat="41.770042" lon="3.000863">
        <ele>135.0</ele>
        <time>2019-01-14T01:25:37Z</time>
      </trkpt>
      <trkpt lat="41.770104" lon="3.000931">
        <ele>135.0</ele>
        <time>2019-01-14T01:25:39Z</time>
      </trkpt>
      <trkpt lat="41.770158" lon="3.001014">
        <ele>134.0</ele>
        <time>2019-01-14T01:25:40Z</time>
      </trkpt>
      <trkpt lat="41.770210" lon="3.001105">
        <ele>134.0</ele>
        <time>2019-01-14T01:25:41Z</time>
      </trkpt>
      <trkpt lat="41.770252" lon="3.001193">
        <ele>134.0</ele>
        <time>2019-01-14T01:25:43Z</time>
      </trkpt>
      <trkpt lat="41.770300" lon="3.001272">
        <ele>133.0</ele>
        <time>2019-01-14T01:25:44Z</time>
      </trkpt>
      <trkpt lat="41.770352" lon="3.001343">
        <ele>133.0</ele>
        <time>2019-01-14T01:25:45Z</time>
      </trkpt>
      <trkpt lat="41.770484" lon="3.001434">
        <ele>132.0</ele>
        <time>2019-01-14T01:25:47Z</time>
      </trkpt>
      <trkpt lat="41.770701" lon="3.001434">
        <ele>131.0</ele>
        <time>2019-01-14T01:25:51Z</time>
      </trkpt>
      <trkpt lat="41.770774" lon="3.001446">
        <ele>131.0</ele>
        <time>2019-01-14T01:25:52Z</time>
      </trkpt>
      <trkpt lat="41.770842" lon="3.001480">
        <ele>131.0</ele>
        <time>2019-01-14T01:25:53Z</time>
      </trkpt>
      <trkpt lat="41.770909" lon="3.001532">
        <ele>131.0</ele>
        <time>2019-01-14T01:25:55Z</time>
      </trkpt>
      <trkpt lat="41.770959" lon="3.001595">
        <ele>130.0</ele>
        <time>2019-01-14T01:25:56Z</time>
      </trkpt>
      <trkpt lat="41.771013" lon="3.001654">
        <ele>130.0</ele>
        <time>2019-01-14T01:25:57Z</time>
      </trkpt>
      <trkpt lat="41.771061" lon="3.001717">
        <ele>130.0</ele>
        <time>2019-01-14T01:25:58Z</time>
      </trkpt>
      <trkpt lat="41.771108" lon="3.001784">
        <ele>129.0</ele>
        <time>2019-01-14T01:25:59Z</time>
      </trkpt>
      <trkpt lat="41.771364" lon="3.002112">
        <ele>128.0</ele>
        <time>2019-01-14T01:26:05Z</time>
      </trkpt>
      <trkpt lat="41.771424" lon="3.002178">
        <ele>127.0</ele>
        <time>2019-01-14T01:26:06Z</time>
      </trkpt>
      <trkpt lat="41.771485" lon="3.002252">
        <ele>127.0</ele>
        <time>2019-01-14T01:26:07Z</time>
      </trkpt>
      <trkpt lat="41.771540" lon="3.002335">
        <ele>127.0</ele>
        <time>2019-01-14T01:26:08Z</time>
      </trkpt>
      <trkpt lat="41.771589" lon="3.002417">
        <ele>126.0</ele>
        <time>2019-01-14T01:26:10Z</time>
      </trkpt>
      <trkpt lat="41.771638" lon="3.002501">
        <ele>126.0</ele>
        <time>2019-01-14T01:26:11Z</time>
      </trkpt>
      <trkpt lat="41.771690" lon="3.002582">
        <ele>126.0</ele>
        <time>2019-01-14T01:26:12Z</time>
      </trkpt>
      <trkpt lat="41.771746" lon="3.002664">
        <ele>126.0</ele>
        <time>2019-01-14T01:26:14Z</time>
      </trkpt>
      <trkpt lat="41.771800" lon="3.002749">
        <ele>126.0</ele>
        <time>2019-01-14T01:26:15Z</time>
      </trkpt>
      <trkpt lat="41.771859" lon="3.002829">
        <ele>126.0</ele>
        <time>2019-01-14T01:26:16Z</time>
      </trkpt>
      <trkpt lat="41.771911" lon="3.002918">
        <ele>125.0</ele>
        <time>2019-01-14T01:26:18Z</time>
      </trkpt>
      <trkpt lat="41.771966" lon="3.003013">
        <ele>125.0</ele>
        <time>2019-01-14T01:26:19Z</time>
      </trkpt>
      <trkpt lat="41.772015" lon="3.003111">
        <ele>125.0</ele>
        <time>2019-01-14T01:26:20Z</time>
      </trkpt>
      <trkpt lat="41.772067" lon="3.003205">
        <ele>125.0</ele>
        <time>2019-01-14T01:26:22Z</time>
      </trkpt>
      <trkpt lat="41.772133" lon="3.003276">
        <ele>124.0</ele>
        <time>2019-01-14T01:26:23Z</time>
      </trkpt>
      <trkpt lat="41.772215" lon="3.003321">
        <ele>124.0</ele>
        <time>2019-01-14T01:26:25Z</time>
      </trkpt>
      <trkpt lat="41.772474" lon="3.003356">
        <ele>123.0</ele>
        <time>2019-01-14T01:26:29Z</time>
      </trkpt>
      <trkpt lat="41.772555" lon="3.003419">
        <ele>123.0</ele>
        <time>2019-01-14T01:26:30Z</time>
      </trkpt>
      <trkpt lat="41.772612" lon="3.003491">
        <ele>123.0</ele>
        <time>2019-01-14T01:26:32Z</time>
      </trkpt>
      <trkpt lat="41.772627" lon="3.003569">
        <ele>123.0</ele>
        <time>2019-01-14T01:26:33Z</time>
      </trkpt>
      <trkpt lat="41.772601" lon="3.003679">
        <ele>122.0</ele>
        <time>2019-01-14T01:26:34Z</time>
      </trkpt>
      <trkpt lat="41.772562" lon="3.003788">
        <ele>121.0</ele>
        <time>2019-01-14T01:26:35Z</time>
      </trkpt>
      <trkpt lat="41.772532" lon="3.003901">
        <ele>120.0</ele>
        <time>2019-01-14T01:26:37Z</time>
      </trkpt>
      <trkpt lat="41.772503" lon="3.004015">
        <ele>120.0</ele>
        <time>2019-01-14T01:26:38Z</time>
      </trkpt>
      <trkpt lat="41.772481" lon="3.004138">
        <ele>120.0</ele>
        <time>2019-01-14T01:26:40Z</time>
      </trkpt>
      <trkpt lat="41.772464" lon="3.004253">
        <ele>119.0</ele>
        <time>2019-01-14T01:26:41Z</time>
      </trkpt>
      <trkpt lat="41.772467" lon="3.004369">
        <ele>118.0</ele>
        <time>2019-01-14T01:26:43Z</time>
      </trkpt>
      <trkpt lat="41.772493" lon="3.004476">
        <ele>118.0</ele>
        <time>2019-01-14T01:26:44Z</time>
      </trkpt>
      <trkpt lat="41.772535" lon="3.004576">
        <ele>117.0</ele>
        <time>2019-01-14T01:26:45Z</time>
      </trkpt>
      <trkpt lat="41.772591" lon="3.004664">
        <ele>116.0</ele>
        <time>2019-01-14T01:26:47Z</time>
      </trkpt>
      <trkpt lat="41.772658" lon="3.004733">
        <ele>116.0</ele>
        <time>2019-01-14T01:26:48Z</time>
      </trkpt>
      <trkpt lat="41.772884" lon="3.004877">
        <ele>114.0</ele>
        <time>2019-01-14T01:26:52Z</time>
      </trkpt>
      <trkpt lat="41.772960" lon="3.004915">
        <ele>113.0</ele>
        <time>2019-01-14T01:26:53Z</time>
      </trkpt>
      <trkpt lat="41.773184" lon="3.005055">
        <ele>111.0</ele>
        <time>2019-01-14T01:26:57Z</time>
      </trkpt>
      <trkpt lat="41.773247" lon="3.005127">
        <ele>110.0</ele>
        <time>2019-01-14T01:26:59Z</time>
      </trkpt>
      <trkpt lat="41.773310" lon="3.005206">
        <ele>109.0</ele>
        <time>2019-01-14T01:27:00Z</time>
      </trkpt>
      <trkpt lat="41.773372" lon="3.005286">
        <ele>108.0</ele>
        <time>2019-01-14T01:27:01Z</time>
      </trkpt>
      <trkpt lat="41.773437" lon="3.005364">
        <ele>108.0</ele>
        <time>2019-01-14T01:27:03Z</time>
      </trkpt>
      <trkpt lat="41.773502" lon="3.005446">
        <ele>107.0</ele>
        <time>2019-01-14T01:27:04Z</time>
      </trkpt>
      <trkpt lat="41.773561" lon="3.005523">
        <ele>107.0</ele>
        <time>2019-01-14T01:27:05Z</time>
      </trkpt>
      <trkpt lat="41.773625" lon="3.005600">
        <ele>106.0</ele>
        <time>2019-01-14T01:27:07Z</time>
      </trkpt>
      <trkpt lat="41.773690" lon="3.005670">
        <ele>105.0</ele>
        <time>2019-01-14T01:27:08Z</time>
      </trkpt>
      <trkpt lat="41.773758" lon="3.005736">
        <ele>105.0</ele>
        <time>2019-01-14T01:27:09Z</time>
      </trkpt>
      <trkpt lat="41.773829" lon="3.005786">
        <ele>104.0</ele>
        <time>2019-01-14T01:27:11Z</time>
      </trkpt>
      <trkpt lat="41.773906" lon="3.005827">
        <ele>103.0</ele>
        <time>2019-01-14T01:27:12Z</time>
      </trkpt>
      <trkpt lat="41.774140" lon="3.005858">
        <ele>102.0</ele>
        <time>2019-01-14T01:27:16Z</time>
      </trkpt>
      <trkpt lat="41.774224" lon="3.005847">
        <ele>102.0</ele>
        <time>2019-01-14T01:27:17Z</time>
      </trkpt>
      <trkpt lat="41.774305" lon="3.005831">
        <ele>102.0</ele>
        <time>2019-01-14T01:27:19Z</time>
      </trkpt>
      <trkpt lat="41.774383" lon="3.005814">
        <ele>102.0</ele>
        <time>2019-01-14T01:27:20Z</time>
      </trkpt>
      <trkpt lat="41.774469" lon="3.005809">
        <ele>103.0</ele>
        <time>2019-01-14T01:27:21Z</time>
      </trkpt>
      <trkpt lat="41.774548" lon="3.005835">
        <ele>103.0</ele>
        <time>2019-01-14T01:27:22Z</time>
      </trkpt>
      <trkpt lat="41.774620" lon="3.005901">
        <ele>103.0</ele>
        <time>2019-01-14T01:27:24Z</time>
      </trkpt>
      <trkpt lat="41.774715" lon="3.006073">
        <ele>103.0</ele>
        <time>2019-01-14T01:27:26Z</time>
      </trkpt>
      <trkpt lat="41.774821" lon="3.006213">
        <ele>103.0</ele>
        <time>2019-01-14T01:27:29Z</time>
      </trkpt>
      <trkpt lat="41.774938" lon="3.006323">
        <ele>105.0</ele>
        <time>2019-01-14T01:27:31Z</time>
      </trkpt>
      <trkpt lat="41.775000" lon="3.006359">
        <ele>106.0</ele>
        <time>2019-01-14T01:27:32Z</time>
      </trkpt>
      <trkpt lat="41.775062" lon="3.006384">
        <ele>106.0</ele>
        <time>2019-01-14T01:27:33Z</time>
      </trkpt>
      <trkpt lat="41.775128" lon="3.006406">
        <ele>106.0</ele>
        <time>2019-01-14T01:27:34Z</time>
      </trkpt>
      <trkpt lat="41.775185" lon="3.006428">
        <ele>107.0</ele>
        <time>2019-01-14T01:27:35Z</time>
      </trkpt>
      <trkpt lat="41.775304" lon="3.006467">
        <ele>108.0</ele>
        <time>2019-01-14T01:27:37Z</time>
      </trkpt>
      <trkpt lat="41.775464" lon="3.006543">
        <ele>109.0</ele>
        <time>2019-01-14T01:27:40Z</time>
      </trkpt>
      <trkpt lat="41.775562" lon="3.006620">
        <ele>110.0</ele>
        <time>2019-01-14T01:27:42Z</time>
      </trkpt>
      <trkpt lat="41.775644" lon="3.006716">
        <ele>111.0</ele>
        <time>2019-01-14T01:27:43Z</time>
      </trkpt>
      <trkpt lat="41.775801" lon="3.006963">
        <ele>112.0</ele>
        <time>2019-01-14T01:27:47Z</time>
      </trkpt>
      <trkpt lat="41.775848" lon="3.007124">
        <ele>111.0</ele>
        <time>2019-01-14T01:27:49Z</time>
      </trkpt>
      <trkpt lat="41.775807" lon="3.007392">
        <ele>110.0</ele>
        <time>2019-01-14T01:27:53Z</time>
      </trkpt>
      <trkpt lat="41.775672" lon="3.007579">
        <ele>109.0</ele>
        <time>2019-01-14T01:27:56Z</time>
      </trkpt>
      <trkpt lat="41.775620" lon="3.007632">
        <ele>108.0</ele>
        <time>2019-01-14T01:27:57Z</time>
      </trkpt>
      <trkpt lat="41.775417" lon="3.007846">
        <ele>108.0</ele>
        <time>2019-01-14T01:28:01Z</time>
      </trkpt>
      <trkpt lat="41.775300" lon="3.007917">
        <ele>107.0</ele>
        <time>2019-01-14T01:28:03Z</time>
      </trkpt>
      <trkpt lat="41.775180" lon="3.007964">
        <ele>107.0</ele>
        <time>2019-01-14T01:28:05Z</time>
      </trkpt>
      <trkpt lat="41.775057" lon="3.008035">
        <ele>106.0</ele>
        <time>2019-01-14T01:28:07Z</time>
      </trkpt>
      <trkpt lat="41.775000" lon="3.008076">
        <ele>106.0</ele>
        <time>2019-01-14T01:28:08Z</time>
      </trkpt>
      <trkpt lat="41.774749" lon="3.008316">
        <ele>104.0</ele>
        <time>2019-01-14T01:28:13Z</time>
      </trkpt>
      <trkpt lat="41.774700" lon="3.008353">
        <ele>104.0</ele>
        <time>2019-01-14T01:28:14Z</time>
      </trkpt>
      <trkpt lat="41.774561" lon="3.008449">
        <ele>104.0</ele>
        <time>2019-01-14T01:28:17Z</time>
      </trkpt>
      <trkpt lat="41.774490" lon="3.008501">
        <ele>104.0</ele>
        <time>2019-01-14T01:28:18Z</time>
      </trkpt>
      <trkpt lat="41.774455" lon="3.008535">
        <ele>105.0</ele>
        <time>2019-01-14T01:28:19Z</time>
      </trkpt>
      <trkpt lat="41.774417" lon="3.008569">
        <ele>105.0</ele>
        <time>2019-01-14T01:28:19Z</time>
      </trkpt>
      <trkpt lat="41.774392" lon="3.008595">
        <ele>105.0</ele>
        <time>2019-01-14T01:28:20Z</time>
      </trkpt>
      <trkpt lat="41.774364" lon="3.008624">
        <ele>105.0</ele>
        <time>2019-01-14T01:28:20Z</time>
      </trkpt>
      <trkpt lat="41.774338" lon="3.008671">
        <ele>106.0</ele>
        <time>2019-01-14T01:28:21Z</time>
      </trkpt>
      <trkpt lat="41.774275" lon="3.008839">
        <ele>106.0</ele>
        <time>2019-01-14T01:28:23Z</time>
      </trkpt>
      <trkpt lat="41.774260" lon="3.008892">
        <ele>107.0</ele>
        <time>2019-01-14T01:28:24Z</time>
      </trkpt>
      <trkpt lat="41.774244" lon="3.008942">
        <ele>107.0</ele>
        <time>2019-01-14T01:28:25Z</time>
      </trkpt>
      <trkpt lat="41.774229" lon="3.008994">
        <ele>107.0</ele>
        <time>2019-01-14T01:28:25Z</time>
      </trkpt>
      <trkpt lat="41.774212" lon="3.009050">
        <ele>107.0</ele>
        <time>2019-01-14T01:28:26Z</time>
      </trkpt>
      <trkpt lat="41.774180" lon="3.009149">
        <ele>108.0</ele>
        <time>2019-01-14T01:28:27Z</time>
      </trkpt>
      <trkpt lat="41.774129" lon="3.009300">
        <ele>109.0</ele>
        <time>2019-01-14T01:28:29Z</time>
      </trkpt>
      <trkpt lat="41.774089" lon="3.009394">
        <ele>109.0</ele>
        <time>2019-01-14T01:28:31Z</time>
      </trkpt>
      <trkpt lat="41.774065" lon="3.009437">
        <ele>109.0</ele>
        <time>2019-01-14T01:28:31Z</time>
      </trkpt>
      <trkpt lat="41.774036" lon="3.009474">
        <ele>110.0</ele>
        <time>2019-01-14T01:28:32Z</time>
      </trkpt>
      <trkpt lat="41.774003" lon="3.009506">
        <ele>110.0</ele>
        <time>2019-01-14T01:28:32Z</time>
      </trkpt>
      <trkpt lat="41.773964" lon="3.009525">
        <ele>110.0</ele>
        <time>2019-01-14T01:28:33Z</time>
      </trkpt>
      <trkpt lat="41.773862" lon="3.009513">
        <ele>111.0</ele>
        <time>2019-01-14T01:28:35Z</time>
      </trkpt>
      <trkpt lat="41.773829" lon="3.009491">
        <ele>111.0</ele>
        <time>2019-01-14T01:28:35Z</time>
      </trkpt>
      <trkpt lat="41.773721" lon="3.009426">
        <ele>112.0</ele>
        <time>2019-01-14T01:28:37Z</time>
      </trkpt>
      <trkpt lat="41.773680" lon="3.009418">
        <ele>112.0</ele>
        <time>2019-01-14T01:28:38Z</time>
      </trkpt>
      <trkpt lat="41.773648" lon="3.009399">
        <ele>112.0</ele>
        <time>2019-01-14T01:28:39Z</time>
      </trkpt>
      <trkpt lat="41.773614" lon="3.009385">
        <ele>113.0</ele>
        <time>2019-01-14T01:28:39Z</time>
      </trkpt>
      <trkpt lat="41.773582" lon="3.009370">
        <ele>113.0</ele>
        <time>2019-01-14T01:28:40Z</time>
      </trkpt>
      <trkpt lat="41.773454" lon="3.009344">
        <ele>114.0</ele>
        <time>2019-01-14T01:28:42Z</time>
      </trkpt>
      <trkpt lat="41.773414" lon="3.009341">
        <ele>114.0</ele>
        <time>2019-01-14T01:28:42Z</time>
      </trkpt>
      <trkpt lat="41.773285" lon="3.009436">
        <ele>115.0</ele>
        <time>2019-01-14T01:28:45Z</time>
      </trkpt>
      <trkpt lat="41.773268" lon="3.009478">
        <ele>115.0</ele>
        <time>2019-01-14T01:28:45Z</time>
      </trkpt>
      <trkpt lat="41.773252" lon="3.009523">
        <ele>115.0</ele>
        <time>2019-01-14T01:28:46Z</time>
      </trkpt>
      <trkpt lat="41.773238" lon="3.009570">
        <ele>115.0</ele>
        <time>2019-01-14T01:28:46Z</time>
      </trkpt>
      <trkpt lat="41.773227" lon="3.009622">
        <ele>116.0</ele>
        <time>2019-01-14T01:28:47Z</time>
      </trkpt>
      <trkpt lat="41.773217" lon="3.009674">
        <ele>116.0</ele>
        <time>2019-01-14T01:28:48Z</time>
      </trkpt>
      <trkpt lat="41.773187" lon="3.009828">
        <ele>117.0</ele>
        <time>2019-01-14T01:28:50Z</time>
      </trkpt>
      <trkpt lat="41.773183" lon="3.009880">
        <ele>117.0</ele>
        <time>2019-01-14T01:28:50Z</time>
      </trkpt>
      <trkpt lat="41.773179" lon="3.009932">
        <ele>117.0</ele>
        <time>2019-01-14T01:28:51Z</time>
      </trkpt>
      <trkpt lat="41.773174" lon="3.009982">
        <ele>117.0</ele>
        <time>2019-01-14T01:28:51Z</time>
      </trkpt>
      <trkpt lat="41.773169" lon="3.010034">
        <ele>117.0</ele>
        <time>2019-01-14T01:28:52Z</time>
      </trkpt>
      <trkpt lat="41.773163" lon="3.010196">
        <ele>118.0</ele>
        <time>2019-01-14T01:28:54Z</time>
      </trkpt>
      <trkpt lat="41.773173" lon="3.010421">
        <ele>119.0</ele>
        <time>2019-01-14T01:28:57Z</time>
      </trkpt>
      <trkpt lat="41.773227" lon="3.010821">
        <ele>120.0</ele>
        <time>2019-01-14T01:29:02Z</time>
      </trkpt>
      <trkpt lat="41.773307" lon="3.011121">
        <ele>121.0</ele>
        <time>2019-01-14T01:29:05Z</time>
      </trkpt>
      <trkpt lat="41.773327" lon="3.011179">
        <ele>121.0</ele>
        <time>2019-01-14T01:29:06Z</time>
      </trkpt>
      <trkpt lat="41.773345" lon="3.011238">
        <ele>121.0</ele>
        <time>2019-01-14T01:29:07Z</time>
      </trkpt>
      <trkpt lat="41.773365" lon="3.011298">
        <ele>121.0</ele>
        <time>2019-01-14T01:29:08Z</time>
      </trkpt>
      <trkpt lat="41.773387" lon="3.011357">
        <ele>121.0</ele>
        <time>2019-01-14T01:29:08Z</time>
      </trkpt>
      <trkpt lat="41.773541" lon="3.011704">
        <ele>121.0</ele>
        <time>2019-01-14T01:29:13Z</time>
      </trkpt>
      <trkpt lat="41.773604" lon="3.011791">
        <ele>121.0</ele>
        <time>2019-01-14T01:29:15Z</time>
      </trkpt>
      <trkpt lat="41.773677" lon="3.011864">
        <ele>121.0</ele>
        <time>2019-01-14T01:29:16Z</time>
      </trkpt>
      <trkpt lat="41.773711" lon="3.011892">
        <ele>121.0</ele>
        <time>2019-01-14T01:29:17Z</time>
      </trkpt>
      <trkpt lat="41.773786" lon="3.011944">
        <ele>122.0</ele>
        <time>2019-01-14T01:29:18Z</time>
      </trkpt>
      <trkpt lat="41.773896" lon="3.012007">
        <ele>122.0</ele>
        <time>2019-01-14T01:29:20Z</time>
      </trkpt>
      <trkpt lat="41.774226" lon="3.012154">
        <ele>123.0</ele>
        <time>2019-01-14T01:29:26Z</time>
      </trkpt>
      <trkpt lat="41.774344" lon="3.012211">
        <ele>123.0</ele>
        <time>2019-01-14T01:29:28Z</time>
      </trkpt>
      <trkpt lat="41.774382" lon="3.012230">
        <ele>123.0</ele>
        <time>2019-01-14T01:29:28Z</time>
      </trkpt>
      <trkpt lat="41.774422" lon="3.012252">
        <ele>123.0</ele>
        <time>2019-01-14T01:29:29Z</time>
      </trkpt>
      <trkpt lat="41.774462" lon="3.012275">
        <ele>123.0</ele>
        <time>2019-01-14T01:29:30Z</time>
      </trkpt>
      <trkpt lat="41.774500" lon="3.012295">
        <ele>123.0</ele>
        <time>2019-01-14T01:29:30Z</time>
      </trkpt>
      <trkpt lat="41.774542" lon="3.012317">
        <ele>123.0</ele>
        <time>2019-01-14T01:29:31Z</time>
      </trkpt>
      <trkpt lat="41.774824" lon="3.012507">
        <ele>123.0</ele>
        <time>2019-01-14T01:29:36Z</time>
      </trkpt>
      <trkpt lat="41.775109" lon="3.012706">
        <ele>124.0</ele>
        <time>2019-01-14T01:29:41Z</time>
      </trkpt>
      <trkpt lat="41.775327" lon="3.012866">
        <ele>124.0</ele>
        <time>2019-01-14T01:29:45Z</time>
      </trkpt>
      <trkpt lat="41.775449" lon="3.012952">
        <ele>125.0</ele>
        <time>2019-01-14T01:29:47Z</time>
      </trkpt>
      <trkpt lat="41.775494" lon="3.012981">
        <ele>125.0</ele>
        <time>2019-01-14T01:29:48Z</time>
      </trkpt>
      <trkpt lat="41.775533" lon="3.013009">
        <ele>125.0</ele>
        <time>2019-01-14T01:29:49Z</time>
      </trkpt>
      <trkpt lat="41.775571" lon="3.013036">
        <ele>125.0</ele>
        <time>2019-01-14T01:29:50Z</time>
      </trkpt>
      <trkpt lat="41.775611" lon="3.013063">
        <ele>125.0</ele>
        <time>2019-01-14T01:29:50Z</time>
      </trkpt>
      <trkpt lat="41.775647" lon="3.013092">
        <ele>125.0</ele>
        <time>2019-01-14T01:29:51Z</time>
      </trkpt>
      <trkpt lat="41.775726" lon="3.013146">
        <ele>126.0</ele>
        <time>2019-01-14T01:29:53Z</time>
      </trkpt>
      <trkpt lat="41.776110" lon="3.013361">
        <ele>125.0</ele>
        <time>2019-01-14T01:29:59Z</time>
      </trkpt>
      <trkpt lat="41.776258" lon="3.013373">
        <ele>122.0</ele>
        <time>2019-01-14T01:30:02Z</time>
      </trkpt>
      <trkpt lat="41.776384" lon="3.013378">
        <ele>120.0</ele>
        <time>2019-01-14T01:30:04Z</time>
      </trkpt>
      <trkpt lat="41.776460" lon="3.013337">
        <ele>118.0</ele>
        <time>2019-01-14T01:30:05Z</time>
      </trkpt>
      <trkpt lat="41.776497" lon="3.013317">
        <ele>118.0</ele>
        <time>2019-01-14T01:30:06Z</time>
      </trkpt>
      <trkpt lat="41.776540" lon="3.013305">
        <ele>117.0</ele>
        <time>2019-01-14T01:30:06Z</time>
      </trkpt>
      <trkpt lat="41.776580" lon="3.013300">
        <ele>117.0</ele>
        <time>2019-01-14T01:30:07Z</time>
      </trkpt>
      <trkpt lat="41.776622" lon="3.013273">
        <ele>116.0</ele>
        <time>2019-01-14T01:30:08Z</time>
      </trkpt>
      <trkpt lat="41.776706" lon="3.013224">
        <ele>115.0</ele>
        <time>2019-01-14T01:30:09Z</time>
      </trkpt>
      <trkpt lat="41.776792" lon="3.013160">
        <ele>114.0</ele>
        <time>2019-01-14T01:30:11Z</time>
      </trkpt>
      <trkpt lat="41.776878" lon="3.013081">
        <ele>113.0</ele>
        <time>2019-01-14T01:30:12Z</time>
      </trkpt>
      <trkpt lat="41.776964" lon="3.012992">
        <ele>113.0</ele>
        <time>2019-01-14T01:30:14Z</time>
      </trkpt>
      <trkpt lat="41.777067" lon="3.012899">
        <ele>112.0</ele>
        <time>2019-01-14T01:30:16Z</time>
      </trkpt>
      <trkpt lat="41.777169" lon="3.012820">
        <ele>111.0</ele>
        <time>2019-01-14T01:30:18Z</time>
      </trkpt>
      <trkpt lat="41.777287" lon="3.012754">
        <ele>110.0</ele>
        <time>2019-01-14T01:30:20Z</time>
      </trkpt>
      <trkpt lat="41.777391" lon="3.012709">
        <ele>109.0</ele>
        <time>2019-01-14T01:30:22Z</time>
      </trkpt>
      <trkpt lat="41.777500" lon="3.012651">
        <ele>108.0</ele>
        <time>2019-01-14T01:30:24Z</time>
      </trkpt>
      <trkpt lat="41.777603" lon="3.012584">
        <ele>107.0</ele>
        <time>2019-01-14T01:30:25Z</time>
      </trkpt>
      <trkpt lat="41.777700" lon="3.012515">
        <ele>107.0</ele>
        <time>2019-01-14T01:30:27Z</time>
      </trkpt>
      <trkpt lat="41.777801" lon="3.012453">
        <ele>106.0</ele>
        <time>2019-01-14T01:30:29Z</time>
      </trkpt>
      <trkpt lat="41.777899" lon="3.012401">
        <ele>105.0</ele>
        <time>2019-01-14T01:30:31Z</time>
      </trkpt>
      <trkpt lat="41.777988" lon="3.012355">
        <ele>105.0</ele>
        <time>2019-01-14T01:30:32Z</time>
      </trkpt>
      <trkpt lat="41.778065" lon="3.012325">
        <ele>104.0</ele>
        <time>2019-01-14T01:30:33Z</time>
      </trkpt>
      <trkpt lat="41.778151" lon="3.012308">
        <ele>103.0</ele>
        <time>2019-01-14T01:30:35Z</time>
      </trkpt>
      <trkpt lat="41.778202" lon="3.012301">
        <ele>103.0</ele>
        <time>2019-01-14T01:30:36Z</time>
      </trkpt>
      <trkpt lat="41.778278" lon="3.012289">
        <ele>103.0</ele>
        <time>2019-01-14T01:30:37Z</time>
      </trkpt>
      <trkpt lat="41.778379" lon="3.012290">
        <ele>102.0</ele>
        <time>2019-01-14T01:30:39Z</time>
      </trkpt>
      <trkpt lat="41.778492" lon="3.012309">
        <ele>101.0</ele>
        <time>2019-01-14T01:30:40Z</time>
      </trkpt>
      <trkpt lat="41.778608" lon="3.012328">
        <ele>100.0</ele>
        <time>2019-01-14T01:30:42Z</time>
      </trkpt>
      <trkpt lat="41.778726" lon="3.012353">
        <ele>99.0</ele>
        <time>2019-01-14T01:30:44Z</time>
      </trkpt>
      <trkpt lat="41.778821" lon="3.012389">
        <ele>98.0</ele>
        <time>2019-01-14T01:30:46Z</time>
      </trkpt>
      <trkpt lat="41.778913" lon="3.012429">
        <ele>97.0</ele>
        <time>2019-01-14T01:30:47Z</time>
      </trkpt>
      <trkpt lat="41.778999" lon="3.012480">
        <ele>97.0</ele>
        <time>2019-01-14T01:30:49Z</time>
      </trkpt>
      <trkpt lat="41.779084" lon="3.012542">
        <ele>96.0</ele>
        <time>2019-01-14T01:30:50Z</time>
      </trkpt>
      <trkpt lat="41.779167" lon="3.012615">
        <ele>96.0</ele>
        <time>2019-01-14T01:30:52Z</time>
      </trkpt>
      <trkpt lat="41.779256" lon="3.012661">
        <ele>95.0</ele>
        <time>2019-01-14T01:30:53Z</time>
      </trkpt>
      <trkpt lat="41.779350" lon="3.012693">
        <ele>94.0</ele>
        <time>2019-01-14T01:30:55Z</time>
      </trkpt>
      <trkpt lat="41.779445" lon="3.012724">
        <ele>93.0</ele>
        <time>2019-01-14T01:30:57Z</time>
      </trkpt>
      <trkpt lat="41.779534" lon="3.012765">
        <ele>93.0</ele>
        <time>2019-01-14T01:30:58Z</time>
      </trkpt>
      <trkpt lat="41.779618" lon="3.012821">
        <ele>92.0</ele>
        <time>2019-01-14T01:31:00Z</time>
      </trkpt>
      <trkpt lat="41.779697" lon="3.012893">
        <ele>91.0</ele>
        <time>2019-01-14T01:31:01Z</time>
      </trkpt>
      <trkpt lat="41.779766" lon="3.012988">
        <ele>91.0</ele>
        <time>2019-01-14T01:31:03Z</time>
      </trkpt>
      <trkpt lat="41.779813" lon="3.013116">
        <ele>90.0</ele>
        <time>2019-01-14T01:31:04Z</time>
      </trkpt>
      <trkpt lat="41.779844" lon="3.013250">
        <ele>89.0</ele>
        <time>2019-01-14T01:31:06Z</time>
      </trkpt>
      <trkpt lat="41.779867" lon="3.013387">
        <ele>88.0</ele>
        <time>2019-01-14T01:31:08Z</time>
      </trkpt>
      <trkpt lat="41.779901" lon="3.013522">
        <ele>87.0</ele>
        <time>2019-01-14T01:31:09Z</time>
      </trkpt>
      <trkpt lat="41.779950" lon="3.013653">
        <ele>86.0</ele>
        <time>2019-01-14T01:31:11Z</time>
      </trkpt>
      <trkpt lat="41.779998" lon="3.013775">
        <ele>86.0</ele>
        <time>2019-01-14T01:31:13Z</time>
      </trkpt>
      <trkpt lat="41.780019" lon="3.013904">
        <ele>85.0</ele>
        <time>2019-01-14T01:31:14Z</time>
      </trkpt>
      <trkpt lat="41.780000" lon="3.014034">
        <ele>84.0</ele>
        <time>2019-01-14T01:31:16Z</time>
      </trkpt>
      <trkpt lat="41.779946" lon="3.014142">
        <ele>84.0</ele>
        <time>2019-01-14T01:31:18Z</time>
      </trkpt>
      <trkpt lat="41.779877" lon="3.014229">
        <ele>83.0</ele>
        <time>2019-01-14T01:31:19Z</time>
      </trkpt>
      <trkpt lat="41.779813" lon="3.014301">
        <ele>82.0</ele>
        <time>2019-01-14T01:31:20Z</time>
      </trkpt>
      <trkpt lat="41.779714" lon="3.014335">
        <ele>82.0</ele>
        <time>2019-01-14T01:31:22Z</time>
      </trkpt>
      <trkpt lat="41.779626" lon="3.014377">
        <ele>81.0</ele>
        <time>2019-01-14T01:31:23Z</time>
      </trkpt>
      <trkpt lat="41.779539" lon="3.014425">
        <ele>80.0</ele>
        <time>2019-01-14T01:31:25Z</time>
      </trkpt>
      <trkpt lat="41.779455" lon="3.014484">
        <ele>79.0</ele>
        <time>2019-01-14T01:31:27Z</time>
      </trkpt>
      <trkpt lat="41.779189" lon="3.014680">
        <ele>77.0</ele>
        <time>2019-01-14T01:31:31Z</time>
      </trkpt>
      <trkpt lat="41.779111" lon="3.014764">
        <ele>76.0</ele>
        <time>2019-01-14T01:31:33Z</time>
      </trkpt>
      <trkpt lat="41.779056" lon="3.014884">
        <ele>75.0</ele>
        <time>2019-01-14T01:31:35Z</time>
      </trkpt>
      <trkpt lat="41.779009" lon="3.015011">
        <ele>75.0</ele>
        <time>2019-01-14T01:31:36Z</time>
      </trkpt>
      <trkpt lat="41.778956" lon="3.015135">
        <ele>74.0</ele>
        <time>2019-01-14T01:31:38Z</time>
      </trkpt>
      <trkpt lat="41.778887" lon="3.015258">
        <ele>73.0</ele>
        <time>2019-01-14T01:31:40Z</time>
      </trkpt>
      <trkpt lat="41.778815" lon="3.015364">
        <ele>73.0</ele>
        <time>2019-01-14T01:31:42Z</time>
      </trkpt>
      <trkpt lat="41.778742" lon="3.015463">
        <ele>72.0</ele>
        <time>2019-01-14T01:31:43Z</time>
      </trkpt>
      <trkpt lat="41.778662" lon="3.015558">
        <ele>71.0</ele>
        <time>2019-01-14T01:31:45Z</time>
      </trkpt>
      <trkpt lat="41.778580" lon="3.015657">
        <ele>70.0</ele>
        <time>2019-01-14T01:31:47Z</time>
      </trkpt>
      <trkpt lat="41.778501" lon="3.015758">
        <ele>70.0</ele>
        <time>2019-01-14T01:31:48Z</time>
      </trkpt>
      <trkpt lat="41.778419" lon="3.015850">
        <ele>69.0</ele>
        <time>2019-01-14T01:31:50Z</time>
      </trkpt>
      <trkpt lat="41.778326" lon="3.015917">
        <ele>68.0</ele>
        <time>2019-01-14T01:31:52Z</time>
      </trkpt>
      <trkpt lat="41.778219" lon="3.015962">
        <ele>67.0</ele>
        <time>2019-01-14T01:31:54Z</time>
      </trkpt>
      <trkpt lat="41.778115" lon="3.015975">
        <ele>66.0</ele>
        <time>2019-01-14T01:31:55Z</time>
      </trkpt>
      <trkpt lat="41.778008" lon="3.015988">
        <ele>65.0</ele>
        <time>2019-01-14T01:31:57Z</time>
      </trkpt>
      <trkpt lat="41.777910" lon="3.016055">
        <ele>65.0</ele>
        <time>2019-01-14T01:31:59Z</time>
      </trkpt>
      <trkpt lat="41.777840" lon="3.016172">
        <ele>63.0</ele>
        <time>2019-01-14T01:32:01Z</time>
      </trkpt>
      <trkpt lat="41.777812" lon="3.016314">
        <ele>63.0</ele>
        <time>2019-01-14T01:32:02Z</time>
      </trkpt>
      <trkpt lat="41.777797" lon="3.016465">
        <ele>62.0</ele>
        <time>2019-01-14T01:32:04Z</time>
      </trkpt>
      <trkpt lat="41.777765" lon="3.016614">
        <ele>61.0</ele>
        <time>2019-01-14T01:32:06Z</time>
      </trkpt>
      <trkpt lat="41.777713" lon="3.016735">
        <ele>60.0</ele>
        <time>2019-01-14T01:32:08Z</time>
      </trkpt>
      <trkpt lat="41.777650" lon="3.016846">
        <ele>59.0</ele>
        <time>2019-01-14T01:32:09Z</time>
      </trkpt>
      <trkpt lat="41.777588" lon="3.016946">
        <ele>59.0</ele>
        <time>2019-01-14T01:32:11Z</time>
      </trkpt>
      <trkpt lat="41.777529" lon="3.017056">
        <ele>58.0</ele>
        <time>2019-01-14T01:32:13Z</time>
      </trkpt>
      <trkpt lat="41.777481" lon="3.017176">
        <ele>57.0</ele>
        <time>2019-01-14T01:32:14Z</time>
      </trkpt>
      <trkpt lat="41.777464" lon="3.017318">
        <ele>56.0</ele>
        <time>2019-01-14T01:32:16Z</time>
      </trkpt>
      <trkpt lat="41.777463" lon="3.017470">
        <ele>55.0</ele>
        <time>2019-01-14T01:32:18Z</time>
      </trkpt>
      <trkpt lat="41.777479" lon="3.017608">
        <ele>55.0</ele>
        <time>2019-01-14T01:32:19Z</time>
      </trkpt>
      <trkpt lat="41.777509" lon="3.017730">
        <ele>54.0</ele>
        <time>2019-01-14T01:32:21Z</time>
      </trkpt>
      <trkpt lat="41.777563" lon="3.017833">
        <ele>53.0</ele>
        <time>2019-01-14T01:32:22Z</time>
      </trkpt>
      <trkpt lat="41.777641" lon="3.017900">
        <ele>52.0</ele>
        <time>2019-01-14T01:32:24Z</time>
      </trkpt>
      <trkpt lat="41.777726" lon="3.017942">
        <ele>52.0</ele>
        <time>2019-01-14T01:32:25Z</time>
      </trkpt>
      <trkpt lat="41.777806" lon="3.018004">
        <ele>51.0</ele>
        <time>2019-01-14T01:32:27Z</time>
      </trkpt>
      <trkpt lat="41.777868" lon="3.018075">
        <ele>50.0</ele>
        <time>2019-01-14T01:32:28Z</time>
      </trkpt>
      <trkpt lat="41.777920" lon="3.018176">
        <ele>49.0</ele>
        <time>2019-01-14T01:32:30Z</time>
      </trkpt>
      <trkpt lat="41.777944" lon="3.018291">
        <ele>48.0</ele>
        <time>2019-01-14T01:32:31Z</time>
      </trkpt>
      <trkpt lat="41.777955" lon="3.018414">
        <ele>47.0</ele>
        <time>2019-01-14T01:32:33Z</time>
      </trkpt>
      <trkpt lat="41.777952" lon="3.018536">
        <ele>46.0</ele>
        <time>2019-01-14T01:32:34Z</time>
      </trkpt>
      <trkpt lat="41.777951" lon="3.018661">
        <ele>46.0</ele>
        <time>2019-01-14T01:32:35Z</time>
      </trkpt>
      <trkpt lat="41.777948" lon="3.018789">
        <ele>45.0</ele>
        <time>2019-01-14T01:32:37Z</time>
      </trkpt>
      <trkpt lat="41.777949" lon="3.018924">
        <ele>45.0</ele>
        <time>2019-01-14T01:32:39Z</time>
      </trkpt>
      <trkpt lat="41.777947" lon="3.019060">
        <ele>45.0</ele>
        <time>2019-01-14T01:32:40Z</time>
      </trkpt>
      <trkpt lat="41.777958" lon="3.019198">
        <ele>44.0</ele>
        <time>2019-01-14T01:32:42Z</time>
      </trkpt>
      <trkpt lat="41.777999" lon="3.019326">
        <ele>43.0</ele>
        <time>2019-01-14T01:32:44Z</time>
      </trkpt>
      <trkpt lat="41.778057" lon="3.019448">
        <ele>43.0</ele>
        <time>2019-01-14T01:32:45Z</time>
      </trkpt>
      <trkpt lat="41.778140" lon="3.019546">
        <ele>42.0</ele>
        <time>2019-01-14T01:32:47Z</time>
      </trkpt>
      <trkpt lat="41.778232" lon="3.019623">
        <ele>41.0</ele>
        <time>2019-01-14T01:32:49Z</time>
      </trkpt>
      <trkpt lat="41.778321" lon="3.019691">
        <ele>40.0</ele>
        <time>2019-01-14T01:32:50Z</time>
      </trkpt>
      <trkpt lat="41.778403" lon="3.019770">
        <ele>40.0</ele>
        <time>2019-01-14T01:32:52Z</time>
      </trkpt>
      <trkpt lat="41.778474" lon="3.019865">
        <ele>39.0</ele>
        <time>2019-01-14T01:32:54Z</time>
      </trkpt>
      <trkpt lat="41.778522" lon="3.019978">
        <ele>39.0</ele>
        <time>2019-01-14T01:32:55Z</time>
      </trkpt>
      <trkpt lat="41.778557" lon="3.020108">
        <ele>38.0</ele>
        <time>2019-01-14T01:32:57Z</time>
      </trkpt>
      <trkpt lat="41.778568" lon="3.020237">
        <ele>37.0</ele>
        <time>2019-01-14T01:32:58Z</time>
      </trkpt>
      <trkpt lat="41.778569" lon="3.020376">
        <ele>37.0</ele>
        <time>2019-01-14T01:33:00Z</time>
      </trkpt>
      <trkpt lat="41.778548" lon="3.020516">
        <ele>36.0</ele>
        <time>2019-01-14T01:33:02Z</time>
      </trkpt>
      <trkpt lat="41.778500" lon="3.020651">
        <ele>35.0</ele>
        <time>2019-01-14T01:33:04Z</time>
      </trkpt>
      <trkpt lat="41.778443" lon="3.020781">
        <ele>35.0</ele>
        <time>2019-01-14T01:33:05Z</time>
      </trkpt>
      <trkpt lat="41.778415" lon="3.020906">
        <ele>35.0</ele>
        <time>2019-01-14T01:33:07Z</time>
      </trkpt>
      <trkpt lat="41.778410" lon="3.021051">
        <ele>34.0</ele>
        <time>2019-01-14T01:33:09Z</time>
      </trkpt>
      <trkpt lat="41.778460" lon="3.021170">
        <ele>34.0</ele>
        <time>2019-01-14T01:33:10Z</time>
      </trkpt>
      <trkpt lat="41.778539" lon="3.021271">
        <ele>34.0</ele>
        <time>2019-01-14T01:33:12Z</time>
      </trkpt>
      <trkpt lat="41.778626" lon="3.021349">
        <ele>33.0</ele>
        <time>2019-01-14T01:33:14Z</time>
      </trkpt>
      <trkpt lat="41.778711" lon="3.021420">
        <ele>32.0</ele>
        <time>2019-01-14T01:33:15Z</time>
      </trkpt>
      <trkpt lat="41.778806" lon="3.021485">
        <ele>31.0</ele>
        <time>2019-01-14T01:33:17Z</time>
      </trkpt>
      <trkpt lat="41.778904" lon="3.021536">
        <ele>30.0</ele>
        <time>2019-01-14T01:33:19Z</time>
      </trkpt>
      <trkpt lat="41.779001" lon="3.021564">
        <ele>29.0</ele>
        <time>2019-01-14T01:33:20Z</time>
      </trkpt>
      <trkpt lat="41.779090" lon="3.021593">
        <ele>29.0</ele>
        <time>2019-01-14T01:33:22Z</time>
      </trkpt>
      <trkpt lat="41.779175" lon="3.021639">
        <ele>28.0</ele>
        <time>2019-01-14T01:33:23Z</time>
      </trkpt>
      <trkpt lat="41.779248" lon="3.021703">
        <ele>28.0</ele>
        <time>2019-01-14T01:33:25Z</time>
      </trkpt>
      <trkpt lat="41.779310" lon="3.021789">
        <ele>27.0</ele>
        <time>2019-01-14T01:33:26Z</time>
      </trkpt>
      <trkpt lat="41.779360" lon="3.021894">
        <ele>26.0</ele>
        <time>2019-01-14T01:33:28Z</time>
      </trkpt>
      <trkpt lat="41.779402" lon="3.022009">
        <ele>26.0</ele>
        <time>2019-01-14T01:33:29Z</time>
      </trkpt>
      <trkpt lat="41.779444" lon="3.022130">
        <ele>25.0</ele>
        <time>2019-01-14T01:33:31Z</time>
      </trkpt>
      <trkpt lat="41.779503" lon="3.022225">
        <ele>24.0</ele>
        <time>2019-01-14T01:33:32Z</time>
      </trkpt>
      <trkpt lat="41.779559" lon="3.022327">
        <ele>24.0</ele>
        <time>2019-01-14T01:33:34Z</time>
      </trkpt>
      <trkpt lat="41.779597" lon="3.022436">
        <ele>23.0</ele>
        <time>2019-01-14T01:33:35Z</time>
      </trkpt>
      <trkpt lat="41.779607" lon="3.022565">
        <ele>23.0</ele>
        <time>2019-01-14T01:33:37Z</time>
      </trkpt>
      <trkpt lat="41.779580" lon="3.022696">
        <ele>22.0</ele>
        <time>2019-01-14T01:33:38Z</time>
      </trkpt>
      <trkpt lat="41.779543" lon="3.022819">
        <ele>22.0</ele>
        <time>2019-01-14T01:33:40Z</time>
      </trkpt>
      <trkpt lat="41.779498" lon="3.022952">
        <ele>21.0</ele>
        <time>2019-01-14T01:33:42Z</time>
      </trkpt>
      <trkpt lat="41.779457" lon="3.023073">
        <ele>21.0</ele>
        <time>2019-01-14T01:33:43Z</time>
      </trkpt>
      <trkpt lat="41.779422" lon="3.023193">
        <ele>20.0</ele>
        <time>2019-01-14T01:33:45Z</time>
      </trkpt>
      <trkpt lat="41.779412" lon="3.023320">
        <ele>20.0</ele>
        <time>2019-01-14T01:33:46Z</time>
      </trkpt>
      <trkpt lat="41.779422" lon="3.023451">
        <ele>20.0</ele>
        <time>2019-01-14T01:33:48Z</time>
      </trkpt>
      <trkpt lat="41.779453" lon="3.023572">
        <ele>20.0</ele>
        <time>2019-01-14T01:33:49Z</time>
      </trkpt>
      <trkpt lat="41.779509" lon="3.023670">
        <ele>19.0</ele>
        <time>2019-01-14T01:33:51Z</time>
      </trkpt>
      <trkpt lat="41.779578" lon="3.023737">
        <ele>19.0</ele>
        <time>2019-01-14T01:33:52Z</time>
      </trkpt>
      <trkpt lat="41.779646" lon="3.023778">
        <ele>19.0</ele>
        <time>2019-01-14T01:33:53Z</time>
      </trkpt>
      <trkpt lat="41.779703" lon="3.023789">
        <ele>19.0</ele>
        <time>2019-01-14T01:33:54Z</time>
      </trkpt>
      <trkpt lat="41.779786" lon="3.023775">
        <ele>18.0</ele>
        <time>2019-01-14T01:33:56Z</time>
      </trkpt>
      <trkpt lat="41.779868" lon="3.023770">
        <ele>18.0</ele>
        <time>2019-01-14T01:33:57Z</time>
      </trkpt>
      <trkpt lat="41.779938" lon="3.023772">
        <ele>18.0</ele>
        <time>2019-01-14T01:33:58Z</time>
      </trkpt>
      <trkpt lat="41.779998" lon="3.023773">
        <ele>17.0</ele>
        <time>2019-01-14T01:33:59Z</time>
      </trkpt>
      <trkpt lat="41.780056" lon="3.023789">
        <ele>17.0</ele>
        <time>2019-01-14T01:34:00Z</time>
      </trkpt>
      <trkpt lat="41.780108" lon="3.023816">
        <ele>17.0</ele>
        <time>2019-01-14T01:34:01Z</time>
      </trkpt>
      <trkpt lat="41.780154" lon="3.023832">
        <ele>17.0</ele>
        <time>2019-01-14T01:34:02Z</time>
      </trkpt>
      <trkpt lat="41.780192" lon="3.023810">
        <ele>17.0</ele>
        <time>2019-01-14T01:34:02Z</time>
      </trkpt>
      <trkpt lat="41.780219" lon="3.023774">
        <ele>17.0</ele>
        <time>2019-01-14T01:34:03Z</time>
      </trkpt>
      <trkpt lat="41.780225" lon="3.023672">
        <ele>14.0</ele>
        <time>2019-01-14T01:34:04Z</time>
      </trkpt>
      <trkpt lat="41.780264" lon="3.023453">
        <ele>13.0</ele>
        <time>2019-01-14T01:34:07Z</time>
      </trkpt>
      <trkpt lat="41.780279" lon="3.023332">
        <ele>13.0</ele>
        <time>2019-01-14T01:34:08Z</time>
      </trkpt>
      <trkpt lat="41.780286" lon="3.023026">
        <ele>12.0</ele>
        <time>2019-01-14T01:34:12Z</time>
      </trkpt>
      <trkpt lat="41.780291" lon="3.022966">
        <ele>12.0</ele>
        <time>2019-01-14T01:34:13Z</time>
      </trkpt>
      <trkpt lat="41.780291" lon="3.022912">
        <ele>12.0</ele>
        <time>2019-01-14T01:34:13Z</time>
      </trkpt>
      <trkpt lat="41.780293" lon="3.022853">
        <ele>12.0</ele>
        <time>2019-01-14T01:34:14Z</time>
      </trkpt>
      <trkpt lat="41.780296" lon="3.022791">
        <ele>12.0</ele>
        <time>2019-01-14T01:34:15Z</time>
      </trkpt>
      <trkpt lat="41.780299" lon="3.022730">
        <ele>12.0</ele>
        <time>2019-01-14T01:34:15Z</time>
      </trkpt>
      <trkpt lat="41.780306" lon="3.022599">
        <ele>12.0</ele>
        <time>2019-01-14T01:34:17Z</time>
      </trkpt>
      <trkpt lat="41.780337" lon="3.022423">
        <ele>12.0</ele>
        <time>2019-01-14T01:34:19Z</time>
      </trkpt>
      <trkpt lat="41.780365" lon="3.022298">
        <ele>12.0</ele>
        <time>2019-01-14T01:34:21Z</time>
      </trkpt>
      <trkpt lat="41.780391" lon="3.022173">
        <ele>12.0</ele>
        <time>2019-01-14T01:34:22Z</time>
      </trkpt>
      <trkpt lat="41.780440" lon="3.021985">
        <ele>12.0</ele>
        <time>2019-01-14T01:34:25Z</time>
      </trkpt>
      <trkpt lat="41.780471" lon="3.021935">
        <ele>12.0</ele>
        <time>2019-01-14T01:34:25Z</time>
      </trkpt>
      <trkpt lat="41.780591" lon="3.021869">
        <ele>11.0</ele>
        <time>2019-01-14T01:34:27Z</time>
      </trkpt>
      <trkpt lat="41.780692" lon="3.021848">
        <ele>10.0</ele>
        <time>2019-01-14T01:34:29Z</time>
      </trkpt>
      <trkpt lat="41.780751" lon="3.021836">
        <ele>10.0</ele>
        <time>2019-01-14T01:34:30Z</time>
      </trkpt>
      <trkpt lat="41.780814" lon="3.021823">
        <ele>10.0</ele>
        <time>2019-01-14T01:34:31Z</time>
      </trkpt>
      <trkpt lat="41.780878" lon="3.021814">
        <ele>10.0</ele>
        <time>2019-01-14T01:34:32Z</time>
      </trkpt>
      <trkpt lat="41.780943" lon="3.021799">
        <ele>10.0</ele>
        <time>2019-01-14T01:34:33Z</time>
      </trkpt>
      <trkpt lat="41.780999" lon="3.021770">
        <ele>10.0</ele>
        <time>2019-01-14T01:34:34Z</time>
      </trkpt>
      <trkpt lat="41.781042" lon="3.021717">
        <ele>10.0</ele>
        <time>2019-01-14T01:34:35Z</time>
      </trkpt>
      <trkpt lat="41.781074" lon="3.021652">
        <ele>10.0</ele>
        <time>2019-01-14T01:34:36Z</time>
      </trkpt>
      <trkpt lat="41.781076" lon="3.021584">
        <ele>10.0</ele>
        <time>2019-01-14T01:34:37Z</time>
      </trkpt>
      <trkpt lat="41.781079" lon="3.021504">
        <ele>11.0</ele>
        <time>2019-01-14T01:34:38Z</time>
      </trkpt>
      <trkpt lat="41.781074" lon="3.021349">
        <ele>11.0</ele>
        <time>2019-01-14T01:34:40Z</time>
      </trkpt>
      <trkpt lat="41.781076" lon="3.021195">
        <ele>11.0</ele>
        <time>2019-01-14T01:34:41Z</time>
      </trkpt>
      <trkpt lat="41.781077" lon="3.021040">
        <ele>12.0</ele>
        <time>2019-01-14T01:34:43Z</time>
      </trkpt>
      <trkpt lat="41.781074" lon="3.020821">
        <ele>13.0</ele>
        <time>2019-01-14T01:34:46Z</time>
      </trkpt>
      <trkpt lat="41.781094" lon="3.020561">
        <ele>14.0</ele>
        <time>2019-01-14T01:34:49Z</time>
      </trkpt>
      <trkpt lat="41.781149" lon="3.020473">
        <ele>14.0</ele>
        <time>2019-01-14T01:34:50Z</time>
      </trkpt>
      <trkpt lat="41.781204" lon="3.020393">
        <ele>15.0</ele>
        <time>2019-01-14T01:34:52Z</time>
      </trkpt>
      <trkpt lat="41.781235" lon="3.020361">
        <ele>15.0</ele>
        <time>2019-01-14T01:34:52Z</time>
      </trkpt>
      <trkpt lat="41.781274" lon="3.020345">
        <ele>15.0</ele>
        <time>2019-01-14T01:34:53Z</time>
      </trkpt>
      <trkpt lat="41.781310" lon="3.020327">
        <ele>16.0</ele>
        <time>2019-01-14T01:34:54Z</time>
      </trkpt>
      <trkpt lat="41.781345" lon="3.020318">
        <ele>16.0</ele>
        <time>2019-01-14T01:34:54Z</time>
      </trkpt>
      <trkpt lat="41.781421" lon="3.020298">
        <ele>16.0</ele>
        <time>2019-01-14T01:34:55Z</time>
      </trkpt>
      <trkpt lat="41.781456" lon="3.020290">
        <ele>16.0</ele>
        <time>2019-01-14T01:34:56Z</time>
      </trkpt>
      <trkpt lat="41.781492" lon="3.020278">
        <ele>16.0</ele>
        <time>2019-01-14T01:34:57Z</time>
      </trkpt>
      <trkpt lat="41.781523" lon="3.020265">
        <ele>17.0</ele>
        <time>2019-01-14T01:34:57Z</time>
      </trkpt>
      <trkpt lat="41.781559" lon="3.020254">
        <ele>17.0</ele>
        <time>2019-01-14T01:34:58Z</time>
      </trkpt>
      <trkpt lat="41.781599" lon="3.020243">
        <ele>17.0</ele>
        <time>2019-01-14T01:34:58Z</time>
      </trkpt>
      <trkpt lat="41.781680" lon="3.020222">
        <ele>17.0</ele>
        <time>2019-01-14T01:35:00Z</time>
      </trkpt>
      <trkpt lat="41.781724" lon="3.020217">
        <ele>18.0</ele>
        <time>2019-01-14T01:35:00Z</time>
      </trkpt>
      <trkpt lat="41.781763" lon="3.020209">
        <ele>18.0</ele>
        <time>2019-01-14T01:35:01Z</time>
      </trkpt>
      <trkpt lat="41.781806" lon="3.020201">
        <ele>18.0</ele>
        <time>2019-01-14T01:35:02Z</time>
      </trkpt>
      <trkpt lat="41.781850" lon="3.020198">
        <ele>18.0</ele>
        <time>2019-01-14T01:35:02Z</time>
      </trkpt>
      <trkpt lat="41.781892" lon="3.020193">
        <ele>18.0</ele>
        <time>2019-01-14T01:35:03Z</time>
      </trkpt>
      <trkpt lat="41.781936" lon="3.020185">
        <ele>18.0</ele>
        <time>2019-01-14T01:35:04Z</time>
      </trkpt>
      <trkpt lat="41.782098" lon="3.020148">
        <ele>19.0</ele>
        <time>2019-01-14T01:35:06Z</time>
      </trkpt>
      <trkpt lat="41.782359" lon="3.020100">
        <ele>20.0</ele>
        <time>2019-01-14T01:35:11Z</time>
      </trkpt>
      <trkpt lat="41.782669" lon="3.020048">
        <ele>20.0</ele>
        <time>2019-01-14T01:35:16Z</time>
      </trkpt>
      <trkpt lat="41.783034" lon="3.019982">
        <ele>21.0</ele>
        <time>2019-01-14T01:35:22Z</time>
      </trkpt>
      <trkpt lat="41.783370" lon="3.019908">
        <ele>22.0</ele>
        <time>2019-01-14T01:35:27Z</time>
      </trkpt>
      <trkpt lat="41.783422" lon="3.019898">
        <ele>22.0</ele>
        <time>2019-01-14T01:35:28Z</time>
      </trkpt>
      <trkpt lat="41.783469" lon="3.019885">
        <ele>22.0</ele>
        <time>2019-01-14T01:35:29Z</time>
      </trkpt>
      <trkpt lat="41.783519" lon="3.019871">
        <ele>22.0</ele>
        <time>2019-01-14T01:35:29Z</time>
      </trkpt>
      <trkpt lat="41.783572" lon="3.019861">
        <ele>22.0</ele>
        <time>2019-01-14T01:35:30Z</time>
      </trkpt>
      <trkpt lat="41.783623" lon="3.019850">
        <ele>22.0</ele>
        <time>2019-01-14T01:35:31Z</time>
      </trkpt>
      <trkpt lat="41.783676" lon="3.019839">
        <ele>22.0</ele>
        <time>2019-01-14T01:35:32Z</time>
      </trkpt>
      <trkpt lat="41.783920" lon="3.019814">
        <ele>23.0</ele>
        <time>2019-01-14T01:35:36Z</time>
      </trkpt>
      <trkpt lat="41.784015" lon="3.019846">
        <ele>23.0</ele>
        <time>2019-01-14T01:35:37Z</time>
      </trkpt>
      <trkpt lat="41.784067" lon="3.019847">
        <ele>22.0</ele>
        <time>2019-01-14T01:35:38Z</time>
      </trkpt>
      <trkpt lat="41.784161" lon="3.019798">
        <ele>22.0</ele>
        <time>2019-01-14T01:35:40Z</time>
      </trkpt>
      <trkpt lat="41.784249" lon="3.019722">
        <ele>22.0</ele>
        <time>2019-01-14T01:35:42Z</time>
      </trkpt>
      <trkpt lat="41.784299" lon="3.019702">
        <ele>22.0</ele>
        <time>2019-01-14T01:35:42Z</time>
      </trkpt>
      <trkpt lat="41.784399" lon="3.019686">
        <ele>22.0</ele>
        <time>2019-01-14T01:35:44Z</time>
      </trkpt>
      <trkpt lat="41.784545" lon="3.019658">
        <ele>21.0</ele>
        <time>2019-01-14T01:35:46Z</time>
      </trkpt>
      <trkpt lat="41.784750" lon="3.019617">
        <ele>21.0</ele>
        <time>2019-01-14T01:35:50Z</time>
      </trkpt>
      <trkpt lat="41.785096" lon="3.019595">
        <ele>19.0</ele>
        <time>2019-01-14T01:35:55Z</time>
      </trkpt>
      <trkpt lat="41.785401" lon="3.019628">
        <ele>18.0</ele>
        <time>2019-01-14T01:36:00Z</time>
      </trkpt>
      <trkpt lat="41.785645" lon="3.019689">
        <ele>17.0</ele>
        <time>2019-01-14T01:36:04Z</time>
      </trkpt>
      <trkpt lat="41.785738" lon="3.019721">
        <ele>18.0</ele>
        <time>2019-01-14T01:36:06Z</time>
      </trkpt>
      <trkpt lat="41.785969" lon="3.019830">
        <ele>18.0</ele>
        <time>2019-01-14T01:36:10Z</time>
      </trkpt>
      <trkpt lat="41.786000" lon="3.019876">
        <ele>18.0</ele>
        <time>2019-01-14T01:36:10Z</time>
      </trkpt>
      <trkpt lat="41.786150" lon="3.020012">
        <ele>18.0</ele>
        <time>2019-01-14T01:36:13Z</time>
      </trkpt>
      <trkpt lat="41.786201" lon="3.020011">
        <ele>19.0</ele>
        <time>2019-01-14T01:36:14Z</time>
      </trkpt>
      <trkpt lat="41.786249" lon="3.020010">
        <ele>19.0</ele>
        <time>2019-01-14T01:36:15Z</time>
      </trkpt>
      <trkpt lat="41.786296" lon="3.020013">
        <ele>19.0</ele>
        <time>2019-01-14T01:36:16Z</time>
      </trkpt>
      <trkpt lat="41.786340" lon="3.020028">
        <ele>19.0</ele>
        <time>2019-01-14T01:36:16Z</time>
      </trkpt>
      <trkpt lat="41.786416" lon="3.020084">
        <ele>20.0</ele>
        <time>2019-01-14T01:36:18Z</time>
      </trkpt>
      <trkpt lat="41.786488" lon="3.020126">
        <ele>20.0</ele>
        <time>2019-01-14T01:36:19Z</time>
      </trkpt>
      <trkpt lat="41.786600" lon="3.020216">
        <ele>21.0</ele>
        <time>2019-01-14T01:36:21Z</time>
      </trkpt>
      <trkpt lat="41.786676" lon="3.020277">
        <ele>22.0</ele>
        <time>2019-01-14T01:36:22Z</time>
      </trkpt>
      <trkpt lat="41.786698" lon="3.020298">
        <ele>22.0</ele>
        <time>2019-01-14T01:36:23Z</time>
      </trkpt>
      <trkpt lat="41.786722" lon="3.020318">
        <ele>22.0</ele>
        <time>2019-01-14T01:36:23Z</time>
      </trkpt>
      <trkpt lat="41.786747" lon="3.020339">
        <ele>23.0</ele>
        <time>2019-01-14T01:36:24Z</time>
      </trkpt>
      <trkpt lat="41.786770" lon="3.020360">
        <ele>23.0</ele>
        <time>2019-01-14T01:36:24Z</time>
      </trkpt>
      <trkpt lat="41.786841" lon="3.020429">
        <ele>23.0</ele>
        <time>2019-01-14T01:36:26Z</time>
      </trkpt>
      <trkpt lat="41.786866" lon="3.020445">
        <ele>24.0</ele>
        <time>2019-01-14T01:36:26Z</time>
      </trkpt>
      <trkpt lat="41.786892" lon="3.020462">
        <ele>24.0</ele>
        <time>2019-01-14T01:36:27Z</time>
      </trkpt>
      <trkpt lat="41.786914" lon="3.020484">
        <ele>24.0</ele>
        <time>2019-01-14T01:36:27Z</time>
      </trkpt>
      <trkpt lat="41.786940" lon="3.020504">
        <ele>24.0</ele>
        <time>2019-01-14T01:36:27Z</time>
      </trkpt>
      <trkpt lat="41.787043" lon="3.020582">
        <ele>25.0</ele>
        <time>2019-01-14T01:36:29Z</time>
      </trkpt>
      <trkpt lat="41.787069" lon="3.020603">
        <ele>25.0</ele>
        <time>2019-01-14T01:36:30Z</time>
      </trkpt>
      <trkpt lat="41.787096" lon="3.020622">
        <ele>25.0</ele>
        <time>2019-01-14T01:36:30Z</time>
      </trkpt>
      <trkpt lat="41.787126" lon="3.020640">
        <ele>26.0</ele>
        <time>2019-01-14T01:36:31Z</time>
      </trkpt>
      <trkpt lat="41.787150" lon="3.020659">
        <ele>26.0</ele>
        <time>2019-01-14T01:36:31Z</time>
      </trkpt>
      <trkpt lat="41.787200" lon="3.020695">
        <ele>27.0</ele>
        <time>2019-01-14T01:36:32Z</time>
      </trkpt>
      <trkpt lat="41.787230" lon="3.020707">
        <ele>27.0</ele>
        <time>2019-01-14T01:36:33Z</time>
      </trkpt>
      <trkpt lat="41.787258" lon="3.020728">
        <ele>27.0</ele>
        <time>2019-01-14T01:36:33Z</time>
      </trkpt>
      <trkpt lat="41.787289" lon="3.020745">
        <ele>28.0</ele>
        <time>2019-01-14T01:36:34Z</time>
      </trkpt>
      <trkpt lat="41.787312" lon="3.020764">
        <ele>28.0</ele>
        <time>2019-01-14T01:36:34Z</time>
      </trkpt>
      <trkpt lat="41.787435" lon="3.020856">
        <ele>29.0</ele>
        <time>2019-01-14T01:36:36Z</time>
      </trkpt>
      <trkpt lat="41.787460" lon="3.020871">
        <ele>30.0</ele>
        <time>2019-01-14T01:36:37Z</time>
      </trkpt>
      <trkpt lat="41.787487" lon="3.020893">
        <ele>30.0</ele>
        <time>2019-01-14T01:36:37Z</time>
      </trkpt>
      <trkpt lat="41.787520" lon="3.020905">
        <ele>30.0</ele>
        <time>2019-01-14T01:36:38Z</time>
      </trkpt>
      <trkpt lat="41.787554" lon="3.020924">
        <ele>31.0</ele>
        <time>2019-01-14T01:36:39Z</time>
      </trkpt>
      <trkpt lat="41.787586" lon="3.020934">
        <ele>31.0</ele>
        <time>2019-01-14T01:36:39Z</time>
      </trkpt>
      <trkpt lat="41.787668" lon="3.020980">
        <ele>31.0</ele>
        <time>2019-01-14T01:36:40Z</time>
      </trkpt>
      <trkpt lat="41.787698" lon="3.020996">
        <ele>32.0</ele>
        <time>2019-01-14T01:36:41Z</time>
      </trkpt>
      <trkpt lat="41.787726" lon="3.021015">
        <ele>32.0</ele>
        <time>2019-01-14T01:36:41Z</time>
      </trkpt>
      <trkpt lat="41.787754" lon="3.021038">
        <ele>32.0</ele>
        <time>2019-01-14T01:36:42Z</time>
      </trkpt>
      <trkpt lat="41.787782" lon="3.021057">
        <ele>32.0</ele>
        <time>2019-01-14T01:36:43Z</time>
      </trkpt>
      <trkpt lat="41.787883" lon="3.021169">
        <ele>33.0</ele>
        <time>2019-01-14T01:36:45Z</time>
      </trkpt>
      <trkpt lat="41.788002" lon="3.021332">
        <ele>35.0</ele>
        <time>2019-01-14T01:36:47Z</time>
      </trkpt>
      <trkpt lat="41.788158" lon="3.021348">
        <ele>37.0</ele>
        <time>2019-01-14T01:36:50Z</time>
      </trkpt>
      <trkpt lat="41.788189" lon="3.021327">
        <ele>37.0</ele>
        <time>2019-01-14T01:36:50Z</time>
      </trkpt>
      <trkpt lat="41.788217" lon="3.021314">
        <ele>37.0</ele>
        <time>2019-01-14T01:36:51Z</time>
      </trkpt>
      <trkpt lat="41.788253" lon="3.021309">
        <ele>38.0</ele>
        <time>2019-01-14T01:36:51Z</time>
      </trkpt>
      <trkpt lat="41.788283" lon="3.021312">
        <ele>38.0</ele>
        <time>2019-01-14T01:36:52Z</time>
      </trkpt>
      <trkpt lat="41.788314" lon="3.021328">
        <ele>38.0</ele>
        <time>2019-01-14T01:36:52Z</time>
      </trkpt>
      <trkpt lat="41.788501" lon="3.021395">
        <ele>41.0</ele>
        <time>2019-01-14T01:36:56Z</time>
      </trkpt>
      <trkpt lat="41.788531" lon="3.021408">
        <ele>41.0</ele>
        <time>2019-01-14T01:36:56Z</time>
      </trkpt>
      <trkpt lat="41.788560" lon="3.021416">
        <ele>41.0</ele>
        <time>2019-01-14T01:36:57Z</time>
      </trkpt>
      <trkpt lat="41.788589" lon="3.021427">
        <ele>41.0</ele>
        <time>2019-01-14T01:36:57Z</time>
      </trkpt>
      <trkpt lat="41.788614" lon="3.021436">
        <ele>42.0</ele>
        <time>2019-01-14T01:36:57Z</time>
      </trkpt>
      <trkpt lat="41.788691" lon="3.021471">
        <ele>42.0</ele>
        <time>2019-01-14T01:36:59Z</time>
      </trkpt>
      <trkpt lat="41.788716" lon="3.021480">
        <ele>42.0</ele>
        <time>2019-01-14T01:36:59Z</time>
      </trkpt>
      <trkpt lat="41.788740" lon="3.021489">
        <ele>43.0</ele>
        <time>2019-01-14T01:37:00Z</time>
      </trkpt>
      <trkpt lat="41.788763" lon="3.021500">
        <ele>43.0</ele>
        <time>2019-01-14T01:37:00Z</time>
      </trkpt>
      <trkpt lat="41.788791" lon="3.021513">
        <ele>43.0</ele>
        <time>2019-01-14T01:37:00Z</time>
      </trkpt>
      <trkpt lat="41.788905" lon="3.021526">
        <ele>44.0</ele>
        <time>2019-01-14T01:37:02Z</time>
      </trkpt>
      <trkpt lat="41.788937" lon="3.021533">
        <ele>44.0</ele>
        <time>2019-01-14T01:37:03Z</time>
      </trkpt>
      <trkpt lat="41.788970" lon="3.021538">
        <ele>44.0</ele>
        <time>2019-01-14T01:37:03Z</time>
      </trkpt>
      <trkpt lat="41.788996" lon="3.021543">
        <ele>45.0</ele>
        <time>2019-01-14T01:37:04Z</time>
      </trkpt>
      <trkpt lat="41.789030" lon="3.021545">
        <ele>45.0</ele>
        <time>2019-01-14T01:37:04Z</time>
      </trkpt>
      <trkpt lat="41.789061" lon="3.021550">
        <ele>45.0</ele>
        <time>2019-01-14T01:37:05Z</time>
      </trkpt>
      <trkpt lat="41.789091" lon="3.021554">
        <ele>45.0</ele>
        <time>2019-01-14T01:37:05Z</time>
      </trkpt>
      <trkpt lat="41.789177" lon="3.021571">
        <ele>46.0</ele>
        <time>2019-01-14T01:37:07Z</time>
      </trkpt>
      <trkpt lat="41.789205" lon="3.021574">
        <ele>46.0</ele>
        <time>2019-01-14T01:37:07Z</time>
      </trkpt>
      <trkpt lat="41.789231" lon="3.021577">
        <ele>47.0</ele>
        <time>2019-01-14T01:37:07Z</time>
      </trkpt>
      <trkpt lat="41.789258" lon="3.021581">
        <ele>47.0</ele>
        <time>2019-01-14T01:37:08Z</time>
      </trkpt>
      <trkpt lat="41.789289" lon="3.021588">
        <ele>47.0</ele>
        <time>2019-01-14T01:37:08Z</time>
      </trkpt>
      <trkpt lat="41.789407" lon="3.021607">
        <ele>48.0</ele>
        <time>2019-01-14T01:37:10Z</time>
      </trkpt>
      <trkpt lat="41.789435" lon="3.021612">
        <ele>48.0</ele>
        <time>2019-01-14T01:37:11Z</time>
      </trkpt>
      <trkpt lat="41.789461" lon="3.021618">
        <ele>48.0</ele>
        <time>2019-01-14T01:37:11Z</time>
      </trkpt>
      <trkpt lat="41.789487" lon="3.021624">
        <ele>49.0</ele>
        <time>2019-01-14T01:37:12Z</time>
      </trkpt>
      <trkpt lat="41.789515" lon="3.021626">
        <ele>49.0</ele>
        <time>2019-01-14T01:37:12Z</time>
      </trkpt>
      <trkpt lat="41.789683" lon="3.021658">
        <ele>50.0</ele>
        <time>2019-01-14T01:37:15Z</time>
      </trkpt>
      <trkpt lat="41.789710" lon="3.021665">
        <ele>50.0</ele>
        <time>2019-01-14T01:37:15Z</time>
      </trkpt>
      <trkpt lat="41.789738" lon="3.021672">
        <ele>50.0</ele>
        <time>2019-01-14T01:37:16Z</time>
      </trkpt>
      <trkpt lat="41.789766" lon="3.021674">
        <ele>51.0</ele>
        <time>2019-01-14T01:37:16Z</time>
      </trkpt>
      <trkpt lat="41.789794" lon="3.021682">
        <ele>51.0</ele>
        <time>2019-01-14T01:37:17Z</time>
      </trkpt>
      <trkpt lat="41.789878" lon="3.021694">
        <ele>51.0</ele>
        <time>2019-01-14T01:37:18Z</time>
      </trkpt>
      <trkpt lat="41.789938" lon="3.021704">
        <ele>52.0</ele>
        <time>2019-01-14T01:37:19Z</time>
      </trkpt>
      <trkpt lat="41.789965" lon="3.021711">
        <ele>52.0</ele>
        <time>2019-01-14T01:37:19Z</time>
      </trkpt>
      <trkpt lat="41.789993" lon="3.021716">
        <ele>52.0</ele>
        <time>2019-01-14T01:37:20Z</time>
      </trkpt>
      <trkpt lat="41.790020" lon="3.021724">
        <ele>53.0</ele>
        <time>2019-01-14T01:37:20Z</time>
      </trkpt>
      <trkpt lat="41.790047" lon="3.021729">
        <ele>53.0</ele>
        <time>2019-01-14T01:37:21Z</time>
      </trkpt>
      <trkpt lat="41.790105" lon="3.021737">
        <ele>53.0</ele>
        <time>2019-01-14T01:37:22Z</time>
      </trkpt>
      <trkpt lat="41.790160" lon="3.021747">
        <ele>54.0</ele>
        <time>2019-01-14T01:37:23Z</time>
      </trkpt>
      <trkpt lat="41.790191" lon="3.021752">
        <ele>54.0</ele>
        <time>2019-01-14T01:37:23Z</time>
      </trkpt>
      <trkpt lat="41.790221" lon="3.021765">
        <ele>54.0</ele>
        <time>2019-01-14T01:37:24Z</time>
      </trkpt>
      <trkpt lat="41.790251" lon="3.021774">
        <ele>54.0</ele>
        <time>2019-01-14T01:37:24Z</time>
      </trkpt>
      <trkpt lat="41.790279" lon="3.021785">
        <ele>54.0</ele>
        <time>2019-01-14T01:37:24Z</time>
      </trkpt>
      <trkpt lat="41.790334" lon="3.021812">
        <ele>55.0</ele>
        <time>2019-01-14T01:37:25Z</time>
      </trkpt>
      <trkpt lat="41.790436" lon="3.021972">
        <ele>56.0</ele>
        <time>2019-01-14T01:37:28Z</time>
      </trkpt>
      <trkpt lat="41.790574" lon="3.022081">
        <ele>57.0</ele>
        <time>2019-01-14T01:37:30Z</time>
      </trkpt>
      <trkpt lat="41.790606" lon="3.022062">
        <ele>58.0</ele>
        <time>2019-01-14T01:37:31Z</time>
      </trkpt>
      <trkpt lat="41.790640" lon="3.022034">
        <ele>58.0</ele>
        <time>2019-01-14T01:37:32Z</time>
      </trkpt>
      <trkpt lat="41.790670" lon="3.022010">
        <ele>58.0</ele>
        <time>2019-01-14T01:37:32Z</time>
      </trkpt>
      <trkpt lat="41.790701" lon="3.021984">
        <ele>58.0</ele>
        <time>2019-01-14T01:37:33Z</time>
      </trkpt>
      <trkpt lat="41.790728" lon="3.021960">
        <ele>58.0</ele>
        <time>2019-01-14T01:37:33Z</time>
      </trkpt>
      <trkpt lat="41.790873" lon="3.021866">
        <ele>58.0</ele>
        <time>2019-01-14T01:37:36Z</time>
      </trkpt>
      <trkpt lat="41.791000" lon="3.021785">
        <ele>59.0</ele>
        <time>2019-01-14T01:37:38Z</time>
      </trkpt>
      <trkpt lat="41.791027" lon="3.021767">
        <ele>59.0</ele>
        <time>2019-01-14T01:37:39Z</time>
      </trkpt>
      <trkpt lat="41.791057" lon="3.021748">
        <ele>59.0</ele>
        <time>2019-01-14T01:37:39Z</time>
      </trkpt>
      <trkpt lat="41.791087" lon="3.021726">
        <ele>59.0</ele>
        <time>2019-01-14T01:37:40Z</time>
      </trkpt>
      <trkpt lat="41.791116" lon="3.021703">
        <ele>59.0</ele>
        <time>2019-01-14T01:37:40Z</time>
      </trkpt>
      <trkpt lat="41.791272" lon="3.021598">
        <ele>60.0</ele>
        <time>2019-01-14T01:37:43Z</time>
      </trkpt>
      <trkpt lat="41.791303" lon="3.021582">
        <ele>60.0</ele>
        <time>2019-01-14T01:37:44Z</time>
      </trkpt>
      <trkpt lat="41.791336" lon="3.021560">
        <ele>61.0</ele>
        <time>2019-01-14T01:37:44Z</time>
      </trkpt>
      <trkpt lat="41.791367" lon="3.021540">
        <ele>61.0</ele>
        <time>2019-01-14T01:37:45Z</time>
      </trkpt>
      <trkpt lat="41.791399" lon="3.021525">
        <ele>61.0</ele>
        <time>2019-01-14T01:37:45Z</time>
      </trkpt>
      <trkpt lat="41.791552" lon="3.021426">
        <ele>63.0</ele>
        <time>2019-01-14T01:37:48Z</time>
      </trkpt>
      <trkpt lat="41.791777" lon="3.021278">
        <ele>64.0</ele>
        <time>2019-01-14T01:37:52Z</time>
      </trkpt>
      <trkpt lat="41.791811" lon="3.021257">
        <ele>64.0</ele>
        <time>2019-01-14T01:37:53Z</time>
      </trkpt>
      <trkpt lat="41.791844" lon="3.021237">
        <ele>64.0</ele>
        <time>2019-01-14T01:37:53Z</time>
      </trkpt>
      <trkpt lat="41.791879" lon="3.021213">
        <ele>64.0</ele>
        <time>2019-01-14T01:37:54Z</time>
      </trkpt>
      <trkpt lat="41.791918" lon="3.021193">
        <ele>65.0</ele>
        <time>2019-01-14T01:37:54Z</time>
      </trkpt>
      <trkpt lat="41.792024" lon="3.021142">
        <ele>65.0</ele>
        <time>2019-01-14T01:37:56Z</time>
      </trkpt>
      <trkpt lat="41.792201" lon="3.021059">
        <ele>66.0</ele>
        <time>2019-01-14T01:37:59Z</time>
      </trkpt>
      <trkpt lat="41.792272" lon="3.021031">
        <ele>66.0</ele>
        <time>2019-01-14T01:38:00Z</time>
      </trkpt>
      <trkpt lat="41.792307" lon="3.021016">
        <ele>66.0</ele>
        <time>2019-01-14T01:38:01Z</time>
      </trkpt>
      <trkpt lat="41.792346" lon="3.020995">
        <ele>66.0</ele>
        <time>2019-01-14T01:38:02Z</time>
      </trkpt>
      <trkpt lat="41.792382" lon="3.020984">
        <ele>66.0</ele>
        <time>2019-01-14T01:38:02Z</time>
      </trkpt>
      <trkpt lat="41.792418" lon="3.020965">
        <ele>66.0</ele>
        <time>2019-01-14T01:38:03Z</time>
      </trkpt>
      <trkpt lat="41.792455" lon="3.020951">
        <ele>67.0</ele>
        <time>2019-01-14T01:38:04Z</time>
      </trkpt>
      <trkpt lat="41.792701" lon="3.020837">
        <ele>68.0</ele>
        <time>2019-01-14T01:38:08Z</time>
      </trkpt>
      <trkpt lat="41.792924" lon="3.020748">
        <ele>68.0</ele>
        <time>2019-01-14T01:38:11Z</time>
      </trkpt>
      <trkpt lat="41.792960" lon="3.020730">
        <ele>69.0</ele>
        <time>2019-01-14T01:38:12Z</time>
      </trkpt>
      <trkpt lat="41.792997" lon="3.020721">
        <ele>69.0</ele>
        <time>2019-01-14T01:38:13Z</time>
      </trkpt>
      <trkpt lat="41.793029" lon="3.020706">
        <ele>69.0</ele>
        <time>2019-01-14T01:38:13Z</time>
      </trkpt>
      <trkpt lat="41.793065" lon="3.020691">
        <ele>69.0</ele>
        <time>2019-01-14T01:38:14Z</time>
      </trkpt>
      <trkpt lat="41.793101" lon="3.020678">
        <ele>69.0</ele>
        <time>2019-01-14T01:38:14Z</time>
      </trkpt>
      <trkpt lat="41.793137" lon="3.020663">
        <ele>69.0</ele>
        <time>2019-01-14T01:38:15Z</time>
      </trkpt>
      <trkpt lat="41.793342" lon="3.020577">
        <ele>70.0</ele>
        <time>2019-01-14T01:38:18Z</time>
      </trkpt>
      <trkpt lat="41.793375" lon="3.020579">
        <ele>70.0</ele>
        <time>2019-01-14T01:38:19Z</time>
      </trkpt>
      <trkpt lat="41.793411" lon="3.020584">
        <ele>70.0</ele>
        <time>2019-01-14T01:38:20Z</time>
      </trkpt>
      <trkpt lat="41.793448" lon="3.020590">
        <ele>71.0</ele>
        <time>2019-01-14T01:38:20Z</time>
      </trkpt>
      <trkpt lat="41.793490" lon="3.020586">
        <ele>71.0</ele>
        <time>2019-01-14T01:38:21Z</time>
      </trkpt>
      <trkpt lat="41.793536" lon="3.020568">
        <ele>71.0</ele>
        <time>2019-01-14T01:38:22Z</time>
      </trkpt>
      <trkpt lat="41.793561" lon="3.020540">
        <ele>71.0</ele>
        <time>2019-01-14T01:38:22Z</time>
      </trkpt>
      <trkpt lat="41.793624" lon="3.020467">
        <ele>71.0</ele>
        <time>2019-01-14T01:38:23Z</time>
      </trkpt>
      <trkpt lat="41.793827" lon="3.020335">
        <ele>71.0</ele>
        <time>2019-01-14T01:38:27Z</time>
      </trkpt>
      <trkpt lat="41.794043" lon="3.020243">
        <ele>73.0</ele>
        <time>2019-01-14T01:38:31Z</time>
      </trkpt>
      <trkpt lat="41.794072" lon="3.020229">
        <ele>74.0</ele>
        <time>2019-01-14T01:38:31Z</time>
      </trkpt>
      <trkpt lat="41.794108" lon="3.020213">
        <ele>74.0</ele>
        <time>2019-01-14T01:38:32Z</time>
      </trkpt>
      <trkpt lat="41.794141" lon="3.020197">
        <ele>74.0</ele>
        <time>2019-01-14T01:38:32Z</time>
      </trkpt>
      <trkpt lat="41.794176" lon="3.020183">
        <ele>74.0</ele>
        <time>2019-01-14T01:38:33Z</time>
      </trkpt>
      <trkpt lat="41.794215" lon="3.020165">
        <ele>74.0</ele>
        <time>2019-01-14T01:38:34Z</time>
      </trkpt>
      <trkpt lat="41.794243" lon="3.020150">
        <ele>74.0</ele>
        <time>2019-01-14T01:38:34Z</time>
      </trkpt>
      <trkpt lat="41.794464" lon="3.020057">
        <ele>75.0</ele>
        <time>2019-01-14T01:38:38Z</time>
      </trkpt>
      <trkpt lat="41.794506" lon="3.020039">
        <ele>76.0</ele>
        <time>2019-01-14T01:38:38Z</time>
      </trkpt>
      <trkpt lat="41.794546" lon="3.020017">
        <ele>76.0</ele>
        <time>2019-01-14T01:38:39Z</time>
      </trkpt>
      <trkpt lat="41.794582" lon="3.020002">
        <ele>76.0</ele>
        <time>2019-01-14T01:38:40Z</time>
      </trkpt>
      <trkpt lat="41.794620" lon="3.019987">
        <ele>76.0</ele>
        <time>2019-01-14T01:38:40Z</time>
      </trkpt>
      <trkpt lat="41.794726" lon="3.019945">
        <ele>77.0</ele>
        <time>2019-01-14T01:38:42Z</time>
      </trkpt>
      <trkpt lat="41.795017" lon="3.019816">
        <ele>78.0</ele>
        <time>2019-01-14T01:38:47Z</time>
      </trkpt>
      <trkpt lat="41.795057" lon="3.019802">
        <ele>78.0</ele>
        <time>2019-01-14T01:38:48Z</time>
      </trkpt>
      <trkpt lat="41.795095" lon="3.019787">
        <ele>78.0</ele>
        <time>2019-01-14T01:38:48Z</time>
      </trkpt>
      <trkpt lat="41.795131" lon="3.019770">
        <ele>78.0</ele>
        <time>2019-01-14T01:38:49Z</time>
      </trkpt>
      <trkpt lat="41.795165" lon="3.019754">
        <ele>79.0</ele>
        <time>2019-01-14T01:38:50Z</time>
      </trkpt>
      <trkpt lat="41.795204" lon="3.019735">
        <ele>79.0</ele>
        <time>2019-01-14T01:38:50Z</time>
      </trkpt>
      <trkpt lat="41.795278" lon="3.019722">
        <ele>79.0</ele>
        <time>2019-01-14T01:38:51Z</time>
      </trkpt>
      <trkpt lat="41.795415" lon="3.019810">
        <ele>80.0</ele>
        <time>2019-01-14T01:38:54Z</time>
      </trkpt>
      <trkpt lat="41.795490" lon="3.019995">
        <ele>79.0</ele>
        <time>2019-01-14T01:38:56Z</time>
      </trkpt>
      <trkpt lat="41.795556" lon="3.020266">
        <ele>79.0</ele>
        <time>2019-01-14T01:39:00Z</time>
      </trkpt>
      <trkpt lat="41.795565" lon="3.020312">
        <ele>79.0</ele>
        <time>2019-01-14T01:39:00Z</time>
      </trkpt>
      <trkpt lat="41.795575" lon="3.020358">
        <ele>79.0</ele>
        <time>2019-01-14T01:39:01Z</time>
      </trkpt>
      <trkpt lat="41.795583" lon="3.020406">
        <ele>79.0</ele>
        <time>2019-01-14T01:39:02Z</time>
      </trkpt>
      <trkpt lat="41.795592" lon="3.020449">
        <ele>79.0</ele>
        <time>2019-01-14T01:39:02Z</time>
      </trkpt>
      <trkpt lat="41.795631" lon="3.020677">
        <ele>79.0</ele>
        <time>2019-01-14T01:39:05Z</time>
      </trkpt>
      <trkpt lat="41.795673" lon="3.020951">
        <ele>80.0</ele>
        <time>2019-01-14T01:39:08Z</time>
      </trkpt>
      <trkpt lat="41.795681" lon="3.021044">
        <ele>80.0</ele>
        <time>2019-01-14T01:39:09Z</time>
      </trkpt>
      <trkpt lat="41.795682" lon="3.021097">
        <ele>80.0</ele>
        <time>2019-01-14T01:39:10Z</time>
      </trkpt>
      <trkpt lat="41.795683" lon="3.021146">
        <ele>80.0</ele>
        <time>2019-01-14T01:39:11Z</time>
      </trkpt>
      <trkpt lat="41.795680" lon="3.021199">
        <ele>80.0</ele>
        <time>2019-01-14T01:39:11Z</time>
      </trkpt>
      <trkpt lat="41.795677" lon="3.021257">
        <ele>80.0</ele>
        <time>2019-01-14T01:39:12Z</time>
      </trkpt>
      <trkpt lat="41.795681" lon="3.021315">
        <ele>80.0</ele>
        <time>2019-01-14T01:39:13Z</time>
      </trkpt>
      <trkpt lat="41.795719" lon="3.021470">
        <ele>82.0</ele>
        <time>2019-01-14T01:39:14Z</time>
      </trkpt>
      <trkpt lat="41.795709" lon="3.021731">
        <ele>82.0</ele>
        <time>2019-01-14T01:39:18Z</time>
      </trkpt>
      <trkpt lat="41.795716" lon="3.021942">
        <ele>83.0</ele>
        <time>2019-01-14T01:39:20Z</time>
      </trkpt>
      <trkpt lat="41.795713" lon="3.021991">
        <ele>83.0</ele>
        <time>2019-01-14T01:39:21Z</time>
      </trkpt>
      <trkpt lat="41.795716" lon="3.022043">
        <ele>84.0</ele>
        <time>2019-01-14T01:39:21Z</time>
      </trkpt>
      <trkpt lat="41.795714" lon="3.022096">
        <ele>84.0</ele>
        <time>2019-01-14T01:39:22Z</time>
      </trkpt>
      <trkpt lat="41.795716" lon="3.022146">
        <ele>84.0</ele>
        <time>2019-01-14T01:39:23Z</time>
      </trkpt>
      <trkpt lat="41.795716" lon="3.022457">
        <ele>85.0</ele>
        <time>2019-01-14T01:39:26Z</time>
      </trkpt>
      <trkpt lat="41.795704" lon="3.022887">
        <ele>85.0</ele>
        <time>2019-01-14T01:39:31Z</time>
      </trkpt>
      <trkpt lat="41.795708" lon="3.023002">
        <ele>85.0</ele>
        <time>2019-01-14T01:39:33Z</time>
      </trkpt>
      <trkpt lat="41.795705" lon="3.023057">
        <ele>85.0</ele>
        <time>2019-01-14T01:39:33Z</time>
      </trkpt>
      <trkpt lat="41.795701" lon="3.023114">
        <ele>85.0</ele>
        <time>2019-01-14T01:39:34Z</time>
      </trkpt>
      <trkpt lat="41.795703" lon="3.023171">
        <ele>85.0</ele>
        <time>2019-01-14T01:39:35Z</time>
      </trkpt>
      <trkpt lat="41.795700" lon="3.023230">
        <ele>85.0</ele>
        <time>2019-01-14T01:39:36Z</time>
      </trkpt>
      <trkpt lat="41.795686" lon="3.023354">
        <ele>85.0</ele>
        <time>2019-01-14T01:39:37Z</time>
      </trkpt>
      <trkpt lat="41.795665" lon="3.023611">
        <ele>84.0</ele>
        <time>2019-01-14T01:39:40Z</time>
      </trkpt>
      <trkpt lat="41.795648" lon="3.023815">
        <ele>84.0</ele>
        <time>2019-01-14T01:39:43Z</time>
      </trkpt>
      <trkpt lat="41.795640" lon="3.023886">
        <ele>84.0</ele>
        <time>2019-01-14T01:39:43Z</time>
      </trkpt>
      <trkpt lat="41.795632" lon="3.023958">
        <ele>83.0</ele>
        <time>2019-01-14T01:39:44Z</time>
      </trkpt>
      <trkpt lat="41.795622" lon="3.024028">
        <ele>83.0</ele>
        <time>2019-01-14T01:39:45Z</time>
      </trkpt>
      <trkpt lat="41.795616" lon="3.024099">
        <ele>83.0</ele>
        <time>2019-01-14T01:39:46Z</time>
      </trkpt>
      <trkpt lat="41.795605" lon="3.024251">
        <ele>83.0</ele>
        <time>2019-01-14T01:39:48Z</time>
      </trkpt>
      <trkpt lat="41.795609" lon="3.024407">
        <ele>83.0</ele>
        <time>2019-01-14T01:39:50Z</time>
      </trkpt>
      <trkpt lat="41.795608" lon="3.024570">
        <ele>82.0</ele>
        <time>2019-01-14T01:39:52Z</time>
      </trkpt>
      <trkpt lat="41.795613" lon="3.024741">
        <ele>82.0</ele>
        <time>2019-01-14T01:39:54Z</time>
      </trkpt>
      <trkpt lat="41.795614" lon="3.024822">
        <ele>82.0</ele>
        <time>2019-01-14T01:39:55Z</time>
      </trkpt>
      <trkpt lat="41.795614" lon="3.024903">
        <ele>81.0</ele>
        <time>2019-01-14T01:39:56Z</time>
      </trkpt>
      <trkpt lat="41.795614" lon="3.024987">
        <ele>81.0</ele>
        <time>2019-01-14T01:39:57Z</time>
      </trkpt>
      <trkpt lat="41.795609" lon="3.025074">
        <ele>81.0</ele>
        <time>2019-01-14T01:39:58Z</time>
      </trkpt>
      <trkpt lat="41.795612" lon="3.025348">
        <ele>81.0</ele>
        <time>2019-01-14T01:40:01Z</time>
      </trkpt>
      <trkpt lat="41.795616" lon="3.025443">
        <ele>81.0</ele>
        <time>2019-01-14T01:40:02Z</time>
      </trkpt>
      <trkpt lat="41.795619" lon="3.025538">
        <ele>81.0</ele>
        <time>2019-01-14T01:40:03Z</time>
      </trkpt>
      <trkpt lat="41.795621" lon="3.025628">
        <ele>81.0</ele>
        <time>2019-01-14T01:40:04Z</time>
      </trkpt>
      <trkpt lat="41.795620" lon="3.025709">
        <ele>81.0</ele>
        <time>2019-01-14T01:40:05Z</time>
      </trkpt>
      <trkpt lat="41.795624" lon="3.025865">
        <ele>81.0</ele>
        <time>2019-01-14T01:40:07Z</time>
      </trkpt>
      <trkpt lat="41.795621" lon="3.025939">
        <ele>81.0</ele>
        <time>2019-01-14T01:40:08Z</time>
      </trkpt>
      <trkpt lat="41.795622" lon="3.026506">
        <ele>82.0</ele>
        <time>2019-01-14T01:40:15Z</time>
      </trkpt>
      <trkpt lat="41.795623" lon="3.026641">
        <ele>83.0</ele>
        <time>2019-01-14T01:40:16Z</time>
      </trkpt>
      <trkpt lat="41.795622" lon="3.026845">
        <ele>83.0</ele>
        <time>2019-01-14T01:40:19Z</time>
      </trkpt>
      <trkpt lat="41.795629" lon="3.027182">
        <ele>83.0</ele>
        <time>2019-01-14T01:40:23Z</time>
      </trkpt>
      <trkpt lat="41.795608" lon="3.027247">
        <ele>82.0</ele>
        <time>2019-01-14T01:40:24Z</time>
      </trkpt>
      <trkpt lat="41.795561" lon="3.027279">
        <ele>81.0</ele>
        <time>2019-01-14T01:40:24Z</time>
      </trkpt>
      <trkpt lat="41.795400" lon="3.027281">
        <ele>79.0</ele>
        <time>2019-01-14T01:40:27Z</time>
      </trkpt>
      <trkpt lat="41.795334" lon="3.027277">
        <ele>78.0</ele>
        <time>2019-01-14T01:40:28Z</time>
      </trkpt>
      <trkpt lat="41.795057" lon="3.027265">
        <ele>74.0</ele>
        <time>2019-01-14T01:40:33Z</time>
      </trkpt>
      <trkpt lat="41.794981" lon="3.027254">
        <ele>73.0</ele>
        <time>2019-01-14T01:40:34Z</time>
      </trkpt>
      <trkpt lat="41.794902" lon="3.027254">
        <ele>72.0</ele>
        <time>2019-01-14T01:40:35Z</time>
      </trkpt>
      <trkpt lat="41.794824" lon="3.027250">
        <ele>71.0</ele>
        <time>2019-01-14T01:40:36Z</time>
      </trkpt>
      <trkpt lat="41.794752" lon="3.027254">
        <ele>70.0</ele>
        <time>2019-01-14T01:40:37Z</time>
      </trkpt>
      <trkpt lat="41.794686" lon="3.027244">
        <ele>69.0</ele>
        <time>2019-01-14T01:40:39Z</time>
      </trkpt>
      <trkpt lat="41.794627" lon="3.027232">
        <ele>68.0</ele>
        <time>2019-01-14T01:40:39Z</time>
      </trkpt>
      <trkpt lat="41.794573" lon="3.027215">
        <ele>67.0</ele>
        <time>2019-01-14T01:40:40Z</time>
      </trkpt>
      <trkpt lat="41.794529" lon="3.027214">
        <ele>67.0</ele>
        <time>2019-01-14T01:40:41Z</time>
      </trkpt>
      <trkpt lat="41.794503" lon="3.027247">
        <ele>66.0</ele>
        <time>2019-01-14T01:40:42Z</time>
      </trkpt>
      <trkpt lat="41.794483" lon="3.027308">
        <ele>66.0</ele>
        <time>2019-01-14T01:40:42Z</time>
      </trkpt>
      <trkpt lat="41.794485" lon="3.027367">
        <ele>66.0</ele>
        <time>2019-01-14T01:40:43Z</time>
      </trkpt>
      <trkpt lat="41.794496" lon="3.027429">
        <ele>66.0</ele>
        <time>2019-01-14T01:40:44Z</time>
      </trkpt>
      <trkpt lat="41.794499" lon="3.027639">
        <ele>67.0</ele>
        <time>2019-01-14T01:40:46Z</time>
      </trkpt>
      <trkpt lat="41.794498" lon="3.027709">
        <ele>67.0</ele>
        <time>2019-01-14T01:40:47Z</time>
      </trkpt>
      <trkpt lat="41.794507" lon="3.027776">
        <ele>67.0</ele>
        <time>2019-01-14T01:40:48Z</time>
      </trkpt>
      <trkpt lat="41.794549" lon="3.028038">
        <ele>68.0</ele>
        <time>2019-01-14T01:40:51Z</time>
      </trkpt>
      <trkpt lat="41.794702" lon="3.028429">
        <ele>71.0</ele>
        <time>2019-01-14T01:40:57Z</time>
      </trkpt>
      <trkpt lat="41.794741" lon="3.028532">
        <ele>71.0</ele>
        <time>2019-01-14T01:40:58Z</time>
      </trkpt>
      <trkpt lat="41.794760" lon="3.028590">
        <ele>71.0</ele>
        <time>2019-01-14T01:40:59Z</time>
      </trkpt>
      <trkpt lat="41.794770" lon="3.028646">
        <ele>72.0</ele>
        <time>2019-01-14T01:40:59Z</time>
      </trkpt>
      <trkpt lat="41.794784" lon="3.028704">
        <ele>72.0</ele>
        <time>2019-01-14T01:41:00Z</time>
      </trkpt>
      <trkpt lat="41.794795" lon="3.028765">
        <ele>72.0</ele>
        <time>2019-01-14T01:41:01Z</time>
      </trkpt>
      <trkpt lat="41.794796" lon="3.028824">
        <ele>72.0</ele>
        <time>2019-01-14T01:41:02Z</time>
      </trkpt>
      <trkpt lat="41.794782" lon="3.029002">
        <ele>73.0</ele>
        <time>2019-01-14T01:41:04Z</time>
      </trkpt>
      <trkpt lat="41.794776" lon="3.029056">
        <ele>73.0</ele>
        <time>2019-01-14T01:41:04Z</time>
      </trkpt>
      <trkpt lat="41.794742" lon="3.029226">
        <ele>73.0</ele>
        <time>2019-01-14T01:41:06Z</time>
      </trkpt>
      <trkpt lat="41.794741" lon="3.029338">
        <ele>74.0</ele>
        <time>2019-01-14T01:41:08Z</time>
      </trkpt>
      <trkpt lat="41.794740" lon="3.029476">
        <ele>75.0</ele>
        <time>2019-01-14T01:41:09Z</time>
      </trkpt>
      <trkpt lat="41.794742" lon="3.029518">
        <ele>75.0</ele>
        <time>2019-01-14T01:41:10Z</time>
      </trkpt>
      <trkpt lat="41.794751" lon="3.029557">
        <ele>75.0</ele>
        <time>2019-01-14T01:41:10Z</time>
      </trkpt>
      <trkpt lat="41.794757" lon="3.029590">
        <ele>75.0</ele>
        <time>2019-01-14T01:41:11Z</time>
      </trkpt>
      <trkpt lat="41.794758" lon="3.029630">
        <ele>75.0</ele>
        <time>2019-01-14T01:41:11Z</time>
      </trkpt>
      <trkpt lat="41.794764" lon="3.029756">
        <ele>76.0</ele>
        <time>2019-01-14T01:41:13Z</time>
      </trkpt>
      <trkpt lat="41.794741" lon="3.029854">
        <ele>76.0</ele>
        <time>2019-01-14T01:41:14Z</time>
      </trkpt>
      <trkpt lat="41.794731" lon="3.029902">
        <ele>76.0</ele>
        <time>2019-01-14T01:41:15Z</time>
      </trkpt>
      <trkpt lat="41.794717" lon="3.029941">
        <ele>77.0</ele>
        <time>2019-01-14T01:41:15Z</time>
      </trkpt>
      <trkpt lat="41.794695" lon="3.029983">
        <ele>77.0</ele>
        <time>2019-01-14T01:41:16Z</time>
      </trkpt>
      <trkpt lat="41.794682" lon="3.030024">
        <ele>77.0</ele>
        <time>2019-01-14T01:41:16Z</time>
      </trkpt>
      <trkpt lat="41.794625" lon="3.030183">
        <ele>77.0</ele>
        <time>2019-01-14T01:41:18Z</time>
      </trkpt>
      <trkpt lat="41.794592" lon="3.030442">
        <ele>77.0</ele>
        <time>2019-01-14T01:41:21Z</time>
      </trkpt>
      <trkpt lat="41.794599" lon="3.030497">
        <ele>76.0</ele>
        <time>2019-01-14T01:41:22Z</time>
      </trkpt>
      <trkpt lat="41.794604" lon="3.030545">
        <ele>76.0</ele>
        <time>2019-01-14T01:41:23Z</time>
      </trkpt>
      <trkpt lat="41.794611" lon="3.030600">
        <ele>76.0</ele>
        <time>2019-01-14T01:41:23Z</time>
      </trkpt>
      <trkpt lat="41.794616" lon="3.030663">
        <ele>76.0</ele>
        <time>2019-01-14T01:41:24Z</time>
      </trkpt>
      <trkpt lat="41.794630" lon="3.030720">
        <ele>76.0</ele>
        <time>2019-01-14T01:41:25Z</time>
      </trkpt>
      <trkpt lat="41.794643" lon="3.030774">
        <ele>76.0</ele>
        <time>2019-01-14T01:41:26Z</time>
      </trkpt>
      <trkpt lat="41.794657" lon="3.030827">
        <ele>75.0</ele>
        <time>2019-01-14T01:41:26Z</time>
      </trkpt>
      <trkpt lat="41.794672" lon="3.030891">
        <ele>75.0</ele>
        <time>2019-01-14T01:41:27Z</time>
      </trkpt>
      <trkpt lat="41.794688" lon="3.030948">
        <ele>75.0</ele>
        <time>2019-01-14T01:41:28Z</time>
      </trkpt>
      <trkpt lat="41.794707" lon="3.031007">
        <ele>74.0</ele>
        <time>2019-01-14T01:41:29Z</time>
      </trkpt>
      <trkpt lat="41.794755" lon="3.031111">
        <ele>74.0</ele>
        <time>2019-01-14T01:41:30Z</time>
      </trkpt>
      <trkpt lat="41.794785" lon="3.031155">
        <ele>73.0</ele>
        <time>2019-01-14T01:41:31Z</time>
      </trkpt>
      <trkpt lat="41.794815" lon="3.031195">
        <ele>73.0</ele>
        <time>2019-01-14T01:41:31Z</time>
      </trkpt>
      <trkpt lat="41.794834" lon="3.031257">
        <ele>73.0</ele>
        <time>2019-01-14T01:41:32Z</time>
      </trkpt>
      <trkpt lat="41.794850" lon="3.031321">
        <ele>72.0</ele>
        <time>2019-01-14T01:41:33Z</time>
      </trkpt>
      <trkpt lat="41.794859" lon="3.031396">
        <ele>72.0</ele>
        <time>2019-01-14T01:41:34Z</time>
      </trkpt>
      <trkpt lat="41.794856" lon="3.031567">
        <ele>71.0</ele>
        <time>2019-01-14T01:41:36Z</time>
      </trkpt>
      <trkpt lat="41.794853" lon="3.031666">
        <ele>71.0</ele>
        <time>2019-01-14T01:41:37Z</time>
      </trkpt>
      <trkpt lat="41.794852" lon="3.031762">
        <ele>70.0</ele>
        <time>2019-01-14T01:41:38Z</time>
      </trkpt>
      <trkpt lat="41.794855" lon="3.031865">
        <ele>70.0</ele>
        <time>2019-01-14T01:41:39Z</time>
      </trkpt>
      <trkpt lat="41.794860" lon="3.031976">
        <ele>69.0</ele>
        <time>2019-01-14T01:41:41Z</time>
      </trkpt>
      <trkpt lat="41.794864" lon="3.032082">
        <ele>69.0</ele>
        <time>2019-01-14T01:41:42Z</time>
      </trkpt>
      <trkpt lat="41.794868" lon="3.032191">
        <ele>68.0</ele>
        <time>2019-01-14T01:41:43Z</time>
      </trkpt>
      <trkpt lat="41.794873" lon="3.032303">
        <ele>68.0</ele>
        <time>2019-01-14T01:41:45Z</time>
      </trkpt>
      <trkpt lat="41.794878" lon="3.032416">
        <ele>67.0</ele>
        <time>2019-01-14T01:41:46Z</time>
      </trkpt>
      <trkpt lat="41.794884" lon="3.032527">
        <ele>66.0</ele>
        <time>2019-01-14T01:41:47Z</time>
      </trkpt>
      <trkpt lat="41.794894" lon="3.032635">
        <ele>66.0</ele>
        <time>2019-01-14T01:41:49Z</time>
      </trkpt>
      <trkpt lat="41.794905" lon="3.032742">
        <ele>65.0</ele>
        <time>2019-01-14T01:41:50Z</time>
      </trkpt>
      <trkpt lat="41.794917" lon="3.032851">
        <ele>65.0</ele>
        <time>2019-01-14T01:41:51Z</time>
      </trkpt>
      <trkpt lat="41.794929" lon="3.032955">
        <ele>65.0</ele>
        <time>2019-01-14T01:41:53Z</time>
      </trkpt>
      <trkpt lat="41.794951" lon="3.033146">
        <ele>64.0</ele>
        <time>2019-01-14T01:41:55Z</time>
      </trkpt>
      <trkpt lat="41.794990" lon="3.033493">
        <ele>64.0</ele>
        <time>2019-01-14T01:41:59Z</time>
      </trkpt>
      <trkpt lat="41.795001" lon="3.033571">
        <ele>64.0</ele>
        <time>2019-01-14T01:42:00Z</time>
      </trkpt>
      <trkpt lat="41.795052" lon="3.033861">
        <ele>64.0</ele>
        <time>2019-01-14T01:42:04Z</time>
      </trkpt>
      <trkpt lat="41.795093" lon="3.034047">
        <ele>64.0</ele>
        <time>2019-01-14T01:42:06Z</time>
      </trkpt>
      <trkpt lat="41.795167" lon="3.034445">
        <ele>63.0</ele>
        <time>2019-01-14T01:42:11Z</time>
      </trkpt>
      <trkpt lat="41.795237" lon="3.034759">
        <ele>62.0</ele>
        <time>2019-01-14T01:42:15Z</time>
      </trkpt>
      <trkpt lat="41.795273" lon="3.034909">
        <ele>61.0</ele>
        <time>2019-01-14T01:42:17Z</time>
      </trkpt>
      <trkpt lat="41.795290" lon="3.034979">
        <ele>61.0</ele>
        <time>2019-01-14T01:42:17Z</time>
      </trkpt>
      <trkpt lat="41.795308" lon="3.035050">
        <ele>61.0</ele>
        <time>2019-01-14T01:42:18Z</time>
      </trkpt>
      <trkpt lat="41.795326" lon="3.035123">
        <ele>61.0</ele>
        <time>2019-01-14T01:42:19Z</time>
      </trkpt>
      <trkpt lat="41.795344" lon="3.035193">
        <ele>60.0</ele>
        <time>2019-01-14T01:42:20Z</time>
      </trkpt>
      <trkpt lat="41.795416" lon="3.035394">
        <ele>59.0</ele>
        <time>2019-01-14T01:42:23Z</time>
      </trkpt>
      <trkpt lat="41.795496" lon="3.035593">
        <ele>58.0</ele>
        <time>2019-01-14T01:42:25Z</time>
      </trkpt>
      <trkpt lat="41.795562" lon="3.035717">
        <ele>58.0</ele>
        <time>2019-01-14T01:42:27Z</time>
      </trkpt>
      <trkpt lat="41.795634" lon="3.035838">
        <ele>57.0</ele>
        <time>2019-01-14T01:42:29Z</time>
      </trkpt>
      <trkpt lat="41.795786" lon="3.036027">
        <ele>54.0</ele>
        <time>2019-01-14T01:42:32Z</time>
      </trkpt>
      <trkpt lat="41.795851" lon="3.036096">
        <ele>54.0</ele>
        <time>2019-01-14T01:42:34Z</time>
      </trkpt>
      <trkpt lat="41.795912" lon="3.036174">
        <ele>53.0</ele>
        <time>2019-01-14T01:42:35Z</time>
      </trkpt>
      <trkpt lat="41.795969" lon="3.036256">
        <ele>52.0</ele>
        <time>2019-01-14T01:42:36Z</time>
      </trkpt>
      <trkpt lat="41.796024" lon="3.036341">
        <ele>52.0</ele>
        <time>2019-01-14T01:42:38Z</time>
      </trkpt>
      <trkpt lat="41.796082" lon="3.036424">
        <ele>52.0</ele>
        <time>2019-01-14T01:42:39Z</time>
      </trkpt>
      <trkpt lat="41.796141" lon="3.036508">
        <ele>51.0</ele>
        <time>2019-01-14T01:42:41Z</time>
      </trkpt>
      <trkpt lat="41.796203" lon="3.036591">
        <ele>51.0</ele>
        <time>2019-01-14T01:42:42Z</time>
      </trkpt>
      <trkpt lat="41.796270" lon="3.036677">
        <ele>51.0</ele>
        <time>2019-01-14T01:42:43Z</time>
      </trkpt>
      <trkpt lat="41.796341" lon="3.036756">
        <ele>51.0</ele>
        <time>2019-01-14T01:42:45Z</time>
      </trkpt>
      <trkpt lat="41.796412" lon="3.036837">
        <ele>51.0</ele>
        <time>2019-01-14T01:42:46Z</time>
      </trkpt>
      <trkpt lat="41.796477" lon="3.036925">
        <ele>51.0</ele>
        <time>2019-01-14T01:42:48Z</time>
      </trkpt>
      <trkpt lat="41.796531" lon="3.037019">
        <ele>50.0</ele>
        <time>2019-01-14T01:42:49Z</time>
      </trkpt>
      <trkpt lat="41.796576" lon="3.037123">
        <ele>50.0</ele>
        <time>2019-01-14T01:42:51Z</time>
      </trkpt>
      <trkpt lat="41.796615" lon="3.037230">
        <ele>50.0</ele>
        <time>2019-01-14T01:42:52Z</time>
      </trkpt>
      <trkpt lat="41.796653" lon="3.037340">
        <ele>50.0</ele>
        <time>2019-01-14T01:42:54Z</time>
      </trkpt>
      <trkpt lat="41.796732" lon="3.037548">
        <ele>49.0</ele>
        <time>2019-01-14T01:42:56Z</time>
      </trkpt>
      <trkpt lat="41.796764" lon="3.037659">
        <ele>49.0</ele>
        <time>2019-01-14T01:42:58Z</time>
      </trkpt>
      <trkpt lat="41.796789" lon="3.037772">
        <ele>49.0</ele>
        <time>2019-01-14T01:42:59Z</time>
      </trkpt>
      <trkpt lat="41.796808" lon="3.037884">
        <ele>49.0</ele>
        <time>2019-01-14T01:43:01Z</time>
      </trkpt>
      <trkpt lat="41.796827" lon="3.037995">
        <ele>48.0</ele>
        <time>2019-01-14T01:43:02Z</time>
      </trkpt>
      <trkpt lat="41.796845" lon="3.038106">
        <ele>48.0</ele>
        <time>2019-01-14T01:43:03Z</time>
      </trkpt>
      <trkpt lat="41.796865" lon="3.038216">
        <ele>48.0</ele>
        <time>2019-01-14T01:43:05Z</time>
      </trkpt>
      <trkpt lat="41.796922" lon="3.038712">
        <ele>47.0</ele>
        <time>2019-01-14T01:43:11Z</time>
      </trkpt>
      <trkpt lat="41.796946" lon="3.039007">
        <ele>47.0</ele>
        <time>2019-01-14T01:43:14Z</time>
      </trkpt>
      <trkpt lat="41.796942" lon="3.039106">
        <ele>46.0</ele>
        <time>2019-01-14T01:43:15Z</time>
      </trkpt>
      <trkpt lat="41.796926" lon="3.039209">
        <ele>46.0</ele>
        <time>2019-01-14T01:43:17Z</time>
      </trkpt>
      <trkpt lat="41.796899" lon="3.039308">
        <ele>46.0</ele>
        <time>2019-01-14T01:43:18Z</time>
      </trkpt>
      <trkpt lat="41.796863" lon="3.039402">
        <ele>46.0</ele>
        <time>2019-01-14T01:43:19Z</time>
      </trkpt>
      <trkpt lat="41.796819" lon="3.039488">
        <ele>45.0</ele>
        <time>2019-01-14T01:43:20Z</time>
      </trkpt>
      <trkpt lat="41.796770" lon="3.039575">
        <ele>45.0</ele>
        <time>2019-01-14T01:43:22Z</time>
      </trkpt>
      <trkpt lat="41.796729" lon="3.039672">
        <ele>44.0</ele>
        <time>2019-01-14T01:43:23Z</time>
      </trkpt>
      <trkpt lat="41.796711" lon="3.039775">
        <ele>43.0</ele>
        <time>2019-01-14T01:43:24Z</time>
      </trkpt>
      <trkpt lat="41.796724" lon="3.039881">
        <ele>42.0</ele>
        <time>2019-01-14T01:43:26Z</time>
      </trkpt>
      <trkpt lat="41.796760" lon="3.039977">
        <ele>41.0</ele>
        <time>2019-01-14T01:43:27Z</time>
      </trkpt>
      <trkpt lat="41.796807" lon="3.040063">
        <ele>40.0</ele>
        <time>2019-01-14T01:43:28Z</time>
      </trkpt>
      <trkpt lat="41.796857" lon="3.040138">
        <ele>39.0</ele>
        <time>2019-01-14T01:43:29Z</time>
      </trkpt>
      <trkpt lat="41.796907" lon="3.040208">
        <ele>38.0</ele>
        <time>2019-01-14T01:43:30Z</time>
      </trkpt>
      <trkpt lat="41.796952" lon="3.040280">
        <ele>38.0</ele>
        <time>2019-01-14T01:43:32Z</time>
      </trkpt>
      <trkpt lat="41.796991" lon="3.040362">
        <ele>37.0</ele>
        <time>2019-01-14T01:43:33Z</time>
      </trkpt>
      <trkpt lat="41.797023" lon="3.040452">
        <ele>35.0</ele>
        <time>2019-01-14T01:43:34Z</time>
      </trkpt>
      <trkpt lat="41.797042" lon="3.040557">
        <ele>35.0</ele>
        <time>2019-01-14T01:43:35Z</time>
      </trkpt>
      <trkpt lat="41.797052" lon="3.040674">
        <ele>34.0</ele>
        <time>2019-01-14T01:43:37Z</time>
      </trkpt>
      <trkpt lat="41.797065" lon="3.040800">
        <ele>33.0</ele>
        <time>2019-01-14T01:43:38Z</time>
      </trkpt>
      <trkpt lat="41.797089" lon="3.040933">
        <ele>32.0</ele>
        <time>2019-01-14T01:43:40Z</time>
      </trkpt>
      <trkpt lat="41.797125" lon="3.041064">
        <ele>30.0</ele>
        <time>2019-01-14T01:43:41Z</time>
      </trkpt>
      <trkpt lat="41.797177" lon="3.041190">
        <ele>29.0</ele>
        <time>2019-01-14T01:43:43Z</time>
      </trkpt>
      <trkpt lat="41.797230" lon="3.041302">
        <ele>29.0</ele>
        <time>2019-01-14T01:43:45Z</time>
      </trkpt>
      <trkpt lat="41.797281" lon="3.041404">
        <ele>28.0</ele>
        <time>2019-01-14T01:43:46Z</time>
      </trkpt>
      <trkpt lat="41.797324" lon="3.041500">
        <ele>28.0</ele>
        <time>2019-01-14T01:43:48Z</time>
      </trkpt>
      <trkpt lat="41.797359" lon="3.041589">
        <ele>27.0</ele>
        <time>2019-01-14T01:43:49Z</time>
      </trkpt>
      <trkpt lat="41.797391" lon="3.041683">
        <ele>27.0</ele>
        <time>2019-01-14T01:43:50Z</time>
      </trkpt>
      <trkpt lat="41.797420" lon="3.041780">
        <ele>26.0</ele>
        <time>2019-01-14T01:43:51Z</time>
      </trkpt>
      <trkpt lat="41.797448" lon="3.041877">
        <ele>26.0</ele>
        <time>2019-01-14T01:43:52Z</time>
      </trkpt>
      <trkpt lat="41.797467" lon="3.041978">
        <ele>25.0</ele>
        <time>2019-01-14T01:43:54Z</time>
      </trkpt>
      <trkpt lat="41.797487" lon="3.042077">
        <ele>25.0</ele>
        <time>2019-01-14T01:43:55Z</time>
      </trkpt>
      <trkpt lat="41.797505" lon="3.042181">
        <ele>24.0</ele>
        <time>2019-01-14T01:43:56Z</time>
      </trkpt>
      <trkpt lat="41.797522" lon="3.042290">
        <ele>23.0</ele>
        <time>2019-01-14T01:43:58Z</time>
      </trkpt>
      <trkpt lat="41.797531" lon="3.042404">
        <ele>23.0</ele>
        <time>2019-01-14T01:43:59Z</time>
      </trkpt>
      <trkpt lat="41.797532" lon="3.042517">
        <ele>23.0</ele>
        <time>2019-01-14T01:44:00Z</time>
      </trkpt>
      <trkpt lat="41.797521" lon="3.042630">
        <ele>22.0</ele>
        <time>2019-01-14T01:44:02Z</time>
      </trkpt>
      <trkpt lat="41.797501" lon="3.042735">
        <ele>22.0</ele>
        <time>2019-01-14T01:44:03Z</time>
      </trkpt>
      <trkpt lat="41.797481" lon="3.042837">
        <ele>22.0</ele>
        <time>2019-01-14T01:44:04Z</time>
      </trkpt>
      <trkpt lat="41.797463" lon="3.042928">
        <ele>22.0</ele>
        <time>2019-01-14T01:44:05Z</time>
      </trkpt>
      <trkpt lat="41.797445" lon="3.043007">
        <ele>22.0</ele>
        <time>2019-01-14T01:44:06Z</time>
      </trkpt>
      <trkpt lat="41.797417" lon="3.043074">
        <ele>22.0</ele>
        <time>2019-01-14T01:44:07Z</time>
      </trkpt>
      <trkpt lat="41.797318" lon="3.043137">
        <ele>22.0</ele>
        <time>2019-01-14T01:44:09Z</time>
      </trkpt>
      <trkpt lat="41.797107" lon="3.043195">
        <ele>22.0</ele>
        <time>2019-01-14T01:44:12Z</time>
      </trkpt>
      <trkpt lat="41.797056" lon="3.043226">
        <ele>23.0</ele>
        <time>2019-01-14T01:44:13Z</time>
      </trkpt>
      <trkpt lat="41.797008" lon="3.043261">
        <ele>23.0</ele>
        <time>2019-01-14T01:44:14Z</time>
      </trkpt>
      <trkpt lat="41.796962" lon="3.043301">
        <ele>23.0</ele>
        <time>2019-01-14T01:44:15Z</time>
      </trkpt>
      <trkpt lat="41.796794" lon="3.043483">
        <ele>23.0</ele>
        <time>2019-01-14T01:44:19Z</time>
      </trkpt>
      <trkpt lat="41.796541" lon="3.043761">
        <ele>23.0</ele>
        <time>2019-01-14T01:44:24Z</time>
      </trkpt>
      <trkpt lat="41.796263" lon="3.044053">
        <ele>23.0</ele>
        <time>2019-01-14T01:44:29Z</time>
      </trkpt>
      <trkpt lat="41.796001" lon="3.044341">
        <ele>23.0</ele>
        <time>2019-01-14T01:44:35Z</time>
      </trkpt>
      <trkpt lat="41.795959" lon="3.044392">
        <ele>23.0</ele>
        <time>2019-01-14T01:44:36Z</time>
      </trkpt>
      <trkpt lat="41.795915" lon="3.044442">
        <ele>23.0</ele>
        <time>2019-01-14T01:44:37Z</time>
      </trkpt>
      <trkpt lat="41.795873" lon="3.044492">
        <ele>23.0</ele>
        <time>2019-01-14T01:44:38Z</time>
      </trkpt>
      <trkpt lat="41.795830" lon="3.044543">
        <ele>23.0</ele>
        <time>2019-01-14T01:44:38Z</time>
      </trkpt>
      <trkpt lat="41.795788" lon="3.044590">
        <ele>23.0</ele>
        <time>2019-01-14T01:44:39Z</time>
      </trkpt>
      <trkpt lat="41.795667" lon="3.044749">
        <ele>24.0</ele>
        <time>2019-01-14T01:44:42Z</time>
      </trkpt>
      <trkpt lat="41.795555" lon="3.044932">
        <ele>23.0</ele>
        <time>2019-01-14T01:44:45Z</time>
      </trkpt>
      <trkpt lat="41.795478" lon="3.045051">
        <ele>23.0</ele>
        <time>2019-01-14T01:44:47Z</time>
      </trkpt>
      <trkpt lat="41.795439" lon="3.045111">
        <ele>23.0</ele>
        <time>2019-01-14T01:44:48Z</time>
      </trkpt>
      <trkpt lat="41.795401" lon="3.045174">
        <ele>23.0</ele>
        <time>2019-01-14T01:44:49Z</time>
      </trkpt>
      <trkpt lat="41.795363" lon="3.045237">
        <ele>23.0</ele>
        <time>2019-01-14T01:44:50Z</time>
      </trkpt>
      <trkpt lat="41.795323" lon="3.045301">
        <ele>23.0</ele>
        <time>2019-01-14T01:44:51Z</time>
      </trkpt>
      <trkpt lat="41.795159" lon="3.045558">
        <ele>22.0</ele>
        <time>2019-01-14T01:44:55Z</time>
      </trkpt>
      <trkpt lat="41.795067" lon="3.045672">
        <ele>22.0</ele>
        <time>2019-01-14T01:44:57Z</time>
      </trkpt>
      <trkpt lat="41.795014" lon="3.045721">
        <ele>22.0</ele>
        <time>2019-01-14T01:44:58Z</time>
      </trkpt>
      <trkpt lat="41.794959" lon="3.045762">
        <ele>22.0</ele>
        <time>2019-01-14T01:44:59Z</time>
      </trkpt>
      <trkpt lat="41.794900" lon="3.045797">
        <ele>21.0</ele>
        <time>2019-01-14T01:45:00Z</time>
      </trkpt>
      <trkpt lat="41.794834" lon="3.045829">
        <ele>21.0</ele>
        <time>2019-01-14T01:45:01Z</time>
      </trkpt>
      <trkpt lat="41.794769" lon="3.045851">
        <ele>21.0</ele>
        <time>2019-01-14T01:45:02Z</time>
      </trkpt>
      <trkpt lat="41.794704" lon="3.045868">
        <ele>21.0</ele>
        <time>2019-01-14T01:45:03Z</time>
      </trkpt>
      <trkpt lat="41.794570" lon="3.045898">
        <ele>20.0</ele>
        <time>2019-01-14T01:45:05Z</time>
      </trkpt>
      <trkpt lat="41.794280" lon="3.045965">
        <ele>19.0</ele>
        <time>2019-01-14T01:45:10Z</time>
      </trkpt>
      <trkpt lat="41.794062" lon="3.046023">
        <ele>19.0</ele>
        <time>2019-01-14T01:45:13Z</time>
      </trkpt>
      <trkpt lat="41.793914" lon="3.046054">
        <ele>19.0</ele>
        <time>2019-01-14T01:45:16Z</time>
      </trkpt>
      <trkpt lat="41.793842" lon="3.046072">
        <ele>19.0</ele>
        <time>2019-01-14T01:45:17Z</time>
      </trkpt>
      <trkpt lat="41.793768" lon="3.046095">
        <ele>19.0</ele>
        <time>2019-01-14T01:45:18Z</time>
      </trkpt>
      <trkpt lat="41.793698" lon="3.046111">
        <ele>18.0</ele>
        <time>2019-01-14T01:45:19Z</time>
      </trkpt>
      <trkpt lat="41.793629" lon="3.046123">
        <ele>18.0</ele>
        <time>2019-01-14T01:45:20Z</time>
      </trkpt>
      <trkpt lat="41.793231" lon="3.046218">
        <ele>18.0</ele>
        <time>2019-01-14T01:45:27Z</time>
      </trkpt>
      <trkpt lat="41.793089" lon="3.046262">
        <ele>18.0</ele>
        <time>2019-01-14T01:45:29Z</time>
      </trkpt>
      <trkpt lat="41.793022" lon="3.046290">
        <ele>17.0</ele>
        <time>2019-01-14T01:45:30Z</time>
      </trkpt>
      <trkpt lat="41.792961" lon="3.046329">
        <ele>17.0</ele>
        <time>2019-01-14T01:45:32Z</time>
      </trkpt>
      <trkpt lat="41.792905" lon="3.046380">
        <ele>17.0</ele>
        <time>2019-01-14T01:45:33Z</time>
      </trkpt>
      <trkpt lat="41.792855" lon="3.046444">
        <ele>17.0</ele>
        <time>2019-01-14T01:45:34Z</time>
      </trkpt>
      <trkpt lat="41.792782" lon="3.046592">
        <ele>16.0</ele>
        <time>2019-01-14T01:45:36Z</time>
      </trkpt>
      <trkpt lat="41.792743" lon="3.046666">
        <ele>15.0</ele>
        <time>2019-01-14T01:45:37Z</time>
      </trkpt>
      <trkpt lat="41.792596" lon="3.046841">
        <ele>14.0</ele>
        <time>2019-01-14T01:45:40Z</time>
      </trkpt>
      <trkpt lat="41.792540" lon="3.046991">
        <ele>12.0</ele>
        <time>2019-01-14T01:45:42Z</time>
      </trkpt>
      <trkpt lat="41.792537" lon="3.047072">
        <ele>12.0</ele>
        <time>2019-01-14T01:45:43Z</time>
      </trkpt>
      <trkpt lat="41.792600" lon="3.047213">
        <ele>11.0</ele>
        <time>2019-01-14T01:45:45Z</time>
      </trkpt>
      <trkpt lat="41.792659" lon="3.047248">
        <ele>11.0</ele>
        <time>2019-01-14T01:45:46Z</time>
      </trkpt>
      <trkpt lat="41.792722" lon="3.047260">
        <ele>11.0</ele>
        <time>2019-01-14T01:45:47Z</time>
      </trkpt>
      <trkpt lat="41.792784" lon="3.047254">
        <ele>12.0</ele>
        <time>2019-01-14T01:45:48Z</time>
      </trkpt>
      <trkpt lat="41.792897" lon="3.047232">
        <ele>12.0</ele>
        <time>2019-01-14T01:45:50Z</time>
      </trkpt>
      <trkpt lat="41.792949" lon="3.047230">
        <ele>12.0</ele>
        <time>2019-01-14T01:45:51Z</time>
      </trkpt>
      <trkpt lat="41.793002" lon="3.047239">
        <ele>13.0</ele>
        <time>2019-01-14T01:45:52Z</time>
      </trkpt>
      <trkpt lat="41.793051" lon="3.047255">
        <ele>13.0</ele>
        <time>2019-01-14T01:45:52Z</time>
      </trkpt>
      <trkpt lat="41.793100" lon="3.047270">
        <ele>13.0</ele>
        <time>2019-01-14T01:45:53Z</time>
      </trkpt>
      <trkpt lat="41.793144" lon="3.047282">
        <ele>13.0</ele>
        <time>2019-01-14T01:45:54Z</time>
      </trkpt>
      <trkpt lat="41.793186" lon="3.047290">
        <ele>13.0</ele>
        <time>2019-01-14T01:45:55Z</time>
      </trkpt>
      <trkpt lat="41.793272" lon="3.047306">
        <ele>13.0</ele>
        <time>2019-01-14T01:45:56Z</time>
      </trkpt>
      <trkpt lat="41.793352" lon="3.047329">
        <ele>13.0</ele>
        <time>2019-01-14T01:45:57Z</time>
      </trkpt>
      <trkpt lat="41.793490" lon="3.047377">
        <ele>13.0</ele>
        <time>2019-01-14T01:46:00Z</time>
      </trkpt>
      <trkpt lat="41.793822" lon="3.047512">
        <ele>12.0</ele>
        <time>2019-01-14T01:46:05Z</time>
      </trkpt>
      <trkpt lat="41.793984" lon="3.047572">
        <ele>12.0</ele>
        <time>2019-01-14T01:46:08Z</time>
      </trkpt>
      <trkpt lat="41.794101" lon="3.047610">
        <ele>12.0</ele>
        <time>2019-01-14T01:46:10Z</time>
      </trkpt>
      <trkpt lat="41.794149" lon="3.047622">
        <ele>12.0</ele>
        <time>2019-01-14T01:46:10Z</time>
      </trkpt>
      <trkpt lat="41.794351" lon="3.047691">
        <ele>12.0</ele>
        <time>2019-01-14T01:46:14Z</time>
      </trkpt>
      <trkpt lat="41.794403" lon="3.047708">
        <ele>12.0</ele>
        <time>2019-01-14T01:46:15Z</time>
      </trkpt>
      <trkpt lat="41.794560" lon="3.047772">
        <ele>11.0</ele>
        <time>2019-01-14T01:46:17Z</time>
      </trkpt>
      <trkpt lat="41.794716" lon="3.047826">
        <ele>11.0</ele>
        <time>2019-01-14T01:46:20Z</time>
      </trkpt>
      <trkpt lat="41.794760" lon="3.047851">
        <ele>11.0</ele>
        <time>2019-01-14T01:46:21Z</time>
      </trkpt>
      <trkpt lat="41.794905" lon="3.047919">
        <ele>10.0</ele>
        <time>2019-01-14T01:46:23Z</time>
      </trkpt>
      <trkpt lat="41.795143" lon="3.048009">
        <ele>10.0</ele>
        <time>2019-01-14T01:46:27Z</time>
      </trkpt>
      <trkpt lat="41.795196" lon="3.048022">
        <ele>10.0</ele>
        <time>2019-01-14T01:46:28Z</time>
      </trkpt>
      <trkpt lat="41.795363" lon="3.048070">
        <ele>10.0</ele>
        <time>2019-01-14T01:46:31Z</time>
      </trkpt>
      <trkpt lat="41.795609" lon="3.048148">
        <ele>9.0</ele>
        <time>2019-01-14T01:46:35Z</time>
      </trkpt>
      <trkpt lat="41.795715" lon="3.048184">
        <ele>9.0</ele>
        <time>2019-01-14T01:46:36Z</time>
      </trkpt>
      <trkpt lat="41.795991" lon="3.048297">
        <ele>9.0</ele>
        <time>2019-01-14T01:46:41Z</time>
      </trkpt>
      <trkpt lat="41.796088" lon="3.048334">
        <ele>9.0</ele>
        <time>2019-01-14T01:46:43Z</time>
      </trkpt>
      <trkpt lat="41.796324" lon="3.048430">
        <ele>9.0</ele>
        <time>2019-01-14T01:46:47Z</time>
      </trkpt>
      <trkpt lat="41.796414" lon="3.048473">
        <ele>9.0</ele>
        <time>2019-01-14T01:46:48Z</time>
      </trkpt>
      <trkpt lat="41.796461" lon="3.048493">
        <ele>9.0</ele>
        <time>2019-01-14T01:46:49Z</time>
      </trkpt>
      <trkpt lat="41.796508" lon="3.048512">
        <ele>9.0</ele>
        <time>2019-01-14T01:46:50Z</time>
      </trkpt>
      <trkpt lat="41.796554" lon="3.048528">
        <ele>9.0</ele>
        <time>2019-01-14T01:46:50Z</time>
      </trkpt>
      <trkpt lat="41.796603" lon="3.048546">
        <ele>10.0</ele>
        <time>2019-01-14T01:46:51Z</time>
      </trkpt>
      <trkpt lat="41.796837" lon="3.048627">
        <ele>10.0</ele>
        <time>2019-01-14T01:46:55Z</time>
      </trkpt>
      <trkpt lat="41.797132" lon="3.048729">
        <ele>11.0</ele>
        <time>2019-01-14T01:47:00Z</time>
      </trkpt>
      <trkpt lat="41.797543" lon="3.048886">
        <ele>13.0</ele>
        <time>2019-01-14T01:47:07Z</time>
      </trkpt>
      <trkpt lat="41.797696" lon="3.048949">
        <ele>13.0</ele>
        <time>2019-01-14T01:47:09Z</time>
      </trkpt>
      <trkpt lat="41.797741" lon="3.048967">
        <ele>14.0</ele>
        <time>2019-01-14T01:47:10Z</time>
      </trkpt>
      <trkpt lat="41.797783" lon="3.048984">
        <ele>14.0</ele>
        <time>2019-01-14T01:47:11Z</time>
      </trkpt>
      <trkpt lat="41.797819" lon="3.048997">
        <ele>14.0</ele>
        <time>2019-01-14T01:47:12Z</time>
      </trkpt>
      <trkpt lat="41.797853" lon="3.049009">
        <ele>14.0</ele>
        <time>2019-01-14T01:47:12Z</time>
      </trkpt>
      <trkpt lat="41.797963" lon="3.049041">
        <ele>15.0</ele>
        <time>2019-01-14T01:47:14Z</time>
      </trkpt>
      <trkpt lat="41.798071" lon="3.049080">
        <ele>16.0</ele>
        <time>2019-01-14T01:47:16Z</time>
      </trkpt>
      <trkpt lat="41.798101" lon="3.049090">
        <ele>16.0</ele>
        <time>2019-01-14T01:47:16Z</time>
      </trkpt>
      <trkpt lat="41.798131" lon="3.049099">
        <ele>17.0</ele>
        <time>2019-01-14T01:47:17Z</time>
      </trkpt>
      <trkpt lat="41.798165" lon="3.049109">
        <ele>17.0</ele>
        <time>2019-01-14T01:47:17Z</time>
      </trkpt>
      <trkpt lat="41.798198" lon="3.049118">
        <ele>17.0</ele>
        <time>2019-01-14T01:47:18Z</time>
      </trkpt>
      <trkpt lat="41.798292" lon="3.049151">
        <ele>18.0</ele>
        <time>2019-01-14T01:47:19Z</time>
      </trkpt>
      <trkpt lat="41.798323" lon="3.049161">
        <ele>18.0</ele>
        <time>2019-01-14T01:47:20Z</time>
      </trkpt>
      <trkpt lat="41.798354" lon="3.049170">
        <ele>18.0</ele>
        <time>2019-01-14T01:47:20Z</time>
      </trkpt>
      <trkpt lat="41.798382" lon="3.049179">
        <ele>19.0</ele>
        <time>2019-01-14T01:47:21Z</time>
      </trkpt>
      <trkpt lat="41.798409" lon="3.049192">
        <ele>19.0</ele>
        <time>2019-01-14T01:47:21Z</time>
      </trkpt>
      <trkpt lat="41.798595" lon="3.049260">
        <ele>20.0</ele>
        <time>2019-01-14T01:47:24Z</time>
      </trkpt>
      <trkpt lat="41.798624" lon="3.049270">
        <ele>20.0</ele>
        <time>2019-01-14T01:47:25Z</time>
      </trkpt>
      <trkpt lat="41.798651" lon="3.049282">
        <ele>20.0</ele>
        <time>2019-01-14T01:47:25Z</time>
      </trkpt>
      <trkpt lat="41.798680" lon="3.049295">
        <ele>21.0</ele>
        <time>2019-01-14T01:47:26Z</time>
      </trkpt>
      <trkpt lat="41.798708" lon="3.049307">
        <ele>21.0</ele>
        <time>2019-01-14T01:47:26Z</time>
      </trkpt>
      <trkpt lat="41.798822" lon="3.049360">
        <ele>22.0</ele>
        <time>2019-01-14T01:47:28Z</time>
      </trkpt>
      <trkpt lat="41.798852" lon="3.049379">
        <ele>22.0</ele>
        <time>2019-01-14T01:47:29Z</time>
      </trkpt>
      <trkpt lat="41.798880" lon="3.049397">
        <ele>22.0</ele>
        <time>2019-01-14T01:47:29Z</time>
      </trkpt>
      <trkpt lat="41.798907" lon="3.049417">
        <ele>22.0</ele>
        <time>2019-01-14T01:47:30Z</time>
      </trkpt>
      <trkpt lat="41.798933" lon="3.049433">
        <ele>23.0</ele>
        <time>2019-01-14T01:47:30Z</time>
      </trkpt>
      <trkpt lat="41.799011" lon="3.049481">
        <ele>23.0</ele>
        <time>2019-01-14T01:47:32Z</time>
      </trkpt>
      <trkpt lat="41.799123" lon="3.049605">
        <ele>25.0</ele>
        <time>2019-01-14T01:47:34Z</time>
      </trkpt>
      <trkpt lat="41.799144" lon="3.049628">
        <ele>25.0</ele>
        <time>2019-01-14T01:47:34Z</time>
      </trkpt>
      <trkpt lat="41.799165" lon="3.049652">
        <ele>25.0</ele>
        <time>2019-01-14T01:47:35Z</time>
      </trkpt>
      <trkpt lat="41.799191" lon="3.049678">
        <ele>25.0</ele>
        <time>2019-01-14T01:47:35Z</time>
      </trkpt>
      <trkpt lat="41.799253" lon="3.049768">
        <ele>26.0</ele>
        <time>2019-01-14T01:47:37Z</time>
      </trkpt>
      <trkpt lat="41.799341" lon="3.049883">
        <ele>27.0</ele>
        <time>2019-01-14T01:47:39Z</time>
      </trkpt>
      <trkpt lat="41.799362" lon="3.049910">
        <ele>27.0</ele>
        <time>2019-01-14T01:47:39Z</time>
      </trkpt>
      <trkpt lat="41.799383" lon="3.049936">
        <ele>28.0</ele>
        <time>2019-01-14T01:47:40Z</time>
      </trkpt>
      <trkpt lat="41.799407" lon="3.049962">
        <ele>28.0</ele>
        <time>2019-01-14T01:47:40Z</time>
      </trkpt>
      <trkpt lat="41.799429" lon="3.049991">
        <ele>28.0</ele>
        <time>2019-01-14T01:47:41Z</time>
      </trkpt>
      <trkpt lat="41.799560" lon="3.050174">
        <ele>30.0</ele>
        <time>2019-01-14T01:47:44Z</time>
      </trkpt>
      <trkpt lat="41.799583" lon="3.050207">
        <ele>30.0</ele>
        <time>2019-01-14T01:47:44Z</time>
      </trkpt>
      <trkpt lat="41.799605" lon="3.050236">
        <ele>30.0</ele>
        <time>2019-01-14T01:47:45Z</time>
      </trkpt>
      <trkpt lat="41.799627" lon="3.050262">
        <ele>30.0</ele>
        <time>2019-01-14T01:47:45Z</time>
      </trkpt>
      <trkpt lat="41.799649" lon="3.050290">
        <ele>30.0</ele>
        <time>2019-01-14T01:47:46Z</time>
      </trkpt>
      <trkpt lat="41.799783" lon="3.050478">
        <ele>32.0</ele>
        <time>2019-01-14T01:47:49Z</time>
      </trkpt>
      <trkpt lat="41.799827" lon="3.050543">
        <ele>32.0</ele>
        <time>2019-01-14T01:47:50Z</time>
      </trkpt>
      <trkpt lat="41.799843" lon="3.050577">
        <ele>32.0</ele>
        <time>2019-01-14T01:47:50Z</time>
      </trkpt>
      <trkpt lat="41.799858" lon="3.050612">
        <ele>32.0</ele>
        <time>2019-01-14T01:47:51Z</time>
      </trkpt>
      <trkpt lat="41.799874" lon="3.050649">
        <ele>32.0</ele>
        <time>2019-01-14T01:47:51Z</time>
      </trkpt>
      <trkpt lat="41.799891" lon="3.050684">
        <ele>32.0</ele>
        <time>2019-01-14T01:47:52Z</time>
      </trkpt>
      <trkpt lat="41.799911" lon="3.050721">
        <ele>33.0</ele>
        <time>2019-01-14T01:47:52Z</time>
      </trkpt>
      <trkpt lat="41.799959" lon="3.050828">
        <ele>33.0</ele>
        <time>2019-01-14T01:47:54Z</time>
      </trkpt>
      <trkpt lat="41.799975" lon="3.050867">
        <ele>33.0</ele>
        <time>2019-01-14T01:47:54Z</time>
      </trkpt>
      <trkpt lat="41.799990" lon="3.050909">
        <ele>33.0</ele>
        <time>2019-01-14T01:47:55Z</time>
      </trkpt>
      <trkpt lat="41.800003" lon="3.050951">
        <ele>33.0</ele>
        <time>2019-01-14T01:47:55Z</time>
      </trkpt>
      <trkpt lat="41.800015" lon="3.050995">
        <ele>33.0</ele>
        <time>2019-01-14T01:47:56Z</time>
      </trkpt>
      <trkpt lat="41.800025" lon="3.051043">
        <ele>33.0</ele>
        <time>2019-01-14T01:47:57Z</time>
      </trkpt>
      <trkpt lat="41.800032" lon="3.051318">
        <ele>33.0</ele>
        <time>2019-01-14T01:48:00Z</time>
      </trkpt>
      <trkpt lat="41.800004" lon="3.051507">
        <ele>33.0</ele>
        <time>2019-01-14T01:48:02Z</time>
      </trkpt>
      <trkpt lat="41.800002" lon="3.051556">
        <ele>33.0</ele>
        <time>2019-01-14T01:48:03Z</time>
      </trkpt>
      <trkpt lat="41.800005" lon="3.051608">
        <ele>33.0</ele>
        <time>2019-01-14T01:48:03Z</time>
      </trkpt>
      <trkpt lat="41.800011" lon="3.051659">
        <ele>33.0</ele>
        <time>2019-01-14T01:48:04Z</time>
      </trkpt>
      <trkpt lat="41.800021" lon="3.051709">
        <ele>33.0</ele>
        <time>2019-01-14T01:48:05Z</time>
      </trkpt>
      <trkpt lat="41.800042" lon="3.051761">
        <ele>33.0</ele>
        <time>2019-01-14T01:48:05Z</time>
      </trkpt>
      <trkpt lat="41.800064" lon="3.051808">
        <ele>33.0</ele>
        <time>2019-01-14T01:48:06Z</time>
      </trkpt>
      <trkpt lat="41.800091" lon="3.051852">
        <ele>33.0</ele>
        <time>2019-01-14T01:48:07Z</time>
      </trkpt>
      <trkpt lat="41.800225" lon="3.051999">
        <ele>33.0</ele>
        <time>2019-01-14T01:48:09Z</time>
      </trkpt>
      <trkpt lat="41.800410" lon="3.052039">
        <ele>33.0</ele>
        <time>2019-01-14T01:48:12Z</time>
      </trkpt>
      <trkpt lat="41.800504" lon="3.052022">
        <ele>33.0</ele>
        <time>2019-01-14T01:48:14Z</time>
      </trkpt>
      <trkpt lat="41.800667" lon="3.052004">
        <ele>32.0</ele>
        <time>2019-01-14T01:48:16Z</time>
      </trkpt>
      <trkpt lat="41.800780" lon="3.052029">
        <ele>31.0</ele>
        <time>2019-01-14T01:48:18Z</time>
      </trkpt>
      <trkpt lat="41.800835" lon="3.052063">
        <ele>31.0</ele>
        <time>2019-01-14T01:48:19Z</time>
      </trkpt>
      <trkpt lat="41.800884" lon="3.052110">
        <ele>30.0</ele>
        <time>2019-01-14T01:48:20Z</time>
      </trkpt>
      <trkpt lat="41.800930" lon="3.052166">
        <ele>30.0</ele>
        <time>2019-01-14T01:48:21Z</time>
      </trkpt>
      <trkpt lat="41.800975" lon="3.052226">
        <ele>29.0</ele>
        <time>2019-01-14T01:48:22Z</time>
      </trkpt>
      <trkpt lat="41.801069" lon="3.052356">
        <ele>28.0</ele>
        <time>2019-01-14T01:48:24Z</time>
      </trkpt>
      <trkpt lat="41.801116" lon="3.052424">
        <ele>28.0</ele>
        <time>2019-01-14T01:48:26Z</time>
      </trkpt>
      <trkpt lat="41.801161" lon="3.052491">
        <ele>28.0</ele>
        <time>2019-01-14T01:48:27Z</time>
      </trkpt>
      <trkpt lat="41.801207" lon="3.052559">
        <ele>28.0</ele>
        <time>2019-01-14T01:48:28Z</time>
      </trkpt>
      <trkpt lat="41.801258" lon="3.052628">
        <ele>28.0</ele>
        <time>2019-01-14T01:48:29Z</time>
      </trkpt>
      <trkpt lat="41.801310" lon="3.052697">
        <ele>27.0</ele>
        <time>2019-01-14T01:48:30Z</time>
      </trkpt>
      <trkpt lat="41.801414" lon="3.052835">
        <ele>27.0</ele>
        <time>2019-01-14T01:48:32Z</time>
      </trkpt>
      <trkpt lat="41.801475" lon="3.052901">
        <ele>26.0</ele>
        <time>2019-01-14T01:48:34Z</time>
      </trkpt>
      <trkpt lat="41.801539" lon="3.052957">
        <ele>26.0</ele>
        <time>2019-01-14T01:48:35Z</time>
      </trkpt>
      <trkpt lat="41.801608" lon="3.053007">
        <ele>26.0</ele>
        <time>2019-01-14T01:48:36Z</time>
      </trkpt>
      <trkpt lat="41.801681" lon="3.053049">
        <ele>25.0</ele>
        <time>2019-01-14T01:48:37Z</time>
      </trkpt>
      <trkpt lat="41.801759" lon="3.053083">
        <ele>25.0</ele>
        <time>2019-01-14T01:48:39Z</time>
      </trkpt>
      <trkpt lat="41.802012" lon="3.053138">
        <ele>24.0</ele>
        <time>2019-01-14T01:48:43Z</time>
      </trkpt>
      <trkpt lat="41.802100" lon="3.053148">
        <ele>23.0</ele>
        <time>2019-01-14T01:48:44Z</time>
      </trkpt>
      <trkpt lat="41.802191" lon="3.053158">
        <ele>23.0</ele>
        <time>2019-01-14T01:48:46Z</time>
      </trkpt>
      <trkpt lat="41.802282" lon="3.053167">
        <ele>22.0</ele>
        <time>2019-01-14T01:48:47Z</time>
      </trkpt>
      <trkpt lat="41.802374" lon="3.053176">
        <ele>22.0</ele>
        <time>2019-01-14T01:48:49Z</time>
      </trkpt>
      <trkpt lat="41.802467" lon="3.053184">
        <ele>21.0</ele>
        <time>2019-01-14T01:48:50Z</time>
      </trkpt>
      <trkpt lat="41.802562" lon="3.053197">
        <ele>21.0</ele>
        <time>2019-01-14T01:48:52Z</time>
      </trkpt>
      <trkpt lat="41.802661" lon="3.053211">
        <ele>20.0</ele>
        <time>2019-01-14T01:48:53Z</time>
      </trkpt>
      <trkpt lat="41.802757" lon="3.053219">
        <ele>19.0</ele>
        <time>2019-01-14T01:48:55Z</time>
      </trkpt>
      <trkpt lat="41.802853" lon="3.053228">
        <ele>19.0</ele>
        <time>2019-01-14T01:48:56Z</time>
      </trkpt>
      <trkpt lat="41.802947" lon="3.053239">
        <ele>18.0</ele>
        <time>2019-01-14T01:48:58Z</time>
      </trkpt>
      <trkpt lat="41.803039" lon="3.053247">
        <ele>17.0</ele>
        <time>2019-01-14T01:48:59Z</time>
      </trkpt>
      <trkpt lat="41.803127" lon="3.053257">
        <ele>17.0</ele>
        <time>2019-01-14T01:49:01Z</time>
      </trkpt>
      <trkpt lat="41.803213" lon="3.053267">
        <ele>16.0</ele>
        <time>2019-01-14T01:49:02Z</time>
      </trkpt>
      <trkpt lat="41.803306" lon="3.053286">
        <ele>15.0</ele>
        <time>2019-01-14T01:49:04Z</time>
      </trkpt>
      <trkpt lat="41.803395" lon="3.053307">
        <ele>14.0</ele>
        <time>2019-01-14T01:49:05Z</time>
      </trkpt>
      <trkpt lat="41.803487" lon="3.053336">
        <ele>14.0</ele>
        <time>2019-01-14T01:49:07Z</time>
      </trkpt>
      <trkpt lat="41.803575" lon="3.053374">
        <ele>13.0</ele>
        <time>2019-01-14T01:49:08Z</time>
      </trkpt>
      <trkpt lat="41.803660" lon="3.053423">
        <ele>12.0</ele>
        <time>2019-01-14T01:49:10Z</time>
      </trkpt>
      <trkpt lat="41.803740" lon="3.053481">
        <ele>12.0</ele>
        <time>2019-01-14T01:49:11Z</time>
      </trkpt>
      <trkpt lat="41.803816" lon="3.053549">
        <ele>11.0</ele>
        <time>2019-01-14T01:49:12Z</time>
      </trkpt>
      <trkpt lat="41.803893" lon="3.053623">
        <ele>10.0</ele>
        <time>2019-01-14T01:49:14Z</time>
      </trkpt>
      <trkpt lat="41.803968" lon="3.053700">
        <ele>10.0</ele>
        <time>2019-01-14T01:49:15Z</time>
      </trkpt>
      <trkpt lat="41.804045" lon="3.053776">
        <ele>9.0</ele>
        <time>2019-01-14T01:49:17Z</time>
      </trkpt>
      <trkpt lat="41.804128" lon="3.053861">
        <ele>8.0</ele>
        <time>2019-01-14T01:49:19Z</time>
      </trkpt>
      <trkpt lat="41.804208" lon="3.053943">
        <ele>8.0</ele>
        <time>2019-01-14T01:49:20Z</time>
      </trkpt>
      <trkpt lat="41.804284" lon="3.054023">
        <ele>7.0</ele>
        <time>2019-01-14T01:49:22Z</time>
      </trkpt>
      <trkpt lat="41.804368" lon="3.054106">
        <ele>7.0</ele>
        <time>2019-01-14T01:49:23Z</time>
      </trkpt>
      <trkpt lat="41.804446" lon="3.054185">
        <ele>6.0</ele>
        <time>2019-01-14T01:49:25Z</time>
      </trkpt>
      <trkpt lat="41.804523" lon="3.054263">
        <ele>6.0</ele>
        <time>2019-01-14T01:49:27Z</time>
      </trkpt>
      <trkpt lat="41.804596" lon="3.054338">
        <ele>5.0</ele>
        <time>2019-01-14T01:49:28Z</time>
      </trkpt>
      <trkpt lat="41.804662" lon="3.054412">
        <ele>5.0</ele>
        <time>2019-01-14T01:49:29Z</time>
      </trkpt>
      <trkpt lat="41.804730" lon="3.054479">
        <ele>4.0</ele>
        <time>2019-01-14T01:49:31Z</time>
      </trkpt>
      <trkpt lat="41.804857" lon="3.054606">
        <ele>4.0</ele>
        <time>2019-01-14T01:49:33Z</time>
      </trkpt>
      <trkpt lat="41.804916" lon="3.054665">
        <ele>3.0</ele>
        <time>2019-01-14T01:49:35Z</time>
      </trkpt>
      <trkpt lat="41.804975" lon="3.054722">
        <ele>3.0</ele>
        <time>2019-01-14T01:49:36Z</time>
      </trkpt>
      <trkpt lat="41.805031" lon="3.054779">
        <ele>3.0</ele>
        <time>2019-01-14T01:49:37Z</time>
      </trkpt>
      <trkpt lat="41.805086" lon="3.054834">
        <ele>3.0</ele>
        <time>2019-01-14T01:49:38Z</time>
      </trkpt>
      <trkpt lat="41.805196" lon="3.054941">
        <ele>3.0</ele>
        <time>2019-01-14T01:49:40Z</time>
      </trkpt>
      <trkpt lat="41.805246" lon="3.054989">
        <ele>2.0</ele>
        <time>2019-01-14T01:49:41Z</time>
      </trkpt>
      <trkpt lat="41.805297" lon="3.055037">
        <ele>2.0</ele>
        <time>2019-01-14T01:49:42Z</time>
      </trkpt>
      <trkpt lat="41.805349" lon="3.055086">
        <ele>2.0</ele>
        <time>2019-01-14T01:49:43Z</time>
      </trkpt>
      <trkpt lat="41.805400" lon="3.055134">
        <ele>2.0</ele>
        <time>2019-01-14T01:49:44Z</time>
      </trkpt>
      <trkpt lat="41.805451" lon="3.055182">
        <ele>2.0</ele>
        <time>2019-01-14T01:49:45Z</time>
      </trkpt>
      <trkpt lat="41.805602" lon="3.055326">
        <ele>2.0</ele>
        <time>2019-01-14T01:49:48Z</time>
      </trkpt>
      <trkpt lat="41.805779" lon="3.055527">
        <ele>2.0</ele>
        <time>2019-01-14T01:49:52Z</time>
      </trkpt>
      <trkpt lat="41.805910" lon="3.055698">
        <ele>2.0</ele>
        <time>2019-01-14T01:49:55Z</time>
      </trkpt>
      <trkpt lat="41.805987" lon="3.055837">
        <ele>3.0</ele>
        <time>2019-01-14T01:49:57Z</time>
      </trkpt>
      <trkpt lat="41.806026" lon="3.055902">
        <ele>3.0</ele>
        <time>2019-01-14T01:49:58Z</time>
      </trkpt>
      <trkpt lat="41.806129" lon="3.055988">
        <ele>3.0</ele>
        <time>2019-01-14T01:50:00Z</time>
      </trkpt>
      <trkpt lat="41.806251" lon="3.056036">
        <ele>3.0</ele>
        <time>2019-01-14T01:50:02Z</time>
      </trkpt>
      <trkpt lat="41.806306" lon="3.056064">
        <ele>3.0</ele>
        <time>2019-01-14T01:50:03Z</time>
      </trkpt>
      <trkpt lat="41.806409" lon="3.056145">
        <ele>4.0</ele>
        <time>2019-01-14T01:50:05Z</time>
      </trkpt>
      <trkpt lat="41.806500" lon="3.056230">
        <ele>4.0</ele>
        <time>2019-01-14T01:50:06Z</time>
      </trkpt>
      <trkpt lat="41.806644" lon="3.056368">
        <ele>4.0</ele>
        <time>2019-01-14T01:50:09Z</time>
      </trkpt>
      <trkpt lat="41.806689" lon="3.056414">
        <ele>4.0</ele>
        <time>2019-01-14T01:50:10Z</time>
      </trkpt>
      <trkpt lat="41.806826" lon="3.056553">
        <ele>5.0</ele>
        <time>2019-01-14T01:50:13Z</time>
      </trkpt>
      <trkpt lat="41.806973" lon="3.056686">
        <ele>5.0</ele>
        <time>2019-01-14T01:50:16Z</time>
      </trkpt>
      <trkpt lat="41.807165" lon="3.056868">
        <ele>6.0</ele>
        <time>2019-01-14T01:50:19Z</time>
      </trkpt>
      <trkpt lat="41.807253" lon="3.056963">
        <ele>6.0</ele>
        <time>2019-01-14T01:50:21Z</time>
      </trkpt>
      <trkpt lat="41.807524" lon="3.057229">
        <ele>7.0</ele>
        <time>2019-01-14T01:50:27Z</time>
      </trkpt>
      <trkpt lat="41.807678" lon="3.057370">
        <ele>7.0</ele>
        <time>2019-01-14T01:50:30Z</time>
      </trkpt>
      <trkpt lat="41.807760" lon="3.057478">
        <ele>7.0</ele>
        <time>2019-01-14T01:50:31Z</time>
      </trkpt>
      <trkpt lat="41.807878" lon="3.057618">
        <ele>7.0</ele>
        <time>2019-01-14T01:50:34Z</time>
      </trkpt>
      <trkpt lat="41.807919" lon="3.057664">
        <ele>7.0</ele>
        <time>2019-01-14T01:50:35Z</time>
      </trkpt>
      <trkpt lat="41.808055" lon="3.057788">
        <ele>7.0</ele>
        <time>2019-01-14T01:50:37Z</time>
      </trkpt>
      <trkpt lat="41.808095" lon="3.057828">
        <ele>7.0</ele>
        <time>2019-01-14T01:50:38Z</time>
      </trkpt>
      <trkpt lat="41.808134" lon="3.057869">
        <ele>7.0</ele>
        <time>2019-01-14T01:50:39Z</time>
      </trkpt>
      <trkpt lat="41.808174" lon="3.057909">
        <ele>7.0</ele>
        <time>2019-01-14T01:50:40Z</time>
      </trkpt>
      <trkpt lat="41.808213" lon="3.057947">
        <ele>7.0</ele>
        <time>2019-01-14T01:50:41Z</time>
      </trkpt>
      <trkpt lat="41.808433" lon="3.058189">
        <ele>7.0</ele>
        <time>2019-01-14T01:50:45Z</time>
      </trkpt>
      <trkpt lat="41.808477" lon="3.058230">
        <ele>7.0</ele>
        <time>2019-01-14T01:50:46Z</time>
      </trkpt>
      <trkpt lat="41.808604" lon="3.058352">
        <ele>6.0</ele>
        <time>2019-01-14T01:50:49Z</time>
      </trkpt>
      <trkpt lat="41.808645" lon="3.058395">
        <ele>6.0</ele>
        <time>2019-01-14T01:50:49Z</time>
      </trkpt>
      <trkpt lat="41.808766" lon="3.058512">
        <ele>6.0</ele>
        <time>2019-01-14T01:50:52Z</time>
      </trkpt>
      <trkpt lat="41.808808" lon="3.058550">
        <ele>6.0</ele>
        <time>2019-01-14T01:50:53Z</time>
      </trkpt>
      <trkpt lat="41.808849" lon="3.058590">
        <ele>7.0</ele>
        <time>2019-01-14T01:50:53Z</time>
      </trkpt>
      <trkpt lat="41.808891" lon="3.058633">
        <ele>7.0</ele>
        <time>2019-01-14T01:50:54Z</time>
      </trkpt>
      <trkpt lat="41.808931" lon="3.058674">
        <ele>7.0</ele>
        <time>2019-01-14T01:50:55Z</time>
      </trkpt>
      <trkpt lat="41.808966" lon="3.058714">
        <ele>7.0</ele>
        <time>2019-01-14T01:50:56Z</time>
      </trkpt>
      <trkpt lat="41.809006" lon="3.058753">
        <ele>7.0</ele>
        <time>2019-01-14T01:50:57Z</time>
      </trkpt>
      <trkpt lat="41.809264" lon="3.059014">
        <ele>7.0</ele>
        <time>2019-01-14T01:51:02Z</time>
      </trkpt>
      <trkpt lat="41.809353" lon="3.059108">
        <ele>7.0</ele>
        <time>2019-01-14T01:51:04Z</time>
      </trkpt>
      <trkpt lat="41.809397" lon="3.059157">
        <ele>7.0</ele>
        <time>2019-01-14T01:51:04Z</time>
      </trkpt>
      <trkpt lat="41.809445" lon="3.059206">
        <ele>7.0</ele>
        <time>2019-01-14T01:51:05Z</time>
      </trkpt>
      <trkpt lat="41.809497" lon="3.059256">
        <ele>7.0</ele>
        <time>2019-01-14T01:51:06Z</time>
      </trkpt>
      <trkpt lat="41.809549" lon="3.059307">
        <ele>7.0</ele>
        <time>2019-01-14T01:51:07Z</time>
      </trkpt>
      <trkpt lat="41.809822" lon="3.059574">
        <ele>7.0</ele>
        <time>2019-01-14T01:51:13Z</time>
      </trkpt>
      <trkpt lat="41.809971" lon="3.059744">
        <ele>6.0</ele>
        <time>2019-01-14T01:51:16Z</time>
      </trkpt>
      <trkpt lat="41.810019" lon="3.059795">
        <ele>6.0</ele>
        <time>2019-01-14T01:51:17Z</time>
      </trkpt>
      <trkpt lat="41.810067" lon="3.059844">
        <ele>6.0</ele>
        <time>2019-01-14T01:51:18Z</time>
      </trkpt>
      <trkpt lat="41.810176" lon="3.059956">
        <ele>6.0</ele>
        <time>2019-01-14T01:51:20Z</time>
      </trkpt>
      <trkpt lat="41.810221" lon="3.060025">
        <ele>6.0</ele>
        <time>2019-01-14T01:51:21Z</time>
      </trkpt>
      <trkpt lat="41.810263" lon="3.060096">
        <ele>6.0</ele>
        <time>2019-01-14T01:51:22Z</time>
      </trkpt>
      <trkpt lat="41.810323" lon="3.060148">
        <ele>6.0</ele>
        <time>2019-01-14T01:51:23Z</time>
      </trkpt>
      <trkpt lat="41.810384" lon="3.060177">
        <ele>6.0</ele>
        <time>2019-01-14T01:51:24Z</time>
      </trkpt>
      <trkpt lat="41.810528" lon="3.060281">
        <ele>6.0</ele>
        <time>2019-01-14T01:51:27Z</time>
      </trkpt>
      <trkpt lat="41.810571" lon="3.060322">
        <ele>6.0</ele>
        <time>2019-01-14T01:51:28Z</time>
      </trkpt>
      <trkpt lat="41.810613" lon="3.060364">
        <ele>6.0</ele>
        <time>2019-01-14T01:51:29Z</time>
      </trkpt>
      <trkpt lat="41.810659" lon="3.060409">
        <ele>6.0</ele>
        <time>2019-01-14T01:51:30Z</time>
      </trkpt>
      <trkpt lat="41.810699" lon="3.060455">
        <ele>6.0</ele>
        <time>2019-01-14T01:51:31Z</time>
      </trkpt>
      <trkpt lat="41.810777" lon="3.060542">
        <ele>6.0</ele>
        <time>2019-01-14T01:51:32Z</time>
      </trkpt>
      <trkpt lat="41.811018" lon="3.060753">
        <ele>6.0</ele>
        <time>2019-01-14T01:51:37Z</time>
      </trkpt>
      <trkpt lat="41.811241" lon="3.060970">
        <ele>5.0</ele>
        <time>2019-01-14T01:51:41Z</time>
      </trkpt>
      <trkpt lat="41.811332" lon="3.061053">
        <ele>5.0</ele>
        <time>2019-01-14T01:51:43Z</time>
      </trkpt>
      <trkpt lat="41.811415" lon="3.061136">
        <ele>5.0</ele>
        <time>2019-01-14T01:51:45Z</time>
      </trkpt>
      <trkpt lat="41.811722" lon="3.061447">
        <ele>5.0</ele>
        <time>2019-01-14T01:51:51Z</time>
      </trkpt>
      <trkpt lat="41.812064" lon="3.061750">
        <ele>5.0</ele>
        <time>2019-01-14T01:51:57Z</time>
      </trkpt>
      <trkpt lat="41.812108" lon="3.061796">
        <ele>5.0</ele>
        <time>2019-01-14T01:51:58Z</time>
      </trkpt>
      <trkpt lat="41.812250" lon="3.061937">
        <ele>5.0</ele>
        <time>2019-01-14T01:52:01Z</time>
      </trkpt>
      <trkpt lat="41.812539" lon="3.062223">
        <ele>5.0</ele>
        <time>2019-01-14T01:52:07Z</time>
      </trkpt>
      <trkpt lat="41.812827" lon="3.062519">
        <ele>5.0</ele>
        <time>2019-01-14T01:52:13Z</time>
      </trkpt>
      <trkpt lat="41.812868" lon="3.062565">
        <ele>5.0</ele>
        <time>2019-01-14T01:52:13Z</time>
      </trkpt>
      <trkpt lat="41.812915" lon="3.062609">
        <ele>5.0</ele>
        <time>2019-01-14T01:52:14Z</time>
      </trkpt>
      <trkpt lat="41.813050" lon="3.062749">
        <ele>6.0</ele>
        <time>2019-01-14T01:52:17Z</time>
      </trkpt>
      <trkpt lat="41.813095" lon="3.062798">
        <ele>6.0</ele>
        <time>2019-01-14T01:52:18Z</time>
      </trkpt>
      <trkpt lat="41.813432" lon="3.063114">
        <ele>7.0</ele>
        <time>2019-01-14T01:52:25Z</time>
      </trkpt>
      <trkpt lat="41.813477" lon="3.063161">
        <ele>7.0</ele>
        <time>2019-01-14T01:52:26Z</time>
      </trkpt>
      <trkpt lat="41.813603" lon="3.063286">
        <ele>7.0</ele>
        <time>2019-01-14T01:52:28Z</time>
      </trkpt>
      <trkpt lat="41.813648" lon="3.063327">
        <ele>8.0</ele>
        <time>2019-01-14T01:52:29Z</time>
      </trkpt>
      <trkpt lat="41.813760" lon="3.063484">
        <ele>8.0</ele>
        <time>2019-01-14T01:52:32Z</time>
      </trkpt>
      <trkpt lat="41.813789" lon="3.063549">
        <ele>8.0</ele>
        <time>2019-01-14T01:52:32Z</time>
      </trkpt>
      <trkpt lat="41.813944" lon="3.063729">
        <ele>9.0</ele>
        <time>2019-01-14T01:52:36Z</time>
      </trkpt>
      <trkpt lat="41.814092" lon="3.063787">
        <ele>9.0</ele>
        <time>2019-01-14T01:52:38Z</time>
      </trkpt>
      <trkpt lat="41.814138" lon="3.063817">
        <ele>9.0</ele>
        <time>2019-01-14T01:52:39Z</time>
      </trkpt>
      <trkpt lat="41.814327" lon="3.064008">
        <ele>9.0</ele>
        <time>2019-01-14T01:52:43Z</time>
      </trkpt>
      <trkpt lat="41.814365" lon="3.064046">
        <ele>9.0</ele>
        <time>2019-01-14T01:52:44Z</time>
      </trkpt>
      <trkpt lat="41.814448" lon="3.064119">
        <ele>10.0</ele>
        <time>2019-01-14T01:52:45Z</time>
      </trkpt>
      <trkpt lat="41.814562" lon="3.064220">
        <ele>10.0</ele>
        <time>2019-01-14T01:52:47Z</time>
      </trkpt>
      <trkpt lat="41.814596" lon="3.064255">
        <ele>10.0</ele>
        <time>2019-01-14T01:52:48Z</time>
      </trkpt>
      <trkpt lat="41.814662" lon="3.064324">
        <ele>10.0</ele>
        <time>2019-01-14T01:52:49Z</time>
      </trkpt>
      <trkpt lat="41.814693" lon="3.064354">
        <ele>10.0</ele>
        <time>2019-01-14T01:52:50Z</time>
      </trkpt>
      <trkpt lat="41.814723" lon="3.064377">
        <ele>10.0</ele>
        <time>2019-01-14T01:52:50Z</time>
      </trkpt>
      <trkpt lat="41.814750" lon="3.064405">
        <ele>10.0</ele>
        <time>2019-01-14T01:52:51Z</time>
      </trkpt>
      <trkpt lat="41.814821" lon="3.064475">
        <ele>10.0</ele>
        <time>2019-01-14T01:52:52Z</time>
      </trkpt>
      <trkpt lat="41.814836" lon="3.064486">
        <ele>10.0</ele>
        <time>2019-01-14T01:52:53Z</time>
      </trkpt>
      <trkpt lat="41.814954" lon="3.064594">
        <ele>10.0</ele>
        <time>2019-01-14T01:52:55Z</time>
      </trkpt>
      <trkpt lat="41.815090" lon="3.064699">
        <ele>10.0</ele>
        <time>2019-01-14T01:52:58Z</time>
      </trkpt>
      <trkpt lat="41.815149" lon="3.064755">
        <ele>10.0</ele>
        <time>2019-01-14T01:52:59Z</time>
      </trkpt>
      <trkpt lat="41.815159" lon="3.064766">
        <ele>10.0</ele>
        <time>2019-01-14T01:52:59Z</time>
      </trkpt>
      <trkpt lat="41.815163" lon="3.064771">
        <ele>9.0</ele>
        <time>2019-01-14T01:52:59Z</time>
      </trkpt>
      <trkpt lat="41.815177" lon="3.064792">
        <ele>9.0</ele>
        <time>2019-01-14T01:52:59Z</time>
      </trkpt>
      <trkpt lat="41.815216" lon="3.064820">
        <ele>9.0</ele>
        <time>2019-01-14T01:53:00Z</time>
      </trkpt>
      <trkpt lat="41.815264" lon="3.064845">
        <ele>9.0</ele>
        <time>2019-01-14T01:53:01Z</time>
      </trkpt>
      <trkpt lat="41.815322" lon="3.064908">
        <ele>9.0</ele>
        <time>2019-01-14T01:53:02Z</time>
      </trkpt>
      <trkpt lat="41.815431" lon="3.064990">
        <ele>9.0</ele>
        <time>2019-01-14T01:53:04Z</time>
      </trkpt>
      <trkpt lat="41.815490" lon="3.065080">
        <ele>9.0</ele>
        <time>2019-01-14T01:53:05Z</time>
      </trkpt>
      <trkpt lat="41.815538" lon="3.065148">
        <ele>9.0</ele>
        <time>2019-01-14T01:53:07Z</time>
      </trkpt>
      <trkpt lat="41.815701" lon="3.065330">
        <ele>9.0</ele>
        <time>2019-01-14T01:53:10Z</time>
      </trkpt>
      <trkpt lat="41.815847" lon="3.065476">
        <ele>9.0</ele>
        <time>2019-01-14T01:53:13Z</time>
      </trkpt>
      <trkpt lat="41.815971" lon="3.065565">
        <ele>9.0</ele>
        <time>2019-01-14T01:53:15Z</time>
      </trkpt>
      <trkpt lat="41.816173" lon="3.065707">
        <ele>8.0</ele>
        <time>2019-01-14T01:53:19Z</time>
      </trkpt>
      <trkpt lat="41.816219" lon="3.065742">
        <ele>8.0</ele>
        <time>2019-01-14T01:53:20Z</time>
      </trkpt>
      <trkpt lat="41.816354" lon="3.065833">
        <ele>9.0</ele>
        <time>2019-01-14T01:53:22Z</time>
      </trkpt>
      <trkpt lat="41.816435" lon="3.065902">
        <ele>9.0</ele>
        <time>2019-01-14T01:53:24Z</time>
      </trkpt>
      <trkpt lat="41.816479" lon="3.065937">
        <ele>9.0</ele>
        <time>2019-01-14T01:53:24Z</time>
      </trkpt>
      <trkpt lat="41.816743" lon="3.066153">
        <ele>9.0</ele>
        <time>2019-01-14T01:53:29Z</time>
      </trkpt>
      <trkpt lat="41.816823" lon="3.066234">
        <ele>8.0</ele>
        <time>2019-01-14T01:53:31Z</time>
      </trkpt>
      <trkpt lat="41.817005" lon="3.066385">
        <ele>8.0</ele>
        <time>2019-01-14T01:53:34Z</time>
      </trkpt>
      <trkpt lat="41.817219" lon="3.066518">
        <ele>8.0</ele>
        <time>2019-01-14T01:53:38Z</time>
      </trkpt>
      <trkpt lat="41.817310" lon="3.066574">
        <ele>8.0</ele>
        <time>2019-01-14T01:53:40Z</time>
      </trkpt>
      <trkpt lat="41.817609" lon="3.066791">
        <ele>8.0</ele>
        <time>2019-01-14T01:53:45Z</time>
      </trkpt>
      <trkpt lat="41.817796" lon="3.066936">
        <ele>9.0</ele>
        <time>2019-01-14T01:53:49Z</time>
      </trkpt>
      <trkpt lat="41.817843" lon="3.066966">
        <ele>9.0</ele>
        <time>2019-01-14T01:53:50Z</time>
      </trkpt>
      <trkpt lat="41.817889" lon="3.066996">
        <ele>9.0</ele>
        <time>2019-01-14T01:53:50Z</time>
      </trkpt>
      <trkpt lat="41.817935" lon="3.067028">
        <ele>9.0</ele>
        <time>2019-01-14T01:53:51Z</time>
      </trkpt>
      <trkpt lat="41.817981" lon="3.067061">
        <ele>9.0</ele>
        <time>2019-01-14T01:53:52Z</time>
      </trkpt>
      <trkpt lat="41.818223" lon="3.067218">
        <ele>10.0</ele>
        <time>2019-01-14T01:53:56Z</time>
      </trkpt>
      <trkpt lat="41.818570" lon="3.067413">
        <ele>10.0</ele>
        <time>2019-01-14T01:54:02Z</time>
      </trkpt>
      <trkpt lat="41.818868" lon="3.067615">
        <ele>11.0</ele>
        <time>2019-01-14T01:54:08Z</time>
      </trkpt>
      <trkpt lat="41.819157" lon="3.067856">
        <ele>11.0</ele>
        <time>2019-01-14T01:54:13Z</time>
      </trkpt>
      <trkpt lat="41.819202" lon="3.067901">
        <ele>11.0</ele>
        <time>2019-01-14T01:54:14Z</time>
      </trkpt>
      <trkpt lat="41.819383" lon="3.068068">
        <ele>11.0</ele>
        <time>2019-01-14T01:54:18Z</time>
      </trkpt>
      <trkpt lat="41.819679" lon="3.068336">
        <ele>10.0</ele>
        <time>2019-01-14T01:54:23Z</time>
      </trkpt>
      <trkpt lat="41.819938" lon="3.068570">
        <ele>10.0</ele>
        <time>2019-01-14T01:54:28Z</time>
      </trkpt>
      <trkpt lat="41.820070" lon="3.068711">
        <ele>9.0</ele>
        <time>2019-01-14T01:54:31Z</time>
      </trkpt>
      <trkpt lat="41.820130" lon="3.068845">
        <ele>9.0</ele>
        <time>2019-01-14T01:54:33Z</time>
      </trkpt>
      <trkpt lat="41.820226" lon="3.068937">
        <ele>9.0</ele>
        <time>2019-01-14T01:54:35Z</time>
      </trkpt>
      <trkpt lat="41.820341" lon="3.068973">
        <ele>9.0</ele>
        <time>2019-01-14T01:54:37Z</time>
      </trkpt>
      <trkpt lat="41.820376" lon="3.069003">
        <ele>9.0</ele>
        <time>2019-01-14T01:54:37Z</time>
      </trkpt>
      <trkpt lat="41.820410" lon="3.069039">
        <ele>9.0</ele>
        <time>2019-01-14T01:54:38Z</time>
      </trkpt>
      <trkpt lat="41.820446" lon="3.069072">
        <ele>9.0</ele>
        <time>2019-01-14T01:54:39Z</time>
      </trkpt>
      <trkpt lat="41.820483" lon="3.069104">
        <ele>9.0</ele>
        <time>2019-01-14T01:54:39Z</time>
      </trkpt>
      <trkpt lat="41.820602" lon="3.069203">
        <ele>10.0</ele>
        <time>2019-01-14T01:54:42Z</time>
      </trkpt>
      <trkpt lat="41.820711" lon="3.069309">
        <ele>10.0</ele>
        <time>2019-01-14T01:54:44Z</time>
      </trkpt>
      <trkpt lat="41.820785" lon="3.069376">
        <ele>10.0</ele>
        <time>2019-01-14T01:54:45Z</time>
      </trkpt>
      <trkpt lat="41.821076" lon="3.069660">
        <ele>11.0</ele>
        <time>2019-01-14T01:54:51Z</time>
      </trkpt>
      <trkpt lat="41.821110" lon="3.069696">
        <ele>11.0</ele>
        <time>2019-01-14T01:54:52Z</time>
      </trkpt>
      <trkpt lat="41.821148" lon="3.069731">
        <ele>12.0</ele>
        <time>2019-01-14T01:54:52Z</time>
      </trkpt>
      <trkpt lat="41.821185" lon="3.069765">
        <ele>12.0</ele>
        <time>2019-01-14T01:54:53Z</time>
      </trkpt>
      <trkpt lat="41.821222" lon="3.069798">
        <ele>12.0</ele>
        <time>2019-01-14T01:54:54Z</time>
      </trkpt>
      <trkpt lat="41.821300" lon="3.069858">
        <ele>13.0</ele>
        <time>2019-01-14T01:54:55Z</time>
      </trkpt>
      <trkpt lat="41.821435" lon="3.069990">
        <ele>14.0</ele>
        <time>2019-01-14T01:54:58Z</time>
      </trkpt>
      <trkpt lat="41.821470" lon="3.070023">
        <ele>14.0</ele>
        <time>2019-01-14T01:54:59Z</time>
      </trkpt>
      <trkpt lat="41.821508" lon="3.070059">
        <ele>14.0</ele>
        <time>2019-01-14T01:54:59Z</time>
      </trkpt>
      <trkpt lat="41.821546" lon="3.070094">
        <ele>14.0</ele>
        <time>2019-01-14T01:55:00Z</time>
      </trkpt>
      <trkpt lat="41.821587" lon="3.070123">
        <ele>14.0</ele>
        <time>2019-01-14T01:55:01Z</time>
      </trkpt>
      <trkpt lat="41.821700" lon="3.070231">
        <ele>15.0</ele>
        <time>2019-01-14T01:55:03Z</time>
      </trkpt>
      <trkpt lat="41.821733" lon="3.070270">
        <ele>15.0</ele>
        <time>2019-01-14T01:55:04Z</time>
      </trkpt>
      <trkpt lat="41.821769" lon="3.070307">
        <ele>15.0</ele>
        <time>2019-01-14T01:55:04Z</time>
      </trkpt>
      <trkpt lat="41.821841" lon="3.070371">
        <ele>16.0</ele>
        <time>2019-01-14T01:55:06Z</time>
      </trkpt>
      <trkpt lat="41.821880" lon="3.070400">
        <ele>16.0</ele>
        <time>2019-01-14T01:55:07Z</time>
      </trkpt>
      <trkpt lat="41.821918" lon="3.070429">
        <ele>16.0</ele>
        <time>2019-01-14T01:55:07Z</time>
      </trkpt>
      <trkpt lat="41.821957" lon="3.070462">
        <ele>16.0</ele>
        <time>2019-01-14T01:55:08Z</time>
      </trkpt>
      <trkpt lat="41.821997" lon="3.070495">
        <ele>16.0</ele>
        <time>2019-01-14T01:55:09Z</time>
      </trkpt>
      <trkpt lat="41.822145" lon="3.070622">
        <ele>17.0</ele>
        <time>2019-01-14T01:55:12Z</time>
      </trkpt>
      <trkpt lat="41.822381" lon="3.070860">
        <ele>18.0</ele>
        <time>2019-01-14T01:55:16Z</time>
      </trkpt>
      <trkpt lat="41.822412" lon="3.070896">
        <ele>18.0</ele>
        <time>2019-01-14T01:55:17Z</time>
      </trkpt>
      <trkpt lat="41.822443" lon="3.070932">
        <ele>19.0</ele>
        <time>2019-01-14T01:55:18Z</time>
      </trkpt>
      <trkpt lat="41.822477" lon="3.070963">
        <ele>19.0</ele>
        <time>2019-01-14T01:55:18Z</time>
      </trkpt>
      <trkpt lat="41.822511" lon="3.070994">
        <ele>19.0</ele>
        <time>2019-01-14T01:55:19Z</time>
      </trkpt>
      <trkpt lat="41.822543" lon="3.071029">
        <ele>19.0</ele>
        <time>2019-01-14T01:55:20Z</time>
      </trkpt>
      <trkpt lat="41.822576" lon="3.071064">
        <ele>19.0</ele>
        <time>2019-01-14T01:55:20Z</time>
      </trkpt>
      <trkpt lat="41.822787" lon="3.071261">
        <ele>20.0</ele>
        <time>2019-01-14T01:55:24Z</time>
      </trkpt>
      <trkpt lat="41.822822" lon="3.071294">
        <ele>20.0</ele>
        <time>2019-01-14T01:55:25Z</time>
      </trkpt>
      <trkpt lat="41.822857" lon="3.071330">
        <ele>20.0</ele>
        <time>2019-01-14T01:55:26Z</time>
      </trkpt>
      <trkpt lat="41.822894" lon="3.071365">
        <ele>20.0</ele>
        <time>2019-01-14T01:55:26Z</time>
      </trkpt>
      <trkpt lat="41.823212" lon="3.071640">
        <ele>20.0</ele>
        <time>2019-01-14T01:55:33Z</time>
      </trkpt>
      <trkpt lat="41.823403" lon="3.071958">
        <ele>20.0</ele>
        <time>2019-01-14T01:55:37Z</time>
      </trkpt>
      <trkpt lat="41.823450" lon="3.072076">
        <ele>20.0</ele>
        <time>2019-01-14T01:55:39Z</time>
      </trkpt>
      <trkpt lat="41.823539" lon="3.072319">
        <ele>20.0</ele>
        <time>2019-01-14T01:55:42Z</time>
      </trkpt>
      <trkpt lat="41.823649" lon="3.072705">
        <ele>21.0</ele>
        <time>2019-01-14T01:55:47Z</time>
      </trkpt>
      <trkpt lat="41.823665" lon="3.072764">
        <ele>21.0</ele>
        <time>2019-01-14T01:55:48Z</time>
      </trkpt>
      <trkpt lat="41.823683" lon="3.072822">
        <ele>21.0</ele>
        <time>2019-01-14T01:55:49Z</time>
      </trkpt>
      <trkpt lat="41.823701" lon="3.072881">
        <ele>21.0</ele>
        <time>2019-01-14T01:55:49Z</time>
      </trkpt>
      <trkpt lat="41.823715" lon="3.072939">
        <ele>21.0</ele>
        <time>2019-01-14T01:55:50Z</time>
      </trkpt>
      <trkpt lat="41.823744" lon="3.073057">
        <ele>21.0</ele>
        <time>2019-01-14T01:55:52Z</time>
      </trkpt>
      <trkpt lat="41.823762" lon="3.073118">
        <ele>21.0</ele>
        <time>2019-01-14T01:55:52Z</time>
      </trkpt>
      <trkpt lat="41.823777" lon="3.073175">
        <ele>21.0</ele>
        <time>2019-01-14T01:55:53Z</time>
      </trkpt>
      <trkpt lat="41.823794" lon="3.073231">
        <ele>21.0</ele>
        <time>2019-01-14T01:55:54Z</time>
      </trkpt>
      <trkpt lat="41.823812" lon="3.073286">
        <ele>21.0</ele>
        <time>2019-01-14T01:55:55Z</time>
      </trkpt>
      <trkpt lat="41.823909" lon="3.073631">
        <ele>23.0</ele>
        <time>2019-01-14T01:55:59Z</time>
      </trkpt>
      <trkpt lat="41.823926" lon="3.073689">
        <ele>23.0</ele>
        <time>2019-01-14T01:56:00Z</time>
      </trkpt>
      <trkpt lat="41.823945" lon="3.073746">
        <ele>23.0</ele>
        <time>2019-01-14T01:56:00Z</time>
      </trkpt>
      <trkpt lat="41.823960" lon="3.073804">
        <ele>24.0</ele>
        <time>2019-01-14T01:56:01Z</time>
      </trkpt>
      <trkpt lat="41.823979" lon="3.073861">
        <ele>24.0</ele>
        <time>2019-01-14T01:56:02Z</time>
      </trkpt>
      <trkpt lat="41.824050" lon="3.074091">
        <ele>25.0</ele>
        <time>2019-01-14T01:56:05Z</time>
      </trkpt>
      <trkpt lat="41.824065" lon="3.074149">
        <ele>26.0</ele>
        <time>2019-01-14T01:56:06Z</time>
      </trkpt>
      <trkpt lat="41.824079" lon="3.074209">
        <ele>26.0</ele>
        <time>2019-01-14T01:56:06Z</time>
      </trkpt>
      <trkpt lat="41.824096" lon="3.074268">
        <ele>26.0</ele>
        <time>2019-01-14T01:56:07Z</time>
      </trkpt>
      <trkpt lat="41.824115" lon="3.074325">
        <ele>26.0</ele>
        <time>2019-01-14T01:56:08Z</time>
      </trkpt>
      <trkpt lat="41.824133" lon="3.074384">
        <ele>26.0</ele>
        <time>2019-01-14T01:56:09Z</time>
      </trkpt>
      <trkpt lat="41.824151" lon="3.074447">
        <ele>27.0</ele>
        <time>2019-01-14T01:56:09Z</time>
      </trkpt>
      <trkpt lat="41.824177" lon="3.074570">
        <ele>27.0</ele>
        <time>2019-01-14T01:56:11Z</time>
      </trkpt>
      <trkpt lat="41.824213" lon="3.074746">
        <ele>27.0</ele>
        <time>2019-01-14T01:56:13Z</time>
      </trkpt>
      <trkpt lat="41.824231" lon="3.074804">
        <ele>27.0</ele>
        <time>2019-01-14T01:56:14Z</time>
      </trkpt>
      <trkpt lat="41.824273" lon="3.074982">
        <ele>27.0</ele>
        <time>2019-01-14T01:56:16Z</time>
      </trkpt>
      <trkpt lat="41.824292" lon="3.075041">
        <ele>27.0</ele>
        <time>2019-01-14T01:56:17Z</time>
      </trkpt>
      <trkpt lat="41.824306" lon="3.075100">
        <ele>27.0</ele>
        <time>2019-01-14T01:56:18Z</time>
      </trkpt>
      <trkpt lat="41.824323" lon="3.075158">
        <ele>27.0</ele>
        <time>2019-01-14T01:56:18Z</time>
      </trkpt>
      <trkpt lat="41.824341" lon="3.075214">
        <ele>27.0</ele>
        <time>2019-01-14T01:56:19Z</time>
      </trkpt>
      <trkpt lat="41.824418" lon="3.075502">
        <ele>28.0</ele>
        <time>2019-01-14T01:56:23Z</time>
      </trkpt>
      <trkpt lat="41.824470" lon="3.075679">
        <ele>28.0</ele>
        <time>2019-01-14T01:56:25Z</time>
      </trkpt>
      <trkpt lat="41.824488" lon="3.075737">
        <ele>28.0</ele>
        <time>2019-01-14T01:56:26Z</time>
      </trkpt>
      <trkpt lat="41.824506" lon="3.075799">
        <ele>29.0</ele>
        <time>2019-01-14T01:56:27Z</time>
      </trkpt>
      <trkpt lat="41.824523" lon="3.075856">
        <ele>29.0</ele>
        <time>2019-01-14T01:56:27Z</time>
      </trkpt>
      <trkpt lat="41.824540" lon="3.075914">
        <ele>29.0</ele>
        <time>2019-01-14T01:56:28Z</time>
      </trkpt>
      <trkpt lat="41.824554" lon="3.075974">
        <ele>29.0</ele>
        <time>2019-01-14T01:56:29Z</time>
      </trkpt>
      <trkpt lat="41.824588" lon="3.076090">
        <ele>30.0</ele>
        <time>2019-01-14T01:56:30Z</time>
      </trkpt>
      <trkpt lat="41.824672" lon="3.076337">
        <ele>31.0</ele>
        <time>2019-01-14T01:56:34Z</time>
      </trkpt>
      <trkpt lat="41.824795" lon="3.076763">
        <ele>33.0</ele>
        <time>2019-01-14T01:56:39Z</time>
      </trkpt>
      <trkpt lat="41.824801" lon="3.076827">
        <ele>33.0</ele>
        <time>2019-01-14T01:56:40Z</time>
      </trkpt>
      <trkpt lat="41.824829" lon="3.076954">
        <ele>34.0</ele>
        <time>2019-01-14T01:56:41Z</time>
      </trkpt>
      <trkpt lat="41.824848" lon="3.077015">
        <ele>34.0</ele>
        <time>2019-01-14T01:56:42Z</time>
      </trkpt>
      <trkpt lat="41.824867" lon="3.077077">
        <ele>34.0</ele>
        <time>2019-01-14T01:56:43Z</time>
      </trkpt>
      <trkpt lat="41.824881" lon="3.077144">
        <ele>34.0</ele>
        <time>2019-01-14T01:56:44Z</time>
      </trkpt>
      <trkpt lat="41.824914" lon="3.077268">
        <ele>35.0</ele>
        <time>2019-01-14T01:56:45Z</time>
      </trkpt>
      <trkpt lat="41.824950" lon="3.077387">
        <ele>35.0</ele>
        <time>2019-01-14T01:56:47Z</time>
      </trkpt>
      <trkpt lat="41.825020" lon="3.077640">
        <ele>36.0</ele>
        <time>2019-01-14T01:56:50Z</time>
      </trkpt>
      <trkpt lat="41.825070" lon="3.077830">
        <ele>36.0</ele>
        <time>2019-01-14T01:56:52Z</time>
      </trkpt>
      <trkpt lat="41.825126" lon="3.078017">
        <ele>36.0</ele>
        <time>2019-01-14T01:56:55Z</time>
      </trkpt>
      <trkpt lat="41.825278" lon="3.078567">
        <ele>35.0</ele>
        <time>2019-01-14T01:57:02Z</time>
      </trkpt>
      <trkpt lat="41.825420" lon="3.079076">
        <ele>34.0</ele>
        <time>2019-01-14T01:57:08Z</time>
      </trkpt>
      <trkpt lat="41.825445" lon="3.079144">
        <ele>33.0</ele>
        <time>2019-01-14T01:57:09Z</time>
      </trkpt>
      <trkpt lat="41.825488" lon="3.079285">
        <ele>32.0</ele>
        <time>2019-01-14T01:57:11Z</time>
      </trkpt>
      <trkpt lat="41.825508" lon="3.079356">
        <ele>32.0</ele>
        <time>2019-01-14T01:57:12Z</time>
      </trkpt>
      <trkpt lat="41.825528" lon="3.079425">
        <ele>32.0</ele>
        <time>2019-01-14T01:57:13Z</time>
      </trkpt>
      <trkpt lat="41.825550" lon="3.079491">
        <ele>31.0</ele>
        <time>2019-01-14T01:57:14Z</time>
      </trkpt>
      <trkpt lat="41.825568" lon="3.079559">
        <ele>31.0</ele>
        <time>2019-01-14T01:57:15Z</time>
      </trkpt>
      <trkpt lat="41.825651" lon="3.079825">
        <ele>29.0</ele>
        <time>2019-01-14T01:57:18Z</time>
      </trkpt>
      <trkpt lat="41.825730" lon="3.080084">
        <ele>27.0</ele>
        <time>2019-01-14T01:57:21Z</time>
      </trkpt>
      <trkpt lat="41.825749" lon="3.080144">
        <ele>26.0</ele>
        <time>2019-01-14T01:57:22Z</time>
      </trkpt>
      <trkpt lat="41.825774" lon="3.080205">
        <ele>25.0</ele>
        <time>2019-01-14T01:57:23Z</time>
      </trkpt>
      <trkpt lat="41.825801" lon="3.080265">
        <ele>25.0</ele>
        <time>2019-01-14T01:57:24Z</time>
      </trkpt>
      <trkpt lat="41.825866" lon="3.080384">
        <ele>25.0</ele>
        <time>2019-01-14T01:57:26Z</time>
      </trkpt>
      <trkpt lat="41.826020" lon="3.080584">
        <ele>26.0</ele>
        <time>2019-01-14T01:57:29Z</time>
      </trkpt>
      <trkpt lat="41.826303" lon="3.080853">
        <ele>28.0</ele>
        <time>2019-01-14T01:57:35Z</time>
      </trkpt>
      <trkpt lat="41.826689" lon="3.081245">
        <ele>32.0</ele>
        <time>2019-01-14T01:57:42Z</time>
      </trkpt>
      <trkpt lat="41.826823" lon="3.081431">
        <ele>34.0</ele>
        <time>2019-01-14T01:57:45Z</time>
      </trkpt>
      <trkpt lat="41.826946" lon="3.081642">
        <ele>34.0</ele>
        <time>2019-01-14T01:57:49Z</time>
      </trkpt>
      <trkpt lat="41.827286" lon="3.082268">
        <ele>35.0</ele>
        <time>2019-01-14T01:57:58Z</time>
      </trkpt>
      <trkpt lat="41.827569" lon="3.082793">
        <ele>32.0</ele>
        <time>2019-01-14T01:58:06Z</time>
      </trkpt>
      <trkpt lat="41.827702" lon="3.083018">
        <ele>31.0</ele>
        <time>2019-01-14T01:58:09Z</time>
      </trkpt>
      <trkpt lat="41.827776" lon="3.083112">
        <ele>31.0</ele>
        <time>2019-01-14T01:58:11Z</time>
      </trkpt>
      <trkpt lat="41.827994" lon="3.083351">
        <ele>31.0</ele>
        <time>2019-01-14T01:58:15Z</time>
      </trkpt>
      <trkpt lat="41.828046" lon="3.083396">
        <ele>31.0</ele>
        <time>2019-01-14T01:58:16Z</time>
      </trkpt>
      <trkpt lat="41.828311" lon="3.083550">
        <ele>31.0</ele>
        <time>2019-01-14T01:58:21Z</time>
      </trkpt>
      <trkpt lat="41.828623" lon="3.083639">
        <ele>33.0</ele>
        <time>2019-01-14T01:58:26Z</time>
      </trkpt>
      <trkpt lat="41.828752" lon="3.083673">
        <ele>33.0</ele>
        <time>2019-01-14T01:58:28Z</time>
      </trkpt>
      <trkpt lat="41.828880" lon="3.083705">
        <ele>34.0</ele>
        <time>2019-01-14T01:58:30Z</time>
      </trkpt>
      <trkpt lat="41.829025" lon="3.083726">
        <ele>33.0</ele>
        <time>2019-01-14T01:58:32Z</time>
      </trkpt>
      <trkpt lat="41.829097" lon="3.083738">
        <ele>33.0</ele>
        <time>2019-01-14T01:58:34Z</time>
      </trkpt>
      <trkpt lat="41.829170" lon="3.083750">
        <ele>33.0</ele>
        <time>2019-01-14T01:58:35Z</time>
      </trkpt>
      <trkpt lat="41.829242" lon="3.083766">
        <ele>33.0</ele>
        <time>2019-01-14T01:58:36Z</time>
      </trkpt>
      <trkpt lat="41.829318" lon="3.083781">
        <ele>32.0</ele>
        <time>2019-01-14T01:58:37Z</time>
      </trkpt>
      <trkpt lat="41.829869" lon="3.083881">
        <ele>32.0</ele>
        <time>2019-01-14T01:58:46Z</time>
      </trkpt>
      <trkpt lat="41.830112" lon="3.083923">
        <ele>32.0</ele>
        <time>2019-01-14T01:58:50Z</time>
      </trkpt>
      <trkpt lat="41.830191" lon="3.083938">
        <ele>32.0</ele>
        <time>2019-01-14T01:58:51Z</time>
      </trkpt>
      <trkpt lat="41.830273" lon="3.083956">
        <ele>33.0</ele>
        <time>2019-01-14T01:58:53Z</time>
      </trkpt>
      <trkpt lat="41.830354" lon="3.083971">
        <ele>33.0</ele>
        <time>2019-01-14T01:58:54Z</time>
      </trkpt>
      <trkpt lat="41.830430" lon="3.083986">
        <ele>34.0</ele>
        <time>2019-01-14T01:58:55Z</time>
      </trkpt>
      <trkpt lat="41.830991" lon="3.084095">
        <ele>34.0</ele>
        <time>2019-01-14T01:59:04Z</time>
      </trkpt>
      <trkpt lat="41.831070" lon="3.084114">
        <ele>34.0</ele>
        <time>2019-01-14T01:59:05Z</time>
      </trkpt>
      <trkpt lat="41.831446" lon="3.084234">
        <ele>34.0</ele>
        <time>2019-01-14T01:59:12Z</time>
      </trkpt>
      <trkpt lat="41.831520" lon="3.084272">
        <ele>34.0</ele>
        <time>2019-01-14T01:59:13Z</time>
      </trkpt>
      <trkpt lat="41.831807" lon="3.084442">
        <ele>34.0</ele>
        <time>2019-01-14T01:59:18Z</time>
      </trkpt>
      <trkpt lat="41.831877" lon="3.084490">
        <ele>34.0</ele>
        <time>2019-01-14T01:59:19Z</time>
      </trkpt>
      <trkpt lat="41.831943" lon="3.084541">
        <ele>34.0</ele>
        <time>2019-01-14T01:59:20Z</time>
      </trkpt>
      <trkpt lat="41.832008" lon="3.084597">
        <ele>34.0</ele>
        <time>2019-01-14T01:59:22Z</time>
      </trkpt>
      <trkpt lat="41.832071" lon="3.084656">
        <ele>34.0</ele>
        <time>2019-01-14T01:59:23Z</time>
      </trkpt>
      <trkpt lat="41.832131" lon="3.084714">
        <ele>34.0</ele>
        <time>2019-01-14T01:59:24Z</time>
      </trkpt>
      <trkpt lat="41.832191" lon="3.084774">
        <ele>34.0</ele>
        <time>2019-01-14T01:59:25Z</time>
      </trkpt>
      <trkpt lat="41.832673" lon="3.085212">
        <ele>36.0</ele>
        <time>2019-01-14T01:59:35Z</time>
      </trkpt>
      <trkpt lat="41.833108" lon="3.085557">
        <ele>37.0</ele>
        <time>2019-01-14T01:59:43Z</time>
      </trkpt>
      <trkpt lat="41.833585" lon="3.085790">
        <ele>38.0</ele>
        <time>2019-01-14T01:59:51Z</time>
      </trkpt>
      <trkpt lat="41.833933" lon="3.085871">
        <ele>37.0</ele>
        <time>2019-01-14T01:59:56Z</time>
      </trkpt>
      <trkpt lat="41.834340" lon="3.085880">
        <ele>36.0</ele>
        <time>2019-01-14T02:00:03Z</time>
      </trkpt>
      <trkpt lat="41.834856" lon="3.085820">
        <ele>35.0</ele>
        <time>2019-01-14T02:00:11Z</time>
      </trkpt>
      <trkpt lat="41.835327" lon="3.085768">
        <ele>34.0</ele>
        <time>2019-01-14T02:00:19Z</time>
      </trkpt>
      <trkpt lat="41.835782" lon="3.085773">
        <ele>33.0</ele>
        <time>2019-01-14T02:00:26Z</time>
      </trkpt>
      <trkpt lat="41.836190" lon="3.085903">
        <ele>33.0</ele>
        <time>2019-01-14T02:00:33Z</time>
      </trkpt>
      <trkpt lat="41.836252" lon="3.085933">
        <ele>33.0</ele>
        <time>2019-01-14T02:00:34Z</time>
      </trkpt>
      <trkpt lat="41.836436" lon="3.086031">
        <ele>32.0</ele>
        <time>2019-01-14T02:00:37Z</time>
      </trkpt>
      <trkpt lat="41.836718" lon="3.086218">
        <ele>33.0</ele>
        <time>2019-01-14T02:00:42Z</time>
      </trkpt>
      <trkpt lat="41.836769" lon="3.086262">
        <ele>33.0</ele>
        <time>2019-01-14T02:00:43Z</time>
      </trkpt>
      <trkpt lat="41.836817" lon="3.086304">
        <ele>34.0</ele>
        <time>2019-01-14T02:00:44Z</time>
      </trkpt>
      <trkpt lat="41.836866" lon="3.086348">
        <ele>34.0</ele>
        <time>2019-01-14T02:00:45Z</time>
      </trkpt>
      <trkpt lat="41.836909" lon="3.086391">
        <ele>34.0</ele>
        <time>2019-01-14T02:00:46Z</time>
      </trkpt>
      <trkpt lat="41.836950" lon="3.086442">
        <ele>34.0</ele>
        <time>2019-01-14T02:00:47Z</time>
      </trkpt>
      <trkpt lat="41.836988" lon="3.086491">
        <ele>34.0</ele>
        <time>2019-01-14T02:00:47Z</time>
      </trkpt>
      <trkpt lat="41.837129" lon="3.086674">
        <ele>35.0</ele>
        <time>2019-01-14T02:00:51Z</time>
      </trkpt>
      <trkpt lat="41.837164" lon="3.086722">
        <ele>35.0</ele>
        <time>2019-01-14T02:00:51Z</time>
      </trkpt>
      <trkpt lat="41.837201" lon="3.086770">
        <ele>35.0</ele>
        <time>2019-01-14T02:00:52Z</time>
      </trkpt>
      <trkpt lat="41.837236" lon="3.086816">
        <ele>35.0</ele>
        <time>2019-01-14T02:00:53Z</time>
      </trkpt>
      <trkpt lat="41.837267" lon="3.086864">
        <ele>35.0</ele>
        <time>2019-01-14T02:00:54Z</time>
      </trkpt>
      <trkpt lat="41.837336" lon="3.086956">
        <ele>36.0</ele>
        <time>2019-01-14T02:00:55Z</time>
      </trkpt>
      <trkpt lat="41.837368" lon="3.087006">
        <ele>36.0</ele>
        <time>2019-01-14T02:00:56Z</time>
      </trkpt>
      <trkpt lat="41.837401" lon="3.087052">
        <ele>36.0</ele>
        <time>2019-01-14T02:00:57Z</time>
      </trkpt>
      <trkpt lat="41.837431" lon="3.087103">
        <ele>36.0</ele>
        <time>2019-01-14T02:00:58Z</time>
      </trkpt>
      <trkpt lat="41.837458" lon="3.087156">
        <ele>37.0</ele>
        <time>2019-01-14T02:00:58Z</time>
      </trkpt>
      <trkpt lat="41.837488" lon="3.087206">
        <ele>37.0</ele>
        <time>2019-01-14T02:00:59Z</time>
      </trkpt>
      <trkpt lat="41.837623" lon="3.087410">
        <ele>37.0</ele>
        <time>2019-01-14T02:01:02Z</time>
      </trkpt>
      <trkpt lat="41.837656" lon="3.087467">
        <ele>38.0</ele>
        <time>2019-01-14T02:01:03Z</time>
      </trkpt>
      <trkpt lat="41.837821" lon="3.087756">
        <ele>38.0</ele>
        <time>2019-01-14T02:01:08Z</time>
      </trkpt>
      <trkpt lat="41.837918" lon="3.087923">
        <ele>38.0</ele>
        <time>2019-01-14T02:01:10Z</time>
      </trkpt>
      <trkpt lat="41.837948" lon="3.087976">
        <ele>38.0</ele>
        <time>2019-01-14T02:01:11Z</time>
      </trkpt>
      <trkpt lat="41.837976" lon="3.088029">
        <ele>38.0</ele>
        <time>2019-01-14T02:01:12Z</time>
      </trkpt>
      <trkpt lat="41.838004" lon="3.088079">
        <ele>38.0</ele>
        <time>2019-01-14T02:01:12Z</time>
      </trkpt>
      <trkpt lat="41.838033" lon="3.088128">
        <ele>38.0</ele>
        <time>2019-01-14T02:01:13Z</time>
      </trkpt>
      <trkpt lat="41.838207" lon="3.088414">
        <ele>39.0</ele>
        <time>2019-01-14T02:01:18Z</time>
      </trkpt>
      <trkpt lat="41.838275" lon="3.088529">
        <ele>39.0</ele>
        <time>2019-01-14T02:01:19Z</time>
      </trkpt>
      <trkpt lat="41.838510" lon="3.088920">
        <ele>38.0</ele>
        <time>2019-01-14T02:01:25Z</time>
      </trkpt>
      <trkpt lat="41.838771" lon="3.089369">
        <ele>37.0</ele>
        <time>2019-01-14T02:01:32Z</time>
      </trkpt>
      <trkpt lat="41.838863" lon="3.089529">
        <ele>36.0</ele>
        <time>2019-01-14T02:01:35Z</time>
      </trkpt>
      <trkpt lat="41.838913" lon="3.089613">
        <ele>36.0</ele>
        <time>2019-01-14T02:01:36Z</time>
      </trkpt>
      <trkpt lat="41.838959" lon="3.089696">
        <ele>35.0</ele>
        <time>2019-01-14T02:01:37Z</time>
      </trkpt>
      <trkpt lat="41.839011" lon="3.089784">
        <ele>35.0</ele>
        <time>2019-01-14T02:01:38Z</time>
      </trkpt>
      <trkpt lat="41.839064" lon="3.089867">
        <ele>34.0</ele>
        <time>2019-01-14T02:01:40Z</time>
      </trkpt>
      <trkpt lat="41.839115" lon="3.089954">
        <ele>33.0</ele>
        <time>2019-01-14T02:01:41Z</time>
      </trkpt>
      <trkpt lat="41.839166" lon="3.090041">
        <ele>33.0</ele>
        <time>2019-01-14T02:01:42Z</time>
      </trkpt>
      <trkpt lat="41.839220" lon="3.090127">
        <ele>32.0</ele>
        <time>2019-01-14T02:01:44Z</time>
      </trkpt>
      <trkpt lat="41.839279" lon="3.090210">
        <ele>32.0</ele>
        <time>2019-01-14T02:01:45Z</time>
      </trkpt>
      <trkpt lat="41.839341" lon="3.090296">
        <ele>31.0</ele>
        <time>2019-01-14T02:01:47Z</time>
      </trkpt>
      <trkpt lat="41.839409" lon="3.090380">
        <ele>31.0</ele>
        <time>2019-01-14T02:01:48Z</time>
      </trkpt>
      <trkpt lat="41.839480" lon="3.090463">
        <ele>30.0</ele>
        <time>2019-01-14T02:01:50Z</time>
      </trkpt>
      <trkpt lat="41.839554" lon="3.090541">
        <ele>30.0</ele>
        <time>2019-01-14T02:01:51Z</time>
      </trkpt>
      <trkpt lat="41.839635" lon="3.090623">
        <ele>29.0</ele>
        <time>2019-01-14T02:01:53Z</time>
      </trkpt>
      <trkpt lat="41.839715" lon="3.090697">
        <ele>28.0</ele>
        <time>2019-01-14T02:01:54Z</time>
      </trkpt>
      <trkpt lat="41.839802" lon="3.090764">
        <ele>28.0</ele>
        <time>2019-01-14T02:01:56Z</time>
      </trkpt>
      <trkpt lat="41.839891" lon="3.090828">
        <ele>27.0</ele>
        <time>2019-01-14T02:01:57Z</time>
      </trkpt>
      <trkpt lat="41.839984" lon="3.090886">
        <ele>26.0</ele>
        <time>2019-01-14T02:01:59Z</time>
      </trkpt>
      <trkpt lat="41.840080" lon="3.090938">
        <ele>25.0</ele>
        <time>2019-01-14T02:02:01Z</time>
      </trkpt>
      <trkpt lat="41.840184" lon="3.090978">
        <ele>24.0</ele>
        <time>2019-01-14T02:02:02Z</time>
      </trkpt>
      <trkpt lat="41.840290" lon="3.091019">
        <ele>24.0</ele>
        <time>2019-01-14T02:02:04Z</time>
      </trkpt>
      <trkpt lat="41.840404" lon="3.091054">
        <ele>23.0</ele>
        <time>2019-01-14T02:02:06Z</time>
      </trkpt>
      <trkpt lat="41.840512" lon="3.091083">
        <ele>22.0</ele>
        <time>2019-01-14T02:02:08Z</time>
      </trkpt>
      <trkpt lat="41.840622" lon="3.091103">
        <ele>21.0</ele>
        <time>2019-01-14T02:02:10Z</time>
      </trkpt>
      <trkpt lat="41.840734" lon="3.091114">
        <ele>20.0</ele>
        <time>2019-01-14T02:02:11Z</time>
      </trkpt>
      <trkpt lat="41.840848" lon="3.091124">
        <ele>20.0</ele>
        <time>2019-01-14T02:02:13Z</time>
      </trkpt>
      <trkpt lat="41.840960" lon="3.091127">
        <ele>19.0</ele>
        <time>2019-01-14T02:02:15Z</time>
      </trkpt>
      <trkpt lat="41.841078" lon="3.091126">
        <ele>18.0</ele>
        <time>2019-01-14T02:02:17Z</time>
      </trkpt>
      <trkpt lat="41.841199" lon="3.091121">
        <ele>17.0</ele>
        <time>2019-01-14T02:02:19Z</time>
      </trkpt>
      <trkpt lat="41.841315" lon="3.091117">
        <ele>17.0</ele>
        <time>2019-01-14T02:02:21Z</time>
      </trkpt>
      <trkpt lat="41.841435" lon="3.091110">
        <ele>16.0</ele>
        <time>2019-01-14T02:02:23Z</time>
      </trkpt>
      <trkpt lat="41.841550" lon="3.091104">
        <ele>15.0</ele>
        <time>2019-01-14T02:02:24Z</time>
      </trkpt>
      <trkpt lat="41.841666" lon="3.091098">
        <ele>14.0</ele>
        <time>2019-01-14T02:02:26Z</time>
      </trkpt>
      <trkpt lat="41.841784" lon="3.091097">
        <ele>13.0</ele>
        <time>2019-01-14T02:02:28Z</time>
      </trkpt>
      <trkpt lat="41.841906" lon="3.091104">
        <ele>12.0</ele>
        <time>2019-01-14T02:02:30Z</time>
      </trkpt>
      <trkpt lat="41.842027" lon="3.091109">
        <ele>11.0</ele>
        <time>2019-01-14T02:02:32Z</time>
      </trkpt>
      <trkpt lat="41.842147" lon="3.091124">
        <ele>10.0</ele>
        <time>2019-01-14T02:02:34Z</time>
      </trkpt>
      <trkpt lat="41.842270" lon="3.091158">
        <ele>10.0</ele>
        <time>2019-01-14T02:02:36Z</time>
      </trkpt>
      <trkpt lat="41.842380" lon="3.091224">
        <ele>9.0</ele>
        <time>2019-01-14T02:02:38Z</time>
      </trkpt>
      <trkpt lat="41.842477" lon="3.091309">
        <ele>8.0</ele>
        <time>2019-01-14T02:02:40Z</time>
      </trkpt>
      <trkpt lat="41.842565" lon="3.091415">
        <ele>8.0</ele>
        <time>2019-01-14T02:02:42Z</time>
      </trkpt>
      <trkpt lat="41.842645" lon="3.091528">
        <ele>7.0</ele>
        <time>2019-01-14T02:02:44Z</time>
      </trkpt>
      <trkpt lat="41.842722" lon="3.091642">
        <ele>7.0</ele>
        <time>2019-01-14T02:02:45Z</time>
      </trkpt>
      <trkpt lat="41.842800" lon="3.091756">
        <ele>6.0</ele>
        <time>2019-01-14T02:02:47Z</time>
      </trkpt>
      <trkpt lat="41.842876" lon="3.091875">
        <ele>6.0</ele>
        <time>2019-01-14T02:02:49Z</time>
      </trkpt>
      <trkpt lat="41.842946" lon="3.091982">
        <ele>5.0</ele>
        <time>2019-01-14T02:02:51Z</time>
      </trkpt>
      <trkpt lat="41.843018" lon="3.092086">
        <ele>5.0</ele>
        <time>2019-01-14T02:02:53Z</time>
      </trkpt>
      <trkpt lat="41.843088" lon="3.092189">
        <ele>5.0</ele>
        <time>2019-01-14T02:02:54Z</time>
      </trkpt>
      <trkpt lat="41.843158" lon="3.092290">
        <ele>4.0</ele>
        <time>2019-01-14T02:02:56Z</time>
      </trkpt>
      <trkpt lat="41.843423" lon="3.092681">
        <ele>5.0</ele>
        <time>2019-01-14T02:03:02Z</time>
      </trkpt>
      <trkpt lat="41.843484" lon="3.092769">
        <ele>5.0</ele>
        <time>2019-01-14T02:03:04Z</time>
      </trkpt>
      <trkpt lat="41.843546" lon="3.092860">
        <ele>5.0</ele>
        <time>2019-01-14T02:03:05Z</time>
      </trkpt>
      <trkpt lat="41.843607" lon="3.092951">
        <ele>5.0</ele>
        <time>2019-01-14T02:03:07Z</time>
      </trkpt>
      <trkpt lat="41.843666" lon="3.093041">
        <ele>5.0</ele>
        <time>2019-01-14T02:03:08Z</time>
      </trkpt>
      <trkpt lat="41.843788" lon="3.093224">
        <ele>5.0</ele>
        <time>2019-01-14T02:03:11Z</time>
      </trkpt>
      <trkpt lat="41.843905" lon="3.093395">
        <ele>5.0</ele>
        <time>2019-01-14T02:03:14Z</time>
      </trkpt>
      <trkpt lat="41.843961" lon="3.093476">
        <ele>5.0</ele>
        <time>2019-01-14T02:03:15Z</time>
      </trkpt>
      <trkpt lat="41.844015" lon="3.093554">
        <ele>5.0</ele>
        <time>2019-01-14T02:03:16Z</time>
      </trkpt>
      <trkpt lat="41.844066" lon="3.093636">
        <ele>5.0</ele>
        <time>2019-01-14T02:03:18Z</time>
      </trkpt>
      <trkpt lat="41.844120" lon="3.093709">
        <ele>6.0</ele>
        <time>2019-01-14T02:03:19Z</time>
      </trkpt>
      <trkpt lat="41.844170" lon="3.093785">
        <ele>6.0</ele>
        <time>2019-01-14T02:03:20Z</time>
      </trkpt>
      <trkpt lat="41.844225" lon="3.093873">
        <ele>6.0</ele>
        <time>2019-01-14T02:03:21Z</time>
      </trkpt>
      <trkpt lat="41.844273" lon="3.093954">
        <ele>6.0</ele>
        <time>2019-01-14T02:03:23Z</time>
      </trkpt>
      <trkpt lat="41.844324" lon="3.094031">
        <ele>6.0</ele>
        <time>2019-01-14T02:03:24Z</time>
      </trkpt>
      <trkpt lat="41.844377" lon="3.094109">
        <ele>6.0</ele>
        <time>2019-01-14T02:03:25Z</time>
      </trkpt>
      <trkpt lat="41.844428" lon="3.094185">
        <ele>6.0</ele>
        <time>2019-01-14T02:03:26Z</time>
      </trkpt>
      <trkpt lat="41.844480" lon="3.094259">
        <ele>7.0</ele>
        <time>2019-01-14T02:03:27Z</time>
      </trkpt>
      <trkpt lat="41.844787" lon="3.094690">
        <ele>8.0</ele>
        <time>2019-01-14T02:03:35Z</time>
      </trkpt>
      <trkpt lat="41.845085" lon="3.095206">
        <ele>8.0</ele>
        <time>2019-01-14T02:03:42Z</time>
      </trkpt>
      <trkpt lat="41.845127" lon="3.095345">
        <ele>8.0</ele>
        <time>2019-01-14T02:03:44Z</time>
      </trkpt>
      <trkpt lat="41.845135" lon="3.095487">
        <ele>7.0</ele>
        <time>2019-01-14T02:03:46Z</time>
      </trkpt>
      <trkpt lat="41.845149" lon="3.095625">
        <ele>7.0</ele>
        <time>2019-01-14T02:03:48Z</time>
      </trkpt>
      <trkpt lat="41.845206" lon="3.095748">
        <ele>7.0</ele>
        <time>2019-01-14T02:03:49Z</time>
      </trkpt>
      <trkpt lat="41.845366" lon="3.095874">
        <ele>7.0</ele>
        <time>2019-01-14T02:03:52Z</time>
      </trkpt>
      <trkpt lat="41.845523" lon="3.096073">
        <ele>7.0</ele>
        <time>2019-01-14T02:03:56Z</time>
      </trkpt>
      <trkpt lat="41.845613" lon="3.096321">
        <ele>7.0</ele>
        <time>2019-01-14T02:03:59Z</time>
      </trkpt>
      <trkpt lat="41.845643" lon="3.096402">
        <ele>6.0</ele>
        <time>2019-01-14T02:04:00Z</time>
      </trkpt>
      <trkpt lat="41.845666" lon="3.096483">
        <ele>6.0</ele>
        <time>2019-01-14T02:04:01Z</time>
      </trkpt>
      <trkpt lat="41.845698" lon="3.096565">
        <ele>6.0</ele>
        <time>2019-01-14T02:04:02Z</time>
      </trkpt>
      <trkpt lat="41.845726" lon="3.096643">
        <ele>6.0</ele>
        <time>2019-01-14T02:04:03Z</time>
      </trkpt>
      <trkpt lat="41.845779" lon="3.096804">
        <ele>6.0</ele>
        <time>2019-01-14T02:04:05Z</time>
      </trkpt>
      <trkpt lat="41.845806" lon="3.096887">
        <ele>6.0</ele>
        <time>2019-01-14T02:04:06Z</time>
      </trkpt>
      <trkpt lat="41.845834" lon="3.096970">
        <ele>6.0</ele>
        <time>2019-01-14T02:04:07Z</time>
      </trkpt>
      <trkpt lat="41.845862" lon="3.097053">
        <ele>6.0</ele>
        <time>2019-01-14T02:04:09Z</time>
      </trkpt>
      <trkpt lat="41.845888" lon="3.097142">
        <ele>6.0</ele>
        <time>2019-01-14T02:04:10Z</time>
      </trkpt>
      <trkpt lat="41.845912" lon="3.097225">
        <ele>6.0</ele>
        <time>2019-01-14T02:04:11Z</time>
      </trkpt>
      <trkpt lat="41.846022" lon="3.097572">
        <ele>6.0</ele>
        <time>2019-01-14T02:04:15Z</time>
      </trkpt>
      <trkpt lat="41.846208" lon="3.098158">
        <ele>6.0</ele>
        <time>2019-01-14T02:04:23Z</time>
      </trkpt>
      <trkpt lat="41.846416" lon="3.098807">
        <ele>7.0</ele>
        <time>2019-01-14T02:04:31Z</time>
      </trkpt>
      <trkpt lat="41.846443" lon="3.099070">
        <ele>7.0</ele>
        <time>2019-01-14T02:04:34Z</time>
      </trkpt>
      <trkpt lat="41.846560" lon="3.099284">
        <ele>7.0</ele>
        <time>2019-01-14T02:04:38Z</time>
      </trkpt>
      <trkpt lat="41.846616" lon="3.099446">
        <ele>7.0</ele>
        <time>2019-01-14T02:04:40Z</time>
      </trkpt>
      <trkpt lat="41.846727" lon="3.099781">
        <ele>6.0</ele>
        <time>2019-01-14T02:04:44Z</time>
      </trkpt>
      <trkpt lat="41.846949" lon="3.100460">
        <ele>6.0</ele>
        <time>2019-01-14T02:04:53Z</time>
      </trkpt>
      <trkpt lat="41.847161" lon="3.101109">
        <ele>6.0</ele>
        <time>2019-01-14T02:05:01Z</time>
      </trkpt>
      <trkpt lat="41.847374" lon="3.101771">
        <ele>6.0</ele>
        <time>2019-01-14T02:05:10Z</time>
      </trkpt>
      <trkpt lat="41.847539" lon="3.102277">
        <ele>5.0</ele>
        <time>2019-01-14T02:05:17Z</time>
      </trkpt>
      <trkpt lat="41.847567" lon="3.102359">
        <ele>5.0</ele>
        <time>2019-01-14T02:05:18Z</time>
      </trkpt>
      <trkpt lat="41.847699" lon="3.102782">
        <ele>5.0</ele>
        <time>2019-01-14T02:05:23Z</time>
      </trkpt>
      <trkpt lat="41.847751" lon="3.102948">
        <ele>5.0</ele>
        <time>2019-01-14T02:05:25Z</time>
      </trkpt>
      <trkpt lat="41.847778" lon="3.103030">
        <ele>5.0</ele>
        <time>2019-01-14T02:05:26Z</time>
      </trkpt>
      <trkpt lat="41.847807" lon="3.103111">
        <ele>5.0</ele>
        <time>2019-01-14T02:05:27Z</time>
      </trkpt>
      <trkpt lat="41.847832" lon="3.103193">
        <ele>5.0</ele>
        <time>2019-01-14T02:05:28Z</time>
      </trkpt>
      <trkpt lat="41.847858" lon="3.103273">
        <ele>5.0</ele>
        <time>2019-01-14T02:05:30Z</time>
      </trkpt>
      <trkpt lat="41.847942" lon="3.103530">
        <ele>5.0</ele>
        <time>2019-01-14T02:05:33Z</time>
      </trkpt>
      <trkpt lat="41.848101" lon="3.104032">
        <ele>4.0</ele>
        <time>2019-01-14T02:05:39Z</time>
      </trkpt>
      <trkpt lat="41.848178" lon="3.104276">
        <ele>4.0</ele>
        <time>2019-01-14T02:05:43Z</time>
      </trkpt>
      <trkpt lat="41.848293" lon="3.104629">
        <ele>4.0</ele>
        <time>2019-01-14T02:05:47Z</time>
      </trkpt>
      <trkpt lat="41.848310" lon="3.104688">
        <ele>4.0</ele>
        <time>2019-01-14T02:05:48Z</time>
      </trkpt>
      <trkpt lat="41.848327" lon="3.104733">
        <ele>4.0</ele>
        <time>2019-01-14T02:05:48Z</time>
      </trkpt>
      <trkpt lat="41.848332" lon="3.104757">
        <ele>4.0</ele>
        <time>2019-01-14T02:05:49Z</time>
      </trkpt>
      <trkpt lat="41.848336" lon="3.104765">
        <ele>4.0</ele>
        <time>2019-01-14T02:05:49Z</time>
      </trkpt>
      <trkpt lat="41.848334" lon="3.104818">
        <ele>4.0</ele>
        <time>2019-01-14T02:05:50Z</time>
      </trkpt>
      <trkpt lat="41.848353" lon="3.104851">
        <ele>4.0</ele>
        <time>2019-01-14T02:05:50Z</time>
      </trkpt>
      <trkpt lat="41.848437" lon="3.105016">
        <ele>4.0</ele>
        <time>2019-01-14T02:05:52Z</time>
      </trkpt>
      <trkpt lat="41.848474" lon="3.105133">
        <ele>4.0</ele>
        <time>2019-01-14T02:05:54Z</time>
      </trkpt>
      <trkpt lat="41.848542" lon="3.105330">
        <ele>3.0</ele>
        <time>2019-01-14T02:05:57Z</time>
      </trkpt>
      <trkpt lat="41.848573" lon="3.105396">
        <ele>3.0</ele>
        <time>2019-01-14T02:05:57Z</time>
      </trkpt>
      <trkpt lat="41.848680" lon="3.105710">
        <ele>3.0</ele>
        <time>2019-01-14T02:06:02Z</time>
      </trkpt>
      <trkpt lat="41.848857" lon="3.106289">
        <ele>3.0</ele>
        <time>2019-01-14T02:06:09Z</time>
      </trkpt>
      <trkpt lat="41.849044" lon="3.106865">
        <ele>3.0</ele>
        <time>2019-01-14T02:06:17Z</time>
      </trkpt>
      <trkpt lat="41.849248" lon="3.107512">
        <ele>5.0</ele>
        <time>2019-01-14T02:06:25Z</time>
      </trkpt>
      <trkpt lat="41.849425" lon="3.108086">
        <ele>6.0</ele>
        <time>2019-01-14T02:06:32Z</time>
      </trkpt>
      <trkpt lat="41.849525" lon="3.108591">
        <ele>7.0</ele>
        <time>2019-01-14T02:06:39Z</time>
      </trkpt>
      <trkpt lat="41.849516" lon="3.109030">
        <ele>7.0</ele>
        <time>2019-01-14T02:06:44Z</time>
      </trkpt>
      <trkpt lat="41.849478" lon="3.109529">
        <ele>8.0</ele>
        <time>2019-01-14T02:06:50Z</time>
      </trkpt>
      <trkpt lat="41.849466" lon="3.109737">
        <ele>8.0</ele>
        <time>2019-01-14T02:06:52Z</time>
      </trkpt>
      <trkpt lat="41.849457" lon="3.109918">
        <ele>8.0</ele>
        <time>2019-01-14T02:06:54Z</time>
      </trkpt>
      <trkpt lat="41.849451" lon="3.109973">
        <ele>8.0</ele>
        <time>2019-01-14T02:06:55Z</time>
      </trkpt>
      <trkpt lat="41.849445" lon="3.110170">
        <ele>8.0</ele>
        <time>2019-01-14T02:06:57Z</time>
      </trkpt>
      <trkpt lat="41.849402" lon="3.110379">
        <ele>8.0</ele>
        <time>2019-01-14T02:07:00Z</time>
      </trkpt>
      <trkpt lat="41.849397" lon="3.110442">
        <ele>8.0</ele>
        <time>2019-01-14T02:07:01Z</time>
      </trkpt>
      <trkpt lat="41.849397" lon="3.110500">
        <ele>9.0</ele>
        <time>2019-01-14T02:07:01Z</time>
      </trkpt>
      <trkpt lat="41.849381" lon="3.110685">
        <ele>9.0</ele>
        <time>2019-01-14T02:07:04Z</time>
      </trkpt>
      <trkpt lat="41.849370" lon="3.111078">
        <ele>10.0</ele>
        <time>2019-01-14T02:07:08Z</time>
      </trkpt>
      <trkpt lat="41.849327" lon="3.111514">
        <ele>11.0</ele>
        <time>2019-01-14T02:07:14Z</time>
      </trkpt>
      <trkpt lat="41.849264" lon="3.112007">
        <ele>11.0</ele>
        <time>2019-01-14T02:07:20Z</time>
      </trkpt>
      <trkpt lat="41.849198" lon="3.112547">
        <ele>10.0</ele>
        <time>2019-01-14T02:07:26Z</time>
      </trkpt>
      <trkpt lat="41.849193" lon="3.112622">
        <ele>9.0</ele>
        <time>2019-01-14T02:07:27Z</time>
      </trkpt>
      <trkpt lat="41.849171" lon="3.112955">
        <ele>8.0</ele>
        <time>2019-01-14T02:07:31Z</time>
      </trkpt>
      <trkpt lat="41.849171" lon="3.113007">
        <ele>8.0</ele>
        <time>2019-01-14T02:07:32Z</time>
      </trkpt>
      <trkpt lat="41.849180" lon="3.113210">
        <ele>8.0</ele>
        <time>2019-01-14T02:07:34Z</time>
      </trkpt>
      <trkpt lat="41.849198" lon="3.113283">
        <ele>8.0</ele>
        <time>2019-01-14T02:07:35Z</time>
      </trkpt>
      <trkpt lat="41.849244" lon="3.113422">
        <ele>7.0</ele>
        <time>2019-01-14T02:07:37Z</time>
      </trkpt>
      <trkpt lat="41.849431" lon="3.113660">
        <ele>8.0</ele>
        <time>2019-01-14T02:07:41Z</time>
      </trkpt>
      <trkpt lat="41.849794" lon="3.113813">
        <ele>9.0</ele>
        <time>2019-01-14T02:07:47Z</time>
      </trkpt>
      <trkpt lat="41.850243" lon="3.113899">
        <ele>7.0</ele>
        <time>2019-01-14T02:07:54Z</time>
      </trkpt>
      <trkpt lat="41.850628" lon="3.114128">
        <ele>7.0</ele>
        <time>2019-01-14T02:08:01Z</time>
      </trkpt>
      <trkpt lat="41.851005" lon="3.114530">
        <ele>5.0</ele>
        <time>2019-01-14T02:08:09Z</time>
      </trkpt>
      <trkpt lat="41.851283" lon="3.114855">
        <ele>5.0</ele>
        <time>2019-01-14T02:08:15Z</time>
      </trkpt>
      <trkpt lat="41.851675" lon="3.115352">
        <ele>5.0</ele>
        <time>2019-01-14T02:08:23Z</time>
      </trkpt>
      <trkpt lat="41.852009" lon="3.115773">
        <ele>5.0</ele>
        <time>2019-01-14T02:08:31Z</time>
      </trkpt>
      <trkpt lat="41.852252" lon="3.116088">
        <ele>4.0</ele>
        <time>2019-01-14T02:08:36Z</time>
      </trkpt>
      <trkpt lat="41.852508" lon="3.116165">
        <ele>5.0</ele>
        <time>2019-01-14T02:08:40Z</time>
      </trkpt>
      <trkpt lat="41.852546" lon="3.116335">
        <ele>5.0</ele>
        <time>2019-01-14T02:08:42Z</time>
      </trkpt>
      <trkpt lat="41.852654" lon="3.116413">
        <ele>5.0</ele>
        <time>2019-01-14T02:08:44Z</time>
      </trkpt>
      <trkpt lat="41.852803" lon="3.116370">
        <ele>5.0</ele>
        <time>2019-01-14T02:08:47Z</time>
      </trkpt>
      <trkpt lat="41.852896" lon="3.116369">
        <ele>6.0</ele>
        <time>2019-01-14T02:08:48Z</time>
      </trkpt>
      <trkpt lat="41.852926" lon="3.116383">
        <ele>6.0</ele>
        <time>2019-01-14T02:08:49Z</time>
      </trkpt>
      <trkpt lat="41.853045" lon="3.116439">
        <ele>6.0</ele>
        <time>2019-01-14T02:08:51Z</time>
      </trkpt>
      <trkpt lat="41.853096" lon="3.116533">
        <ele>6.0</ele>
        <time>2019-01-14T02:08:52Z</time>
      </trkpt>
      <trkpt lat="41.853108" lon="3.116679">
        <ele>6.0</ele>
        <time>2019-01-14T02:08:54Z</time>
      </trkpt>
      <trkpt lat="41.853112" lon="3.116836">
        <ele>6.0</ele>
        <time>2019-01-14T02:08:56Z</time>
      </trkpt>
      <trkpt lat="41.853154" lon="3.116941">
        <ele>6.0</ele>
        <time>2019-01-14T02:08:57Z</time>
      </trkpt>
      <trkpt lat="41.853225" lon="3.117009">
        <ele>6.0</ele>
        <time>2019-01-14T02:08:59Z</time>
      </trkpt>
      <trkpt lat="41.853279" lon="3.117098">
        <ele>6.0</ele>
        <time>2019-01-14T02:09:00Z</time>
      </trkpt>
      <trkpt lat="41.853338" lon="3.117187">
        <ele>5.0</ele>
        <time>2019-01-14T02:09:01Z</time>
      </trkpt>
      <trkpt lat="41.853392" lon="3.117276">
        <ele>5.0</ele>
        <time>2019-01-14T02:09:03Z</time>
      </trkpt>
      <trkpt lat="41.853466" lon="3.117339">
        <ele>5.0</ele>
        <time>2019-01-14T02:09:04Z</time>
      </trkpt>
      <trkpt lat="41.853462" lon="3.117334">
        <ele>5.0</ele>
        <time>2019-01-14T02:09:04Z</time>
      </trkpt>
      <trkpt lat="41.853521" lon="3.117423">
        <ele>6.0</ele>
        <time>2019-01-14T02:09:06Z</time>
      </trkpt>
      <trkpt lat="41.853579" lon="3.117522">
        <ele>6.0</ele>
        <time>2019-01-14T02:09:07Z</time>
      </trkpt>
      <trkpt lat="41.853650" lon="3.117595">
        <ele>6.0</ele>
        <time>2019-01-14T02:09:09Z</time>
      </trkpt>
      <trkpt lat="41.853708" lon="3.117684">
        <ele>6.0</ele>
        <time>2019-01-14T02:09:10Z</time>
      </trkpt>
      <trkpt lat="41.853766" lon="3.117773">
        <ele>6.0</ele>
        <time>2019-01-14T02:09:11Z</time>
      </trkpt>
      <trkpt lat="41.853833" lon="3.117852">
        <ele>6.0</ele>
        <time>2019-01-14T02:09:13Z</time>
      </trkpt>
      <trkpt lat="41.853907" lon="3.117925">
        <ele>6.0</ele>
        <time>2019-01-14T02:09:14Z</time>
      </trkpt>
      <trkpt lat="41.853973" lon="3.118003">
        <ele>6.0</ele>
        <time>2019-01-14T02:09:16Z</time>
      </trkpt>
      <trkpt lat="41.854043" lon="3.118077">
        <ele>6.0</ele>
        <time>2019-01-14T02:09:17Z</time>
      </trkpt>
      <trkpt lat="41.854125" lon="3.118129">
        <ele>6.0</ele>
        <time>2019-01-14T02:09:19Z</time>
      </trkpt>
      <trkpt lat="41.854191" lon="3.118202">
        <ele>6.0</ele>
        <time>2019-01-14T02:09:20Z</time>
      </trkpt>
      <trkpt lat="41.854262" lon="3.118276">
        <ele>6.0</ele>
        <time>2019-01-14T02:09:21Z</time>
      </trkpt>
      <trkpt lat="41.854308" lon="3.118375">
        <ele>6.0</ele>
        <time>2019-01-14T02:09:23Z</time>
      </trkpt>
      <trkpt lat="41.854363" lon="3.118469">
        <ele>6.0</ele>
        <time>2019-01-14T02:09:24Z</time>
      </trkpt>
      <trkpt lat="41.854429" lon="3.118543">
        <ele>6.0</ele>
        <time>2019-01-14T02:09:26Z</time>
      </trkpt>
      <trkpt lat="41.854484" lon="3.118632">
        <ele>6.0</ele>
        <time>2019-01-14T02:09:27Z</time>
      </trkpt>
      <trkpt lat="41.854507" lon="3.118762">
        <ele>6.0</ele>
        <time>2019-01-14T02:09:29Z</time>
      </trkpt>
      <trkpt lat="41.854554" lon="3.118862">
        <ele>6.0</ele>
        <time>2019-01-14T02:09:30Z</time>
      </trkpt>
      <trkpt lat="41.854609" lon="3.118909">
        <ele>6.0</ele>
        <time>2019-01-14T02:09:31Z</time>
      </trkpt>
      <trkpt lat="41.854659" lon="3.118872">
        <ele>6.0</ele>
        <time>2019-01-14T02:09:32Z</time>
      </trkpt>
      <trkpt lat="41.854741" lon="3.118925">
        <ele>6.0</ele>
        <time>2019-01-14T02:09:33Z</time>
      </trkpt>
      <trkpt lat="41.854796" lon="3.119047">
        <ele>6.0</ele>
        <time>2019-01-14T02:09:35Z</time>
      </trkpt>
      <trkpt lat="41.854975" lon="3.119303">
        <ele>6.0</ele>
        <time>2019-01-14T02:09:39Z</time>
      </trkpt>
      <trkpt lat="41.855142" lon="3.119575">
        <ele>7.0</ele>
        <time>2019-01-14T02:09:43Z</time>
      </trkpt>
      <trkpt lat="41.855344" lon="3.119799">
        <ele>7.0</ele>
        <time>2019-01-14T02:09:48Z</time>
      </trkpt>
      <trkpt lat="41.855546" lon="3.120023">
        <ele>7.0</ele>
        <time>2019-01-14T02:09:52Z</time>
      </trkpt>
      <trkpt lat="41.855785" lon="3.120198">
        <ele>6.0</ele>
        <time>2019-01-14T02:09:56Z</time>
      </trkpt>
      <trkpt lat="41.856059" lon="3.120326">
        <ele>7.0</ele>
        <time>2019-01-14T02:10:01Z</time>
      </trkpt>
      <trkpt lat="41.856368" lon="3.120406">
        <ele>6.0</ele>
        <time>2019-01-14T02:10:06Z</time>
      </trkpt>
      <trkpt lat="41.856499" lon="3.120726">
        <ele>6.0</ele>
        <time>2019-01-14T02:10:10Z</time>
      </trkpt>
      <trkpt lat="41.856714" lon="3.120934">
        <ele>6.0</ele>
        <time>2019-01-14T02:10:14Z</time>
      </trkpt>
      <trkpt lat="41.856988" lon="3.120806">
        <ele>7.0</ele>
        <time>2019-01-14T02:10:19Z</time>
      </trkpt>
      <trkpt lat="41.857154" lon="3.120534">
        <ele>8.0</ele>
        <time>2019-01-14T02:10:23Z</time>
      </trkpt>
      <trkpt lat="41.857452" lon="3.120438">
        <ele>8.0</ele>
        <time>2019-01-14T02:10:28Z</time>
      </trkpt>
      <trkpt lat="41.857445" lon="3.120426">
        <ele>8.0</ele>
        <time>2019-01-14T02:10:28Z</time>
      </trkpt>
      <trkpt lat="41.857590" lon="3.120420">
        <ele>8.0</ele>
        <time>2019-01-14T02:10:31Z</time>
      </trkpt>
      <trkpt lat="41.857755" lon="3.120435">
        <ele>8.0</ele>
        <time>2019-01-14T02:10:33Z</time>
      </trkpt>
      <trkpt lat="41.857920" lon="3.120442">
        <ele>9.0</ele>
        <time>2019-01-14T02:10:36Z</time>
      </trkpt>
      <trkpt lat="41.858085" lon="3.120449">
        <ele>9.0</ele>
        <time>2019-01-14T02:10:39Z</time>
      </trkpt>
      <trkpt lat="41.858261" lon="3.120449">
        <ele>9.0</ele>
        <time>2019-01-14T02:10:41Z</time>
      </trkpt>
      <trkpt lat="41.858432" lon="3.120457">
        <ele>8.0</ele>
        <time>2019-01-14T02:10:44Z</time>
      </trkpt>
      <trkpt lat="41.858608" lon="3.120449">
        <ele>8.0</ele>
        <time>2019-01-14T02:10:47Z</time>
      </trkpt>
      <trkpt lat="41.858767" lon="3.120464">
        <ele>8.0</ele>
        <time>2019-01-14T02:10:50Z</time>
      </trkpt>
      <trkpt lat="41.858927" lon="3.120479">
        <ele>8.0</ele>
        <time>2019-01-14T02:10:52Z</time>
      </trkpt>
      <trkpt lat="41.859054" lon="3.120607">
        <ele>8.0</ele>
        <time>2019-01-14T02:10:55Z</time>
      </trkpt>
      <trkpt lat="41.859123" lon="3.120738">
        <ele>7.0</ele>
        <time>2019-01-14T02:10:57Z</time>
      </trkpt>
      <trkpt lat="41.859220" lon="3.120818">
        <ele>7.0</ele>
        <time>2019-01-14T02:10:58Z</time>
      </trkpt>
      <trkpt lat="41.859396" lon="3.120818">
        <ele>8.0</ele>
        <time>2019-01-14T02:11:01Z</time>
      </trkpt>
      <trkpt lat="41.859443" lon="3.121016">
        <ele>7.0</ele>
        <time>2019-01-14T02:11:04Z</time>
      </trkpt>
      <trkpt lat="41.859340" lon="3.121155">
        <ele>6.0</ele>
        <time>2019-01-14T02:11:06Z</time>
      </trkpt>
      <trkpt lat="41.859134" lon="3.121235">
        <ele>6.0</ele>
        <time>2019-01-14T02:11:09Z</time>
      </trkpt>
      <trkpt lat="41.858970" lon="3.121385">
        <ele>5.0</ele>
        <time>2019-01-14T02:11:13Z</time>
      </trkpt>
      <trkpt lat="41.858893" lon="3.121639">
        <ele>5.0</ele>
        <time>2019-01-14T02:11:16Z</time>
      </trkpt>
      <trkpt lat="41.858816" lon="3.121893">
        <ele>5.0</ele>
        <time>2019-01-14T02:11:19Z</time>
      </trkpt>
      <trkpt lat="41.858807" lon="3.122251">
        <ele>5.0</ele>
        <time>2019-01-14T02:11:23Z</time>
      </trkpt>
      <trkpt lat="41.858876" lon="3.122517">
        <ele>5.0</ele>
        <time>2019-01-14T02:11:27Z</time>
      </trkpt>
      <trkpt lat="41.858936" lon="3.122794">
        <ele>5.0</ele>
        <time>2019-01-14T02:11:30Z</time>
      </trkpt>
      <trkpt lat="41.859005" lon="3.123059">
        <ele>6.0</ele>
        <time>2019-01-14T02:11:34Z</time>
      </trkpt>
      <trkpt lat="41.859108" lon="3.123279">
        <ele>6.0</ele>
        <time>2019-01-14T02:11:37Z</time>
      </trkpt>
      <trkpt lat="41.859220" lon="3.123486">
        <ele>6.0</ele>
        <time>2019-01-14T02:11:40Z</time>
      </trkpt>
      <trkpt lat="41.859340" lon="3.123682">
        <ele>6.0</ele>
        <time>2019-01-14T02:11:43Z</time>
      </trkpt>
      <trkpt lat="41.859452" lon="3.123890">
        <ele>6.0</ele>
        <time>2019-01-14T02:11:46Z</time>
      </trkpt>
      <trkpt lat="41.859598" lon="3.124075">
        <ele>6.0</ele>
        <time>2019-01-14T02:11:49Z</time>
      </trkpt>
      <trkpt lat="41.859701" lon="3.124306">
        <ele>6.0</ele>
        <time>2019-01-14T02:11:52Z</time>
      </trkpt>
      <trkpt lat="41.859787" lon="3.124548">
        <ele>6.0</ele>
        <time>2019-01-14T02:11:55Z</time>
      </trkpt>
      <trkpt lat="41.859899" lon="3.124756">
        <ele>7.0</ele>
        <time>2019-01-14T02:11:59Z</time>
      </trkpt>
      <trkpt lat="41.860019" lon="3.124952">
        <ele>7.0</ele>
        <time>2019-01-14T02:12:02Z</time>
      </trkpt>
      <trkpt lat="41.860140" lon="3.125160">
        <ele>7.0</ele>
        <time>2019-01-14T02:12:05Z</time>
      </trkpt>
      <trkpt lat="41.860260" lon="3.125368">
        <ele>7.0</ele>
        <time>2019-01-14T02:12:08Z</time>
      </trkpt>
      <trkpt lat="41.860372" lon="3.125587">
        <ele>7.0</ele>
        <time>2019-01-14T02:12:11Z</time>
      </trkpt>
      <trkpt lat="41.860492" lon="3.125795">
        <ele>7.0</ele>
        <time>2019-01-14T02:12:14Z</time>
      </trkpt>
      <trkpt lat="41.860604" lon="3.126014">
        <ele>7.0</ele>
        <time>2019-01-14T02:12:17Z</time>
      </trkpt>
      <trkpt lat="41.860707" lon="3.126233">
        <ele>7.0</ele>
        <time>2019-01-14T02:12:20Z</time>
      </trkpt>
      <trkpt lat="41.860810" lon="3.126453">
        <ele>8.0</ele>
        <time>2019-01-14T02:12:24Z</time>
      </trkpt>
      <trkpt lat="41.860939" lon="3.126637">
        <ele>8.0</ele>
        <time>2019-01-14T02:12:27Z</time>
      </trkpt>
      <trkpt lat="41.861068" lon="3.126834">
        <ele>8.0</ele>
        <time>2019-01-14T02:12:30Z</time>
      </trkpt>
      <trkpt lat="41.861163" lon="3.127064">
        <ele>8.0</ele>
        <time>2019-01-14T02:12:33Z</time>
      </trkpt>
      <trkpt lat="41.861266" lon="3.127295">
        <ele>9.0</ele>
        <time>2019-01-14T02:12:36Z</time>
      </trkpt>
      <trkpt lat="41.861386" lon="3.127492">
        <ele>9.0</ele>
        <time>2019-01-14T02:12:39Z</time>
      </trkpt>
      <trkpt lat="41.861506" lon="3.127688">
        <ele>9.0</ele>
        <time>2019-01-14T02:12:42Z</time>
      </trkpt>
      <trkpt lat="41.861644" lon="3.127861">
        <ele>9.0</ele>
        <time>2019-01-14T02:12:45Z</time>
      </trkpt>
      <trkpt lat="41.861764" lon="3.128057">
        <ele>9.0</ele>
        <time>2019-01-14T02:12:48Z</time>
      </trkpt>
      <trkpt lat="41.861859" lon="3.128288">
        <ele>9.0</ele>
        <time>2019-01-14T02:12:51Z</time>
      </trkpt>
      <trkpt lat="41.861971" lon="3.128507">
        <ele>9.0</ele>
        <time>2019-01-14T02:12:54Z</time>
      </trkpt>
      <trkpt lat="41.862168" lon="3.128600">
        <ele>9.0</ele>
        <time>2019-01-14T02:12:58Z</time>
      </trkpt>
      <trkpt lat="41.862145" lon="3.128614">
        <ele>9.0</ele>
        <time>2019-01-14T02:12:58Z</time>
      </trkpt>
      <trkpt lat="41.862211" lon="3.128710">
        <ele>9.0</ele>
        <time>2019-01-14T02:13:00Z</time>
      </trkpt>
      <trkpt lat="41.862278" lon="3.128811">
        <ele>10.0</ele>
        <time>2019-01-14T02:13:01Z</time>
      </trkpt>
      <trkpt lat="41.862349" lon="3.128901">
        <ele>10.0</ele>
        <time>2019-01-14T02:13:03Z</time>
      </trkpt>
      <trkpt lat="41.862420" lon="3.128996">
        <ele>10.0</ele>
        <time>2019-01-14T02:13:05Z</time>
      </trkpt>
      <trkpt lat="41.862491" lon="3.129097">
        <ele>10.0</ele>
        <time>2019-01-14T02:13:06Z</time>
      </trkpt>
      <trkpt lat="41.862562" lon="3.129187">
        <ele>10.0</ele>
        <time>2019-01-14T02:13:08Z</time>
      </trkpt>
      <trkpt lat="41.862655" lon="3.129246">
        <ele>10.0</ele>
        <time>2019-01-14T02:13:09Z</time>
      </trkpt>
      <trkpt lat="41.862744" lon="3.129312">
        <ele>10.0</ele>
        <time>2019-01-14T02:13:11Z</time>
      </trkpt>
      <trkpt lat="41.862820" lon="3.129401">
        <ele>11.0</ele>
        <time>2019-01-14T02:13:13Z</time>
      </trkpt>
      <trkpt lat="41.862895" lon="3.129485">
        <ele>11.0</ele>
        <time>2019-01-14T02:13:14Z</time>
      </trkpt>
      <trkpt lat="41.862948" lon="3.129598">
        <ele>11.0</ele>
        <time>2019-01-14T02:13:16Z</time>
      </trkpt>
      <trkpt lat="41.863050" lon="3.129646">
        <ele>11.0</ele>
        <time>2019-01-14T02:13:17Z</time>
      </trkpt>
      <trkpt lat="41.863188" lon="3.129646">
        <ele>11.0</ele>
        <time>2019-01-14T02:13:20Z</time>
      </trkpt>
      <trkpt lat="41.863326" lon="3.129646">
        <ele>12.0</ele>
        <time>2019-01-14T02:13:22Z</time>
      </trkpt>
      <trkpt lat="41.863317" lon="3.129634">
        <ele>12.0</ele>
        <time>2019-01-14T02:13:22Z</time>
      </trkpt>
      <trkpt lat="41.863419" lon="3.129586">
        <ele>12.0</ele>
        <time>2019-01-14T02:13:24Z</time>
      </trkpt>
      <trkpt lat="41.863548" lon="3.129574">
        <ele>12.0</ele>
        <time>2019-01-14T02:13:26Z</time>
      </trkpt>
      <trkpt lat="41.863659" lon="3.129539">
        <ele>12.0</ele>
        <time>2019-01-14T02:13:28Z</time>
      </trkpt>
      <trkpt lat="41.863739" lon="3.129461">
        <ele>12.0</ele>
        <time>2019-01-14T02:13:29Z</time>
      </trkpt>
      <trkpt lat="41.863819" lon="3.129384">
        <ele>12.0</ele>
        <time>2019-01-14T02:13:31Z</time>
      </trkpt>
      <trkpt lat="41.863890" lon="3.129288">
        <ele>12.0</ele>
        <time>2019-01-14T02:13:33Z</time>
      </trkpt>
      <trkpt lat="41.863961" lon="3.129199">
        <ele>12.0</ele>
        <time>2019-01-14T02:13:34Z</time>
      </trkpt>
      <trkpt lat="41.864036" lon="3.129115">
        <ele>13.0</ele>
        <time>2019-01-14T02:13:36Z</time>
      </trkpt>
      <trkpt lat="41.864116" lon="3.129038">
        <ele>13.0</ele>
        <time>2019-01-14T02:13:37Z</time>
      </trkpt>
      <trkpt lat="41.864192" lon="3.128954">
        <ele>13.0</ele>
        <time>2019-01-14T02:13:39Z</time>
      </trkpt>
      <trkpt lat="41.864263" lon="3.128859">
        <ele>13.0</ele>
        <time>2019-01-14T02:13:40Z</time>
      </trkpt>
      <trkpt lat="41.864325" lon="3.128757">
        <ele>13.0</ele>
        <time>2019-01-14T02:13:42Z</time>
      </trkpt>
      <trkpt lat="41.864401" lon="3.128668">
        <ele>13.0</ele>
        <time>2019-01-14T02:13:44Z</time>
      </trkpt>
      <trkpt lat="41.864503" lon="3.128620">
        <ele>13.0</ele>
        <time>2019-01-14T02:13:45Z</time>
      </trkpt>
      <trkpt lat="41.864587" lon="3.128543">
        <ele>13.0</ele>
        <time>2019-01-14T02:13:47Z</time>
      </trkpt>
      <trkpt lat="41.864680" lon="3.128477">
        <ele>13.0</ele>
        <time>2019-01-14T02:13:49Z</time>
      </trkpt>
      <trkpt lat="41.864760" lon="3.128400">
        <ele>14.0</ele>
        <time>2019-01-14T02:13:50Z</time>
      </trkpt>
      <trkpt lat="41.864756" lon="3.128403">
        <ele>14.0</ele>
        <time>2019-01-14T02:13:50Z</time>
      </trkpt>
      <trkpt lat="41.864895" lon="3.128300">
        <ele>14.0</ele>
        <time>2019-01-14T02:13:53Z</time>
      </trkpt>
      <trkpt lat="41.865041" lon="3.128207">
        <ele>15.0</ele>
        <time>2019-01-14T02:13:55Z</time>
      </trkpt>
      <trkpt lat="41.865166" lon="3.128086">
        <ele>15.0</ele>
        <time>2019-01-14T02:13:58Z</time>
      </trkpt>
      <trkpt lat="41.865284" lon="3.127955">
        <ele>15.0</ele>
        <time>2019-01-14T02:14:00Z</time>
      </trkpt>
      <trkpt lat="41.865381" lon="3.127778">
        <ele>16.0</ele>
        <time>2019-01-14T02:14:03Z</time>
      </trkpt>
      <trkpt lat="41.865527" lon="3.127684">
        <ele>17.0</ele>
        <time>2019-01-14T02:14:06Z</time>
      </trkpt>
      <trkpt lat="41.865708" lon="3.127740">
        <ele>17.0</ele>
        <time>2019-01-14T02:14:08Z</time>
      </trkpt>
      <trkpt lat="41.865847" lon="3.127638">
        <ele>17.0</ele>
        <time>2019-01-14T02:14:11Z</time>
      </trkpt>
      <trkpt lat="41.865979" lon="3.127526">
        <ele>17.0</ele>
        <time>2019-01-14T02:14:14Z</time>
      </trkpt>
      <trkpt lat="41.866125" lon="3.127432">
        <ele>17.0</ele>
        <time>2019-01-14T02:14:16Z</time>
      </trkpt>
      <trkpt lat="41.866278" lon="3.127348">
        <ele>17.0</ele>
        <time>2019-01-14T02:14:19Z</time>
      </trkpt>
      <trkpt lat="41.866424" lon="3.127246">
        <ele>17.0</ele>
        <time>2019-01-14T02:14:21Z</time>
      </trkpt>
      <trkpt lat="41.866549" lon="3.127115">
        <ele>18.0</ele>
        <time>2019-01-14T02:14:24Z</time>
      </trkpt>
      <trkpt lat="41.866667" lon="3.126984">
        <ele>18.0</ele>
        <time>2019-01-14T02:14:26Z</time>
      </trkpt>
      <trkpt lat="41.866785" lon="3.126854">
        <ele>18.0</ele>
        <time>2019-01-14T02:14:29Z</time>
      </trkpt>
      <trkpt lat="41.866896" lon="3.126714">
        <ele>18.0</ele>
        <time>2019-01-14T02:14:31Z</time>
      </trkpt>
      <trkpt lat="41.867014" lon="3.126583">
        <ele>18.0</ele>
        <time>2019-01-14T02:14:34Z</time>
      </trkpt>
      <trkpt lat="41.867132" lon="3.126453">
        <ele>18.0</ele>
        <time>2019-01-14T02:14:36Z</time>
      </trkpt>
      <trkpt lat="41.867119" lon="3.126453">
        <ele>18.0</ele>
        <time>2019-01-14T02:14:36Z</time>
      </trkpt>
      <trkpt lat="41.867209" lon="3.126285">
        <ele>18.0</ele>
        <time>2019-01-14T02:14:39Z</time>
      </trkpt>
      <trkpt lat="41.867334" lon="3.126163">
        <ele>18.0</ele>
        <time>2019-01-14T02:14:41Z</time>
      </trkpt>
      <trkpt lat="41.867487" lon="3.126079">
        <ele>18.0</ele>
        <time>2019-01-14T02:14:44Z</time>
      </trkpt>
      <trkpt lat="41.867660" lon="3.126023">
        <ele>18.0</ele>
        <time>2019-01-14T02:14:47Z</time>
      </trkpt>
      <trkpt lat="41.867841" lon="3.125977">
        <ele>19.0</ele>
        <time>2019-01-14T02:14:50Z</time>
      </trkpt>
      <trkpt lat="41.868008" lon="3.125911">
        <ele>19.0</ele>
        <time>2019-01-14T02:14:53Z</time>
      </trkpt>
      <trkpt lat="41.868168" lon="3.125837">
        <ele>20.0</ele>
        <time>2019-01-14T02:14:55Z</time>
      </trkpt>
      <trkpt lat="41.868348" lon="3.125790">
        <ele>20.0</ele>
        <time>2019-01-14T02:14:58Z</time>
      </trkpt>
      <trkpt lat="41.868522" lon="3.125725">
        <ele>20.0</ele>
        <time>2019-01-14T02:15:01Z</time>
      </trkpt>
      <trkpt lat="41.868668" lon="3.125631">
        <ele>21.0</ele>
        <time>2019-01-14T02:15:04Z</time>
      </trkpt>
      <trkpt lat="41.868835" lon="3.125566">
        <ele>21.0</ele>
        <time>2019-01-14T02:15:06Z</time>
      </trkpt>
      <trkpt lat="41.868995" lon="3.125491">
        <ele>21.0</ele>
        <time>2019-01-14T02:15:09Z</time>
      </trkpt>
      <trkpt lat="41.869134" lon="3.125389">
        <ele>22.0</ele>
        <time>2019-01-14T02:15:12Z</time>
      </trkpt>
      <trkpt lat="41.869280" lon="3.125296">
        <ele>22.0</ele>
        <time>2019-01-14T02:15:14Z</time>
      </trkpt>
      <trkpt lat="41.869398" lon="3.125165">
        <ele>23.0</ele>
        <time>2019-01-14T02:15:17Z</time>
      </trkpt>
      <trkpt lat="41.869516" lon="3.125025">
        <ele>23.0</ele>
        <time>2019-01-14T02:15:19Z</time>
      </trkpt>
      <trkpt lat="41.869648" lon="3.124913">
        <ele>24.0</ele>
        <time>2019-01-14T02:15:22Z</time>
      </trkpt>
      <trkpt lat="41.869780" lon="3.124782">
        <ele>25.0</ele>
        <time>2019-01-14T02:15:24Z</time>
      </trkpt>
      <trkpt lat="41.869926" lon="3.124689">
        <ele>25.0</ele>
        <time>2019-01-14T02:15:27Z</time>
      </trkpt>
      <trkpt lat="41.870030" lon="3.124530">
        <ele>26.0</ele>
        <time>2019-01-14T02:15:30Z</time>
      </trkpt>
      <trkpt lat="41.870089" lon="3.124470">
        <ele>26.0</ele>
        <time>2019-01-14T02:15:31Z</time>
      </trkpt>
      <trkpt lat="41.870155" lon="3.124409">
        <ele>26.0</ele>
        <time>2019-01-14T02:15:32Z</time>
      </trkpt>
      <trkpt lat="41.870273" lon="3.124269">
        <ele>26.0</ele>
        <time>2019-01-14T02:15:34Z</time>
      </trkpt>
      <trkpt lat="41.870398" lon="3.124139">
        <ele>27.0</ele>
        <time>2019-01-14T02:15:37Z</time>
      </trkpt>
      <trkpt lat="41.870530" lon="3.124027">
        <ele>27.0</ele>
        <time>2019-01-14T02:15:40Z</time>
      </trkpt>
      <trkpt lat="41.870648" lon="3.123896">
        <ele>27.0</ele>
        <time>2019-01-14T02:15:42Z</time>
      </trkpt>
      <trkpt lat="41.870759" lon="3.123756">
        <ele>28.0</ele>
        <time>2019-01-14T02:15:44Z</time>
      </trkpt>
      <trkpt lat="41.870857" lon="3.123597">
        <ele>29.0</ele>
        <time>2019-01-14T02:15:47Z</time>
      </trkpt>
      <trkpt lat="41.870975" lon="3.123448">
        <ele>29.0</ele>
        <time>2019-01-14T02:15:49Z</time>
      </trkpt>
      <trkpt lat="41.871093" lon="3.123317">
        <ele>30.0</ele>
        <time>2019-01-14T02:15:52Z</time>
      </trkpt>
      <trkpt lat="41.871211" lon="3.123177">
        <ele>30.0</ele>
        <time>2019-01-14T02:15:54Z</time>
      </trkpt>
      <trkpt lat="41.871329" lon="3.123038">
        <ele>31.0</ele>
        <time>2019-01-14T02:15:57Z</time>
      </trkpt>
      <trkpt lat="41.871434" lon="3.122888">
        <ele>31.0</ele>
        <time>2019-01-14T02:15:59Z</time>
      </trkpt>
      <trkpt lat="41.871552" lon="3.122758">
        <ele>31.0</ele>
        <time>2019-01-14T02:16:02Z</time>
      </trkpt>
      <trkpt lat="41.871670" lon="3.122627">
        <ele>32.0</ele>
        <time>2019-01-14T02:16:04Z</time>
      </trkpt>
      <trkpt lat="41.871753" lon="3.122450">
        <ele>32.0</ele>
        <time>2019-01-14T02:16:07Z</time>
      </trkpt>
      <trkpt lat="41.871857" lon="3.122291">
        <ele>33.0</ele>
        <time>2019-01-14T02:16:09Z</time>
      </trkpt>
      <trkpt lat="41.871982" lon="3.122151">
        <ele>34.0</ele>
        <time>2019-01-14T02:16:12Z</time>
      </trkpt>
      <trkpt lat="41.872101" lon="3.122002">
        <ele>34.0</ele>
        <time>2019-01-14T02:16:15Z</time>
      </trkpt>
      <trkpt lat="41.872226" lon="3.121881">
        <ele>34.0</ele>
        <time>2019-01-14T02:16:17Z</time>
      </trkpt>
      <trkpt lat="41.872344" lon="3.121750">
        <ele>34.0</ele>
        <time>2019-01-14T02:16:19Z</time>
      </trkpt>
      <trkpt lat="41.872469" lon="3.121629">
        <ele>35.0</ele>
        <time>2019-01-14T02:16:22Z</time>
      </trkpt>
      <trkpt lat="41.872580" lon="3.121479">
        <ele>35.0</ele>
        <time>2019-01-14T02:16:24Z</time>
      </trkpt>
      <trkpt lat="41.872698" lon="3.121330">
        <ele>35.0</ele>
        <time>2019-01-14T02:16:27Z</time>
      </trkpt>
      <trkpt lat="41.872788" lon="3.121153">
        <ele>36.0</ele>
        <time>2019-01-14T02:16:30Z</time>
      </trkpt>
      <trkpt lat="41.872907" lon="3.121022">
        <ele>37.0</ele>
        <time>2019-01-14T02:16:32Z</time>
      </trkpt>
      <trkpt lat="41.873025" lon="3.120891">
        <ele>37.0</ele>
        <time>2019-01-14T02:16:34Z</time>
      </trkpt>
      <trkpt lat="41.873157" lon="3.120780">
        <ele>38.0</ele>
        <time>2019-01-14T02:16:37Z</time>
      </trkpt>
      <trkpt lat="41.873164" lon="3.120770">
        <ele>38.0</ele>
        <time>2019-01-14T02:16:37Z</time>
      </trkpt>
      <trkpt lat="41.873261" lon="3.120612">
        <ele>39.0</ele>
        <time>2019-01-14T02:16:40Z</time>
      </trkpt>
      <trkpt lat="41.873309" lon="3.120388">
        <ele>39.0</ele>
        <time>2019-01-14T02:16:42Z</time>
      </trkpt>
      <trkpt lat="41.873386" lon="3.120201">
        <ele>40.0</ele>
        <time>2019-01-14T02:16:45Z</time>
      </trkpt>
      <trkpt lat="41.873511" lon="3.120080">
        <ele>41.0</ele>
        <time>2019-01-14T02:16:47Z</time>
      </trkpt>
      <trkpt lat="41.873698" lon="3.120042">
        <ele>42.0</ele>
        <time>2019-01-14T02:16:50Z</time>
      </trkpt>
      <trkpt lat="41.873893" lon="3.120014">
        <ele>43.0</ele>
        <time>2019-01-14T02:16:54Z</time>
      </trkpt>
      <trkpt lat="41.874095" lon="3.120033">
        <ele>44.0</ele>
        <time>2019-01-14T02:16:57Z</time>
      </trkpt>
      <trkpt lat="41.874296" lon="3.120061">
        <ele>45.0</ele>
        <time>2019-01-14T02:17:00Z</time>
      </trkpt>
      <trkpt lat="41.874491" lon="3.120033">
        <ele>46.0</ele>
        <time>2019-01-14T02:17:03Z</time>
      </trkpt>
      <trkpt lat="41.874678" lon="3.119996">
        <ele>47.0</ele>
        <time>2019-01-14T02:17:06Z</time>
      </trkpt>
      <trkpt lat="41.874887" lon="3.120005">
        <ele>47.0</ele>
        <time>2019-01-14T02:17:10Z</time>
      </trkpt>
      <trkpt lat="41.875102" lon="3.120005">
        <ele>48.0</ele>
        <time>2019-01-14T02:17:13Z</time>
      </trkpt>
      <trkpt lat="41.875317" lon="3.119996">
        <ele>49.0</ele>
        <time>2019-01-14T02:17:16Z</time>
      </trkpt>
      <trkpt lat="41.875519" lon="3.120014">
        <ele>49.0</ele>
        <time>2019-01-14T02:17:20Z</time>
      </trkpt>
      <trkpt lat="41.875713" lon="3.120052">
        <ele>50.0</ele>
        <time>2019-01-14T02:17:23Z</time>
      </trkpt>
      <trkpt lat="41.875901" lon="3.120089">
        <ele>51.0</ele>
        <time>2019-01-14T02:17:26Z</time>
      </trkpt>
      <trkpt lat="41.876089" lon="3.120126">
        <ele>51.0</ele>
        <time>2019-01-14T02:17:29Z</time>
      </trkpt>
      <trkpt lat="41.876228" lon="3.120238">
        <ele>52.0</ele>
        <time>2019-01-14T02:17:31Z</time>
      </trkpt>
      <trkpt lat="41.876373" lon="3.120332">
        <ele>52.0</ele>
        <time>2019-01-14T02:17:34Z</time>
      </trkpt>
      <trkpt lat="41.876368" lon="3.120346">
        <ele>52.0</ele>
        <time>2019-01-14T02:17:34Z</time>
      </trkpt>
      <trkpt lat="41.876433" lon="3.120358">
        <ele>53.0</ele>
        <time>2019-01-14T02:17:35Z</time>
      </trkpt>
      <trkpt lat="41.876479" lon="3.120392">
        <ele>53.0</ele>
        <time>2019-01-14T02:17:36Z</time>
      </trkpt>
      <trkpt lat="41.876535" lon="3.120414">
        <ele>53.0</ele>
        <time>2019-01-14T02:17:37Z</time>
      </trkpt>
      <trkpt lat="41.876593" lon="3.120436">
        <ele>53.0</ele>
        <time>2019-01-14T02:17:38Z</time>
      </trkpt>
      <trkpt lat="41.876634" lon="3.120476">
        <ele>53.0</ele>
        <time>2019-01-14T02:17:39Z</time>
      </trkpt>
      <trkpt lat="41.876694" lon="3.120491">
        <ele>53.0</ele>
        <time>2019-01-14T02:17:40Z</time>
      </trkpt>
      <trkpt lat="41.876757" lon="3.120510">
        <ele>53.0</ele>
        <time>2019-01-14T02:17:41Z</time>
      </trkpt>
      <trkpt lat="41.876810" lon="3.120535">
        <ele>53.0</ele>
        <time>2019-01-14T02:17:42Z</time>
      </trkpt>
      <trkpt lat="41.876856" lon="3.120569">
        <ele>53.0</ele>
        <time>2019-01-14T02:17:43Z</time>
      </trkpt>
      <trkpt lat="41.876905" lon="3.120600">
        <ele>53.0</ele>
        <time>2019-01-14T02:17:43Z</time>
      </trkpt>
      <trkpt lat="41.876960" lon="3.120622">
        <ele>53.0</ele>
        <time>2019-01-14T02:17:44Z</time>
      </trkpt>
      <trkpt lat="41.877013" lon="3.120650">
        <ele>53.0</ele>
        <time>2019-01-14T02:17:45Z</time>
      </trkpt>
      <trkpt lat="41.877060" lon="3.120684">
        <ele>53.0</ele>
        <time>2019-01-14T02:17:46Z</time>
      </trkpt>
      <trkpt lat="41.877108" lon="3.120721">
        <ele>53.0</ele>
        <time>2019-01-14T02:17:47Z</time>
      </trkpt>
      <trkpt lat="41.877150" lon="3.120761">
        <ele>53.0</ele>
        <time>2019-01-14T02:17:48Z</time>
      </trkpt>
      <trkpt lat="41.877194" lon="3.120799">
        <ele>53.0</ele>
        <time>2019-01-14T02:17:49Z</time>
      </trkpt>
      <trkpt lat="41.877191" lon="3.120786">
        <ele>53.0</ele>
        <time>2019-01-14T02:17:49Z</time>
      </trkpt>
      <trkpt lat="41.877316" lon="3.120798">
        <ele>54.0</ele>
        <time>2019-01-14T02:17:51Z</time>
      </trkpt>
      <trkpt lat="41.877301" lon="3.120640">
        <ele>55.0</ele>
        <time>2019-01-14T02:17:53Z</time>
      </trkpt>
      <trkpt lat="41.877277" lon="3.120469">
        <ele>56.0</ele>
        <time>2019-01-14T02:17:55Z</time>
      </trkpt>
      <trkpt lat="41.877282" lon="3.120274">
        <ele>57.0</ele>
        <time>2019-01-14T02:17:57Z</time>
      </trkpt>
      <trkpt lat="41.877287" lon="3.120079">
        <ele>58.0</ele>
        <time>2019-01-14T02:17:59Z</time>
      </trkpt>
      <trkpt lat="41.877226" lon="3.119953">
        <ele>58.0</ele>
        <time>2019-01-14T02:18:01Z</time>
      </trkpt>
      <trkpt lat="41.877174" lon="3.119814">
        <ele>59.0</ele>
        <time>2019-01-14T02:18:03Z</time>
      </trkpt>
      <trkpt lat="41.877136" lon="3.119669">
        <ele>60.0</ele>
        <time>2019-01-14T02:18:05Z</time>
      </trkpt>
      <trkpt lat="41.877085" lon="3.119537">
        <ele>60.0</ele>
        <time>2019-01-14T02:18:07Z</time>
      </trkpt>
      <trkpt lat="41.877038" lon="3.119398">
        <ele>60.0</ele>
        <time>2019-01-14T02:18:09Z</time>
      </trkpt>
      <trkpt lat="41.877005" lon="3.119247">
        <ele>61.0</ele>
        <time>2019-01-14T02:18:10Z</time>
      </trkpt>
      <trkpt lat="41.876986" lon="3.119077">
        <ele>61.0</ele>
        <time>2019-01-14T02:18:12Z</time>
      </trkpt>
      <trkpt lat="41.876982" lon="3.118875">
        <ele>61.0</ele>
        <time>2019-01-14T02:18:15Z</time>
      </trkpt>
      <trkpt lat="41.876968" lon="3.118686">
        <ele>61.0</ele>
        <time>2019-01-14T02:18:17Z</time>
      </trkpt>
      <trkpt lat="41.876954" lon="3.118497">
        <ele>62.0</ele>
        <time>2019-01-14T02:18:19Z</time>
      </trkpt>
      <trkpt lat="41.876944" lon="3.118302">
        <ele>62.0</ele>
        <time>2019-01-14T02:18:22Z</time>
      </trkpt>
      <trkpt lat="41.876944" lon="3.118101">
        <ele>62.0</ele>
        <time>2019-01-14T02:18:24Z</time>
      </trkpt>
      <trkpt lat="41.876958" lon="3.117905">
        <ele>61.0</ele>
        <time>2019-01-14T02:18:26Z</time>
      </trkpt>
      <trkpt lat="41.876963" lon="3.117710">
        <ele>61.0</ele>
        <time>2019-01-14T02:18:29Z</time>
      </trkpt>
      <trkpt lat="41.876982" lon="3.117540">
        <ele>61.0</ele>
        <time>2019-01-14T02:18:31Z</time>
      </trkpt>
      <trkpt lat="41.876982" lon="3.117344">
        <ele>62.0</ele>
        <time>2019-01-14T02:18:33Z</time>
      </trkpt>
      <trkpt lat="41.876996" lon="3.117162">
        <ele>62.0</ele>
        <time>2019-01-14T02:18:35Z</time>
      </trkpt>
      <trkpt lat="41.877019" lon="3.116992">
        <ele>64.0</ele>
        <time>2019-01-14T02:18:37Z</time>
      </trkpt>
      <trkpt lat="41.877018" lon="3.116720">
        <ele>65.0</ele>
        <time>2019-01-14T02:18:41Z</time>
      </trkpt>
      <trkpt lat="41.876960" lon="3.116495">
        <ele>65.0</ele>
        <time>2019-01-14T02:18:44Z</time>
      </trkpt>
      <trkpt lat="41.876923" lon="3.116240">
        <ele>65.0</ele>
        <time>2019-01-14T02:18:47Z</time>
      </trkpt>
      <trkpt lat="41.876880" lon="3.115995">
        <ele>64.0</ele>
        <time>2019-01-14T02:18:50Z</time>
      </trkpt>
      <trkpt lat="41.876741" lon="3.115877">
        <ele>62.0</ele>
        <time>2019-01-14T02:18:52Z</time>
      </trkpt>
      <trkpt lat="41.876777" lon="3.115622">
        <ele>63.0</ele>
        <time>2019-01-14T02:18:55Z</time>
      </trkpt>
      <trkpt lat="41.876982" lon="3.115583">
        <ele>65.0</ele>
        <time>2019-01-14T02:18:59Z</time>
      </trkpt>
      <trkpt lat="41.877179" lon="3.115534">
        <ele>67.0</ele>
        <time>2019-01-14T02:19:02Z</time>
      </trkpt>
      <trkpt lat="41.877347" lon="3.115446">
        <ele>69.0</ele>
        <time>2019-01-14T02:19:05Z</time>
      </trkpt>
      <trkpt lat="41.877434" lon="3.115260">
        <ele>69.0</ele>
        <time>2019-01-14T02:19:07Z</time>
      </trkpt>
      <trkpt lat="41.877500" lon="3.115034">
        <ele>69.0</ele>
        <time>2019-01-14T02:19:10Z</time>
      </trkpt>
      <trkpt lat="41.877609" lon="3.114868">
        <ele>69.0</ele>
        <time>2019-01-14T02:19:13Z</time>
      </trkpt>
      <trkpt lat="41.877712" lon="3.114691">
        <ele>69.0</ele>
        <time>2019-01-14T02:19:16Z</time>
      </trkpt>
      <trkpt lat="41.877821" lon="3.114525">
        <ele>69.0</ele>
        <time>2019-01-14T02:19:18Z</time>
      </trkpt>
      <trkpt lat="41.877850" lon="3.114260">
        <ele>69.0</ele>
        <time>2019-01-14T02:19:21Z</time>
      </trkpt>
      <trkpt lat="41.877872" lon="3.113986">
        <ele>69.0</ele>
        <time>2019-01-14T02:19:25Z</time>
      </trkpt>
      <trkpt lat="41.877931" lon="3.113760">
        <ele>69.0</ele>
        <time>2019-01-14T02:19:28Z</time>
      </trkpt>
      <trkpt lat="41.878011" lon="3.113554">
        <ele>69.0</ele>
        <time>2019-01-14T02:19:30Z</time>
      </trkpt>
      <trkpt lat="41.878106" lon="3.113378">
        <ele>69.0</ele>
        <time>2019-01-14T02:19:33Z</time>
      </trkpt>
      <trkpt lat="41.878244" lon="3.113260">
        <ele>69.0</ele>
        <time>2019-01-14T02:19:36Z</time>
      </trkpt>
      <trkpt lat="41.878376" lon="3.113123">
        <ele>69.0</ele>
        <time>2019-01-14T02:19:38Z</time>
      </trkpt>
      <trkpt lat="41.878478" lon="3.112957">
        <ele>69.0</ele>
        <time>2019-01-14T02:19:41Z</time>
      </trkpt>
      <trkpt lat="41.878551" lon="3.112751">
        <ele>69.0</ele>
        <time>2019-01-14T02:19:43Z</time>
      </trkpt>
      <trkpt lat="41.878638" lon="3.112565">
        <ele>69.0</ele>
        <time>2019-01-14T02:19:46Z</time>
      </trkpt>
      <trkpt lat="41.878770" lon="3.112437">
        <ele>68.0</ele>
        <time>2019-01-14T02:19:49Z</time>
      </trkpt>
      <trkpt lat="41.878974" lon="3.112408">
        <ele>68.0</ele>
        <time>2019-01-14T02:19:52Z</time>
      </trkpt>
      <trkpt lat="41.879186" lon="3.112427">
        <ele>68.0</ele>
        <time>2019-01-14T02:19:55Z</time>
      </trkpt>
      <trkpt lat="41.879346" lon="3.112515">
        <ele>68.0</ele>
        <time>2019-01-14T02:19:58Z</time>
      </trkpt>
      <trkpt lat="41.879536" lon="3.112467">
        <ele>68.0</ele>
        <time>2019-01-14T02:20:01Z</time>
      </trkpt>
      <trkpt lat="41.879580" lon="3.112221">
        <ele>69.0</ele>
        <time>2019-01-14T02:20:04Z</time>
      </trkpt>
      <trkpt lat="41.879573" lon="3.111927">
        <ele>71.0</ele>
        <time>2019-01-14T02:20:08Z</time>
      </trkpt>
      <trkpt lat="41.879587" lon="3.111643">
        <ele>72.0</ele>
        <time>2019-01-14T02:20:11Z</time>
      </trkpt>
      <trkpt lat="41.879595" lon="3.111466">
        <ele>74.0</ele>
        <time>2019-01-14T02:20:13Z</time>
      </trkpt>
      <trkpt lat="41.879605" lon="3.111284">
        <ele>75.0</ele>
        <time>2019-01-14T02:20:15Z</time>
      </trkpt>
      <trkpt lat="41.879581" lon="3.111109">
        <ele>76.0</ele>
        <time>2019-01-14T02:20:18Z</time>
      </trkpt>
      <trkpt lat="41.879535" lon="3.110978">
        <ele>77.0</ele>
        <time>2019-01-14T02:20:19Z</time>
      </trkpt>
      <trkpt lat="41.879460" lon="3.110878">
        <ele>79.0</ele>
        <time>2019-01-14T02:20:21Z</time>
      </trkpt>
      <trkpt lat="41.879414" lon="3.110734">
        <ele>80.0</ele>
        <time>2019-01-14T02:20:23Z</time>
      </trkpt>
      <trkpt lat="41.879400" lon="3.110559">
        <ele>82.0</ele>
        <time>2019-01-14T02:20:25Z</time>
      </trkpt>
      <trkpt lat="41.879423" lon="3.110390">
        <ele>84.0</ele>
        <time>2019-01-14T02:20:27Z</time>
      </trkpt>
      <trkpt lat="41.879484" lon="3.110265">
        <ele>85.0</ele>
        <time>2019-01-14T02:20:29Z</time>
      </trkpt>
      <trkpt lat="41.879516" lon="3.110115">
        <ele>87.0</ele>
        <time>2019-01-14T02:20:31Z</time>
      </trkpt>
      <trkpt lat="41.879581" lon="3.110003">
        <ele>88.0</ele>
        <time>2019-01-14T02:20:32Z</time>
      </trkpt>
      <trkpt lat="41.879651" lon="3.109903">
        <ele>89.0</ele>
        <time>2019-01-14T02:20:34Z</time>
      </trkpt>
      <trkpt lat="41.879693" lon="3.109765">
        <ele>90.0</ele>
        <time>2019-01-14T02:20:36Z</time>
      </trkpt>
      <trkpt lat="41.879744" lon="3.109640">
        <ele>90.0</ele>
        <time>2019-01-14T02:20:37Z</time>
      </trkpt>
      <trkpt lat="41.879870" lon="3.109615">
        <ele>91.0</ele>
        <time>2019-01-14T02:20:39Z</time>
      </trkpt>
      <trkpt lat="41.880005" lon="3.109628">
        <ele>92.0</ele>
        <time>2019-01-14T02:20:42Z</time>
      </trkpt>
      <trkpt lat="41.880135" lon="3.109609">
        <ele>92.0</ele>
        <time>2019-01-14T02:20:44Z</time>
      </trkpt>
      <trkpt lat="41.880252" lon="3.109571">
        <ele>93.0</ele>
        <time>2019-01-14T02:20:46Z</time>
      </trkpt>
      <trkpt lat="41.880349" lon="3.109503">
        <ele>94.0</ele>
        <time>2019-01-14T02:20:47Z</time>
      </trkpt>
      <trkpt lat="41.880475" lon="3.109478">
        <ele>94.0</ele>
        <time>2019-01-14T02:20:49Z</time>
      </trkpt>
      <trkpt lat="41.880582" lon="3.109540">
        <ele>94.0</ele>
        <time>2019-01-14T02:20:51Z</time>
      </trkpt>
      <trkpt lat="41.880694" lon="3.109584">
        <ele>95.0</ele>
        <time>2019-01-14T02:20:53Z</time>
      </trkpt>
      <trkpt lat="41.880824" lon="3.109609">
        <ele>95.0</ele>
        <time>2019-01-14T02:20:55Z</time>
      </trkpt>
      <trkpt lat="41.880959" lon="3.109621">
        <ele>95.0</ele>
        <time>2019-01-14T02:20:57Z</time>
      </trkpt>
      <trkpt lat="41.881080" lon="3.109590">
        <ele>95.0</ele>
        <time>2019-01-14T02:20:59Z</time>
      </trkpt>
      <trkpt lat="41.881224" lon="3.109584">
        <ele>96.0</ele>
        <time>2019-01-14T02:21:02Z</time>
      </trkpt>
      <trkpt lat="41.881322" lon="3.109515">
        <ele>96.0</ele>
        <time>2019-01-14T02:21:04Z</time>
      </trkpt>
      <trkpt lat="41.881406" lon="3.109434">
        <ele>95.0</ele>
        <time>2019-01-14T02:21:05Z</time>
      </trkpt>
    </trkseg>
  </trk>
</gpx>
